<?xml version="1.0" encoding="UTF-8" ?>
<gpx version="1.1" 
creator="Memory-Map 6.4.3.1278 https://memory-map.com"
 xmlns:xsi="http://www.w3.org/2001/XMLSchema-instance"
 xmlns="http://www.topografix.com/GPX/1/1"
 xmlns:xstyle="http://www.topografix.com/GPX/gpx_style/0/2"
 xmlns:xgarmin="http://www.garmin.com/xmlschemas/GpxExtensions/v3"
 xsi:schemaLocation="http://www.topografix.com/GPX/1/1 http://www.topografix.com/GPX/1/1/gpx.xsd http://www.topografix.com/GPX/gpx_style/0/2 http://www.topografix.com/GPX/gpx_style/0/2/gpx_style.xsd http://www.garmin.com/xmlschemas/GpxExtensions/v3 https://www8.garmin.com/xmlschemas/GpxExtensionsv3.xsd">
<trk>
<name>1454 Pic d'Arneille</name>
<src>mmid:5BFAC5535C7BC4EF</src>
<type>Track</type>
<extensions> <xstyle:line>
<xstyle:color>ff8000</xstyle:color>
<xstyle:opacity>1.0</xstyle:opacity>
<xstyle:width>2.0</xstyle:width>
<xstyle:pattern>Solid</xstyle:pattern>
</xstyle:line></extensions>
<trkseg>
<trkpt lat="43.0128020000" lon="0.3673170000"><ele>622</ele><time>2026-03-24T06:36:03Z</time></trkpt>
<trkpt lat="43.0128020000" lon="0.3673000000"><ele>622</ele><time>2026-03-24T06:36:05Z</time></trkpt>
<trkpt lat="43.0127970000" lon="0.3672750000"><ele>622</ele><time>2026-03-24T06:36:08Z</time></trkpt>
<trkpt lat="43.0127820000" lon="0.3672580000"><ele>622</ele><time>2026-03-24T06:36:12Z</time></trkpt>
<trkpt lat="43.0127600000" lon="0.3672470000"><ele>622</ele><time>2026-03-24T06:36:15Z</time></trkpt>
<trkpt lat="43.0127370000" lon="0.3672420000"><ele>622</ele><time>2026-03-24T06:36:39Z</time></trkpt>
<trkpt lat="43.0127150000" lon="0.3672420000"><ele>621</ele><time>2026-03-24T06:36:56Z</time></trkpt>
<trkpt lat="43.0127070000" lon="0.3672100000"><ele>621</ele><time>2026-03-24T06:36:59Z</time></trkpt>
<trkpt lat="43.0127100000" lon="0.3671820000"><ele>622</ele><time>2026-03-24T06:37:01Z</time></trkpt>
<trkpt lat="43.0127170000" lon="0.3672070000"><ele>622</ele><time>2026-03-24T06:37:11Z</time></trkpt>
<trkpt lat="43.0127320000" lon="0.3671830000"><ele>622</ele><time>2026-03-24T06:37:19Z</time></trkpt>
<trkpt lat="43.0127470000" lon="0.3671520000"><ele>622</ele><time>2026-03-24T06:37:22Z</time></trkpt>
<trkpt lat="43.0127620000" lon="0.3671220000"><ele>622</ele><time>2026-03-24T06:37:25Z</time></trkpt>
<trkpt lat="43.0127650000" lon="0.3670970000"><ele>622</ele><time>2026-03-24T06:37:27Z</time></trkpt>
<trkpt lat="43.0127770000" lon="0.3670770000"><ele>622</ele><time>2026-03-24T06:37:40Z</time></trkpt>
<trkpt lat="43.0127920000" lon="0.3670520000"><ele>622</ele><time>2026-03-24T06:37:42Z</time></trkpt>
<trkpt lat="43.0128050000" lon="0.3670300000"><ele>622</ele><time>2026-03-24T06:37:44Z</time></trkpt>
<trkpt lat="43.0128150000" lon="0.3670020000"><ele>622</ele><time>2026-03-24T06:37:46Z</time></trkpt>
<trkpt lat="43.0128220000" lon="0.3669720000"><ele>622</ele><time>2026-03-24T06:37:48Z</time></trkpt>
<trkpt lat="43.0128270000" lon="0.3669470000"><ele>622</ele><time>2026-03-24T06:37:50Z</time></trkpt>
<trkpt lat="43.0128320000" lon="0.3669200000"><ele>623</ele><time>2026-03-24T06:37:52Z</time></trkpt>
<trkpt lat="43.0128400000" lon="0.3668920000"><ele>623</ele><time>2026-03-24T06:37:54Z</time></trkpt>
<trkpt lat="43.0128500000" lon="0.3668720000"><ele>623</ele><time>2026-03-24T06:37:56Z</time></trkpt>
<trkpt lat="43.0128620000" lon="0.3668430000"><ele>623</ele><time>2026-03-24T06:37:58Z</time></trkpt>
<trkpt lat="43.0128720000" lon="0.3668170000"><ele>623</ele><time>2026-03-24T06:38:00Z</time></trkpt>
<trkpt lat="43.0128800000" lon="0.3667870000"><ele>623</ele><time>2026-03-24T06:38:02Z</time></trkpt>
<trkpt lat="43.0128900000" lon="0.3667620000"><ele>623</ele><time>2026-03-24T06:38:04Z</time></trkpt>
<trkpt lat="43.0128970000" lon="0.3667350000"><ele>623</ele><time>2026-03-24T06:38:06Z</time></trkpt>
<trkpt lat="43.0129020000" lon="0.3667020000"><ele>623</ele><time>2026-03-24T06:38:08Z</time></trkpt>
<trkpt lat="43.0129100000" lon="0.3666720000"><ele>624</ele><time>2026-03-24T06:38:10Z</time></trkpt>
<trkpt lat="43.0129170000" lon="0.3666470000"><ele>624</ele><time>2026-03-24T06:38:12Z</time></trkpt>
<trkpt lat="43.0129280000" lon="0.3666220000"><ele>624</ele><time>2026-03-24T06:38:14Z</time></trkpt>
<trkpt lat="43.0129370000" lon="0.3665920000"><ele>624</ele><time>2026-03-24T06:38:16Z</time></trkpt>
<trkpt lat="43.0129450000" lon="0.3665600000"><ele>624</ele><time>2026-03-24T06:38:18Z</time></trkpt>
<trkpt lat="43.0129470000" lon="0.3665300000"><ele>624</ele><time>2026-03-24T06:38:20Z</time></trkpt>
<trkpt lat="43.0129650000" lon="0.3665120000"><ele>624</ele><time>2026-03-24T06:38:23Z</time></trkpt>
<trkpt lat="43.0129820000" lon="0.3665070000"><ele>625</ele><time>2026-03-24T06:38:26Z</time></trkpt>
<trkpt lat="43.0129820000" lon="0.3664720000"><ele>625</ele><time>2026-03-24T06:38:34Z</time></trkpt>
<trkpt lat="43.0129850000" lon="0.3664420000"><ele>625</ele><time>2026-03-24T06:38:36Z</time></trkpt>
<trkpt lat="43.0129950000" lon="0.3664150000"><ele>625</ele><time>2026-03-24T06:38:38Z</time></trkpt>
<trkpt lat="43.0130050000" lon="0.3663850000"><ele>625</ele><time>2026-03-24T06:38:40Z</time></trkpt>
<trkpt lat="43.0130120000" lon="0.3663620000"><ele>625</ele><time>2026-03-24T06:38:42Z</time></trkpt>
<trkpt lat="43.0130220000" lon="0.3663320000"><ele>625</ele><time>2026-03-24T06:38:45Z</time></trkpt>
<trkpt lat="43.0130300000" lon="0.3662970000"><ele>626</ele><time>2026-03-24T06:38:48Z</time></trkpt>
<trkpt lat="43.0130350000" lon="0.3662720000"><ele>626</ele><time>2026-03-24T06:38:50Z</time></trkpt>
<trkpt lat="43.0130250000" lon="0.3662470000"><ele>626</ele><time>2026-03-24T06:38:53Z</time></trkpt>
<trkpt lat="43.0130100000" lon="0.3662270000"><ele>626</ele><time>2026-03-24T06:38:55Z</time></trkpt>
<trkpt lat="43.0130070000" lon="0.3662000000"><ele>626</ele><time>2026-03-24T06:38:57Z</time></trkpt>
<trkpt lat="43.0130120000" lon="0.3661720000"><ele>626</ele><time>2026-03-24T06:38:59Z</time></trkpt>
<trkpt lat="43.0130270000" lon="0.3661570000"><ele>627</ele><time>2026-03-24T06:39:01Z</time></trkpt>
<trkpt lat="43.0130270000" lon="0.3661270000"><ele>627</ele><time>2026-03-24T06:39:07Z</time></trkpt>
<trkpt lat="43.0130170000" lon="0.3660950000"><ele>627</ele><time>2026-03-24T06:39:10Z</time></trkpt>
<trkpt lat="43.0130100000" lon="0.3660670000"><ele>627</ele><time>2026-03-24T06:39:13Z</time></trkpt>
<trkpt lat="43.0130070000" lon="0.3660400000"><ele>627</ele><time>2026-03-24T06:39:15Z</time></trkpt>
<trkpt lat="43.0130100000" lon="0.3660020000"><ele>627</ele><time>2026-03-24T06:39:18Z</time></trkpt>
<trkpt lat="43.0130070000" lon="0.3659700000"><ele>627</ele><time>2026-03-24T06:39:20Z</time></trkpt>
<trkpt lat="43.0130020000" lon="0.3659420000"><ele>627</ele><time>2026-03-24T06:39:22Z</time></trkpt>
<trkpt lat="43.0129920000" lon="0.3659170000"><ele>627</ele><time>2026-03-24T06:39:24Z</time></trkpt>
<trkpt lat="43.0130020000" lon="0.3658850000"><ele>627</ele><time>2026-03-24T06:39:28Z</time></trkpt>
<trkpt lat="43.0129980000" lon="0.3658570000"><ele>627</ele><time>2026-03-24T06:39:30Z</time></trkpt>
<trkpt lat="43.0129970000" lon="0.3658270000"><ele>628</ele><time>2026-03-24T06:39:32Z</time></trkpt>
<trkpt lat="43.0129970000" lon="0.3658000000"><ele>628</ele><time>2026-03-24T06:39:34Z</time></trkpt>
<trkpt lat="43.0129900000" lon="0.3657750000"><ele>628</ele><time>2026-03-24T06:39:36Z</time></trkpt>
<trkpt lat="43.0129900000" lon="0.3657470000"><ele>628</ele><time>2026-03-24T06:39:38Z</time></trkpt>
<trkpt lat="43.0129820000" lon="0.3657200000"><ele>628</ele><time>2026-03-24T06:39:41Z</time></trkpt>
<trkpt lat="43.0129650000" lon="0.3657120000"><ele>628</ele><time>2026-03-24T06:39:46Z</time></trkpt>
<trkpt lat="43.0129770000" lon="0.3656950000"><ele>629</ele><time>2026-03-24T06:40:13Z</time></trkpt>
<trkpt lat="43.0129770000" lon="0.3656570000"><ele>629</ele><time>2026-03-24T06:40:17Z</time></trkpt>
<trkpt lat="43.0129920000" lon="0.3656250000"><ele>629</ele><time>2026-03-24T06:40:19Z</time></trkpt>
<trkpt lat="43.0130020000" lon="0.3655950000"><ele>629</ele><time>2026-03-24T06:40:21Z</time></trkpt>
<trkpt lat="43.0130050000" lon="0.3655620000"><ele>629</ele><time>2026-03-24T06:40:23Z</time></trkpt>
<trkpt lat="43.0130170000" lon="0.3655370000"><ele>629</ele><time>2026-03-24T06:40:25Z</time></trkpt>
<trkpt lat="43.0130220000" lon="0.3655120000"><ele>630</ele><time>2026-03-24T06:40:27Z</time></trkpt>
<trkpt lat="43.0130250000" lon="0.3654800000"><ele>629</ele><time>2026-03-24T06:40:29Z</time></trkpt>
<trkpt lat="43.0130370000" lon="0.3654570000"><ele>629</ele><time>2026-03-24T06:40:31Z</time></trkpt>
<trkpt lat="43.0130500000" lon="0.3654220000"><ele>629</ele><time>2026-03-24T06:40:34Z</time></trkpt>
<trkpt lat="43.0130550000" lon="0.3653970000"><ele>629</ele><time>2026-03-24T06:40:36Z</time></trkpt>
<trkpt lat="43.0130620000" lon="0.3653720000"><ele>629</ele><time>2026-03-24T06:40:38Z</time></trkpt>
<trkpt lat="43.0130720000" lon="0.3653430000"><ele>629</ele><time>2026-03-24T06:40:40Z</time></trkpt>
<trkpt lat="43.0130900000" lon="0.3653180000"><ele>629</ele><time>2026-03-24T06:40:43Z</time></trkpt>
<trkpt lat="43.0131020000" lon="0.3653000000"><ele>629</ele><time>2026-03-24T06:40:46Z</time></trkpt>
<trkpt lat="43.0131150000" lon="0.3652670000"><ele>629</ele><time>2026-03-24T06:40:48Z</time></trkpt>
<trkpt lat="43.0131270000" lon="0.3652400000"><ele>629</ele><time>2026-03-24T06:40:50Z</time></trkpt>
<trkpt lat="43.0131470000" lon="0.3652100000"><ele>629</ele><time>2026-03-24T06:40:52Z</time></trkpt>
<trkpt lat="43.0131620000" lon="0.3651920000"><ele>629</ele><time>2026-03-24T06:40:54Z</time></trkpt>
<trkpt lat="43.0131820000" lon="0.3651700000"><ele>628</ele><time>2026-03-24T06:40:57Z</time></trkpt>
<trkpt lat="43.0132070000" lon="0.3651470000"><ele>628</ele><time>2026-03-24T06:40:59Z</time></trkpt>
<trkpt lat="43.0132300000" lon="0.3651250000"><ele>628</ele><time>2026-03-24T06:41:01Z</time></trkpt>
<trkpt lat="43.0132400000" lon="0.3650950000"><ele>629</ele><time>2026-03-24T06:41:03Z</time></trkpt>
<trkpt lat="43.0132570000" lon="0.3650700000"><ele>629</ele><time>2026-03-24T06:41:06Z</time></trkpt>
<trkpt lat="43.0132720000" lon="0.3650570000"><ele>629</ele><time>2026-03-24T06:41:08Z</time></trkpt>
<trkpt lat="43.0132870000" lon="0.3650270000"><ele>629</ele><time>2026-03-24T06:41:11Z</time></trkpt>
<trkpt lat="43.0133000000" lon="0.3650100000"><ele>629</ele><time>2026-03-24T06:41:13Z</time></trkpt>
<trkpt lat="43.0133150000" lon="0.3649820000"><ele>629</ele><time>2026-03-24T06:41:17Z</time></trkpt>
<trkpt lat="43.0133250000" lon="0.3649570000"><ele>629</ele><time>2026-03-24T06:41:19Z</time></trkpt>
<trkpt lat="43.0133350000" lon="0.3649320000"><ele>629</ele><time>2026-03-24T06:41:21Z</time></trkpt>
<trkpt lat="43.0133470000" lon="0.3649120000"><ele>629</ele><time>2026-03-24T06:41:25Z</time></trkpt>
<trkpt lat="43.0133650000" lon="0.3648900000"><ele>629</ele><time>2026-03-24T06:41:29Z</time></trkpt>
<trkpt lat="43.0133780000" lon="0.3648670000"><ele>629</ele><time>2026-03-24T06:41:31Z</time></trkpt>
<trkpt lat="43.0134000000" lon="0.3648520000"><ele>629</ele><time>2026-03-24T06:41:34Z</time></trkpt>
<trkpt lat="43.0134250000" lon="0.3648250000"><ele>629</ele><time>2026-03-24T06:41:36Z</time></trkpt>
<trkpt lat="43.0134420000" lon="0.3648120000"><ele>629</ele><time>2026-03-24T06:41:38Z</time></trkpt>
<trkpt lat="43.0134620000" lon="0.3647920000"><ele>630</ele><time>2026-03-24T06:41:41Z</time></trkpt>
<trkpt lat="43.0134850000" lon="0.3647720000"><ele>629</ele><time>2026-03-24T06:41:44Z</time></trkpt>
<trkpt lat="43.0135020000" lon="0.3647580000"><ele>630</ele><time>2026-03-24T06:41:56Z</time></trkpt>
<trkpt lat="43.0135070000" lon="0.3647320000"><ele>630</ele><time>2026-03-24T06:42:02Z</time></trkpt>
<trkpt lat="43.0135220000" lon="0.3647020000"><ele>630</ele><time>2026-03-24T06:42:04Z</time></trkpt>
<trkpt lat="43.0135320000" lon="0.3646800000"><ele>630</ele><time>2026-03-24T06:42:05Z</time></trkpt>
<trkpt lat="43.0135470000" lon="0.3646570000"><ele>630</ele><time>2026-03-24T06:42:06Z</time></trkpt>
<trkpt lat="43.0135620000" lon="0.3646370000"><ele>630</ele><time>2026-03-24T06:42:07Z</time></trkpt>
<trkpt lat="43.0135750000" lon="0.3646220000"><ele>630</ele><time>2026-03-24T06:42:08Z</time></trkpt>
<trkpt lat="43.0135870000" lon="0.3645950000"><ele>630</ele><time>2026-03-24T06:42:11Z</time></trkpt>
<trkpt lat="43.0136070000" lon="0.3645670000"><ele>630</ele><time>2026-03-24T06:42:13Z</time></trkpt>
<trkpt lat="43.0136270000" lon="0.3645420000"><ele>630</ele><time>2026-03-24T06:42:15Z</time></trkpt>
<trkpt lat="43.0136350000" lon="0.3645150000"><ele>630</ele><time>2026-03-24T06:42:18Z</time></trkpt>
<trkpt lat="43.0136420000" lon="0.3644800000"><ele>630</ele><time>2026-03-24T06:42:21Z</time></trkpt>
<trkpt lat="43.0136570000" lon="0.3644450000"><ele>630</ele><time>2026-03-24T06:42:23Z</time></trkpt>
<trkpt lat="43.0136670000" lon="0.3644170000"><ele>631</ele><time>2026-03-24T06:42:25Z</time></trkpt>
<trkpt lat="43.0136800000" lon="0.3643920000"><ele>631</ele><time>2026-03-24T06:42:28Z</time></trkpt>
<trkpt lat="43.0136770000" lon="0.3643670000"><ele>631</ele><time>2026-03-24T06:42:30Z</time></trkpt>
<trkpt lat="43.0136720000" lon="0.3643370000"><ele>631</ele><time>2026-03-24T06:42:32Z</time></trkpt>
<trkpt lat="43.0136620000" lon="0.3643070000"><ele>631</ele><time>2026-03-24T06:42:35Z</time></trkpt>
<trkpt lat="43.0136720000" lon="0.3642770000"><ele>631</ele><time>2026-03-24T06:42:40Z</time></trkpt>
<trkpt lat="43.0136800000" lon="0.3642520000"><ele>631</ele><time>2026-03-24T06:42:43Z</time></trkpt>
<trkpt lat="43.0136820000" lon="0.3642220000"><ele>631</ele><time>2026-03-24T06:42:45Z</time></trkpt>
<trkpt lat="43.0136880000" lon="0.3641820000"><ele>631</ele><time>2026-03-24T06:42:48Z</time></trkpt>
<trkpt lat="43.0136920000" lon="0.3641470000"><ele>631</ele><time>2026-03-24T06:42:51Z</time></trkpt>
<trkpt lat="43.0136870000" lon="0.3641220000"><ele>632</ele><time>2026-03-24T06:42:53Z</time></trkpt>
<trkpt lat="43.0136970000" lon="0.3640870000"><ele>632</ele><time>2026-03-24T06:42:56Z</time></trkpt>
<trkpt lat="43.0137070000" lon="0.3640570000"><ele>632</ele><time>2026-03-24T06:42:59Z</time></trkpt>
<trkpt lat="43.0137270000" lon="0.3640320000"><ele>632</ele><time>2026-03-24T06:43:01Z</time></trkpt>
<trkpt lat="43.0137350000" lon="0.3639970000"><ele>632</ele><time>2026-03-24T06:43:04Z</time></trkpt>
<trkpt lat="43.0137270000" lon="0.3639670000"><ele>632</ele><time>2026-03-24T06:43:07Z</time></trkpt>
<trkpt lat="43.0137420000" lon="0.3639470000"><ele>633</ele><time>2026-03-24T06:43:10Z</time></trkpt>
<trkpt lat="43.0137470000" lon="0.3639170000"><ele>633</ele><time>2026-03-24T06:43:13Z</time></trkpt>
<trkpt lat="43.0137550000" lon="0.3638770000"><ele>633</ele><time>2026-03-24T06:43:17Z</time></trkpt>
<trkpt lat="43.0137700000" lon="0.3638370000"><ele>633</ele><time>2026-03-24T06:43:19Z</time></trkpt>
<trkpt lat="43.0137870000" lon="0.3638020000"><ele>633</ele><time>2026-03-24T06:43:21Z</time></trkpt>
<trkpt lat="43.0137900000" lon="0.3637620000"><ele>633</ele><time>2026-03-24T06:43:23Z</time></trkpt>
<trkpt lat="43.0138020000" lon="0.3637420000"><ele>634</ele><time>2026-03-24T06:43:25Z</time></trkpt>
<trkpt lat="43.0138270000" lon="0.3637220000"><ele>634</ele><time>2026-03-24T06:43:27Z</time></trkpt>
<trkpt lat="43.0138400000" lon="0.3636900000"><ele>634</ele><time>2026-03-24T06:43:35Z</time></trkpt>
<trkpt lat="43.0138520000" lon="0.3636570000"><ele>634</ele><time>2026-03-24T06:43:38Z</time></trkpt>
<trkpt lat="43.0138670000" lon="0.3636270000"><ele>634</ele><time>2026-03-24T06:43:40Z</time></trkpt>
<trkpt lat="43.0138670000" lon="0.3635920000"><ele>634</ele><time>2026-03-24T06:43:42Z</time></trkpt>
<trkpt lat="43.0138670000" lon="0.3635600000"><ele>634</ele><time>2026-03-24T06:43:44Z</time></trkpt>
<trkpt lat="43.0138700000" lon="0.3635320000"><ele>634</ele><time>2026-03-24T06:43:46Z</time></trkpt>
<trkpt lat="43.0138870000" lon="0.3635200000"><ele>634</ele><time>2026-03-24T06:43:48Z</time></trkpt>
<trkpt lat="43.0138970000" lon="0.3634880000"><ele>634</ele><time>2026-03-24T06:43:51Z</time></trkpt>
<trkpt lat="43.0138970000" lon="0.3634600000"><ele>635</ele><time>2026-03-24T06:43:53Z</time></trkpt>
<trkpt lat="43.0138870000" lon="0.3634320000"><ele>635</ele><time>2026-03-24T06:43:55Z</time></trkpt>
<trkpt lat="43.0138800000" lon="0.3633980000"><ele>635</ele><time>2026-03-24T06:43:57Z</time></trkpt>
<trkpt lat="43.0138750000" lon="0.3633700000"><ele>635</ele><time>2026-03-24T06:43:59Z</time></trkpt>
<trkpt lat="43.0138650000" lon="0.3633470000"><ele>635</ele><time>2026-03-24T06:44:02Z</time></trkpt>
<trkpt lat="43.0138600000" lon="0.3633120000"><ele>635</ele><time>2026-03-24T06:44:05Z</time></trkpt>
<trkpt lat="43.0138720000" lon="0.3632770000"><ele>635</ele><time>2026-03-24T06:44:08Z</time></trkpt>
<trkpt lat="43.0138720000" lon="0.3632500000"><ele>635</ele><time>2026-03-24T06:44:10Z</time></trkpt>
<trkpt lat="43.0138700000" lon="0.3632250000"><ele>636</ele><time>2026-03-24T06:44:12Z</time></trkpt>
<trkpt lat="43.0138770000" lon="0.3631950000"><ele>636</ele><time>2026-03-24T06:44:15Z</time></trkpt>
<trkpt lat="43.0138820000" lon="0.3631580000"><ele>636</ele><time>2026-03-24T06:44:17Z</time></trkpt>
<trkpt lat="43.0138670000" lon="0.3631270000"><ele>636</ele><time>2026-03-24T06:44:19Z</time></trkpt>
<trkpt lat="43.0138720000" lon="0.3631020000"><ele>636</ele><time>2026-03-24T06:44:20Z</time></trkpt>
<trkpt lat="43.0138820000" lon="0.3630770000"><ele>636</ele><time>2026-03-24T06:44:23Z</time></trkpt>
<trkpt lat="43.0138770000" lon="0.3630420000"><ele>636</ele><time>2026-03-24T06:44:26Z</time></trkpt>
<trkpt lat="43.0138620000" lon="0.3630270000"><ele>636</ele><time>2026-03-24T06:44:28Z</time></trkpt>
<trkpt lat="43.0138600000" lon="0.3629970000"><ele>636</ele><time>2026-03-24T06:44:31Z</time></trkpt>
<trkpt lat="43.0138800000" lon="0.3629630000"><ele>636</ele><time>2026-03-24T06:44:33Z</time></trkpt>
<trkpt lat="43.0138900000" lon="0.3629420000"><ele>636</ele><time>2026-03-24T06:44:34Z</time></trkpt>
<trkpt lat="43.0138970000" lon="0.3629170000"><ele>637</ele><time>2026-03-24T06:44:36Z</time></trkpt>
<trkpt lat="43.0139100000" lon="0.3628970000"><ele>637</ele><time>2026-03-24T06:44:39Z</time></trkpt>
<trkpt lat="43.0139170000" lon="0.3628720000"><ele>637</ele><time>2026-03-24T06:44:41Z</time></trkpt>
<trkpt lat="43.0139020000" lon="0.3628550000"><ele>637</ele><time>2026-03-24T06:44:43Z</time></trkpt>
<trkpt lat="43.0138820000" lon="0.3628430000"><ele>637</ele><time>2026-03-24T06:44:45Z</time></trkpt>
<trkpt lat="43.0138620000" lon="0.3628420000"><ele>638</ele><time>2026-03-24T06:44:47Z</time></trkpt>
<trkpt lat="43.0138420000" lon="0.3628520000"><ele>638</ele><time>2026-03-24T06:44:49Z</time></trkpt>
<trkpt lat="43.0138270000" lon="0.3628180000"><ele>638</ele><time>2026-03-24T06:44:52Z</time></trkpt>
<trkpt lat="43.0138050000" lon="0.3628020000"><ele>639</ele><time>2026-03-24T06:44:54Z</time></trkpt>
<trkpt lat="43.0137900000" lon="0.3627820000"><ele>639</ele><time>2026-03-24T06:44:57Z</time></trkpt>
<trkpt lat="43.0137920000" lon="0.3627530000"><ele>640</ele><time>2026-03-24T06:45:02Z</time></trkpt>
<trkpt lat="43.0138070000" lon="0.3627320000"><ele>641</ele><time>2026-03-24T06:45:06Z</time></trkpt>
<trkpt lat="43.0138000000" lon="0.3627070000"><ele>642</ele><time>2026-03-24T06:45:12Z</time></trkpt>
<trkpt lat="43.0137800000" lon="0.3626920000"><ele>642</ele><time>2026-03-24T06:45:17Z</time></trkpt>
<trkpt lat="43.0137670000" lon="0.3626720000"><ele>643</ele><time>2026-03-24T06:45:25Z</time></trkpt>
<trkpt lat="43.0137500000" lon="0.3626320000"><ele>643</ele><time>2026-03-24T06:45:27Z</time></trkpt>
<trkpt lat="43.0137350000" lon="0.3625870000"><ele>644</ele><time>2026-03-24T06:45:29Z</time></trkpt>
<trkpt lat="43.0137300000" lon="0.3625520000"><ele>644</ele><time>2026-03-24T06:45:31Z</time></trkpt>
<trkpt lat="43.0137370000" lon="0.3625220000"><ele>644</ele><time>2026-03-24T06:45:34Z</time></trkpt>
<trkpt lat="43.0137470000" lon="0.3624920000"><ele>645</ele><time>2026-03-24T06:45:37Z</time></trkpt>
<trkpt lat="43.0137470000" lon="0.3624670000"><ele>645</ele><time>2026-03-24T06:45:42Z</time></trkpt>
<trkpt lat="43.0137620000" lon="0.3624350000"><ele>646</ele><time>2026-03-24T06:45:46Z</time></trkpt>
<trkpt lat="43.0137570000" lon="0.3624100000"><ele>646</ele><time>2026-03-24T06:45:48Z</time></trkpt>
<trkpt lat="43.0137470000" lon="0.3623870000"><ele>647</ele><time>2026-03-24T06:45:53Z</time></trkpt>
<trkpt lat="43.0137400000" lon="0.3623620000"><ele>647</ele><time>2026-03-24T06:45:57Z</time></trkpt>
<trkpt lat="43.0137470000" lon="0.3623280000"><ele>647</ele><time>2026-03-24T06:46:00Z</time></trkpt>
<trkpt lat="43.0137570000" lon="0.3623050000"><ele>648</ele><time>2026-03-24T06:46:03Z</time></trkpt>
<trkpt lat="43.0137570000" lon="0.3622770000"><ele>648</ele><time>2026-03-24T06:46:06Z</time></trkpt>
<trkpt lat="43.0137470000" lon="0.3622570000"><ele>648</ele><time>2026-03-24T06:46:09Z</time></trkpt>
<trkpt lat="43.0137580000" lon="0.3622400000"><ele>648</ele><time>2026-03-24T06:46:12Z</time></trkpt>
<trkpt lat="43.0137580000" lon="0.3622100000"><ele>649</ele><time>2026-03-24T06:46:15Z</time></trkpt>
<trkpt lat="43.0137650000" lon="0.3621800000"><ele>649</ele><time>2026-03-24T06:46:19Z</time></trkpt>
<trkpt lat="43.0137700000" lon="0.3621550000"><ele>650</ele><time>2026-03-24T06:46:32Z</time></trkpt>
<trkpt lat="43.0137470000" lon="0.3621370000"><ele>651</ele><time>2026-03-24T06:46:37Z</time></trkpt>
<trkpt lat="43.0137400000" lon="0.3621100000"><ele>651</ele><time>2026-03-24T06:46:39Z</time></trkpt>
<trkpt lat="43.0137470000" lon="0.3620850000"><ele>651</ele><time>2026-03-24T06:46:41Z</time></trkpt>
<trkpt lat="43.0137420000" lon="0.3620520000"><ele>652</ele><time>2026-03-24T06:47:43Z</time></trkpt>
<trkpt lat="43.0137220000" lon="0.3620320000"><ele>652</ele><time>2026-03-24T06:47:46Z</time></trkpt>
<trkpt lat="43.0137000000" lon="0.3620200000"><ele>653</ele><time>2026-03-24T06:47:50Z</time></trkpt>
<trkpt lat="43.0136920000" lon="0.3619920000"><ele>653</ele><time>2026-03-24T06:47:53Z</time></trkpt>
<trkpt lat="43.0137170000" lon="0.3619770000"><ele>653</ele><time>2026-03-24T06:47:56Z</time></trkpt>
<trkpt lat="43.0137200000" lon="0.3619500000"><ele>653</ele><time>2026-03-24T06:48:00Z</time></trkpt>
<trkpt lat="43.0137120000" lon="0.3619170000"><ele>654</ele><time>2026-03-24T06:48:04Z</time></trkpt>
<trkpt lat="43.0137070000" lon="0.3618920000"><ele>654</ele><time>2026-03-24T06:48:07Z</time></trkpt>
<trkpt lat="43.0136920000" lon="0.3618670000"><ele>654</ele><time>2026-03-24T06:48:09Z</time></trkpt>
<trkpt lat="43.0136920000" lon="0.3618370000"><ele>655</ele><time>2026-03-24T06:48:12Z</time></trkpt>
<trkpt lat="43.0136870000" lon="0.3618150000"><ele>656</ele><time>2026-03-24T06:48:16Z</time></trkpt>
<trkpt lat="43.0136770000" lon="0.3617820000"><ele>656</ele><time>2026-03-24T06:48:19Z</time></trkpt>
<trkpt lat="43.0136620000" lon="0.3617600000"><ele>657</ele><time>2026-03-24T06:48:23Z</time></trkpt>
<trkpt lat="43.0136420000" lon="0.3617650000"><ele>658</ele><time>2026-03-24T06:48:29Z</time></trkpt>
<trkpt lat="43.0136350000" lon="0.3617420000"><ele>659</ele><time>2026-03-24T06:48:34Z</time></trkpt>
<trkpt lat="43.0136220000" lon="0.3617000000"><ele>661</ele><time>2026-03-24T06:48:52Z</time></trkpt>
<trkpt lat="43.0136170000" lon="0.3616750000"><ele>661</ele><time>2026-03-24T06:48:53Z</time></trkpt>
<trkpt lat="43.0136100000" lon="0.3616470000"><ele>662</ele><time>2026-03-24T06:48:54Z</time></trkpt>
<trkpt lat="43.0136000000" lon="0.3616070000"><ele>662</ele><time>2026-03-24T06:48:56Z</time></trkpt>
<trkpt lat="43.0135920000" lon="0.3615820000"><ele>662</ele><time>2026-03-24T06:48:58Z</time></trkpt>
<trkpt lat="43.0135850000" lon="0.3615550000"><ele>663</ele><time>2026-03-24T06:49:02Z</time></trkpt>
<trkpt lat="43.0135700000" lon="0.3615350000"><ele>663</ele><time>2026-03-24T06:49:04Z</time></trkpt>
<trkpt lat="43.0135620000" lon="0.3615070000"><ele>663</ele><time>2026-03-24T06:49:06Z</time></trkpt>
<trkpt lat="43.0135620000" lon="0.3614820000"><ele>663</ele><time>2026-03-24T06:49:08Z</time></trkpt>
<trkpt lat="43.0135670000" lon="0.3614570000"><ele>664</ele><time>2026-03-24T06:49:10Z</time></trkpt>
<trkpt lat="43.0135470000" lon="0.3614520000"><ele>665</ele><time>2026-03-24T06:49:35Z</time></trkpt>
<trkpt lat="43.0135250000" lon="0.3614170000"><ele>665</ele><time>2026-03-24T06:49:37Z</time></trkpt>
<trkpt lat="43.0135100000" lon="0.3613820000"><ele>665</ele><time>2026-03-24T06:49:39Z</time></trkpt>
<trkpt lat="43.0134920000" lon="0.3613570000"><ele>665</ele><time>2026-03-24T06:49:41Z</time></trkpt>
<trkpt lat="43.0134770000" lon="0.3613420000"><ele>666</ele><time>2026-03-24T06:49:44Z</time></trkpt>
<trkpt lat="43.0134570000" lon="0.3613180000"><ele>666</ele><time>2026-03-24T06:49:48Z</time></trkpt>
<trkpt lat="43.0134470000" lon="0.3612920000"><ele>667</ele><time>2026-03-24T06:49:51Z</time></trkpt>
<trkpt lat="43.0134320000" lon="0.3612650000"><ele>667</ele><time>2026-03-24T06:49:55Z</time></trkpt>
<trkpt lat="43.0134520000" lon="0.3612620000"><ele>668</ele><time>2026-03-24T06:50:12Z</time></trkpt>
<trkpt lat="43.0134720000" lon="0.3612620000"><ele>668</ele><time>2026-03-24T06:50:14Z</time></trkpt>
<trkpt lat="43.0134600000" lon="0.3612850000"><ele>668</ele><time>2026-03-24T06:50:21Z</time></trkpt>
<trkpt lat="43.0134850000" lon="0.3612820000"><ele>666</ele><time>2026-03-24T06:51:32Z</time></trkpt>
<trkpt lat="43.0135100000" lon="0.3612770000"><ele>666</ele><time>2026-03-24T06:51:34Z</time></trkpt>
<trkpt lat="43.0135300000" lon="0.3612820000"><ele>666</ele><time>2026-03-24T06:51:36Z</time></trkpt>
<trkpt lat="43.0135470000" lon="0.3612870000"><ele>666</ele><time>2026-03-24T06:51:40Z</time></trkpt>
<trkpt lat="43.0135670000" lon="0.3613020000"><ele>666</ele><time>2026-03-24T06:51:54Z</time></trkpt>
<trkpt lat="43.0135770000" lon="0.3613370000"><ele>665</ele><time>2026-03-24T06:51:56Z</time></trkpt>
<trkpt lat="43.0135950000" lon="0.3613720000"><ele>665</ele><time>2026-03-24T06:51:58Z</time></trkpt>
<trkpt lat="43.0136120000" lon="0.3613970000"><ele>665</ele><time>2026-03-24T06:52:00Z</time></trkpt>
<trkpt lat="43.0136320000" lon="0.3614220000"><ele>665</ele><time>2026-03-24T06:52:02Z</time></trkpt>
<trkpt lat="43.0136420000" lon="0.3614470000"><ele>664</ele><time>2026-03-24T06:52:05Z</time></trkpt>
<trkpt lat="43.0136450000" lon="0.3614720000"><ele>664</ele><time>2026-03-24T06:52:07Z</time></trkpt>
<trkpt lat="43.0136420000" lon="0.3614970000"><ele>664</ele><time>2026-03-24T06:52:09Z</time></trkpt>
<trkpt lat="43.0136370000" lon="0.3615220000"><ele>663</ele><time>2026-03-24T06:52:12Z</time></trkpt>
<trkpt lat="43.0136470000" lon="0.3615480000"><ele>663</ele><time>2026-03-24T06:52:15Z</time></trkpt>
<trkpt lat="43.0136570000" lon="0.3615720000"><ele>662</ele><time>2026-03-24T06:52:18Z</time></trkpt>
<trkpt lat="43.0136620000" lon="0.3616020000"><ele>662</ele><time>2026-03-24T06:52:22Z</time></trkpt>
<trkpt lat="43.0136670000" lon="0.3616370000"><ele>661</ele><time>2026-03-24T06:52:24Z</time></trkpt>
<trkpt lat="43.0136820000" lon="0.3616600000"><ele>661</ele><time>2026-03-24T06:52:26Z</time></trkpt>
<trkpt lat="43.0136920000" lon="0.3616870000"><ele>660</ele><time>2026-03-24T06:52:28Z</time></trkpt>
<trkpt lat="43.0136920000" lon="0.3617150000"><ele>660</ele><time>2026-03-24T06:52:32Z</time></trkpt>
<trkpt lat="43.0137100000" lon="0.3617280000"><ele>659</ele><time>2026-03-24T06:52:35Z</time></trkpt>
<trkpt lat="43.0137170000" lon="0.3617570000"><ele>658</ele><time>2026-03-24T06:52:40Z</time></trkpt>
<trkpt lat="43.0137070000" lon="0.3617370000"><ele>657</ele><time>2026-03-24T06:52:52Z</time></trkpt>
<trkpt lat="43.0136920000" lon="0.3617070000"><ele>659</ele><time>2026-03-24T06:53:21Z</time></trkpt>
<trkpt lat="43.0136620000" lon="0.3616750000"><ele>659</ele><time>2026-03-24T06:53:23Z</time></trkpt>
<trkpt lat="43.0136420000" lon="0.3616470000"><ele>659</ele><time>2026-03-24T06:53:25Z</time></trkpt>
<trkpt lat="43.0136270000" lon="0.3616200000"><ele>660</ele><time>2026-03-24T06:53:28Z</time></trkpt>
<trkpt lat="43.0136120000" lon="0.3616020000"><ele>660</ele><time>2026-03-24T06:53:30Z</time></trkpt>
<trkpt lat="43.0135970000" lon="0.3615830000"><ele>661</ele><time>2026-03-24T06:53:33Z</time></trkpt>
<trkpt lat="43.0135950000" lon="0.3615570000"><ele>661</ele><time>2026-03-24T06:53:36Z</time></trkpt>
<trkpt lat="43.0135820000" lon="0.3615300000"><ele>661</ele><time>2026-03-24T06:53:38Z</time></trkpt>
<trkpt lat="43.0135620000" lon="0.3615120000"><ele>662</ele><time>2026-03-24T06:53:40Z</time></trkpt>
<trkpt lat="43.0135600000" lon="0.3614800000"><ele>662</ele><time>2026-03-24T06:53:42Z</time></trkpt>
<trkpt lat="43.0135470000" lon="0.3614470000"><ele>662</ele><time>2026-03-24T06:53:45Z</time></trkpt>
<trkpt lat="43.0135370000" lon="0.3614170000"><ele>663</ele><time>2026-03-24T06:53:48Z</time></trkpt>
<trkpt lat="43.0135520000" lon="0.3614020000"><ele>663</ele><time>2026-03-24T06:53:52Z</time></trkpt>
<trkpt lat="43.0135770000" lon="0.3614070000"><ele>663</ele><time>2026-03-24T06:53:55Z</time></trkpt>
<trkpt lat="43.0135970000" lon="0.3614200000"><ele>663</ele><time>2026-03-24T06:53:59Z</time></trkpt>
<trkpt lat="43.0136220000" lon="0.3614270000"><ele>662</ele><time>2026-03-24T06:54:02Z</time></trkpt>
<trkpt lat="43.0136320000" lon="0.3614030000"><ele>661</ele><time>2026-03-24T06:54:08Z</time></trkpt>
<trkpt lat="43.0136370000" lon="0.3613800000"><ele>661</ele><time>2026-03-24T06:54:11Z</time></trkpt>
<trkpt lat="43.0136520000" lon="0.3613700000"><ele>661</ele><time>2026-03-24T06:54:26Z</time></trkpt>
<trkpt lat="43.0136670000" lon="0.3613520000"><ele>660</ele><time>2026-03-24T06:54:28Z</time></trkpt>
<trkpt lat="43.0136550000" lon="0.3613300000"><ele>659</ele><time>2026-03-24T06:54:33Z</time></trkpt>
<trkpt lat="43.0136550000" lon="0.3613030000"><ele>658</ele><time>2026-03-24T06:54:58Z</time></trkpt>
<trkpt lat="43.0136670000" lon="0.3612670000"><ele>658</ele><time>2026-03-24T06:55:01Z</time></trkpt>
<trkpt lat="43.0136670000" lon="0.3612350000"><ele>657</ele><time>2026-03-24T06:55:03Z</time></trkpt>
<trkpt lat="43.0136800000" lon="0.3612070000"><ele>657</ele><time>2026-03-24T06:55:05Z</time></trkpt>
<trkpt lat="43.0136970000" lon="0.3611950000"><ele>655</ele><time>2026-03-24T06:55:14Z</time></trkpt>
<trkpt lat="43.0137120000" lon="0.3611670000"><ele>654</ele><time>2026-03-24T06:55:23Z</time></trkpt>
<trkpt lat="43.0137220000" lon="0.3611300000"><ele>654</ele><time>2026-03-24T06:55:25Z</time></trkpt>
<trkpt lat="43.0137370000" lon="0.3610920000"><ele>654</ele><time>2026-03-24T06:55:27Z</time></trkpt>
<trkpt lat="43.0137620000" lon="0.3610570000"><ele>654</ele><time>2026-03-24T06:55:29Z</time></trkpt>
<trkpt lat="43.0137770000" lon="0.3610370000"><ele>653</ele><time>2026-03-24T06:55:31Z</time></trkpt>
<trkpt lat="43.0137970000" lon="0.3610450000"><ele>652</ele><time>2026-03-24T06:55:35Z</time></trkpt>
<trkpt lat="43.0138000000" lon="0.3610120000"><ele>652</ele><time>2026-03-24T06:55:38Z</time></trkpt>
<trkpt lat="43.0138070000" lon="0.3609870000"><ele>652</ele><time>2026-03-24T06:55:40Z</time></trkpt>
<trkpt lat="43.0138100000" lon="0.3609620000"><ele>652</ele><time>2026-03-24T06:55:43Z</time></trkpt>
<trkpt lat="43.0138300000" lon="0.3609370000"><ele>652</ele><time>2026-03-24T06:55:46Z</time></trkpt>
<trkpt lat="43.0138470000" lon="0.3609220000"><ele>651</ele><time>2026-03-24T06:55:48Z</time></trkpt>
<trkpt lat="43.0138670000" lon="0.3609170000"><ele>651</ele><time>2026-03-24T06:55:50Z</time></trkpt>
<trkpt lat="43.0138850000" lon="0.3609350000"><ele>651</ele><time>2026-03-24T06:55:52Z</time></trkpt>
<trkpt lat="43.0138970000" lon="0.3609570000"><ele>650</ele><time>2026-03-24T06:55:54Z</time></trkpt>
<trkpt lat="43.0139200000" lon="0.3609650000"><ele>650</ele><time>2026-03-24T06:55:57Z</time></trkpt>
<trkpt lat="43.0139300000" lon="0.3609420000"><ele>650</ele><time>2026-03-24T06:56:00Z</time></trkpt>
<trkpt lat="43.0139520000" lon="0.3609270000"><ele>650</ele><time>2026-03-24T06:56:03Z</time></trkpt>
<trkpt lat="43.0139720000" lon="0.3609320000"><ele>649</ele><time>2026-03-24T06:56:05Z</time></trkpt>
<trkpt lat="43.0139970000" lon="0.3609380000"><ele>649</ele><time>2026-03-24T06:56:08Z</time></trkpt>
<trkpt lat="43.0140100000" lon="0.3609570000"><ele>648</ele><time>2026-03-24T06:56:12Z</time></trkpt>
<trkpt lat="43.0140220000" lon="0.3609870000"><ele>648</ele><time>2026-03-24T06:56:14Z</time></trkpt>
<trkpt lat="43.0140400000" lon="0.3609950000"><ele>648</ele><time>2026-03-24T06:56:17Z</time></trkpt>
<trkpt lat="43.0140470000" lon="0.3610270000"><ele>648</ele><time>2026-03-24T06:56:23Z</time></trkpt>
<trkpt lat="43.0140470000" lon="0.3610620000"><ele>648</ele><time>2026-03-24T06:56:25Z</time></trkpt>
<trkpt lat="43.0140470000" lon="0.3610920000"><ele>648</ele><time>2026-03-24T06:56:27Z</time></trkpt>
<trkpt lat="43.0140600000" lon="0.3611220000"><ele>647</ele><time>2026-03-24T06:56:29Z</time></trkpt>
<trkpt lat="43.0140770000" lon="0.3611370000"><ele>647</ele><time>2026-03-24T06:56:31Z</time></trkpt>
<trkpt lat="43.0140850000" lon="0.3611650000"><ele>647</ele><time>2026-03-24T06:56:33Z</time></trkpt>
<trkpt lat="43.0140750000" lon="0.3611970000"><ele>647</ele><time>2026-03-24T06:56:36Z</time></trkpt>
<trkpt lat="43.0140620000" lon="0.3612170000"><ele>647</ele><time>2026-03-24T06:56:38Z</time></trkpt>
<trkpt lat="43.0140470000" lon="0.3612450000"><ele>647</ele><time>2026-03-24T06:56:40Z</time></trkpt>
<trkpt lat="43.0140500000" lon="0.3612770000"><ele>647</ele><time>2026-03-24T06:56:43Z</time></trkpt>
<trkpt lat="43.0140520000" lon="0.3613030000"><ele>647</ele><time>2026-03-24T06:56:45Z</time></trkpt>
<trkpt lat="43.0140470000" lon="0.3613370000"><ele>647</ele><time>2026-03-24T06:56:48Z</time></trkpt>
<trkpt lat="43.0140470000" lon="0.3613620000"><ele>646</ele><time>2026-03-24T06:56:54Z</time></trkpt>
<trkpt lat="43.0140550000" lon="0.3613900000"><ele>646</ele><time>2026-03-24T06:56:57Z</time></trkpt>
<trkpt lat="43.0140600000" lon="0.3614220000"><ele>646</ele><time>2026-03-24T06:57:00Z</time></trkpt>
<trkpt lat="43.0140670000" lon="0.3614470000"><ele>646</ele><time>2026-03-24T06:57:02Z</time></trkpt>
<trkpt lat="43.0140820000" lon="0.3614350000"><ele>646</ele><time>2026-03-24T06:57:12Z</time></trkpt>
<trkpt lat="43.0141020000" lon="0.3614320000"><ele>648</ele><time>2026-03-24T06:57:30Z</time></trkpt>
<trkpt lat="43.0141250000" lon="0.3614380000"><ele>648</ele><time>2026-03-24T06:57:32Z</time></trkpt>
<trkpt lat="43.0141420000" lon="0.3614520000"><ele>648</ele><time>2026-03-24T06:57:37Z</time></trkpt>
<trkpt lat="43.0141620000" lon="0.3614750000"><ele>650</ele><time>2026-03-24T06:57:50Z</time></trkpt>
<trkpt lat="43.0141850000" lon="0.3615020000"><ele>650</ele><time>2026-03-24T06:57:52Z</time></trkpt>
<trkpt lat="43.0142020000" lon="0.3615120000"><ele>651</ele><time>2026-03-24T06:57:57Z</time></trkpt>
<trkpt lat="43.0142080000" lon="0.3614850000"><ele>651</ele><time>2026-03-24T06:58:23Z</time></trkpt>
<trkpt lat="43.0142000000" lon="0.3614620000"><ele>651</ele><time>2026-03-24T06:58:26Z</time></trkpt>
<trkpt lat="43.0142120000" lon="0.3614370000"><ele>651</ele><time>2026-03-24T06:58:31Z</time></trkpt>
<trkpt lat="43.0141950000" lon="0.3614370000"><ele>650</ele><time>2026-03-24T06:58:49Z</time></trkpt>
<trkpt lat="43.0142050000" lon="0.3614750000"><ele>651</ele><time>2026-03-24T06:59:44Z</time></trkpt>
<trkpt lat="43.0142220000" lon="0.3615070000"><ele>651</ele><time>2026-03-24T06:59:45Z</time></trkpt>
<trkpt lat="43.0142400000" lon="0.3615380000"><ele>651</ele><time>2026-03-24T06:59:46Z</time></trkpt>
<trkpt lat="43.0142520000" lon="0.3615700000"><ele>651</ele><time>2026-03-24T06:59:47Z</time></trkpt>
<trkpt lat="43.0142570000" lon="0.3615920000"><ele>652</ele><time>2026-03-24T06:59:48Z</time></trkpt>
<trkpt lat="43.0142700000" lon="0.3616220000"><ele>652</ele><time>2026-03-24T06:59:50Z</time></trkpt>
<trkpt lat="43.0142920000" lon="0.3616370000"><ele>652</ele><time>2026-03-24T06:59:53Z</time></trkpt>
<trkpt lat="43.0143170000" lon="0.3616500000"><ele>653</ele><time>2026-03-24T06:59:56Z</time></trkpt>
<trkpt lat="43.0143370000" lon="0.3616770000"><ele>653</ele><time>2026-03-24T06:59:59Z</time></trkpt>
<trkpt lat="43.0143550000" lon="0.3616920000"><ele>654</ele><time>2026-03-24T07:00:03Z</time></trkpt>
<trkpt lat="43.0143570000" lon="0.3617220000"><ele>655</ele><time>2026-03-24T07:00:06Z</time></trkpt>
<trkpt lat="43.0143720000" lon="0.3617370000"><ele>655</ele><time>2026-03-24T07:00:08Z</time></trkpt>
<trkpt lat="43.0143870000" lon="0.3617620000"><ele>655</ele><time>2026-03-24T07:00:11Z</time></trkpt>
<trkpt lat="43.0144050000" lon="0.3617820000"><ele>656</ele><time>2026-03-24T07:00:14Z</time></trkpt>
<trkpt lat="43.0144220000" lon="0.3618050000"><ele>656</ele><time>2026-03-24T07:00:17Z</time></trkpt>
<trkpt lat="43.0144350000" lon="0.3618220000"><ele>657</ele><time>2026-03-24T07:00:36Z</time></trkpt>
<trkpt lat="43.0144480000" lon="0.3618450000"><ele>657</ele><time>2026-03-24T07:00:39Z</time></trkpt>
<trkpt lat="43.0144520000" lon="0.3618700000"><ele>657</ele><time>2026-03-24T07:00:41Z</time></trkpt>
<trkpt lat="43.0144620000" lon="0.3618920000"><ele>658</ele><time>2026-03-24T07:00:43Z</time></trkpt>
<trkpt lat="43.0144820000" lon="0.3619070000"><ele>657</ele><time>2026-03-24T07:00:46Z</time></trkpt>
<trkpt lat="43.0144620000" lon="0.3618970000"><ele>657</ele><time>2026-03-24T07:00:58Z</time></trkpt>
<trkpt lat="43.0144450000" lon="0.3618770000"><ele>657</ele><time>2026-03-24T07:01:00Z</time></trkpt>
<trkpt lat="43.0144480000" lon="0.3618520000"><ele>658</ele><time>2026-03-24T07:01:07Z</time></trkpt>
<trkpt lat="43.0144800000" lon="0.3618370000"><ele>664</ele><time>2026-03-24T07:01:47Z</time></trkpt>
<trkpt lat="43.0145020000" lon="0.3618370000"><ele>665</ele><time>2026-03-24T07:01:48Z</time></trkpt>
<trkpt lat="43.0145320000" lon="0.3618370000"><ele>665</ele><time>2026-03-24T07:01:49Z</time></trkpt>
<trkpt lat="43.0145620000" lon="0.3618400000"><ele>665</ele><time>2026-03-24T07:01:50Z</time></trkpt>
<trkpt lat="43.0145850000" lon="0.3618420000"><ele>665</ele><time>2026-03-24T07:01:51Z</time></trkpt>
<trkpt lat="43.0146070000" lon="0.3618500000"><ele>665</ele><time>2026-03-24T07:01:53Z</time></trkpt>
<trkpt lat="43.0146220000" lon="0.3618320000"><ele>669</ele><time>2026-03-24T07:02:59Z</time></trkpt>
<trkpt lat="43.0146470000" lon="0.3618220000"><ele>669</ele><time>2026-03-24T07:03:00Z</time></trkpt>
<trkpt lat="43.0146770000" lon="0.3618120000"><ele>670</ele><time>2026-03-24T07:03:01Z</time></trkpt>
<trkpt lat="43.0147070000" lon="0.3618020000"><ele>670</ele><time>2026-03-24T07:03:02Z</time></trkpt>
<trkpt lat="43.0147350000" lon="0.3617970000"><ele>670</ele><time>2026-03-24T07:03:03Z</time></trkpt>
<trkpt lat="43.0147620000" lon="0.3617920000"><ele>670</ele><time>2026-03-24T07:03:05Z</time></trkpt>
<trkpt lat="43.0147820000" lon="0.3617820000"><ele>670</ele><time>2026-03-24T07:03:07Z</time></trkpt>
<trkpt lat="43.0147870000" lon="0.3617550000"><ele>671</ele><time>2026-03-24T07:03:10Z</time></trkpt>
<trkpt lat="43.0148020000" lon="0.3617280000"><ele>671</ele><time>2026-03-24T07:03:14Z</time></trkpt>
<trkpt lat="43.0148100000" lon="0.3617070000"><ele>672</ele><time>2026-03-24T07:03:19Z</time></trkpt>
<trkpt lat="43.0148270000" lon="0.3617020000"><ele>672</ele><time>2026-03-24T07:03:24Z</time></trkpt>
<trkpt lat="43.0148470000" lon="0.3616920000"><ele>673</ele><time>2026-03-24T07:03:43Z</time></trkpt>
<trkpt lat="43.0148670000" lon="0.3616870000"><ele>673</ele><time>2026-03-24T07:03:44Z</time></trkpt>
<trkpt lat="43.0148870000" lon="0.3616820000"><ele>673</ele><time>2026-03-24T07:03:45Z</time></trkpt>
<trkpt lat="43.0149120000" lon="0.3616720000"><ele>673</ele><time>2026-03-24T07:03:47Z</time></trkpt>
<trkpt lat="43.0149320000" lon="0.3616720000"><ele>674</ele><time>2026-03-24T07:03:50Z</time></trkpt>
<trkpt lat="43.0149520000" lon="0.3616700000"><ele>674</ele><time>2026-03-24T07:03:54Z</time></trkpt>
<trkpt lat="43.0149770000" lon="0.3616650000"><ele>675</ele><time>2026-03-24T07:03:58Z</time></trkpt>
<trkpt lat="43.0149970000" lon="0.3616650000"><ele>675</ele><time>2026-03-24T07:04:00Z</time></trkpt>
<trkpt lat="43.0150150000" lon="0.3616700000"><ele>675</ele><time>2026-03-24T07:04:04Z</time></trkpt>
<trkpt lat="43.0150350000" lon="0.3616720000"><ele>676</ele><time>2026-03-24T07:04:07Z</time></trkpt>
<trkpt lat="43.0150520000" lon="0.3616720000"><ele>677</ele><time>2026-03-24T07:04:15Z</time></trkpt>
<trkpt lat="43.0150720000" lon="0.3616700000"><ele>678</ele><time>2026-03-24T07:04:23Z</time></trkpt>
<trkpt lat="43.0151020000" lon="0.3616620000"><ele>679</ele><time>2026-03-24T07:04:32Z</time></trkpt>
<trkpt lat="43.0151270000" lon="0.3616550000"><ele>679</ele><time>2026-03-24T07:04:34Z</time></trkpt>
<trkpt lat="43.0151470000" lon="0.3616500000"><ele>680</ele><time>2026-03-24T07:04:37Z</time></trkpt>
<trkpt lat="43.0151670000" lon="0.3616420000"><ele>681</ele><time>2026-03-24T07:04:45Z</time></trkpt>
<trkpt lat="43.0152000000" lon="0.3616370000"><ele>682</ele><time>2026-03-24T07:04:54Z</time></trkpt>
<trkpt lat="43.0152170000" lon="0.3616320000"><ele>682</ele><time>2026-03-24T07:04:55Z</time></trkpt>
<trkpt lat="43.0152520000" lon="0.3616300000"><ele>682</ele><time>2026-03-24T07:04:57Z</time></trkpt>
<trkpt lat="43.0152700000" lon="0.3616170000"><ele>682</ele><time>2026-03-24T07:04:59Z</time></trkpt>
<trkpt lat="43.0152870000" lon="0.3616150000"><ele>682</ele><time>2026-03-24T07:05:01Z</time></trkpt>
<trkpt lat="43.0153070000" lon="0.3616120000"><ele>683</ele><time>2026-03-24T07:05:04Z</time></trkpt>
<trkpt lat="43.0153250000" lon="0.3616020000"><ele>683</ele><time>2026-03-24T07:05:08Z</time></trkpt>
<trkpt lat="43.0153420000" lon="0.3616120000"><ele>684</ele><time>2026-03-24T07:05:12Z</time></trkpt>
<trkpt lat="43.0153650000" lon="0.3616050000"><ele>684</ele><time>2026-03-24T07:05:17Z</time></trkpt>
<trkpt lat="43.0153900000" lon="0.3616120000"><ele>684</ele><time>2026-03-24T07:05:20Z</time></trkpt>
<trkpt lat="43.0154120000" lon="0.3616170000"><ele>685</ele><time>2026-03-24T07:05:23Z</time></trkpt>
<trkpt lat="43.0154370000" lon="0.3616170000"><ele>685</ele><time>2026-03-24T07:05:28Z</time></trkpt>
<trkpt lat="43.0154570000" lon="0.3616120000"><ele>686</ele><time>2026-03-24T07:05:33Z</time></trkpt>
<trkpt lat="43.0154750000" lon="0.3616020000"><ele>686</ele><time>2026-03-24T07:05:36Z</time></trkpt>
<trkpt lat="43.0154950000" lon="0.3616120000"><ele>687</ele><time>2026-03-24T07:05:45Z</time></trkpt>
<trkpt lat="43.0155100000" lon="0.3615900000"><ele>688</ele><time>2026-03-24T07:05:54Z</time></trkpt>
<trkpt lat="43.0155270000" lon="0.3616000000"><ele>690</ele><time>2026-03-24T07:06:06Z</time></trkpt>
<trkpt lat="43.0155570000" lon="0.3616120000"><ele>690</ele><time>2026-03-24T07:06:08Z</time></trkpt>
<trkpt lat="43.0155730000" lon="0.3616100000"><ele>691</ele><time>2026-03-24T07:06:12Z</time></trkpt>
<trkpt lat="43.0155870000" lon="0.3615900000"><ele>691</ele><time>2026-03-24T07:06:14Z</time></trkpt>
<trkpt lat="43.0156050000" lon="0.3615770000"><ele>692</ele><time>2026-03-24T07:06:17Z</time></trkpt>
<trkpt lat="43.0156270000" lon="0.3615700000"><ele>692</ele><time>2026-03-24T07:06:19Z</time></trkpt>
<trkpt lat="43.0156500000" lon="0.3615720000"><ele>693</ele><time>2026-03-24T07:07:09Z</time></trkpt>
<trkpt lat="43.0156720000" lon="0.3615720000"><ele>693</ele><time>2026-03-24T07:07:11Z</time></trkpt>
<trkpt lat="43.0156920000" lon="0.3615830000"><ele>693</ele><time>2026-03-24T07:08:18Z</time></trkpt>
<trkpt lat="43.0156750000" lon="0.3615820000"><ele>694</ele><time>2026-03-24T07:08:27Z</time></trkpt>
<trkpt lat="43.0156920000" lon="0.3615820000"><ele>695</ele><time>2026-03-24T07:08:38Z</time></trkpt>
<trkpt lat="43.0157150000" lon="0.3615730000"><ele>696</ele><time>2026-03-24T07:08:41Z</time></trkpt>
<trkpt lat="43.0157320000" lon="0.3615670000"><ele>696</ele><time>2026-03-24T07:08:42Z</time></trkpt>
<trkpt lat="43.0157520000" lon="0.3615670000"><ele>696</ele><time>2026-03-24T07:08:43Z</time></trkpt>
<trkpt lat="43.0157720000" lon="0.3615570000"><ele>696</ele><time>2026-03-24T07:08:44Z</time></trkpt>
<trkpt lat="43.0157900000" lon="0.3615450000"><ele>697</ele><time>2026-03-24T07:08:46Z</time></trkpt>
<trkpt lat="43.0158070000" lon="0.3615420000"><ele>697</ele><time>2026-03-24T07:08:48Z</time></trkpt>
<trkpt lat="43.0158370000" lon="0.3615220000"><ele>698</ele><time>2026-03-24T07:08:57Z</time></trkpt>
<trkpt lat="43.0158520000" lon="0.3615120000"><ele>699</ele><time>2026-03-24T07:08:58Z</time></trkpt>
<trkpt lat="43.0158800000" lon="0.3614880000"><ele>699</ele><time>2026-03-24T07:09:00Z</time></trkpt>
<trkpt lat="43.0159000000" lon="0.3614750000"><ele>699</ele><time>2026-03-24T07:09:02Z</time></trkpt>
<trkpt lat="43.0159200000" lon="0.3614670000"><ele>700</ele><time>2026-03-24T07:09:05Z</time></trkpt>
<trkpt lat="43.0159400000" lon="0.3614550000"><ele>700</ele><time>2026-03-24T07:09:09Z</time></trkpt>
<trkpt lat="43.0159620000" lon="0.3614550000"><ele>701</ele><time>2026-03-24T07:09:13Z</time></trkpt>
<trkpt lat="43.0159770000" lon="0.3614420000"><ele>701</ele><time>2026-03-24T07:09:16Z</time></trkpt>
<trkpt lat="43.0159970000" lon="0.3614280000"><ele>702</ele><time>2026-03-24T07:09:20Z</time></trkpt>
<trkpt lat="43.0160170000" lon="0.3614200000"><ele>702</ele><time>2026-03-24T07:09:21Z</time></trkpt>
<trkpt lat="43.0160420000" lon="0.3614170000"><ele>703</ele><time>2026-03-24T07:09:27Z</time></trkpt>
<trkpt lat="43.0160420000" lon="0.3614600000"><ele>703</ele><time>2026-03-24T07:09:28Z</time></trkpt>
<trkpt lat="43.0160600000" lon="0.3614470000"><ele>704</ele><time>2026-03-24T07:09:33Z</time></trkpt>
<trkpt lat="43.0160800000" lon="0.3614420000"><ele>704</ele><time>2026-03-24T07:09:39Z</time></trkpt>
<trkpt lat="43.0161070000" lon="0.3614520000"><ele>706</ele><time>2026-03-24T07:09:49Z</time></trkpt>
<trkpt lat="43.0161320000" lon="0.3614420000"><ele>706</ele><time>2026-03-24T07:09:53Z</time></trkpt>
<trkpt lat="43.0161570000" lon="0.3614280000"><ele>706</ele><time>2026-03-24T07:09:54Z</time></trkpt>
<trkpt lat="43.0161800000" lon="0.3614170000"><ele>706</ele><time>2026-03-24T07:09:55Z</time></trkpt>
<trkpt lat="43.0162000000" lon="0.3614100000"><ele>707</ele><time>2026-03-24T07:09:56Z</time></trkpt>
<trkpt lat="43.0162220000" lon="0.3613920000"><ele>707</ele><time>2026-03-24T07:09:58Z</time></trkpt>
<trkpt lat="43.0162420000" lon="0.3613870000"><ele>707</ele><time>2026-03-24T07:10:03Z</time></trkpt>
<trkpt lat="43.0162620000" lon="0.3613620000"><ele>708</ele><time>2026-03-24T07:10:05Z</time></trkpt>
<trkpt lat="43.0162800000" lon="0.3613500000"><ele>708</ele><time>2026-03-24T07:10:07Z</time></trkpt>
<trkpt lat="43.0162970000" lon="0.3613470000"><ele>708</ele><time>2026-03-24T07:10:09Z</time></trkpt>
<trkpt lat="43.0163170000" lon="0.3613570000"><ele>708</ele><time>2026-03-24T07:10:12Z</time></trkpt>
<trkpt lat="43.0163330000" lon="0.3613620000"><ele>709</ele><time>2026-03-24T07:10:16Z</time></trkpt>
<trkpt lat="43.0163520000" lon="0.3613600000"><ele>709</ele><time>2026-03-24T07:10:18Z</time></trkpt>
<trkpt lat="43.0163820000" lon="0.3613600000"><ele>709</ele><time>2026-03-24T07:10:22Z</time></trkpt>
<trkpt lat="43.0164050000" lon="0.3613600000"><ele>710</ele><time>2026-03-24T07:10:24Z</time></trkpt>
<trkpt lat="43.0164270000" lon="0.3613570000"><ele>710</ele><time>2026-03-24T07:10:26Z</time></trkpt>
<trkpt lat="43.0164550000" lon="0.3613620000"><ele>710</ele><time>2026-03-24T07:10:30Z</time></trkpt>
<trkpt lat="43.0164720000" lon="0.3613720000"><ele>711</ele><time>2026-03-24T07:10:34Z</time></trkpt>
<trkpt lat="43.0164880000" lon="0.3613720000"><ele>711</ele><time>2026-03-24T07:10:37Z</time></trkpt>
<trkpt lat="43.0165150000" lon="0.3613600000"><ele>711</ele><time>2026-03-24T07:10:40Z</time></trkpt>
<trkpt lat="43.0165450000" lon="0.3613520000"><ele>712</ele><time>2026-03-24T07:10:43Z</time></trkpt>
<trkpt lat="43.0165550000" lon="0.3613770000"><ele>712</ele><time>2026-03-24T07:10:46Z</time></trkpt>
<trkpt lat="43.0165750000" lon="0.3614030000"><ele>712</ele><time>2026-03-24T07:10:48Z</time></trkpt>
<trkpt lat="43.0166020000" lon="0.3614120000"><ele>713</ele><time>2026-03-24T07:10:50Z</time></trkpt>
<trkpt lat="43.0166220000" lon="0.3614170000"><ele>713</ele><time>2026-03-24T07:10:52Z</time></trkpt>
<trkpt lat="43.0166520000" lon="0.3614200000"><ele>714</ele><time>2026-03-24T07:11:02Z</time></trkpt>
<trkpt lat="43.0166800000" lon="0.3613920000"><ele>717</ele><time>2026-03-24T07:11:20Z</time></trkpt>
<trkpt lat="43.0167070000" lon="0.3613620000"><ele>717</ele><time>2026-03-24T07:11:22Z</time></trkpt>
<trkpt lat="43.0167220000" lon="0.3613470000"><ele>717</ele><time>2026-03-24T07:11:23Z</time></trkpt>
<trkpt lat="43.0167400000" lon="0.3613130000"><ele>717</ele><time>2026-03-24T07:11:25Z</time></trkpt>
<trkpt lat="43.0167420000" lon="0.3612870000"><ele>718</ele><time>2026-03-24T07:11:29Z</time></trkpt>
<trkpt lat="43.0167520000" lon="0.3613120000"><ele>719</ele><time>2026-03-24T07:11:35Z</time></trkpt>
<trkpt lat="43.0167750000" lon="0.3613070000"><ele>719</ele><time>2026-03-24T07:12:10Z</time></trkpt>
<trkpt lat="43.0168020000" lon="0.3613220000"><ele>719</ele><time>2026-03-24T07:12:12Z</time></trkpt>
<trkpt lat="43.0168320000" lon="0.3613270000"><ele>719</ele><time>2026-03-24T07:12:14Z</time></trkpt>
<trkpt lat="43.0168500000" lon="0.3613120000"><ele>720</ele><time>2026-03-24T07:12:16Z</time></trkpt>
<trkpt lat="43.0168670000" lon="0.3613020000"><ele>720</ele><time>2026-03-24T07:12:19Z</time></trkpt>
<trkpt lat="43.0168870000" lon="0.3613100000"><ele>722</ele><time>2026-03-24T07:12:31Z</time></trkpt>
<trkpt lat="43.0169120000" lon="0.3613000000"><ele>726</ele><time>2026-03-24T07:12:59Z</time></trkpt>
<trkpt lat="43.0169350000" lon="0.3612930000"><ele>726</ele><time>2026-03-24T07:13:00Z</time></trkpt>
<trkpt lat="43.0169620000" lon="0.3612870000"><ele>726</ele><time>2026-03-24T07:13:01Z</time></trkpt>
<trkpt lat="43.0169950000" lon="0.3612820000"><ele>726</ele><time>2026-03-24T07:13:02Z</time></trkpt>
<trkpt lat="43.0170220000" lon="0.3612770000"><ele>726</ele><time>2026-03-24T07:13:03Z</time></trkpt>
<trkpt lat="43.0170420000" lon="0.3612750000"><ele>727</ele><time>2026-03-24T07:13:04Z</time></trkpt>
<trkpt lat="43.0170620000" lon="0.3612670000"><ele>727</ele><time>2026-03-24T07:13:06Z</time></trkpt>
<trkpt lat="43.0170720000" lon="0.3612420000"><ele>727</ele><time>2026-03-24T07:13:08Z</time></trkpt>
<trkpt lat="43.0170820000" lon="0.3612180000"><ele>728</ele><time>2026-03-24T07:13:13Z</time></trkpt>
<trkpt lat="43.0170970000" lon="0.3612420000"><ele>728</ele><time>2026-03-24T07:13:15Z</time></trkpt>
<trkpt lat="43.0171150000" lon="0.3612520000"><ele>728</ele><time>2026-03-24T07:13:17Z</time></trkpt>
<trkpt lat="43.0171420000" lon="0.3612570000"><ele>728</ele><time>2026-03-24T07:13:19Z</time></trkpt>
<trkpt lat="43.0171720000" lon="0.3612670000"><ele>728</ele><time>2026-03-24T07:13:21Z</time></trkpt>
<trkpt lat="43.0171900000" lon="0.3612670000"><ele>729</ele><time>2026-03-24T07:13:24Z</time></trkpt>
<trkpt lat="43.0172120000" lon="0.3612800000"><ele>729</ele><time>2026-03-24T07:13:26Z</time></trkpt>
<trkpt lat="43.0172300000" lon="0.3612900000"><ele>730</ele><time>2026-03-24T07:13:30Z</time></trkpt>
<trkpt lat="43.0172480000" lon="0.3612870000"><ele>730</ele><time>2026-03-24T07:13:35Z</time></trkpt>
<trkpt lat="43.0172800000" lon="0.3612850000"><ele>735</ele><time>2026-03-24T07:14:20Z</time></trkpt>
<trkpt lat="43.0173000000" lon="0.3612970000"><ele>735</ele><time>2026-03-24T07:14:21Z</time></trkpt>
<trkpt lat="43.0173180000" lon="0.3613120000"><ele>735</ele><time>2026-03-24T07:14:22Z</time></trkpt>
<trkpt lat="43.0173370000" lon="0.3613250000"><ele>735</ele><time>2026-03-24T07:14:23Z</time></trkpt>
<trkpt lat="43.0173620000" lon="0.3613450000"><ele>735</ele><time>2026-03-24T07:14:25Z</time></trkpt>
<trkpt lat="43.0173820000" lon="0.3613520000"><ele>735</ele><time>2026-03-24T07:14:27Z</time></trkpt>
<trkpt lat="43.0174020000" lon="0.3613600000"><ele>735</ele><time>2026-03-24T07:14:30Z</time></trkpt>
<trkpt lat="43.0174170000" lon="0.3613750000"><ele>735</ele><time>2026-03-24T07:14:32Z</time></trkpt>
<trkpt lat="43.0174350000" lon="0.3613820000"><ele>736</ele><time>2026-03-24T07:14:34Z</time></trkpt>
<trkpt lat="43.0174570000" lon="0.3613820000"><ele>737</ele><time>2026-03-24T07:14:41Z</time></trkpt>
<trkpt lat="43.0174730000" lon="0.3613720000"><ele>737</ele><time>2026-03-24T07:14:46Z</time></trkpt>
<trkpt lat="43.0174970000" lon="0.3613220000"><ele>741</ele><time>2026-03-24T07:15:20Z</time></trkpt>
<trkpt lat="43.0175200000" lon="0.3613220000"><ele>741</ele><time>2026-03-24T07:15:21Z</time></trkpt>
<trkpt lat="43.0175500000" lon="0.3613220000"><ele>741</ele><time>2026-03-24T07:15:22Z</time></trkpt>
<trkpt lat="43.0175770000" lon="0.3613220000"><ele>741</ele><time>2026-03-24T07:15:23Z</time></trkpt>
<trkpt lat="43.0175970000" lon="0.3613180000"><ele>741</ele><time>2026-03-24T07:15:24Z</time></trkpt>
<trkpt lat="43.0176200000" lon="0.3613130000"><ele>741</ele><time>2026-03-24T07:15:26Z</time></trkpt>
<trkpt lat="43.0176400000" lon="0.3613120000"><ele>742</ele><time>2026-03-24T07:15:29Z</time></trkpt>
<trkpt lat="43.0176600000" lon="0.3613020000"><ele>742</ele><time>2026-03-24T07:15:33Z</time></trkpt>
<trkpt lat="43.0176970000" lon="0.3612920000"><ele>746</ele><time>2026-03-24T07:15:54Z</time></trkpt>
<trkpt lat="43.0177250000" lon="0.3612920000"><ele>746</ele><time>2026-03-24T07:15:55Z</time></trkpt>
<trkpt lat="43.0177520000" lon="0.3612900000"><ele>746</ele><time>2026-03-24T07:15:56Z</time></trkpt>
<trkpt lat="43.0177770000" lon="0.3612900000"><ele>746</ele><time>2026-03-24T07:15:57Z</time></trkpt>
<trkpt lat="43.0178050000" lon="0.3612930000"><ele>746</ele><time>2026-03-24T07:15:59Z</time></trkpt>
<trkpt lat="43.0178200000" lon="0.3613270000"><ele>746</ele><time>2026-03-24T07:16:01Z</time></trkpt>
<trkpt lat="43.0178150000" lon="0.3613570000"><ele>746</ele><time>2026-03-24T07:16:02Z</time></trkpt>
<trkpt lat="43.0178070000" lon="0.3613870000"><ele>746</ele><time>2026-03-24T07:16:04Z</time></trkpt>
<trkpt lat="43.0178070000" lon="0.3614220000"><ele>746</ele><time>2026-03-24T07:16:07Z</time></trkpt>
<trkpt lat="43.0178170000" lon="0.3614570000"><ele>746</ele><time>2026-03-24T07:16:10Z</time></trkpt>
<trkpt lat="43.0178020000" lon="0.3614800000"><ele>746</ele><time>2026-03-24T07:16:13Z</time></trkpt>
<trkpt lat="43.0177970000" lon="0.3615100000"><ele>746</ele><time>2026-03-24T07:16:16Z</time></trkpt>
<trkpt lat="43.0177920000" lon="0.3615380000"><ele>747</ele><time>2026-03-24T07:16:18Z</time></trkpt>
<trkpt lat="43.0177850000" lon="0.3615650000"><ele>747</ele><time>2026-03-24T07:16:21Z</time></trkpt>
<trkpt lat="43.0177700000" lon="0.3615870000"><ele>748</ele><time>2026-03-24T07:16:24Z</time></trkpt>
<trkpt lat="43.0177600000" lon="0.3616120000"><ele>748</ele><time>2026-03-24T07:16:26Z</time></trkpt>
<trkpt lat="43.0177470000" lon="0.3616320000"><ele>748</ele><time>2026-03-24T07:16:28Z</time></trkpt>
<trkpt lat="43.0177450000" lon="0.3616570000"><ele>749</ele><time>2026-03-24T07:16:30Z</time></trkpt>
<trkpt lat="43.0177270000" lon="0.3616820000"><ele>749</ele><time>2026-03-24T07:16:33Z</time></trkpt>
<trkpt lat="43.0177120000" lon="0.3617050000"><ele>750</ele><time>2026-03-24T07:16:37Z</time></trkpt>
<trkpt lat="43.0176900000" lon="0.3617180000"><ele>750</ele><time>2026-03-24T07:16:42Z</time></trkpt>
<trkpt lat="43.0176720000" lon="0.3617280000"><ele>751</ele><time>2026-03-24T07:16:45Z</time></trkpt>
<trkpt lat="43.0176600000" lon="0.3617500000"><ele>751</ele><time>2026-03-24T07:16:48Z</time></trkpt>
<trkpt lat="43.0176470000" lon="0.3617770000"><ele>751</ele><time>2026-03-24T07:16:52Z</time></trkpt>
<trkpt lat="43.0176270000" lon="0.3617950000"><ele>752</ele><time>2026-03-24T07:16:55Z</time></trkpt>
<trkpt lat="43.0176200000" lon="0.3618220000"><ele>752</ele><time>2026-03-24T07:16:59Z</time></trkpt>
<trkpt lat="43.0176370000" lon="0.3618420000"><ele>753</ele><time>2026-03-24T07:17:04Z</time></trkpt>
<trkpt lat="43.0176370000" lon="0.3618700000"><ele>753</ele><time>2026-03-24T07:17:07Z</time></trkpt>
<trkpt lat="43.0176420000" lon="0.3619000000"><ele>753</ele><time>2026-03-24T07:17:10Z</time></trkpt>
<trkpt lat="43.0176420000" lon="0.3619270000"><ele>754</ele><time>2026-03-24T07:17:12Z</time></trkpt>
<trkpt lat="43.0176400000" lon="0.3619630000"><ele>754</ele><time>2026-03-24T07:17:15Z</time></trkpt>
<trkpt lat="43.0176420000" lon="0.3619920000"><ele>754</ele><time>2026-03-24T07:17:17Z</time></trkpt>
<trkpt lat="43.0176400000" lon="0.3620300000"><ele>755</ele><time>2026-03-24T07:17:20Z</time></trkpt>
<trkpt lat="43.0176420000" lon="0.3620570000"><ele>755</ele><time>2026-03-24T07:17:23Z</time></trkpt>
<trkpt lat="43.0176470000" lon="0.3620900000"><ele>756</ele><time>2026-03-24T07:17:26Z</time></trkpt>
<trkpt lat="43.0176600000" lon="0.3621170000"><ele>756</ele><time>2026-03-24T07:17:30Z</time></trkpt>
<trkpt lat="43.0176770000" lon="0.3621300000"><ele>757</ele><time>2026-03-24T07:17:35Z</time></trkpt>
<trkpt lat="43.0176770000" lon="0.3621550000"><ele>758</ele><time>2026-03-24T07:17:40Z</time></trkpt>
<trkpt lat="43.0176700000" lon="0.3621800000"><ele>759</ele><time>2026-03-24T07:18:22Z</time></trkpt>
<trkpt lat="43.0176670000" lon="0.3622100000"><ele>759</ele><time>2026-03-24T07:18:25Z</time></trkpt>
<trkpt lat="43.0176820000" lon="0.3622300000"><ele>759</ele><time>2026-03-24T07:18:27Z</time></trkpt>
<trkpt lat="43.0176970000" lon="0.3622470000"><ele>759</ele><time>2026-03-24T07:18:30Z</time></trkpt>
<trkpt lat="43.0177070000" lon="0.3622680000"><ele>760</ele><time>2026-03-24T07:18:34Z</time></trkpt>
<trkpt lat="43.0177250000" lon="0.3622850000"><ele>760</ele><time>2026-03-24T07:18:38Z</time></trkpt>
<trkpt lat="43.0177400000" lon="0.3623070000"><ele>761</ele><time>2026-03-24T07:18:43Z</time></trkpt>
<trkpt lat="43.0177570000" lon="0.3623170000"><ele>762</ele><time>2026-03-24T07:18:47Z</time></trkpt>
<trkpt lat="43.0177800000" lon="0.3623270000"><ele>762</ele><time>2026-03-24T07:18:51Z</time></trkpt>
<trkpt lat="43.0177970000" lon="0.3623370000"><ele>763</ele><time>2026-03-24T07:18:55Z</time></trkpt>
<trkpt lat="43.0178150000" lon="0.3623420000"><ele>763</ele><time>2026-03-24T07:18:57Z</time></trkpt>
<trkpt lat="43.0178350000" lon="0.3623520000"><ele>764</ele><time>2026-03-24T07:19:00Z</time></trkpt>
<trkpt lat="43.0178520000" lon="0.3623670000"><ele>764</ele><time>2026-03-24T07:19:03Z</time></trkpt>
<trkpt lat="43.0178720000" lon="0.3623780000"><ele>765</ele><time>2026-03-24T07:19:07Z</time></trkpt>
<trkpt lat="43.0178920000" lon="0.3623820000"><ele>766</ele><time>2026-03-24T07:19:10Z</time></trkpt>
<trkpt lat="43.0179120000" lon="0.3623870000"><ele>766</ele><time>2026-03-24T07:19:14Z</time></trkpt>
<trkpt lat="43.0179300000" lon="0.3624020000"><ele>767</ele><time>2026-03-24T07:19:19Z</time></trkpt>
<trkpt lat="43.0179470000" lon="0.3624100000"><ele>768</ele><time>2026-03-24T07:19:31Z</time></trkpt>
<trkpt lat="43.0179670000" lon="0.3624270000"><ele>769</ele><time>2026-03-24T07:19:36Z</time></trkpt>
<trkpt lat="43.0179900000" lon="0.3624500000"><ele>769</ele><time>2026-03-24T07:19:38Z</time></trkpt>
<trkpt lat="43.0180070000" lon="0.3624280000"><ele>770</ele><time>2026-03-24T07:19:46Z</time></trkpt>
<trkpt lat="43.0180420000" lon="0.3624320000"><ele>776</ele><time>2026-03-24T07:20:59Z</time></trkpt>
<trkpt lat="43.0180770000" lon="0.3624570000"><ele>776</ele><time>2026-03-24T07:21:00Z</time></trkpt>
<trkpt lat="43.0181200000" lon="0.3624820000"><ele>776</ele><time>2026-03-24T07:21:01Z</time></trkpt>
<trkpt lat="43.0181620000" lon="0.3625120000"><ele>776</ele><time>2026-03-24T07:21:02Z</time></trkpt>
<trkpt lat="43.0181920000" lon="0.3625320000"><ele>776</ele><time>2026-03-24T07:21:03Z</time></trkpt>
<trkpt lat="43.0182170000" lon="0.3625470000"><ele>777</ele><time>2026-03-24T07:21:04Z</time></trkpt>
<trkpt lat="43.0182370000" lon="0.3625620000"><ele>777</ele><time>2026-03-24T07:21:06Z</time></trkpt>
<trkpt lat="43.0182570000" lon="0.3625680000"><ele>778</ele><time>2026-03-24T07:21:12Z</time></trkpt>
<trkpt lat="43.0182770000" lon="0.3625770000"><ele>781</ele><time>2026-03-24T07:21:39Z</time></trkpt>
<trkpt lat="43.0183170000" lon="0.3625970000"><ele>782</ele><time>2026-03-24T07:21:41Z</time></trkpt>
<trkpt lat="43.0183400000" lon="0.3626070000"><ele>782</ele><time>2026-03-24T07:21:42Z</time></trkpt>
<trkpt lat="43.0183570000" lon="0.3626120000"><ele>782</ele><time>2026-03-24T07:21:43Z</time></trkpt>
<trkpt lat="43.0183820000" lon="0.3626200000"><ele>782</ele><time>2026-03-24T07:21:45Z</time></trkpt>
<trkpt lat="43.0184020000" lon="0.3626320000"><ele>783</ele><time>2026-03-24T07:21:49Z</time></trkpt>
<trkpt lat="43.0184220000" lon="0.3626300000"><ele>784</ele><time>2026-03-24T07:21:54Z</time></trkpt>
<trkpt lat="43.0184450000" lon="0.3626300000"><ele>784</ele><time>2026-03-24T07:21:58Z</time></trkpt>
<trkpt lat="43.0184670000" lon="0.3626400000"><ele>785</ele><time>2026-03-24T07:22:03Z</time></trkpt>
<trkpt lat="43.0184850000" lon="0.3626550000"><ele>786</ele><time>2026-03-24T07:22:07Z</time></trkpt>
<trkpt lat="43.0185000000" lon="0.3626770000"><ele>786</ele><time>2026-03-24T07:22:12Z</time></trkpt>
<trkpt lat="43.0185170000" lon="0.3627020000"><ele>788</ele><time>2026-03-24T07:23:12Z</time></trkpt>
<trkpt lat="43.0185370000" lon="0.3627100000"><ele>788</ele><time>2026-03-24T07:23:14Z</time></trkpt>
<trkpt lat="43.0185520000" lon="0.3627200000"><ele>789</ele><time>2026-03-24T07:23:17Z</time></trkpt>
<trkpt lat="43.0185700000" lon="0.3627030000"><ele>789</ele><time>2026-03-24T07:23:22Z</time></trkpt>
<trkpt lat="43.0185920000" lon="0.3626900000"><ele>793</ele><time>2026-03-24T07:23:45Z</time></trkpt>
<trkpt lat="43.0186250000" lon="0.3626830000"><ele>793</ele><time>2026-03-24T07:23:47Z</time></trkpt>
<trkpt lat="43.0186420000" lon="0.3626820000"><ele>793</ele><time>2026-03-24T07:23:48Z</time></trkpt>
<trkpt lat="43.0186620000" lon="0.3626800000"><ele>793</ele><time>2026-03-24T07:23:49Z</time></trkpt>
<trkpt lat="43.0186820000" lon="0.3626770000"><ele>794</ele><time>2026-03-24T07:23:51Z</time></trkpt>
<trkpt lat="43.0187050000" lon="0.3626770000"><ele>794</ele><time>2026-03-24T07:23:56Z</time></trkpt>
<trkpt lat="43.0187270000" lon="0.3626820000"><ele>795</ele><time>2026-03-24T07:24:01Z</time></trkpt>
<trkpt lat="43.0187450000" lon="0.3626870000"><ele>796</ele><time>2026-03-24T07:24:05Z</time></trkpt>
<trkpt lat="43.0187620000" lon="0.3626870000"><ele>796</ele><time>2026-03-24T07:24:11Z</time></trkpt>
<trkpt lat="43.0187800000" lon="0.3626720000"><ele>797</ele><time>2026-03-24T07:24:15Z</time></trkpt>
<trkpt lat="43.0188000000" lon="0.3626650000"><ele>800</ele><time>2026-03-24T07:24:36Z</time></trkpt>
<trkpt lat="43.0188270000" lon="0.3626480000"><ele>800</ele><time>2026-03-24T07:24:38Z</time></trkpt>
<trkpt lat="43.0188500000" lon="0.3626420000"><ele>800</ele><time>2026-03-24T07:24:40Z</time></trkpt>
<trkpt lat="43.0188670000" lon="0.3626420000"><ele>800</ele><time>2026-03-24T07:24:42Z</time></trkpt>
<trkpt lat="43.0188870000" lon="0.3626300000"><ele>801</ele><time>2026-03-24T07:24:45Z</time></trkpt>
<trkpt lat="43.0189050000" lon="0.3626150000"><ele>802</ele><time>2026-03-24T07:24:51Z</time></trkpt>
<trkpt lat="43.0189220000" lon="0.3626070000"><ele>802</ele><time>2026-03-24T07:24:56Z</time></trkpt>
<trkpt lat="43.0189620000" lon="0.3626150000"><ele>810</ele><time>2026-03-24T07:25:56Z</time></trkpt>
<trkpt lat="43.0189970000" lon="0.3626150000"><ele>810</ele><time>2026-03-24T07:25:57Z</time></trkpt>
<trkpt lat="43.0190350000" lon="0.3626120000"><ele>810</ele><time>2026-03-24T07:25:58Z</time></trkpt>
<trkpt lat="43.0190720000" lon="0.3626080000"><ele>810</ele><time>2026-03-24T07:25:59Z</time></trkpt>
<trkpt lat="43.0191000000" lon="0.3626070000"><ele>810</ele><time>2026-03-24T07:26:00Z</time></trkpt>
<trkpt lat="43.0191200000" lon="0.3626070000"><ele>810</ele><time>2026-03-24T07:26:01Z</time></trkpt>
<trkpt lat="43.0191400000" lon="0.3625920000"><ele>811</ele><time>2026-03-24T07:26:03Z</time></trkpt>
<trkpt lat="43.0191570000" lon="0.3625750000"><ele>811</ele><time>2026-03-24T07:26:06Z</time></trkpt>
<trkpt lat="43.0191750000" lon="0.3625650000"><ele>813</ele><time>2026-03-24T07:26:20Z</time></trkpt>
<trkpt lat="43.0192020000" lon="0.3625570000"><ele>813</ele><time>2026-03-24T07:26:22Z</time></trkpt>
<trkpt lat="43.0192270000" lon="0.3625470000"><ele>814</ele><time>2026-03-24T07:26:24Z</time></trkpt>
<trkpt lat="43.0192450000" lon="0.3625420000"><ele>814</ele><time>2026-03-24T07:26:27Z</time></trkpt>
<trkpt lat="43.0192620000" lon="0.3625420000"><ele>815</ele><time>2026-03-24T07:26:57Z</time></trkpt>
<trkpt lat="43.0192850000" lon="0.3625470000"><ele>815</ele><time>2026-03-24T07:26:59Z</time></trkpt>
<trkpt lat="43.0193100000" lon="0.3625380000"><ele>815</ele><time>2026-03-24T07:27:01Z</time></trkpt>
<trkpt lat="43.0193320000" lon="0.3625250000"><ele>816</ele><time>2026-03-24T07:27:03Z</time></trkpt>
<trkpt lat="43.0193520000" lon="0.3625120000"><ele>816</ele><time>2026-03-24T07:27:05Z</time></trkpt>
<trkpt lat="43.0193770000" lon="0.3625120000"><ele>816</ele><time>2026-03-24T07:27:08Z</time></trkpt>
<trkpt lat="43.0193920000" lon="0.3624920000"><ele>817</ele><time>2026-03-24T07:27:11Z</time></trkpt>
<trkpt lat="43.0194120000" lon="0.3624950000"><ele>818</ele><time>2026-03-24T07:27:27Z</time></trkpt>
<trkpt lat="43.0194350000" lon="0.3624730000"><ele>818</ele><time>2026-03-24T07:27:30Z</time></trkpt>
<trkpt lat="43.0194520000" lon="0.3624570000"><ele>818</ele><time>2026-03-24T07:27:32Z</time></trkpt>
<trkpt lat="43.0194650000" lon="0.3624370000"><ele>819</ele><time>2026-03-24T07:27:34Z</time></trkpt>
<trkpt lat="43.0194770000" lon="0.3624170000"><ele>819</ele><time>2026-03-24T07:27:36Z</time></trkpt>
<trkpt lat="43.0194920000" lon="0.3623970000"><ele>819</ele><time>2026-03-24T07:27:38Z</time></trkpt>
<trkpt lat="43.0195070000" lon="0.3623780000"><ele>819</ele><time>2026-03-24T07:27:40Z</time></trkpt>
<trkpt lat="43.0195250000" lon="0.3623520000"><ele>820</ele><time>2026-03-24T07:27:43Z</time></trkpt>
<trkpt lat="43.0195420000" lon="0.3623320000"><ele>820</ele><time>2026-03-24T07:27:46Z</time></trkpt>
<trkpt lat="43.0195520000" lon="0.3623100000"><ele>820</ele><time>2026-03-24T07:27:48Z</time></trkpt>
<trkpt lat="43.0195620000" lon="0.3622780000"><ele>820</ele><time>2026-03-24T07:27:50Z</time></trkpt>
<trkpt lat="43.0195720000" lon="0.3622570000"><ele>821</ele><time>2026-03-24T07:27:52Z</time></trkpt>
<trkpt lat="43.0195870000" lon="0.3622370000"><ele>821</ele><time>2026-03-24T07:27:54Z</time></trkpt>
<trkpt lat="43.0195970000" lon="0.3622150000"><ele>822</ele><time>2026-03-24T07:27:56Z</time></trkpt>
<trkpt lat="43.0196070000" lon="0.3621900000"><ele>822</ele><time>2026-03-24T07:27:58Z</time></trkpt>
<trkpt lat="43.0196170000" lon="0.3621600000"><ele>822</ele><time>2026-03-24T07:28:00Z</time></trkpt>
<trkpt lat="43.0196220000" lon="0.3621320000"><ele>822</ele><time>2026-03-24T07:28:02Z</time></trkpt>
<trkpt lat="43.0196300000" lon="0.3621020000"><ele>822</ele><time>2026-03-24T07:28:04Z</time></trkpt>
<trkpt lat="43.0196370000" lon="0.3620770000"><ele>823</ele><time>2026-03-24T07:28:06Z</time></trkpt>
<trkpt lat="43.0196470000" lon="0.3620480000"><ele>823</ele><time>2026-03-24T07:28:08Z</time></trkpt>
<trkpt lat="43.0196570000" lon="0.3620270000"><ele>823</ele><time>2026-03-24T07:28:10Z</time></trkpt>
<trkpt lat="43.0196670000" lon="0.3620070000"><ele>823</ele><time>2026-03-24T07:28:12Z</time></trkpt>
<trkpt lat="43.0196800000" lon="0.3619720000"><ele>823</ele><time>2026-03-24T07:28:15Z</time></trkpt>
<trkpt lat="43.0196850000" lon="0.3619470000"><ele>823</ele><time>2026-03-24T07:28:17Z</time></trkpt>
<trkpt lat="43.0196920000" lon="0.3619120000"><ele>824</ele><time>2026-03-24T07:28:19Z</time></trkpt>
<trkpt lat="43.0196920000" lon="0.3618720000"><ele>824</ele><time>2026-03-24T07:28:21Z</time></trkpt>
<trkpt lat="43.0196900000" lon="0.3618320000"><ele>824</ele><time>2026-03-24T07:28:23Z</time></trkpt>
<trkpt lat="43.0196920000" lon="0.3617970000"><ele>824</ele><time>2026-03-24T07:28:25Z</time></trkpt>
<trkpt lat="43.0196970000" lon="0.3617720000"><ele>824</ele><time>2026-03-24T07:28:27Z</time></trkpt>
<trkpt lat="43.0197050000" lon="0.3617420000"><ele>824</ele><time>2026-03-24T07:28:29Z</time></trkpt>
<trkpt lat="43.0197100000" lon="0.3617120000"><ele>825</ele><time>2026-03-24T07:28:32Z</time></trkpt>
<trkpt lat="43.0197170000" lon="0.3616870000"><ele>825</ele><time>2026-03-24T07:28:34Z</time></trkpt>
<trkpt lat="43.0197270000" lon="0.3616600000"><ele>825</ele><time>2026-03-24T07:28:36Z</time></trkpt>
<trkpt lat="43.0197370000" lon="0.3616320000"><ele>825</ele><time>2026-03-24T07:28:38Z</time></trkpt>
<trkpt lat="43.0197450000" lon="0.3616070000"><ele>826</ele><time>2026-03-24T07:28:40Z</time></trkpt>
<trkpt lat="43.0197550000" lon="0.3615770000"><ele>826</ele><time>2026-03-24T07:28:43Z</time></trkpt>
<trkpt lat="43.0197570000" lon="0.3615470000"><ele>826</ele><time>2026-03-24T07:28:45Z</time></trkpt>
<trkpt lat="43.0197670000" lon="0.3615200000"><ele>826</ele><time>2026-03-24T07:28:47Z</time></trkpt>
<trkpt lat="43.0197800000" lon="0.3614980000"><ele>827</ele><time>2026-03-24T07:28:49Z</time></trkpt>
<trkpt lat="43.0197900000" lon="0.3614650000"><ele>827</ele><time>2026-03-24T07:28:52Z</time></trkpt>
<trkpt lat="43.0197970000" lon="0.3614370000"><ele>827</ele><time>2026-03-24T07:28:54Z</time></trkpt>
<trkpt lat="43.0198050000" lon="0.3614150000"><ele>827</ele><time>2026-03-24T07:28:56Z</time></trkpt>
<trkpt lat="43.0198070000" lon="0.3613770000"><ele>827</ele><time>2026-03-24T07:28:59Z</time></trkpt>
<trkpt lat="43.0198070000" lon="0.3613470000"><ele>828</ele><time>2026-03-24T07:29:01Z</time></trkpt>
<trkpt lat="43.0198100000" lon="0.3613120000"><ele>828</ele><time>2026-03-24T07:29:03Z</time></trkpt>
<trkpt lat="43.0198120000" lon="0.3612820000"><ele>828</ele><time>2026-03-24T07:29:05Z</time></trkpt>
<trkpt lat="43.0198170000" lon="0.3612570000"><ele>828</ele><time>2026-03-24T07:29:07Z</time></trkpt>
<trkpt lat="43.0198170000" lon="0.3612320000"><ele>828</ele><time>2026-03-24T07:29:09Z</time></trkpt>
<trkpt lat="43.0198270000" lon="0.3612050000"><ele>829</ele><time>2026-03-24T07:29:11Z</time></trkpt>
<trkpt lat="43.0198320000" lon="0.3611770000"><ele>829</ele><time>2026-03-24T07:29:13Z</time></trkpt>
<trkpt lat="43.0198370000" lon="0.3611520000"><ele>829</ele><time>2026-03-24T07:29:15Z</time></trkpt>
<trkpt lat="43.0198450000" lon="0.3611170000"><ele>829</ele><time>2026-03-24T07:29:18Z</time></trkpt>
<trkpt lat="43.0198450000" lon="0.3610870000"><ele>829</ele><time>2026-03-24T07:29:20Z</time></trkpt>
<trkpt lat="43.0198520000" lon="0.3610620000"><ele>829</ele><time>2026-03-24T07:29:22Z</time></trkpt>
<trkpt lat="43.0198700000" lon="0.3610470000"><ele>829</ele><time>2026-03-24T07:29:25Z</time></trkpt>
<trkpt lat="43.0198900000" lon="0.3610570000"><ele>830</ele><time>2026-03-24T07:29:29Z</time></trkpt>
<trkpt lat="43.0198850000" lon="0.3610070000"><ele>829</ele><time>2026-03-24T07:29:49Z</time></trkpt>
<trkpt lat="43.0198800000" lon="0.3609770000"><ele>829</ele><time>2026-03-24T07:29:50Z</time></trkpt>
<trkpt lat="43.0198750000" lon="0.3609470000"><ele>829</ele><time>2026-03-24T07:29:51Z</time></trkpt>
<trkpt lat="43.0198670000" lon="0.3609050000"><ele>829</ele><time>2026-03-24T07:29:53Z</time></trkpt>
<trkpt lat="43.0198670000" lon="0.3608670000"><ele>829</ele><time>2026-03-24T07:29:55Z</time></trkpt>
<trkpt lat="43.0198700000" lon="0.3608320000"><ele>830</ele><time>2026-03-24T07:29:57Z</time></trkpt>
<trkpt lat="43.0198770000" lon="0.3608070000"><ele>830</ele><time>2026-03-24T07:29:59Z</time></trkpt>
<trkpt lat="43.0198820000" lon="0.3607820000"><ele>830</ele><time>2026-03-24T07:30:01Z</time></trkpt>
<trkpt lat="43.0198820000" lon="0.3607520000"><ele>830</ele><time>2026-03-24T07:30:03Z</time></trkpt>
<trkpt lat="43.0198800000" lon="0.3607250000"><ele>831</ele><time>2026-03-24T07:30:05Z</time></trkpt>
<trkpt lat="43.0198770000" lon="0.3607000000"><ele>831</ele><time>2026-03-24T07:30:07Z</time></trkpt>
<trkpt lat="43.0198720000" lon="0.3606720000"><ele>831</ele><time>2026-03-24T07:30:09Z</time></trkpt>
<trkpt lat="43.0198720000" lon="0.3606470000"><ele>831</ele><time>2026-03-24T07:30:11Z</time></trkpt>
<trkpt lat="43.0198650000" lon="0.3606220000"><ele>832</ele><time>2026-03-24T07:30:14Z</time></trkpt>
<trkpt lat="43.0198550000" lon="0.3605920000"><ele>832</ele><time>2026-03-24T07:30:17Z</time></trkpt>
<trkpt lat="43.0198450000" lon="0.3605670000"><ele>832</ele><time>2026-03-24T07:30:20Z</time></trkpt>
<trkpt lat="43.0198450000" lon="0.3605370000"><ele>832</ele><time>2026-03-24T07:30:23Z</time></trkpt>
<trkpt lat="43.0198470000" lon="0.3605120000"><ele>833</ele><time>2026-03-24T07:30:26Z</time></trkpt>
<trkpt lat="43.0198450000" lon="0.3604820000"><ele>834</ele><time>2026-03-24T07:30:29Z</time></trkpt>
<trkpt lat="43.0198400000" lon="0.3604550000"><ele>834</ele><time>2026-03-24T07:30:32Z</time></trkpt>
<trkpt lat="43.0198420000" lon="0.3604280000"><ele>835</ele><time>2026-03-24T07:30:35Z</time></trkpt>
<trkpt lat="43.0198420000" lon="0.3604020000"><ele>835</ele><time>2026-03-24T07:30:39Z</time></trkpt>
<trkpt lat="43.0198500000" lon="0.3603720000"><ele>836</ele><time>2026-03-24T07:30:42Z</time></trkpt>
<trkpt lat="43.0198470000" lon="0.3603470000"><ele>836</ele><time>2026-03-24T07:30:44Z</time></trkpt>
<trkpt lat="43.0198470000" lon="0.3603220000"><ele>837</ele><time>2026-03-24T07:30:47Z</time></trkpt>
<trkpt lat="43.0198450000" lon="0.3602930000"><ele>837</ele><time>2026-03-24T07:30:50Z</time></trkpt>
<trkpt lat="43.0198400000" lon="0.3602600000"><ele>837</ele><time>2026-03-24T07:30:52Z</time></trkpt>
<trkpt lat="43.0198270000" lon="0.3602200000"><ele>838</ele><time>2026-03-24T07:30:54Z</time></trkpt>
<trkpt lat="43.0198220000" lon="0.3601670000"><ele>838</ele><time>2026-03-24T07:30:56Z</time></trkpt>
<trkpt lat="43.0198070000" lon="0.3601420000"><ele>838</ele><time>2026-03-24T07:30:59Z</time></trkpt>
<trkpt lat="43.0197820000" lon="0.3601370000"><ele>838</ele><time>2026-03-24T07:31:02Z</time></trkpt>
<trkpt lat="43.0197700000" lon="0.3601170000"><ele>839</ele><time>2026-03-24T07:31:04Z</time></trkpt>
<trkpt lat="43.0197700000" lon="0.3600770000"><ele>839</ele><time>2026-03-24T07:31:07Z</time></trkpt>
<trkpt lat="43.0197720000" lon="0.3600470000"><ele>839</ele><time>2026-03-24T07:31:09Z</time></trkpt>
<trkpt lat="43.0197550000" lon="0.3600350000"><ele>839</ele><time>2026-03-24T07:31:12Z</time></trkpt>
<trkpt lat="43.0197470000" lon="0.3600020000"><ele>839</ele><time>2026-03-24T07:31:17Z</time></trkpt>
<trkpt lat="43.0197470000" lon="0.3599770000"><ele>839</ele><time>2026-03-24T07:31:19Z</time></trkpt>
<trkpt lat="43.0197550000" lon="0.3599550000"><ele>839</ele><time>2026-03-24T07:31:22Z</time></trkpt>
<trkpt lat="43.0197570000" lon="0.3599300000"><ele>840</ele><time>2026-03-24T07:31:24Z</time></trkpt>
<trkpt lat="43.0197520000" lon="0.3598970000"><ele>840</ele><time>2026-03-24T07:31:27Z</time></trkpt>
<trkpt lat="43.0197420000" lon="0.3598720000"><ele>840</ele><time>2026-03-24T07:31:30Z</time></trkpt>
<trkpt lat="43.0197370000" lon="0.3598470000"><ele>841</ele><time>2026-03-24T07:32:02Z</time></trkpt>
<trkpt lat="43.0197320000" lon="0.3598220000"><ele>841</ele><time>2026-03-24T07:32:05Z</time></trkpt>
<trkpt lat="43.0197150000" lon="0.3598120000"><ele>842</ele><time>2026-03-24T07:32:07Z</time></trkpt>
<trkpt lat="43.0196950000" lon="0.3597920000"><ele>842</ele><time>2026-03-24T07:32:11Z</time></trkpt>
<trkpt lat="43.0196670000" lon="0.3597850000"><ele>843</ele><time>2026-03-24T07:32:14Z</time></trkpt>
<trkpt lat="43.0196420000" lon="0.3597620000"><ele>843</ele><time>2026-03-24T07:32:16Z</time></trkpt>
<trkpt lat="43.0196170000" lon="0.3597400000"><ele>844</ele><time>2026-03-24T07:32:18Z</time></trkpt>
<trkpt lat="43.0195970000" lon="0.3597270000"><ele>844</ele><time>2026-03-24T07:32:21Z</time></trkpt>
<trkpt lat="43.0195820000" lon="0.3597120000"><ele>845</ele><time>2026-03-24T07:32:25Z</time></trkpt>
<trkpt lat="43.0195700000" lon="0.3596920000"><ele>846</ele><time>2026-03-24T07:32:30Z</time></trkpt>
<trkpt lat="43.0195500000" lon="0.3596870000"><ele>846</ele><time>2026-03-24T07:32:33Z</time></trkpt>
<trkpt lat="43.0195320000" lon="0.3596800000"><ele>847</ele><time>2026-03-24T07:32:36Z</time></trkpt>
<trkpt lat="43.0195220000" lon="0.3596530000"><ele>847</ele><time>2026-03-24T07:32:39Z</time></trkpt>
<trkpt lat="43.0195270000" lon="0.3596230000"><ele>847</ele><time>2026-03-24T07:32:41Z</time></trkpt>
<trkpt lat="43.0195220000" lon="0.3595980000"><ele>848</ele><time>2026-03-24T07:32:43Z</time></trkpt>
<trkpt lat="43.0195220000" lon="0.3595670000"><ele>848</ele><time>2026-03-24T07:32:46Z</time></trkpt>
<trkpt lat="43.0195220000" lon="0.3595420000"><ele>849</ele><time>2026-03-24T07:32:49Z</time></trkpt>
<trkpt lat="43.0195170000" lon="0.3595120000"><ele>849</ele><time>2026-03-24T07:32:54Z</time></trkpt>
<trkpt lat="43.0195170000" lon="0.3594820000"><ele>850</ele><time>2026-03-24T07:32:58Z</time></trkpt>
<trkpt lat="43.0195120000" lon="0.3594520000"><ele>851</ele><time>2026-03-24T07:33:02Z</time></trkpt>
<trkpt lat="43.0195270000" lon="0.3594370000"><ele>852</ele><time>2026-03-24T07:33:26Z</time></trkpt>
<trkpt lat="43.0195470000" lon="0.3594300000"><ele>852</ele><time>2026-03-24T07:33:31Z</time></trkpt>
<trkpt lat="43.0195670000" lon="0.3594120000"><ele>852</ele><time>2026-03-24T07:33:49Z</time></trkpt>
<trkpt lat="43.0195970000" lon="0.3593970000"><ele>852</ele><time>2026-03-24T07:33:51Z</time></trkpt>
<trkpt lat="43.0196250000" lon="0.3593900000"><ele>852</ele><time>2026-03-24T07:33:53Z</time></trkpt>
<trkpt lat="43.0196450000" lon="0.3593950000"><ele>853</ele><time>2026-03-24T07:33:55Z</time></trkpt>
<trkpt lat="43.0196650000" lon="0.3593970000"><ele>853</ele><time>2026-03-24T07:33:57Z</time></trkpt>
<trkpt lat="43.0196900000" lon="0.3594020000"><ele>853</ele><time>2026-03-24T07:34:00Z</time></trkpt>
<trkpt lat="43.0197120000" lon="0.3594100000"><ele>853</ele><time>2026-03-24T07:34:03Z</time></trkpt>
<trkpt lat="43.0197370000" lon="0.3594120000"><ele>853</ele><time>2026-03-24T07:34:06Z</time></trkpt>
<trkpt lat="43.0197600000" lon="0.3594070000"><ele>853</ele><time>2026-03-24T07:34:09Z</time></trkpt>
<trkpt lat="43.0197800000" lon="0.3594120000"><ele>853</ele><time>2026-03-24T07:34:12Z</time></trkpt>
<trkpt lat="43.0198000000" lon="0.3594370000"><ele>853</ele><time>2026-03-24T07:34:15Z</time></trkpt>
<trkpt lat="43.0198170000" lon="0.3594500000"><ele>853</ele><time>2026-03-24T07:34:32Z</time></trkpt>
<trkpt lat="43.0198420000" lon="0.3594450000"><ele>853</ele><time>2026-03-24T07:34:36Z</time></trkpt>
<trkpt lat="43.0198600000" lon="0.3594400000"><ele>853</ele><time>2026-03-24T07:34:38Z</time></trkpt>
<trkpt lat="43.0198770000" lon="0.3594370000"><ele>853</ele><time>2026-03-24T07:34:40Z</time></trkpt>
<trkpt lat="43.0198970000" lon="0.3594370000"><ele>854</ele><time>2026-03-24T07:34:44Z</time></trkpt>
<trkpt lat="43.0198970000" lon="0.3594120000"><ele>854</ele><time>2026-03-24T07:34:47Z</time></trkpt>
<trkpt lat="43.0199000000" lon="0.3593870000"><ele>854</ele><time>2026-03-24T07:34:49Z</time></trkpt>
<trkpt lat="43.0199200000" lon="0.3593620000"><ele>854</ele><time>2026-03-24T07:34:52Z</time></trkpt>
<trkpt lat="43.0199420000" lon="0.3593570000"><ele>855</ele><time>2026-03-24T07:34:55Z</time></trkpt>
<trkpt lat="43.0199670000" lon="0.3593570000"><ele>855</ele><time>2026-03-24T07:34:58Z</time></trkpt>
<trkpt lat="43.0199870000" lon="0.3593670000"><ele>856</ele><time>2026-03-24T07:35:01Z</time></trkpt>
<trkpt lat="43.0200050000" lon="0.3593570000"><ele>856</ele><time>2026-03-24T07:35:07Z</time></trkpt>
<trkpt lat="43.0200070000" lon="0.3593270000"><ele>857</ele><time>2026-03-24T07:35:20Z</time></trkpt>
<trkpt lat="43.0200170000" lon="0.3593000000"><ele>857</ele><time>2026-03-24T07:35:22Z</time></trkpt>
<trkpt lat="43.0200320000" lon="0.3592670000"><ele>857</ele><time>2026-03-24T07:35:24Z</time></trkpt>
<trkpt lat="43.0200470000" lon="0.3592470000"><ele>857</ele><time>2026-03-24T07:35:26Z</time></trkpt>
<trkpt lat="43.0200670000" lon="0.3592270000"><ele>858</ele><time>2026-03-24T07:35:29Z</time></trkpt>
<trkpt lat="43.0200870000" lon="0.3592170000"><ele>858</ele><time>2026-03-24T07:35:32Z</time></trkpt>
<trkpt lat="43.0201120000" lon="0.3592120000"><ele>859</ele><time>2026-03-24T07:35:35Z</time></trkpt>
<trkpt lat="43.0201300000" lon="0.3592070000"><ele>859</ele><time>2026-03-24T07:35:37Z</time></trkpt>
<trkpt lat="43.0201520000" lon="0.3592000000"><ele>859</ele><time>2026-03-24T07:35:40Z</time></trkpt>
<trkpt lat="43.0201700000" lon="0.3592000000"><ele>859</ele><time>2026-03-24T07:35:42Z</time></trkpt>
<trkpt lat="43.0201920000" lon="0.3592000000"><ele>860</ele><time>2026-03-24T07:35:45Z</time></trkpt>
<trkpt lat="43.0202150000" lon="0.3592180000"><ele>860</ele><time>2026-03-24T07:35:49Z</time></trkpt>
<trkpt lat="43.0202370000" lon="0.3592270000"><ele>861</ele><time>2026-03-24T07:35:52Z</time></trkpt>
<trkpt lat="43.0202570000" lon="0.3592350000"><ele>861</ele><time>2026-03-24T07:35:56Z</time></trkpt>
<trkpt lat="43.0202670000" lon="0.3592120000"><ele>862</ele><time>2026-03-24T07:36:01Z</time></trkpt>
<trkpt lat="43.0202850000" lon="0.3592020000"><ele>862</ele><time>2026-03-24T07:36:04Z</time></trkpt>
<trkpt lat="43.0203000000" lon="0.3591820000"><ele>863</ele><time>2026-03-24T07:36:08Z</time></trkpt>
<trkpt lat="43.0203170000" lon="0.3591770000"><ele>863</ele><time>2026-03-24T07:36:13Z</time></trkpt>
<trkpt lat="43.0203370000" lon="0.3591800000"><ele>864</ele><time>2026-03-24T07:36:15Z</time></trkpt>
<trkpt lat="43.0203570000" lon="0.3591900000"><ele>865</ele><time>2026-03-24T07:36:31Z</time></trkpt>
<trkpt lat="43.0203720000" lon="0.3592080000"><ele>865</ele><time>2026-03-24T07:36:33Z</time></trkpt>
<trkpt lat="43.0203900000" lon="0.3592320000"><ele>865</ele><time>2026-03-24T07:36:35Z</time></trkpt>
<trkpt lat="43.0204020000" lon="0.3592520000"><ele>865</ele><time>2026-03-24T07:36:37Z</time></trkpt>
<trkpt lat="43.0204100000" lon="0.3592770000"><ele>866</ele><time>2026-03-24T07:36:39Z</time></trkpt>
<trkpt lat="43.0204220000" lon="0.3593050000"><ele>866</ele><time>2026-03-24T07:36:42Z</time></trkpt>
<trkpt lat="43.0204320000" lon="0.3593270000"><ele>866</ele><time>2026-03-24T07:36:45Z</time></trkpt>
<trkpt lat="43.0204450000" lon="0.3593570000"><ele>867</ele><time>2026-03-24T07:36:48Z</time></trkpt>
<trkpt lat="43.0204470000" lon="0.3593900000"><ele>868</ele><time>2026-03-24T07:37:09Z</time></trkpt>
<trkpt lat="43.0204470000" lon="0.3594270000"><ele>868</ele><time>2026-03-24T07:37:11Z</time></trkpt>
<trkpt lat="43.0204520000" lon="0.3594670000"><ele>868</ele><time>2026-03-24T07:37:13Z</time></trkpt>
<trkpt lat="43.0204620000" lon="0.3595050000"><ele>868</ele><time>2026-03-24T07:37:15Z</time></trkpt>
<trkpt lat="43.0204700000" lon="0.3595320000"><ele>868</ele><time>2026-03-24T07:37:17Z</time></trkpt>
<trkpt lat="43.0204770000" lon="0.3595550000"><ele>868</ele><time>2026-03-24T07:37:19Z</time></trkpt>
<trkpt lat="43.0204820000" lon="0.3595800000"><ele>869</ele><time>2026-03-24T07:37:21Z</time></trkpt>
<trkpt lat="43.0204770000" lon="0.3596070000"><ele>869</ele><time>2026-03-24T07:37:24Z</time></trkpt>
<trkpt lat="43.0204720000" lon="0.3596430000"><ele>870</ele><time>2026-03-24T07:43:11Z</time></trkpt>
<trkpt lat="43.0204670000" lon="0.3596830000"><ele>870</ele><time>2026-03-24T07:43:13Z</time></trkpt>
<trkpt lat="43.0204620000" lon="0.3597120000"><ele>870</ele><time>2026-03-24T07:43:23Z</time></trkpt>
<trkpt lat="43.0204620000" lon="0.3597500000"><ele>870</ele><time>2026-03-24T07:43:26Z</time></trkpt>
<trkpt lat="43.0204570000" lon="0.3597880000"><ele>870</ele><time>2026-03-24T07:43:28Z</time></trkpt>
<trkpt lat="43.0204520000" lon="0.3598270000"><ele>870</ele><time>2026-03-24T07:43:30Z</time></trkpt>
<trkpt lat="43.0204500000" lon="0.3598570000"><ele>869</ele><time>2026-03-24T07:43:32Z</time></trkpt>
<trkpt lat="43.0204470000" lon="0.3598920000"><ele>869</ele><time>2026-03-24T07:43:34Z</time></trkpt>
<trkpt lat="43.0204420000" lon="0.3599220000"><ele>869</ele><time>2026-03-24T07:43:36Z</time></trkpt>
<trkpt lat="43.0204450000" lon="0.3599520000"><ele>869</ele><time>2026-03-24T07:43:38Z</time></trkpt>
<trkpt lat="43.0204520000" lon="0.3599820000"><ele>869</ele><time>2026-03-24T07:43:40Z</time></trkpt>
<trkpt lat="43.0204600000" lon="0.3600130000"><ele>869</ele><time>2026-03-24T07:43:42Z</time></trkpt>
<trkpt lat="43.0204670000" lon="0.3600450000"><ele>869</ele><time>2026-03-24T07:43:44Z</time></trkpt>
<trkpt lat="43.0204720000" lon="0.3600770000"><ele>869</ele><time>2026-03-24T07:43:46Z</time></trkpt>
<trkpt lat="43.0204820000" lon="0.3601120000"><ele>869</ele><time>2026-03-24T07:43:48Z</time></trkpt>
<trkpt lat="43.0204950000" lon="0.3601370000"><ele>869</ele><time>2026-03-24T07:43:50Z</time></trkpt>
<trkpt lat="43.0205070000" lon="0.3601570000"><ele>870</ele><time>2026-03-24T07:43:52Z</time></trkpt>
<trkpt lat="43.0205120000" lon="0.3601870000"><ele>870</ele><time>2026-03-24T07:43:54Z</time></trkpt>
<trkpt lat="43.0205170000" lon="0.3602170000"><ele>870</ele><time>2026-03-24T07:43:56Z</time></trkpt>
<trkpt lat="43.0205220000" lon="0.3602430000"><ele>870</ele><time>2026-03-24T07:43:58Z</time></trkpt>
<trkpt lat="43.0205200000" lon="0.3602720000"><ele>871</ele><time>2026-03-24T07:44:00Z</time></trkpt>
<trkpt lat="43.0205250000" lon="0.3603020000"><ele>871</ele><time>2026-03-24T07:44:02Z</time></trkpt>
<trkpt lat="43.0205250000" lon="0.3603280000"><ele>871</ele><time>2026-03-24T07:44:04Z</time></trkpt>
<trkpt lat="43.0205220000" lon="0.3603600000"><ele>871</ele><time>2026-03-24T07:44:06Z</time></trkpt>
<trkpt lat="43.0205220000" lon="0.3603870000"><ele>871</ele><time>2026-03-24T07:44:08Z</time></trkpt>
<trkpt lat="43.0205320000" lon="0.3604170000"><ele>871</ele><time>2026-03-24T07:44:10Z</time></trkpt>
<trkpt lat="43.0205400000" lon="0.3604470000"><ele>871</ele><time>2026-03-24T07:44:12Z</time></trkpt>
<trkpt lat="43.0205350000" lon="0.3604770000"><ele>871</ele><time>2026-03-24T07:44:19Z</time></trkpt>
<trkpt lat="43.0205350000" lon="0.3605020000"><ele>871</ele><time>2026-03-24T07:44:21Z</time></trkpt>
<trkpt lat="43.0205370000" lon="0.3605420000"><ele>871</ele><time>2026-03-24T07:44:24Z</time></trkpt>
<trkpt lat="43.0205370000" lon="0.3605730000"><ele>871</ele><time>2026-03-24T07:44:26Z</time></trkpt>
<trkpt lat="43.0205450000" lon="0.3605980000"><ele>871</ele><time>2026-03-24T07:44:28Z</time></trkpt>
<trkpt lat="43.0205570000" lon="0.3606320000"><ele>871</ele><time>2026-03-24T07:44:31Z</time></trkpt>
<trkpt lat="43.0205550000" lon="0.3606620000"><ele>871</ele><time>2026-03-24T07:44:33Z</time></trkpt>
<trkpt lat="43.0205520000" lon="0.3606920000"><ele>871</ele><time>2026-03-24T07:44:35Z</time></trkpt>
<trkpt lat="43.0205500000" lon="0.3607250000"><ele>871</ele><time>2026-03-24T07:44:37Z</time></trkpt>
<trkpt lat="43.0205550000" lon="0.3607530000"><ele>871</ele><time>2026-03-24T07:44:39Z</time></trkpt>
<trkpt lat="43.0205600000" lon="0.3607870000"><ele>871</ele><time>2026-03-24T07:44:41Z</time></trkpt>
<trkpt lat="43.0205650000" lon="0.3608170000"><ele>871</ele><time>2026-03-24T07:44:43Z</time></trkpt>
<trkpt lat="43.0205670000" lon="0.3608470000"><ele>871</ele><time>2026-03-24T07:44:45Z</time></trkpt>
<trkpt lat="43.0205720000" lon="0.3608820000"><ele>871</ele><time>2026-03-24T07:44:47Z</time></trkpt>
<trkpt lat="43.0205770000" lon="0.3609120000"><ele>870</ele><time>2026-03-24T07:44:49Z</time></trkpt>
<trkpt lat="43.0205800000" lon="0.3609370000"><ele>870</ele><time>2026-03-24T07:44:51Z</time></trkpt>
<trkpt lat="43.0205820000" lon="0.3609650000"><ele>870</ele><time>2026-03-24T07:44:53Z</time></trkpt>
<trkpt lat="43.0205900000" lon="0.3609920000"><ele>871</ele><time>2026-03-24T07:44:55Z</time></trkpt>
<trkpt lat="43.0206000000" lon="0.3610170000"><ele>871</ele><time>2026-03-24T07:44:57Z</time></trkpt>
<trkpt lat="43.0206120000" lon="0.3610450000"><ele>871</ele><time>2026-03-24T07:44:59Z</time></trkpt>
<trkpt lat="43.0206220000" lon="0.3610820000"><ele>871</ele><time>2026-03-24T07:45:01Z</time></trkpt>
<trkpt lat="43.0206270000" lon="0.3611150000"><ele>871</ele><time>2026-03-24T07:45:03Z</time></trkpt>
<trkpt lat="43.0206270000" lon="0.3611450000"><ele>872</ele><time>2026-03-24T07:45:05Z</time></trkpt>
<trkpt lat="43.0206300000" lon="0.3611720000"><ele>872</ele><time>2026-03-24T07:45:07Z</time></trkpt>
<trkpt lat="43.0206370000" lon="0.3612050000"><ele>872</ele><time>2026-03-24T07:45:09Z</time></trkpt>
<trkpt lat="43.0206500000" lon="0.3612300000"><ele>872</ele><time>2026-03-24T07:45:11Z</time></trkpt>
<trkpt lat="43.0206670000" lon="0.3612450000"><ele>872</ele><time>2026-03-24T07:45:13Z</time></trkpt>
<trkpt lat="43.0206820000" lon="0.3612720000"><ele>872</ele><time>2026-03-24T07:45:16Z</time></trkpt>
<trkpt lat="43.0206850000" lon="0.3612970000"><ele>872</ele><time>2026-03-24T07:45:18Z</time></trkpt>
<trkpt lat="43.0206900000" lon="0.3613220000"><ele>873</ele><time>2026-03-24T07:45:20Z</time></trkpt>
<trkpt lat="43.0206920000" lon="0.3613470000"><ele>873</ele><time>2026-03-24T07:45:22Z</time></trkpt>
<trkpt lat="43.0206970000" lon="0.3613820000"><ele>873</ele><time>2026-03-24T07:45:25Z</time></trkpt>
<trkpt lat="43.0207020000" lon="0.3614100000"><ele>873</ele><time>2026-03-24T07:45:27Z</time></trkpt>
<trkpt lat="43.0207070000" lon="0.3614350000"><ele>873</ele><time>2026-03-24T07:45:29Z</time></trkpt>
<trkpt lat="43.0207120000" lon="0.3614600000"><ele>874</ele><time>2026-03-24T07:45:31Z</time></trkpt>
<trkpt lat="43.0207150000" lon="0.3614870000"><ele>874</ele><time>2026-03-24T07:45:33Z</time></trkpt>
<trkpt lat="43.0207120000" lon="0.3615220000"><ele>874</ele><time>2026-03-24T07:45:36Z</time></trkpt>
<trkpt lat="43.0207150000" lon="0.3615470000"><ele>874</ele><time>2026-03-24T07:45:38Z</time></trkpt>
<trkpt lat="43.0207250000" lon="0.3615820000"><ele>874</ele><time>2026-03-24T07:45:41Z</time></trkpt>
<trkpt lat="43.0207320000" lon="0.3616070000"><ele>874</ele><time>2026-03-24T07:45:44Z</time></trkpt>
<trkpt lat="43.0207420000" lon="0.3616320000"><ele>874</ele><time>2026-03-24T07:45:54Z</time></trkpt>
<trkpt lat="43.0207420000" lon="0.3616670000"><ele>874</ele><time>2026-03-24T07:45:56Z</time></trkpt>
<trkpt lat="43.0207450000" lon="0.3617070000"><ele>873</ele><time>2026-03-24T07:45:58Z</time></trkpt>
<trkpt lat="43.0207520000" lon="0.3617420000"><ele>873</ele><time>2026-03-24T07:46:00Z</time></trkpt>
<trkpt lat="43.0207570000" lon="0.3617670000"><ele>873</ele><time>2026-03-24T07:46:02Z</time></trkpt>
<trkpt lat="43.0207700000" lon="0.3617950000"><ele>874</ele><time>2026-03-24T07:46:05Z</time></trkpt>
<trkpt lat="43.0207800000" lon="0.3618170000"><ele>874</ele><time>2026-03-24T07:46:07Z</time></trkpt>
<trkpt lat="43.0207900000" lon="0.3618420000"><ele>874</ele><time>2026-03-24T07:46:09Z</time></trkpt>
<trkpt lat="43.0207920000" lon="0.3618670000"><ele>874</ele><time>2026-03-24T07:46:11Z</time></trkpt>
<trkpt lat="43.0207950000" lon="0.3618970000"><ele>875</ele><time>2026-03-24T07:46:15Z</time></trkpt>
<trkpt lat="43.0208020000" lon="0.3619350000"><ele>875</ele><time>2026-03-24T07:46:18Z</time></trkpt>
<trkpt lat="43.0208080000" lon="0.3619570000"><ele>875</ele><time>2026-03-24T07:46:20Z</time></trkpt>
<trkpt lat="43.0208220000" lon="0.3619850000"><ele>875</ele><time>2026-03-24T07:46:22Z</time></trkpt>
<trkpt lat="43.0208370000" lon="0.3620130000"><ele>875</ele><time>2026-03-24T07:46:24Z</time></trkpt>
<trkpt lat="43.0208450000" lon="0.3620370000"><ele>875</ele><time>2026-03-24T07:46:26Z</time></trkpt>
<trkpt lat="43.0208470000" lon="0.3620620000"><ele>875</ele><time>2026-03-24T07:46:28Z</time></trkpt>
<trkpt lat="43.0208470000" lon="0.3620920000"><ele>876</ele><time>2026-03-24T07:46:30Z</time></trkpt>
<trkpt lat="43.0208450000" lon="0.3621170000"><ele>875</ele><time>2026-03-24T07:46:32Z</time></trkpt>
<trkpt lat="43.0208420000" lon="0.3621470000"><ele>875</ele><time>2026-03-24T07:46:34Z</time></trkpt>
<trkpt lat="43.0208420000" lon="0.3621770000"><ele>875</ele><time>2026-03-24T07:46:36Z</time></trkpt>
<trkpt lat="43.0208420000" lon="0.3622020000"><ele>875</ele><time>2026-03-24T07:46:38Z</time></trkpt>
<trkpt lat="43.0208450000" lon="0.3622300000"><ele>875</ele><time>2026-03-24T07:46:40Z</time></trkpt>
<trkpt lat="43.0208600000" lon="0.3622550000"><ele>875</ele><time>2026-03-24T07:46:42Z</time></trkpt>
<trkpt lat="43.0208720000" lon="0.3622750000"><ele>875</ele><time>2026-03-24T07:46:44Z</time></trkpt>
<trkpt lat="43.0208820000" lon="0.3623020000"><ele>875</ele><time>2026-03-24T07:46:46Z</time></trkpt>
<trkpt lat="43.0208850000" lon="0.3623370000"><ele>875</ele><time>2026-03-24T07:46:49Z</time></trkpt>
<trkpt lat="43.0208950000" lon="0.3623570000"><ele>875</ele><time>2026-03-24T07:46:51Z</time></trkpt>
<trkpt lat="43.0209070000" lon="0.3623870000"><ele>876</ele><time>2026-03-24T07:46:54Z</time></trkpt>
<trkpt lat="43.0209200000" lon="0.3624120000"><ele>876</ele><time>2026-03-24T07:46:58Z</time></trkpt>
<trkpt lat="43.0209170000" lon="0.3624370000"><ele>876</ele><time>2026-03-24T07:47:00Z</time></trkpt>
<trkpt lat="43.0209170000" lon="0.3624720000"><ele>876</ele><time>2026-03-24T07:47:03Z</time></trkpt>
<trkpt lat="43.0209300000" lon="0.3625020000"><ele>876</ele><time>2026-03-24T07:47:06Z</time></trkpt>
<trkpt lat="43.0209270000" lon="0.3625270000"><ele>876</ele><time>2026-03-24T07:47:08Z</time></trkpt>
<trkpt lat="43.0209270000" lon="0.3625580000"><ele>876</ele><time>2026-03-24T07:47:11Z</time></trkpt>
<trkpt lat="43.0209420000" lon="0.3625770000"><ele>876</ele><time>2026-03-24T07:47:13Z</time></trkpt>
<trkpt lat="43.0209520000" lon="0.3625980000"><ele>876</ele><time>2026-03-24T07:47:17Z</time></trkpt>
<trkpt lat="43.0209630000" lon="0.3626200000"><ele>876</ele><time>2026-03-24T07:47:21Z</time></trkpt>
<trkpt lat="43.0209800000" lon="0.3626370000"><ele>879</ele><time>2026-03-24T07:47:35Z</time></trkpt>
<trkpt lat="43.0209950000" lon="0.3626170000"><ele>881</ele><time>2026-03-24T07:47:45Z</time></trkpt>
<trkpt lat="43.0210200000" lon="0.3626120000"><ele>881</ele><time>2026-03-24T07:47:48Z</time></trkpt>
<trkpt lat="43.0210420000" lon="0.3626200000"><ele>882</ele><time>2026-03-24T07:47:51Z</time></trkpt>
<trkpt lat="43.0210570000" lon="0.3626320000"><ele>882</ele><time>2026-03-24T07:47:54Z</time></trkpt>
<trkpt lat="43.0210770000" lon="0.3626470000"><ele>883</ele><time>2026-03-24T07:48:01Z</time></trkpt>
<trkpt lat="43.0210920000" lon="0.3626670000"><ele>883</ele><time>2026-03-24T07:48:03Z</time></trkpt>
<trkpt lat="43.0211070000" lon="0.3626830000"><ele>883</ele><time>2026-03-24T07:48:05Z</time></trkpt>
<trkpt lat="43.0211170000" lon="0.3627070000"><ele>884</ele><time>2026-03-24T07:48:07Z</time></trkpt>
<trkpt lat="43.0211220000" lon="0.3627320000"><ele>884</ele><time>2026-03-24T07:48:09Z</time></trkpt>
<trkpt lat="43.0211270000" lon="0.3627570000"><ele>884</ele><time>2026-03-24T07:48:14Z</time></trkpt>
<trkpt lat="43.0211300000" lon="0.3627850000"><ele>884</ele><time>2026-03-24T07:48:17Z</time></trkpt>
<trkpt lat="43.0211270000" lon="0.3628100000"><ele>884</ele><time>2026-03-24T07:48:20Z</time></trkpt>
<trkpt lat="43.0211400000" lon="0.3628320000"><ele>884</ele><time>2026-03-24T07:48:22Z</time></trkpt>
<trkpt lat="43.0211520000" lon="0.3628550000"><ele>885</ele><time>2026-03-24T07:48:24Z</time></trkpt>
<trkpt lat="43.0211600000" lon="0.3628850000"><ele>885</ele><time>2026-03-24T07:48:27Z</time></trkpt>
<trkpt lat="43.0211650000" lon="0.3629100000"><ele>885</ele><time>2026-03-24T07:48:29Z</time></trkpt>
<trkpt lat="43.0211720000" lon="0.3629420000"><ele>885</ele><time>2026-03-24T07:48:32Z</time></trkpt>
<trkpt lat="43.0211820000" lon="0.3629630000"><ele>885</ele><time>2026-03-24T07:48:35Z</time></trkpt>
<trkpt lat="43.0211870000" lon="0.3629950000"><ele>885</ele><time>2026-03-24T07:48:39Z</time></trkpt>
<trkpt lat="43.0211880000" lon="0.3630200000"><ele>885</ele><time>2026-03-24T07:48:42Z</time></trkpt>
<trkpt lat="43.0211720000" lon="0.3630230000"><ele>886</ele><time>2026-03-24T07:48:50Z</time></trkpt>
<trkpt lat="43.0211650000" lon="0.3629950000"><ele>886</ele><time>2026-03-24T07:49:30Z</time></trkpt>
<trkpt lat="43.0211620000" lon="0.3629620000"><ele>886</ele><time>2026-03-24T07:49:32Z</time></trkpt>
<trkpt lat="43.0211670000" lon="0.3629370000"><ele>887</ele><time>2026-03-24T07:49:34Z</time></trkpt>
<trkpt lat="43.0211720000" lon="0.3629070000"><ele>887</ele><time>2026-03-24T07:49:38Z</time></trkpt>
<trkpt lat="43.0211880000" lon="0.3628970000"><ele>888</ele><time>2026-03-24T07:49:43Z</time></trkpt>
<trkpt lat="43.0212070000" lon="0.3629150000"><ele>889</ele><time>2026-03-24T07:49:46Z</time></trkpt>
<trkpt lat="43.0212220000" lon="0.3629280000"><ele>890</ele><time>2026-03-24T07:49:53Z</time></trkpt>
<trkpt lat="43.0212320000" lon="0.3629570000"><ele>891</ele><time>2026-03-24T07:49:55Z</time></trkpt>
<trkpt lat="43.0212520000" lon="0.3629920000"><ele>891</ele><time>2026-03-24T07:49:57Z</time></trkpt>
<trkpt lat="43.0212720000" lon="0.3630200000"><ele>891</ele><time>2026-03-24T07:49:59Z</time></trkpt>
<trkpt lat="43.0212900000" lon="0.3630350000"><ele>891</ele><time>2026-03-24T07:50:02Z</time></trkpt>
<trkpt lat="43.0213070000" lon="0.3630520000"><ele>891</ele><time>2026-03-24T07:50:04Z</time></trkpt>
<trkpt lat="43.0213200000" lon="0.3630720000"><ele>892</ele><time>2026-03-24T07:50:07Z</time></trkpt>
<trkpt lat="43.0213420000" lon="0.3630770000"><ele>892</ele><time>2026-03-24T07:50:10Z</time></trkpt>
<trkpt lat="43.0213570000" lon="0.3631020000"><ele>892</ele><time>2026-03-24T07:50:14Z</time></trkpt>
<trkpt lat="43.0213670000" lon="0.3631320000"><ele>893</ele><time>2026-03-24T07:50:17Z</time></trkpt>
<trkpt lat="43.0213670000" lon="0.3631620000"><ele>893</ele><time>2026-03-24T07:50:20Z</time></trkpt>
<trkpt lat="43.0213670000" lon="0.3631900000"><ele>893</ele><time>2026-03-24T07:50:22Z</time></trkpt>
<trkpt lat="43.0213750000" lon="0.3632270000"><ele>893</ele><time>2026-03-24T07:50:24Z</time></trkpt>
<trkpt lat="43.0213900000" lon="0.3632570000"><ele>893</ele><time>2026-03-24T07:50:26Z</time></trkpt>
<trkpt lat="43.0213970000" lon="0.3632820000"><ele>893</ele><time>2026-03-24T07:50:28Z</time></trkpt>
<trkpt lat="43.0214170000" lon="0.3632920000"><ele>893</ele><time>2026-03-24T07:50:32Z</time></trkpt>
<trkpt lat="43.0214400000" lon="0.3632970000"><ele>893</ele><time>2026-03-24T07:50:38Z</time></trkpt>
<trkpt lat="43.0214520000" lon="0.3633300000"><ele>894</ele><time>2026-03-24T07:50:41Z</time></trkpt>
<trkpt lat="43.0214600000" lon="0.3633570000"><ele>894</ele><time>2026-03-24T07:50:44Z</time></trkpt>
<trkpt lat="43.0214720000" lon="0.3633850000"><ele>894</ele><time>2026-03-24T07:50:48Z</time></trkpt>
<trkpt lat="43.0214870000" lon="0.3634070000"><ele>894</ele><time>2026-03-24T07:50:51Z</time></trkpt>
<trkpt lat="43.0215050000" lon="0.3634320000"><ele>895</ele><time>2026-03-24T07:50:55Z</time></trkpt>
<trkpt lat="43.0215200000" lon="0.3634500000"><ele>895</ele><time>2026-03-24T07:50:57Z</time></trkpt>
<trkpt lat="43.0215370000" lon="0.3634700000"><ele>895</ele><time>2026-03-24T07:51:00Z</time></trkpt>
<trkpt lat="43.0215470000" lon="0.3634880000"><ele>895</ele><time>2026-03-24T07:51:02Z</time></trkpt>
<trkpt lat="43.0215680000" lon="0.3635070000"><ele>896</ele><time>2026-03-24T07:51:05Z</time></trkpt>
<trkpt lat="43.0215620000" lon="0.3635320000"><ele>896</ele><time>2026-03-24T07:51:23Z</time></trkpt>
<trkpt lat="43.0215770000" lon="0.3635670000"><ele>896</ele><time>2026-03-24T07:51:25Z</time></trkpt>
<trkpt lat="43.0215870000" lon="0.3635920000"><ele>896</ele><time>2026-03-24T07:51:27Z</time></trkpt>
<trkpt lat="43.0216070000" lon="0.3636220000"><ele>896</ele><time>2026-03-24T07:51:30Z</time></trkpt>
<trkpt lat="43.0216120000" lon="0.3636470000"><ele>896</ele><time>2026-03-24T07:51:32Z</time></trkpt>
<trkpt lat="43.0216270000" lon="0.3636720000"><ele>896</ele><time>2026-03-24T07:51:35Z</time></trkpt>
<trkpt lat="43.0216450000" lon="0.3636870000"><ele>896</ele><time>2026-03-24T07:51:39Z</time></trkpt>
<trkpt lat="43.0216620000" lon="0.3636920000"><ele>896</ele><time>2026-03-24T07:51:43Z</time></trkpt>
<trkpt lat="43.0216520000" lon="0.3636670000"><ele>898</ele><time>2026-03-24T07:51:53Z</time></trkpt>
<trkpt lat="43.0216470000" lon="0.3636370000"><ele>899</ele><time>2026-03-24T07:52:03Z</time></trkpt>
<trkpt lat="43.0216380000" lon="0.3635950000"><ele>900</ele><time>2026-03-24T07:52:05Z</time></trkpt>
<trkpt lat="43.0216300000" lon="0.3635520000"><ele>900</ele><time>2026-03-24T07:52:07Z</time></trkpt>
<trkpt lat="43.0216150000" lon="0.3635130000"><ele>900</ele><time>2026-03-24T07:52:09Z</time></trkpt>
<trkpt lat="43.0216070000" lon="0.3634820000"><ele>900</ele><time>2026-03-24T07:52:11Z</time></trkpt>
<trkpt lat="43.0215950000" lon="0.3634570000"><ele>900</ele><time>2026-03-24T07:52:14Z</time></trkpt>
<trkpt lat="43.0216020000" lon="0.3634280000"><ele>900</ele><time>2026-03-24T07:52:17Z</time></trkpt>
<trkpt lat="43.0215970000" lon="0.3633950000"><ele>901</ele><time>2026-03-24T07:52:20Z</time></trkpt>
<trkpt lat="43.0215970000" lon="0.3633700000"><ele>901</ele><time>2026-03-24T07:52:22Z</time></trkpt>
<trkpt lat="43.0215950000" lon="0.3633430000"><ele>901</ele><time>2026-03-24T07:52:24Z</time></trkpt>
<trkpt lat="43.0216000000" lon="0.3633200000"><ele>901</ele><time>2026-03-24T07:52:28Z</time></trkpt>
<trkpt lat="43.0216170000" lon="0.3633170000"><ele>903</ele><time>2026-03-24T07:52:37Z</time></trkpt>
<trkpt lat="43.0216120000" lon="0.3632930000"><ele>903</ele><time>2026-03-24T07:52:40Z</time></trkpt>
<trkpt lat="43.0216000000" lon="0.3632620000"><ele>903</ele><time>2026-03-24T07:52:42Z</time></trkpt>
<trkpt lat="43.0215900000" lon="0.3632330000"><ele>904</ele><time>2026-03-24T07:52:44Z</time></trkpt>
<trkpt lat="43.0215820000" lon="0.3632050000"><ele>904</ele><time>2026-03-24T07:52:47Z</time></trkpt>
<trkpt lat="43.0215770000" lon="0.3631800000"><ele>904</ele><time>2026-03-24T07:52:50Z</time></trkpt>
<trkpt lat="43.0215820000" lon="0.3631520000"><ele>905</ele><time>2026-03-24T07:52:55Z</time></trkpt>
<trkpt lat="43.0215820000" lon="0.3631270000"><ele>906</ele><time>2026-03-24T07:52:59Z</time></trkpt>
<trkpt lat="43.0215970000" lon="0.3631400000"><ele>907</ele><time>2026-03-24T07:53:06Z</time></trkpt>
<trkpt lat="43.0216270000" lon="0.3631580000"><ele>909</ele><time>2026-03-24T07:53:23Z</time></trkpt>
<trkpt lat="43.0216470000" lon="0.3631770000"><ele>910</ele><time>2026-03-24T07:53:24Z</time></trkpt>
<trkpt lat="43.0216700000" lon="0.3631920000"><ele>910</ele><time>2026-03-24T07:53:25Z</time></trkpt>
<trkpt lat="43.0216870000" lon="0.3632070000"><ele>910</ele><time>2026-03-24T07:53:26Z</time></trkpt>
<trkpt lat="43.0217150000" lon="0.3632250000"><ele>910</ele><time>2026-03-24T07:53:28Z</time></trkpt>
<trkpt lat="43.0217350000" lon="0.3632420000"><ele>910</ele><time>2026-03-24T07:53:31Z</time></trkpt>
<trkpt lat="43.0217550000" lon="0.3632500000"><ele>911</ele><time>2026-03-24T07:53:36Z</time></trkpt>
<trkpt lat="43.0217750000" lon="0.3632470000"><ele>912</ele><time>2026-03-24T07:53:41Z</time></trkpt>
<trkpt lat="43.0217920000" lon="0.3632600000"><ele>912</ele><time>2026-03-24T07:53:46Z</time></trkpt>
<trkpt lat="43.0218070000" lon="0.3632770000"><ele>913</ele><time>2026-03-24T07:53:51Z</time></trkpt>
<trkpt lat="43.0218270000" lon="0.3632820000"><ele>913</ele><time>2026-03-24T07:53:58Z</time></trkpt>
<trkpt lat="43.0218470000" lon="0.3632970000"><ele>914</ele><time>2026-03-24T07:54:22Z</time></trkpt>
<trkpt lat="43.0218670000" lon="0.3633220000"><ele>914</ele><time>2026-03-24T07:54:24Z</time></trkpt>
<trkpt lat="43.0218820000" lon="0.3633500000"><ele>914</ele><time>2026-03-24T07:54:26Z</time></trkpt>
<trkpt lat="43.0218950000" lon="0.3633770000"><ele>915</ele><time>2026-03-24T07:54:29Z</time></trkpt>
<trkpt lat="43.0219070000" lon="0.3634020000"><ele>915</ele><time>2026-03-24T07:54:32Z</time></trkpt>
<trkpt lat="43.0219250000" lon="0.3634200000"><ele>915</ele><time>2026-03-24T07:54:35Z</time></trkpt>
<trkpt lat="43.0219420000" lon="0.3634420000"><ele>915</ele><time>2026-03-24T07:54:38Z</time></trkpt>
<trkpt lat="43.0219600000" lon="0.3634500000"><ele>915</ele><time>2026-03-24T07:54:40Z</time></trkpt>
<trkpt lat="43.0219750000" lon="0.3634650000"><ele>916</ele><time>2026-03-24T07:54:43Z</time></trkpt>
<trkpt lat="43.0219950000" lon="0.3634820000"><ele>916</ele><time>2026-03-24T07:54:46Z</time></trkpt>
<trkpt lat="43.0220120000" lon="0.3635020000"><ele>916</ele><time>2026-03-24T07:54:49Z</time></trkpt>
<trkpt lat="43.0220220000" lon="0.3635230000"><ele>917</ele><time>2026-03-24T07:54:51Z</time></trkpt>
<trkpt lat="43.0220370000" lon="0.3635420000"><ele>917</ele><time>2026-03-24T07:54:55Z</time></trkpt>
<trkpt lat="43.0220670000" lon="0.3635620000"><ele>917</ele><time>2026-03-24T07:54:58Z</time></trkpt>
<trkpt lat="43.0220850000" lon="0.3635520000"><ele>917</ele><time>2026-03-24T07:55:00Z</time></trkpt>
<trkpt lat="43.0221020000" lon="0.3635470000"><ele>917</ele><time>2026-03-24T07:55:02Z</time></trkpt>
<trkpt lat="43.0220820000" lon="0.3635470000"><ele>918</ele><time>2026-03-24T07:55:18Z</time></trkpt>
<trkpt lat="43.0220620000" lon="0.3635470000"><ele>918</ele><time>2026-03-24T07:55:20Z</time></trkpt>
<trkpt lat="43.0220650000" lon="0.3635170000"><ele>917</ele><time>2026-03-24T07:57:28Z</time></trkpt>
<trkpt lat="43.0220670000" lon="0.3634850000"><ele>917</ele><time>2026-03-24T07:57:30Z</time></trkpt>
<trkpt lat="43.0220670000" lon="0.3634470000"><ele>917</ele><time>2026-03-24T07:57:32Z</time></trkpt>
<trkpt lat="43.0220670000" lon="0.3634100000"><ele>917</ele><time>2026-03-24T07:57:34Z</time></trkpt>
<trkpt lat="43.0220620000" lon="0.3633770000"><ele>917</ele><time>2026-03-24T07:57:37Z</time></trkpt>
<trkpt lat="43.0220570000" lon="0.3633420000"><ele>917</ele><time>2026-03-24T07:57:40Z</time></trkpt>
<trkpt lat="43.0220400000" lon="0.3633250000"><ele>918</ele><time>2026-03-24T07:57:44Z</time></trkpt>
<trkpt lat="43.0220320000" lon="0.3632920000"><ele>918</ele><time>2026-03-24T07:57:47Z</time></trkpt>
<trkpt lat="43.0220370000" lon="0.3632620000"><ele>919</ele><time>2026-03-24T07:57:49Z</time></trkpt>
<trkpt lat="43.0220500000" lon="0.3632320000"><ele>919</ele><time>2026-03-24T07:57:51Z</time></trkpt>
<trkpt lat="43.0220600000" lon="0.3632080000"><ele>920</ele><time>2026-03-24T07:57:54Z</time></trkpt>
<trkpt lat="43.0220600000" lon="0.3631850000"><ele>920</ele><time>2026-03-24T07:57:56Z</time></trkpt>
<trkpt lat="43.0220520000" lon="0.3631580000"><ele>920</ele><time>2026-03-24T07:57:58Z</time></trkpt>
<trkpt lat="43.0220470000" lon="0.3631350000"><ele>920</ele><time>2026-03-24T07:58:00Z</time></trkpt>
<trkpt lat="43.0220420000" lon="0.3630980000"><ele>921</ele><time>2026-03-24T07:58:03Z</time></trkpt>
<trkpt lat="43.0220270000" lon="0.3630670000"><ele>921</ele><time>2026-03-24T07:58:06Z</time></trkpt>
<trkpt lat="43.0220150000" lon="0.3630420000"><ele>921</ele><time>2026-03-24T07:58:10Z</time></trkpt>
<trkpt lat="43.0220000000" lon="0.3630270000"><ele>922</ele><time>2026-03-24T07:58:16Z</time></trkpt>
<trkpt lat="43.0219870000" lon="0.3629970000"><ele>923</ele><time>2026-03-24T07:58:20Z</time></trkpt>
<trkpt lat="43.0219770000" lon="0.3629670000"><ele>925</ele><time>2026-03-24T07:58:39Z</time></trkpt>
<trkpt lat="43.0219670000" lon="0.3629370000"><ele>925</ele><time>2026-03-24T07:58:41Z</time></trkpt>
<trkpt lat="43.0219550000" lon="0.3629020000"><ele>925</ele><time>2026-03-24T07:58:43Z</time></trkpt>
<trkpt lat="43.0219470000" lon="0.3628750000"><ele>925</ele><time>2026-03-24T07:58:45Z</time></trkpt>
<trkpt lat="43.0219370000" lon="0.3629020000"><ele>925</ele><time>2026-03-24T07:58:49Z</time></trkpt>
<trkpt lat="43.0219270000" lon="0.3628820000"><ele>926</ele><time>2026-03-24T07:58:53Z</time></trkpt>
<trkpt lat="43.0219170000" lon="0.3628570000"><ele>927</ele><time>2026-03-24T07:59:04Z</time></trkpt>
<trkpt lat="43.0219070000" lon="0.3628280000"><ele>928</ele><time>2026-03-24T07:59:07Z</time></trkpt>
<trkpt lat="43.0219050000" lon="0.3627930000"><ele>931</ele><time>2026-03-24T07:59:53Z</time></trkpt>
<trkpt lat="43.0219070000" lon="0.3627700000"><ele>931</ele><time>2026-03-24T07:59:55Z</time></trkpt>
<trkpt lat="43.0218900000" lon="0.3627470000"><ele>930</ele><time>2026-03-24T08:01:11Z</time></trkpt>
<trkpt lat="43.0218720000" lon="0.3627270000"><ele>930</ele><time>2026-03-24T08:01:12Z</time></trkpt>
<trkpt lat="43.0218570000" lon="0.3627070000"><ele>930</ele><time>2026-03-24T08:01:13Z</time></trkpt>
<trkpt lat="43.0218320000" lon="0.3626870000"><ele>930</ele><time>2026-03-24T08:01:15Z</time></trkpt>
<trkpt lat="43.0218470000" lon="0.3626970000"><ele>929</ele><time>2026-03-24T08:01:32Z</time></trkpt>
<trkpt lat="43.0218720000" lon="0.3627270000"><ele>930</ele><time>2026-03-24T08:01:34Z</time></trkpt>
<trkpt lat="43.0218950000" lon="0.3627530000"><ele>930</ele><time>2026-03-24T08:01:36Z</time></trkpt>
<trkpt lat="43.0219120000" lon="0.3627750000"><ele>930</ele><time>2026-03-24T08:01:38Z</time></trkpt>
<trkpt lat="43.0218900000" lon="0.3627520000"><ele>931</ele><time>2026-03-24T08:02:13Z</time></trkpt>
<trkpt lat="43.0218620000" lon="0.3627220000"><ele>930</ele><time>2026-03-24T08:02:15Z</time></trkpt>
<trkpt lat="43.0218470000" lon="0.3626930000"><ele>930</ele><time>2026-03-24T08:02:17Z</time></trkpt>
<trkpt lat="43.0218350000" lon="0.3626750000"><ele>930</ele><time>2026-03-24T08:02:19Z</time></trkpt>
<trkpt lat="43.0218200000" lon="0.3626420000"><ele>930</ele><time>2026-03-24T08:02:22Z</time></trkpt>
<trkpt lat="43.0218070000" lon="0.3626170000"><ele>930</ele><time>2026-03-24T08:02:25Z</time></trkpt>
<trkpt lat="43.0218050000" lon="0.3625850000"><ele>930</ele><time>2026-03-24T08:02:28Z</time></trkpt>
<trkpt lat="43.0218070000" lon="0.3625580000"><ele>930</ele><time>2026-03-24T08:02:31Z</time></trkpt>
<trkpt lat="43.0218050000" lon="0.3625350000"><ele>930</ele><time>2026-03-24T08:02:34Z</time></trkpt>
<trkpt lat="43.0218050000" lon="0.3625070000"><ele>930</ele><time>2026-03-24T08:02:37Z</time></trkpt>
<trkpt lat="43.0218070000" lon="0.3624720000"><ele>930</ele><time>2026-03-24T08:02:40Z</time></trkpt>
<trkpt lat="43.0218250000" lon="0.3624470000"><ele>930</ele><time>2026-03-24T08:02:43Z</time></trkpt>
<trkpt lat="43.0218400000" lon="0.3624320000"><ele>930</ele><time>2026-03-24T08:02:45Z</time></trkpt>
<trkpt lat="43.0218620000" lon="0.3624170000"><ele>930</ele><time>2026-03-24T08:02:48Z</time></trkpt>
<trkpt lat="43.0218850000" lon="0.3624020000"><ele>930</ele><time>2026-03-24T08:02:51Z</time></trkpt>
<trkpt lat="43.0219020000" lon="0.3624030000"><ele>930</ele><time>2026-03-24T08:02:53Z</time></trkpt>
<trkpt lat="43.0219070000" lon="0.3623670000"><ele>930</ele><time>2026-03-24T08:02:57Z</time></trkpt>
<trkpt lat="43.0219100000" lon="0.3623350000"><ele>929</ele><time>2026-03-24T08:02:59Z</time></trkpt>
<trkpt lat="43.0219150000" lon="0.3622970000"><ele>929</ele><time>2026-03-24T08:03:02Z</time></trkpt>
<trkpt lat="43.0219250000" lon="0.3622770000"><ele>928</ele><time>2026-03-24T08:03:04Z</time></trkpt>
<trkpt lat="43.0219320000" lon="0.3622520000"><ele>928</ele><time>2026-03-24T08:03:06Z</time></trkpt>
<trkpt lat="43.0219320000" lon="0.3622250000"><ele>927</ele><time>2026-03-24T08:03:08Z</time></trkpt>
<trkpt lat="43.0219320000" lon="0.3621970000"><ele>927</ele><time>2026-03-24T08:03:10Z</time></trkpt>
<trkpt lat="43.0219400000" lon="0.3621720000"><ele>926</ele><time>2026-03-24T08:03:12Z</time></trkpt>
<trkpt lat="43.0219420000" lon="0.3621470000"><ele>926</ele><time>2026-03-24T08:03:14Z</time></trkpt>
<trkpt lat="43.0219450000" lon="0.3621100000"><ele>926</ele><time>2026-03-24T08:03:16Z</time></trkpt>
<trkpt lat="43.0219350000" lon="0.3620770000"><ele>926</ele><time>2026-03-24T08:03:19Z</time></trkpt>
<trkpt lat="43.0219420000" lon="0.3620470000"><ele>926</ele><time>2026-03-24T08:03:22Z</time></trkpt>
<trkpt lat="43.0219450000" lon="0.3620130000"><ele>926</ele><time>2026-03-24T08:03:25Z</time></trkpt>
<trkpt lat="43.0219470000" lon="0.3619870000"><ele>925</ele><time>2026-03-24T08:03:27Z</time></trkpt>
<trkpt lat="43.0219520000" lon="0.3619550000"><ele>925</ele><time>2026-03-24T08:03:30Z</time></trkpt>
<trkpt lat="43.0219370000" lon="0.3619320000"><ele>925</ele><time>2026-03-24T08:03:33Z</time></trkpt>
<trkpt lat="43.0219220000" lon="0.3619070000"><ele>924</ele><time>2026-03-24T08:03:46Z</time></trkpt>
<trkpt lat="43.0219220000" lon="0.3618720000"><ele>924</ele><time>2026-03-24T08:03:48Z</time></trkpt>
<trkpt lat="43.0219220000" lon="0.3618370000"><ele>924</ele><time>2026-03-24T08:03:50Z</time></trkpt>
<trkpt lat="43.0219250000" lon="0.3618020000"><ele>924</ele><time>2026-03-24T08:03:52Z</time></trkpt>
<trkpt lat="43.0219270000" lon="0.3617770000"><ele>924</ele><time>2026-03-24T08:03:53Z</time></trkpt>
<trkpt lat="43.0219300000" lon="0.3617370000"><ele>924</ele><time>2026-03-24T08:03:55Z</time></trkpt>
<trkpt lat="43.0219270000" lon="0.3617120000"><ele>924</ele><time>2026-03-24T08:03:57Z</time></trkpt>
<trkpt lat="43.0219170000" lon="0.3616870000"><ele>923</ele><time>2026-03-24T08:03:59Z</time></trkpt>
<trkpt lat="43.0219070000" lon="0.3616620000"><ele>923</ele><time>2026-03-24T08:04:01Z</time></trkpt>
<trkpt lat="43.0219050000" lon="0.3616320000"><ele>923</ele><time>2026-03-24T08:04:03Z</time></trkpt>
<trkpt lat="43.0218970000" lon="0.3616100000"><ele>923</ele><time>2026-03-24T08:04:06Z</time></trkpt>
<trkpt lat="43.0218970000" lon="0.3615720000"><ele>923</ele><time>2026-03-24T08:04:09Z</time></trkpt>
<trkpt lat="43.0218900000" lon="0.3615470000"><ele>923</ele><time>2026-03-24T08:04:11Z</time></trkpt>
<trkpt lat="43.0218820000" lon="0.3615220000"><ele>924</ele><time>2026-03-24T08:04:13Z</time></trkpt>
<trkpt lat="43.0218820000" lon="0.3614970000"><ele>924</ele><time>2026-03-24T08:04:15Z</time></trkpt>
<trkpt lat="43.0218820000" lon="0.3614620000"><ele>924</ele><time>2026-03-24T08:04:18Z</time></trkpt>
<trkpt lat="43.0218820000" lon="0.3614270000"><ele>924</ele><time>2026-03-24T08:04:21Z</time></trkpt>
<trkpt lat="43.0218900000" lon="0.3614000000"><ele>924</ele><time>2026-03-24T08:04:23Z</time></trkpt>
<trkpt lat="43.0218970000" lon="0.3613720000"><ele>924</ele><time>2026-03-24T08:04:25Z</time></trkpt>
<trkpt lat="43.0219070000" lon="0.3613470000"><ele>924</ele><time>2026-03-24T08:04:27Z</time></trkpt>
<trkpt lat="43.0219170000" lon="0.3613170000"><ele>925</ele><time>2026-03-24T08:04:29Z</time></trkpt>
<trkpt lat="43.0219200000" lon="0.3612820000"><ele>924</ele><time>2026-03-24T08:04:32Z</time></trkpt>
<trkpt lat="43.0219250000" lon="0.3612520000"><ele>924</ele><time>2026-03-24T08:04:34Z</time></trkpt>
<trkpt lat="43.0219270000" lon="0.3612270000"><ele>924</ele><time>2026-03-24T08:04:36Z</time></trkpt>
<trkpt lat="43.0219220000" lon="0.3612020000"><ele>924</ele><time>2026-03-24T08:04:39Z</time></trkpt>
<trkpt lat="43.0219170000" lon="0.3611770000"><ele>924</ele><time>2026-03-24T08:04:41Z</time></trkpt>
<trkpt lat="43.0219250000" lon="0.3611450000"><ele>924</ele><time>2026-03-24T08:04:43Z</time></trkpt>
<trkpt lat="43.0219270000" lon="0.3611050000"><ele>924</ele><time>2026-03-24T08:04:45Z</time></trkpt>
<trkpt lat="43.0219300000" lon="0.3610730000"><ele>924</ele><time>2026-03-24T08:04:49Z</time></trkpt>
<trkpt lat="43.0219300000" lon="0.3610470000"><ele>925</ele><time>2026-03-24T08:04:51Z</time></trkpt>
<trkpt lat="43.0219300000" lon="0.3610220000"><ele>925</ele><time>2026-03-24T08:04:55Z</time></trkpt>
<trkpt lat="43.0219350000" lon="0.3609970000"><ele>926</ele><time>2026-03-24T08:05:02Z</time></trkpt>
<trkpt lat="43.0219200000" lon="0.3609650000"><ele>927</ele><time>2026-03-24T08:05:13Z</time></trkpt>
<trkpt lat="43.0219070000" lon="0.3609420000"><ele>928</ele><time>2026-03-24T08:05:14Z</time></trkpt>
<trkpt lat="43.0218920000" lon="0.3609150000"><ele>928</ele><time>2026-03-24T08:05:15Z</time></trkpt>
<trkpt lat="43.0218800000" lon="0.3608880000"><ele>928</ele><time>2026-03-24T08:05:16Z</time></trkpt>
<trkpt lat="43.0218620000" lon="0.3608620000"><ele>928</ele><time>2026-03-24T08:05:18Z</time></trkpt>
<trkpt lat="43.0218570000" lon="0.3608350000"><ele>928</ele><time>2026-03-24T08:05:20Z</time></trkpt>
<trkpt lat="43.0218520000" lon="0.3608070000"><ele>929</ele><time>2026-03-24T08:05:24Z</time></trkpt>
<trkpt lat="43.0218500000" lon="0.3607770000"><ele>929</ele><time>2026-03-24T08:05:27Z</time></trkpt>
<trkpt lat="43.0218600000" lon="0.3607520000"><ele>929</ele><time>2026-03-24T08:05:32Z</time></trkpt>
<trkpt lat="43.0218570000" lon="0.3607250000"><ele>929</ele><time>2026-03-24T08:05:35Z</time></trkpt>
<trkpt lat="43.0218670000" lon="0.3606920000"><ele>930</ele><time>2026-03-24T08:05:50Z</time></trkpt>
<trkpt lat="43.0218600000" lon="0.3606520000"><ele>930</ele><time>2026-03-24T08:05:52Z</time></trkpt>
<trkpt lat="43.0218420000" lon="0.3606270000"><ele>930</ele><time>2026-03-24T08:05:54Z</time></trkpt>
<trkpt lat="43.0218320000" lon="0.3605970000"><ele>930</ele><time>2026-03-24T08:05:56Z</time></trkpt>
<trkpt lat="43.0218150000" lon="0.3605650000"><ele>930</ele><time>2026-03-24T08:05:59Z</time></trkpt>
<trkpt lat="43.0218100000" lon="0.3605400000"><ele>930</ele><time>2026-03-24T08:06:01Z</time></trkpt>
<trkpt lat="43.0218100000" lon="0.3605120000"><ele>931</ele><time>2026-03-24T08:06:03Z</time></trkpt>
<trkpt lat="43.0218220000" lon="0.3604830000"><ele>931</ele><time>2026-03-24T08:06:06Z</time></trkpt>
<trkpt lat="43.0218270000" lon="0.3604550000"><ele>930</ele><time>2026-03-24T08:06:09Z</time></trkpt>
<trkpt lat="43.0218270000" lon="0.3604220000"><ele>930</ele><time>2026-03-24T08:06:11Z</time></trkpt>
<trkpt lat="43.0218220000" lon="0.3603920000"><ele>930</ele><time>2026-03-24T08:06:13Z</time></trkpt>
<trkpt lat="43.0218050000" lon="0.3603700000"><ele>930</ele><time>2026-03-24T08:06:15Z</time></trkpt>
<trkpt lat="43.0217920000" lon="0.3603520000"><ele>930</ele><time>2026-03-24T08:06:17Z</time></trkpt>
<trkpt lat="43.0217720000" lon="0.3603270000"><ele>930</ele><time>2026-03-24T08:06:20Z</time></trkpt>
<trkpt lat="43.0217570000" lon="0.3603000000"><ele>930</ele><time>2026-03-24T08:06:23Z</time></trkpt>
<trkpt lat="43.0217500000" lon="0.3602750000"><ele>930</ele><time>2026-03-24T08:06:25Z</time></trkpt>
<trkpt lat="43.0217520000" lon="0.3602400000"><ele>930</ele><time>2026-03-24T08:06:28Z</time></trkpt>
<trkpt lat="43.0217570000" lon="0.3602120000"><ele>930</ele><time>2026-03-24T08:06:31Z</time></trkpt>
<trkpt lat="43.0217700000" lon="0.3601920000"><ele>929</ele><time>2026-03-24T08:06:34Z</time></trkpt>
<trkpt lat="43.0217650000" lon="0.3601650000"><ele>929</ele><time>2026-03-24T08:06:42Z</time></trkpt>
<trkpt lat="43.0217650000" lon="0.3601370000"><ele>929</ele><time>2026-03-24T08:06:49Z</time></trkpt>
<trkpt lat="43.0217670000" lon="0.3601120000"><ele>928</ele><time>2026-03-24T08:06:51Z</time></trkpt>
<trkpt lat="43.0217720000" lon="0.3600670000"><ele>928</ele><time>2026-03-24T08:06:53Z</time></trkpt>
<trkpt lat="43.0217820000" lon="0.3600320000"><ele>928</ele><time>2026-03-24T08:06:55Z</time></trkpt>
<trkpt lat="43.0217820000" lon="0.3600050000"><ele>928</ele><time>2026-03-24T08:06:57Z</time></trkpt>
<trkpt lat="43.0217850000" lon="0.3599730000"><ele>927</ele><time>2026-03-24T08:06:59Z</time></trkpt>
<trkpt lat="43.0218020000" lon="0.3599620000"><ele>927</ele><time>2026-03-24T08:07:03Z</time></trkpt>
<trkpt lat="43.0218100000" lon="0.3599270000"><ele>926</ele><time>2026-03-24T08:07:06Z</time></trkpt>
<trkpt lat="43.0218070000" lon="0.3598950000"><ele>926</ele><time>2026-03-24T08:07:08Z</time></trkpt>
<trkpt lat="43.0218070000" lon="0.3598700000"><ele>925</ele><time>2026-03-24T08:07:10Z</time></trkpt>
<trkpt lat="43.0218050000" lon="0.3598420000"><ele>925</ele><time>2026-03-24T08:07:12Z</time></trkpt>
<trkpt lat="43.0217920000" lon="0.3598150000"><ele>925</ele><time>2026-03-24T08:07:15Z</time></trkpt>
<trkpt lat="43.0217900000" lon="0.3597820000"><ele>924</ele><time>2026-03-24T08:07:18Z</time></trkpt>
<trkpt lat="43.0217900000" lon="0.3597570000"><ele>924</ele><time>2026-03-24T08:07:21Z</time></trkpt>
<trkpt lat="43.0217770000" lon="0.3597350000"><ele>924</ele><time>2026-03-24T08:07:25Z</time></trkpt>
<trkpt lat="43.0217750000" lon="0.3597000000"><ele>925</ele><time>2026-03-24T08:07:29Z</time></trkpt>
<trkpt lat="43.0217820000" lon="0.3596720000"><ele>924</ele><time>2026-03-24T08:07:32Z</time></trkpt>
<trkpt lat="43.0217850000" lon="0.3596470000"><ele>923</ele><time>2026-03-24T08:07:40Z</time></trkpt>
<trkpt lat="43.0217670000" lon="0.3596230000"><ele>923</ele><time>2026-03-24T08:07:45Z</time></trkpt>
<trkpt lat="43.0217600000" lon="0.3596020000"><ele>923</ele><time>2026-03-24T08:07:49Z</time></trkpt>
<trkpt lat="43.0217470000" lon="0.3595550000"><ele>923</ele><time>2026-03-24T08:07:51Z</time></trkpt>
<trkpt lat="43.0217420000" lon="0.3595300000"><ele>923</ele><time>2026-03-24T08:07:52Z</time></trkpt>
<trkpt lat="43.0217370000" lon="0.3594880000"><ele>923</ele><time>2026-03-24T08:07:54Z</time></trkpt>
<trkpt lat="43.0217320000" lon="0.3594520000"><ele>923</ele><time>2026-03-24T08:07:57Z</time></trkpt>
<trkpt lat="43.0217270000" lon="0.3594250000"><ele>922</ele><time>2026-03-24T08:08:00Z</time></trkpt>
<trkpt lat="43.0217170000" lon="0.3593970000"><ele>922</ele><time>2026-03-24T08:08:03Z</time></trkpt>
<trkpt lat="43.0217120000" lon="0.3593670000"><ele>921</ele><time>2026-03-24T08:08:10Z</time></trkpt>
<trkpt lat="43.0217100000" lon="0.3593420000"><ele>921</ele><time>2026-03-24T08:08:14Z</time></trkpt>
<trkpt lat="43.0217000000" lon="0.3593170000"><ele>920</ele><time>2026-03-24T08:08:23Z</time></trkpt>
<trkpt lat="43.0216900000" lon="0.3592850000"><ele>919</ele><time>2026-03-24T08:08:25Z</time></trkpt>
<trkpt lat="43.0216820000" lon="0.3592520000"><ele>919</ele><time>2026-03-24T08:08:27Z</time></trkpt>
<trkpt lat="43.0216700000" lon="0.3592220000"><ele>919</ele><time>2026-03-24T08:08:30Z</time></trkpt>
<trkpt lat="43.0216520000" lon="0.3592020000"><ele>919</ele><time>2026-03-24T08:08:33Z</time></trkpt>
<trkpt lat="43.0216420000" lon="0.3591750000"><ele>919</ele><time>2026-03-24T08:08:37Z</time></trkpt>
<trkpt lat="43.0216370000" lon="0.3591500000"><ele>919</ele><time>2026-03-24T08:08:40Z</time></trkpt>
<trkpt lat="43.0216270000" lon="0.3591220000"><ele>918</ele><time>2026-03-24T08:08:43Z</time></trkpt>
<trkpt lat="43.0216120000" lon="0.3590980000"><ele>918</ele><time>2026-03-24T08:08:46Z</time></trkpt>
<trkpt lat="43.0216120000" lon="0.3590720000"><ele>918</ele><time>2026-03-24T08:08:49Z</time></trkpt>
<trkpt lat="43.0215970000" lon="0.3590470000"><ele>918</ele><time>2026-03-24T08:08:52Z</time></trkpt>
<trkpt lat="43.0215920000" lon="0.3590220000"><ele>919</ele><time>2026-03-24T08:08:56Z</time></trkpt>
<trkpt lat="43.0215920000" lon="0.3589920000"><ele>916</ele><time>2026-03-24T08:09:41Z</time></trkpt>
<trkpt lat="43.0215770000" lon="0.3589570000"><ele>915</ele><time>2026-03-24T08:09:57Z</time></trkpt>
<trkpt lat="43.0215670000" lon="0.3589300000"><ele>915</ele><time>2026-03-24T08:09:59Z</time></trkpt>
<trkpt lat="43.0215500000" lon="0.3589220000"><ele>914</ele><time>2026-03-24T08:10:07Z</time></trkpt>
<trkpt lat="43.0215320000" lon="0.3589350000"><ele>912</ele><time>2026-03-24T08:10:24Z</time></trkpt>
<trkpt lat="43.0215050000" lon="0.3589570000"><ele>912</ele><time>2026-03-24T08:10:26Z</time></trkpt>
<trkpt lat="43.0214770000" lon="0.3589720000"><ele>912</ele><time>2026-03-24T08:10:28Z</time></trkpt>
<trkpt lat="43.0214570000" lon="0.3589720000"><ele>911</ele><time>2026-03-24T08:10:31Z</time></trkpt>
<trkpt lat="43.0214370000" lon="0.3589670000"><ele>911</ele><time>2026-03-24T08:10:34Z</time></trkpt>
<trkpt lat="43.0214170000" lon="0.3589820000"><ele>910</ele><time>2026-03-24T08:10:37Z</time></trkpt>
<trkpt lat="43.0213970000" lon="0.3589920000"><ele>909</ele><time>2026-03-24T08:10:40Z</time></trkpt>
<trkpt lat="43.0213820000" lon="0.3590120000"><ele>909</ele><time>2026-03-24T08:10:44Z</time></trkpt>
<trkpt lat="43.0213670000" lon="0.3590320000"><ele>908</ele><time>2026-03-24T08:10:47Z</time></trkpt>
<trkpt lat="43.0213470000" lon="0.3590320000"><ele>906</ele><time>2026-03-24T08:11:02Z</time></trkpt>
<trkpt lat="43.0213250000" lon="0.3590370000"><ele>905</ele><time>2026-03-24T08:11:04Z</time></trkpt>
<trkpt lat="43.0212970000" lon="0.3590320000"><ele>905</ele><time>2026-03-24T08:11:06Z</time></trkpt>
<trkpt lat="43.0212770000" lon="0.3590270000"><ele>904</ele><time>2026-03-24T08:11:09Z</time></trkpt>
<trkpt lat="43.0212570000" lon="0.3590070000"><ele>903</ele><time>2026-03-24T08:11:13Z</time></trkpt>
<trkpt lat="43.0212320000" lon="0.3590270000"><ele>902</ele><time>2026-03-24T08:11:18Z</time></trkpt>
<trkpt lat="43.0212120000" lon="0.3590270000"><ele>902</ele><time>2026-03-24T08:11:20Z</time></trkpt>
<trkpt lat="43.0211950000" lon="0.3590120000"><ele>901</ele><time>2026-03-24T08:11:26Z</time></trkpt>
<trkpt lat="43.0211770000" lon="0.3589920000"><ele>900</ele><time>2026-03-24T08:11:30Z</time></trkpt>
<trkpt lat="43.0211670000" lon="0.3589670000"><ele>899</ele><time>2026-03-24T08:11:35Z</time></trkpt>
<trkpt lat="43.0211520000" lon="0.3589880000"><ele>896</ele><time>2026-03-24T08:11:56Z</time></trkpt>
<trkpt lat="43.0211320000" lon="0.3589820000"><ele>896</ele><time>2026-03-24T08:11:58Z</time></trkpt>
<trkpt lat="43.0211200000" lon="0.3589580000"><ele>895</ele><time>2026-03-24T08:12:00Z</time></trkpt>
<trkpt lat="43.0211100000" lon="0.3589350000"><ele>895</ele><time>2026-03-24T08:12:02Z</time></trkpt>
<trkpt lat="43.0210920000" lon="0.3589120000"><ele>894</ele><time>2026-03-24T08:12:06Z</time></trkpt>
<trkpt lat="43.0210870000" lon="0.3588820000"><ele>893</ele><time>2026-03-24T08:12:10Z</time></trkpt>
<trkpt lat="43.0210700000" lon="0.3588720000"><ele>892</ele><time>2026-03-24T08:12:13Z</time></trkpt>
<trkpt lat="43.0210450000" lon="0.3588720000"><ele>891</ele><time>2026-03-24T08:12:17Z</time></trkpt>
<trkpt lat="43.0210300000" lon="0.3588520000"><ele>890</ele><time>2026-03-24T08:12:20Z</time></trkpt>
<trkpt lat="43.0210120000" lon="0.3588300000"><ele>889</ele><time>2026-03-24T08:12:23Z</time></trkpt>
<trkpt lat="43.0209870000" lon="0.3588370000"><ele>887</ele><time>2026-03-24T08:12:30Z</time></trkpt>
<trkpt lat="43.0209720000" lon="0.3588600000"><ele>887</ele><time>2026-03-24T08:12:32Z</time></trkpt>
<trkpt lat="43.0209520000" lon="0.3588570000"><ele>886</ele><time>2026-03-24T08:12:34Z</time></trkpt>
<trkpt lat="43.0209400000" lon="0.3588320000"><ele>886</ele><time>2026-03-24T08:12:36Z</time></trkpt>
<trkpt lat="43.0209270000" lon="0.3588070000"><ele>885</ele><time>2026-03-24T08:12:39Z</time></trkpt>
<trkpt lat="43.0209100000" lon="0.3587920000"><ele>884</ele><time>2026-03-24T08:12:41Z</time></trkpt>
<trkpt lat="43.0208950000" lon="0.3587680000"><ele>884</ele><time>2026-03-24T08:12:43Z</time></trkpt>
<trkpt lat="43.0208820000" lon="0.3587420000"><ele>883</ele><time>2026-03-24T08:12:45Z</time></trkpt>
<trkpt lat="43.0208720000" lon="0.3587220000"><ele>882</ele><time>2026-03-24T08:12:47Z</time></trkpt>
<trkpt lat="43.0208600000" lon="0.3586970000"><ele>881</ele><time>2026-03-24T08:12:51Z</time></trkpt>
<trkpt lat="43.0208620000" lon="0.3586570000"><ele>881</ele><time>2026-03-24T08:12:53Z</time></trkpt>
<trkpt lat="43.0208620000" lon="0.3586270000"><ele>881</ele><time>2026-03-24T08:12:56Z</time></trkpt>
<trkpt lat="43.0208400000" lon="0.3586220000"><ele>880</ele><time>2026-03-24T08:12:58Z</time></trkpt>
<trkpt lat="43.0208120000" lon="0.3586070000"><ele>880</ele><time>2026-03-24T08:13:01Z</time></trkpt>
<trkpt lat="43.0207920000" lon="0.3586000000"><ele>879</ele><time>2026-03-24T08:13:03Z</time></trkpt>
<trkpt lat="43.0207720000" lon="0.3585730000"><ele>878</ele><time>2026-03-24T08:13:06Z</time></trkpt>
<trkpt lat="43.0207520000" lon="0.3585670000"><ele>878</ele><time>2026-03-24T08:13:08Z</time></trkpt>
<trkpt lat="43.0207350000" lon="0.3585570000"><ele>877</ele><time>2026-03-24T08:13:10Z</time></trkpt>
<trkpt lat="43.0207150000" lon="0.3585230000"><ele>877</ele><time>2026-03-24T08:13:13Z</time></trkpt>
<trkpt lat="43.0206970000" lon="0.3584950000"><ele>876</ele><time>2026-03-24T08:13:16Z</time></trkpt>
<trkpt lat="43.0206820000" lon="0.3584770000"><ele>876</ele><time>2026-03-24T08:13:18Z</time></trkpt>
<trkpt lat="43.0206670000" lon="0.3584880000"><ele>875</ele><time>2026-03-24T08:13:20Z</time></trkpt>
<trkpt lat="43.0206400000" lon="0.3584920000"><ele>874</ele><time>2026-03-24T08:13:23Z</time></trkpt>
<trkpt lat="43.0206120000" lon="0.3585050000"><ele>874</ele><time>2026-03-24T08:13:26Z</time></trkpt>
<trkpt lat="43.0205950000" lon="0.3585000000"><ele>873</ele><time>2026-03-24T08:13:29Z</time></trkpt>
<trkpt lat="43.0205750000" lon="0.3585120000"><ele>873</ele><time>2026-03-24T08:13:31Z</time></trkpt>
<trkpt lat="43.0205500000" lon="0.3585130000"><ele>872</ele><time>2026-03-24T08:13:34Z</time></trkpt>
<trkpt lat="43.0205300000" lon="0.3585300000"><ele>872</ele><time>2026-03-24T08:13:37Z</time></trkpt>
<trkpt lat="43.0205120000" lon="0.3585420000"><ele>871</ele><time>2026-03-24T08:13:40Z</time></trkpt>
<trkpt lat="43.0204980000" lon="0.3585670000"><ele>871</ele><time>2026-03-24T08:13:42Z</time></trkpt>
<trkpt lat="43.0204900000" lon="0.3586070000"><ele>871</ele><time>2026-03-24T08:13:44Z</time></trkpt>
<trkpt lat="43.0204770000" lon="0.3586320000"><ele>871</ele><time>2026-03-24T08:13:46Z</time></trkpt>
<trkpt lat="43.0204520000" lon="0.3586470000"><ele>870</ele><time>2026-03-24T08:13:49Z</time></trkpt>
<trkpt lat="43.0204270000" lon="0.3586570000"><ele>870</ele><time>2026-03-24T08:13:52Z</time></trkpt>
<trkpt lat="43.0204020000" lon="0.3586670000"><ele>870</ele><time>2026-03-24T08:13:54Z</time></trkpt>
<trkpt lat="43.0203770000" lon="0.3586770000"><ele>869</ele><time>2026-03-24T08:13:56Z</time></trkpt>
<trkpt lat="43.0203520000" lon="0.3586820000"><ele>869</ele><time>2026-03-24T08:13:58Z</time></trkpt>
<trkpt lat="43.0203270000" lon="0.3586770000"><ele>869</ele><time>2026-03-24T08:14:00Z</time></trkpt>
<trkpt lat="43.0203020000" lon="0.3586770000"><ele>868</ele><time>2026-03-24T08:14:02Z</time></trkpt>
<trkpt lat="43.0202850000" lon="0.3586720000"><ele>868</ele><time>2026-03-24T08:14:04Z</time></trkpt>
<trkpt lat="43.0202670000" lon="0.3586670000"><ele>868</ele><time>2026-03-24T08:14:06Z</time></trkpt>
<trkpt lat="43.0202400000" lon="0.3586620000"><ele>867</ele><time>2026-03-24T08:14:09Z</time></trkpt>
<trkpt lat="43.0202220000" lon="0.3586580000"><ele>867</ele><time>2026-03-24T08:14:11Z</time></trkpt>
<trkpt lat="43.0201950000" lon="0.3586570000"><ele>866</ele><time>2026-03-24T08:14:14Z</time></trkpt>
<trkpt lat="43.0201770000" lon="0.3586550000"><ele>866</ele><time>2026-03-24T08:14:16Z</time></trkpt>
<trkpt lat="43.0201570000" lon="0.3586570000"><ele>866</ele><time>2026-03-24T08:14:18Z</time></trkpt>
<trkpt lat="43.0201320000" lon="0.3586670000"><ele>866</ele><time>2026-03-24T08:14:21Z</time></trkpt>
<trkpt lat="43.0201120000" lon="0.3586670000"><ele>865</ele><time>2026-03-24T08:14:23Z</time></trkpt>
<trkpt lat="43.0200850000" lon="0.3586650000"><ele>865</ele><time>2026-03-24T08:14:26Z</time></trkpt>
<trkpt lat="43.0200670000" lon="0.3586620000"><ele>865</ele><time>2026-03-24T08:14:28Z</time></trkpt>
<trkpt lat="43.0200470000" lon="0.3586570000"><ele>864</ele><time>2026-03-24T08:14:30Z</time></trkpt>
<trkpt lat="43.0200250000" lon="0.3586470000"><ele>864</ele><time>2026-03-24T08:14:32Z</time></trkpt>
<trkpt lat="43.0200050000" lon="0.3586370000"><ele>864</ele><time>2026-03-24T08:14:34Z</time></trkpt>
<trkpt lat="43.0199850000" lon="0.3586320000"><ele>864</ele><time>2026-03-24T08:14:36Z</time></trkpt>
<trkpt lat="43.0199670000" lon="0.3586200000"><ele>864</ele><time>2026-03-24T08:14:38Z</time></trkpt>
<trkpt lat="43.0199420000" lon="0.3586050000"><ele>864</ele><time>2026-03-24T08:14:41Z</time></trkpt>
<trkpt lat="43.0199250000" lon="0.3585920000"><ele>863</ele><time>2026-03-24T08:14:43Z</time></trkpt>
<trkpt lat="43.0199070000" lon="0.3585770000"><ele>863</ele><time>2026-03-24T08:14:45Z</time></trkpt>
<trkpt lat="43.0198920000" lon="0.3585620000"><ele>863</ele><time>2026-03-24T08:14:47Z</time></trkpt>
<trkpt lat="43.0198650000" lon="0.3585550000"><ele>863</ele><time>2026-03-24T08:14:50Z</time></trkpt>
<trkpt lat="43.0198450000" lon="0.3585470000"><ele>863</ele><time>2026-03-24T08:14:52Z</time></trkpt>
<trkpt lat="43.0198200000" lon="0.3585400000"><ele>863</ele><time>2026-03-24T08:14:55Z</time></trkpt>
<trkpt lat="43.0197950000" lon="0.3585330000"><ele>863</ele><time>2026-03-24T08:14:58Z</time></trkpt>
<trkpt lat="43.0197720000" lon="0.3585270000"><ele>863</ele><time>2026-03-24T08:15:01Z</time></trkpt>
<trkpt lat="43.0197520000" lon="0.3585170000"><ele>863</ele><time>2026-03-24T08:15:03Z</time></trkpt>
<trkpt lat="43.0197320000" lon="0.3585020000"><ele>864</ele><time>2026-03-24T08:15:06Z</time></trkpt>
<trkpt lat="43.0197120000" lon="0.3585070000"><ele>864</ele><time>2026-03-24T08:15:08Z</time></trkpt>
<trkpt lat="43.0196920000" lon="0.3585050000"><ele>864</ele><time>2026-03-24T08:15:10Z</time></trkpt>
<trkpt lat="43.0196670000" lon="0.3585000000"><ele>864</ele><time>2026-03-24T08:15:13Z</time></trkpt>
<trkpt lat="43.0196450000" lon="0.3584920000"><ele>864</ele><time>2026-03-24T08:15:16Z</time></trkpt>
<trkpt lat="43.0196200000" lon="0.3584820000"><ele>864</ele><time>2026-03-24T08:15:19Z</time></trkpt>
<trkpt lat="43.0195980000" lon="0.3584750000"><ele>864</ele><time>2026-03-24T08:15:22Z</time></trkpt>
<trkpt lat="43.0195800000" lon="0.3584650000"><ele>865</ele><time>2026-03-24T08:15:25Z</time></trkpt>
<trkpt lat="43.0195600000" lon="0.3584620000"><ele>865</ele><time>2026-03-24T08:15:27Z</time></trkpt>
<trkpt lat="43.0195350000" lon="0.3584550000"><ele>865</ele><time>2026-03-24T08:15:30Z</time></trkpt>
<trkpt lat="43.0195120000" lon="0.3584470000"><ele>866</ele><time>2026-03-24T08:15:33Z</time></trkpt>
<trkpt lat="43.0194900000" lon="0.3584470000"><ele>866</ele><time>2026-03-24T08:15:36Z</time></trkpt>
<trkpt lat="43.0194670000" lon="0.3584470000"><ele>866</ele><time>2026-03-24T08:15:39Z</time></trkpt>
<trkpt lat="43.0194420000" lon="0.3584470000"><ele>866</ele><time>2026-03-24T08:15:42Z</time></trkpt>
<trkpt lat="43.0194170000" lon="0.3584380000"><ele>867</ele><time>2026-03-24T08:15:45Z</time></trkpt>
<trkpt lat="43.0193950000" lon="0.3584320000"><ele>867</ele><time>2026-03-24T08:15:48Z</time></trkpt>
<trkpt lat="43.0193720000" lon="0.3584270000"><ele>868</ele><time>2026-03-24T08:15:52Z</time></trkpt>
<trkpt lat="43.0193520000" lon="0.3584370000"><ele>868</ele><time>2026-03-24T08:16:24Z</time></trkpt>
<trkpt lat="43.0193370000" lon="0.3584070000"><ele>868</ele><time>2026-03-24T08:17:13Z</time></trkpt>
<trkpt lat="43.0193270000" lon="0.3583820000"><ele>868</ele><time>2026-03-24T08:17:15Z</time></trkpt>
<trkpt lat="43.0193370000" lon="0.3583570000"><ele>868</ele><time>2026-03-24T08:17:27Z</time></trkpt>
<trkpt lat="43.0193520000" lon="0.3583250000"><ele>868</ele><time>2026-03-24T08:17:29Z</time></trkpt>
<trkpt lat="43.0193670000" lon="0.3582970000"><ele>868</ele><time>2026-03-24T08:17:31Z</time></trkpt>
<trkpt lat="43.0193730000" lon="0.3582600000"><ele>868</ele><time>2026-03-24T08:17:33Z</time></trkpt>
<trkpt lat="43.0193850000" lon="0.3582370000"><ele>868</ele><time>2026-03-24T08:17:35Z</time></trkpt>
<trkpt lat="43.0193950000" lon="0.3582020000"><ele>869</ele><time>2026-03-24T08:17:38Z</time></trkpt>
<trkpt lat="43.0194070000" lon="0.3581820000"><ele>869</ele><time>2026-03-24T08:17:40Z</time></trkpt>
<trkpt lat="43.0194150000" lon="0.3581520000"><ele>869</ele><time>2026-03-24T08:17:43Z</time></trkpt>
<trkpt lat="43.0194270000" lon="0.3581320000"><ele>869</ele><time>2026-03-24T08:17:45Z</time></trkpt>
<trkpt lat="43.0194470000" lon="0.3581150000"><ele>869</ele><time>2026-03-24T08:17:48Z</time></trkpt>
<trkpt lat="43.0194600000" lon="0.3580950000"><ele>869</ele><time>2026-03-24T08:17:50Z</time></trkpt>
<trkpt lat="43.0194750000" lon="0.3580670000"><ele>868</ele><time>2026-03-24T08:17:53Z</time></trkpt>
<trkpt lat="43.0194920000" lon="0.3580420000"><ele>868</ele><time>2026-03-24T08:17:56Z</time></trkpt>
<trkpt lat="43.0195120000" lon="0.3580170000"><ele>868</ele><time>2026-03-24T08:17:59Z</time></trkpt>
<trkpt lat="43.0195200000" lon="0.3579830000"><ele>868</ele><time>2026-03-24T08:18:02Z</time></trkpt>
<trkpt lat="43.0195200000" lon="0.3579470000"><ele>868</ele><time>2026-03-24T08:18:05Z</time></trkpt>
<trkpt lat="43.0195270000" lon="0.3579220000"><ele>869</ele><time>2026-03-24T08:18:07Z</time></trkpt>
<trkpt lat="43.0195420000" lon="0.3578920000"><ele>869</ele><time>2026-03-24T08:18:10Z</time></trkpt>
<trkpt lat="43.0195570000" lon="0.3578700000"><ele>869</ele><time>2026-03-24T08:18:12Z</time></trkpt>
<trkpt lat="43.0195800000" lon="0.3578520000"><ele>868</ele><time>2026-03-24T08:18:15Z</time></trkpt>
<trkpt lat="43.0195970000" lon="0.3578470000"><ele>868</ele><time>2026-03-24T08:18:17Z</time></trkpt>
<trkpt lat="43.0196150000" lon="0.3578370000"><ele>868</ele><time>2026-03-24T08:18:19Z</time></trkpt>
<trkpt lat="43.0196320000" lon="0.3578120000"><ele>868</ele><time>2026-03-24T08:18:22Z</time></trkpt>
<trkpt lat="43.0196350000" lon="0.3577850000"><ele>868</ele><time>2026-03-24T08:18:26Z</time></trkpt>
<trkpt lat="43.0196220000" lon="0.3577620000"><ele>868</ele><time>2026-03-24T08:18:29Z</time></trkpt>
<trkpt lat="43.0196220000" lon="0.3577270000"><ele>868</ele><time>2026-03-24T08:18:32Z</time></trkpt>
<trkpt lat="43.0196370000" lon="0.3577070000"><ele>868</ele><time>2026-03-24T08:18:34Z</time></trkpt>
<trkpt lat="43.0196520000" lon="0.3576900000"><ele>868</ele><time>2026-03-24T08:18:36Z</time></trkpt>
<trkpt lat="43.0196770000" lon="0.3576750000"><ele>867</ele><time>2026-03-24T08:18:39Z</time></trkpt>
<trkpt lat="43.0196970000" lon="0.3576550000"><ele>867</ele><time>2026-03-24T08:18:42Z</time></trkpt>
<trkpt lat="43.0197050000" lon="0.3576270000"><ele>867</ele><time>2026-03-24T08:18:44Z</time></trkpt>
<trkpt lat="43.0197050000" lon="0.3575900000"><ele>867</ele><time>2026-03-24T08:18:46Z</time></trkpt>
<trkpt lat="43.0197070000" lon="0.3575570000"><ele>867</ele><time>2026-03-24T08:18:48Z</time></trkpt>
<trkpt lat="43.0197150000" lon="0.3575270000"><ele>867</ele><time>2026-03-24T08:18:50Z</time></trkpt>
<trkpt lat="43.0197120000" lon="0.3575020000"><ele>867</ele><time>2026-03-24T08:18:52Z</time></trkpt>
<trkpt lat="43.0197070000" lon="0.3574630000"><ele>867</ele><time>2026-03-24T08:18:55Z</time></trkpt>
<trkpt lat="43.0197070000" lon="0.3574400000"><ele>867</ele><time>2026-03-24T08:18:57Z</time></trkpt>
<trkpt lat="43.0197070000" lon="0.3574130000"><ele>867</ele><time>2026-03-24T08:18:59Z</time></trkpt>
<trkpt lat="43.0197000000" lon="0.3573900000"><ele>867</ele><time>2026-03-24T08:19:01Z</time></trkpt>
<trkpt lat="43.0197020000" lon="0.3573620000"><ele>867</ele><time>2026-03-24T08:19:03Z</time></trkpt>
<trkpt lat="43.0197070000" lon="0.3573320000"><ele>867</ele><time>2026-03-24T08:19:05Z</time></trkpt>
<trkpt lat="43.0197150000" lon="0.3573100000"><ele>867</ele><time>2026-03-24T08:19:07Z</time></trkpt>
<trkpt lat="43.0197220000" lon="0.3572820000"><ele>867</ele><time>2026-03-24T08:19:09Z</time></trkpt>
<trkpt lat="43.0197270000" lon="0.3572570000"><ele>867</ele><time>2026-03-24T08:19:11Z</time></trkpt>
<trkpt lat="43.0197320000" lon="0.3572320000"><ele>867</ele><time>2026-03-24T08:19:13Z</time></trkpt>
<trkpt lat="43.0197420000" lon="0.3572070000"><ele>867</ele><time>2026-03-24T08:19:15Z</time></trkpt>
<trkpt lat="43.0197520000" lon="0.3571820000"><ele>867</ele><time>2026-03-24T08:19:17Z</time></trkpt>
<trkpt lat="43.0197570000" lon="0.3571530000"><ele>867</ele><time>2026-03-24T08:19:19Z</time></trkpt>
<trkpt lat="43.0197670000" lon="0.3571270000"><ele>866</ele><time>2026-03-24T08:19:21Z</time></trkpt>
<trkpt lat="43.0197750000" lon="0.3570950000"><ele>866</ele><time>2026-03-24T08:19:24Z</time></trkpt>
<trkpt lat="43.0197800000" lon="0.3570700000"><ele>866</ele><time>2026-03-24T08:19:26Z</time></trkpt>
<trkpt lat="43.0197820000" lon="0.3570420000"><ele>866</ele><time>2026-03-24T08:19:28Z</time></trkpt>
<trkpt lat="43.0197850000" lon="0.3570120000"><ele>866</ele><time>2026-03-24T08:19:30Z</time></trkpt>
<trkpt lat="43.0197870000" lon="0.3569850000"><ele>866</ele><time>2026-03-24T08:19:32Z</time></trkpt>
<trkpt lat="43.0197870000" lon="0.3569570000"><ele>866</ele><time>2026-03-24T08:19:34Z</time></trkpt>
<trkpt lat="43.0197950000" lon="0.3569300000"><ele>866</ele><time>2026-03-24T08:19:36Z</time></trkpt>
<trkpt lat="43.0198020000" lon="0.3569020000"><ele>866</ele><time>2026-03-24T08:19:38Z</time></trkpt>
<trkpt lat="43.0198100000" lon="0.3568770000"><ele>866</ele><time>2026-03-24T08:19:40Z</time></trkpt>
<trkpt lat="43.0198170000" lon="0.3568520000"><ele>866</ele><time>2026-03-24T08:19:42Z</time></trkpt>
<trkpt lat="43.0198230000" lon="0.3568250000"><ele>866</ele><time>2026-03-24T08:19:44Z</time></trkpt>
<trkpt lat="43.0198320000" lon="0.3567970000"><ele>866</ele><time>2026-03-24T08:19:46Z</time></trkpt>
<trkpt lat="43.0198370000" lon="0.3567650000"><ele>866</ele><time>2026-03-24T08:19:48Z</time></trkpt>
<trkpt lat="43.0198400000" lon="0.3567280000"><ele>866</ele><time>2026-03-24T08:19:50Z</time></trkpt>
<trkpt lat="43.0198420000" lon="0.3567000000"><ele>865</ele><time>2026-03-24T08:19:52Z</time></trkpt>
<trkpt lat="43.0198470000" lon="0.3566720000"><ele>865</ele><time>2026-03-24T08:19:54Z</time></trkpt>
<trkpt lat="43.0198470000" lon="0.3566400000"><ele>865</ele><time>2026-03-24T08:19:56Z</time></trkpt>
<trkpt lat="43.0198520000" lon="0.3566120000"><ele>865</ele><time>2026-03-24T08:19:58Z</time></trkpt>
<trkpt lat="43.0198550000" lon="0.3565770000"><ele>865</ele><time>2026-03-24T08:20:00Z</time></trkpt>
<trkpt lat="43.0198520000" lon="0.3565470000"><ele>865</ele><time>2026-03-24T08:20:02Z</time></trkpt>
<trkpt lat="43.0198520000" lon="0.3565120000"><ele>865</ele><time>2026-03-24T08:20:04Z</time></trkpt>
<trkpt lat="43.0198550000" lon="0.3564850000"><ele>865</ele><time>2026-03-24T08:20:06Z</time></trkpt>
<trkpt lat="43.0198550000" lon="0.3564570000"><ele>865</ele><time>2026-03-24T08:20:08Z</time></trkpt>
<trkpt lat="43.0198570000" lon="0.3564250000"><ele>865</ele><time>2026-03-24T08:20:10Z</time></trkpt>
<trkpt lat="43.0198620000" lon="0.3563950000"><ele>865</ele><time>2026-03-24T08:20:12Z</time></trkpt>
<trkpt lat="43.0198620000" lon="0.3563600000"><ele>865</ele><time>2026-03-24T08:20:14Z</time></trkpt>
<trkpt lat="43.0198650000" lon="0.3563220000"><ele>865</ele><time>2026-03-24T08:20:16Z</time></trkpt>
<trkpt lat="43.0198720000" lon="0.3562930000"><ele>865</ele><time>2026-03-24T08:20:18Z</time></trkpt>
<trkpt lat="43.0198670000" lon="0.3562650000"><ele>865</ele><time>2026-03-24T08:20:20Z</time></trkpt>
<trkpt lat="43.0198650000" lon="0.3562320000"><ele>865</ele><time>2026-03-24T08:20:22Z</time></trkpt>
<trkpt lat="43.0198650000" lon="0.3562070000"><ele>865</ele><time>2026-03-24T08:20:25Z</time></trkpt>
<trkpt lat="43.0198570000" lon="0.3561770000"><ele>865</ele><time>2026-03-24T08:20:27Z</time></trkpt>
<trkpt lat="43.0198650000" lon="0.3562020000"><ele>865</ele><time>2026-03-24T08:21:16Z</time></trkpt>
<trkpt lat="43.0198420000" lon="0.3562120000"><ele>864</ele><time>2026-03-24T08:22:32Z</time></trkpt>
<trkpt lat="43.0198620000" lon="0.3562120000"><ele>864</ele><time>2026-03-24T08:23:42Z</time></trkpt>
<trkpt lat="43.0198370000" lon="0.3562220000"><ele>864</ele><time>2026-03-24T08:23:45Z</time></trkpt>
<trkpt lat="43.0198170000" lon="0.3562280000"><ele>864</ele><time>2026-03-24T08:23:47Z</time></trkpt>
<trkpt lat="43.0197970000" lon="0.3562320000"><ele>864</ele><time>2026-03-24T08:23:53Z</time></trkpt>
<trkpt lat="43.0197770000" lon="0.3562350000"><ele>863</ele><time>2026-03-24T08:23:57Z</time></trkpt>
<trkpt lat="43.0197970000" lon="0.3562250000"><ele>861</ele><time>2026-03-24T08:27:30Z</time></trkpt>
<trkpt lat="43.0198170000" lon="0.3562220000"><ele>861</ele><time>2026-03-24T08:27:31Z</time></trkpt>
<trkpt lat="43.0198420000" lon="0.3562220000"><ele>861</ele><time>2026-03-24T08:27:32Z</time></trkpt>
<trkpt lat="43.0198620000" lon="0.3562220000"><ele>861</ele><time>2026-03-24T08:27:33Z</time></trkpt>
<trkpt lat="43.0198820000" lon="0.3562220000"><ele>861</ele><time>2026-03-24T08:27:35Z</time></trkpt>
<trkpt lat="43.0198570000" lon="0.3562270000"><ele>861</ele><time>2026-03-24T08:28:46Z</time></trkpt>
<trkpt lat="43.0198370000" lon="0.3562350000"><ele>861</ele><time>2026-03-24T08:28:47Z</time></trkpt>
<trkpt lat="43.0198200000" lon="0.3562420000"><ele>861</ele><time>2026-03-24T08:28:48Z</time></trkpt>
<trkpt lat="43.0197920000" lon="0.3562500000"><ele>861</ele><time>2026-03-24T08:28:50Z</time></trkpt>
<trkpt lat="43.0197770000" lon="0.3562320000"><ele>861</ele><time>2026-03-24T08:28:54Z</time></trkpt>
<trkpt lat="43.0198120000" lon="0.3562270000"><ele>861</ele><time>2026-03-24T08:29:19Z</time></trkpt>
<trkpt lat="43.0198320000" lon="0.3562280000"><ele>861</ele><time>2026-03-24T08:29:20Z</time></trkpt>
<trkpt lat="43.0198620000" lon="0.3562320000"><ele>861</ele><time>2026-03-24T08:29:22Z</time></trkpt>
<trkpt lat="43.0198620000" lon="0.3562070000"><ele>861</ele><time>2026-03-24T08:29:26Z</time></trkpt>
<trkpt lat="43.0198770000" lon="0.3561870000"><ele>863</ele><time>2026-03-24T08:32:38Z</time></trkpt>
<trkpt lat="43.0198770000" lon="0.3561580000"><ele>863</ele><time>2026-03-24T08:32:40Z</time></trkpt>
<trkpt lat="43.0198670000" lon="0.3561320000"><ele>863</ele><time>2026-03-24T08:32:42Z</time></trkpt>
<trkpt lat="43.0198620000" lon="0.3561070000"><ele>863</ele><time>2026-03-24T08:32:44Z</time></trkpt>
<trkpt lat="43.0198620000" lon="0.3560670000"><ele>863</ele><time>2026-03-24T08:32:47Z</time></trkpt>
<trkpt lat="43.0198620000" lon="0.3560370000"><ele>863</ele><time>2026-03-24T08:32:50Z</time></trkpt>
<trkpt lat="43.0198570000" lon="0.3560070000"><ele>863</ele><time>2026-03-24T08:32:53Z</time></trkpt>
<trkpt lat="43.0198470000" lon="0.3559770000"><ele>864</ele><time>2026-03-24T08:32:57Z</time></trkpt>
<trkpt lat="43.0198370000" lon="0.3559470000"><ele>864</ele><time>2026-03-24T08:33:00Z</time></trkpt>
<trkpt lat="43.0198370000" lon="0.3559170000"><ele>864</ele><time>2026-03-24T08:33:03Z</time></trkpt>
<trkpt lat="43.0198220000" lon="0.3558870000"><ele>865</ele><time>2026-03-24T08:33:06Z</time></trkpt>
<trkpt lat="43.0198170000" lon="0.3558570000"><ele>865</ele><time>2026-03-24T08:33:09Z</time></trkpt>
<trkpt lat="43.0198120000" lon="0.3558320000"><ele>865</ele><time>2026-03-24T08:33:12Z</time></trkpt>
<trkpt lat="43.0198000000" lon="0.3558070000"><ele>866</ele><time>2026-03-24T08:33:14Z</time></trkpt>
<trkpt lat="43.0197800000" lon="0.3557900000"><ele>866</ele><time>2026-03-24T08:33:16Z</time></trkpt>
<trkpt lat="43.0197720000" lon="0.3557630000"><ele>866</ele><time>2026-03-24T08:33:18Z</time></trkpt>
<trkpt lat="43.0197570000" lon="0.3557470000"><ele>867</ele><time>2026-03-24T08:33:21Z</time></trkpt>
<trkpt lat="43.0197400000" lon="0.3557320000"><ele>867</ele><time>2026-03-24T08:33:24Z</time></trkpt>
<trkpt lat="43.0197200000" lon="0.3557070000"><ele>868</ele><time>2026-03-24T08:33:28Z</time></trkpt>
<trkpt lat="43.0197100000" lon="0.3556850000"><ele>868</ele><time>2026-03-24T08:33:30Z</time></trkpt>
<trkpt lat="43.0197000000" lon="0.3556520000"><ele>868</ele><time>2026-03-24T08:33:33Z</time></trkpt>
<trkpt lat="43.0196970000" lon="0.3556250000"><ele>869</ele><time>2026-03-24T08:33:36Z</time></trkpt>
<trkpt lat="43.0197070000" lon="0.3556050000"><ele>869</ele><time>2026-03-24T08:33:39Z</time></trkpt>
<trkpt lat="43.0197020000" lon="0.3555800000"><ele>869</ele><time>2026-03-24T08:33:42Z</time></trkpt>
<trkpt lat="43.0196900000" lon="0.3555570000"><ele>870</ele><time>2026-03-24T08:33:44Z</time></trkpt>
<trkpt lat="43.0196920000" lon="0.3555220000"><ele>870</ele><time>2026-03-24T08:33:48Z</time></trkpt>
<trkpt lat="43.0196870000" lon="0.3554880000"><ele>870</ele><time>2026-03-24T08:33:51Z</time></trkpt>
<trkpt lat="43.0196670000" lon="0.3554800000"><ele>871</ele><time>2026-03-24T08:33:56Z</time></trkpt>
<trkpt lat="43.0196720000" lon="0.3554520000"><ele>871</ele><time>2026-03-24T08:33:58Z</time></trkpt>
<trkpt lat="43.0196620000" lon="0.3554270000"><ele>871</ele><time>2026-03-24T08:34:01Z</time></trkpt>
<trkpt lat="43.0196570000" lon="0.3553920000"><ele>872</ele><time>2026-03-24T08:34:03Z</time></trkpt>
<trkpt lat="43.0196450000" lon="0.3553570000"><ele>872</ele><time>2026-03-24T08:34:05Z</time></trkpt>
<trkpt lat="43.0196470000" lon="0.3553220000"><ele>872</ele><time>2026-03-24T08:34:09Z</time></trkpt>
<trkpt lat="43.0196550000" lon="0.3552970000"><ele>872</ele><time>2026-03-24T08:34:11Z</time></trkpt>
<trkpt lat="43.0196520000" lon="0.3552650000"><ele>873</ele><time>2026-03-24T08:34:15Z</time></trkpt>
<trkpt lat="43.0196600000" lon="0.3552270000"><ele>873</ele><time>2026-03-24T08:34:18Z</time></trkpt>
<trkpt lat="43.0196570000" lon="0.3551970000"><ele>873</ele><time>2026-03-24T08:34:22Z</time></trkpt>
<trkpt lat="43.0196670000" lon="0.3551750000"><ele>874</ele><time>2026-03-24T08:34:26Z</time></trkpt>
<trkpt lat="43.0196620000" lon="0.3551420000"><ele>875</ele><time>2026-03-24T08:34:29Z</time></trkpt>
<trkpt lat="43.0196420000" lon="0.3551300000"><ele>875</ele><time>2026-03-24T08:34:32Z</time></trkpt>
<trkpt lat="43.0196370000" lon="0.3550950000"><ele>875</ele><time>2026-03-24T08:34:34Z</time></trkpt>
<trkpt lat="43.0196370000" lon="0.3550620000"><ele>876</ele><time>2026-03-24T08:34:38Z</time></trkpt>
<trkpt lat="43.0196220000" lon="0.3550470000"><ele>876</ele><time>2026-03-24T08:34:39Z</time></trkpt>
<trkpt lat="43.0196050000" lon="0.3550220000"><ele>876</ele><time>2026-03-24T08:34:41Z</time></trkpt>
<trkpt lat="43.0196070000" lon="0.3549870000"><ele>876</ele><time>2026-03-24T08:34:43Z</time></trkpt>
<trkpt lat="43.0195970000" lon="0.3549670000"><ele>876</ele><time>2026-03-24T08:34:47Z</time></trkpt>
<trkpt lat="43.0195770000" lon="0.3549420000"><ele>877</ele><time>2026-03-24T08:34:50Z</time></trkpt>
<trkpt lat="43.0195870000" lon="0.3549130000"><ele>877</ele><time>2026-03-24T08:34:56Z</time></trkpt>
<trkpt lat="43.0196070000" lon="0.3548870000"><ele>878</ele><time>2026-03-24T08:34:59Z</time></trkpt>
<trkpt lat="43.0195980000" lon="0.3548620000"><ele>878</ele><time>2026-03-24T08:35:01Z</time></trkpt>
<trkpt lat="43.0195970000" lon="0.3548370000"><ele>878</ele><time>2026-03-24T08:35:03Z</time></trkpt>
<trkpt lat="43.0195900000" lon="0.3548120000"><ele>878</ele><time>2026-03-24T08:35:05Z</time></trkpt>
<trkpt lat="43.0195850000" lon="0.3547770000"><ele>879</ele><time>2026-03-24T08:35:08Z</time></trkpt>
<trkpt lat="43.0195670000" lon="0.3547520000"><ele>879</ele><time>2026-03-24T08:35:11Z</time></trkpt>
<trkpt lat="43.0195670000" lon="0.3547250000"><ele>879</ele><time>2026-03-24T08:35:13Z</time></trkpt>
<trkpt lat="43.0195620000" lon="0.3546970000"><ele>880</ele><time>2026-03-24T08:35:15Z</time></trkpt>
<trkpt lat="43.0195520000" lon="0.3546650000"><ele>880</ele><time>2026-03-24T08:35:18Z</time></trkpt>
<trkpt lat="43.0195450000" lon="0.3546300000"><ele>880</ele><time>2026-03-24T08:35:20Z</time></trkpt>
<trkpt lat="43.0195420000" lon="0.3545970000"><ele>881</ele><time>2026-03-24T08:35:24Z</time></trkpt>
<trkpt lat="43.0195320000" lon="0.3545750000"><ele>881</ele><time>2026-03-24T08:35:26Z</time></trkpt>
<trkpt lat="43.0195270000" lon="0.3545470000"><ele>882</ele><time>2026-03-24T08:35:30Z</time></trkpt>
<trkpt lat="43.0195100000" lon="0.3545300000"><ele>882</ele><time>2026-03-24T08:35:32Z</time></trkpt>
<trkpt lat="43.0195070000" lon="0.3545020000"><ele>882</ele><time>2026-03-24T08:35:34Z</time></trkpt>
<trkpt lat="43.0195120000" lon="0.3544620000"><ele>883</ele><time>2026-03-24T08:35:37Z</time></trkpt>
<trkpt lat="43.0195220000" lon="0.3544320000"><ele>883</ele><time>2026-03-24T08:35:38Z</time></trkpt>
<trkpt lat="43.0195320000" lon="0.3544070000"><ele>883</ele><time>2026-03-24T08:35:40Z</time></trkpt>
<trkpt lat="43.0195170000" lon="0.3543770000"><ele>883</ele><time>2026-03-24T08:35:43Z</time></trkpt>
<trkpt lat="43.0195050000" lon="0.3543520000"><ele>884</ele><time>2026-03-24T08:35:47Z</time></trkpt>
<trkpt lat="43.0195020000" lon="0.3543150000"><ele>884</ele><time>2026-03-24T08:35:51Z</time></trkpt>
<trkpt lat="43.0195070000" lon="0.3542870000"><ele>885</ele><time>2026-03-24T08:35:54Z</time></trkpt>
<trkpt lat="43.0195120000" lon="0.3542620000"><ele>885</ele><time>2026-03-24T08:35:56Z</time></trkpt>
<trkpt lat="43.0195020000" lon="0.3542320000"><ele>885</ele><time>2026-03-24T08:36:00Z</time></trkpt>
<trkpt lat="43.0195050000" lon="0.3542070000"><ele>886</ele><time>2026-03-24T08:36:02Z</time></trkpt>
<trkpt lat="43.0194970000" lon="0.3541750000"><ele>886</ele><time>2026-03-24T08:36:05Z</time></trkpt>
<trkpt lat="43.0195050000" lon="0.3541500000"><ele>886</ele><time>2026-03-24T08:36:08Z</time></trkpt>
<trkpt lat="43.0195050000" lon="0.3541250000"><ele>886</ele><time>2026-03-24T08:36:10Z</time></trkpt>
<trkpt lat="43.0195070000" lon="0.3540920000"><ele>887</ele><time>2026-03-24T08:36:14Z</time></trkpt>
<trkpt lat="43.0195120000" lon="0.3540670000"><ele>887</ele><time>2026-03-24T08:36:17Z</time></trkpt>
<trkpt lat="43.0195220000" lon="0.3540450000"><ele>887</ele><time>2026-03-24T08:36:20Z</time></trkpt>
<trkpt lat="43.0195270000" lon="0.3540120000"><ele>888</ele><time>2026-03-24T08:36:23Z</time></trkpt>
<trkpt lat="43.0195320000" lon="0.3539820000"><ele>888</ele><time>2026-03-24T08:36:25Z</time></trkpt>
<trkpt lat="43.0195320000" lon="0.3539470000"><ele>888</ele><time>2026-03-24T08:36:28Z</time></trkpt>
<trkpt lat="43.0195300000" lon="0.3539050000"><ele>888</ele><time>2026-03-24T08:36:31Z</time></trkpt>
<trkpt lat="43.0195270000" lon="0.3538670000"><ele>889</ele><time>2026-03-24T08:36:33Z</time></trkpt>
<trkpt lat="43.0195170000" lon="0.3538450000"><ele>889</ele><time>2026-03-24T08:36:35Z</time></trkpt>
<trkpt lat="43.0195120000" lon="0.3538100000"><ele>889</ele><time>2026-03-24T08:36:37Z</time></trkpt>
<trkpt lat="43.0195070000" lon="0.3537870000"><ele>889</ele><time>2026-03-24T08:36:40Z</time></trkpt>
<trkpt lat="43.0195000000" lon="0.3537620000"><ele>890</ele><time>2026-03-24T08:36:42Z</time></trkpt>
<trkpt lat="43.0194970000" lon="0.3537320000"><ele>890</ele><time>2026-03-24T08:36:46Z</time></trkpt>
<trkpt lat="43.0194970000" lon="0.3537000000"><ele>891</ele><time>2026-03-24T08:36:48Z</time></trkpt>
<trkpt lat="43.0194950000" lon="0.3536620000"><ele>891</ele><time>2026-03-24T08:36:51Z</time></trkpt>
<trkpt lat="43.0194920000" lon="0.3536330000"><ele>891</ele><time>2026-03-24T08:36:54Z</time></trkpt>
<trkpt lat="43.0195020000" lon="0.3536070000"><ele>892</ele><time>2026-03-24T08:36:57Z</time></trkpt>
<trkpt lat="43.0195020000" lon="0.3535820000"><ele>892</ele><time>2026-03-24T08:36:59Z</time></trkpt>
<trkpt lat="43.0195000000" lon="0.3535480000"><ele>892</ele><time>2026-03-24T08:37:01Z</time></trkpt>
<trkpt lat="43.0194920000" lon="0.3535100000"><ele>893</ele><time>2026-03-24T08:37:05Z</time></trkpt>
<trkpt lat="43.0194850000" lon="0.3534850000"><ele>893</ele><time>2026-03-24T08:37:08Z</time></trkpt>
<trkpt lat="43.0194800000" lon="0.3534570000"><ele>893</ele><time>2026-03-24T08:37:11Z</time></trkpt>
<trkpt lat="43.0194950000" lon="0.3534370000"><ele>894</ele><time>2026-03-24T08:37:14Z</time></trkpt>
<trkpt lat="43.0195020000" lon="0.3534070000"><ele>894</ele><time>2026-03-24T08:37:17Z</time></trkpt>
<trkpt lat="43.0194970000" lon="0.3533750000"><ele>894</ele><time>2026-03-24T08:37:20Z</time></trkpt>
<trkpt lat="43.0194920000" lon="0.3533420000"><ele>895</ele><time>2026-03-24T08:37:23Z</time></trkpt>
<trkpt lat="43.0194870000" lon="0.3533120000"><ele>895</ele><time>2026-03-24T08:37:26Z</time></trkpt>
<trkpt lat="43.0194820000" lon="0.3532870000"><ele>896</ele><time>2026-03-24T08:37:29Z</time></trkpt>
<trkpt lat="43.0194770000" lon="0.3532530000"><ele>896</ele><time>2026-03-24T08:37:32Z</time></trkpt>
<trkpt lat="43.0194720000" lon="0.3532270000"><ele>896</ele><time>2026-03-24T08:37:36Z</time></trkpt>
<trkpt lat="43.0194670000" lon="0.3532020000"><ele>896</ele><time>2026-03-24T08:37:39Z</time></trkpt>
<trkpt lat="43.0194550000" lon="0.3531870000"><ele>897</ele><time>2026-03-24T08:37:42Z</time></trkpt>
<trkpt lat="43.0194400000" lon="0.3531570000"><ele>897</ele><time>2026-03-24T08:37:50Z</time></trkpt>
<trkpt lat="43.0194270000" lon="0.3531220000"><ele>898</ele><time>2026-03-24T08:37:52Z</time></trkpt>
<trkpt lat="43.0194200000" lon="0.3530870000"><ele>898</ele><time>2026-03-24T08:37:54Z</time></trkpt>
<trkpt lat="43.0194170000" lon="0.3530620000"><ele>898</ele><time>2026-03-24T08:37:56Z</time></trkpt>
<trkpt lat="43.0194250000" lon="0.3530330000"><ele>899</ele><time>2026-03-24T08:37:59Z</time></trkpt>
<trkpt lat="43.0194270000" lon="0.3530070000"><ele>899</ele><time>2026-03-24T08:38:01Z</time></trkpt>
<trkpt lat="43.0194300000" lon="0.3529800000"><ele>899</ele><time>2026-03-24T08:38:03Z</time></trkpt>
<trkpt lat="43.0194400000" lon="0.3529520000"><ele>899</ele><time>2026-03-24T08:38:05Z</time></trkpt>
<trkpt lat="43.0194420000" lon="0.3529250000"><ele>899</ele><time>2026-03-24T08:38:07Z</time></trkpt>
<trkpt lat="43.0194320000" lon="0.3528920000"><ele>900</ele><time>2026-03-24T08:38:10Z</time></trkpt>
<trkpt lat="43.0194270000" lon="0.3528570000"><ele>900</ele><time>2026-03-24T08:38:13Z</time></trkpt>
<trkpt lat="43.0194200000" lon="0.3528350000"><ele>900</ele><time>2026-03-24T08:38:15Z</time></trkpt>
<trkpt lat="43.0194120000" lon="0.3528020000"><ele>901</ele><time>2026-03-24T08:38:18Z</time></trkpt>
<trkpt lat="43.0194170000" lon="0.3527770000"><ele>901</ele><time>2026-03-24T08:38:21Z</time></trkpt>
<trkpt lat="43.0194270000" lon="0.3527520000"><ele>901</ele><time>2026-03-24T08:38:24Z</time></trkpt>
<trkpt lat="43.0194170000" lon="0.3527200000"><ele>902</ele><time>2026-03-24T08:38:27Z</time></trkpt>
<trkpt lat="43.0194070000" lon="0.3526970000"><ele>902</ele><time>2026-03-24T08:38:29Z</time></trkpt>
<trkpt lat="43.0194170000" lon="0.3526670000"><ele>902</ele><time>2026-03-24T08:38:32Z</time></trkpt>
<trkpt lat="43.0194270000" lon="0.3526420000"><ele>902</ele><time>2026-03-24T08:38:34Z</time></trkpt>
<trkpt lat="43.0194400000" lon="0.3526080000"><ele>903</ele><time>2026-03-24T08:38:36Z</time></trkpt>
<trkpt lat="43.0194470000" lon="0.3525870000"><ele>903</ele><time>2026-03-24T08:38:38Z</time></trkpt>
<trkpt lat="43.0194470000" lon="0.3525570000"><ele>903</ele><time>2026-03-24T08:38:41Z</time></trkpt>
<trkpt lat="43.0194570000" lon="0.3525270000"><ele>904</ele><time>2026-03-24T08:38:44Z</time></trkpt>
<trkpt lat="43.0194720000" lon="0.3524970000"><ele>904</ele><time>2026-03-24T08:38:47Z</time></trkpt>
<trkpt lat="43.0194800000" lon="0.3524620000"><ele>904</ele><time>2026-03-24T08:38:50Z</time></trkpt>
<trkpt lat="43.0194970000" lon="0.3524320000"><ele>905</ele><time>2026-03-24T08:38:53Z</time></trkpt>
<trkpt lat="43.0195050000" lon="0.3524020000"><ele>905</ele><time>2026-03-24T08:38:56Z</time></trkpt>
<trkpt lat="43.0195120000" lon="0.3523800000"><ele>905</ele><time>2026-03-24T08:38:58Z</time></trkpt>
<trkpt lat="43.0195120000" lon="0.3523420000"><ele>906</ele><time>2026-03-24T08:39:01Z</time></trkpt>
<trkpt lat="43.0195100000" lon="0.3523120000"><ele>906</ele><time>2026-03-24T08:39:03Z</time></trkpt>
<trkpt lat="43.0195100000" lon="0.3522780000"><ele>906</ele><time>2026-03-24T08:39:06Z</time></trkpt>
<trkpt lat="43.0195220000" lon="0.3522520000"><ele>906</ele><time>2026-03-24T08:39:09Z</time></trkpt>
<trkpt lat="43.0195220000" lon="0.3522270000"><ele>906</ele><time>2026-03-24T08:39:11Z</time></trkpt>
<trkpt lat="43.0195250000" lon="0.3521930000"><ele>907</ele><time>2026-03-24T08:39:14Z</time></trkpt>
<trkpt lat="43.0195370000" lon="0.3521650000"><ele>907</ele><time>2026-03-24T08:39:17Z</time></trkpt>
<trkpt lat="43.0195570000" lon="0.3521430000"><ele>907</ele><time>2026-03-24T08:39:19Z</time></trkpt>
<trkpt lat="43.0195770000" lon="0.3521330000"><ele>908</ele><time>2026-03-24T08:39:21Z</time></trkpt>
<trkpt lat="43.0195970000" lon="0.3521070000"><ele>908</ele><time>2026-03-24T08:39:24Z</time></trkpt>
<trkpt lat="43.0196120000" lon="0.3520850000"><ele>908</ele><time>2026-03-24T08:39:26Z</time></trkpt>
<trkpt lat="43.0196200000" lon="0.3520580000"><ele>908</ele><time>2026-03-24T08:39:28Z</time></trkpt>
<trkpt lat="43.0196300000" lon="0.3520370000"><ele>909</ele><time>2026-03-24T08:39:31Z</time></trkpt>
<trkpt lat="43.0196520000" lon="0.3520170000"><ele>909</ele><time>2026-03-24T08:39:34Z</time></trkpt>
<trkpt lat="43.0196570000" lon="0.3519850000"><ele>909</ele><time>2026-03-24T08:39:37Z</time></trkpt>
<trkpt lat="43.0196620000" lon="0.3519520000"><ele>910</ele><time>2026-03-24T08:39:40Z</time></trkpt>
<trkpt lat="43.0196820000" lon="0.3519350000"><ele>910</ele><time>2026-03-24T08:39:43Z</time></trkpt>
<trkpt lat="43.0197020000" lon="0.3519270000"><ele>910</ele><time>2026-03-24T08:39:46Z</time></trkpt>
<trkpt lat="43.0197220000" lon="0.3519070000"><ele>911</ele><time>2026-03-24T08:39:49Z</time></trkpt>
<trkpt lat="43.0197420000" lon="0.3518870000"><ele>911</ele><time>2026-03-24T08:39:52Z</time></trkpt>
<trkpt lat="43.0197570000" lon="0.3518620000"><ele>912</ele><time>2026-03-24T08:39:56Z</time></trkpt>
<trkpt lat="43.0197720000" lon="0.3518420000"><ele>912</ele><time>2026-03-24T08:39:58Z</time></trkpt>
<trkpt lat="43.0197900000" lon="0.3518220000"><ele>912</ele><time>2026-03-24T08:40:00Z</time></trkpt>
<trkpt lat="43.0198070000" lon="0.3518070000"><ele>912</ele><time>2026-03-24T08:40:03Z</time></trkpt>
<trkpt lat="43.0198200000" lon="0.3517770000"><ele>912</ele><time>2026-03-24T08:40:06Z</time></trkpt>
<trkpt lat="43.0198370000" lon="0.3517650000"><ele>913</ele><time>2026-03-24T08:40:08Z</time></trkpt>
<trkpt lat="43.0198550000" lon="0.3517470000"><ele>913</ele><time>2026-03-24T08:40:11Z</time></trkpt>
<trkpt lat="43.0198670000" lon="0.3517270000"><ele>913</ele><time>2026-03-24T08:40:13Z</time></trkpt>
<trkpt lat="43.0198620000" lon="0.3517020000"><ele>913</ele><time>2026-03-24T08:40:15Z</time></trkpt>
<trkpt lat="43.0198770000" lon="0.3516770000"><ele>914</ele><time>2026-03-24T08:40:19Z</time></trkpt>
<trkpt lat="43.0198920000" lon="0.3516600000"><ele>914</ele><time>2026-03-24T08:40:22Z</time></trkpt>
<trkpt lat="43.0199170000" lon="0.3516420000"><ele>914</ele><time>2026-03-24T08:40:24Z</time></trkpt>
<trkpt lat="43.0199370000" lon="0.3516320000"><ele>915</ele><time>2026-03-24T08:40:27Z</time></trkpt>
<trkpt lat="43.0199570000" lon="0.3516370000"><ele>915</ele><time>2026-03-24T08:40:31Z</time></trkpt>
<trkpt lat="43.0199750000" lon="0.3516200000"><ele>915</ele><time>2026-03-24T08:40:34Z</time></trkpt>
<trkpt lat="43.0199920000" lon="0.3516020000"><ele>916</ele><time>2026-03-24T08:40:39Z</time></trkpt>
<trkpt lat="43.0199870000" lon="0.3515720000"><ele>916</ele><time>2026-03-24T08:40:43Z</time></trkpt>
<trkpt lat="43.0199970000" lon="0.3515450000"><ele>916</ele><time>2026-03-24T08:40:46Z</time></trkpt>
<trkpt lat="43.0200170000" lon="0.3515400000"><ele>916</ele><time>2026-03-24T08:40:51Z</time></trkpt>
<trkpt lat="43.0200350000" lon="0.3515520000"><ele>916</ele><time>2026-03-24T08:40:53Z</time></trkpt>
<trkpt lat="43.0200370000" lon="0.3515220000"><ele>917</ele><time>2026-03-24T08:41:13Z</time></trkpt>
<trkpt lat="43.0200550000" lon="0.3514920000"><ele>917</ele><time>2026-03-24T08:41:16Z</time></trkpt>
<trkpt lat="43.0200570000" lon="0.3514620000"><ele>917</ele><time>2026-03-24T08:41:18Z</time></trkpt>
<trkpt lat="43.0200720000" lon="0.3514420000"><ele>917</ele><time>2026-03-24T08:41:22Z</time></trkpt>
<trkpt lat="43.0200920000" lon="0.3514270000"><ele>918</ele><time>2026-03-24T08:41:25Z</time></trkpt>
<trkpt lat="43.0201100000" lon="0.3514050000"><ele>918</ele><time>2026-03-24T08:41:28Z</time></trkpt>
<trkpt lat="43.0201300000" lon="0.3513850000"><ele>918</ele><time>2026-03-24T08:41:31Z</time></trkpt>
<trkpt lat="43.0201450000" lon="0.3513700000"><ele>919</ele><time>2026-03-24T08:41:34Z</time></trkpt>
<trkpt lat="43.0201450000" lon="0.3513270000"><ele>919</ele><time>2026-03-24T08:41:36Z</time></trkpt>
<trkpt lat="43.0201370000" lon="0.3512920000"><ele>919</ele><time>2026-03-24T08:41:40Z</time></trkpt>
<trkpt lat="43.0201470000" lon="0.3512670000"><ele>920</ele><time>2026-03-24T08:41:43Z</time></trkpt>
<trkpt lat="43.0201650000" lon="0.3512450000"><ele>920</ele><time>2026-03-24T08:41:45Z</time></trkpt>
<trkpt lat="43.0201920000" lon="0.3512270000"><ele>920</ele><time>2026-03-24T08:41:48Z</time></trkpt>
<trkpt lat="43.0202120000" lon="0.3512120000"><ele>921</ele><time>2026-03-24T08:41:51Z</time></trkpt>
<trkpt lat="43.0202270000" lon="0.3511970000"><ele>921</ele><time>2026-03-24T08:41:53Z</time></trkpt>
<trkpt lat="43.0202400000" lon="0.3511770000"><ele>921</ele><time>2026-03-24T08:41:55Z</time></trkpt>
<trkpt lat="43.0202520000" lon="0.3511570000"><ele>921</ele><time>2026-03-24T08:41:57Z</time></trkpt>
<trkpt lat="43.0202600000" lon="0.3511270000"><ele>922</ele><time>2026-03-24T08:41:59Z</time></trkpt>
<trkpt lat="43.0202720000" lon="0.3510970000"><ele>922</ele><time>2026-03-24T08:42:02Z</time></trkpt>
<trkpt lat="43.0202800000" lon="0.3510620000"><ele>922</ele><time>2026-03-24T08:42:06Z</time></trkpt>
<trkpt lat="43.0202970000" lon="0.3510370000"><ele>923</ele><time>2026-03-24T08:42:09Z</time></trkpt>
<trkpt lat="43.0203200000" lon="0.3510270000"><ele>923</ele><time>2026-03-24T08:42:11Z</time></trkpt>
<trkpt lat="43.0203370000" lon="0.3510120000"><ele>923</ele><time>2026-03-24T08:42:13Z</time></trkpt>
<trkpt lat="43.0203520000" lon="0.3509900000"><ele>924</ele><time>2026-03-24T08:42:16Z</time></trkpt>
<trkpt lat="43.0203670000" lon="0.3509650000"><ele>924</ele><time>2026-03-24T08:42:20Z</time></trkpt>
<trkpt lat="43.0203850000" lon="0.3509420000"><ele>925</ele><time>2026-03-24T08:42:23Z</time></trkpt>
<trkpt lat="43.0203950000" lon="0.3509120000"><ele>925</ele><time>2026-03-24T08:42:26Z</time></trkpt>
<trkpt lat="43.0204020000" lon="0.3508770000"><ele>925</ele><time>2026-03-24T08:42:30Z</time></trkpt>
<trkpt lat="43.0204200000" lon="0.3508620000"><ele>926</ele><time>2026-03-24T08:42:33Z</time></trkpt>
<trkpt lat="43.0204270000" lon="0.3508370000"><ele>926</ele><time>2026-03-24T08:42:35Z</time></trkpt>
<trkpt lat="43.0204400000" lon="0.3508170000"><ele>926</ele><time>2026-03-24T08:42:37Z</time></trkpt>
<trkpt lat="43.0204620000" lon="0.3507950000"><ele>926</ele><time>2026-03-24T08:42:39Z</time></trkpt>
<trkpt lat="43.0204770000" lon="0.3507770000"><ele>927</ele><time>2026-03-24T08:42:41Z</time></trkpt>
<trkpt lat="43.0204900000" lon="0.3507970000"><ele>927</ele><time>2026-03-24T08:42:55Z</time></trkpt>
<trkpt lat="43.0205120000" lon="0.3508020000"><ele>927</ele><time>2026-03-24T08:43:01Z</time></trkpt>
<trkpt lat="43.0205320000" lon="0.3508220000"><ele>927</ele><time>2026-03-24T08:43:03Z</time></trkpt>
<trkpt lat="43.0205270000" lon="0.3507900000"><ele>927</ele><time>2026-03-24T08:43:44Z</time></trkpt>
<trkpt lat="43.0205300000" lon="0.3507530000"><ele>928</ele><time>2026-03-24T08:43:46Z</time></trkpt>
<trkpt lat="43.0205450000" lon="0.3507220000"><ele>928</ele><time>2026-03-24T08:43:49Z</time></trkpt>
<trkpt lat="43.0205570000" lon="0.3507050000"><ele>928</ele><time>2026-03-24T08:43:51Z</time></trkpt>
<trkpt lat="43.0205770000" lon="0.3507050000"><ele>929</ele><time>2026-03-24T08:43:53Z</time></trkpt>
<trkpt lat="43.0205950000" lon="0.3506950000"><ele>929</ele><time>2026-03-24T08:43:55Z</time></trkpt>
<trkpt lat="43.0206170000" lon="0.3506770000"><ele>929</ele><time>2026-03-24T08:43:58Z</time></trkpt>
<trkpt lat="43.0206370000" lon="0.3506620000"><ele>929</ele><time>2026-03-24T08:44:00Z</time></trkpt>
<trkpt lat="43.0206600000" lon="0.3506570000"><ele>930</ele><time>2026-03-24T08:44:02Z</time></trkpt>
<trkpt lat="43.0206770000" lon="0.3506450000"><ele>930</ele><time>2026-03-24T08:44:04Z</time></trkpt>
<trkpt lat="43.0206970000" lon="0.3506270000"><ele>931</ele><time>2026-03-24T08:44:07Z</time></trkpt>
<trkpt lat="43.0207100000" lon="0.3506070000"><ele>931</ele><time>2026-03-24T08:44:09Z</time></trkpt>
<trkpt lat="43.0207250000" lon="0.3505900000"><ele>931</ele><time>2026-03-24T08:44:12Z</time></trkpt>
<trkpt lat="43.0207470000" lon="0.3505830000"><ele>932</ele><time>2026-03-24T08:44:15Z</time></trkpt>
<trkpt lat="43.0207620000" lon="0.3505670000"><ele>932</ele><time>2026-03-24T08:44:18Z</time></trkpt>
<trkpt lat="43.0207870000" lon="0.3505470000"><ele>933</ele><time>2026-03-24T08:44:21Z</time></trkpt>
<trkpt lat="43.0208070000" lon="0.3505300000"><ele>933</ele><time>2026-03-24T08:44:23Z</time></trkpt>
<trkpt lat="43.0208270000" lon="0.3505120000"><ele>933</ele><time>2026-03-24T08:44:26Z</time></trkpt>
<trkpt lat="43.0208420000" lon="0.3504970000"><ele>934</ele><time>2026-03-24T08:44:28Z</time></trkpt>
<trkpt lat="43.0208620000" lon="0.3504770000"><ele>934</ele><time>2026-03-24T08:44:30Z</time></trkpt>
<trkpt lat="43.0208820000" lon="0.3504620000"><ele>934</ele><time>2026-03-24T08:44:32Z</time></trkpt>
<trkpt lat="43.0209100000" lon="0.3504520000"><ele>934</ele><time>2026-03-24T08:44:34Z</time></trkpt>
<trkpt lat="43.0209320000" lon="0.3504420000"><ele>935</ele><time>2026-03-24T08:44:37Z</time></trkpt>
<trkpt lat="43.0209500000" lon="0.3504270000"><ele>935</ele><time>2026-03-24T08:44:41Z</time></trkpt>
<trkpt lat="43.0209620000" lon="0.3504100000"><ele>935</ele><time>2026-03-24T08:44:44Z</time></trkpt>
<trkpt lat="43.0209820000" lon="0.3503920000"><ele>936</ele><time>2026-03-24T08:44:46Z</time></trkpt>
<trkpt lat="43.0209920000" lon="0.3503670000"><ele>936</ele><time>2026-03-24T08:44:49Z</time></trkpt>
<trkpt lat="43.0210120000" lon="0.3503670000"><ele>937</ele><time>2026-03-24T08:44:54Z</time></trkpt>
<trkpt lat="43.0210420000" lon="0.3503720000"><ele>937</ele><time>2026-03-24T08:44:56Z</time></trkpt>
<trkpt lat="43.0210700000" lon="0.3503720000"><ele>937</ele><time>2026-03-24T08:44:58Z</time></trkpt>
<trkpt lat="43.0210870000" lon="0.3503520000"><ele>938</ele><time>2026-03-24T08:45:01Z</time></trkpt>
<trkpt lat="43.0211120000" lon="0.3503420000"><ele>938</ele><time>2026-03-24T08:45:04Z</time></trkpt>
<trkpt lat="43.0211450000" lon="0.3503380000"><ele>938</ele><time>2026-03-24T08:45:07Z</time></trkpt>
<trkpt lat="43.0211750000" lon="0.3503350000"><ele>939</ele><time>2026-03-24T08:45:09Z</time></trkpt>
<trkpt lat="43.0211970000" lon="0.3503520000"><ele>939</ele><time>2026-03-24T08:45:12Z</time></trkpt>
<trkpt lat="43.0212170000" lon="0.3503520000"><ele>939</ele><time>2026-03-24T08:45:14Z</time></trkpt>
<trkpt lat="43.0212450000" lon="0.3503420000"><ele>939</ele><time>2026-03-24T08:45:16Z</time></trkpt>
<trkpt lat="43.0212670000" lon="0.3503350000"><ele>940</ele><time>2026-03-24T08:45:20Z</time></trkpt>
<trkpt lat="43.0212870000" lon="0.3503450000"><ele>940</ele><time>2026-03-24T08:45:22Z</time></trkpt>
<trkpt lat="43.0212770000" lon="0.3503700000"><ele>941</ele><time>2026-03-24T08:45:26Z</time></trkpt>
<trkpt lat="43.0213100000" lon="0.3503470000"><ele>942</ele><time>2026-03-24T08:45:43Z</time></trkpt>
<trkpt lat="43.0213300000" lon="0.3503270000"><ele>942</ele><time>2026-03-24T08:45:44Z</time></trkpt>
<trkpt lat="43.0213520000" lon="0.3503070000"><ele>942</ele><time>2026-03-24T08:45:45Z</time></trkpt>
<trkpt lat="43.0213770000" lon="0.3502850000"><ele>942</ele><time>2026-03-24T08:45:46Z</time></trkpt>
<trkpt lat="43.0214000000" lon="0.3502630000"><ele>942</ele><time>2026-03-24T08:45:47Z</time></trkpt>
<trkpt lat="43.0214170000" lon="0.3502520000"><ele>942</ele><time>2026-03-24T08:45:48Z</time></trkpt>
<trkpt lat="43.0214400000" lon="0.3502370000"><ele>943</ele><time>2026-03-24T08:45:50Z</time></trkpt>
<trkpt lat="43.0214570000" lon="0.3502250000"><ele>943</ele><time>2026-03-24T08:45:53Z</time></trkpt>
<trkpt lat="43.0214770000" lon="0.3502300000"><ele>943</ele><time>2026-03-24T08:45:56Z</time></trkpt>
<trkpt lat="43.0214920000" lon="0.3502120000"><ele>943</ele><time>2026-03-24T08:45:59Z</time></trkpt>
<trkpt lat="43.0215150000" lon="0.3501900000"><ele>944</ele><time>2026-03-24T08:46:01Z</time></trkpt>
<trkpt lat="43.0215320000" lon="0.3501770000"><ele>944</ele><time>2026-03-24T08:46:03Z</time></trkpt>
<trkpt lat="43.0215520000" lon="0.3501720000"><ele>944</ele><time>2026-03-24T08:46:05Z</time></trkpt>
<trkpt lat="43.0215680000" lon="0.3501620000"><ele>945</ele><time>2026-03-24T08:46:09Z</time></trkpt>
<trkpt lat="43.0215920000" lon="0.3501500000"><ele>945</ele><time>2026-03-24T08:46:12Z</time></trkpt>
<trkpt lat="43.0216070000" lon="0.3501350000"><ele>945</ele><time>2026-03-24T08:46:14Z</time></trkpt>
<trkpt lat="43.0216250000" lon="0.3501120000"><ele>945</ele><time>2026-03-24T08:46:18Z</time></trkpt>
<trkpt lat="43.0216350000" lon="0.3500870000"><ele>946</ele><time>2026-03-24T08:46:20Z</time></trkpt>
<trkpt lat="43.0216520000" lon="0.3500720000"><ele>946</ele><time>2026-03-24T08:46:22Z</time></trkpt>
<trkpt lat="43.0216700000" lon="0.3500520000"><ele>946</ele><time>2026-03-24T08:46:25Z</time></trkpt>
<trkpt lat="43.0216720000" lon="0.3500270000"><ele>947</ele><time>2026-03-24T08:46:27Z</time></trkpt>
<trkpt lat="43.0216770000" lon="0.3500050000"><ele>947</ele><time>2026-03-24T08:46:29Z</time></trkpt>
<trkpt lat="43.0216820000" lon="0.3499770000"><ele>947</ele><time>2026-03-24T08:46:32Z</time></trkpt>
<trkpt lat="43.0217000000" lon="0.3499520000"><ele>947</ele><time>2026-03-24T08:46:35Z</time></trkpt>
<trkpt lat="43.0216950000" lon="0.3499220000"><ele>948</ele><time>2026-03-24T08:46:38Z</time></trkpt>
<trkpt lat="43.0217050000" lon="0.3499020000"><ele>948</ele><time>2026-03-24T08:46:40Z</time></trkpt>
<trkpt lat="43.0217170000" lon="0.3498800000"><ele>948</ele><time>2026-03-24T08:46:42Z</time></trkpt>
<trkpt lat="43.0217300000" lon="0.3498500000"><ele>949</ele><time>2026-03-24T08:46:45Z</time></trkpt>
<trkpt lat="43.0217470000" lon="0.3498370000"><ele>949</ele><time>2026-03-24T08:46:47Z</time></trkpt>
<trkpt lat="43.0217620000" lon="0.3498200000"><ele>949</ele><time>2026-03-24T08:46:49Z</time></trkpt>
<trkpt lat="43.0217770000" lon="0.3497970000"><ele>950</ele><time>2026-03-24T08:46:52Z</time></trkpt>
<trkpt lat="43.0217920000" lon="0.3497700000"><ele>950</ele><time>2026-03-24T08:46:55Z</time></trkpt>
<trkpt lat="43.0218170000" lon="0.3497620000"><ele>950</ele><time>2026-03-24T08:46:57Z</time></trkpt>
<trkpt lat="43.0218370000" lon="0.3497570000"><ele>950</ele><time>2026-03-24T08:46:58Z</time></trkpt>
<trkpt lat="43.0218570000" lon="0.3497570000"><ele>950</ele><time>2026-03-24T08:47:00Z</time></trkpt>
<trkpt lat="43.0218770000" lon="0.3497470000"><ele>950</ele><time>2026-03-24T08:47:02Z</time></trkpt>
<trkpt lat="43.0219020000" lon="0.3497470000"><ele>951</ele><time>2026-03-24T08:47:05Z</time></trkpt>
<trkpt lat="43.0219220000" lon="0.3497570000"><ele>951</ele><time>2026-03-24T08:47:07Z</time></trkpt>
<trkpt lat="43.0219420000" lon="0.3497620000"><ele>951</ele><time>2026-03-24T08:47:09Z</time></trkpt>
<trkpt lat="43.0219620000" lon="0.3497570000"><ele>952</ele><time>2026-03-24T08:47:12Z</time></trkpt>
<trkpt lat="43.0219820000" lon="0.3497470000"><ele>952</ele><time>2026-03-24T08:47:15Z</time></trkpt>
<trkpt lat="43.0220020000" lon="0.3497350000"><ele>952</ele><time>2026-03-24T08:47:18Z</time></trkpt>
<trkpt lat="43.0220250000" lon="0.3497170000"><ele>953</ele><time>2026-03-24T08:47:21Z</time></trkpt>
<trkpt lat="43.0220420000" lon="0.3497020000"><ele>953</ele><time>2026-03-24T08:47:23Z</time></trkpt>
<trkpt lat="43.0220620000" lon="0.3496870000"><ele>953</ele><time>2026-03-24T08:47:26Z</time></trkpt>
<trkpt lat="43.0220770000" lon="0.3496720000"><ele>954</ele><time>2026-03-24T08:47:29Z</time></trkpt>
<trkpt lat="43.0220970000" lon="0.3496520000"><ele>954</ele><time>2026-03-24T08:47:32Z</time></trkpt>
<trkpt lat="43.0221120000" lon="0.3496370000"><ele>954</ele><time>2026-03-24T08:47:36Z</time></trkpt>
<trkpt lat="43.0221350000" lon="0.3496270000"><ele>955</ele><time>2026-03-24T08:47:39Z</time></trkpt>
<trkpt lat="43.0221470000" lon="0.3496070000"><ele>955</ele><time>2026-03-24T08:47:42Z</time></trkpt>
<trkpt lat="43.0221600000" lon="0.3495870000"><ele>955</ele><time>2026-03-24T08:47:44Z</time></trkpt>
<trkpt lat="43.0221730000" lon="0.3495720000"><ele>956</ele><time>2026-03-24T08:47:46Z</time></trkpt>
<trkpt lat="43.0222000000" lon="0.3495550000"><ele>956</ele><time>2026-03-24T08:47:49Z</time></trkpt>
<trkpt lat="43.0222200000" lon="0.3495370000"><ele>957</ele><time>2026-03-24T08:47:52Z</time></trkpt>
<trkpt lat="43.0222370000" lon="0.3495320000"><ele>957</ele><time>2026-03-24T08:47:55Z</time></trkpt>
<trkpt lat="43.0222570000" lon="0.3495220000"><ele>957</ele><time>2026-03-24T08:47:57Z</time></trkpt>
<trkpt lat="43.0222750000" lon="0.3495320000"><ele>957</ele><time>2026-03-24T08:47:59Z</time></trkpt>
<trkpt lat="43.0222920000" lon="0.3495400000"><ele>958</ele><time>2026-03-24T08:48:02Z</time></trkpt>
<trkpt lat="43.0223070000" lon="0.3495170000"><ele>958</ele><time>2026-03-24T08:48:05Z</time></trkpt>
<trkpt lat="43.0223170000" lon="0.3494950000"><ele>958</ele><time>2026-03-24T08:48:07Z</time></trkpt>
<trkpt lat="43.0223270000" lon="0.3494700000"><ele>958</ele><time>2026-03-24T08:48:08Z</time></trkpt>
<trkpt lat="43.0223500000" lon="0.3494420000"><ele>958</ele><time>2026-03-24T08:48:10Z</time></trkpt>
<trkpt lat="43.0223700000" lon="0.3494120000"><ele>959</ele><time>2026-03-24T08:48:12Z</time></trkpt>
<trkpt lat="43.0223920000" lon="0.3494020000"><ele>959</ele><time>2026-03-24T08:48:14Z</time></trkpt>
<trkpt lat="43.0224170000" lon="0.3493870000"><ele>959</ele><time>2026-03-24T08:48:17Z</time></trkpt>
<trkpt lat="43.0224370000" lon="0.3493670000"><ele>960</ele><time>2026-03-24T08:48:20Z</time></trkpt>
<trkpt lat="43.0224520000" lon="0.3493500000"><ele>960</ele><time>2026-03-24T08:48:22Z</time></trkpt>
<trkpt lat="43.0224650000" lon="0.3493320000"><ele>960</ele><time>2026-03-24T08:48:24Z</time></trkpt>
<trkpt lat="43.0224720000" lon="0.3493100000"><ele>961</ele><time>2026-03-24T08:48:27Z</time></trkpt>
<trkpt lat="43.0224920000" lon="0.3492970000"><ele>961</ele><time>2026-03-24T08:48:30Z</time></trkpt>
<trkpt lat="43.0224970000" lon="0.3492720000"><ele>961</ele><time>2026-03-24T08:48:33Z</time></trkpt>
<trkpt lat="43.0225050000" lon="0.3492470000"><ele>962</ele><time>2026-03-24T08:48:36Z</time></trkpt>
<trkpt lat="43.0225150000" lon="0.3492220000"><ele>962</ele><time>2026-03-24T08:48:38Z</time></trkpt>
<trkpt lat="43.0225250000" lon="0.3491920000"><ele>962</ele><time>2026-03-24T08:48:42Z</time></trkpt>
<trkpt lat="43.0225370000" lon="0.3491570000"><ele>963</ele><time>2026-03-24T08:48:45Z</time></trkpt>
<trkpt lat="43.0225450000" lon="0.3491300000"><ele>963</ele><time>2026-03-24T08:48:48Z</time></trkpt>
<trkpt lat="43.0225470000" lon="0.3491030000"><ele>963</ele><time>2026-03-24T08:48:50Z</time></trkpt>
<trkpt lat="43.0225620000" lon="0.3490820000"><ele>964</ele><time>2026-03-24T08:48:53Z</time></trkpt>
<trkpt lat="43.0225620000" lon="0.3490520000"><ele>964</ele><time>2026-03-24T08:48:56Z</time></trkpt>
<trkpt lat="43.0225600000" lon="0.3490200000"><ele>964</ele><time>2026-03-24T08:48:59Z</time></trkpt>
<trkpt lat="43.0225700000" lon="0.3489970000"><ele>964</ele><time>2026-03-24T08:49:02Z</time></trkpt>
<trkpt lat="43.0225720000" lon="0.3489670000"><ele>965</ele><time>2026-03-24T08:49:06Z</time></trkpt>
<trkpt lat="43.0225670000" lon="0.3489450000"><ele>966</ele><time>2026-03-24T08:49:10Z</time></trkpt>
<trkpt lat="43.0225770000" lon="0.3489250000"><ele>966</ele><time>2026-03-24T08:49:13Z</time></trkpt>
<trkpt lat="43.0225800000" lon="0.3488920000"><ele>967</ele><time>2026-03-24T08:49:17Z</time></trkpt>
<trkpt lat="43.0225920000" lon="0.3488720000"><ele>967</ele><time>2026-03-24T08:49:19Z</time></trkpt>
<trkpt lat="43.0226070000" lon="0.3488470000"><ele>967</ele><time>2026-03-24T08:49:22Z</time></trkpt>
<trkpt lat="43.0226120000" lon="0.3488200000"><ele>968</ele><time>2026-03-24T08:49:25Z</time></trkpt>
<trkpt lat="43.0226150000" lon="0.3487950000"><ele>968</ele><time>2026-03-24T08:49:28Z</time></trkpt>
<trkpt lat="43.0226100000" lon="0.3487700000"><ele>968</ele><time>2026-03-24T08:49:30Z</time></trkpt>
<trkpt lat="43.0226000000" lon="0.3487370000"><ele>969</ele><time>2026-03-24T08:49:33Z</time></trkpt>
<trkpt lat="43.0225950000" lon="0.3487050000"><ele>969</ele><time>2026-03-24T08:49:36Z</time></trkpt>
<trkpt lat="43.0225900000" lon="0.3486750000"><ele>969</ele><time>2026-03-24T08:49:39Z</time></trkpt>
<trkpt lat="43.0225970000" lon="0.3486500000"><ele>969</ele><time>2026-03-24T08:49:41Z</time></trkpt>
<trkpt lat="43.0226120000" lon="0.3486170000"><ele>970</ele><time>2026-03-24T08:49:44Z</time></trkpt>
<trkpt lat="43.0226270000" lon="0.3485970000"><ele>970</ele><time>2026-03-24T08:50:05Z</time></trkpt>
<trkpt lat="43.0226370000" lon="0.3485750000"><ele>970</ele><time>2026-03-24T08:50:07Z</time></trkpt>
<trkpt lat="43.0226370000" lon="0.3485420000"><ele>970</ele><time>2026-03-24T08:50:09Z</time></trkpt>
<trkpt lat="43.0226350000" lon="0.3485120000"><ele>970</ele><time>2026-03-24T08:50:11Z</time></trkpt>
<trkpt lat="43.0226300000" lon="0.3484850000"><ele>970</ele><time>2026-03-24T08:50:13Z</time></trkpt>
<trkpt lat="43.0226170000" lon="0.3484620000"><ele>971</ele><time>2026-03-24T08:50:15Z</time></trkpt>
<trkpt lat="43.0226150000" lon="0.3484300000"><ele>971</ele><time>2026-03-24T08:50:18Z</time></trkpt>
<trkpt lat="43.0226120000" lon="0.3484050000"><ele>972</ele><time>2026-03-24T08:50:20Z</time></trkpt>
<trkpt lat="43.0226070000" lon="0.3483800000"><ele>972</ele><time>2026-03-24T08:50:22Z</time></trkpt>
<trkpt lat="43.0226020000" lon="0.3483420000"><ele>972</ele><time>2026-03-24T08:50:25Z</time></trkpt>
<trkpt lat="43.0226000000" lon="0.3483130000"><ele>972</ele><time>2026-03-24T08:50:28Z</time></trkpt>
<trkpt lat="43.0225900000" lon="0.3482920000"><ele>973</ele><time>2026-03-24T08:50:32Z</time></trkpt>
<trkpt lat="43.0225920000" lon="0.3482620000"><ele>973</ele><time>2026-03-24T08:50:35Z</time></trkpt>
<trkpt lat="43.0225950000" lon="0.3482370000"><ele>974</ele><time>2026-03-24T08:50:37Z</time></trkpt>
<trkpt lat="43.0225800000" lon="0.3482000000"><ele>974</ele><time>2026-03-24T08:50:40Z</time></trkpt>
<trkpt lat="43.0225720000" lon="0.3481720000"><ele>974</ele><time>2026-03-24T08:50:42Z</time></trkpt>
<trkpt lat="43.0225670000" lon="0.3481420000"><ele>975</ele><time>2026-03-24T08:50:44Z</time></trkpt>
<trkpt lat="43.0225670000" lon="0.3481080000"><ele>975</ele><time>2026-03-24T08:50:47Z</time></trkpt>
<trkpt lat="43.0225750000" lon="0.3480830000"><ele>975</ele><time>2026-03-24T08:50:49Z</time></trkpt>
<trkpt lat="43.0225720000" lon="0.3480600000"><ele>976</ele><time>2026-03-24T08:50:52Z</time></trkpt>
<trkpt lat="43.0225670000" lon="0.3480270000"><ele>976</ele><time>2026-03-24T08:50:55Z</time></trkpt>
<trkpt lat="43.0225570000" lon="0.3479970000"><ele>976</ele><time>2026-03-24T08:50:58Z</time></trkpt>
<trkpt lat="43.0225420000" lon="0.3479820000"><ele>977</ele><time>2026-03-24T08:51:00Z</time></trkpt>
<trkpt lat="43.0225320000" lon="0.3479570000"><ele>977</ele><time>2026-03-24T08:51:02Z</time></trkpt>
<trkpt lat="43.0225320000" lon="0.3479270000"><ele>977</ele><time>2026-03-24T08:51:04Z</time></trkpt>
<trkpt lat="43.0225320000" lon="0.3478920000"><ele>978</ele><time>2026-03-24T08:51:07Z</time></trkpt>
<trkpt lat="43.0225470000" lon="0.3478670000"><ele>978</ele><time>2026-03-24T08:51:09Z</time></trkpt>
<trkpt lat="43.0225420000" lon="0.3478320000"><ele>978</ele><time>2026-03-24T08:51:12Z</time></trkpt>
<trkpt lat="43.0225320000" lon="0.3478030000"><ele>979</ele><time>2026-03-24T08:51:14Z</time></trkpt>
<trkpt lat="43.0225250000" lon="0.3477800000"><ele>979</ele><time>2026-03-24T08:51:16Z</time></trkpt>
<trkpt lat="43.0225250000" lon="0.3477520000"><ele>979</ele><time>2026-03-24T08:51:18Z</time></trkpt>
<trkpt lat="43.0225270000" lon="0.3477170000"><ele>979</ele><time>2026-03-24T08:51:21Z</time></trkpt>
<trkpt lat="43.0225170000" lon="0.3476970000"><ele>980</ele><time>2026-03-24T08:51:24Z</time></trkpt>
<trkpt lat="43.0225120000" lon="0.3476670000"><ele>980</ele><time>2026-03-24T08:51:27Z</time></trkpt>
<trkpt lat="43.0225170000" lon="0.3476420000"><ele>981</ele><time>2026-03-24T08:51:30Z</time></trkpt>
<trkpt lat="43.0225120000" lon="0.3476120000"><ele>981</ele><time>2026-03-24T08:51:34Z</time></trkpt>
<trkpt lat="43.0225020000" lon="0.3475820000"><ele>981</ele><time>2026-03-24T08:51:37Z</time></trkpt>
<trkpt lat="43.0225020000" lon="0.3475500000"><ele>982</ele><time>2026-03-24T08:51:40Z</time></trkpt>
<trkpt lat="43.0224900000" lon="0.3475200000"><ele>982</ele><time>2026-03-24T08:51:43Z</time></trkpt>
<trkpt lat="43.0224820000" lon="0.3474920000"><ele>982</ele><time>2026-03-24T08:51:46Z</time></trkpt>
<trkpt lat="43.0224820000" lon="0.3474570000"><ele>983</ele><time>2026-03-24T08:51:50Z</time></trkpt>
<trkpt lat="43.0224820000" lon="0.3474270000"><ele>983</ele><time>2026-03-24T08:51:52Z</time></trkpt>
<trkpt lat="43.0224770000" lon="0.3473920000"><ele>983</ele><time>2026-03-24T08:51:54Z</time></trkpt>
<trkpt lat="43.0224650000" lon="0.3473670000"><ele>984</ele><time>2026-03-24T08:51:57Z</time></trkpt>
<trkpt lat="43.0224450000" lon="0.3473470000"><ele>984</ele><time>2026-03-24T08:52:01Z</time></trkpt>
<trkpt lat="43.0224220000" lon="0.3473470000"><ele>984</ele><time>2026-03-24T08:52:02Z</time></trkpt>
<trkpt lat="43.0224150000" lon="0.3473170000"><ele>984</ele><time>2026-03-24T08:52:05Z</time></trkpt>
<trkpt lat="43.0224120000" lon="0.3472870000"><ele>984</ele><time>2026-03-24T08:52:07Z</time></trkpt>
<trkpt lat="43.0224200000" lon="0.3472570000"><ele>985</ele><time>2026-03-24T08:52:09Z</time></trkpt>
<trkpt lat="43.0224220000" lon="0.3472320000"><ele>985</ele><time>2026-03-24T08:52:12Z</time></trkpt>
<trkpt lat="43.0224270000" lon="0.3472070000"><ele>985</ele><time>2026-03-24T08:52:14Z</time></trkpt>
<trkpt lat="43.0224320000" lon="0.3471800000"><ele>986</ele><time>2026-03-24T08:52:17Z</time></trkpt>
<trkpt lat="43.0224220000" lon="0.3471470000"><ele>986</ele><time>2026-03-24T08:52:20Z</time></trkpt>
<trkpt lat="43.0224200000" lon="0.3471150000"><ele>986</ele><time>2026-03-24T08:52:23Z</time></trkpt>
<trkpt lat="43.0224120000" lon="0.3470820000"><ele>987</ele><time>2026-03-24T08:52:26Z</time></trkpt>
<trkpt lat="43.0224020000" lon="0.3470550000"><ele>987</ele><time>2026-03-24T08:52:30Z</time></trkpt>
<trkpt lat="43.0224020000" lon="0.3470270000"><ele>988</ele><time>2026-03-24T08:52:33Z</time></trkpt>
<trkpt lat="43.0224120000" lon="0.3469970000"><ele>988</ele><time>2026-03-24T08:52:35Z</time></trkpt>
<trkpt lat="43.0224050000" lon="0.3469670000"><ele>988</ele><time>2026-03-24T08:52:38Z</time></trkpt>
<trkpt lat="43.0223950000" lon="0.3469420000"><ele>989</ele><time>2026-03-24T08:52:41Z</time></trkpt>
<trkpt lat="43.0223950000" lon="0.3469120000"><ele>990</ele><time>2026-03-24T08:52:45Z</time></trkpt>
<trkpt lat="43.0223820000" lon="0.3468830000"><ele>990</ele><time>2026-03-24T08:52:48Z</time></trkpt>
<trkpt lat="43.0223750000" lon="0.3468570000"><ele>990</ele><time>2026-03-24T08:52:51Z</time></trkpt>
<trkpt lat="43.0223670000" lon="0.3468320000"><ele>991</ele><time>2026-03-24T08:52:54Z</time></trkpt>
<trkpt lat="43.0223670000" lon="0.3468070000"><ele>991</ele><time>2026-03-24T08:52:56Z</time></trkpt>
<trkpt lat="43.0223670000" lon="0.3467770000"><ele>991</ele><time>2026-03-24T08:52:58Z</time></trkpt>
<trkpt lat="43.0223700000" lon="0.3467520000"><ele>992</ele><time>2026-03-24T08:53:00Z</time></trkpt>
<trkpt lat="43.0223720000" lon="0.3467170000"><ele>992</ele><time>2026-03-24T08:53:04Z</time></trkpt>
<trkpt lat="43.0223700000" lon="0.3466900000"><ele>992</ele><time>2026-03-24T08:53:07Z</time></trkpt>
<trkpt lat="43.0223670000" lon="0.3466620000"><ele>993</ele><time>2026-03-24T08:53:10Z</time></trkpt>
<trkpt lat="43.0223550000" lon="0.3466370000"><ele>993</ele><time>2026-03-24T08:53:12Z</time></trkpt>
<trkpt lat="43.0223470000" lon="0.3466120000"><ele>993</ele><time>2026-03-24T08:53:14Z</time></trkpt>
<trkpt lat="43.0223470000" lon="0.3465820000"><ele>993</ele><time>2026-03-24T08:53:16Z</time></trkpt>
<trkpt lat="43.0223620000" lon="0.3465550000"><ele>993</ele><time>2026-03-24T08:53:17Z</time></trkpt>
<trkpt lat="43.0223670000" lon="0.3465270000"><ele>993</ele><time>2026-03-24T08:53:19Z</time></trkpt>
<trkpt lat="43.0223650000" lon="0.3465020000"><ele>994</ele><time>2026-03-24T08:53:23Z</time></trkpt>
<trkpt lat="43.0223670000" lon="0.3464770000"><ele>995</ele><time>2026-03-24T08:53:27Z</time></trkpt>
<trkpt lat="43.0223620000" lon="0.3464520000"><ele>995</ele><time>2026-03-24T08:53:30Z</time></trkpt>
<trkpt lat="43.0223620000" lon="0.3464230000"><ele>995</ele><time>2026-03-24T08:53:32Z</time></trkpt>
<trkpt lat="43.0223620000" lon="0.3463950000"><ele>996</ele><time>2026-03-24T08:53:35Z</time></trkpt>
<trkpt lat="43.0223570000" lon="0.3463720000"><ele>996</ele><time>2026-03-24T08:53:37Z</time></trkpt>
<trkpt lat="43.0223500000" lon="0.3463370000"><ele>996</ele><time>2026-03-24T08:53:40Z</time></trkpt>
<trkpt lat="43.0223470000" lon="0.3463070000"><ele>997</ele><time>2026-03-24T08:53:44Z</time></trkpt>
<trkpt lat="43.0223500000" lon="0.3462820000"><ele>997</ele><time>2026-03-24T08:53:46Z</time></trkpt>
<trkpt lat="43.0223450000" lon="0.3462570000"><ele>997</ele><time>2026-03-24T08:53:48Z</time></trkpt>
<trkpt lat="43.0223320000" lon="0.3462220000"><ele>998</ele><time>2026-03-24T08:53:52Z</time></trkpt>
<trkpt lat="43.0223370000" lon="0.3461920000"><ele>998</ele><time>2026-03-24T08:53:54Z</time></trkpt>
<trkpt lat="43.0223420000" lon="0.3461620000"><ele>998</ele><time>2026-03-24T08:53:57Z</time></trkpt>
<trkpt lat="43.0223470000" lon="0.3461320000"><ele>998</ele><time>2026-03-24T08:53:59Z</time></trkpt>
<trkpt lat="43.0223500000" lon="0.3460930000"><ele>999</ele><time>2026-03-24T08:54:01Z</time></trkpt>
<trkpt lat="43.0223520000" lon="0.3460600000"><ele>999</ele><time>2026-03-24T08:54:03Z</time></trkpt>
<trkpt lat="43.0223600000" lon="0.3460300000"><ele>999</ele><time>2026-03-24T08:54:06Z</time></trkpt>
<trkpt lat="43.0223620000" lon="0.3459970000"><ele>1000</ele><time>2026-03-24T08:54:12Z</time></trkpt>
<trkpt lat="43.0223670000" lon="0.3459620000"><ele>1000</ele><time>2026-03-24T08:54:14Z</time></trkpt>
<trkpt lat="43.0223570000" lon="0.3459400000"><ele>1001</ele><time>2026-03-24T08:54:16Z</time></trkpt>
<trkpt lat="43.0223620000" lon="0.3459070000"><ele>1001</ele><time>2026-03-24T08:54:19Z</time></trkpt>
<trkpt lat="43.0223520000" lon="0.3458850000"><ele>1001</ele><time>2026-03-24T08:54:21Z</time></trkpt>
<trkpt lat="43.0223470000" lon="0.3458450000"><ele>1001</ele><time>2026-03-24T08:54:23Z</time></trkpt>
<trkpt lat="43.0223470000" lon="0.3458200000"><ele>1002</ele><time>2026-03-24T08:54:25Z</time></trkpt>
<trkpt lat="43.0223650000" lon="0.3458000000"><ele>1002</ele><time>2026-03-24T08:54:27Z</time></trkpt>
<trkpt lat="43.0223750000" lon="0.3457720000"><ele>1002</ele><time>2026-03-24T08:54:29Z</time></trkpt>
<trkpt lat="43.0223650000" lon="0.3457420000"><ele>1002</ele><time>2026-03-24T08:54:31Z</time></trkpt>
<trkpt lat="43.0223470000" lon="0.3457220000"><ele>1002</ele><time>2026-03-24T08:54:33Z</time></trkpt>
<trkpt lat="43.0223500000" lon="0.3456870000"><ele>1003</ele><time>2026-03-24T08:54:36Z</time></trkpt>
<trkpt lat="43.0223700000" lon="0.3456550000"><ele>1003</ele><time>2026-03-24T08:54:38Z</time></trkpt>
<trkpt lat="43.0223820000" lon="0.3456280000"><ele>1003</ele><time>2026-03-24T08:54:40Z</time></trkpt>
<trkpt lat="43.0223950000" lon="0.3456000000"><ele>1003</ele><time>2026-03-24T08:54:43Z</time></trkpt>
<trkpt lat="43.0223920000" lon="0.3455720000"><ele>1004</ele><time>2026-03-24T08:54:45Z</time></trkpt>
<trkpt lat="43.0223950000" lon="0.3455420000"><ele>1004</ele><time>2026-03-24T08:54:47Z</time></trkpt>
<trkpt lat="43.0224050000" lon="0.3455120000"><ele>1004</ele><time>2026-03-24T08:54:50Z</time></trkpt>
<trkpt lat="43.0224100000" lon="0.3454820000"><ele>1004</ele><time>2026-03-24T08:54:52Z</time></trkpt>
<trkpt lat="43.0224170000" lon="0.3454570000"><ele>1004</ele><time>2026-03-24T08:54:54Z</time></trkpt>
<trkpt lat="43.0224320000" lon="0.3454370000"><ele>1005</ele><time>2026-03-24T08:54:56Z</time></trkpt>
<trkpt lat="43.0224420000" lon="0.3454170000"><ele>1005</ele><time>2026-03-24T08:54:58Z</time></trkpt>
<trkpt lat="43.0224520000" lon="0.3453920000"><ele>1005</ele><time>2026-03-24T08:55:00Z</time></trkpt>
<trkpt lat="43.0224650000" lon="0.3453720000"><ele>1005</ele><time>2026-03-24T08:55:02Z</time></trkpt>
<trkpt lat="43.0224770000" lon="0.3453520000"><ele>1005</ele><time>2026-03-24T08:55:04Z</time></trkpt>
<trkpt lat="43.0224870000" lon="0.3453270000"><ele>1006</ele><time>2026-03-24T08:55:07Z</time></trkpt>
<trkpt lat="43.0224920000" lon="0.3453020000"><ele>1006</ele><time>2026-03-24T08:55:10Z</time></trkpt>
<trkpt lat="43.0225020000" lon="0.3452770000"><ele>1006</ele><time>2026-03-24T08:55:12Z</time></trkpt>
<trkpt lat="43.0225100000" lon="0.3452520000"><ele>1006</ele><time>2026-03-24T08:55:14Z</time></trkpt>
<trkpt lat="43.0225250000" lon="0.3452320000"><ele>1007</ele><time>2026-03-24T08:55:16Z</time></trkpt>
<trkpt lat="43.0225420000" lon="0.3452030000"><ele>1007</ele><time>2026-03-24T08:55:19Z</time></trkpt>
<trkpt lat="43.0225530000" lon="0.3451770000"><ele>1007</ele><time>2026-03-24T08:55:21Z</time></trkpt>
<trkpt lat="43.0225670000" lon="0.3451570000"><ele>1007</ele><time>2026-03-24T08:55:23Z</time></trkpt>
<trkpt lat="43.0225850000" lon="0.3451400000"><ele>1008</ele><time>2026-03-24T08:55:28Z</time></trkpt>
<trkpt lat="43.0225970000" lon="0.3451180000"><ele>1008</ele><time>2026-03-24T08:55:30Z</time></trkpt>
<trkpt lat="43.0226070000" lon="0.3450920000"><ele>1009</ele><time>2026-03-24T08:55:34Z</time></trkpt>
<trkpt lat="43.0226200000" lon="0.3450670000"><ele>1009</ele><time>2026-03-24T08:55:36Z</time></trkpt>
<trkpt lat="43.0226320000" lon="0.3450370000"><ele>1009</ele><time>2026-03-24T08:55:39Z</time></trkpt>
<trkpt lat="43.0226420000" lon="0.3450120000"><ele>1009</ele><time>2026-03-24T08:55:43Z</time></trkpt>
<trkpt lat="43.0226470000" lon="0.3449870000"><ele>1010</ele><time>2026-03-24T08:55:46Z</time></trkpt>
<trkpt lat="43.0226450000" lon="0.3449570000"><ele>1010</ele><time>2026-03-24T08:55:49Z</time></trkpt>
<trkpt lat="43.0226370000" lon="0.3449330000"><ele>1010</ele><time>2026-03-24T08:55:53Z</time></trkpt>
<trkpt lat="43.0226370000" lon="0.3449050000"><ele>1011</ele><time>2026-03-24T08:55:56Z</time></trkpt>
<trkpt lat="43.0226370000" lon="0.3448750000"><ele>1011</ele><time>2026-03-24T08:55:58Z</time></trkpt>
<trkpt lat="43.0226320000" lon="0.3448420000"><ele>1011</ele><time>2026-03-24T08:56:01Z</time></trkpt>
<trkpt lat="43.0226270000" lon="0.3448120000"><ele>1011</ele><time>2026-03-24T08:56:04Z</time></trkpt>
<trkpt lat="43.0226270000" lon="0.3447870000"><ele>1011</ele><time>2026-03-24T08:56:06Z</time></trkpt>
<trkpt lat="43.0226320000" lon="0.3447620000"><ele>1012</ele><time>2026-03-24T08:56:08Z</time></trkpt>
<trkpt lat="43.0226270000" lon="0.3447320000"><ele>1012</ele><time>2026-03-24T08:56:11Z</time></trkpt>
<trkpt lat="43.0226220000" lon="0.3447000000"><ele>1012</ele><time>2026-03-24T08:56:14Z</time></trkpt>
<trkpt lat="43.0226200000" lon="0.3446670000"><ele>1013</ele><time>2026-03-24T08:56:17Z</time></trkpt>
<trkpt lat="43.0226150000" lon="0.3446350000"><ele>1013</ele><time>2026-03-24T08:56:20Z</time></trkpt>
<trkpt lat="43.0226100000" lon="0.3446050000"><ele>1013</ele><time>2026-03-24T08:56:23Z</time></trkpt>
<trkpt lat="43.0226050000" lon="0.3445720000"><ele>1013</ele><time>2026-03-24T08:56:26Z</time></trkpt>
<trkpt lat="43.0226020000" lon="0.3445470000"><ele>1014</ele><time>2026-03-24T08:56:28Z</time></trkpt>
<trkpt lat="43.0225920000" lon="0.3445120000"><ele>1014</ele><time>2026-03-24T08:56:31Z</time></trkpt>
<trkpt lat="43.0225820000" lon="0.3444920000"><ele>1014</ele><time>2026-03-24T08:56:33Z</time></trkpt>
<trkpt lat="43.0225670000" lon="0.3444720000"><ele>1015</ele><time>2026-03-24T08:56:35Z</time></trkpt>
<trkpt lat="43.0225570000" lon="0.3444470000"><ele>1015</ele><time>2026-03-24T08:56:37Z</time></trkpt>
<trkpt lat="43.0225520000" lon="0.3444230000"><ele>1015</ele><time>2026-03-24T08:56:39Z</time></trkpt>
<trkpt lat="43.0225370000" lon="0.3444070000"><ele>1015</ele><time>2026-03-24T08:56:41Z</time></trkpt>
<trkpt lat="43.0225200000" lon="0.3443820000"><ele>1016</ele><time>2026-03-24T08:56:44Z</time></trkpt>
<trkpt lat="43.0225070000" lon="0.3443620000"><ele>1016</ele><time>2026-03-24T08:56:46Z</time></trkpt>
<trkpt lat="43.0224920000" lon="0.3443470000"><ele>1016</ele><time>2026-03-24T08:56:48Z</time></trkpt>
<trkpt lat="43.0224800000" lon="0.3443270000"><ele>1016</ele><time>2026-03-24T08:56:50Z</time></trkpt>
<trkpt lat="43.0224750000" lon="0.3442950000"><ele>1016</ele><time>2026-03-24T08:56:53Z</time></trkpt>
<trkpt lat="43.0224720000" lon="0.3442700000"><ele>1017</ele><time>2026-03-24T08:56:55Z</time></trkpt>
<trkpt lat="43.0224670000" lon="0.3442380000"><ele>1017</ele><time>2026-03-24T08:56:58Z</time></trkpt>
<trkpt lat="43.0224550000" lon="0.3442170000"><ele>1017</ele><time>2026-03-24T08:57:00Z</time></trkpt>
<trkpt lat="43.0224370000" lon="0.3442020000"><ele>1017</ele><time>2026-03-24T08:57:02Z</time></trkpt>
<trkpt lat="43.0224070000" lon="0.3441920000"><ele>1017</ele><time>2026-03-24T08:57:05Z</time></trkpt>
<trkpt lat="43.0223770000" lon="0.3441900000"><ele>1017</ele><time>2026-03-24T08:57:07Z</time></trkpt>
<trkpt lat="43.0223550000" lon="0.3441850000"><ele>1018</ele><time>2026-03-24T08:57:09Z</time></trkpt>
<trkpt lat="43.0223420000" lon="0.3441670000"><ele>1018</ele><time>2026-03-24T08:57:12Z</time></trkpt>
<trkpt lat="43.0223270000" lon="0.3441470000"><ele>1018</ele><time>2026-03-24T08:57:15Z</time></trkpt>
<trkpt lat="43.0223070000" lon="0.3441370000"><ele>1018</ele><time>2026-03-24T08:57:18Z</time></trkpt>
<trkpt lat="43.0222950000" lon="0.3441200000"><ele>1018</ele><time>2026-03-24T08:57:20Z</time></trkpt>
<trkpt lat="43.0222770000" lon="0.3441120000"><ele>1018</ele><time>2026-03-24T08:57:22Z</time></trkpt>
<trkpt lat="43.0222520000" lon="0.3440920000"><ele>1019</ele><time>2026-03-24T08:57:25Z</time></trkpt>
<trkpt lat="43.0222320000" lon="0.3440720000"><ele>1019</ele><time>2026-03-24T08:57:27Z</time></trkpt>
<trkpt lat="43.0222120000" lon="0.3440580000"><ele>1019</ele><time>2026-03-24T08:57:29Z</time></trkpt>
<trkpt lat="43.0221920000" lon="0.3440520000"><ele>1019</ele><time>2026-03-24T08:57:31Z</time></trkpt>
<trkpt lat="43.0221700000" lon="0.3440450000"><ele>1019</ele><time>2026-03-24T08:57:33Z</time></trkpt>
<trkpt lat="43.0221470000" lon="0.3440420000"><ele>1019</ele><time>2026-03-24T08:57:35Z</time></trkpt>
<trkpt lat="43.0221270000" lon="0.3440400000"><ele>1020</ele><time>2026-03-24T08:57:37Z</time></trkpt>
<trkpt lat="43.0221100000" lon="0.3440270000"><ele>1020</ele><time>2026-03-24T08:57:39Z</time></trkpt>
<trkpt lat="43.0220900000" lon="0.3440300000"><ele>1020</ele><time>2026-03-24T08:57:41Z</time></trkpt>
<trkpt lat="43.0220720000" lon="0.3440350000"><ele>1020</ele><time>2026-03-24T08:57:43Z</time></trkpt>
<trkpt lat="43.0220520000" lon="0.3440400000"><ele>1020</ele><time>2026-03-24T08:57:45Z</time></trkpt>
<trkpt lat="43.0220320000" lon="0.3440370000"><ele>1020</ele><time>2026-03-24T08:57:47Z</time></trkpt>
<trkpt lat="43.0220050000" lon="0.3440720000"><ele>1020</ele><time>2026-03-24T08:57:50Z</time></trkpt>
<trkpt lat="43.0219820000" lon="0.3440770000"><ele>1021</ele><time>2026-03-24T08:57:53Z</time></trkpt>
<trkpt lat="43.0219620000" lon="0.3440750000"><ele>1021</ele><time>2026-03-24T08:57:56Z</time></trkpt>
<trkpt lat="43.0219450000" lon="0.3440870000"><ele>1021</ele><time>2026-03-24T08:57:58Z</time></trkpt>
<trkpt lat="43.0219270000" lon="0.3440800000"><ele>1021</ele><time>2026-03-24T08:58:00Z</time></trkpt>
<trkpt lat="43.0219070000" lon="0.3440830000"><ele>1021</ele><time>2026-03-24T08:58:03Z</time></trkpt>
<trkpt lat="43.0219150000" lon="0.3440500000"><ele>1021</ele><time>2026-03-24T08:58:07Z</time></trkpt>
<trkpt lat="43.0219300000" lon="0.3440170000"><ele>1021</ele><time>2026-03-24T08:58:09Z</time></trkpt>
<trkpt lat="43.0219370000" lon="0.3439900000"><ele>1021</ele><time>2026-03-24T08:58:11Z</time></trkpt>
<trkpt lat="43.0219170000" lon="0.3439970000"><ele>1021</ele><time>2026-03-24T08:58:16Z</time></trkpt>
<trkpt lat="43.0219100000" lon="0.3440270000"><ele>1022</ele><time>2026-03-24T08:58:26Z</time></trkpt>
<trkpt lat="43.0218800000" lon="0.3440420000"><ele>1022</ele><time>2026-03-24T08:58:28Z</time></trkpt>
<trkpt lat="43.0218570000" lon="0.3440570000"><ele>1022</ele><time>2026-03-24T08:58:29Z</time></trkpt>
<trkpt lat="43.0218370000" lon="0.3440700000"><ele>1022</ele><time>2026-03-24T08:58:30Z</time></trkpt>
<trkpt lat="43.0218170000" lon="0.3440800000"><ele>1022</ele><time>2026-03-24T08:58:31Z</time></trkpt>
<trkpt lat="43.0217870000" lon="0.3440830000"><ele>1022</ele><time>2026-03-24T08:58:33Z</time></trkpt>
<trkpt lat="43.0217620000" lon="0.3440820000"><ele>1022</ele><time>2026-03-24T08:58:35Z</time></trkpt>
<trkpt lat="43.0217320000" lon="0.3440800000"><ele>1022</ele><time>2026-03-24T08:58:37Z</time></trkpt>
<trkpt lat="43.0217120000" lon="0.3440830000"><ele>1022</ele><time>2026-03-24T08:58:39Z</time></trkpt>
<trkpt lat="43.0216920000" lon="0.3440750000"><ele>1023</ele><time>2026-03-24T08:58:41Z</time></trkpt>
<trkpt lat="43.0216670000" lon="0.3440750000"><ele>1023</ele><time>2026-03-24T08:58:44Z</time></trkpt>
<trkpt lat="43.0216420000" lon="0.3440720000"><ele>1023</ele><time>2026-03-24T08:58:46Z</time></trkpt>
<trkpt lat="43.0216220000" lon="0.3440620000"><ele>1023</ele><time>2026-03-24T08:58:48Z</time></trkpt>
<trkpt lat="43.0216120000" lon="0.3440370000"><ele>1023</ele><time>2026-03-24T08:58:50Z</time></trkpt>
<trkpt lat="43.0215920000" lon="0.3440270000"><ele>1023</ele><time>2026-03-24T08:58:52Z</time></trkpt>
<trkpt lat="43.0215670000" lon="0.3440070000"><ele>1024</ele><time>2026-03-24T08:58:54Z</time></trkpt>
<trkpt lat="43.0215420000" lon="0.3439920000"><ele>1024</ele><time>2026-03-24T08:58:57Z</time></trkpt>
<trkpt lat="43.0215270000" lon="0.3440150000"><ele>1024</ele><time>2026-03-24T08:59:00Z</time></trkpt>
<trkpt lat="43.0215400000" lon="0.3440520000"><ele>1025</ele><time>2026-03-24T08:59:03Z</time></trkpt>
<trkpt lat="43.0215620000" lon="0.3440650000"><ele>1025</ele><time>2026-03-24T08:59:05Z</time></trkpt>
<trkpt lat="43.0215800000" lon="0.3440970000"><ele>1025</ele><time>2026-03-24T08:59:14Z</time></trkpt>
<trkpt lat="43.0215950000" lon="0.3441370000"><ele>1026</ele><time>2026-03-24T08:59:19Z</time></trkpt>
<trkpt lat="43.0216020000" lon="0.3441620000"><ele>1026</ele><time>2026-03-24T08:59:20Z</time></trkpt>
<trkpt lat="43.0216120000" lon="0.3441850000"><ele>1026</ele><time>2026-03-24T08:59:21Z</time></trkpt>
<trkpt lat="43.0216270000" lon="0.3442200000"><ele>1026</ele><time>2026-03-24T08:59:23Z</time></trkpt>
<trkpt lat="43.0216370000" lon="0.3442470000"><ele>1026</ele><time>2026-03-24T08:59:25Z</time></trkpt>
<trkpt lat="43.0216420000" lon="0.3442770000"><ele>1026</ele><time>2026-03-24T08:59:27Z</time></trkpt>
<trkpt lat="43.0216500000" lon="0.3443150000"><ele>1027</ele><time>2026-03-24T08:59:30Z</time></trkpt>
<trkpt lat="43.0216600000" lon="0.3443450000"><ele>1027</ele><time>2026-03-24T08:59:32Z</time></trkpt>
<trkpt lat="43.0216700000" lon="0.3443700000"><ele>1027</ele><time>2026-03-24T08:59:34Z</time></trkpt>
<trkpt lat="43.0216900000" lon="0.3443970000"><ele>1027</ele><time>2026-03-24T08:59:37Z</time></trkpt>
<trkpt lat="43.0217120000" lon="0.3444150000"><ele>1027</ele><time>2026-03-24T08:59:39Z</time></trkpt>
<trkpt lat="43.0217270000" lon="0.3444230000"><ele>1028</ele><time>2026-03-24T08:59:43Z</time></trkpt>
<trkpt lat="43.0217300000" lon="0.3444500000"><ele>1028</ele><time>2026-03-24T08:59:55Z</time></trkpt>
<trkpt lat="43.0217270000" lon="0.3444770000"><ele>1028</ele><time>2026-03-24T08:59:57Z</time></trkpt>
<trkpt lat="43.0217170000" lon="0.3445120000"><ele>1028</ele><time>2026-03-24T08:59:59Z</time></trkpt>
<trkpt lat="43.0217150000" lon="0.3445570000"><ele>1028</ele><time>2026-03-24T09:00:01Z</time></trkpt>
<trkpt lat="43.0217220000" lon="0.3445920000"><ele>1029</ele><time>2026-03-24T09:00:03Z</time></trkpt>
<trkpt lat="43.0217220000" lon="0.3446220000"><ele>1029</ele><time>2026-03-24T09:00:05Z</time></trkpt>
<trkpt lat="43.0217300000" lon="0.3446520000"><ele>1029</ele><time>2026-03-24T09:00:07Z</time></trkpt>
<trkpt lat="43.0217400000" lon="0.3446820000"><ele>1029</ele><time>2026-03-24T09:00:09Z</time></trkpt>
<trkpt lat="43.0217420000" lon="0.3447170000"><ele>1029</ele><time>2026-03-24T09:00:11Z</time></trkpt>
<trkpt lat="43.0217420000" lon="0.3447420000"><ele>1029</ele><time>2026-03-24T09:00:13Z</time></trkpt>
<trkpt lat="43.0217300000" lon="0.3447670000"><ele>1029</ele><time>2026-03-24T09:00:15Z</time></trkpt>
<trkpt lat="43.0217300000" lon="0.3448030000"><ele>1029</ele><time>2026-03-24T09:00:17Z</time></trkpt>
<trkpt lat="43.0217320000" lon="0.3448370000"><ele>1030</ele><time>2026-03-24T09:00:19Z</time></trkpt>
<trkpt lat="43.0217370000" lon="0.3448620000"><ele>1030</ele><time>2026-03-24T09:00:21Z</time></trkpt>
<trkpt lat="43.0217500000" lon="0.3448920000"><ele>1030</ele><time>2026-03-24T09:00:23Z</time></trkpt>
<trkpt lat="43.0217520000" lon="0.3449220000"><ele>1030</ele><time>2026-03-24T09:00:25Z</time></trkpt>
<trkpt lat="43.0217600000" lon="0.3449520000"><ele>1030</ele><time>2026-03-24T09:00:27Z</time></trkpt>
<trkpt lat="43.0217670000" lon="0.3449820000"><ele>1030</ele><time>2026-03-24T09:00:29Z</time></trkpt>
<trkpt lat="43.0217720000" lon="0.3450070000"><ele>1031</ele><time>2026-03-24T09:00:31Z</time></trkpt>
<trkpt lat="43.0217720000" lon="0.3450320000"><ele>1031</ele><time>2026-03-24T09:00:33Z</time></trkpt>
<trkpt lat="43.0217650000" lon="0.3450620000"><ele>1031</ele><time>2026-03-24T09:00:35Z</time></trkpt>
<trkpt lat="43.0217570000" lon="0.3450920000"><ele>1031</ele><time>2026-03-24T09:00:37Z</time></trkpt>
<trkpt lat="43.0217370000" lon="0.3451120000"><ele>1031</ele><time>2026-03-24T09:00:40Z</time></trkpt>
<trkpt lat="43.0217220000" lon="0.3451320000"><ele>1031</ele><time>2026-03-24T09:00:42Z</time></trkpt>
<trkpt lat="43.0217120000" lon="0.3451600000"><ele>1031</ele><time>2026-03-24T09:00:44Z</time></trkpt>
<trkpt lat="43.0217100000" lon="0.3451920000"><ele>1032</ele><time>2026-03-24T09:00:47Z</time></trkpt>
<trkpt lat="43.0217270000" lon="0.3451900000"><ele>1032</ele><time>2026-03-24T09:00:52Z</time></trkpt>
<trkpt lat="43.0217370000" lon="0.3452120000"><ele>1031</ele><time>2026-03-24T09:01:52Z</time></trkpt>
<trkpt lat="43.0217600000" lon="0.3452220000"><ele>1031</ele><time>2026-03-24T09:01:54Z</time></trkpt>
<trkpt lat="43.0217870000" lon="0.3452270000"><ele>1031</ele><time>2026-03-24T09:01:56Z</time></trkpt>
<trkpt lat="43.0217670000" lon="0.3452200000"><ele>1031</ele><time>2026-03-24T09:03:28Z</time></trkpt>
<trkpt lat="43.0217400000" lon="0.3452220000"><ele>1031</ele><time>2026-03-24T09:03:38Z</time></trkpt>
<trkpt lat="43.0217170000" lon="0.3452130000"><ele>1031</ele><time>2026-03-24T09:03:40Z</time></trkpt>
<trkpt lat="43.0217000000" lon="0.3452030000"><ele>1031</ele><time>2026-03-24T09:03:46Z</time></trkpt>
<trkpt lat="43.0217170000" lon="0.3452250000"><ele>1031</ele><time>2026-03-24T09:04:49Z</time></trkpt>
<trkpt lat="43.0217320000" lon="0.3452350000"><ele>1031</ele><time>2026-03-24T09:04:51Z</time></trkpt>
<trkpt lat="43.0217350000" lon="0.3452600000"><ele>1031</ele><time>2026-03-24T09:04:56Z</time></trkpt>
<trkpt lat="43.0217170000" lon="0.3452800000"><ele>1031</ele><time>2026-03-24T09:09:58Z</time></trkpt>
<trkpt lat="43.0216920000" lon="0.3452850000"><ele>1032</ele><time>2026-03-24T09:10:19Z</time></trkpt>
<trkpt lat="43.0216600000" lon="0.3452820000"><ele>1032</ele><time>2026-03-24T09:10:21Z</time></trkpt>
<trkpt lat="43.0216350000" lon="0.3452820000"><ele>1032</ele><time>2026-03-24T09:10:23Z</time></trkpt>
<trkpt lat="43.0216120000" lon="0.3452720000"><ele>1032</ele><time>2026-03-24T09:10:26Z</time></trkpt>
<trkpt lat="43.0215870000" lon="0.3452470000"><ele>1032</ele><time>2026-03-24T09:10:29Z</time></trkpt>
<trkpt lat="43.0215670000" lon="0.3452250000"><ele>1032</ele><time>2026-03-24T09:10:32Z</time></trkpt>
<trkpt lat="43.0215520000" lon="0.3452030000"><ele>1033</ele><time>2026-03-24T09:10:34Z</time></trkpt>
<trkpt lat="43.0215370000" lon="0.3451750000"><ele>1033</ele><time>2026-03-24T09:10:37Z</time></trkpt>
<trkpt lat="43.0215270000" lon="0.3451470000"><ele>1033</ele><time>2026-03-24T09:10:40Z</time></trkpt>
<trkpt lat="43.0215070000" lon="0.3451320000"><ele>1034</ele><time>2026-03-24T09:10:43Z</time></trkpt>
<trkpt lat="43.0214950000" lon="0.3451150000"><ele>1034</ele><time>2026-03-24T09:10:45Z</time></trkpt>
<trkpt lat="43.0214800000" lon="0.3450920000"><ele>1034</ele><time>2026-03-24T09:10:47Z</time></trkpt>
<trkpt lat="43.0214670000" lon="0.3450620000"><ele>1034</ele><time>2026-03-24T09:10:50Z</time></trkpt>
<trkpt lat="43.0214520000" lon="0.3450420000"><ele>1035</ele><time>2026-03-24T09:10:52Z</time></trkpt>
<trkpt lat="43.0214320000" lon="0.3450200000"><ele>1035</ele><time>2026-03-24T09:10:54Z</time></trkpt>
<trkpt lat="43.0214200000" lon="0.3450000000"><ele>1035</ele><time>2026-03-24T09:10:56Z</time></trkpt>
<trkpt lat="43.0214070000" lon="0.3449730000"><ele>1035</ele><time>2026-03-24T09:10:58Z</time></trkpt>
<trkpt lat="43.0213920000" lon="0.3449470000"><ele>1035</ele><time>2026-03-24T09:11:00Z</time></trkpt>
<trkpt lat="43.0213770000" lon="0.3449230000"><ele>1036</ele><time>2026-03-24T09:11:03Z</time></trkpt>
<trkpt lat="43.0213570000" lon="0.3449170000"><ele>1036</ele><time>2026-03-24T09:11:05Z</time></trkpt>
<trkpt lat="43.0213430000" lon="0.3448880000"><ele>1036</ele><time>2026-03-24T09:11:08Z</time></trkpt>
<trkpt lat="43.0213430000" lon="0.3448620000"><ele>1037</ele><time>2026-03-24T09:11:11Z</time></trkpt>
<trkpt lat="43.0213400000" lon="0.3448370000"><ele>1037</ele><time>2026-03-24T09:11:14Z</time></trkpt>
<trkpt lat="43.0213270000" lon="0.3448120000"><ele>1037</ele><time>2026-03-24T09:11:17Z</time></trkpt>
<trkpt lat="43.0213070000" lon="0.3447820000"><ele>1038</ele><time>2026-03-24T09:11:19Z</time></trkpt>
<trkpt lat="43.0213050000" lon="0.3447530000"><ele>1038</ele><time>2026-03-24T09:11:22Z</time></trkpt>
<trkpt lat="43.0212920000" lon="0.3447370000"><ele>1038</ele><time>2026-03-24T09:11:25Z</time></trkpt>
<trkpt lat="43.0212750000" lon="0.3447250000"><ele>1039</ele><time>2026-03-24T09:11:28Z</time></trkpt>
<trkpt lat="43.0212620000" lon="0.3447070000"><ele>1039</ele><time>2026-03-24T09:11:30Z</time></trkpt>
<trkpt lat="43.0212400000" lon="0.3446930000"><ele>1039</ele><time>2026-03-24T09:11:32Z</time></trkpt>
<trkpt lat="43.0212300000" lon="0.3446700000"><ele>1039</ele><time>2026-03-24T09:11:35Z</time></trkpt>
<trkpt lat="43.0212250000" lon="0.3446320000"><ele>1040</ele><time>2026-03-24T09:11:38Z</time></trkpt>
<trkpt lat="43.0212220000" lon="0.3446070000"><ele>1040</ele><time>2026-03-24T09:11:40Z</time></trkpt>
<trkpt lat="43.0212220000" lon="0.3445770000"><ele>1040</ele><time>2026-03-24T09:11:42Z</time></trkpt>
<trkpt lat="43.0212070000" lon="0.3445520000"><ele>1040</ele><time>2026-03-24T09:11:44Z</time></trkpt>
<trkpt lat="43.0211880000" lon="0.3445270000"><ele>1040</ele><time>2026-03-24T09:11:47Z</time></trkpt>
<trkpt lat="43.0211720000" lon="0.3445270000"><ele>1041</ele><time>2026-03-24T09:11:50Z</time></trkpt>
<trkpt lat="43.0211600000" lon="0.3445070000"><ele>1041</ele><time>2026-03-24T09:11:54Z</time></trkpt>
<trkpt lat="43.0211500000" lon="0.3444850000"><ele>1041</ele><time>2026-03-24T09:11:56Z</time></trkpt>
<trkpt lat="43.0211370000" lon="0.3444570000"><ele>1042</ele><time>2026-03-24T09:11:58Z</time></trkpt>
<trkpt lat="43.0211320000" lon="0.3444320000"><ele>1042</ele><time>2026-03-24T09:12:00Z</time></trkpt>
<trkpt lat="43.0211120000" lon="0.3444120000"><ele>1042</ele><time>2026-03-24T09:12:02Z</time></trkpt>
<trkpt lat="43.0211020000" lon="0.3443830000"><ele>1042</ele><time>2026-03-24T09:12:04Z</time></trkpt>
<trkpt lat="43.0210920000" lon="0.3443600000"><ele>1043</ele><time>2026-03-24T09:12:07Z</time></trkpt>
<trkpt lat="43.0210900000" lon="0.3443350000"><ele>1043</ele><time>2026-03-24T09:12:09Z</time></trkpt>
<trkpt lat="43.0210820000" lon="0.3443020000"><ele>1043</ele><time>2026-03-24T09:12:11Z</time></trkpt>
<trkpt lat="43.0210620000" lon="0.3442820000"><ele>1044</ele><time>2026-03-24T09:12:14Z</time></trkpt>
<trkpt lat="43.0210470000" lon="0.3442620000"><ele>1044</ele><time>2026-03-24T09:12:16Z</time></trkpt>
<trkpt lat="43.0210470000" lon="0.3442250000"><ele>1044</ele><time>2026-03-24T09:12:19Z</time></trkpt>
<trkpt lat="43.0210370000" lon="0.3441970000"><ele>1044</ele><time>2026-03-24T09:12:22Z</time></trkpt>
<trkpt lat="43.0210200000" lon="0.3441770000"><ele>1044</ele><time>2026-03-24T09:12:26Z</time></trkpt>
<trkpt lat="43.0210000000" lon="0.3441650000"><ele>1045</ele><time>2026-03-24T09:12:29Z</time></trkpt>
<trkpt lat="43.0209920000" lon="0.3441270000"><ele>1045</ele><time>2026-03-24T09:12:32Z</time></trkpt>
<trkpt lat="43.0209970000" lon="0.3440970000"><ele>1045</ele><time>2026-03-24T09:12:35Z</time></trkpt>
<trkpt lat="43.0209750000" lon="0.3440800000"><ele>1046</ele><time>2026-03-24T09:12:39Z</time></trkpt>
<trkpt lat="43.0209620000" lon="0.3440420000"><ele>1046</ele><time>2026-03-24T09:12:43Z</time></trkpt>
<trkpt lat="43.0209470000" lon="0.3440250000"><ele>1047</ele><time>2026-03-24T09:12:47Z</time></trkpt>
<trkpt lat="43.0209250000" lon="0.3440070000"><ele>1047</ele><time>2026-03-24T09:12:49Z</time></trkpt>
<trkpt lat="43.0209020000" lon="0.3439900000"><ele>1048</ele><time>2026-03-24T09:12:52Z</time></trkpt>
<trkpt lat="43.0208820000" lon="0.3439770000"><ele>1048</ele><time>2026-03-24T09:12:54Z</time></trkpt>
<trkpt lat="43.0208720000" lon="0.3439470000"><ele>1048</ele><time>2026-03-24T09:12:56Z</time></trkpt>
<trkpt lat="43.0208570000" lon="0.3439270000"><ele>1048</ele><time>2026-03-24T09:12:58Z</time></trkpt>
<trkpt lat="43.0208520000" lon="0.3439020000"><ele>1049</ele><time>2026-03-24T09:13:02Z</time></trkpt>
<trkpt lat="43.0208270000" lon="0.3438800000"><ele>1050</ele><time>2026-03-24T09:13:09Z</time></trkpt>
<trkpt lat="43.0208200000" lon="0.3438520000"><ele>1050</ele><time>2026-03-24T09:13:11Z</time></trkpt>
<trkpt lat="43.0208170000" lon="0.3438230000"><ele>1050</ele><time>2026-03-24T09:13:13Z</time></trkpt>
<trkpt lat="43.0207970000" lon="0.3437920000"><ele>1050</ele><time>2026-03-24T09:13:16Z</time></trkpt>
<trkpt lat="43.0207820000" lon="0.3437670000"><ele>1050</ele><time>2026-03-24T09:13:18Z</time></trkpt>
<trkpt lat="43.0207620000" lon="0.3437500000"><ele>1051</ele><time>2026-03-24T09:13:20Z</time></trkpt>
<trkpt lat="43.0207420000" lon="0.3437150000"><ele>1051</ele><time>2026-03-24T09:13:22Z</time></trkpt>
<trkpt lat="43.0207320000" lon="0.3436930000"><ele>1051</ele><time>2026-03-24T09:13:25Z</time></trkpt>
<trkpt lat="43.0207170000" lon="0.3436770000"><ele>1051</ele><time>2026-03-24T09:13:28Z</time></trkpt>
<trkpt lat="43.0207000000" lon="0.3436520000"><ele>1052</ele><time>2026-03-24T09:13:32Z</time></trkpt>
<trkpt lat="43.0206770000" lon="0.3436300000"><ele>1052</ele><time>2026-03-24T09:13:35Z</time></trkpt>
<trkpt lat="43.0206600000" lon="0.3436300000"><ele>1052</ele><time>2026-03-24T09:13:37Z</time></trkpt>
<trkpt lat="43.0206470000" lon="0.3436070000"><ele>1053</ele><time>2026-03-24T09:13:40Z</time></trkpt>
<trkpt lat="43.0206370000" lon="0.3435720000"><ele>1053</ele><time>2026-03-24T09:13:43Z</time></trkpt>
<trkpt lat="43.0206170000" lon="0.3435470000"><ele>1053</ele><time>2026-03-24T09:13:45Z</time></trkpt>
<trkpt lat="43.0205900000" lon="0.3435370000"><ele>1053</ele><time>2026-03-24T09:13:47Z</time></trkpt>
<trkpt lat="43.0205670000" lon="0.3435220000"><ele>1053</ele><time>2026-03-24T09:13:49Z</time></trkpt>
<trkpt lat="43.0205520000" lon="0.3435020000"><ele>1054</ele><time>2026-03-24T09:13:52Z</time></trkpt>
<trkpt lat="43.0205370000" lon="0.3434820000"><ele>1054</ele><time>2026-03-24T09:13:56Z</time></trkpt>
<trkpt lat="43.0205170000" lon="0.3434620000"><ele>1054</ele><time>2026-03-24T09:13:58Z</time></trkpt>
<trkpt lat="43.0204970000" lon="0.3434480000"><ele>1055</ele><time>2026-03-24T09:14:01Z</time></trkpt>
<trkpt lat="43.0204820000" lon="0.3434300000"><ele>1055</ele><time>2026-03-24T09:14:04Z</time></trkpt>
<trkpt lat="43.0204650000" lon="0.3434070000"><ele>1055</ele><time>2026-03-24T09:14:07Z</time></trkpt>
<trkpt lat="43.0204470000" lon="0.3433920000"><ele>1056</ele><time>2026-03-24T09:14:10Z</time></trkpt>
<trkpt lat="43.0204280000" lon="0.3433630000"><ele>1056</ele><time>2026-03-24T09:14:13Z</time></trkpt>
<trkpt lat="43.0204170000" lon="0.3433420000"><ele>1056</ele><time>2026-03-24T09:14:16Z</time></trkpt>
<trkpt lat="43.0204000000" lon="0.3433100000"><ele>1057</ele><time>2026-03-24T09:14:19Z</time></trkpt>
<trkpt lat="43.0203820000" lon="0.3432920000"><ele>1057</ele><time>2026-03-24T09:14:21Z</time></trkpt>
<trkpt lat="43.0203650000" lon="0.3432770000"><ele>1057</ele><time>2026-03-24T09:14:23Z</time></trkpt>
<trkpt lat="43.0203450000" lon="0.3432720000"><ele>1057</ele><time>2026-03-24T09:14:25Z</time></trkpt>
<trkpt lat="43.0203220000" lon="0.3432670000"><ele>1057</ele><time>2026-03-24T09:14:28Z</time></trkpt>
<trkpt lat="43.0202970000" lon="0.3432620000"><ele>1058</ele><time>2026-03-24T09:14:30Z</time></trkpt>
<trkpt lat="43.0202770000" lon="0.3432500000"><ele>1058</ele><time>2026-03-24T09:14:33Z</time></trkpt>
<trkpt lat="43.0202550000" lon="0.3432320000"><ele>1058</ele><time>2026-03-24T09:14:36Z</time></trkpt>
<trkpt lat="43.0202650000" lon="0.3431970000"><ele>1058</ele><time>2026-03-24T09:14:39Z</time></trkpt>
<trkpt lat="43.0202550000" lon="0.3431720000"><ele>1059</ele><time>2026-03-24T09:14:41Z</time></trkpt>
<trkpt lat="43.0202420000" lon="0.3431520000"><ele>1059</ele><time>2026-03-24T09:14:43Z</time></trkpt>
<trkpt lat="43.0202270000" lon="0.3431280000"><ele>1059</ele><time>2026-03-24T09:14:45Z</time></trkpt>
<trkpt lat="43.0202100000" lon="0.3431070000"><ele>1060</ele><time>2026-03-24T09:14:48Z</time></trkpt>
<trkpt lat="43.0201920000" lon="0.3430870000"><ele>1060</ele><time>2026-03-24T09:14:50Z</time></trkpt>
<trkpt lat="43.0201750000" lon="0.3430700000"><ele>1060</ele><time>2026-03-24T09:14:54Z</time></trkpt>
<trkpt lat="43.0201500000" lon="0.3430570000"><ele>1061</ele><time>2026-03-24T09:14:58Z</time></trkpt>
<trkpt lat="43.0201270000" lon="0.3430330000"><ele>1061</ele><time>2026-03-24T09:15:01Z</time></trkpt>
<trkpt lat="43.0201070000" lon="0.3430220000"><ele>1061</ele><time>2026-03-24T09:15:03Z</time></trkpt>
<trkpt lat="43.0200900000" lon="0.3430070000"><ele>1061</ele><time>2026-03-24T09:15:05Z</time></trkpt>
<trkpt lat="43.0200620000" lon="0.3429930000"><ele>1061</ele><time>2026-03-24T09:15:07Z</time></trkpt>
<trkpt lat="43.0200450000" lon="0.3429730000"><ele>1062</ele><time>2026-03-24T09:15:09Z</time></trkpt>
<trkpt lat="43.0200270000" lon="0.3429520000"><ele>1062</ele><time>2026-03-24T09:15:11Z</time></trkpt>
<trkpt lat="43.0200150000" lon="0.3429250000"><ele>1062</ele><time>2026-03-24T09:15:13Z</time></trkpt>
<trkpt lat="43.0199920000" lon="0.3429050000"><ele>1062</ele><time>2026-03-24T09:15:15Z</time></trkpt>
<trkpt lat="43.0199670000" lon="0.3429050000"><ele>1062</ele><time>2026-03-24T09:15:17Z</time></trkpt>
<trkpt lat="43.0199520000" lon="0.3428920000"><ele>1063</ele><time>2026-03-24T09:15:20Z</time></trkpt>
<trkpt lat="43.0199370000" lon="0.3428720000"><ele>1063</ele><time>2026-03-24T09:15:22Z</time></trkpt>
<trkpt lat="43.0199300000" lon="0.3428470000"><ele>1063</ele><time>2026-03-24T09:15:24Z</time></trkpt>
<trkpt lat="43.0199120000" lon="0.3428220000"><ele>1064</ele><time>2026-03-24T09:15:27Z</time></trkpt>
<trkpt lat="43.0198900000" lon="0.3428120000"><ele>1064</ele><time>2026-03-24T09:15:30Z</time></trkpt>
<trkpt lat="43.0198720000" lon="0.3428020000"><ele>1064</ele><time>2026-03-24T09:15:32Z</time></trkpt>
<trkpt lat="43.0198470000" lon="0.3427950000"><ele>1064</ele><time>2026-03-24T09:15:34Z</time></trkpt>
<trkpt lat="43.0198270000" lon="0.3427820000"><ele>1064</ele><time>2026-03-24T09:15:36Z</time></trkpt>
<trkpt lat="43.0198100000" lon="0.3427630000"><ele>1065</ele><time>2026-03-24T09:15:38Z</time></trkpt>
<trkpt lat="43.0197970000" lon="0.3427320000"><ele>1065</ele><time>2026-03-24T09:15:43Z</time></trkpt>
<trkpt lat="43.0197870000" lon="0.3427020000"><ele>1065</ele><time>2026-03-24T09:15:45Z</time></trkpt>
<trkpt lat="43.0197770000" lon="0.3426820000"><ele>1066</ele><time>2026-03-24T09:15:47Z</time></trkpt>
<trkpt lat="43.0197600000" lon="0.3426680000"><ele>1066</ele><time>2026-03-24T09:15:49Z</time></trkpt>
<trkpt lat="43.0197420000" lon="0.3426470000"><ele>1066</ele><time>2026-03-24T09:15:52Z</time></trkpt>
<trkpt lat="43.0197320000" lon="0.3426170000"><ele>1067</ele><time>2026-03-24T09:15:55Z</time></trkpt>
<trkpt lat="43.0197170000" lon="0.3425920000"><ele>1067</ele><time>2026-03-24T09:15:58Z</time></trkpt>
<trkpt lat="43.0197020000" lon="0.3425720000"><ele>1067</ele><time>2026-03-24T09:16:00Z</time></trkpt>
<trkpt lat="43.0196800000" lon="0.3425470000"><ele>1067</ele><time>2026-03-24T09:16:02Z</time></trkpt>
<trkpt lat="43.0196650000" lon="0.3425220000"><ele>1068</ele><time>2026-03-24T09:16:04Z</time></trkpt>
<trkpt lat="43.0196520000" lon="0.3424930000"><ele>1068</ele><time>2026-03-24T09:16:08Z</time></trkpt>
<trkpt lat="43.0196420000" lon="0.3424700000"><ele>1068</ele><time>2026-03-24T09:16:10Z</time></trkpt>
<trkpt lat="43.0196250000" lon="0.3424570000"><ele>1069</ele><time>2026-03-24T09:16:12Z</time></trkpt>
<trkpt lat="43.0196070000" lon="0.3424330000"><ele>1069</ele><time>2026-03-24T09:16:15Z</time></trkpt>
<trkpt lat="43.0196020000" lon="0.3424100000"><ele>1069</ele><time>2026-03-24T09:16:17Z</time></trkpt>
<trkpt lat="43.0195870000" lon="0.3423820000"><ele>1070</ele><time>2026-03-24T09:16:20Z</time></trkpt>
<trkpt lat="43.0195720000" lon="0.3423670000"><ele>1070</ele><time>2026-03-24T09:16:22Z</time></trkpt>
<trkpt lat="43.0195600000" lon="0.3423370000"><ele>1070</ele><time>2026-03-24T09:16:25Z</time></trkpt>
<trkpt lat="43.0195500000" lon="0.3423120000"><ele>1071</ele><time>2026-03-24T09:16:28Z</time></trkpt>
<trkpt lat="43.0195320000" lon="0.3422870000"><ele>1071</ele><time>2026-03-24T09:16:31Z</time></trkpt>
<trkpt lat="43.0195170000" lon="0.3422530000"><ele>1071</ele><time>2026-03-24T09:16:34Z</time></trkpt>
<trkpt lat="43.0195070000" lon="0.3422300000"><ele>1071</ele><time>2026-03-24T09:16:36Z</time></trkpt>
<trkpt lat="43.0194870000" lon="0.3422120000"><ele>1072</ele><time>2026-03-24T09:16:39Z</time></trkpt>
<trkpt lat="43.0194720000" lon="0.3421920000"><ele>1072</ele><time>2026-03-24T09:16:41Z</time></trkpt>
<trkpt lat="43.0194670000" lon="0.3421670000"><ele>1072</ele><time>2026-03-24T09:16:43Z</time></trkpt>
<trkpt lat="43.0194620000" lon="0.3421370000"><ele>1072</ele><time>2026-03-24T09:16:46Z</time></trkpt>
<trkpt lat="43.0194520000" lon="0.3421120000"><ele>1072</ele><time>2026-03-24T09:16:48Z</time></trkpt>
<trkpt lat="43.0194470000" lon="0.3420870000"><ele>1073</ele><time>2026-03-24T09:16:50Z</time></trkpt>
<trkpt lat="43.0194350000" lon="0.3420650000"><ele>1073</ele><time>2026-03-24T09:16:52Z</time></trkpt>
<trkpt lat="43.0194320000" lon="0.3420400000"><ele>1073</ele><time>2026-03-24T09:16:54Z</time></trkpt>
<trkpt lat="43.0194300000" lon="0.3420120000"><ele>1073</ele><time>2026-03-24T09:16:56Z</time></trkpt>
<trkpt lat="43.0194220000" lon="0.3419870000"><ele>1073</ele><time>2026-03-24T09:16:58Z</time></trkpt>
<trkpt lat="43.0194070000" lon="0.3419550000"><ele>1074</ele><time>2026-03-24T09:17:01Z</time></trkpt>
<trkpt lat="43.0193920000" lon="0.3419170000"><ele>1074</ele><time>2026-03-24T09:17:04Z</time></trkpt>
<trkpt lat="43.0193870000" lon="0.3418920000"><ele>1074</ele><time>2026-03-24T09:17:06Z</time></trkpt>
<trkpt lat="43.0193720000" lon="0.3418670000"><ele>1074</ele><time>2026-03-24T09:17:09Z</time></trkpt>
<trkpt lat="43.0193670000" lon="0.3418380000"><ele>1075</ele><time>2026-03-24T09:17:12Z</time></trkpt>
<trkpt lat="43.0193550000" lon="0.3418220000"><ele>1075</ele><time>2026-03-24T09:17:14Z</time></trkpt>
<trkpt lat="43.0193320000" lon="0.3418220000"><ele>1075</ele><time>2026-03-24T09:17:17Z</time></trkpt>
<trkpt lat="43.0193450000" lon="0.3418470000"><ele>1076</ele><time>2026-03-24T09:17:25Z</time></trkpt>
<trkpt lat="43.0193520000" lon="0.3418720000"><ele>1077</ele><time>2026-03-24T09:17:29Z</time></trkpt>
<trkpt lat="43.0193600000" lon="0.3418970000"><ele>1077</ele><time>2026-03-24T09:17:33Z</time></trkpt>
<trkpt lat="43.0193720000" lon="0.3419300000"><ele>1077</ele><time>2026-03-24T09:17:35Z</time></trkpt>
<trkpt lat="43.0193870000" lon="0.3419720000"><ele>1077</ele><time>2026-03-24T09:17:37Z</time></trkpt>
<trkpt lat="43.0193970000" lon="0.3420070000"><ele>1078</ele><time>2026-03-24T09:17:39Z</time></trkpt>
<trkpt lat="43.0193950000" lon="0.3420420000"><ele>1078</ele><time>2026-03-24T09:17:41Z</time></trkpt>
<trkpt lat="43.0194020000" lon="0.3420670000"><ele>1078</ele><time>2026-03-24T09:17:44Z</time></trkpt>
<trkpt lat="43.0194120000" lon="0.3421020000"><ele>1079</ele><time>2026-03-24T09:17:47Z</time></trkpt>
<trkpt lat="43.0194000000" lon="0.3421250000"><ele>1079</ele><time>2026-03-24T09:17:49Z</time></trkpt>
<trkpt lat="43.0193950000" lon="0.3421570000"><ele>1079</ele><time>2026-03-24T09:17:52Z</time></trkpt>
<trkpt lat="43.0193920000" lon="0.3421820000"><ele>1079</ele><time>2026-03-24T09:17:54Z</time></trkpt>
<trkpt lat="43.0193950000" lon="0.3422120000"><ele>1079</ele><time>2026-03-24T09:17:57Z</time></trkpt>
<trkpt lat="43.0193900000" lon="0.3422420000"><ele>1080</ele><time>2026-03-24T09:18:00Z</time></trkpt>
<trkpt lat="43.0193820000" lon="0.3422770000"><ele>1080</ele><time>2026-03-24T09:18:03Z</time></trkpt>
<trkpt lat="43.0193820000" lon="0.3423070000"><ele>1081</ele><time>2026-03-24T09:18:06Z</time></trkpt>
<trkpt lat="43.0193670000" lon="0.3423380000"><ele>1081</ele><time>2026-03-24T09:18:09Z</time></trkpt>
<trkpt lat="43.0193670000" lon="0.3423650000"><ele>1081</ele><time>2026-03-24T09:18:11Z</time></trkpt>
<trkpt lat="43.0193670000" lon="0.3423900000"><ele>1081</ele><time>2026-03-24T09:18:14Z</time></trkpt>
<trkpt lat="43.0193620000" lon="0.3424200000"><ele>1082</ele><time>2026-03-24T09:18:18Z</time></trkpt>
<trkpt lat="43.0193670000" lon="0.3424470000"><ele>1082</ele><time>2026-03-24T09:18:21Z</time></trkpt>
<trkpt lat="43.0193570000" lon="0.3424830000"><ele>1082</ele><time>2026-03-24T09:18:24Z</time></trkpt>
<trkpt lat="43.0193620000" lon="0.3425220000"><ele>1082</ele><time>2026-03-24T09:18:27Z</time></trkpt>
<trkpt lat="43.0193770000" lon="0.3425500000"><ele>1083</ele><time>2026-03-24T09:18:29Z</time></trkpt>
<trkpt lat="43.0193870000" lon="0.3425720000"><ele>1083</ele><time>2026-03-24T09:18:31Z</time></trkpt>
<trkpt lat="43.0193770000" lon="0.3425970000"><ele>1083</ele><time>2026-03-24T09:18:33Z</time></trkpt>
<trkpt lat="43.0193670000" lon="0.3426270000"><ele>1083</ele><time>2026-03-24T09:18:36Z</time></trkpt>
<trkpt lat="43.0193670000" lon="0.3426520000"><ele>1084</ele><time>2026-03-24T09:18:39Z</time></trkpt>
<trkpt lat="43.0193720000" lon="0.3426820000"><ele>1084</ele><time>2026-03-24T09:18:42Z</time></trkpt>
<trkpt lat="43.0193700000" lon="0.3427130000"><ele>1085</ele><time>2026-03-24T09:18:45Z</time></trkpt>
<trkpt lat="43.0193670000" lon="0.3427450000"><ele>1085</ele><time>2026-03-24T09:18:49Z</time></trkpt>
<trkpt lat="43.0193770000" lon="0.3427750000"><ele>1085</ele><time>2026-03-24T09:18:52Z</time></trkpt>
<trkpt lat="43.0193770000" lon="0.3428020000"><ele>1086</ele><time>2026-03-24T09:18:55Z</time></trkpt>
<trkpt lat="43.0193720000" lon="0.3428370000"><ele>1086</ele><time>2026-03-24T09:18:58Z</time></trkpt>
<trkpt lat="43.0193720000" lon="0.3428700000"><ele>1086</ele><time>2026-03-24T09:19:01Z</time></trkpt>
<trkpt lat="43.0193820000" lon="0.3429020000"><ele>1086</ele><time>2026-03-24T09:19:04Z</time></trkpt>
<trkpt lat="43.0193820000" lon="0.3429370000"><ele>1087</ele><time>2026-03-24T09:19:07Z</time></trkpt>
<trkpt lat="43.0193820000" lon="0.3429620000"><ele>1087</ele><time>2026-03-24T09:19:09Z</time></trkpt>
<trkpt lat="43.0193850000" lon="0.3429920000"><ele>1087</ele><time>2026-03-24T09:19:12Z</time></trkpt>
<trkpt lat="43.0194070000" lon="0.3430220000"><ele>1087</ele><time>2026-03-24T09:19:15Z</time></trkpt>
<trkpt lat="43.0194100000" lon="0.3430520000"><ele>1087</ele><time>2026-03-24T09:19:18Z</time></trkpt>
<trkpt lat="43.0194120000" lon="0.3430820000"><ele>1088</ele><time>2026-03-24T09:19:22Z</time></trkpt>
<trkpt lat="43.0194150000" lon="0.3431170000"><ele>1088</ele><time>2026-03-24T09:19:25Z</time></trkpt>
<trkpt lat="43.0194170000" lon="0.3431520000"><ele>1088</ele><time>2026-03-24T09:19:28Z</time></trkpt>
<trkpt lat="43.0194200000" lon="0.3431780000"><ele>1089</ele><time>2026-03-24T09:19:31Z</time></trkpt>
<trkpt lat="43.0194250000" lon="0.3432050000"><ele>1089</ele><time>2026-03-24T09:19:33Z</time></trkpt>
<trkpt lat="43.0194220000" lon="0.3432320000"><ele>1089</ele><time>2026-03-24T09:19:35Z</time></trkpt>
<trkpt lat="43.0194170000" lon="0.3432620000"><ele>1089</ele><time>2026-03-24T09:19:37Z</time></trkpt>
<trkpt lat="43.0194220000" lon="0.3432970000"><ele>1089</ele><time>2026-03-24T09:19:40Z</time></trkpt>
<trkpt lat="43.0194400000" lon="0.3433220000"><ele>1090</ele><time>2026-03-24T09:19:42Z</time></trkpt>
<trkpt lat="43.0194550000" lon="0.3433420000"><ele>1090</ele><time>2026-03-24T09:19:44Z</time></trkpt>
<trkpt lat="43.0194720000" lon="0.3433620000"><ele>1090</ele><time>2026-03-24T09:19:46Z</time></trkpt>
<trkpt lat="43.0194850000" lon="0.3433850000"><ele>1090</ele><time>2026-03-24T09:19:49Z</time></trkpt>
<trkpt lat="43.0194920000" lon="0.3434070000"><ele>1091</ele><time>2026-03-24T09:19:51Z</time></trkpt>
<trkpt lat="43.0194970000" lon="0.3434320000"><ele>1091</ele><time>2026-03-24T09:19:54Z</time></trkpt>
<trkpt lat="43.0195020000" lon="0.3434650000"><ele>1091</ele><time>2026-03-24T09:19:57Z</time></trkpt>
<trkpt lat="43.0194970000" lon="0.3434900000"><ele>1091</ele><time>2026-03-24T09:19:59Z</time></trkpt>
<trkpt lat="43.0195070000" lon="0.3435120000"><ele>1092</ele><time>2026-03-24T09:20:01Z</time></trkpt>
<trkpt lat="43.0195250000" lon="0.3435400000"><ele>1092</ele><time>2026-03-24T09:20:04Z</time></trkpt>
<trkpt lat="43.0195370000" lon="0.3435620000"><ele>1092</ele><time>2026-03-24T09:20:08Z</time></trkpt>
<trkpt lat="43.0195550000" lon="0.3435670000"><ele>1092</ele><time>2026-03-24T09:20:13Z</time></trkpt>
<trkpt lat="43.0195670000" lon="0.3435970000"><ele>1092</ele><time>2026-03-24T09:20:17Z</time></trkpt>
<trkpt lat="43.0195850000" lon="0.3436120000"><ele>1091</ele><time>2026-03-24T09:20:57Z</time></trkpt>
<trkpt lat="43.0195920000" lon="0.3436350000"><ele>1092</ele><time>2026-03-24T09:21:00Z</time></trkpt>
<trkpt lat="43.0195820000" lon="0.3436720000"><ele>1092</ele><time>2026-03-24T09:21:03Z</time></trkpt>
<trkpt lat="43.0195950000" lon="0.3437020000"><ele>1092</ele><time>2026-03-24T09:21:05Z</time></trkpt>
<trkpt lat="43.0196070000" lon="0.3437270000"><ele>1092</ele><time>2026-03-24T09:21:07Z</time></trkpt>
<trkpt lat="43.0196270000" lon="0.3437520000"><ele>1093</ele><time>2026-03-24T09:21:10Z</time></trkpt>
<trkpt lat="43.0196400000" lon="0.3437700000"><ele>1093</ele><time>2026-03-24T09:21:12Z</time></trkpt>
<trkpt lat="43.0196550000" lon="0.3438000000"><ele>1094</ele><time>2026-03-24T09:21:15Z</time></trkpt>
<trkpt lat="43.0196670000" lon="0.3438230000"><ele>1094</ele><time>2026-03-24T09:21:17Z</time></trkpt>
<trkpt lat="43.0196720000" lon="0.3438550000"><ele>1094</ele><time>2026-03-24T09:21:20Z</time></trkpt>
<trkpt lat="43.0196770000" lon="0.3438800000"><ele>1094</ele><time>2026-03-24T09:21:22Z</time></trkpt>
<trkpt lat="43.0196720000" lon="0.3439070000"><ele>1095</ele><time>2026-03-24T09:21:24Z</time></trkpt>
<trkpt lat="43.0196770000" lon="0.3439320000"><ele>1095</ele><time>2026-03-24T09:21:26Z</time></trkpt>
<trkpt lat="43.0196920000" lon="0.3439650000"><ele>1095</ele><time>2026-03-24T09:21:29Z</time></trkpt>
<trkpt lat="43.0197020000" lon="0.3439920000"><ele>1095</ele><time>2026-03-24T09:21:32Z</time></trkpt>
<trkpt lat="43.0197000000" lon="0.3440320000"><ele>1096</ele><time>2026-03-24T09:21:35Z</time></trkpt>
<trkpt lat="43.0197070000" lon="0.3440580000"><ele>1096</ele><time>2026-03-24T09:21:37Z</time></trkpt>
<trkpt lat="43.0197220000" lon="0.3440820000"><ele>1096</ele><time>2026-03-24T09:21:39Z</time></trkpt>
<trkpt lat="43.0197450000" lon="0.3441020000"><ele>1096</ele><time>2026-03-24T09:21:41Z</time></trkpt>
<trkpt lat="43.0197520000" lon="0.3441270000"><ele>1097</ele><time>2026-03-24T09:21:43Z</time></trkpt>
<trkpt lat="43.0197650000" lon="0.3441500000"><ele>1097</ele><time>2026-03-24T09:21:47Z</time></trkpt>
<trkpt lat="43.0197770000" lon="0.3441700000"><ele>1098</ele><time>2026-03-24T09:21:50Z</time></trkpt>
<trkpt lat="43.0197920000" lon="0.3441870000"><ele>1098</ele><time>2026-03-24T09:21:59Z</time></trkpt>
<trkpt lat="43.0197920000" lon="0.3442150000"><ele>1098</ele><time>2026-03-24T09:22:03Z</time></trkpt>
<trkpt lat="43.0198020000" lon="0.3442420000"><ele>1098</ele><time>2026-03-24T09:22:05Z</time></trkpt>
<trkpt lat="43.0198150000" lon="0.3442850000"><ele>1099</ele><time>2026-03-24T09:22:07Z</time></trkpt>
<trkpt lat="43.0198220000" lon="0.3443220000"><ele>1099</ele><time>2026-03-24T09:22:09Z</time></trkpt>
<trkpt lat="43.0198220000" lon="0.3443470000"><ele>1099</ele><time>2026-03-24T09:22:11Z</time></trkpt>
<trkpt lat="43.0198230000" lon="0.3443770000"><ele>1099</ele><time>2026-03-24T09:22:14Z</time></trkpt>
<trkpt lat="43.0198370000" lon="0.3444020000"><ele>1099</ele><time>2026-03-24T09:22:16Z</time></trkpt>
<trkpt lat="43.0198620000" lon="0.3444230000"><ele>1099</ele><time>2026-03-24T09:22:18Z</time></trkpt>
<trkpt lat="43.0198770000" lon="0.3444570000"><ele>1100</ele><time>2026-03-24T09:22:21Z</time></trkpt>
<trkpt lat="43.0198870000" lon="0.3444900000"><ele>1100</ele><time>2026-03-24T09:22:24Z</time></trkpt>
<trkpt lat="43.0199120000" lon="0.3445120000"><ele>1100</ele><time>2026-03-24T09:22:27Z</time></trkpt>
<trkpt lat="43.0199170000" lon="0.3445350000"><ele>1100</ele><time>2026-03-24T09:22:29Z</time></trkpt>
<trkpt lat="43.0199170000" lon="0.3445580000"><ele>1101</ele><time>2026-03-24T09:22:31Z</time></trkpt>
<trkpt lat="43.0199370000" lon="0.3445800000"><ele>1101</ele><time>2026-03-24T09:22:34Z</time></trkpt>
<trkpt lat="43.0199500000" lon="0.3446020000"><ele>1101</ele><time>2026-03-24T09:22:36Z</time></trkpt>
<trkpt lat="43.0199570000" lon="0.3446270000"><ele>1101</ele><time>2026-03-24T09:22:38Z</time></trkpt>
<trkpt lat="43.0199600000" lon="0.3446570000"><ele>1101</ele><time>2026-03-24T09:22:40Z</time></trkpt>
<trkpt lat="43.0199600000" lon="0.3446900000"><ele>1102</ele><time>2026-03-24T09:22:43Z</time></trkpt>
<trkpt lat="43.0199620000" lon="0.3447270000"><ele>1102</ele><time>2026-03-24T09:22:46Z</time></trkpt>
<trkpt lat="43.0199670000" lon="0.3447520000"><ele>1102</ele><time>2026-03-24T09:22:48Z</time></trkpt>
<trkpt lat="43.0199770000" lon="0.3447750000"><ele>1102</ele><time>2026-03-24T09:22:50Z</time></trkpt>
<trkpt lat="43.0199820000" lon="0.3448070000"><ele>1103</ele><time>2026-03-24T09:22:53Z</time></trkpt>
<trkpt lat="43.0199870000" lon="0.3448370000"><ele>1103</ele><time>2026-03-24T09:22:56Z</time></trkpt>
<trkpt lat="43.0200000000" lon="0.3448650000"><ele>1103</ele><time>2026-03-24T09:22:59Z</time></trkpt>
<trkpt lat="43.0200120000" lon="0.3448820000"><ele>1103</ele><time>2026-03-24T09:23:01Z</time></trkpt>
<trkpt lat="43.0200200000" lon="0.3449070000"><ele>1104</ele><time>2026-03-24T09:23:04Z</time></trkpt>
<trkpt lat="43.0200200000" lon="0.3449370000"><ele>1104</ele><time>2026-03-24T09:23:07Z</time></trkpt>
<trkpt lat="43.0200250000" lon="0.3449620000"><ele>1104</ele><time>2026-03-24T09:23:09Z</time></trkpt>
<trkpt lat="43.0200320000" lon="0.3449970000"><ele>1105</ele><time>2026-03-24T09:23:12Z</time></trkpt>
<trkpt lat="43.0200270000" lon="0.3450320000"><ele>1105</ele><time>2026-03-24T09:23:15Z</time></trkpt>
<trkpt lat="43.0200270000" lon="0.3450670000"><ele>1105</ele><time>2026-03-24T09:23:18Z</time></trkpt>
<trkpt lat="43.0200320000" lon="0.3450920000"><ele>1106</ele><time>2026-03-24T09:23:20Z</time></trkpt>
<trkpt lat="43.0200570000" lon="0.3451020000"><ele>1106</ele><time>2026-03-24T09:23:21Z</time></trkpt>
<trkpt lat="43.0200550000" lon="0.3451320000"><ele>1106</ele><time>2026-03-24T09:23:24Z</time></trkpt>
<trkpt lat="43.0200550000" lon="0.3451570000"><ele>1106</ele><time>2026-03-24T09:23:26Z</time></trkpt>
<trkpt lat="43.0200550000" lon="0.3451920000"><ele>1106</ele><time>2026-03-24T09:23:29Z</time></trkpt>
<trkpt lat="43.0200720000" lon="0.3452220000"><ele>1106</ele><time>2026-03-24T09:23:31Z</time></trkpt>
<trkpt lat="43.0200770000" lon="0.3452520000"><ele>1107</ele><time>2026-03-24T09:23:34Z</time></trkpt>
<trkpt lat="43.0200800000" lon="0.3452850000"><ele>1107</ele><time>2026-03-24T09:23:37Z</time></trkpt>
<trkpt lat="43.0200820000" lon="0.3453100000"><ele>1107</ele><time>2026-03-24T09:23:39Z</time></trkpt>
<trkpt lat="43.0200920000" lon="0.3453350000"><ele>1107</ele><time>2026-03-24T09:23:41Z</time></trkpt>
<trkpt lat="43.0201000000" lon="0.3453580000"><ele>1108</ele><time>2026-03-24T09:23:44Z</time></trkpt>
<trkpt lat="43.0200950000" lon="0.3453850000"><ele>1108</ele><time>2026-03-24T09:23:46Z</time></trkpt>
<trkpt lat="43.0200870000" lon="0.3454070000"><ele>1108</ele><time>2026-03-24T09:23:48Z</time></trkpt>
<trkpt lat="43.0200870000" lon="0.3454400000"><ele>1108</ele><time>2026-03-24T09:23:50Z</time></trkpt>
<trkpt lat="43.0200870000" lon="0.3454720000"><ele>1109</ele><time>2026-03-24T09:23:53Z</time></trkpt>
<trkpt lat="43.0200820000" lon="0.3455020000"><ele>1109</ele><time>2026-03-24T09:23:56Z</time></trkpt>
<trkpt lat="43.0200800000" lon="0.3455270000"><ele>1109</ele><time>2026-03-24T09:23:58Z</time></trkpt>
<trkpt lat="43.0200770000" lon="0.3455550000"><ele>1109</ele><time>2026-03-24T09:24:00Z</time></trkpt>
<trkpt lat="43.0200820000" lon="0.3455900000"><ele>1110</ele><time>2026-03-24T09:24:03Z</time></trkpt>
<trkpt lat="43.0200820000" lon="0.3456270000"><ele>1110</ele><time>2026-03-24T09:24:06Z</time></trkpt>
<trkpt lat="43.0200850000" lon="0.3456600000"><ele>1111</ele><time>2026-03-24T09:24:09Z</time></trkpt>
<trkpt lat="43.0200800000" lon="0.3456870000"><ele>1111</ele><time>2026-03-24T09:24:12Z</time></trkpt>
<trkpt lat="43.0200770000" lon="0.3457220000"><ele>1111</ele><time>2026-03-24T09:24:15Z</time></trkpt>
<trkpt lat="43.0200720000" lon="0.3457520000"><ele>1111</ele><time>2026-03-24T09:24:18Z</time></trkpt>
<trkpt lat="43.0200600000" lon="0.3457720000"><ele>1111</ele><time>2026-03-24T09:24:20Z</time></trkpt>
<trkpt lat="43.0200570000" lon="0.3458030000"><ele>1111</ele><time>2026-03-24T09:24:23Z</time></trkpt>
<trkpt lat="43.0200520000" lon="0.3458320000"><ele>1112</ele><time>2026-03-24T09:24:25Z</time></trkpt>
<trkpt lat="43.0200520000" lon="0.3458600000"><ele>1112</ele><time>2026-03-24T09:24:27Z</time></trkpt>
<trkpt lat="43.0200570000" lon="0.3458950000"><ele>1112</ele><time>2026-03-24T09:24:30Z</time></trkpt>
<trkpt lat="43.0200620000" lon="0.3459250000"><ele>1112</ele><time>2026-03-24T09:24:33Z</time></trkpt>
<trkpt lat="43.0200620000" lon="0.3459550000"><ele>1113</ele><time>2026-03-24T09:24:36Z</time></trkpt>
<trkpt lat="43.0200520000" lon="0.3459850000"><ele>1113</ele><time>2026-03-24T09:24:40Z</time></trkpt>
<trkpt lat="43.0200420000" lon="0.3460070000"><ele>1113</ele><time>2026-03-24T09:24:42Z</time></trkpt>
<trkpt lat="43.0200250000" lon="0.3460300000"><ele>1113</ele><time>2026-03-24T09:24:45Z</time></trkpt>
<trkpt lat="43.0200070000" lon="0.3460400000"><ele>1113</ele><time>2026-03-24T09:24:47Z</time></trkpt>
<trkpt lat="43.0199820000" lon="0.3460330000"><ele>1114</ele><time>2026-03-24T09:24:49Z</time></trkpt>
<trkpt lat="43.0199600000" lon="0.3460080000"><ele>1114</ele><time>2026-03-24T09:24:52Z</time></trkpt>
<trkpt lat="43.0199520000" lon="0.3459770000"><ele>1114</ele><time>2026-03-24T09:24:54Z</time></trkpt>
<trkpt lat="43.0199550000" lon="0.3459470000"><ele>1115</ele><time>2026-03-24T09:24:57Z</time></trkpt>
<trkpt lat="43.0199370000" lon="0.3459120000"><ele>1115</ele><time>2026-03-24T09:25:00Z</time></trkpt>
<trkpt lat="43.0199270000" lon="0.3458870000"><ele>1115</ele><time>2026-03-24T09:25:02Z</time></trkpt>
<trkpt lat="43.0199170000" lon="0.3458670000"><ele>1115</ele><time>2026-03-24T09:25:04Z</time></trkpt>
<trkpt lat="43.0199170000" lon="0.3458420000"><ele>1115</ele><time>2026-03-24T09:25:06Z</time></trkpt>
<trkpt lat="43.0199050000" lon="0.3458070000"><ele>1115</ele><time>2026-03-24T09:25:09Z</time></trkpt>
<trkpt lat="43.0198920000" lon="0.3457820000"><ele>1116</ele><time>2026-03-24T09:25:11Z</time></trkpt>
<trkpt lat="43.0198770000" lon="0.3457630000"><ele>1116</ele><time>2026-03-24T09:25:13Z</time></trkpt>
<trkpt lat="43.0198720000" lon="0.3457370000"><ele>1116</ele><time>2026-03-24T09:25:15Z</time></trkpt>
<trkpt lat="43.0198620000" lon="0.3457120000"><ele>1116</ele><time>2026-03-24T09:25:17Z</time></trkpt>
<trkpt lat="43.0198470000" lon="0.3456900000"><ele>1117</ele><time>2026-03-24T09:25:20Z</time></trkpt>
<trkpt lat="43.0198320000" lon="0.3456750000"><ele>1117</ele><time>2026-03-24T09:25:22Z</time></trkpt>
<trkpt lat="43.0198170000" lon="0.3456570000"><ele>1117</ele><time>2026-03-24T09:25:24Z</time></trkpt>
<trkpt lat="43.0198050000" lon="0.3456370000"><ele>1117</ele><time>2026-03-24T09:25:26Z</time></trkpt>
<trkpt lat="43.0197920000" lon="0.3456170000"><ele>1117</ele><time>2026-03-24T09:25:28Z</time></trkpt>
<trkpt lat="43.0197750000" lon="0.3456000000"><ele>1118</ele><time>2026-03-24T09:25:30Z</time></trkpt>
<trkpt lat="43.0197600000" lon="0.3455700000"><ele>1118</ele><time>2026-03-24T09:25:33Z</time></trkpt>
<trkpt lat="43.0197520000" lon="0.3455470000"><ele>1118</ele><time>2026-03-24T09:25:36Z</time></trkpt>
<trkpt lat="43.0197450000" lon="0.3455170000"><ele>1119</ele><time>2026-03-24T09:25:39Z</time></trkpt>
<trkpt lat="43.0197250000" lon="0.3455020000"><ele>1119</ele><time>2026-03-24T09:25:42Z</time></trkpt>
<trkpt lat="43.0197070000" lon="0.3454920000"><ele>1119</ele><time>2026-03-24T09:25:45Z</time></trkpt>
<trkpt lat="43.0196920000" lon="0.3454720000"><ele>1119</ele><time>2026-03-24T09:25:48Z</time></trkpt>
<trkpt lat="43.0196750000" lon="0.3454620000"><ele>1119</ele><time>2026-03-24T09:25:50Z</time></trkpt>
<trkpt lat="43.0196470000" lon="0.3454520000"><ele>1120</ele><time>2026-03-24T09:25:53Z</time></trkpt>
<trkpt lat="43.0196270000" lon="0.3454350000"><ele>1120</ele><time>2026-03-24T09:25:56Z</time></trkpt>
<trkpt lat="43.0196200000" lon="0.3454020000"><ele>1121</ele><time>2026-03-24T09:25:58Z</time></trkpt>
<trkpt lat="43.0196020000" lon="0.3453950000"><ele>1121</ele><time>2026-03-24T09:26:00Z</time></trkpt>
<trkpt lat="43.0195750000" lon="0.3453920000"><ele>1121</ele><time>2026-03-24T09:26:03Z</time></trkpt>
<trkpt lat="43.0195620000" lon="0.3453650000"><ele>1121</ele><time>2026-03-24T09:26:05Z</time></trkpt>
<trkpt lat="43.0195370000" lon="0.3453320000"><ele>1121</ele><time>2026-03-24T09:26:07Z</time></trkpt>
<trkpt lat="43.0195170000" lon="0.3453250000"><ele>1122</ele><time>2026-03-24T09:26:10Z</time></trkpt>
<trkpt lat="43.0194950000" lon="0.3453270000"><ele>1122</ele><time>2026-03-24T09:26:12Z</time></trkpt>
<trkpt lat="43.0194770000" lon="0.3453170000"><ele>1122</ele><time>2026-03-24T09:26:14Z</time></trkpt>
<trkpt lat="43.0194750000" lon="0.3452900000"><ele>1122</ele><time>2026-03-24T09:26:18Z</time></trkpt>
<trkpt lat="43.0194620000" lon="0.3452670000"><ele>1123</ele><time>2026-03-24T09:26:22Z</time></trkpt>
<trkpt lat="43.0194470000" lon="0.3452470000"><ele>1123</ele><time>2026-03-24T09:26:25Z</time></trkpt>
<trkpt lat="43.0194320000" lon="0.3452270000"><ele>1123</ele><time>2026-03-24T09:26:28Z</time></trkpt>
<trkpt lat="43.0194170000" lon="0.3452170000"><ele>1124</ele><time>2026-03-24T09:26:33Z</time></trkpt>
<trkpt lat="43.0193920000" lon="0.3451970000"><ele>1125</ele><time>2026-03-24T09:26:36Z</time></trkpt>
<trkpt lat="43.0193820000" lon="0.3451770000"><ele>1125</ele><time>2026-03-24T09:26:39Z</time></trkpt>
<trkpt lat="43.0193730000" lon="0.3451450000"><ele>1125</ele><time>2026-03-24T09:26:42Z</time></trkpt>
<trkpt lat="43.0193520000" lon="0.3451270000"><ele>1125</ele><time>2026-03-24T09:26:44Z</time></trkpt>
<trkpt lat="43.0193320000" lon="0.3451170000"><ele>1126</ele><time>2026-03-24T09:26:46Z</time></trkpt>
<trkpt lat="43.0193150000" lon="0.3451020000"><ele>1126</ele><time>2026-03-24T09:26:48Z</time></trkpt>
<trkpt lat="43.0193070000" lon="0.3450780000"><ele>1126</ele><time>2026-03-24T09:26:51Z</time></trkpt>
<trkpt lat="43.0192920000" lon="0.3450620000"><ele>1126</ele><time>2026-03-24T09:26:54Z</time></trkpt>
<trkpt lat="43.0192700000" lon="0.3450550000"><ele>1127</ele><time>2026-03-24T09:26:57Z</time></trkpt>
<trkpt lat="43.0192570000" lon="0.3450320000"><ele>1127</ele><time>2026-03-24T09:26:59Z</time></trkpt>
<trkpt lat="43.0192420000" lon="0.3450100000"><ele>1127</ele><time>2026-03-24T09:27:02Z</time></trkpt>
<trkpt lat="43.0192250000" lon="0.3449970000"><ele>1127</ele><time>2026-03-24T09:27:04Z</time></trkpt>
<trkpt lat="43.0192100000" lon="0.3449730000"><ele>1128</ele><time>2026-03-24T09:27:06Z</time></trkpt>
<trkpt lat="43.0191970000" lon="0.3449520000"><ele>1128</ele><time>2026-03-24T09:27:09Z</time></trkpt>
<trkpt lat="43.0191750000" lon="0.3449400000"><ele>1128</ele><time>2026-03-24T09:27:11Z</time></trkpt>
<trkpt lat="43.0191550000" lon="0.3449330000"><ele>1128</ele><time>2026-03-24T09:27:13Z</time></trkpt>
<trkpt lat="43.0191370000" lon="0.3449170000"><ele>1128</ele><time>2026-03-24T09:27:16Z</time></trkpt>
<trkpt lat="43.0191200000" lon="0.3449070000"><ele>1129</ele><time>2026-03-24T09:27:19Z</time></trkpt>
<trkpt lat="43.0191420000" lon="0.3448770000"><ele>1129</ele><time>2026-03-24T09:28:24Z</time></trkpt>
<trkpt lat="43.0191550000" lon="0.3448520000"><ele>1129</ele><time>2026-03-24T09:28:25Z</time></trkpt>
<trkpt lat="43.0191670000" lon="0.3448320000"><ele>1129</ele><time>2026-03-24T09:28:26Z</time></trkpt>
<trkpt lat="43.0191850000" lon="0.3448170000"><ele>1129</ele><time>2026-03-24T09:28:28Z</time></trkpt>
<trkpt lat="43.0191600000" lon="0.3448120000"><ele>1129</ele><time>2026-03-24T09:29:26Z</time></trkpt>
<trkpt lat="43.0191270000" lon="0.3447980000"><ele>1130</ele><time>2026-03-24T09:29:28Z</time></trkpt>
<trkpt lat="43.0191100000" lon="0.3447880000"><ele>1130</ele><time>2026-03-24T09:29:29Z</time></trkpt>
<trkpt lat="43.0190870000" lon="0.3447720000"><ele>1130</ele><time>2026-03-24T09:29:31Z</time></trkpt>
<trkpt lat="43.0190700000" lon="0.3447470000"><ele>1130</ele><time>2026-03-24T09:29:34Z</time></trkpt>
<trkpt lat="43.0190500000" lon="0.3447270000"><ele>1131</ele><time>2026-03-24T09:29:37Z</time></trkpt>
<trkpt lat="43.0190320000" lon="0.3447020000"><ele>1131</ele><time>2026-03-24T09:29:41Z</time></trkpt>
<trkpt lat="43.0190100000" lon="0.3446870000"><ele>1131</ele><time>2026-03-24T09:29:43Z</time></trkpt>
<trkpt lat="43.0189870000" lon="0.3446630000"><ele>1132</ele><time>2026-03-24T09:29:45Z</time></trkpt>
<trkpt lat="43.0189700000" lon="0.3446400000"><ele>1132</ele><time>2026-03-24T09:29:48Z</time></trkpt>
<trkpt lat="43.0189520000" lon="0.3446220000"><ele>1132</ele><time>2026-03-24T09:29:50Z</time></trkpt>
<trkpt lat="43.0189370000" lon="0.3446070000"><ele>1132</ele><time>2026-03-24T09:29:52Z</time></trkpt>
<trkpt lat="43.0189170000" lon="0.3446000000"><ele>1132</ele><time>2026-03-24T09:29:54Z</time></trkpt>
<trkpt lat="43.0188920000" lon="0.3445820000"><ele>1133</ele><time>2026-03-24T09:29:56Z</time></trkpt>
<trkpt lat="43.0188720000" lon="0.3445620000"><ele>1133</ele><time>2026-03-24T09:29:59Z</time></trkpt>
<trkpt lat="43.0188520000" lon="0.3445420000"><ele>1134</ele><time>2026-03-24T09:30:02Z</time></trkpt>
<trkpt lat="43.0188370000" lon="0.3445250000"><ele>1134</ele><time>2026-03-24T09:30:05Z</time></trkpt>
<trkpt lat="43.0188200000" lon="0.3445120000"><ele>1134</ele><time>2026-03-24T09:30:08Z</time></trkpt>
<trkpt lat="43.0188050000" lon="0.3444800000"><ele>1135</ele><time>2026-03-24T09:30:11Z</time></trkpt>
<trkpt lat="43.0187900000" lon="0.3444520000"><ele>1135</ele><time>2026-03-24T09:30:13Z</time></trkpt>
<trkpt lat="43.0187720000" lon="0.3444320000"><ele>1136</ele><time>2026-03-24T09:30:16Z</time></trkpt>
<trkpt lat="43.0187520000" lon="0.3444120000"><ele>1136</ele><time>2026-03-24T09:30:19Z</time></trkpt>
<trkpt lat="43.0187270000" lon="0.3444070000"><ele>1136</ele><time>2026-03-24T09:30:22Z</time></trkpt>
<trkpt lat="43.0187020000" lon="0.3443970000"><ele>1136</ele><time>2026-03-24T09:30:25Z</time></trkpt>
<trkpt lat="43.0186820000" lon="0.3443770000"><ele>1137</ele><time>2026-03-24T09:30:28Z</time></trkpt>
<trkpt lat="43.0186650000" lon="0.3443420000"><ele>1137</ele><time>2026-03-24T09:30:31Z</time></trkpt>
<trkpt lat="43.0186570000" lon="0.3443120000"><ele>1137</ele><time>2026-03-24T09:30:33Z</time></trkpt>
<trkpt lat="43.0186420000" lon="0.3442970000"><ele>1137</ele><time>2026-03-24T09:30:35Z</time></trkpt>
<trkpt lat="43.0186220000" lon="0.3442770000"><ele>1138</ele><time>2026-03-24T09:30:38Z</time></trkpt>
<trkpt lat="43.0186020000" lon="0.3442620000"><ele>1138</ele><time>2026-03-24T09:30:41Z</time></trkpt>
<trkpt lat="43.0185920000" lon="0.3442370000"><ele>1138</ele><time>2026-03-24T09:30:43Z</time></trkpt>
<trkpt lat="43.0185800000" lon="0.3442120000"><ele>1138</ele><time>2026-03-24T09:30:45Z</time></trkpt>
<trkpt lat="43.0185670000" lon="0.3441900000"><ele>1139</ele><time>2026-03-24T09:30:47Z</time></trkpt>
<trkpt lat="43.0185500000" lon="0.3441720000"><ele>1139</ele><time>2026-03-24T09:30:49Z</time></trkpt>
<trkpt lat="43.0185320000" lon="0.3441500000"><ele>1139</ele><time>2026-03-24T09:30:51Z</time></trkpt>
<trkpt lat="43.0185200000" lon="0.3441270000"><ele>1139</ele><time>2026-03-24T09:30:53Z</time></trkpt>
<trkpt lat="43.0185050000" lon="0.3441000000"><ele>1139</ele><time>2026-03-24T09:30:56Z</time></trkpt>
<trkpt lat="43.0184900000" lon="0.3440820000"><ele>1140</ele><time>2026-03-24T09:30:59Z</time></trkpt>
<trkpt lat="43.0184720000" lon="0.3440670000"><ele>1141</ele><time>2026-03-24T09:31:03Z</time></trkpt>
<trkpt lat="43.0184700000" lon="0.3440350000"><ele>1141</ele><time>2026-03-24T09:31:06Z</time></trkpt>
<trkpt lat="43.0184550000" lon="0.3440150000"><ele>1141</ele><time>2026-03-24T09:31:08Z</time></trkpt>
<trkpt lat="43.0184420000" lon="0.3439970000"><ele>1141</ele><time>2026-03-24T09:31:10Z</time></trkpt>
<trkpt lat="43.0184270000" lon="0.3439680000"><ele>1141</ele><time>2026-03-24T09:31:12Z</time></trkpt>
<trkpt lat="43.0184120000" lon="0.3439450000"><ele>1142</ele><time>2026-03-24T09:31:15Z</time></trkpt>
<trkpt lat="43.0183920000" lon="0.3439270000"><ele>1142</ele><time>2026-03-24T09:31:18Z</time></trkpt>
<trkpt lat="43.0183870000" lon="0.3439020000"><ele>1143</ele><time>2026-03-24T09:31:20Z</time></trkpt>
<trkpt lat="43.0183770000" lon="0.3438730000"><ele>1143</ele><time>2026-03-24T09:31:23Z</time></trkpt>
<trkpt lat="43.0183650000" lon="0.3438420000"><ele>1143</ele><time>2026-03-24T09:31:26Z</time></trkpt>
<trkpt lat="43.0183470000" lon="0.3438220000"><ele>1143</ele><time>2026-03-24T09:31:29Z</time></trkpt>
<trkpt lat="43.0183350000" lon="0.3438000000"><ele>1144</ele><time>2026-03-24T09:31:33Z</time></trkpt>
<trkpt lat="43.0183200000" lon="0.3437770000"><ele>1144</ele><time>2026-03-24T09:31:36Z</time></trkpt>
<trkpt lat="43.0183070000" lon="0.3437420000"><ele>1145</ele><time>2026-03-24T09:31:39Z</time></trkpt>
<trkpt lat="43.0183000000" lon="0.3437120000"><ele>1145</ele><time>2026-03-24T09:31:42Z</time></trkpt>
<trkpt lat="43.0182870000" lon="0.3436850000"><ele>1145</ele><time>2026-03-24T09:31:45Z</time></trkpt>
<trkpt lat="43.0182720000" lon="0.3436570000"><ele>1146</ele><time>2026-03-24T09:31:48Z</time></trkpt>
<trkpt lat="43.0182650000" lon="0.3436250000"><ele>1146</ele><time>2026-03-24T09:31:52Z</time></trkpt>
<trkpt lat="43.0182570000" lon="0.3436000000"><ele>1147</ele><time>2026-03-24T09:31:56Z</time></trkpt>
<trkpt lat="43.0182450000" lon="0.3435770000"><ele>1147</ele><time>2026-03-24T09:31:59Z</time></trkpt>
<trkpt lat="43.0182320000" lon="0.3435570000"><ele>1147</ele><time>2026-03-24T09:32:01Z</time></trkpt>
<trkpt lat="43.0182120000" lon="0.3435320000"><ele>1147</ele><time>2026-03-24T09:32:04Z</time></trkpt>
<trkpt lat="43.0182020000" lon="0.3435020000"><ele>1148</ele><time>2026-03-24T09:32:07Z</time></trkpt>
<trkpt lat="43.0181950000" lon="0.3434770000"><ele>1148</ele><time>2026-03-24T09:32:09Z</time></trkpt>
<trkpt lat="43.0181850000" lon="0.3434520000"><ele>1148</ele><time>2026-03-24T09:32:11Z</time></trkpt>
<trkpt lat="43.0181750000" lon="0.3434180000"><ele>1149</ele><time>2026-03-24T09:32:14Z</time></trkpt>
<trkpt lat="43.0181620000" lon="0.3433970000"><ele>1149</ele><time>2026-03-24T09:32:17Z</time></trkpt>
<trkpt lat="43.0181520000" lon="0.3433670000"><ele>1149</ele><time>2026-03-24T09:32:21Z</time></trkpt>
<trkpt lat="43.0181450000" lon="0.3433420000"><ele>1150</ele><time>2026-03-24T09:32:25Z</time></trkpt>
<trkpt lat="43.0181270000" lon="0.3433270000"><ele>1150</ele><time>2026-03-24T09:32:29Z</time></trkpt>
<trkpt lat="43.0181220000" lon="0.3432920000"><ele>1150</ele><time>2026-03-24T09:32:32Z</time></trkpt>
<trkpt lat="43.0181170000" lon="0.3432530000"><ele>1150</ele><time>2026-03-24T09:32:34Z</time></trkpt>
<trkpt lat="43.0181020000" lon="0.3432270000"><ele>1150</ele><time>2026-03-24T09:32:37Z</time></trkpt>
<trkpt lat="43.0180920000" lon="0.3431950000"><ele>1150</ele><time>2026-03-24T09:32:40Z</time></trkpt>
<trkpt lat="43.0180770000" lon="0.3431670000"><ele>1151</ele><time>2026-03-24T09:32:42Z</time></trkpt>
<trkpt lat="43.0180670000" lon="0.3431450000"><ele>1151</ele><time>2026-03-24T09:32:45Z</time></trkpt>
<trkpt lat="43.0180620000" lon="0.3431220000"><ele>1151</ele><time>2026-03-24T09:32:48Z</time></trkpt>
<trkpt lat="43.0180720000" lon="0.3430930000"><ele>1151</ele><time>2026-03-24T09:32:50Z</time></trkpt>
<trkpt lat="43.0180920000" lon="0.3430700000"><ele>1152</ele><time>2026-03-24T09:33:20Z</time></trkpt>
<trkpt lat="43.0180780000" lon="0.3430330000"><ele>1152</ele><time>2026-03-24T09:33:24Z</time></trkpt>
<trkpt lat="43.0180670000" lon="0.3430070000"><ele>1152</ele><time>2026-03-24T09:33:26Z</time></trkpt>
<trkpt lat="43.0180720000" lon="0.3429670000"><ele>1152</ele><time>2026-03-24T09:33:28Z</time></trkpt>
<trkpt lat="43.0180650000" lon="0.3429400000"><ele>1152</ele><time>2026-03-24T09:33:30Z</time></trkpt>
<trkpt lat="43.0180600000" lon="0.3429070000"><ele>1153</ele><time>2026-03-24T09:33:32Z</time></trkpt>
<trkpt lat="43.0180520000" lon="0.3428800000"><ele>1153</ele><time>2026-03-24T09:33:35Z</time></trkpt>
<trkpt lat="43.0180400000" lon="0.3428520000"><ele>1153</ele><time>2026-03-24T09:33:38Z</time></trkpt>
<trkpt lat="43.0180270000" lon="0.3428250000"><ele>1153</ele><time>2026-03-24T09:33:40Z</time></trkpt>
<trkpt lat="43.0180200000" lon="0.3428000000"><ele>1153</ele><time>2026-03-24T09:33:42Z</time></trkpt>
<trkpt lat="43.0180200000" lon="0.3427720000"><ele>1154</ele><time>2026-03-24T09:33:45Z</time></trkpt>
<trkpt lat="43.0180320000" lon="0.3427450000"><ele>1154</ele><time>2026-03-24T09:33:53Z</time></trkpt>
<trkpt lat="43.0180400000" lon="0.3427120000"><ele>1154</ele><time>2026-03-24T09:33:55Z</time></trkpt>
<trkpt lat="43.0180420000" lon="0.3426750000"><ele>1154</ele><time>2026-03-24T09:33:57Z</time></trkpt>
<trkpt lat="43.0180420000" lon="0.3426470000"><ele>1154</ele><time>2026-03-24T09:33:59Z</time></trkpt>
<trkpt lat="43.0180320000" lon="0.3426070000"><ele>1155</ele><time>2026-03-24T09:34:06Z</time></trkpt>
<trkpt lat="43.0180220000" lon="0.3425670000"><ele>1155</ele><time>2026-03-24T09:34:08Z</time></trkpt>
<trkpt lat="43.0180150000" lon="0.3425370000"><ele>1155</ele><time>2026-03-24T09:34:10Z</time></trkpt>
<trkpt lat="43.0180080000" lon="0.3425100000"><ele>1155</ele><time>2026-03-24T09:34:12Z</time></trkpt>
<trkpt lat="43.0180120000" lon="0.3424820000"><ele>1155</ele><time>2026-03-24T09:34:14Z</time></trkpt>
<trkpt lat="43.0180120000" lon="0.3424470000"><ele>1155</ele><time>2026-03-24T09:34:17Z</time></trkpt>
<trkpt lat="43.0180170000" lon="0.3424170000"><ele>1156</ele><time>2026-03-24T09:34:20Z</time></trkpt>
<trkpt lat="43.0180170000" lon="0.3423900000"><ele>1156</ele><time>2026-03-24T09:34:22Z</time></trkpt>
<trkpt lat="43.0180120000" lon="0.3423570000"><ele>1156</ele><time>2026-03-24T09:34:25Z</time></trkpt>
<trkpt lat="43.0180070000" lon="0.3423220000"><ele>1157</ele><time>2026-03-24T09:34:28Z</time></trkpt>
<trkpt lat="43.0180080000" lon="0.3422920000"><ele>1157</ele><time>2026-03-24T09:34:30Z</time></trkpt>
<trkpt lat="43.0180020000" lon="0.3422620000"><ele>1157</ele><time>2026-03-24T09:34:33Z</time></trkpt>
<trkpt lat="43.0180050000" lon="0.3422300000"><ele>1157</ele><time>2026-03-24T09:34:36Z</time></trkpt>
<trkpt lat="43.0180120000" lon="0.3421970000"><ele>1158</ele><time>2026-03-24T09:34:38Z</time></trkpt>
<trkpt lat="43.0180070000" lon="0.3421600000"><ele>1158</ele><time>2026-03-24T09:34:42Z</time></trkpt>
<trkpt lat="43.0180000000" lon="0.3421300000"><ele>1158</ele><time>2026-03-24T09:34:45Z</time></trkpt>
<trkpt lat="43.0180020000" lon="0.3420970000"><ele>1159</ele><time>2026-03-24T09:34:50Z</time></trkpt>
<trkpt lat="43.0180050000" lon="0.3420720000"><ele>1160</ele><time>2026-03-24T09:34:52Z</time></trkpt>
<trkpt lat="43.0179970000" lon="0.3420470000"><ele>1160</ele><time>2026-03-24T09:34:54Z</time></trkpt>
<trkpt lat="43.0179770000" lon="0.3420270000"><ele>1160</ele><time>2026-03-24T09:34:56Z</time></trkpt>
<trkpt lat="43.0179800000" lon="0.3419970000"><ele>1160</ele><time>2026-03-24T09:34:58Z</time></trkpt>
<trkpt lat="43.0179770000" lon="0.3419570000"><ele>1161</ele><time>2026-03-24T09:35:00Z</time></trkpt>
<trkpt lat="43.0179770000" lon="0.3419270000"><ele>1161</ele><time>2026-03-24T09:35:03Z</time></trkpt>
<trkpt lat="43.0179700000" lon="0.3418970000"><ele>1161</ele><time>2026-03-24T09:35:06Z</time></trkpt>
<trkpt lat="43.0179720000" lon="0.3418720000"><ele>1162</ele><time>2026-03-24T09:35:09Z</time></trkpt>
<trkpt lat="43.0179820000" lon="0.3418450000"><ele>1162</ele><time>2026-03-24T09:35:11Z</time></trkpt>
<trkpt lat="43.0180000000" lon="0.3418220000"><ele>1162</ele><time>2026-03-24T09:35:13Z</time></trkpt>
<trkpt lat="43.0179800000" lon="0.3418150000"><ele>1162</ele><time>2026-03-24T09:35:15Z</time></trkpt>
<trkpt lat="43.0179670000" lon="0.3417950000"><ele>1163</ele><time>2026-03-24T09:35:19Z</time></trkpt>
<trkpt lat="43.0179650000" lon="0.3417670000"><ele>1163</ele><time>2026-03-24T09:35:23Z</time></trkpt>
<trkpt lat="43.0179650000" lon="0.3417320000"><ele>1164</ele><time>2026-03-24T09:35:27Z</time></trkpt>
<trkpt lat="43.0179850000" lon="0.3417120000"><ele>1164</ele><time>2026-03-24T09:35:29Z</time></trkpt>
<trkpt lat="43.0179720000" lon="0.3416850000"><ele>1164</ele><time>2026-03-24T09:35:34Z</time></trkpt>
<trkpt lat="43.0179770000" lon="0.3416530000"><ele>1164</ele><time>2026-03-24T09:35:37Z</time></trkpt>
<trkpt lat="43.0179850000" lon="0.3416200000"><ele>1164</ele><time>2026-03-24T09:35:39Z</time></trkpt>
<trkpt lat="43.0179920000" lon="0.3415970000"><ele>1164</ele><time>2026-03-24T09:35:41Z</time></trkpt>
<trkpt lat="43.0179900000" lon="0.3415720000"><ele>1165</ele><time>2026-03-24T09:35:43Z</time></trkpt>
<trkpt lat="43.0179850000" lon="0.3415450000"><ele>1165</ele><time>2026-03-24T09:35:45Z</time></trkpt>
<trkpt lat="43.0179770000" lon="0.3415170000"><ele>1165</ele><time>2026-03-24T09:35:47Z</time></trkpt>
<trkpt lat="43.0179600000" lon="0.3415050000"><ele>1165</ele><time>2026-03-24T09:35:50Z</time></trkpt>
<trkpt lat="43.0179550000" lon="0.3414720000"><ele>1165</ele><time>2026-03-24T09:35:53Z</time></trkpt>
<trkpt lat="43.0179450000" lon="0.3414450000"><ele>1166</ele><time>2026-03-24T09:35:56Z</time></trkpt>
<trkpt lat="43.0179420000" lon="0.3414100000"><ele>1166</ele><time>2026-03-24T09:36:01Z</time></trkpt>
<trkpt lat="43.0179300000" lon="0.3413820000"><ele>1167</ele><time>2026-03-24T09:36:04Z</time></trkpt>
<trkpt lat="43.0179270000" lon="0.3413570000"><ele>1167</ele><time>2026-03-24T09:36:08Z</time></trkpt>
<trkpt lat="43.0179200000" lon="0.3413320000"><ele>1168</ele><time>2026-03-24T09:36:11Z</time></trkpt>
<trkpt lat="43.0179230000" lon="0.3413020000"><ele>1168</ele><time>2026-03-24T09:36:14Z</time></trkpt>
<trkpt lat="43.0179220000" lon="0.3412770000"><ele>1168</ele><time>2026-03-24T09:36:16Z</time></trkpt>
<trkpt lat="43.0179170000" lon="0.3412420000"><ele>1169</ele><time>2026-03-24T09:36:19Z</time></trkpt>
<trkpt lat="43.0179100000" lon="0.3412100000"><ele>1169</ele><time>2026-03-24T09:36:22Z</time></trkpt>
<trkpt lat="43.0179020000" lon="0.3411750000"><ele>1169</ele><time>2026-03-24T09:36:25Z</time></trkpt>
<trkpt lat="43.0179020000" lon="0.3411470000"><ele>1170</ele><time>2026-03-24T09:36:27Z</time></trkpt>
<trkpt lat="43.0179020000" lon="0.3411170000"><ele>1170</ele><time>2026-03-24T09:36:30Z</time></trkpt>
<trkpt lat="43.0179020000" lon="0.3410870000"><ele>1170</ele><time>2026-03-24T09:36:32Z</time></trkpt>
<trkpt lat="43.0178970000" lon="0.3410620000"><ele>1171</ele><time>2026-03-24T09:36:34Z</time></trkpt>
<trkpt lat="43.0178920000" lon="0.3410320000"><ele>1171</ele><time>2026-03-24T09:36:37Z</time></trkpt>
<trkpt lat="43.0178820000" lon="0.3410020000"><ele>1171</ele><time>2026-03-24T09:36:39Z</time></trkpt>
<trkpt lat="43.0178750000" lon="0.3409750000"><ele>1171</ele><time>2026-03-24T09:36:41Z</time></trkpt>
<trkpt lat="43.0178670000" lon="0.3409470000"><ele>1172</ele><time>2026-03-24T09:36:44Z</time></trkpt>
<trkpt lat="43.0178620000" lon="0.3409170000"><ele>1172</ele><time>2026-03-24T09:36:47Z</time></trkpt>
<trkpt lat="43.0178700000" lon="0.3408870000"><ele>1172</ele><time>2026-03-24T09:36:50Z</time></trkpt>
<trkpt lat="43.0178700000" lon="0.3408570000"><ele>1173</ele><time>2026-03-24T09:36:53Z</time></trkpt>
<trkpt lat="43.0178720000" lon="0.3408320000"><ele>1173</ele><time>2026-03-24T09:36:56Z</time></trkpt>
<trkpt lat="43.0178720000" lon="0.3407970000"><ele>1173</ele><time>2026-03-24T09:36:59Z</time></trkpt>
<trkpt lat="43.0178600000" lon="0.3407720000"><ele>1173</ele><time>2026-03-24T09:37:01Z</time></trkpt>
<trkpt lat="43.0178470000" lon="0.3407500000"><ele>1173</ele><time>2026-03-24T09:37:03Z</time></trkpt>
<trkpt lat="43.0178500000" lon="0.3407220000"><ele>1174</ele><time>2026-03-24T09:37:07Z</time></trkpt>
<trkpt lat="43.0178470000" lon="0.3406970000"><ele>1174</ele><time>2026-03-24T09:37:09Z</time></trkpt>
<trkpt lat="43.0178400000" lon="0.3406720000"><ele>1174</ele><time>2026-03-24T09:37:12Z</time></trkpt>
<trkpt lat="43.0178270000" lon="0.3406470000"><ele>1175</ele><time>2026-03-24T09:37:15Z</time></trkpt>
<trkpt lat="43.0178150000" lon="0.3406270000"><ele>1175</ele><time>2026-03-24T09:37:17Z</time></trkpt>
<trkpt lat="43.0177970000" lon="0.3405970000"><ele>1175</ele><time>2026-03-24T09:37:19Z</time></trkpt>
<trkpt lat="43.0177870000" lon="0.3405720000"><ele>1175</ele><time>2026-03-24T09:37:20Z</time></trkpt>
<trkpt lat="43.0177920000" lon="0.3405470000"><ele>1176</ele><time>2026-03-24T09:37:21Z</time></trkpt>
<trkpt lat="43.0177850000" lon="0.3405070000"><ele>1176</ele><time>2026-03-24T09:37:23Z</time></trkpt>
<trkpt lat="43.0177950000" lon="0.3404820000"><ele>1176</ele><time>2026-03-24T09:37:24Z</time></trkpt>
<trkpt lat="43.0177820000" lon="0.3404420000"><ele>1176</ele><time>2026-03-24T09:37:27Z</time></trkpt>
<trkpt lat="43.0177750000" lon="0.3404170000"><ele>1176</ele><time>2026-03-24T09:37:30Z</time></trkpt>
<trkpt lat="43.0177770000" lon="0.3403820000"><ele>1176</ele><time>2026-03-24T09:37:33Z</time></trkpt>
<trkpt lat="43.0177900000" lon="0.3403570000"><ele>1177</ele><time>2026-03-24T09:37:36Z</time></trkpt>
<trkpt lat="43.0177800000" lon="0.3403320000"><ele>1177</ele><time>2026-03-24T09:37:39Z</time></trkpt>
<trkpt lat="43.0177620000" lon="0.3403120000"><ele>1177</ele><time>2026-03-24T09:37:42Z</time></trkpt>
<trkpt lat="43.0177550000" lon="0.3402770000"><ele>1178</ele><time>2026-03-24T09:37:45Z</time></trkpt>
<trkpt lat="43.0177500000" lon="0.3402500000"><ele>1178</ele><time>2026-03-24T09:37:48Z</time></trkpt>
<trkpt lat="43.0177400000" lon="0.3402230000"><ele>1178</ele><time>2026-03-24T09:37:52Z</time></trkpt>
<trkpt lat="43.0177520000" lon="0.3402020000"><ele>1178</ele><time>2026-03-24T09:37:54Z</time></trkpt>
<trkpt lat="43.0177520000" lon="0.3401770000"><ele>1179</ele><time>2026-03-24T09:37:56Z</time></trkpt>
<trkpt lat="43.0177450000" lon="0.3401470000"><ele>1179</ele><time>2026-03-24T09:37:58Z</time></trkpt>
<trkpt lat="43.0177470000" lon="0.3401220000"><ele>1179</ele><time>2026-03-24T09:38:00Z</time></trkpt>
<trkpt lat="43.0177520000" lon="0.3400970000"><ele>1179</ele><time>2026-03-24T09:38:02Z</time></trkpt>
<trkpt lat="43.0177470000" lon="0.3400670000"><ele>1180</ele><time>2026-03-24T09:38:04Z</time></trkpt>
<trkpt lat="43.0177470000" lon="0.3400330000"><ele>1180</ele><time>2026-03-24T09:38:06Z</time></trkpt>
<trkpt lat="43.0177250000" lon="0.3400020000"><ele>1180</ele><time>2026-03-24T09:38:08Z</time></trkpt>
<trkpt lat="43.0177020000" lon="0.3399800000"><ele>1180</ele><time>2026-03-24T09:38:10Z</time></trkpt>
<trkpt lat="43.0176870000" lon="0.3399520000"><ele>1180</ele><time>2026-03-24T09:38:13Z</time></trkpt>
<trkpt lat="43.0176850000" lon="0.3399270000"><ele>1181</ele><time>2026-03-24T09:38:16Z</time></trkpt>
<trkpt lat="43.0176700000" lon="0.3399070000"><ele>1181</ele><time>2026-03-24T09:38:19Z</time></trkpt>
<trkpt lat="43.0176520000" lon="0.3398850000"><ele>1182</ele><time>2026-03-24T09:38:23Z</time></trkpt>
<trkpt lat="43.0176420000" lon="0.3398600000"><ele>1182</ele><time>2026-03-24T09:38:25Z</time></trkpt>
<trkpt lat="43.0176320000" lon="0.3398080000"><ele>1182</ele><time>2026-03-24T09:38:27Z</time></trkpt>
<trkpt lat="43.0176320000" lon="0.3397820000"><ele>1182</ele><time>2026-03-24T09:38:29Z</time></trkpt>
<trkpt lat="43.0176270000" lon="0.3397500000"><ele>1182</ele><time>2026-03-24T09:38:33Z</time></trkpt>
<trkpt lat="43.0176370000" lon="0.3397130000"><ele>1183</ele><time>2026-03-24T09:38:35Z</time></trkpt>
<trkpt lat="43.0176450000" lon="0.3396820000"><ele>1183</ele><time>2026-03-24T09:38:37Z</time></trkpt>
<trkpt lat="43.0176420000" lon="0.3396520000"><ele>1183</ele><time>2026-03-24T09:38:40Z</time></trkpt>
<trkpt lat="43.0176270000" lon="0.3396250000"><ele>1183</ele><time>2026-03-24T09:38:44Z</time></trkpt>
<trkpt lat="43.0176170000" lon="0.3396020000"><ele>1183</ele><time>2026-03-24T09:38:46Z</time></trkpt>
<trkpt lat="43.0176020000" lon="0.3395850000"><ele>1184</ele><time>2026-03-24T09:38:48Z</time></trkpt>
<trkpt lat="43.0175920000" lon="0.3395550000"><ele>1184</ele><time>2026-03-24T09:38:50Z</time></trkpt>
<trkpt lat="43.0175770000" lon="0.3395330000"><ele>1184</ele><time>2026-03-24T09:38:52Z</time></trkpt>
<trkpt lat="43.0175670000" lon="0.3395120000"><ele>1184</ele><time>2026-03-24T09:38:54Z</time></trkpt>
<trkpt lat="43.0175570000" lon="0.3394870000"><ele>1184</ele><time>2026-03-24T09:38:56Z</time></trkpt>
<trkpt lat="43.0175430000" lon="0.3394570000"><ele>1184</ele><time>2026-03-24T09:38:59Z</time></trkpt>
<trkpt lat="43.0175270000" lon="0.3394230000"><ele>1185</ele><time>2026-03-24T09:39:03Z</time></trkpt>
<trkpt lat="43.0175120000" lon="0.3394070000"><ele>1185</ele><time>2026-03-24T09:39:04Z</time></trkpt>
<trkpt lat="43.0174920000" lon="0.3393870000"><ele>1185</ele><time>2026-03-24T09:39:06Z</time></trkpt>
<trkpt lat="43.0174770000" lon="0.3393650000"><ele>1185</ele><time>2026-03-24T09:39:08Z</time></trkpt>
<trkpt lat="43.0174570000" lon="0.3393480000"><ele>1185</ele><time>2026-03-24T09:39:10Z</time></trkpt>
<trkpt lat="43.0174600000" lon="0.3393220000"><ele>1185</ele><time>2026-03-24T09:39:12Z</time></trkpt>
<trkpt lat="43.0174670000" lon="0.3392950000"><ele>1186</ele><time>2026-03-24T09:39:14Z</time></trkpt>
<trkpt lat="43.0174670000" lon="0.3392620000"><ele>1186</ele><time>2026-03-24T09:39:16Z</time></trkpt>
<trkpt lat="43.0174720000" lon="0.3392350000"><ele>1186</ele><time>2026-03-24T09:39:18Z</time></trkpt>
<trkpt lat="43.0174670000" lon="0.3392030000"><ele>1186</ele><time>2026-03-24T09:39:20Z</time></trkpt>
<trkpt lat="43.0174620000" lon="0.3391800000"><ele>1186</ele><time>2026-03-24T09:39:23Z</time></trkpt>
<trkpt lat="43.0174520000" lon="0.3391520000"><ele>1186</ele><time>2026-03-24T09:39:26Z</time></trkpt>
<trkpt lat="43.0174350000" lon="0.3391200000"><ele>1186</ele><time>2026-03-24T09:39:28Z</time></trkpt>
<trkpt lat="43.0174220000" lon="0.3390920000"><ele>1186</ele><time>2026-03-24T09:39:30Z</time></trkpt>
<trkpt lat="43.0174100000" lon="0.3390670000"><ele>1186</ele><time>2026-03-24T09:39:32Z</time></trkpt>
<trkpt lat="43.0174020000" lon="0.3390420000"><ele>1186</ele><time>2026-03-24T09:39:34Z</time></trkpt>
<trkpt lat="43.0173850000" lon="0.3390220000"><ele>1186</ele><time>2026-03-24T09:39:37Z</time></trkpt>
<trkpt lat="43.0173770000" lon="0.3389970000"><ele>1186</ele><time>2026-03-24T09:39:40Z</time></trkpt>
<trkpt lat="43.0173720000" lon="0.3389670000"><ele>1186</ele><time>2026-03-24T09:39:42Z</time></trkpt>
<trkpt lat="43.0173770000" lon="0.3389370000"><ele>1186</ele><time>2026-03-24T09:39:45Z</time></trkpt>
<trkpt lat="43.0173700000" lon="0.3389120000"><ele>1186</ele><time>2026-03-24T09:39:47Z</time></trkpt>
<trkpt lat="43.0173600000" lon="0.3388820000"><ele>1186</ele><time>2026-03-24T09:39:49Z</time></trkpt>
<trkpt lat="43.0173620000" lon="0.3388500000"><ele>1186</ele><time>2026-03-24T09:39:51Z</time></trkpt>
<trkpt lat="43.0173720000" lon="0.3388170000"><ele>1186</ele><time>2026-03-24T09:39:53Z</time></trkpt>
<trkpt lat="43.0173770000" lon="0.3387870000"><ele>1186</ele><time>2026-03-24T09:39:55Z</time></trkpt>
<trkpt lat="43.0173720000" lon="0.3387600000"><ele>1186</ele><time>2026-03-24T09:39:58Z</time></trkpt>
<trkpt lat="43.0173670000" lon="0.3387170000"><ele>1186</ele><time>2026-03-24T09:40:01Z</time></trkpt>
<trkpt lat="43.0173570000" lon="0.3386920000"><ele>1186</ele><time>2026-03-24T09:40:03Z</time></trkpt>
<trkpt lat="43.0173450000" lon="0.3386670000"><ele>1186</ele><time>2026-03-24T09:40:06Z</time></trkpt>
<trkpt lat="43.0173220000" lon="0.3386430000"><ele>1186</ele><time>2026-03-24T09:40:08Z</time></trkpt>
<trkpt lat="43.0173100000" lon="0.3386270000"><ele>1186</ele><time>2026-03-24T09:40:10Z</time></trkpt>
<trkpt lat="43.0172970000" lon="0.3385970000"><ele>1186</ele><time>2026-03-24T09:40:13Z</time></trkpt>
<trkpt lat="43.0172820000" lon="0.3385800000"><ele>1186</ele><time>2026-03-24T09:40:15Z</time></trkpt>
<trkpt lat="43.0172820000" lon="0.3385430000"><ele>1186</ele><time>2026-03-24T09:40:18Z</time></trkpt>
<trkpt lat="43.0172720000" lon="0.3385220000"><ele>1185</ele><time>2026-03-24T09:40:21Z</time></trkpt>
<trkpt lat="43.0172700000" lon="0.3384820000"><ele>1184</ele><time>2026-03-24T09:40:35Z</time></trkpt>
<trkpt lat="43.0172620000" lon="0.3384470000"><ele>1184</ele><time>2026-03-24T09:40:37Z</time></trkpt>
<trkpt lat="43.0172420000" lon="0.3384250000"><ele>1184</ele><time>2026-03-24T09:40:39Z</time></trkpt>
<trkpt lat="43.0172320000" lon="0.3384020000"><ele>1184</ele><time>2026-03-24T09:40:41Z</time></trkpt>
<trkpt lat="43.0172270000" lon="0.3383700000"><ele>1184</ele><time>2026-03-24T09:40:43Z</time></trkpt>
<trkpt lat="43.0172150000" lon="0.3383350000"><ele>1184</ele><time>2026-03-24T09:40:46Z</time></trkpt>
<trkpt lat="43.0171970000" lon="0.3383170000"><ele>1184</ele><time>2026-03-24T09:40:48Z</time></trkpt>
<trkpt lat="43.0171870000" lon="0.3382950000"><ele>1184</ele><time>2026-03-24T09:40:50Z</time></trkpt>
<trkpt lat="43.0171700000" lon="0.3382730000"><ele>1184</ele><time>2026-03-24T09:40:52Z</time></trkpt>
<trkpt lat="43.0171520000" lon="0.3382500000"><ele>1184</ele><time>2026-03-24T09:40:55Z</time></trkpt>
<trkpt lat="43.0171420000" lon="0.3382270000"><ele>1184</ele><time>2026-03-24T09:40:57Z</time></trkpt>
<trkpt lat="43.0171300000" lon="0.3381950000"><ele>1184</ele><time>2026-03-24T09:40:59Z</time></trkpt>
<trkpt lat="43.0171220000" lon="0.3381620000"><ele>1184</ele><time>2026-03-24T09:41:01Z</time></trkpt>
<trkpt lat="43.0171120000" lon="0.3381380000"><ele>1184</ele><time>2026-03-24T09:41:03Z</time></trkpt>
<trkpt lat="43.0170920000" lon="0.3381220000"><ele>1183</ele><time>2026-03-24T09:41:05Z</time></trkpt>
<trkpt lat="43.0170800000" lon="0.3381050000"><ele>1183</ele><time>2026-03-24T09:41:07Z</time></trkpt>
<trkpt lat="43.0170670000" lon="0.3380720000"><ele>1183</ele><time>2026-03-24T09:41:10Z</time></trkpt>
<trkpt lat="43.0170650000" lon="0.3380470000"><ele>1183</ele><time>2026-03-24T09:41:12Z</time></trkpt>
<trkpt lat="43.0170520000" lon="0.3380170000"><ele>1183</ele><time>2026-03-24T09:41:14Z</time></trkpt>
<trkpt lat="43.0170320000" lon="0.3379920000"><ele>1183</ele><time>2026-03-24T09:41:16Z</time></trkpt>
<trkpt lat="43.0170200000" lon="0.3379620000"><ele>1182</ele><time>2026-03-24T09:41:18Z</time></trkpt>
<trkpt lat="43.0170100000" lon="0.3379320000"><ele>1182</ele><time>2026-03-24T09:41:21Z</time></trkpt>
<trkpt lat="43.0169970000" lon="0.3378980000"><ele>1182</ele><time>2026-03-24T09:41:23Z</time></trkpt>
<trkpt lat="43.0169820000" lon="0.3378770000"><ele>1182</ele><time>2026-03-24T09:41:25Z</time></trkpt>
<trkpt lat="43.0169720000" lon="0.3378570000"><ele>1182</ele><time>2026-03-24T09:41:27Z</time></trkpt>
<trkpt lat="43.0169570000" lon="0.3378370000"><ele>1182</ele><time>2026-03-24T09:41:29Z</time></trkpt>
<trkpt lat="43.0169450000" lon="0.3378100000"><ele>1182</ele><time>2026-03-24T09:41:31Z</time></trkpt>
<trkpt lat="43.0169370000" lon="0.3377820000"><ele>1181</ele><time>2026-03-24T09:41:33Z</time></trkpt>
<trkpt lat="43.0169320000" lon="0.3377470000"><ele>1181</ele><time>2026-03-24T09:41:36Z</time></trkpt>
<trkpt lat="43.0169170000" lon="0.3377220000"><ele>1181</ele><time>2026-03-24T09:41:38Z</time></trkpt>
<trkpt lat="43.0169000000" lon="0.3376970000"><ele>1180</ele><time>2026-03-24T09:41:40Z</time></trkpt>
<trkpt lat="43.0168870000" lon="0.3376770000"><ele>1180</ele><time>2026-03-24T09:41:42Z</time></trkpt>
<trkpt lat="43.0168720000" lon="0.3376620000"><ele>1180</ele><time>2026-03-24T09:41:44Z</time></trkpt>
<trkpt lat="43.0168570000" lon="0.3376320000"><ele>1180</ele><time>2026-03-24T09:41:47Z</time></trkpt>
<trkpt lat="43.0168420000" lon="0.3376050000"><ele>1180</ele><time>2026-03-24T09:41:49Z</time></trkpt>
<trkpt lat="43.0168250000" lon="0.3375820000"><ele>1180</ele><time>2026-03-24T09:41:52Z</time></trkpt>
<trkpt lat="43.0168070000" lon="0.3375620000"><ele>1179</ele><time>2026-03-24T09:41:55Z</time></trkpt>
<trkpt lat="43.0167900000" lon="0.3375420000"><ele>1179</ele><time>2026-03-24T09:41:57Z</time></trkpt>
<trkpt lat="43.0167670000" lon="0.3375170000"><ele>1179</ele><time>2026-03-24T09:41:59Z</time></trkpt>
<trkpt lat="43.0167520000" lon="0.3374870000"><ele>1179</ele><time>2026-03-24T09:42:01Z</time></trkpt>
<trkpt lat="43.0167300000" lon="0.3374750000"><ele>1179</ele><time>2026-03-24T09:42:04Z</time></trkpt>
<trkpt lat="43.0167120000" lon="0.3374520000"><ele>1179</ele><time>2026-03-24T09:42:07Z</time></trkpt>
<trkpt lat="43.0166950000" lon="0.3374320000"><ele>1178</ele><time>2026-03-24T09:42:10Z</time></trkpt>
<trkpt lat="43.0166800000" lon="0.3374120000"><ele>1178</ele><time>2026-03-24T09:42:12Z</time></trkpt>
<trkpt lat="43.0166570000" lon="0.3373970000"><ele>1178</ele><time>2026-03-24T09:42:14Z</time></trkpt>
<trkpt lat="43.0166370000" lon="0.3373800000"><ele>1178</ele><time>2026-03-24T09:42:16Z</time></trkpt>
<trkpt lat="43.0166170000" lon="0.3373670000"><ele>1178</ele><time>2026-03-24T09:42:18Z</time></trkpt>
<trkpt lat="43.0166000000" lon="0.3373450000"><ele>1177</ele><time>2026-03-24T09:42:21Z</time></trkpt>
<trkpt lat="43.0165770000" lon="0.3373220000"><ele>1177</ele><time>2026-03-24T09:42:23Z</time></trkpt>
<trkpt lat="43.0165570000" lon="0.3373120000"><ele>1177</ele><time>2026-03-24T09:42:25Z</time></trkpt>
<trkpt lat="43.0165400000" lon="0.3373250000"><ele>1177</ele><time>2026-03-24T09:42:33Z</time></trkpt>
<trkpt lat="43.0165370000" lon="0.3372970000"><ele>1176</ele><time>2026-03-24T09:42:48Z</time></trkpt>
<trkpt lat="43.0165270000" lon="0.3372750000"><ele>1176</ele><time>2026-03-24T09:42:49Z</time></trkpt>
<trkpt lat="43.0165120000" lon="0.3372500000"><ele>1176</ele><time>2026-03-24T09:42:50Z</time></trkpt>
<trkpt lat="43.0165020000" lon="0.3372220000"><ele>1175</ele><time>2026-03-24T09:42:59Z</time></trkpt>
<trkpt lat="43.0164880000" lon="0.3371920000"><ele>1175</ele><time>2026-03-24T09:43:01Z</time></trkpt>
<trkpt lat="43.0164750000" lon="0.3371670000"><ele>1175</ele><time>2026-03-24T09:43:03Z</time></trkpt>
<trkpt lat="43.0164570000" lon="0.3371430000"><ele>1175</ele><time>2026-03-24T09:43:05Z</time></trkpt>
<trkpt lat="43.0164420000" lon="0.3371250000"><ele>1175</ele><time>2026-03-24T09:43:07Z</time></trkpt>
<trkpt lat="43.0164220000" lon="0.3371120000"><ele>1175</ele><time>2026-03-24T09:43:09Z</time></trkpt>
<trkpt lat="43.0164120000" lon="0.3370920000"><ele>1174</ele><time>2026-03-24T09:43:11Z</time></trkpt>
<trkpt lat="43.0163970000" lon="0.3370720000"><ele>1174</ele><time>2026-03-24T09:43:13Z</time></trkpt>
<trkpt lat="43.0163800000" lon="0.3370550000"><ele>1174</ele><time>2026-03-24T09:43:16Z</time></trkpt>
<trkpt lat="43.0163650000" lon="0.3370330000"><ele>1174</ele><time>2026-03-24T09:43:18Z</time></trkpt>
<trkpt lat="43.0163470000" lon="0.3370150000"><ele>1174</ele><time>2026-03-24T09:43:20Z</time></trkpt>
<trkpt lat="43.0163320000" lon="0.3369920000"><ele>1174</ele><time>2026-03-24T09:43:22Z</time></trkpt>
<trkpt lat="43.0163150000" lon="0.3369700000"><ele>1173</ele><time>2026-03-24T09:43:25Z</time></trkpt>
<trkpt lat="43.0163020000" lon="0.3369470000"><ele>1173</ele><time>2026-03-24T09:43:27Z</time></trkpt>
<trkpt lat="43.0162870000" lon="0.3369200000"><ele>1173</ele><time>2026-03-24T09:43:30Z</time></trkpt>
<trkpt lat="43.0162720000" lon="0.3368870000"><ele>1173</ele><time>2026-03-24T09:43:33Z</time></trkpt>
<trkpt lat="43.0162570000" lon="0.3368670000"><ele>1172</ele><time>2026-03-24T09:43:35Z</time></trkpt>
<trkpt lat="43.0162370000" lon="0.3368480000"><ele>1172</ele><time>2026-03-24T09:43:37Z</time></trkpt>
<trkpt lat="43.0162200000" lon="0.3368420000"><ele>1172</ele><time>2026-03-24T09:43:39Z</time></trkpt>
<trkpt lat="43.0162020000" lon="0.3368320000"><ele>1172</ele><time>2026-03-24T09:43:41Z</time></trkpt>
<trkpt lat="43.0161820000" lon="0.3368120000"><ele>1172</ele><time>2026-03-24T09:43:43Z</time></trkpt>
<trkpt lat="43.0161670000" lon="0.3367880000"><ele>1172</ele><time>2026-03-24T09:43:46Z</time></trkpt>
<trkpt lat="43.0161470000" lon="0.3367670000"><ele>1171</ele><time>2026-03-24T09:43:48Z</time></trkpt>
<trkpt lat="43.0161300000" lon="0.3367470000"><ele>1171</ele><time>2026-03-24T09:43:51Z</time></trkpt>
<trkpt lat="43.0161070000" lon="0.3367350000"><ele>1171</ele><time>2026-03-24T09:43:53Z</time></trkpt>
<trkpt lat="43.0160920000" lon="0.3367150000"><ele>1171</ele><time>2026-03-24T09:43:55Z</time></trkpt>
<trkpt lat="43.0160770000" lon="0.3367030000"><ele>1171</ele><time>2026-03-24T09:43:58Z</time></trkpt>
<trkpt lat="43.0160570000" lon="0.3367170000"><ele>1171</ele><time>2026-03-24T09:44:51Z</time></trkpt>
<trkpt lat="43.0160380000" lon="0.3367470000"><ele>1171</ele><time>2026-03-24T09:44:53Z</time></trkpt>
<trkpt lat="43.0160300000" lon="0.3367670000"><ele>1171</ele><time>2026-03-24T09:44:54Z</time></trkpt>
<trkpt lat="43.0160200000" lon="0.3367970000"><ele>1171</ele><time>2026-03-24T09:44:56Z</time></trkpt>
<trkpt lat="43.0160170000" lon="0.3368250000"><ele>1171</ele><time>2026-03-24T09:44:59Z</time></trkpt>
<trkpt lat="43.0159970000" lon="0.3368370000"><ele>1172</ele><time>2026-03-24T09:45:04Z</time></trkpt>
<trkpt lat="43.0159770000" lon="0.3368520000"><ele>1173</ele><time>2026-03-24T09:45:07Z</time></trkpt>
<trkpt lat="43.0159700000" lon="0.3368800000"><ele>1174</ele><time>2026-03-24T09:45:15Z</time></trkpt>
<trkpt lat="43.0159650000" lon="0.3369070000"><ele>1174</ele><time>2026-03-24T09:45:18Z</time></trkpt>
<trkpt lat="43.0159670000" lon="0.3369330000"><ele>1175</ele><time>2026-03-24T09:45:23Z</time></trkpt>
<trkpt lat="43.0159770000" lon="0.3369570000"><ele>1175</ele><time>2026-03-24T09:45:25Z</time></trkpt>
<trkpt lat="43.0159650000" lon="0.3369820000"><ele>1176</ele><time>2026-03-24T09:45:31Z</time></trkpt>
<trkpt lat="43.0159520000" lon="0.3370280000"><ele>1180</ele><time>2026-03-24T09:46:01Z</time></trkpt>
<trkpt lat="43.0159420000" lon="0.3370670000"><ele>1180</ele><time>2026-03-24T09:46:02Z</time></trkpt>
<trkpt lat="43.0159270000" lon="0.3371170000"><ele>1180</ele><time>2026-03-24T09:46:03Z</time></trkpt>
<trkpt lat="43.0159120000" lon="0.3371670000"><ele>1180</ele><time>2026-03-24T09:46:04Z</time></trkpt>
<trkpt lat="43.0159020000" lon="0.3372070000"><ele>1180</ele><time>2026-03-24T09:46:05Z</time></trkpt>
<trkpt lat="43.0158950000" lon="0.3372370000"><ele>1180</ele><time>2026-03-24T09:46:06Z</time></trkpt>
<trkpt lat="43.0158870000" lon="0.3372720000"><ele>1180</ele><time>2026-03-24T09:46:08Z</time></trkpt>
<trkpt lat="43.0158820000" lon="0.3372970000"><ele>1180</ele><time>2026-03-24T09:46:12Z</time></trkpt>
<trkpt lat="43.0158700000" lon="0.3373170000"><ele>1181</ele><time>2026-03-24T09:46:15Z</time></trkpt>
<trkpt lat="43.0158600000" lon="0.3373420000"><ele>1181</ele><time>2026-03-24T09:46:20Z</time></trkpt>
<trkpt lat="43.0158670000" lon="0.3373650000"><ele>1182</ele><time>2026-03-24T09:46:26Z</time></trkpt>
<trkpt lat="43.0158650000" lon="0.3373900000"><ele>1184</ele><time>2026-03-24T09:46:38Z</time></trkpt>
<trkpt lat="43.0158620000" lon="0.3374220000"><ele>1184</ele><time>2026-03-24T09:46:41Z</time></trkpt>
<trkpt lat="43.0158600000" lon="0.3374500000"><ele>1187</ele><time>2026-03-24T09:47:06Z</time></trkpt>
<trkpt lat="43.0158520000" lon="0.3375020000"><ele>1187</ele><time>2026-03-24T09:47:08Z</time></trkpt>
<trkpt lat="43.0158470000" lon="0.3375330000"><ele>1187</ele><time>2026-03-24T09:47:09Z</time></trkpt>
<trkpt lat="43.0158450000" lon="0.3375650000"><ele>1187</ele><time>2026-03-24T09:47:10Z</time></trkpt>
<trkpt lat="43.0158420000" lon="0.3375880000"><ele>1187</ele><time>2026-03-24T09:47:11Z</time></trkpt>
<trkpt lat="43.0158420000" lon="0.3376220000"><ele>1188</ele><time>2026-03-24T09:47:13Z</time></trkpt>
<trkpt lat="43.0158350000" lon="0.3376570000"><ele>1189</ele><time>2026-03-24T09:47:20Z</time></trkpt>
<trkpt lat="43.0158350000" lon="0.3376820000"><ele>1189</ele><time>2026-03-24T09:47:23Z</time></trkpt>
<trkpt lat="43.0158250000" lon="0.3377070000"><ele>1189</ele><time>2026-03-24T09:47:28Z</time></trkpt>
<trkpt lat="43.0158320000" lon="0.3377280000"><ele>1190</ele><time>2026-03-24T09:47:33Z</time></trkpt>
<trkpt lat="43.0158420000" lon="0.3377800000"><ele>1199</ele><time>2026-03-24T09:48:54Z</time></trkpt>
<trkpt lat="43.0158520000" lon="0.3378220000"><ele>1199</ele><time>2026-03-24T09:48:55Z</time></trkpt>
<trkpt lat="43.0158670000" lon="0.3378800000"><ele>1199</ele><time>2026-03-24T09:48:56Z</time></trkpt>
<trkpt lat="43.0158820000" lon="0.3379320000"><ele>1199</ele><time>2026-03-24T09:48:57Z</time></trkpt>
<trkpt lat="43.0158920000" lon="0.3379750000"><ele>1199</ele><time>2026-03-24T09:48:58Z</time></trkpt>
<trkpt lat="43.0159020000" lon="0.3380020000"><ele>1200</ele><time>2026-03-24T09:48:59Z</time></trkpt>
<trkpt lat="43.0159170000" lon="0.3380220000"><ele>1200</ele><time>2026-03-24T09:49:01Z</time></trkpt>
<trkpt lat="43.0159320000" lon="0.3380420000"><ele>1200</ele><time>2026-03-24T09:49:04Z</time></trkpt>
<trkpt lat="43.0159470000" lon="0.3380700000"><ele>1201</ele><time>2026-03-24T09:49:08Z</time></trkpt>
<trkpt lat="43.0159670000" lon="0.3380850000"><ele>1201</ele><time>2026-03-24T09:49:12Z</time></trkpt>
<trkpt lat="43.0159850000" lon="0.3380970000"><ele>1202</ele><time>2026-03-24T09:49:15Z</time></trkpt>
<trkpt lat="43.0159970000" lon="0.3381170000"><ele>1202</ele><time>2026-03-24T09:49:19Z</time></trkpt>
<trkpt lat="43.0160150000" lon="0.3381420000"><ele>1203</ele><time>2026-03-24T09:49:24Z</time></trkpt>
<trkpt lat="43.0160220000" lon="0.3381720000"><ele>1203</ele><time>2026-03-24T09:49:28Z</time></trkpt>
<trkpt lat="43.0160350000" lon="0.3381920000"><ele>1204</ele><time>2026-03-24T09:49:33Z</time></trkpt>
<trkpt lat="43.0160320000" lon="0.3382220000"><ele>1205</ele><time>2026-03-24T09:49:38Z</time></trkpt>
<trkpt lat="43.0160220000" lon="0.3382470000"><ele>1207</ele><time>2026-03-24T09:49:54Z</time></trkpt>
<trkpt lat="43.0160270000" lon="0.3382800000"><ele>1207</ele><time>2026-03-24T09:49:56Z</time></trkpt>
<trkpt lat="43.0160350000" lon="0.3383220000"><ele>1208</ele><time>2026-03-24T09:49:58Z</time></trkpt>
<trkpt lat="43.0160380000" lon="0.3383520000"><ele>1208</ele><time>2026-03-24T09:50:00Z</time></trkpt>
<trkpt lat="43.0160420000" lon="0.3383770000"><ele>1209</ele><time>2026-03-24T09:50:04Z</time></trkpt>
<trkpt lat="43.0160420000" lon="0.3384070000"><ele>1210</ele><time>2026-03-24T09:50:11Z</time></trkpt>
<trkpt lat="43.0160570000" lon="0.3384520000"><ele>1214</ele><time>2026-03-24T09:52:16Z</time></trkpt>
<trkpt lat="43.0160650000" lon="0.3384820000"><ele>1214</ele><time>2026-03-24T09:52:17Z</time></trkpt>
<trkpt lat="43.0160720000" lon="0.3385120000"><ele>1214</ele><time>2026-03-24T09:52:18Z</time></trkpt>
<trkpt lat="43.0160820000" lon="0.3385470000"><ele>1214</ele><time>2026-03-24T09:52:20Z</time></trkpt>
<trkpt lat="43.0160850000" lon="0.3385120000"><ele>1214</ele><time>2026-03-24T09:52:24Z</time></trkpt>
<trkpt lat="43.0160700000" lon="0.3384950000"><ele>1214</ele><time>2026-03-24T09:53:39Z</time></trkpt>
<trkpt lat="43.0160800000" lon="0.3385170000"><ele>1214</ele><time>2026-03-24T09:54:50Z</time></trkpt>
<trkpt lat="43.0160920000" lon="0.3385570000"><ele>1214</ele><time>2026-03-24T09:54:52Z</time></trkpt>
<trkpt lat="43.0161020000" lon="0.3385900000"><ele>1215</ele><time>2026-03-24T09:54:54Z</time></trkpt>
<trkpt lat="43.0161050000" lon="0.3386170000"><ele>1215</ele><time>2026-03-24T09:54:57Z</time></trkpt>
<trkpt lat="43.0161080000" lon="0.3386420000"><ele>1216</ele><time>2026-03-24T09:55:00Z</time></trkpt>
<trkpt lat="43.0161070000" lon="0.3386750000"><ele>1217</ele><time>2026-03-24T09:55:03Z</time></trkpt>
<trkpt lat="43.0161020000" lon="0.3387020000"><ele>1217</ele><time>2026-03-24T09:55:07Z</time></trkpt>
<trkpt lat="43.0161070000" lon="0.3387420000"><ele>1222</ele><time>2026-03-24T09:56:14Z</time></trkpt>
<trkpt lat="43.0161050000" lon="0.3387950000"><ele>1222</ele><time>2026-03-24T09:56:16Z</time></trkpt>
<trkpt lat="43.0161070000" lon="0.3388220000"><ele>1223</ele><time>2026-03-24T09:56:17Z</time></trkpt>
<trkpt lat="43.0161170000" lon="0.3388570000"><ele>1223</ele><time>2026-03-24T09:56:19Z</time></trkpt>
<trkpt lat="43.0161170000" lon="0.3388830000"><ele>1223</ele><time>2026-03-24T09:56:22Z</time></trkpt>
<trkpt lat="43.0161200000" lon="0.3389270000"><ele>1231</ele><time>2026-03-24T09:57:13Z</time></trkpt>
<trkpt lat="43.0161270000" lon="0.3389650000"><ele>1231</ele><time>2026-03-24T09:57:14Z</time></trkpt>
<trkpt lat="43.0161370000" lon="0.3390070000"><ele>1231</ele><time>2026-03-24T09:57:15Z</time></trkpt>
<trkpt lat="43.0161500000" lon="0.3390520000"><ele>1231</ele><time>2026-03-24T09:57:16Z</time></trkpt>
<trkpt lat="43.0161570000" lon="0.3390900000"><ele>1231</ele><time>2026-03-24T09:57:17Z</time></trkpt>
<trkpt lat="43.0161620000" lon="0.3391130000"><ele>1231</ele><time>2026-03-24T09:57:18Z</time></trkpt>
<trkpt lat="43.0161620000" lon="0.3391430000"><ele>1232</ele><time>2026-03-24T09:57:21Z</time></trkpt>
<trkpt lat="43.0161550000" lon="0.3391700000"><ele>1233</ele><time>2026-03-24T09:57:28Z</time></trkpt>
<trkpt lat="43.0161670000" lon="0.3392020000"><ele>1233</ele><time>2026-03-24T09:57:31Z</time></trkpt>
<trkpt lat="43.0161800000" lon="0.3392270000"><ele>1234</ele><time>2026-03-24T09:57:35Z</time></trkpt>
<trkpt lat="43.0161750000" lon="0.3392520000"><ele>1234</ele><time>2026-03-24T09:57:40Z</time></trkpt>
<trkpt lat="43.0161800000" lon="0.3392970000"><ele>1243</ele><time>2026-03-24T09:58:40Z</time></trkpt>
<trkpt lat="43.0161850000" lon="0.3393480000"><ele>1243</ele><time>2026-03-24T09:58:41Z</time></trkpt>
<trkpt lat="43.0161920000" lon="0.3394150000"><ele>1243</ele><time>2026-03-24T09:58:42Z</time></trkpt>
<trkpt lat="43.0162020000" lon="0.3394820000"><ele>1243</ele><time>2026-03-24T09:58:43Z</time></trkpt>
<trkpt lat="43.0162070000" lon="0.3395330000"><ele>1243</ele><time>2026-03-24T09:58:44Z</time></trkpt>
<trkpt lat="43.0162120000" lon="0.3395720000"><ele>1244</ele><time>2026-03-24T09:58:45Z</time></trkpt>
<trkpt lat="43.0162120000" lon="0.3396050000"><ele>1244</ele><time>2026-03-24T09:58:47Z</time></trkpt>
<trkpt lat="43.0162220000" lon="0.3396320000"><ele>1245</ele><time>2026-03-24T09:58:52Z</time></trkpt>
<trkpt lat="43.0162300000" lon="0.3396720000"><ele>1253</ele><time>2026-03-24T10:00:01Z</time></trkpt>
<trkpt lat="43.0162370000" lon="0.3397220000"><ele>1253</ele><time>2026-03-24T10:00:02Z</time></trkpt>
<trkpt lat="43.0162420000" lon="0.3397870000"><ele>1253</ele><time>2026-03-24T10:00:03Z</time></trkpt>
<trkpt lat="43.0162500000" lon="0.3398480000"><ele>1253</ele><time>2026-03-24T10:00:04Z</time></trkpt>
<trkpt lat="43.0162570000" lon="0.3398980000"><ele>1254</ele><time>2026-03-24T10:00:05Z</time></trkpt>
<trkpt lat="43.0162630000" lon="0.3399370000"><ele>1254</ele><time>2026-03-24T10:00:06Z</time></trkpt>
<trkpt lat="43.0162800000" lon="0.3399700000"><ele>1254</ele><time>2026-03-24T10:00:08Z</time></trkpt>
<trkpt lat="43.0162870000" lon="0.3400020000"><ele>1254</ele><time>2026-03-24T10:00:11Z</time></trkpt>
<trkpt lat="43.0162900000" lon="0.3400330000"><ele>1255</ele><time>2026-03-24T10:00:15Z</time></trkpt>
<trkpt lat="43.0162900000" lon="0.3400580000"><ele>1255</ele><time>2026-03-24T10:00:19Z</time></trkpt>
<trkpt lat="43.0162870000" lon="0.3400870000"><ele>1256</ele><time>2026-03-24T10:00:24Z</time></trkpt>
<trkpt lat="43.0162900000" lon="0.3401150000"><ele>1257</ele><time>2026-03-24T10:00:28Z</time></trkpt>
<trkpt lat="43.0162920000" lon="0.3401420000"><ele>1257</ele><time>2026-03-24T10:00:32Z</time></trkpt>
<trkpt lat="43.0162870000" lon="0.3401750000"><ele>1261</ele><time>2026-03-24T10:01:05Z</time></trkpt>
<trkpt lat="43.0162870000" lon="0.3402100000"><ele>1261</ele><time>2026-03-24T10:01:06Z</time></trkpt>
<trkpt lat="43.0162900000" lon="0.3402530000"><ele>1262</ele><time>2026-03-24T10:01:07Z</time></trkpt>
<trkpt lat="43.0162920000" lon="0.3403000000"><ele>1262</ele><time>2026-03-24T10:01:08Z</time></trkpt>
<trkpt lat="43.0162920000" lon="0.3403370000"><ele>1262</ele><time>2026-03-24T10:01:09Z</time></trkpt>
<trkpt lat="43.0162920000" lon="0.3403620000"><ele>1262</ele><time>2026-03-24T10:01:10Z</time></trkpt>
<trkpt lat="43.0162950000" lon="0.3403900000"><ele>1262</ele><time>2026-03-24T10:01:13Z</time></trkpt>
<trkpt lat="43.0162970000" lon="0.3404170000"><ele>1263</ele><time>2026-03-24T10:01:16Z</time></trkpt>
<trkpt lat="43.0163170000" lon="0.3404300000"><ele>1263</ele><time>2026-03-24T10:01:19Z</time></trkpt>
<trkpt lat="43.0163370000" lon="0.3404580000"><ele>1266</ele><time>2026-03-24T10:01:46Z</time></trkpt>
<trkpt lat="43.0163520000" lon="0.3404870000"><ele>1266</ele><time>2026-03-24T10:01:47Z</time></trkpt>
<trkpt lat="43.0163670000" lon="0.3405120000"><ele>1266</ele><time>2026-03-24T10:01:48Z</time></trkpt>
<trkpt lat="43.0163800000" lon="0.3405320000"><ele>1266</ele><time>2026-03-24T10:01:49Z</time></trkpt>
<trkpt lat="43.0163970000" lon="0.3405600000"><ele>1266</ele><time>2026-03-24T10:01:51Z</time></trkpt>
<trkpt lat="43.0164150000" lon="0.3405770000"><ele>1267</ele><time>2026-03-24T10:01:54Z</time></trkpt>
<trkpt lat="43.0164220000" lon="0.3406020000"><ele>1267</ele><time>2026-03-24T10:01:58Z</time></trkpt>
<trkpt lat="43.0164400000" lon="0.3406180000"><ele>1268</ele><time>2026-03-24T10:02:03Z</time></trkpt>
<trkpt lat="43.0164420000" lon="0.3406520000"><ele>1269</ele><time>2026-03-24T10:02:07Z</time></trkpt>
<trkpt lat="43.0164450000" lon="0.3406870000"><ele>1269</ele><time>2026-03-24T10:02:11Z</time></trkpt>
<trkpt lat="43.0164450000" lon="0.3407120000"><ele>1269</ele><time>2026-03-24T10:02:14Z</time></trkpt>
<trkpt lat="43.0164520000" lon="0.3407370000"><ele>1270</ele><time>2026-03-24T10:02:24Z</time></trkpt>
<trkpt lat="43.0164320000" lon="0.3407350000"><ele>1269</ele><time>2026-03-24T10:03:39Z</time></trkpt>
<trkpt lat="43.0164450000" lon="0.3407570000"><ele>1268</ele><time>2026-03-24T10:05:25Z</time></trkpt>
<trkpt lat="43.0164670000" lon="0.3407730000"><ele>1268</ele><time>2026-03-24T10:05:27Z</time></trkpt>
<trkpt lat="43.0164420000" lon="0.3407620000"><ele>1267</ele><time>2026-03-24T10:06:12Z</time></trkpt>
<trkpt lat="43.0164220000" lon="0.3407570000"><ele>1267</ele><time>2026-03-24T10:08:28Z</time></trkpt>
<trkpt lat="43.0163970000" lon="0.3407570000"><ele>1268</ele><time>2026-03-24T10:10:27Z</time></trkpt>
<trkpt lat="43.0163670000" lon="0.3407620000"><ele>1267</ele><time>2026-03-24T10:10:29Z</time></trkpt>
<trkpt lat="43.0163470000" lon="0.3407670000"><ele>1268</ele><time>2026-03-24T10:10:32Z</time></trkpt>
<trkpt lat="43.0163720000" lon="0.3407500000"><ele>1266</ele><time>2026-03-24T10:15:03Z</time></trkpt>
<trkpt lat="43.0163800000" lon="0.3407220000"><ele>1266</ele><time>2026-03-24T10:15:05Z</time></trkpt>
<trkpt lat="43.0163820000" lon="0.3406970000"><ele>1266</ele><time>2026-03-24T10:15:09Z</time></trkpt>
<trkpt lat="43.0163670000" lon="0.3406720000"><ele>1265</ele><time>2026-03-24T10:16:23Z</time></trkpt>
<trkpt lat="43.0163450000" lon="0.3406570000"><ele>1265</ele><time>2026-03-24T10:16:27Z</time></trkpt>
<trkpt lat="43.0163270000" lon="0.3406350000"><ele>1264</ele><time>2026-03-24T10:16:34Z</time></trkpt>
<trkpt lat="43.0163220000" lon="0.3406020000"><ele>1263</ele><time>2026-03-24T10:16:44Z</time></trkpt>
<trkpt lat="43.0163120000" lon="0.3405800000"><ele>1263</ele><time>2026-03-24T10:16:46Z</time></trkpt>
<trkpt lat="43.0163320000" lon="0.3406120000"><ele>1264</ele><time>2026-03-24T10:18:51Z</time></trkpt>
<trkpt lat="43.0163500000" lon="0.3406220000"><ele>1264</ele><time>2026-03-24T10:18:52Z</time></trkpt>
<trkpt lat="43.0163770000" lon="0.3406380000"><ele>1265</ele><time>2026-03-24T10:18:54Z</time></trkpt>
<trkpt lat="43.0163900000" lon="0.3406620000"><ele>1265</ele><time>2026-03-24T10:18:56Z</time></trkpt>
<trkpt lat="43.0164050000" lon="0.3406820000"><ele>1266</ele><time>2026-03-24T10:20:02Z</time></trkpt>
<trkpt lat="43.0164170000" lon="0.3407070000"><ele>1267</ele><time>2026-03-24T10:20:04Z</time></trkpt>
<trkpt lat="43.0164020000" lon="0.3407270000"><ele>1266</ele><time>2026-03-24T10:20:08Z</time></trkpt>
<trkpt lat="43.0164270000" lon="0.3407320000"><ele>1268</ele><time>2026-03-24T10:24:35Z</time></trkpt>
<trkpt lat="43.0164070000" lon="0.3407070000"><ele>1268</ele><time>2026-03-24T10:26:24Z</time></trkpt>
<trkpt lat="43.0163900000" lon="0.3406820000"><ele>1268</ele><time>2026-03-24T10:26:26Z</time></trkpt>
<trkpt lat="43.0163720000" lon="0.3406670000"><ele>1268</ele><time>2026-03-24T10:26:28Z</time></trkpt>
<trkpt lat="43.0163550000" lon="0.3406720000"><ele>1267</ele><time>2026-03-24T10:26:33Z</time></trkpt>
<trkpt lat="43.0163550000" lon="0.3407000000"><ele>1266</ele><time>2026-03-24T10:27:00Z</time></trkpt>
<trkpt lat="43.0163470000" lon="0.3407400000"><ele>1266</ele><time>2026-03-24T10:27:02Z</time></trkpt>
<trkpt lat="43.0163420000" lon="0.3407670000"><ele>1266</ele><time>2026-03-24T10:27:04Z</time></trkpt>
<trkpt lat="43.0163450000" lon="0.3407950000"><ele>1266</ele><time>2026-03-24T10:27:06Z</time></trkpt>
<trkpt lat="43.0163200000" lon="0.3408270000"><ele>1265</ele><time>2026-03-24T10:27:29Z</time></trkpt>
<trkpt lat="43.0163000000" lon="0.3408370000"><ele>1264</ele><time>2026-03-24T10:27:30Z</time></trkpt>
<trkpt lat="43.0162700000" lon="0.3408450000"><ele>1264</ele><time>2026-03-24T10:27:32Z</time></trkpt>
<trkpt lat="43.0162520000" lon="0.3408270000"><ele>1264</ele><time>2026-03-24T10:27:34Z</time></trkpt>
<trkpt lat="43.0162320000" lon="0.3408050000"><ele>1263</ele><time>2026-03-24T10:27:37Z</time></trkpt>
<trkpt lat="43.0162120000" lon="0.3408050000"><ele>1263</ele><time>2026-03-24T10:27:39Z</time></trkpt>
<trkpt lat="43.0161920000" lon="0.3408070000"><ele>1263</ele><time>2026-03-24T10:27:44Z</time></trkpt>
<trkpt lat="43.0161770000" lon="0.3407850000"><ele>1262</ele><time>2026-03-24T10:27:48Z</time></trkpt>
<trkpt lat="43.0161620000" lon="0.3407570000"><ele>1262</ele><time>2026-03-24T10:27:51Z</time></trkpt>
<trkpt lat="43.0161520000" lon="0.3407320000"><ele>1261</ele><time>2026-03-24T10:27:55Z</time></trkpt>
<trkpt lat="43.0161320000" lon="0.3407470000"><ele>1261</ele><time>2026-03-24T10:28:00Z</time></trkpt>
<trkpt lat="43.0161170000" lon="0.3407600000"><ele>1260</ele><time>2026-03-24T10:28:03Z</time></trkpt>
<trkpt lat="43.0160950000" lon="0.3407700000"><ele>1259</ele><time>2026-03-24T10:28:09Z</time></trkpt>
<trkpt lat="43.0160700000" lon="0.3407770000"><ele>1258</ele><time>2026-03-24T10:28:11Z</time></trkpt>
<trkpt lat="43.0160470000" lon="0.3407870000"><ele>1258</ele><time>2026-03-24T10:28:13Z</time></trkpt>
<trkpt lat="43.0160300000" lon="0.3407970000"><ele>1258</ele><time>2026-03-24T10:28:15Z</time></trkpt>
<trkpt lat="43.0160120000" lon="0.3407970000"><ele>1257</ele><time>2026-03-24T10:28:17Z</time></trkpt>
<trkpt lat="43.0159920000" lon="0.3407920000"><ele>1257</ele><time>2026-03-24T10:28:20Z</time></trkpt>
<trkpt lat="43.0159720000" lon="0.3407820000"><ele>1256</ele><time>2026-03-24T10:28:23Z</time></trkpt>
<trkpt lat="43.0159520000" lon="0.3407920000"><ele>1255</ele><time>2026-03-24T10:28:27Z</time></trkpt>
<trkpt lat="43.0159370000" lon="0.3407730000"><ele>1254</ele><time>2026-03-24T10:28:30Z</time></trkpt>
<trkpt lat="43.0159220000" lon="0.3407570000"><ele>1253</ele><time>2026-03-24T10:28:34Z</time></trkpt>
<trkpt lat="43.0159270000" lon="0.3407320000"><ele>1253</ele><time>2026-03-24T10:28:39Z</time></trkpt>
<trkpt lat="43.0159220000" lon="0.3407070000"><ele>1252</ele><time>2026-03-24T10:28:43Z</time></trkpt>
<trkpt lat="43.0159020000" lon="0.3406880000"><ele>1252</ele><time>2026-03-24T10:28:46Z</time></trkpt>
<trkpt lat="43.0158820000" lon="0.3406920000"><ele>1251</ele><time>2026-03-24T10:28:51Z</time></trkpt>
<trkpt lat="43.0158620000" lon="0.3406680000"><ele>1250</ele><time>2026-03-24T10:28:54Z</time></trkpt>
<trkpt lat="43.0158520000" lon="0.3406470000"><ele>1250</ele><time>2026-03-24T10:28:56Z</time></trkpt>
<trkpt lat="43.0158450000" lon="0.3406220000"><ele>1250</ele><time>2026-03-24T10:28:59Z</time></trkpt>
<trkpt lat="43.0158320000" lon="0.3406050000"><ele>1249</ele><time>2026-03-24T10:29:02Z</time></trkpt>
<trkpt lat="43.0158150000" lon="0.3405920000"><ele>1249</ele><time>2026-03-24T10:29:05Z</time></trkpt>
<trkpt lat="43.0157950000" lon="0.3405920000"><ele>1248</ele><time>2026-03-24T10:29:09Z</time></trkpt>
<trkpt lat="43.0157820000" lon="0.3405700000"><ele>1247</ele><time>2026-03-24T10:29:12Z</time></trkpt>
<trkpt lat="43.0157720000" lon="0.3405430000"><ele>1245</ele><time>2026-03-24T10:29:34Z</time></trkpt>
<trkpt lat="43.0157520000" lon="0.3405320000"><ele>1245</ele><time>2026-03-24T10:29:37Z</time></trkpt>
<trkpt lat="43.0157270000" lon="0.3405300000"><ele>1244</ele><time>2026-03-24T10:29:40Z</time></trkpt>
<trkpt lat="43.0157070000" lon="0.3405330000"><ele>1242</ele><time>2026-03-24T10:29:51Z</time></trkpt>
<trkpt lat="43.0156920000" lon="0.3405570000"><ele>1242</ele><time>2026-03-24T10:29:53Z</time></trkpt>
<trkpt lat="43.0156800000" lon="0.3405750000"><ele>1242</ele><time>2026-03-24T10:29:55Z</time></trkpt>
<trkpt lat="43.0156670000" lon="0.3406000000"><ele>1241</ele><time>2026-03-24T10:29:58Z</time></trkpt>
<trkpt lat="43.0156550000" lon="0.3406220000"><ele>1240</ele><time>2026-03-24T10:30:02Z</time></trkpt>
<trkpt lat="43.0156420000" lon="0.3406380000"><ele>1239</ele><time>2026-03-24T10:30:06Z</time></trkpt>
<trkpt lat="43.0156300000" lon="0.3406600000"><ele>1238</ele><time>2026-03-24T10:30:09Z</time></trkpt>
<trkpt lat="43.0156170000" lon="0.3406780000"><ele>1238</ele><time>2026-03-24T10:30:12Z</time></trkpt>
<trkpt lat="43.0155950000" lon="0.3406750000"><ele>1237</ele><time>2026-03-24T10:30:18Z</time></trkpt>
<trkpt lat="43.0155820000" lon="0.3406570000"><ele>1236</ele><time>2026-03-24T10:30:42Z</time></trkpt>
<trkpt lat="43.0155700000" lon="0.3406270000"><ele>1236</ele><time>2026-03-24T10:30:45Z</time></trkpt>
<trkpt lat="43.0155550000" lon="0.3406120000"><ele>1235</ele><time>2026-03-24T10:30:48Z</time></trkpt>
<trkpt lat="43.0155420000" lon="0.3405850000"><ele>1234</ele><time>2026-03-24T10:30:51Z</time></trkpt>
<trkpt lat="43.0155170000" lon="0.3405870000"><ele>1233</ele><time>2026-03-24T10:30:56Z</time></trkpt>
<trkpt lat="43.0154970000" lon="0.3405820000"><ele>1233</ele><time>2026-03-24T10:30:59Z</time></trkpt>
<trkpt lat="43.0154750000" lon="0.3405720000"><ele>1232</ele><time>2026-03-24T10:31:03Z</time></trkpt>
<trkpt lat="43.0154570000" lon="0.3405520000"><ele>1231</ele><time>2026-03-24T10:31:06Z</time></trkpt>
<trkpt lat="43.0154520000" lon="0.3405220000"><ele>1230</ele><time>2026-03-24T10:31:09Z</time></trkpt>
<trkpt lat="43.0154320000" lon="0.3405220000"><ele>1229</ele><time>2026-03-24T10:31:14Z</time></trkpt>
<trkpt lat="43.0154070000" lon="0.3405420000"><ele>1228</ele><time>2026-03-24T10:31:17Z</time></trkpt>
<trkpt lat="43.0153850000" lon="0.3405470000"><ele>1227</ele><time>2026-03-24T10:31:19Z</time></trkpt>
<trkpt lat="43.0153670000" lon="0.3405470000"><ele>1227</ele><time>2026-03-24T10:31:21Z</time></trkpt>
<trkpt lat="43.0153470000" lon="0.3405320000"><ele>1226</ele><time>2026-03-24T10:31:24Z</time></trkpt>
<trkpt lat="43.0153300000" lon="0.3405200000"><ele>1225</ele><time>2026-03-24T10:31:28Z</time></trkpt>
<trkpt lat="43.0153150000" lon="0.3404920000"><ele>1224</ele><time>2026-03-24T10:31:31Z</time></trkpt>
<trkpt lat="43.0153020000" lon="0.3404670000"><ele>1224</ele><time>2026-03-24T10:31:34Z</time></trkpt>
<trkpt lat="43.0152850000" lon="0.3404520000"><ele>1223</ele><time>2026-03-24T10:31:37Z</time></trkpt>
<trkpt lat="43.0152720000" lon="0.3404270000"><ele>1222</ele><time>2026-03-24T10:31:40Z</time></trkpt>
<trkpt lat="43.0152620000" lon="0.3404020000"><ele>1221</ele><time>2026-03-24T10:31:43Z</time></trkpt>
<trkpt lat="43.0152500000" lon="0.3403720000"><ele>1220</ele><time>2026-03-24T10:31:46Z</time></trkpt>
<trkpt lat="43.0152370000" lon="0.3403480000"><ele>1219</ele><time>2026-03-24T10:31:50Z</time></trkpt>
<trkpt lat="43.0152200000" lon="0.3403620000"><ele>1216</ele><time>2026-03-24T10:32:04Z</time></trkpt>
<trkpt lat="43.0152000000" lon="0.3403450000"><ele>1216</ele><time>2026-03-24T10:32:08Z</time></trkpt>
<trkpt lat="43.0151870000" lon="0.3403270000"><ele>1216</ele><time>2026-03-24T10:32:10Z</time></trkpt>
<trkpt lat="43.0151770000" lon="0.3403020000"><ele>1215</ele><time>2026-03-24T10:32:12Z</time></trkpt>
<trkpt lat="43.0151600000" lon="0.3402820000"><ele>1215</ele><time>2026-03-24T10:32:17Z</time></trkpt>
<trkpt lat="43.0151400000" lon="0.3402920000"><ele>1214</ele><time>2026-03-24T10:32:20Z</time></trkpt>
<trkpt lat="43.0151220000" lon="0.3402820000"><ele>1213</ele><time>2026-03-24T10:32:23Z</time></trkpt>
<trkpt lat="43.0151020000" lon="0.3402720000"><ele>1212</ele><time>2026-03-24T10:32:26Z</time></trkpt>
<trkpt lat="43.0150920000" lon="0.3402520000"><ele>1211</ele><time>2026-03-24T10:32:29Z</time></trkpt>
<trkpt lat="43.0150820000" lon="0.3402270000"><ele>1209</ele><time>2026-03-24T10:32:35Z</time></trkpt>
<trkpt lat="43.0150620000" lon="0.3402220000"><ele>1209</ele><time>2026-03-24T10:32:39Z</time></trkpt>
<trkpt lat="43.0150450000" lon="0.3402370000"><ele>1208</ele><time>2026-03-24T10:32:41Z</time></trkpt>
<trkpt lat="43.0150220000" lon="0.3402320000"><ele>1207</ele><time>2026-03-24T10:32:44Z</time></trkpt>
<trkpt lat="43.0150150000" lon="0.3402070000"><ele>1206</ele><time>2026-03-24T10:32:48Z</time></trkpt>
<trkpt lat="43.0150050000" lon="0.3402420000"><ele>1204</ele><time>2026-03-24T10:33:06Z</time></trkpt>
<trkpt lat="43.0149950000" lon="0.3402630000"><ele>1204</ele><time>2026-03-24T10:33:07Z</time></trkpt>
<trkpt lat="43.0149750000" lon="0.3403000000"><ele>1203</ele><time>2026-03-24T10:33:09Z</time></trkpt>
<trkpt lat="43.0149600000" lon="0.3403220000"><ele>1203</ele><time>2026-03-24T10:33:11Z</time></trkpt>
<trkpt lat="43.0149420000" lon="0.3403470000"><ele>1202</ele><time>2026-03-24T10:33:14Z</time></trkpt>
<trkpt lat="43.0149300000" lon="0.3403270000"><ele>1202</ele><time>2026-03-24T10:33:18Z</time></trkpt>
<trkpt lat="43.0149270000" lon="0.3403020000"><ele>1201</ele><time>2026-03-24T10:33:21Z</time></trkpt>
<trkpt lat="43.0148980000" lon="0.3403070000"><ele>1195</ele><time>2026-03-24T10:33:55Z</time></trkpt>
<trkpt lat="43.0148800000" lon="0.3403170000"><ele>1195</ele><time>2026-03-24T10:33:56Z</time></trkpt>
<trkpt lat="43.0148570000" lon="0.3403170000"><ele>1195</ele><time>2026-03-24T10:33:57Z</time></trkpt>
<trkpt lat="43.0148400000" lon="0.3403130000"><ele>1194</ele><time>2026-03-24T10:33:58Z</time></trkpt>
<trkpt lat="43.0148170000" lon="0.3402970000"><ele>1194</ele><time>2026-03-24T10:34:00Z</time></trkpt>
<trkpt lat="43.0148120000" lon="0.3403250000"><ele>1192</ele><time>2026-03-24T10:34:45Z</time></trkpt>
<trkpt lat="43.0148020000" lon="0.3403520000"><ele>1191</ele><time>2026-03-24T10:34:47Z</time></trkpt>
<trkpt lat="43.0147920000" lon="0.3403820000"><ele>1191</ele><time>2026-03-24T10:34:49Z</time></trkpt>
<trkpt lat="43.0147920000" lon="0.3404080000"><ele>1191</ele><time>2026-03-24T10:34:51Z</time></trkpt>
<trkpt lat="43.0147820000" lon="0.3404400000"><ele>1190</ele><time>2026-03-24T10:34:54Z</time></trkpt>
<trkpt lat="43.0147670000" lon="0.3404570000"><ele>1189</ele><time>2026-03-24T10:34:59Z</time></trkpt>
<trkpt lat="43.0147500000" lon="0.3404370000"><ele>1188</ele><time>2026-03-24T10:35:05Z</time></trkpt>
<trkpt lat="43.0147370000" lon="0.3404550000"><ele>1188</ele><time>2026-03-24T10:35:08Z</time></trkpt>
<trkpt lat="43.0147270000" lon="0.3404870000"><ele>1187</ele><time>2026-03-24T10:35:11Z</time></trkpt>
<trkpt lat="43.0147250000" lon="0.3405120000"><ele>1186</ele><time>2026-03-24T10:35:16Z</time></trkpt>
<trkpt lat="43.0147170000" lon="0.3405370000"><ele>1186</ele><time>2026-03-24T10:35:19Z</time></trkpt>
<trkpt lat="43.0147070000" lon="0.3405620000"><ele>1186</ele><time>2026-03-24T10:35:23Z</time></trkpt>
<trkpt lat="43.0146850000" lon="0.3405770000"><ele>1186</ele><time>2026-03-24T10:35:27Z</time></trkpt>
<trkpt lat="43.0146730000" lon="0.3405550000"><ele>1185</ele><time>2026-03-24T10:35:30Z</time></trkpt>
<trkpt lat="43.0146600000" lon="0.3405370000"><ele>1184</ele><time>2026-03-24T10:35:34Z</time></trkpt>
<trkpt lat="43.0146420000" lon="0.3405520000"><ele>1184</ele><time>2026-03-24T10:35:38Z</time></trkpt>
<trkpt lat="43.0146270000" lon="0.3405750000"><ele>1183</ele><time>2026-03-24T10:35:41Z</time></trkpt>
<trkpt lat="43.0146120000" lon="0.3405870000"><ele>1182</ele><time>2026-03-24T10:35:46Z</time></trkpt>
<trkpt lat="43.0146020000" lon="0.3406120000"><ele>1181</ele><time>2026-03-24T10:35:50Z</time></trkpt>
<trkpt lat="43.0145870000" lon="0.3406350000"><ele>1181</ele><time>2026-03-24T10:35:54Z</time></trkpt>
<trkpt lat="43.0145820000" lon="0.3406600000"><ele>1180</ele><time>2026-03-24T10:35:57Z</time></trkpt>
<trkpt lat="43.0145720000" lon="0.3406870000"><ele>1179</ele><time>2026-03-24T10:36:00Z</time></trkpt>
<trkpt lat="43.0145620000" lon="0.3407120000"><ele>1179</ele><time>2026-03-24T10:36:03Z</time></trkpt>
<trkpt lat="43.0145570000" lon="0.3407400000"><ele>1178</ele><time>2026-03-24T10:36:06Z</time></trkpt>
<trkpt lat="43.0145420000" lon="0.3407570000"><ele>1176</ele><time>2026-03-24T10:36:28Z</time></trkpt>
<trkpt lat="43.0145250000" lon="0.3407730000"><ele>1176</ele><time>2026-03-24T10:36:30Z</time></trkpt>
<trkpt lat="43.0145020000" lon="0.3408050000"><ele>1176</ele><time>2026-03-24T10:36:32Z</time></trkpt>
<trkpt lat="43.0144870000" lon="0.3408350000"><ele>1175</ele><time>2026-03-24T10:36:34Z</time></trkpt>
<trkpt lat="43.0144700000" lon="0.3408520000"><ele>1175</ele><time>2026-03-24T10:36:37Z</time></trkpt>
<trkpt lat="43.0144550000" lon="0.3408700000"><ele>1174</ele><time>2026-03-24T10:36:40Z</time></trkpt>
<trkpt lat="43.0144370000" lon="0.3408720000"><ele>1174</ele><time>2026-03-24T10:36:43Z</time></trkpt>
<trkpt lat="43.0144120000" lon="0.3408870000"><ele>1171</ele><time>2026-03-24T10:37:09Z</time></trkpt>
<trkpt lat="43.0144000000" lon="0.3409120000"><ele>1171</ele><time>2026-03-24T10:37:11Z</time></trkpt>
<trkpt lat="43.0143770000" lon="0.3409320000"><ele>1171</ele><time>2026-03-24T10:37:14Z</time></trkpt>
<trkpt lat="43.0143570000" lon="0.3409520000"><ele>1170</ele><time>2026-03-24T10:37:17Z</time></trkpt>
<trkpt lat="43.0143370000" lon="0.3409580000"><ele>1170</ele><time>2026-03-24T10:37:19Z</time></trkpt>
<trkpt lat="43.0143170000" lon="0.3409720000"><ele>1169</ele><time>2026-03-24T10:37:22Z</time></trkpt>
<trkpt lat="43.0142970000" lon="0.3409870000"><ele>1169</ele><time>2026-03-24T10:37:25Z</time></trkpt>
<trkpt lat="43.0142770000" lon="0.3410080000"><ele>1168</ele><time>2026-03-24T10:37:28Z</time></trkpt>
<trkpt lat="43.0142620000" lon="0.3410270000"><ele>1168</ele><time>2026-03-24T10:37:30Z</time></trkpt>
<trkpt lat="43.0142470000" lon="0.3410420000"><ele>1167</ele><time>2026-03-24T10:37:33Z</time></trkpt>
<trkpt lat="43.0142270000" lon="0.3410580000"><ele>1167</ele><time>2026-03-24T10:37:36Z</time></trkpt>
<trkpt lat="43.0142120000" lon="0.3410750000"><ele>1166</ele><time>2026-03-24T10:37:39Z</time></trkpt>
<trkpt lat="43.0141950000" lon="0.3411000000"><ele>1166</ele><time>2026-03-24T10:37:43Z</time></trkpt>
<trkpt lat="43.0141800000" lon="0.3411420000"><ele>1165</ele><time>2026-03-24T10:37:45Z</time></trkpt>
<trkpt lat="43.0141700000" lon="0.3411720000"><ele>1165</ele><time>2026-03-24T10:37:47Z</time></trkpt>
<trkpt lat="43.0141570000" lon="0.3411980000"><ele>1165</ele><time>2026-03-24T10:37:49Z</time></trkpt>
<trkpt lat="43.0141420000" lon="0.3412150000"><ele>1165</ele><time>2026-03-24T10:37:51Z</time></trkpt>
<trkpt lat="43.0141220000" lon="0.3412420000"><ele>1165</ele><time>2026-03-24T10:37:54Z</time></trkpt>
<trkpt lat="43.0141120000" lon="0.3412670000"><ele>1165</ele><time>2026-03-24T10:37:57Z</time></trkpt>
<trkpt lat="43.0141000000" lon="0.3412870000"><ele>1165</ele><time>2026-03-24T10:37:59Z</time></trkpt>
<trkpt lat="43.0140900000" lon="0.3413120000"><ele>1165</ele><time>2026-03-24T10:38:02Z</time></trkpt>
<trkpt lat="43.0140820000" lon="0.3413370000"><ele>1165</ele><time>2026-03-24T10:38:04Z</time></trkpt>
<trkpt lat="43.0140720000" lon="0.3413630000"><ele>1165</ele><time>2026-03-24T10:38:06Z</time></trkpt>
<trkpt lat="43.0140620000" lon="0.3413870000"><ele>1165</ele><time>2026-03-24T10:38:08Z</time></trkpt>
<trkpt lat="43.0140520000" lon="0.3414120000"><ele>1165</ele><time>2026-03-24T10:38:10Z</time></trkpt>
<trkpt lat="43.0140420000" lon="0.3414370000"><ele>1164</ele><time>2026-03-24T10:38:12Z</time></trkpt>
<trkpt lat="43.0140370000" lon="0.3414620000"><ele>1164</ele><time>2026-03-24T10:38:14Z</time></trkpt>
<trkpt lat="43.0140270000" lon="0.3414850000"><ele>1164</ele><time>2026-03-24T10:38:16Z</time></trkpt>
<trkpt lat="43.0140220000" lon="0.3415070000"><ele>1164</ele><time>2026-03-24T10:38:18Z</time></trkpt>
<trkpt lat="43.0140170000" lon="0.3415420000"><ele>1164</ele><time>2026-03-24T10:38:21Z</time></trkpt>
<trkpt lat="43.0140050000" lon="0.3415720000"><ele>1164</ele><time>2026-03-24T10:38:24Z</time></trkpt>
<trkpt lat="43.0139970000" lon="0.3416070000"><ele>1164</ele><time>2026-03-24T10:38:27Z</time></trkpt>
<trkpt lat="43.0139820000" lon="0.3416370000"><ele>1164</ele><time>2026-03-24T10:38:30Z</time></trkpt>
<trkpt lat="43.0139700000" lon="0.3416570000"><ele>1163</ele><time>2026-03-24T10:38:32Z</time></trkpt>
<trkpt lat="43.0139550000" lon="0.3416850000"><ele>1163</ele><time>2026-03-24T10:38:35Z</time></trkpt>
<trkpt lat="43.0139420000" lon="0.3417150000"><ele>1163</ele><time>2026-03-24T10:38:38Z</time></trkpt>
<trkpt lat="43.0139300000" lon="0.3417420000"><ele>1163</ele><time>2026-03-24T10:38:41Z</time></trkpt>
<trkpt lat="43.0139170000" lon="0.3417700000"><ele>1163</ele><time>2026-03-24T10:38:44Z</time></trkpt>
<trkpt lat="43.0139120000" lon="0.3417970000"><ele>1163</ele><time>2026-03-24T10:38:47Z</time></trkpt>
<trkpt lat="43.0139050000" lon="0.3418220000"><ele>1162</ele><time>2026-03-24T10:38:50Z</time></trkpt>
<trkpt lat="43.0138870000" lon="0.3418420000"><ele>1162</ele><time>2026-03-24T10:38:53Z</time></trkpt>
<trkpt lat="43.0138650000" lon="0.3418620000"><ele>1162</ele><time>2026-03-24T10:38:56Z</time></trkpt>
<trkpt lat="43.0138420000" lon="0.3418820000"><ele>1161</ele><time>2026-03-24T10:38:58Z</time></trkpt>
<trkpt lat="43.0138220000" lon="0.3418920000"><ele>1161</ele><time>2026-03-24T10:38:59Z</time></trkpt>
<trkpt lat="43.0137970000" lon="0.3419120000"><ele>1161</ele><time>2026-03-24T10:39:01Z</time></trkpt>
<trkpt lat="43.0137850000" lon="0.3419320000"><ele>1161</ele><time>2026-03-24T10:39:03Z</time></trkpt>
<trkpt lat="43.0137720000" lon="0.3418970000"><ele>1160</ele><time>2026-03-24T10:40:05Z</time></trkpt>
<trkpt lat="43.0137820000" lon="0.3418670000"><ele>1160</ele><time>2026-03-24T10:40:07Z</time></trkpt>
<trkpt lat="43.0137870000" lon="0.3418370000"><ele>1160</ele><time>2026-03-24T10:40:09Z</time></trkpt>
<trkpt lat="43.0137870000" lon="0.3418720000"><ele>1159</ele><time>2026-03-24T10:40:15Z</time></trkpt>
<trkpt lat="43.0137620000" lon="0.3418920000"><ele>1159</ele><time>2026-03-24T10:40:17Z</time></trkpt>
<trkpt lat="43.0137500000" lon="0.3419220000"><ele>1151</ele><time>2026-03-24T10:41:39Z</time></trkpt>
<trkpt lat="43.0137550000" lon="0.3419520000"><ele>1151</ele><time>2026-03-24T10:41:40Z</time></trkpt>
<trkpt lat="43.0137580000" lon="0.3419870000"><ele>1151</ele><time>2026-03-24T10:41:41Z</time></trkpt>
<trkpt lat="43.0137670000" lon="0.3420220000"><ele>1151</ele><time>2026-03-24T10:41:42Z</time></trkpt>
<trkpt lat="43.0137720000" lon="0.3420520000"><ele>1151</ele><time>2026-03-24T10:41:43Z</time></trkpt>
<trkpt lat="43.0137820000" lon="0.3420820000"><ele>1151</ele><time>2026-03-24T10:41:45Z</time></trkpt>
<trkpt lat="43.0137900000" lon="0.3421050000"><ele>1150</ele><time>2026-03-24T10:41:49Z</time></trkpt>
<trkpt lat="43.0138020000" lon="0.3421220000"><ele>1150</ele><time>2026-03-24T10:41:53Z</time></trkpt>
<trkpt lat="43.0138250000" lon="0.3421370000"><ele>1149</ele><time>2026-03-24T10:41:58Z</time></trkpt>
<trkpt lat="43.0138150000" lon="0.3421680000"><ele>1150</ele><time>2026-03-24T10:42:02Z</time></trkpt>
<trkpt lat="43.0138100000" lon="0.3421970000"><ele>1150</ele><time>2026-03-24T10:42:04Z</time></trkpt>
<trkpt lat="43.0138070000" lon="0.3422220000"><ele>1148</ele><time>2026-03-24T10:42:18Z</time></trkpt>
<trkpt lat="43.0138000000" lon="0.3422570000"><ele>1145</ele><time>2026-03-24T10:42:39Z</time></trkpt>
<trkpt lat="43.0137800000" lon="0.3422850000"><ele>1145</ele><time>2026-03-24T10:42:41Z</time></trkpt>
<trkpt lat="43.0137620000" lon="0.3422970000"><ele>1144</ele><time>2026-03-24T10:42:43Z</time></trkpt>
<trkpt lat="43.0137420000" lon="0.3422980000"><ele>1143</ele><time>2026-03-24T10:42:54Z</time></trkpt>
<trkpt lat="43.0137150000" lon="0.3423020000"><ele>1142</ele><time>2026-03-24T10:42:56Z</time></trkpt>
<trkpt lat="43.0136970000" lon="0.3423020000"><ele>1142</ele><time>2026-03-24T10:42:57Z</time></trkpt>
<trkpt lat="43.0136670000" lon="0.3423020000"><ele>1142</ele><time>2026-03-24T10:42:59Z</time></trkpt>
<trkpt lat="43.0136550000" lon="0.3422780000"><ele>1142</ele><time>2026-03-24T10:43:03Z</time></trkpt>
<trkpt lat="43.0136720000" lon="0.3422770000"><ele>1142</ele><time>2026-03-24T10:43:10Z</time></trkpt>
<trkpt lat="43.0136670000" lon="0.3422350000"><ele>1140</ele><time>2026-03-24T10:44:00Z</time></trkpt>
<trkpt lat="43.0136670000" lon="0.3422000000"><ele>1140</ele><time>2026-03-24T10:44:02Z</time></trkpt>
<trkpt lat="43.0136620000" lon="0.3421680000"><ele>1140</ele><time>2026-03-24T10:44:05Z</time></trkpt>
<trkpt lat="43.0136420000" lon="0.3421630000"><ele>1140</ele><time>2026-03-24T10:44:08Z</time></trkpt>
<trkpt lat="43.0136120000" lon="0.3421520000"><ele>1137</ele><time>2026-03-24T10:45:20Z</time></trkpt>
<trkpt lat="43.0135850000" lon="0.3421170000"><ele>1137</ele><time>2026-03-24T10:45:22Z</time></trkpt>
<trkpt lat="43.0135700000" lon="0.3421020000"><ele>1137</ele><time>2026-03-24T10:45:23Z</time></trkpt>
<trkpt lat="43.0135500000" lon="0.3420800000"><ele>1137</ele><time>2026-03-24T10:45:25Z</time></trkpt>
<trkpt lat="43.0135420000" lon="0.3420520000"><ele>1136</ele><time>2026-03-24T10:45:46Z</time></trkpt>
<trkpt lat="43.0135370000" lon="0.3420900000"><ele>1132</ele><time>2026-03-24T10:46:44Z</time></trkpt>
<trkpt lat="43.0135270000" lon="0.3421220000"><ele>1132</ele><time>2026-03-24T10:46:45Z</time></trkpt>
<trkpt lat="43.0135120000" lon="0.3421470000"><ele>1132</ele><time>2026-03-24T10:46:46Z</time></trkpt>
<trkpt lat="43.0134970000" lon="0.3421630000"><ele>1132</ele><time>2026-03-24T10:46:47Z</time></trkpt>
<trkpt lat="43.0134800000" lon="0.3421720000"><ele>1131</ele><time>2026-03-24T10:46:49Z</time></trkpt>
<trkpt lat="43.0134620000" lon="0.3421570000"><ele>1131</ele><time>2026-03-24T10:46:52Z</time></trkpt>
<trkpt lat="43.0134570000" lon="0.3421270000"><ele>1128</ele><time>2026-03-24T10:47:48Z</time></trkpt>
<trkpt lat="43.0134520000" lon="0.3421000000"><ele>1128</ele><time>2026-03-24T10:47:49Z</time></trkpt>
<trkpt lat="43.0134420000" lon="0.3420670000"><ele>1128</ele><time>2026-03-24T10:47:50Z</time></trkpt>
<trkpt lat="43.0134320000" lon="0.3420370000"><ele>1128</ele><time>2026-03-24T10:47:51Z</time></trkpt>
<trkpt lat="43.0134200000" lon="0.3420070000"><ele>1128</ele><time>2026-03-24T10:47:52Z</time></trkpt>
<trkpt lat="43.0134050000" lon="0.3419870000"><ele>1128</ele><time>2026-03-24T10:47:54Z</time></trkpt>
<trkpt lat="43.0134120000" lon="0.3420120000"><ele>1128</ele><time>2026-03-24T10:48:00Z</time></trkpt>
<trkpt lat="43.0134070000" lon="0.3419670000"><ele>1127</ele><time>2026-03-24T10:49:06Z</time></trkpt>
<trkpt lat="43.0134070000" lon="0.3419370000"><ele>1127</ele><time>2026-03-24T10:49:07Z</time></trkpt>
<trkpt lat="43.0134070000" lon="0.3419050000"><ele>1127</ele><time>2026-03-24T10:49:08Z</time></trkpt>
<trkpt lat="43.0134120000" lon="0.3418770000"><ele>1127</ele><time>2026-03-24T10:49:09Z</time></trkpt>
<trkpt lat="43.0134120000" lon="0.3418450000"><ele>1127</ele><time>2026-03-24T10:49:11Z</time></trkpt>
<trkpt lat="43.0133900000" lon="0.3418300000"><ele>1127</ele><time>2026-03-24T10:49:15Z</time></trkpt>
<trkpt lat="43.0133670000" lon="0.3418120000"><ele>1127</ele><time>2026-03-24T10:49:17Z</time></trkpt>
<trkpt lat="43.0133450000" lon="0.3418070000"><ele>1121</ele><time>2026-03-24T10:50:15Z</time></trkpt>
<trkpt lat="43.0133220000" lon="0.3418270000"><ele>1121</ele><time>2026-03-24T10:50:18Z</time></trkpt>
<trkpt lat="43.0133070000" lon="0.3418020000"><ele>1121</ele><time>2026-03-24T10:50:22Z</time></trkpt>
<trkpt lat="43.0133020000" lon="0.3417750000"><ele>1120</ele><time>2026-03-24T10:50:24Z</time></trkpt>
<trkpt lat="43.0133050000" lon="0.3417980000"><ele>1120</ele><time>2026-03-24T10:50:28Z</time></trkpt>
<trkpt lat="43.0132920000" lon="0.3418300000"><ele>1116</ele><time>2026-03-24T10:51:30Z</time></trkpt>
<trkpt lat="43.0132720000" lon="0.3418370000"><ele>1115</ele><time>2026-03-24T10:51:32Z</time></trkpt>
<trkpt lat="43.0132520000" lon="0.3418320000"><ele>1115</ele><time>2026-03-24T10:51:35Z</time></trkpt>
<trkpt lat="43.0132300000" lon="0.3418370000"><ele>1114</ele><time>2026-03-24T10:51:49Z</time></trkpt>
<trkpt lat="43.0132150000" lon="0.3418550000"><ele>1114</ele><time>2026-03-24T10:51:52Z</time></trkpt>
<trkpt lat="43.0131970000" lon="0.3418820000"><ele>1113</ele><time>2026-03-24T10:51:55Z</time></trkpt>
<trkpt lat="43.0131770000" lon="0.3419070000"><ele>1107</ele><time>2026-03-24T10:52:56Z</time></trkpt>
<trkpt lat="43.0131470000" lon="0.3419330000"><ele>1107</ele><time>2026-03-24T10:52:58Z</time></trkpt>
<trkpt lat="43.0131220000" lon="0.3419520000"><ele>1106</ele><time>2026-03-24T10:53:00Z</time></trkpt>
<trkpt lat="43.0131000000" lon="0.3419700000"><ele>1106</ele><time>2026-03-24T10:53:03Z</time></trkpt>
<trkpt lat="43.0130920000" lon="0.3420000000"><ele>1105</ele><time>2026-03-24T10:53:07Z</time></trkpt>
<trkpt lat="43.0130900000" lon="0.3420320000"><ele>1105</ele><time>2026-03-24T10:53:13Z</time></trkpt>
<trkpt lat="43.0130800000" lon="0.3420520000"><ele>1104</ele><time>2026-03-24T10:53:18Z</time></trkpt>
<trkpt lat="43.0130570000" lon="0.3420500000"><ele>1100</ele><time>2026-03-24T10:54:11Z</time></trkpt>
<trkpt lat="43.0130320000" lon="0.3420220000"><ele>1100</ele><time>2026-03-24T10:54:13Z</time></trkpt>
<trkpt lat="43.0130150000" lon="0.3419970000"><ele>1099</ele><time>2026-03-24T10:54:15Z</time></trkpt>
<trkpt lat="43.0130020000" lon="0.3419770000"><ele>1099</ele><time>2026-03-24T10:54:21Z</time></trkpt>
<trkpt lat="43.0129820000" lon="0.3419770000"><ele>1096</ele><time>2026-03-24T10:54:48Z</time></trkpt>
<trkpt lat="43.0129670000" lon="0.3419970000"><ele>1096</ele><time>2026-03-24T10:54:51Z</time></trkpt>
<trkpt lat="43.0129620000" lon="0.3420270000"><ele>1096</ele><time>2026-03-24T10:54:54Z</time></trkpt>
<trkpt lat="43.0129470000" lon="0.3420570000"><ele>1092</ele><time>2026-03-24T10:55:26Z</time></trkpt>
<trkpt lat="43.0129450000" lon="0.3420850000"><ele>1092</ele><time>2026-03-24T10:55:29Z</time></trkpt>
<trkpt lat="43.0129270000" lon="0.3420670000"><ele>1092</ele><time>2026-03-24T10:55:33Z</time></trkpt>
<trkpt lat="43.0129070000" lon="0.3420680000"><ele>1086</ele><time>2026-03-24T10:56:54Z</time></trkpt>
<trkpt lat="43.0128750000" lon="0.3420770000"><ele>1086</ele><time>2026-03-24T10:56:56Z</time></trkpt>
<trkpt lat="43.0128550000" lon="0.3420800000"><ele>1086</ele><time>2026-03-24T10:56:57Z</time></trkpt>
<trkpt lat="43.0128270000" lon="0.3420850000"><ele>1086</ele><time>2026-03-24T10:56:59Z</time></trkpt>
<trkpt lat="43.0128120000" lon="0.3420970000"><ele>1085</ele><time>2026-03-24T10:57:01Z</time></trkpt>
<trkpt lat="43.0128020000" lon="0.3421250000"><ele>1083</ele><time>2026-03-24T10:57:20Z</time></trkpt>
<trkpt lat="43.0127970000" lon="0.3421530000"><ele>1083</ele><time>2026-03-24T10:57:22Z</time></trkpt>
<trkpt lat="43.0127800000" lon="0.3421430000"><ele>1079</ele><time>2026-03-24T10:58:31Z</time></trkpt>
<trkpt lat="43.0127570000" lon="0.3421120000"><ele>1079</ele><time>2026-03-24T10:58:32Z</time></trkpt>
<trkpt lat="43.0127320000" lon="0.3420720000"><ele>1079</ele><time>2026-03-24T10:58:33Z</time></trkpt>
<trkpt lat="43.0127100000" lon="0.3420320000"><ele>1078</ele><time>2026-03-24T10:58:34Z</time></trkpt>
<trkpt lat="43.0126920000" lon="0.3420020000"><ele>1078</ele><time>2026-03-24T10:58:35Z</time></trkpt>
<trkpt lat="43.0126800000" lon="0.3419770000"><ele>1078</ele><time>2026-03-24T10:58:36Z</time></trkpt>
<trkpt lat="43.0126670000" lon="0.3419570000"><ele>1078</ele><time>2026-03-24T10:58:37Z</time></trkpt>
<trkpt lat="43.0126550000" lon="0.3419320000"><ele>1078</ele><time>2026-03-24T10:58:39Z</time></trkpt>
<trkpt lat="43.0126350000" lon="0.3419300000"><ele>1078</ele><time>2026-03-24T10:58:43Z</time></trkpt>
<trkpt lat="43.0126120000" lon="0.3419200000"><ele>1077</ele><time>2026-03-24T10:58:52Z</time></trkpt>
<trkpt lat="43.0125920000" lon="0.3419070000"><ele>1075</ele><time>2026-03-24T10:59:24Z</time></trkpt>
<trkpt lat="43.0125570000" lon="0.3418900000"><ele>1074</ele><time>2026-03-24T10:59:26Z</time></trkpt>
<trkpt lat="43.0125370000" lon="0.3418800000"><ele>1074</ele><time>2026-03-24T10:59:28Z</time></trkpt>
<trkpt lat="43.0125520000" lon="0.3418970000"><ele>1074</ele><time>2026-03-24T11:00:44Z</time></trkpt>
<trkpt lat="43.0125670000" lon="0.3419170000"><ele>1074</ele><time>2026-03-24T11:00:45Z</time></trkpt>
<trkpt lat="43.0125850000" lon="0.3419520000"><ele>1074</ele><time>2026-03-24T11:00:47Z</time></trkpt>
<trkpt lat="43.0125720000" lon="0.3419720000"><ele>1074</ele><time>2026-03-24T11:00:53Z</time></trkpt>
<trkpt lat="43.0125480000" lon="0.3419670000"><ele>1068</ele><time>2026-03-24T11:01:43Z</time></trkpt>
<trkpt lat="43.0125220000" lon="0.3419620000"><ele>1067</ele><time>2026-03-24T11:01:45Z</time></trkpt>
<trkpt lat="43.0125070000" lon="0.3419420000"><ele>1067</ele><time>2026-03-24T11:01:48Z</time></trkpt>
<trkpt lat="43.0124870000" lon="0.3419320000"><ele>1066</ele><time>2026-03-24T11:01:51Z</time></trkpt>
<trkpt lat="43.0124650000" lon="0.3419170000"><ele>1066</ele><time>2026-03-24T11:02:01Z</time></trkpt>
<trkpt lat="43.0124270000" lon="0.3419000000"><ele>1066</ele><time>2026-03-24T11:02:03Z</time></trkpt>
<trkpt lat="43.0124070000" lon="0.3418970000"><ele>1066</ele><time>2026-03-24T11:02:04Z</time></trkpt>
<trkpt lat="43.0123820000" lon="0.3418970000"><ele>1061</ele><time>2026-03-24T11:02:41Z</time></trkpt>
<trkpt lat="43.0123620000" lon="0.3418820000"><ele>1061</ele><time>2026-03-24T11:02:42Z</time></trkpt>
<trkpt lat="43.0123400000" lon="0.3418670000"><ele>1061</ele><time>2026-03-24T11:02:43Z</time></trkpt>
<trkpt lat="43.0123200000" lon="0.3418520000"><ele>1061</ele><time>2026-03-24T11:02:44Z</time></trkpt>
<trkpt lat="43.0122970000" lon="0.3418270000"><ele>1061</ele><time>2026-03-24T11:02:46Z</time></trkpt>
<trkpt lat="43.0122820000" lon="0.3418100000"><ele>1061</ele><time>2026-03-24T11:02:48Z</time></trkpt>
<trkpt lat="43.0122670000" lon="0.3417880000"><ele>1061</ele><time>2026-03-24T11:02:51Z</time></trkpt>
<trkpt lat="43.0122520000" lon="0.3417720000"><ele>1061</ele><time>2026-03-24T11:02:54Z</time></trkpt>
<trkpt lat="43.0122320000" lon="0.3417570000"><ele>1060</ele><time>2026-03-24T11:02:57Z</time></trkpt>
<trkpt lat="43.0122200000" lon="0.3417320000"><ele>1059</ele><time>2026-03-24T11:03:04Z</time></trkpt>
<trkpt lat="43.0122220000" lon="0.3417070000"><ele>1059</ele><time>2026-03-24T11:03:09Z</time></trkpt>
<trkpt lat="43.0121970000" lon="0.3416870000"><ele>1058</ele><time>2026-03-24T11:03:17Z</time></trkpt>
<trkpt lat="43.0121670000" lon="0.3416770000"><ele>1058</ele><time>2026-03-24T11:03:19Z</time></trkpt>
<trkpt lat="43.0121500000" lon="0.3416670000"><ele>1058</ele><time>2026-03-24T11:03:20Z</time></trkpt>
<trkpt lat="43.0121350000" lon="0.3416520000"><ele>1058</ele><time>2026-03-24T11:03:22Z</time></trkpt>
<trkpt lat="43.0121200000" lon="0.3416350000"><ele>1058</ele><time>2026-03-24T11:03:27Z</time></trkpt>
<trkpt lat="43.0121070000" lon="0.3416100000"><ele>1058</ele><time>2026-03-24T11:03:31Z</time></trkpt>
<trkpt lat="43.0120970000" lon="0.3415870000"><ele>1057</ele><time>2026-03-24T11:03:36Z</time></trkpt>
<trkpt lat="43.0120820000" lon="0.3415720000"><ele>1056</ele><time>2026-03-24T11:03:40Z</time></trkpt>
<trkpt lat="43.0120620000" lon="0.3415580000"><ele>1056</ele><time>2026-03-24T11:03:44Z</time></trkpt>
<trkpt lat="43.0120550000" lon="0.3415350000"><ele>1055</ele><time>2026-03-24T11:03:50Z</time></trkpt>
<trkpt lat="43.0120470000" lon="0.3415070000"><ele>1055</ele><time>2026-03-24T11:03:54Z</time></trkpt>
<trkpt lat="43.0120320000" lon="0.3414800000"><ele>1055</ele><time>2026-03-24T11:03:57Z</time></trkpt>
<trkpt lat="43.0120170000" lon="0.3414550000"><ele>1055</ele><time>2026-03-24T11:04:00Z</time></trkpt>
<trkpt lat="43.0120000000" lon="0.3414350000"><ele>1054</ele><time>2026-03-24T11:04:04Z</time></trkpt>
<trkpt lat="43.0119820000" lon="0.3414200000"><ele>1053</ele><time>2026-03-24T11:04:13Z</time></trkpt>
<trkpt lat="43.0119620000" lon="0.3414000000"><ele>1052</ele><time>2026-03-24T11:04:28Z</time></trkpt>
<trkpt lat="43.0119350000" lon="0.3413800000"><ele>1052</ele><time>2026-03-24T11:04:30Z</time></trkpt>
<trkpt lat="43.0119070000" lon="0.3413630000"><ele>1052</ele><time>2026-03-24T11:04:32Z</time></trkpt>
<trkpt lat="43.0118870000" lon="0.3413550000"><ele>1051</ele><time>2026-03-24T11:04:34Z</time></trkpt>
<trkpt lat="43.0118620000" lon="0.3413500000"><ele>1051</ele><time>2026-03-24T11:04:37Z</time></trkpt>
<trkpt lat="43.0118370000" lon="0.3413370000"><ele>1050</ele><time>2026-03-24T11:04:41Z</time></trkpt>
<trkpt lat="43.0118200000" lon="0.3413320000"><ele>1050</ele><time>2026-03-24T11:04:43Z</time></trkpt>
<trkpt lat="43.0118070000" lon="0.3413020000"><ele>1050</ele><time>2026-03-24T11:04:46Z</time></trkpt>
<trkpt lat="43.0117970000" lon="0.3412720000"><ele>1048</ele><time>2026-03-24T11:05:01Z</time></trkpt>
<trkpt lat="43.0117850000" lon="0.3412470000"><ele>1047</ele><time>2026-03-24T11:05:03Z</time></trkpt>
<trkpt lat="43.0117750000" lon="0.3412170000"><ele>1047</ele><time>2026-03-24T11:05:05Z</time></trkpt>
<trkpt lat="43.0117650000" lon="0.3411870000"><ele>1047</ele><time>2026-03-24T11:05:08Z</time></trkpt>
<trkpt lat="43.0117600000" lon="0.3411600000"><ele>1047</ele><time>2026-03-24T11:05:11Z</time></trkpt>
<trkpt lat="43.0117500000" lon="0.3411320000"><ele>1047</ele><time>2026-03-24T11:05:14Z</time></trkpt>
<trkpt lat="43.0117350000" lon="0.3411170000"><ele>1047</ele><time>2026-03-24T11:05:16Z</time></trkpt>
<trkpt lat="43.0117180000" lon="0.3410930000"><ele>1046</ele><time>2026-03-24T11:05:31Z</time></trkpt>
<trkpt lat="43.0117070000" lon="0.3410750000"><ele>1046</ele><time>2026-03-24T11:05:33Z</time></trkpt>
<trkpt lat="43.0116920000" lon="0.3410500000"><ele>1046</ele><time>2026-03-24T11:05:35Z</time></trkpt>
<trkpt lat="43.0116820000" lon="0.3410250000"><ele>1046</ele><time>2026-03-24T11:05:37Z</time></trkpt>
<trkpt lat="43.0116700000" lon="0.3410050000"><ele>1046</ele><time>2026-03-24T11:05:39Z</time></trkpt>
<trkpt lat="43.0116520000" lon="0.3409920000"><ele>1046</ele><time>2026-03-24T11:05:41Z</time></trkpt>
<trkpt lat="43.0116300000" lon="0.3409920000"><ele>1045</ele><time>2026-03-24T11:05:43Z</time></trkpt>
<trkpt lat="43.0116120000" lon="0.3409870000"><ele>1045</ele><time>2026-03-24T11:05:45Z</time></trkpt>
<trkpt lat="43.0115920000" lon="0.3409770000"><ele>1045</ele><time>2026-03-24T11:05:47Z</time></trkpt>
<trkpt lat="43.0115770000" lon="0.3409620000"><ele>1045</ele><time>2026-03-24T11:05:49Z</time></trkpt>
<trkpt lat="43.0115620000" lon="0.3409420000"><ele>1044</ele><time>2026-03-24T11:05:51Z</time></trkpt>
<trkpt lat="43.0115450000" lon="0.3409250000"><ele>1044</ele><time>2026-03-24T11:05:54Z</time></trkpt>
<trkpt lat="43.0115170000" lon="0.3409150000"><ele>1044</ele><time>2026-03-24T11:05:57Z</time></trkpt>
<trkpt lat="43.0115000000" lon="0.3409070000"><ele>1044</ele><time>2026-03-24T11:05:59Z</time></trkpt>
<trkpt lat="43.0114800000" lon="0.3409070000"><ele>1044</ele><time>2026-03-24T11:06:01Z</time></trkpt>
<trkpt lat="43.0114620000" lon="0.3409220000"><ele>1043</ele><time>2026-03-24T11:06:03Z</time></trkpt>
<trkpt lat="43.0114420000" lon="0.3409420000"><ele>1043</ele><time>2026-03-24T11:06:05Z</time></trkpt>
<trkpt lat="43.0114270000" lon="0.3409570000"><ele>1043</ele><time>2026-03-24T11:06:07Z</time></trkpt>
<trkpt lat="43.0114120000" lon="0.3409720000"><ele>1043</ele><time>2026-03-24T11:06:09Z</time></trkpt>
<trkpt lat="43.0113950000" lon="0.3409820000"><ele>1043</ele><time>2026-03-24T11:06:11Z</time></trkpt>
<trkpt lat="43.0113770000" lon="0.3409920000"><ele>1043</ele><time>2026-03-24T11:06:13Z</time></trkpt>
<trkpt lat="43.0113550000" lon="0.3410070000"><ele>1043</ele><time>2026-03-24T11:06:15Z</time></trkpt>
<trkpt lat="43.0113320000" lon="0.3410200000"><ele>1043</ele><time>2026-03-24T11:06:18Z</time></trkpt>
<trkpt lat="43.0113120000" lon="0.3410250000"><ele>1043</ele><time>2026-03-24T11:06:20Z</time></trkpt>
<trkpt lat="43.0112950000" lon="0.3410370000"><ele>1043</ele><time>2026-03-24T11:06:22Z</time></trkpt>
<trkpt lat="43.0112720000" lon="0.3410420000"><ele>1043</ele><time>2026-03-24T11:06:25Z</time></trkpt>
<trkpt lat="43.0112470000" lon="0.3410330000"><ele>1043</ele><time>2026-03-24T11:06:28Z</time></trkpt>
<trkpt lat="43.0112250000" lon="0.3410170000"><ele>1043</ele><time>2026-03-24T11:06:31Z</time></trkpt>
<trkpt lat="43.0112070000" lon="0.3409920000"><ele>1043</ele><time>2026-03-24T11:06:33Z</time></trkpt>
<trkpt lat="43.0111870000" lon="0.3409970000"><ele>1044</ele><time>2026-03-24T11:06:39Z</time></trkpt>
<trkpt lat="43.0111770000" lon="0.3410270000"><ele>1045</ele><time>2026-03-24T11:06:43Z</time></trkpt>
<trkpt lat="43.0111970000" lon="0.3410250000"><ele>1044</ele><time>2026-03-24T11:07:09Z</time></trkpt>
<trkpt lat="43.0111870000" lon="0.3410500000"><ele>1044</ele><time>2026-03-24T11:07:29Z</time></trkpt>
<trkpt lat="43.0111650000" lon="0.3410500000"><ele>1044</ele><time>2026-03-24T11:07:34Z</time></trkpt>
<trkpt lat="43.0111470000" lon="0.3410500000"><ele>1044</ele><time>2026-03-24T11:07:39Z</time></trkpt>
<trkpt lat="43.0111570000" lon="0.3410170000"><ele>1043</ele><time>2026-03-24T11:09:03Z</time></trkpt>
<trkpt lat="43.0111470000" lon="0.3409720000"><ele>1043</ele><time>2026-03-24T11:09:05Z</time></trkpt>
<trkpt lat="43.0111420000" lon="0.3409470000"><ele>1043</ele><time>2026-03-24T11:09:07Z</time></trkpt>
<trkpt lat="43.0111620000" lon="0.3409370000"><ele>1043</ele><time>2026-03-24T11:09:32Z</time></trkpt>
<trkpt lat="43.0111770000" lon="0.3409120000"><ele>1043</ele><time>2026-03-24T11:09:34Z</time></trkpt>
<trkpt lat="43.0111920000" lon="0.3408770000"><ele>1043</ele><time>2026-03-24T11:09:36Z</time></trkpt>
<trkpt lat="43.0111830000" lon="0.3408470000"><ele>1043</ele><time>2026-03-24T11:09:38Z</time></trkpt>
<trkpt lat="43.0111950000" lon="0.3408130000"><ele>1043</ele><time>2026-03-24T11:09:42Z</time></trkpt>
<trkpt lat="43.0112070000" lon="0.3407870000"><ele>1043</ele><time>2026-03-24T11:09:45Z</time></trkpt>
<trkpt lat="43.0112270000" lon="0.3407600000"><ele>1043</ele><time>2026-03-24T11:09:47Z</time></trkpt>
<trkpt lat="43.0112470000" lon="0.3407350000"><ele>1043</ele><time>2026-03-24T11:09:49Z</time></trkpt>
<trkpt lat="43.0112720000" lon="0.3407070000"><ele>1042</ele><time>2026-03-24T11:09:51Z</time></trkpt>
<trkpt lat="43.0112920000" lon="0.3406880000"><ele>1042</ele><time>2026-03-24T11:09:53Z</time></trkpt>
<trkpt lat="43.0113070000" lon="0.3406670000"><ele>1042</ele><time>2026-03-24T11:09:56Z</time></trkpt>
<trkpt lat="43.0113000000" lon="0.3406430000"><ele>1042</ele><time>2026-03-24T11:09:59Z</time></trkpt>
<trkpt lat="43.0113120000" lon="0.3406170000"><ele>1042</ele><time>2026-03-24T11:10:02Z</time></trkpt>
<trkpt lat="43.0113300000" lon="0.3406020000"><ele>1042</ele><time>2026-03-24T11:10:04Z</time></trkpt>
<trkpt lat="43.0113470000" lon="0.3405750000"><ele>1042</ele><time>2026-03-24T11:10:06Z</time></trkpt>
<trkpt lat="43.0113600000" lon="0.3405520000"><ele>1041</ele><time>2026-03-24T11:10:08Z</time></trkpt>
<trkpt lat="43.0113750000" lon="0.3405170000"><ele>1041</ele><time>2026-03-24T11:10:11Z</time></trkpt>
<trkpt lat="43.0113850000" lon="0.3404870000"><ele>1041</ele><time>2026-03-24T11:10:13Z</time></trkpt>
<trkpt lat="43.0113870000" lon="0.3404550000"><ele>1041</ele><time>2026-03-24T11:10:16Z</time></trkpt>
<trkpt lat="43.0113870000" lon="0.3404300000"><ele>1041</ele><time>2026-03-24T11:10:19Z</time></trkpt>
<trkpt lat="43.0113870000" lon="0.3404020000"><ele>1041</ele><time>2026-03-24T11:10:22Z</time></trkpt>
<trkpt lat="43.0113920000" lon="0.3403720000"><ele>1041</ele><time>2026-03-24T11:10:25Z</time></trkpt>
<trkpt lat="43.0114000000" lon="0.3403420000"><ele>1041</ele><time>2026-03-24T11:10:28Z</time></trkpt>
<trkpt lat="43.0114070000" lon="0.3403120000"><ele>1040</ele><time>2026-03-24T11:10:30Z</time></trkpt>
<trkpt lat="43.0114120000" lon="0.3402870000"><ele>1040</ele><time>2026-03-24T11:10:32Z</time></trkpt>
<trkpt lat="43.0114170000" lon="0.3402530000"><ele>1040</ele><time>2026-03-24T11:10:35Z</time></trkpt>
<trkpt lat="43.0114170000" lon="0.3402220000"><ele>1040</ele><time>2026-03-24T11:10:38Z</time></trkpt>
<trkpt lat="43.0114150000" lon="0.3401920000"><ele>1040</ele><time>2026-03-24T11:10:40Z</time></trkpt>
<trkpt lat="43.0114170000" lon="0.3401620000"><ele>1040</ele><time>2026-03-24T11:10:43Z</time></trkpt>
<trkpt lat="43.0114200000" lon="0.3401350000"><ele>1039</ele><time>2026-03-24T11:10:45Z</time></trkpt>
<trkpt lat="43.0114170000" lon="0.3401100000"><ele>1039</ele><time>2026-03-24T11:10:47Z</time></trkpt>
<trkpt lat="43.0114120000" lon="0.3400820000"><ele>1039</ele><time>2026-03-24T11:10:49Z</time></trkpt>
<trkpt lat="43.0114080000" lon="0.3400470000"><ele>1039</ele><time>2026-03-24T11:10:52Z</time></trkpt>
<trkpt lat="43.0114070000" lon="0.3400220000"><ele>1039</ele><time>2026-03-24T11:10:54Z</time></trkpt>
<trkpt lat="43.0113950000" lon="0.3399920000"><ele>1039</ele><time>2026-03-24T11:10:57Z</time></trkpt>
<trkpt lat="43.0113870000" lon="0.3399670000"><ele>1039</ele><time>2026-03-24T11:11:01Z</time></trkpt>
<trkpt lat="43.0113700000" lon="0.3399620000"><ele>1038</ele><time>2026-03-24T11:11:04Z</time></trkpt>
<trkpt lat="43.0113520000" lon="0.3399620000"><ele>1038</ele><time>2026-03-24T11:11:06Z</time></trkpt>
<trkpt lat="43.0113350000" lon="0.3399520000"><ele>1038</ele><time>2026-03-24T11:11:08Z</time></trkpt>
<trkpt lat="43.0113220000" lon="0.3399270000"><ele>1038</ele><time>2026-03-24T11:11:12Z</time></trkpt>
<trkpt lat="43.0113120000" lon="0.3398980000"><ele>1038</ele><time>2026-03-24T11:11:15Z</time></trkpt>
<trkpt lat="43.0113320000" lon="0.3398970000"><ele>1038</ele><time>2026-03-24T11:11:21Z</time></trkpt>
<trkpt lat="43.0113380000" lon="0.3398650000"><ele>1038</ele><time>2026-03-24T11:11:32Z</time></trkpt>
<trkpt lat="43.0113470000" lon="0.3398220000"><ele>1038</ele><time>2026-03-24T11:11:34Z</time></trkpt>
<trkpt lat="43.0113320000" lon="0.3397820000"><ele>1038</ele><time>2026-03-24T11:11:36Z</time></trkpt>
<trkpt lat="43.0113170000" lon="0.3397500000"><ele>1037</ele><time>2026-03-24T11:11:38Z</time></trkpt>
<trkpt lat="43.0112970000" lon="0.3397270000"><ele>1037</ele><time>2026-03-24T11:11:40Z</time></trkpt>
<trkpt lat="43.0112850000" lon="0.3397070000"><ele>1037</ele><time>2026-03-24T11:11:42Z</time></trkpt>
<trkpt lat="43.0112800000" lon="0.3396770000"><ele>1037</ele><time>2026-03-24T11:11:45Z</time></trkpt>
<trkpt lat="43.0112720000" lon="0.3396370000"><ele>1037</ele><time>2026-03-24T11:11:48Z</time></trkpt>
<trkpt lat="43.0112770000" lon="0.3396000000"><ele>1036</ele><time>2026-03-24T11:11:58Z</time></trkpt>
<trkpt lat="43.0112970000" lon="0.3395720000"><ele>1036</ele><time>2026-03-24T11:12:01Z</time></trkpt>
<trkpt lat="43.0113070000" lon="0.3395520000"><ele>1036</ele><time>2026-03-24T11:12:03Z</time></trkpt>
<trkpt lat="43.0113220000" lon="0.3395370000"><ele>1036</ele><time>2026-03-24T11:12:05Z</time></trkpt>
<trkpt lat="43.0113300000" lon="0.3395020000"><ele>1035</ele><time>2026-03-24T11:12:08Z</time></trkpt>
<trkpt lat="43.0113350000" lon="0.3394720000"><ele>1035</ele><time>2026-03-24T11:12:11Z</time></trkpt>
<trkpt lat="43.0113320000" lon="0.3394420000"><ele>1035</ele><time>2026-03-24T11:12:13Z</time></trkpt>
<trkpt lat="43.0113300000" lon="0.3394120000"><ele>1034</ele><time>2026-03-24T11:12:15Z</time></trkpt>
<trkpt lat="43.0113220000" lon="0.3393830000"><ele>1034</ele><time>2026-03-24T11:12:18Z</time></trkpt>
<trkpt lat="43.0113150000" lon="0.3393520000"><ele>1034</ele><time>2026-03-24T11:12:22Z</time></trkpt>
<trkpt lat="43.0113170000" lon="0.3393200000"><ele>1033</ele><time>2026-03-24T11:12:26Z</time></trkpt>
<trkpt lat="43.0113100000" lon="0.3392970000"><ele>1033</ele><time>2026-03-24T11:12:28Z</time></trkpt>
<trkpt lat="43.0113050000" lon="0.3392700000"><ele>1032</ele><time>2026-03-24T11:12:30Z</time></trkpt>
<trkpt lat="43.0112970000" lon="0.3392370000"><ele>1032</ele><time>2026-03-24T11:12:33Z</time></trkpt>
<trkpt lat="43.0112900000" lon="0.3392150000"><ele>1032</ele><time>2026-03-24T11:12:35Z</time></trkpt>
<trkpt lat="43.0112970000" lon="0.3391900000"><ele>1031</ele><time>2026-03-24T11:12:44Z</time></trkpt>
<trkpt lat="43.0112720000" lon="0.3391970000"><ele>1030</ele><time>2026-03-24T11:12:53Z</time></trkpt>
<trkpt lat="43.0112500000" lon="0.3391950000"><ele>1030</ele><time>2026-03-24T11:12:55Z</time></trkpt>
<trkpt lat="43.0112350000" lon="0.3391670000"><ele>1030</ele><time>2026-03-24T11:12:57Z</time></trkpt>
<trkpt lat="43.0112320000" lon="0.3391320000"><ele>1030</ele><time>2026-03-24T11:12:59Z</time></trkpt>
<trkpt lat="43.0112420000" lon="0.3390930000"><ele>1030</ele><time>2026-03-24T11:13:01Z</time></trkpt>
<trkpt lat="43.0112520000" lon="0.3390670000"><ele>1030</ele><time>2026-03-24T11:13:03Z</time></trkpt>
<trkpt lat="43.0112520000" lon="0.3390370000"><ele>1030</ele><time>2026-03-24T11:13:06Z</time></trkpt>
<trkpt lat="43.0112470000" lon="0.3390080000"><ele>1029</ele><time>2026-03-24T11:13:09Z</time></trkpt>
<trkpt lat="43.0112520000" lon="0.3389820000"><ele>1029</ele><time>2026-03-24T11:13:11Z</time></trkpt>
<trkpt lat="43.0112570000" lon="0.3389370000"><ele>1029</ele><time>2026-03-24T11:13:13Z</time></trkpt>
<trkpt lat="43.0112670000" lon="0.3389100000"><ele>1028</ele><time>2026-03-24T11:13:15Z</time></trkpt>
<trkpt lat="43.0112700000" lon="0.3388820000"><ele>1028</ele><time>2026-03-24T11:13:17Z</time></trkpt>
<trkpt lat="43.0112670000" lon="0.3388450000"><ele>1028</ele><time>2026-03-24T11:13:20Z</time></trkpt>
<trkpt lat="43.0112650000" lon="0.3388200000"><ele>1027</ele><time>2026-03-24T11:13:22Z</time></trkpt>
<trkpt lat="43.0112570000" lon="0.3387950000"><ele>1027</ele><time>2026-03-24T11:13:24Z</time></trkpt>
<trkpt lat="43.0112450000" lon="0.3387670000"><ele>1027</ele><time>2026-03-24T11:13:26Z</time></trkpt>
<trkpt lat="43.0112270000" lon="0.3387470000"><ele>1026</ele><time>2026-03-24T11:13:29Z</time></trkpt>
<trkpt lat="43.0112250000" lon="0.3387120000"><ele>1026</ele><time>2026-03-24T11:13:32Z</time></trkpt>
<trkpt lat="43.0112370000" lon="0.3386820000"><ele>1025</ele><time>2026-03-24T11:13:35Z</time></trkpt>
<trkpt lat="43.0112370000" lon="0.3386470000"><ele>1024</ele><time>2026-03-24T11:13:38Z</time></trkpt>
<trkpt lat="43.0112320000" lon="0.3386120000"><ele>1024</ele><time>2026-03-24T11:13:41Z</time></trkpt>
<trkpt lat="43.0112470000" lon="0.3385850000"><ele>1023</ele><time>2026-03-24T11:13:49Z</time></trkpt>
<trkpt lat="43.0112650000" lon="0.3385520000"><ele>1023</ele><time>2026-03-24T11:13:51Z</time></trkpt>
<trkpt lat="43.0112670000" lon="0.3385170000"><ele>1022</ele><time>2026-03-24T11:13:53Z</time></trkpt>
<trkpt lat="43.0112720000" lon="0.3384870000"><ele>1022</ele><time>2026-03-24T11:13:56Z</time></trkpt>
<trkpt lat="43.0112720000" lon="0.3384520000"><ele>1021</ele><time>2026-03-24T11:13:58Z</time></trkpt>
<trkpt lat="43.0112670000" lon="0.3384270000"><ele>1021</ele><time>2026-03-24T11:13:59Z</time></trkpt>
<trkpt lat="43.0112650000" lon="0.3383950000"><ele>1021</ele><time>2026-03-24T11:14:01Z</time></trkpt>
<trkpt lat="43.0112720000" lon="0.3383670000"><ele>1020</ele><time>2026-03-24T11:14:04Z</time></trkpt>
<trkpt lat="43.0112720000" lon="0.3383400000"><ele>1020</ele><time>2026-03-24T11:14:06Z</time></trkpt>
<trkpt lat="43.0112720000" lon="0.3383120000"><ele>1020</ele><time>2026-03-24T11:14:08Z</time></trkpt>
<trkpt lat="43.0112620000" lon="0.3382820000"><ele>1020</ele><time>2026-03-24T11:14:10Z</time></trkpt>
<trkpt lat="43.0112570000" lon="0.3382570000"><ele>1019</ele><time>2026-03-24T11:14:14Z</time></trkpt>
<trkpt lat="43.0112750000" lon="0.3382320000"><ele>1019</ele><time>2026-03-24T11:14:17Z</time></trkpt>
<trkpt lat="43.0112870000" lon="0.3382120000"><ele>1018</ele><time>2026-03-24T11:14:19Z</time></trkpt>
<trkpt lat="43.0112970000" lon="0.3381870000"><ele>1018</ele><time>2026-03-24T11:14:23Z</time></trkpt>
<trkpt lat="43.0112800000" lon="0.3381920000"><ele>1017</ele><time>2026-03-24T11:14:28Z</time></trkpt>
<trkpt lat="43.0112620000" lon="0.3381670000"><ele>1017</ele><time>2026-03-24T11:14:59Z</time></trkpt>
<trkpt lat="43.0112420000" lon="0.3381250000"><ele>1017</ele><time>2026-03-24T11:15:01Z</time></trkpt>
<trkpt lat="43.0112270000" lon="0.3381050000"><ele>1017</ele><time>2026-03-24T11:15:02Z</time></trkpt>
<trkpt lat="43.0112100000" lon="0.3380800000"><ele>1017</ele><time>2026-03-24T11:15:04Z</time></trkpt>
<trkpt lat="43.0112220000" lon="0.3380420000"><ele>1017</ele><time>2026-03-24T11:15:08Z</time></trkpt>
<trkpt lat="43.0112350000" lon="0.3380200000"><ele>1017</ele><time>2026-03-24T11:15:12Z</time></trkpt>
<trkpt lat="43.0112400000" lon="0.3379900000"><ele>1017</ele><time>2026-03-24T11:15:14Z</time></trkpt>
<trkpt lat="43.0112400000" lon="0.3379620000"><ele>1016</ele><time>2026-03-24T11:15:16Z</time></trkpt>
<trkpt lat="43.0112300000" lon="0.3379350000"><ele>1016</ele><time>2026-03-24T11:15:19Z</time></trkpt>
<trkpt lat="43.0112220000" lon="0.3379070000"><ele>1016</ele><time>2026-03-24T11:15:22Z</time></trkpt>
<trkpt lat="43.0112170000" lon="0.3378770000"><ele>1016</ele><time>2026-03-24T11:15:25Z</time></trkpt>
<trkpt lat="43.0112070000" lon="0.3378470000"><ele>1016</ele><time>2026-03-24T11:15:28Z</time></trkpt>
<trkpt lat="43.0111920000" lon="0.3378170000"><ele>1016</ele><time>2026-03-24T11:15:31Z</time></trkpt>
<trkpt lat="43.0111800000" lon="0.3377900000"><ele>1018</ele><time>2026-03-24T11:16:11Z</time></trkpt>
<trkpt lat="43.0111700000" lon="0.3377670000"><ele>1019</ele><time>2026-03-24T11:16:19Z</time></trkpt>
<trkpt lat="43.0111830000" lon="0.3377350000"><ele>1022</ele><time>2026-03-24T11:17:28Z</time></trkpt>
<trkpt lat="43.0111970000" lon="0.3377070000"><ele>1023</ele><time>2026-03-24T11:17:30Z</time></trkpt>
<trkpt lat="43.0111920000" lon="0.3376720000"><ele>1024</ele><time>2026-03-24T11:18:51Z</time></trkpt>
<trkpt lat="43.0111800000" lon="0.3376420000"><ele>1024</ele><time>2026-03-24T11:18:53Z</time></trkpt>
<trkpt lat="43.0111450000" lon="0.3376420000"><ele>1026</ele><time>2026-03-24T11:20:07Z</time></trkpt>
<trkpt lat="43.0111270000" lon="0.3376400000"><ele>1026</ele><time>2026-03-24T11:20:08Z</time></trkpt>
<trkpt lat="43.0111070000" lon="0.3376280000"><ele>1026</ele><time>2026-03-24T11:20:11Z</time></trkpt>
<trkpt lat="43.0111130000" lon="0.3376050000"><ele>1027</ele><time>2026-03-24T11:20:15Z</time></trkpt>
<trkpt lat="43.0111050000" lon="0.3375780000"><ele>1030</ele><time>2026-03-24T11:21:03Z</time></trkpt>
<trkpt lat="43.0110870000" lon="0.3375520000"><ele>1030</ele><time>2026-03-24T11:21:05Z</time></trkpt>
<trkpt lat="43.0110720000" lon="0.3375320000"><ele>1032</ele><time>2026-03-24T11:21:49Z</time></trkpt>
<trkpt lat="43.0110520000" lon="0.3375370000"><ele>1035</ele><time>2026-03-24T11:22:19Z</time></trkpt>
<trkpt lat="43.0110280000" lon="0.3375470000"><ele>1035</ele><time>2026-03-24T11:22:21Z</time></trkpt>
<trkpt lat="43.0110100000" lon="0.3375470000"><ele>1035</ele><time>2026-03-24T11:22:23Z</time></trkpt>
<trkpt lat="43.0109970000" lon="0.3375270000"><ele>1037</ele><time>2026-03-24T11:22:51Z</time></trkpt>
<trkpt lat="43.0109770000" lon="0.3375000000"><ele>1037</ele><time>2026-03-24T11:22:53Z</time></trkpt>
<trkpt lat="43.0109520000" lon="0.3374770000"><ele>1037</ele><time>2026-03-24T11:22:55Z</time></trkpt>
<trkpt lat="43.0109400000" lon="0.3374570000"><ele>1037</ele><time>2026-03-24T11:22:57Z</time></trkpt>
<trkpt lat="43.0109370000" lon="0.3374270000"><ele>1038</ele><time>2026-03-24T11:23:07Z</time></trkpt>
<trkpt lat="43.0109300000" lon="0.3373980000"><ele>1038</ele><time>2026-03-24T11:23:09Z</time></trkpt>
<trkpt lat="43.0109120000" lon="0.3373850000"><ele>1042</ele><time>2026-03-24T11:24:06Z</time></trkpt>
<trkpt lat="43.0108920000" lon="0.3373870000"><ele>1042</ele><time>2026-03-24T11:24:07Z</time></trkpt>
<trkpt lat="43.0108700000" lon="0.3373920000"><ele>1042</ele><time>2026-03-24T11:24:08Z</time></trkpt>
<trkpt lat="43.0108420000" lon="0.3373920000"><ele>1041</ele><time>2026-03-24T11:24:09Z</time></trkpt>
<trkpt lat="43.0108220000" lon="0.3373870000"><ele>1041</ele><time>2026-03-24T11:24:10Z</time></trkpt>
<trkpt lat="43.0107950000" lon="0.3373750000"><ele>1041</ele><time>2026-03-24T11:24:12Z</time></trkpt>
<trkpt lat="43.0107720000" lon="0.3373670000"><ele>1041</ele><time>2026-03-24T11:24:15Z</time></trkpt>
<trkpt lat="43.0107600000" lon="0.3373870000"><ele>1041</ele><time>2026-03-24T11:24:22Z</time></trkpt>
<trkpt lat="43.0107200000" lon="0.3373850000"><ele>1033</ele><time>2026-03-24T11:25:39Z</time></trkpt>
<trkpt lat="43.0106920000" lon="0.3373720000"><ele>1033</ele><time>2026-03-24T11:25:40Z</time></trkpt>
<trkpt lat="43.0106670000" lon="0.3373570000"><ele>1033</ele><time>2026-03-24T11:25:41Z</time></trkpt>
<trkpt lat="43.0106470000" lon="0.3373420000"><ele>1032</ele><time>2026-03-24T11:25:42Z</time></trkpt>
<trkpt lat="43.0106320000" lon="0.3373170000"><ele>1032</ele><time>2026-03-24T11:25:44Z</time></trkpt>
<trkpt lat="43.0106120000" lon="0.3373150000"><ele>1030</ele><time>2026-03-24T11:26:27Z</time></trkpt>
<trkpt lat="43.0105920000" lon="0.3373020000"><ele>1029</ele><time>2026-03-24T11:26:29Z</time></trkpt>
<trkpt lat="43.0105720000" lon="0.3373020000"><ele>1029</ele><time>2026-03-24T11:26:33Z</time></trkpt>
<trkpt lat="43.0105500000" lon="0.3372950000"><ele>1025</ele><time>2026-03-24T11:27:36Z</time></trkpt>
<trkpt lat="43.0105470000" lon="0.3372700000"><ele>1024</ele><time>2026-03-24T11:28:28Z</time></trkpt>
<trkpt lat="43.0105600000" lon="0.3372450000"><ele>1023</ele><time>2026-03-24T11:28:33Z</time></trkpt>
<trkpt lat="43.0105570000" lon="0.3372130000"><ele>1023</ele><time>2026-03-24T11:28:35Z</time></trkpt>
<trkpt lat="43.0105350000" lon="0.3372370000"><ele>1020</ele><time>2026-03-24T11:29:18Z</time></trkpt>
<trkpt lat="43.0105080000" lon="0.3372470000"><ele>1013</ele><time>2026-03-24T11:30:45Z</time></trkpt>
<trkpt lat="43.0104920000" lon="0.3372470000"><ele>1013</ele><time>2026-03-24T11:30:46Z</time></trkpt>
<trkpt lat="43.0104720000" lon="0.3372500000"><ele>1013</ele><time>2026-03-24T11:30:47Z</time></trkpt>
<trkpt lat="43.0104520000" lon="0.3372550000"><ele>1013</ele><time>2026-03-24T11:30:48Z</time></trkpt>
<trkpt lat="43.0104320000" lon="0.3372600000"><ele>1012</ele><time>2026-03-24T11:30:49Z</time></trkpt>
<trkpt lat="43.0104170000" lon="0.3372700000"><ele>1012</ele><time>2026-03-24T11:30:52Z</time></trkpt>
<trkpt lat="43.0103920000" lon="0.3372870000"><ele>1003</ele><time>2026-03-24T11:32:20Z</time></trkpt>
<trkpt lat="43.0103670000" lon="0.3372920000"><ele>1003</ele><time>2026-03-24T11:32:21Z</time></trkpt>
<trkpt lat="43.0103450000" lon="0.3372950000"><ele>1003</ele><time>2026-03-24T11:32:22Z</time></trkpt>
<trkpt lat="43.0103300000" lon="0.3373120000"><ele>1003</ele><time>2026-03-24T11:32:24Z</time></trkpt>
<trkpt lat="43.0103470000" lon="0.3373170000"><ele>1003</ele><time>2026-03-24T11:32:28Z</time></trkpt>
<trkpt lat="43.0103370000" lon="0.3372950000"><ele>1002</ele><time>2026-03-24T11:32:40Z</time></trkpt>
<trkpt lat="43.0103170000" lon="0.3372920000"><ele>1001</ele><time>2026-03-24T11:32:44Z</time></trkpt>
<trkpt lat="43.0102970000" lon="0.3373220000"><ele>1001</ele><time>2026-03-24T11:32:46Z</time></trkpt>
<trkpt lat="43.0102750000" lon="0.3373270000"><ele>997</ele><time>2026-03-24T11:33:53Z</time></trkpt>
<trkpt lat="43.0102470000" lon="0.3372970000"><ele>997</ele><time>2026-03-24T11:33:55Z</time></trkpt>
<trkpt lat="43.0102270000" lon="0.3372700000"><ele>996</ele><time>2026-03-24T11:33:57Z</time></trkpt>
<trkpt lat="43.0102170000" lon="0.3372470000"><ele>996</ele><time>2026-03-24T11:34:00Z</time></trkpt>
<trkpt lat="43.0101980000" lon="0.3372570000"><ele>995</ele><time>2026-03-24T11:34:05Z</time></trkpt>
<trkpt lat="43.0101920000" lon="0.3372850000"><ele>994</ele><time>2026-03-24T11:34:07Z</time></trkpt>
<trkpt lat="43.0101770000" lon="0.3373020000"><ele>994</ele><time>2026-03-24T11:34:13Z</time></trkpt>
<trkpt lat="43.0101520000" lon="0.3373250000"><ele>994</ele><time>2026-03-24T11:34:15Z</time></trkpt>
<trkpt lat="43.0101320000" lon="0.3373370000"><ele>994</ele><time>2026-03-24T11:34:16Z</time></trkpt>
<trkpt lat="43.0101100000" lon="0.3373480000"><ele>994</ele><time>2026-03-24T11:34:17Z</time></trkpt>
<trkpt lat="43.0100870000" lon="0.3373620000"><ele>993</ele><time>2026-03-24T11:34:18Z</time></trkpt>
<trkpt lat="43.0100670000" lon="0.3373720000"><ele>993</ele><time>2026-03-24T11:34:19Z</time></trkpt>
<trkpt lat="43.0100420000" lon="0.3373870000"><ele>993</ele><time>2026-03-24T11:34:21Z</time></trkpt>
<trkpt lat="43.0100170000" lon="0.3373770000"><ele>992</ele><time>2026-03-24T11:34:24Z</time></trkpt>
<trkpt lat="43.0100020000" lon="0.3373550000"><ele>992</ele><time>2026-03-24T11:34:26Z</time></trkpt>
<trkpt lat="43.0100170000" lon="0.3373320000"><ele>991</ele><time>2026-03-24T11:34:29Z</time></trkpt>
<trkpt lat="43.0099950000" lon="0.3373250000"><ele>990</ele><time>2026-03-24T11:34:44Z</time></trkpt>
<trkpt lat="43.0099730000" lon="0.3373150000"><ele>990</ele><time>2026-03-24T11:34:46Z</time></trkpt>
<trkpt lat="43.0099520000" lon="0.3373070000"><ele>989</ele><time>2026-03-24T11:34:48Z</time></trkpt>
<trkpt lat="43.0099300000" lon="0.3373020000"><ele>989</ele><time>2026-03-24T11:34:50Z</time></trkpt>
<trkpt lat="43.0099120000" lon="0.3372920000"><ele>989</ele><time>2026-03-24T11:34:52Z</time></trkpt>
<trkpt lat="43.0098900000" lon="0.3372850000"><ele>989</ele><time>2026-03-24T11:34:54Z</time></trkpt>
<trkpt lat="43.0098720000" lon="0.3372670000"><ele>988</ele><time>2026-03-24T11:34:56Z</time></trkpt>
<trkpt lat="43.0098570000" lon="0.3372470000"><ele>988</ele><time>2026-03-24T11:34:58Z</time></trkpt>
<trkpt lat="43.0098420000" lon="0.3372320000"><ele>988</ele><time>2026-03-24T11:35:00Z</time></trkpt>
<trkpt lat="43.0098220000" lon="0.3372220000"><ele>988</ele><time>2026-03-24T11:35:02Z</time></trkpt>
<trkpt lat="43.0098050000" lon="0.3372120000"><ele>988</ele><time>2026-03-24T11:35:04Z</time></trkpt>
<trkpt lat="43.0097820000" lon="0.3372120000"><ele>988</ele><time>2026-03-24T11:35:07Z</time></trkpt>
<trkpt lat="43.0097650000" lon="0.3372320000"><ele>988</ele><time>2026-03-24T11:35:10Z</time></trkpt>
<trkpt lat="43.0097520000" lon="0.3372520000"><ele>988</ele><time>2026-03-24T11:35:12Z</time></trkpt>
<trkpt lat="43.0097400000" lon="0.3372770000"><ele>988</ele><time>2026-03-24T11:35:15Z</time></trkpt>
<trkpt lat="43.0097320000" lon="0.3373070000"><ele>989</ele><time>2026-03-24T11:35:18Z</time></trkpt>
<trkpt lat="43.0097150000" lon="0.3372880000"><ele>989</ele><time>2026-03-24T11:36:53Z</time></trkpt>
<trkpt lat="43.0097020000" lon="0.3373120000"><ele>989</ele><time>2026-03-24T11:38:52Z</time></trkpt>
<trkpt lat="43.0096920000" lon="0.3373320000"><ele>989</ele><time>2026-03-24T11:38:54Z</time></trkpt>
<trkpt lat="43.0096820000" lon="0.3373620000"><ele>990</ele><time>2026-03-24T11:38:57Z</time></trkpt>
<trkpt lat="43.0096770000" lon="0.3373870000"><ele>990</ele><time>2026-03-24T11:39:00Z</time></trkpt>
<trkpt lat="43.0096670000" lon="0.3374150000"><ele>990</ele><time>2026-03-24T11:39:03Z</time></trkpt>
<trkpt lat="43.0096570000" lon="0.3374370000"><ele>991</ele><time>2026-03-24T11:39:06Z</time></trkpt>
<trkpt lat="43.0096450000" lon="0.3374650000"><ele>991</ele><time>2026-03-24T11:39:09Z</time></trkpt>
<trkpt lat="43.0096320000" lon="0.3374900000"><ele>991</ele><time>2026-03-24T11:39:12Z</time></trkpt>
<trkpt lat="43.0096220000" lon="0.3375120000"><ele>992</ele><time>2026-03-24T11:39:15Z</time></trkpt>
<trkpt lat="43.0096120000" lon="0.3375330000"><ele>992</ele><time>2026-03-24T11:39:18Z</time></trkpt>
<trkpt lat="43.0096020000" lon="0.3375650000"><ele>992</ele><time>2026-03-24T11:39:21Z</time></trkpt>
<trkpt lat="43.0095920000" lon="0.3375850000"><ele>992</ele><time>2026-03-24T11:39:23Z</time></trkpt>
<trkpt lat="43.0095800000" lon="0.3376120000"><ele>993</ele><time>2026-03-24T11:39:27Z</time></trkpt>
<trkpt lat="43.0095720000" lon="0.3376400000"><ele>993</ele><time>2026-03-24T11:39:30Z</time></trkpt>
<trkpt lat="43.0095670000" lon="0.3376620000"><ele>993</ele><time>2026-03-24T11:39:33Z</time></trkpt>
<trkpt lat="43.0095550000" lon="0.3376900000"><ele>994</ele><time>2026-03-24T11:39:37Z</time></trkpt>
<trkpt lat="43.0095400000" lon="0.3377100000"><ele>994</ele><time>2026-03-24T11:39:41Z</time></trkpt>
<trkpt lat="43.0095300000" lon="0.3377320000"><ele>994</ele><time>2026-03-24T11:39:44Z</time></trkpt>
<trkpt lat="43.0095170000" lon="0.3377570000"><ele>995</ele><time>2026-03-24T11:39:47Z</time></trkpt>
<trkpt lat="43.0095020000" lon="0.3377770000"><ele>995</ele><time>2026-03-24T11:39:50Z</time></trkpt>
<trkpt lat="43.0094920000" lon="0.3378050000"><ele>995</ele><time>2026-03-24T11:39:53Z</time></trkpt>
<trkpt lat="43.0094820000" lon="0.3378320000"><ele>996</ele><time>2026-03-24T11:39:57Z</time></trkpt>
<trkpt lat="43.0094720000" lon="0.3378520000"><ele>996</ele><time>2026-03-24T11:40:00Z</time></trkpt>
<trkpt lat="43.0094570000" lon="0.3378720000"><ele>996</ele><time>2026-03-24T11:40:03Z</time></trkpt>
<trkpt lat="43.0094470000" lon="0.3379020000"><ele>997</ele><time>2026-03-24T11:40:06Z</time></trkpt>
<trkpt lat="43.0094350000" lon="0.3379250000"><ele>997</ele><time>2026-03-24T11:40:09Z</time></trkpt>
<trkpt lat="43.0094250000" lon="0.3379520000"><ele>997</ele><time>2026-03-24T11:40:13Z</time></trkpt>
<trkpt lat="43.0094170000" lon="0.3379750000"><ele>997</ele><time>2026-03-24T11:40:15Z</time></trkpt>
<trkpt lat="43.0094070000" lon="0.3380070000"><ele>998</ele><time>2026-03-24T11:40:18Z</time></trkpt>
<trkpt lat="43.0093970000" lon="0.3380300000"><ele>998</ele><time>2026-03-24T11:40:21Z</time></trkpt>
<trkpt lat="43.0093850000" lon="0.3380550000"><ele>998</ele><time>2026-03-24T11:40:25Z</time></trkpt>
<trkpt lat="43.0093670000" lon="0.3380770000"><ele>998</ele><time>2026-03-24T11:40:29Z</time></trkpt>
<trkpt lat="43.0093550000" lon="0.3381020000"><ele>999</ele><time>2026-03-24T11:40:32Z</time></trkpt>
<trkpt lat="43.0093450000" lon="0.3381270000"><ele>999</ele><time>2026-03-24T11:40:34Z</time></trkpt>
<trkpt lat="43.0093370000" lon="0.3381570000"><ele>999</ele><time>2026-03-24T11:40:37Z</time></trkpt>
<trkpt lat="43.0093270000" lon="0.3381870000"><ele>999</ele><time>2026-03-24T11:40:41Z</time></trkpt>
<trkpt lat="43.0093150000" lon="0.3382100000"><ele>1000</ele><time>2026-03-24T11:40:44Z</time></trkpt>
<trkpt lat="43.0092970000" lon="0.3382250000"><ele>1000</ele><time>2026-03-24T11:40:47Z</time></trkpt>
<trkpt lat="43.0092870000" lon="0.3382450000"><ele>1000</ele><time>2026-03-24T11:40:50Z</time></trkpt>
<trkpt lat="43.0092770000" lon="0.3382670000"><ele>1000</ele><time>2026-03-24T11:40:53Z</time></trkpt>
<trkpt lat="43.0092620000" lon="0.3382920000"><ele>1001</ele><time>2026-03-24T11:40:57Z</time></trkpt>
<trkpt lat="43.0092520000" lon="0.3383130000"><ele>1001</ele><time>2026-03-24T11:41:00Z</time></trkpt>
<trkpt lat="43.0092370000" lon="0.3383400000"><ele>1002</ele><time>2026-03-24T11:41:04Z</time></trkpt>
<trkpt lat="43.0092250000" lon="0.3383650000"><ele>1002</ele><time>2026-03-24T11:41:08Z</time></trkpt>
<trkpt lat="43.0092120000" lon="0.3383920000"><ele>1002</ele><time>2026-03-24T11:41:12Z</time></trkpt>
<trkpt lat="43.0092020000" lon="0.3384120000"><ele>1003</ele><time>2026-03-24T11:41:15Z</time></trkpt>
<trkpt lat="43.0091870000" lon="0.3384350000"><ele>1003</ele><time>2026-03-24T11:41:18Z</time></trkpt>
<trkpt lat="43.0091770000" lon="0.3384570000"><ele>1003</ele><time>2026-03-24T11:41:21Z</time></trkpt>
<trkpt lat="43.0091620000" lon="0.3384820000"><ele>1004</ele><time>2026-03-24T11:41:25Z</time></trkpt>
<trkpt lat="43.0091500000" lon="0.3385070000"><ele>1004</ele><time>2026-03-24T11:41:29Z</time></trkpt>
<trkpt lat="43.0091420000" lon="0.3385300000"><ele>1004</ele><time>2026-03-24T11:41:32Z</time></trkpt>
<trkpt lat="43.0091320000" lon="0.3385520000"><ele>1004</ele><time>2026-03-24T11:41:35Z</time></trkpt>
<trkpt lat="43.0091150000" lon="0.3385720000"><ele>1005</ele><time>2026-03-24T11:41:39Z</time></trkpt>
<trkpt lat="43.0090970000" lon="0.3385970000"><ele>1005</ele><time>2026-03-24T11:41:42Z</time></trkpt>
<trkpt lat="43.0090870000" lon="0.3386220000"><ele>1006</ele><time>2026-03-24T11:41:45Z</time></trkpt>
<trkpt lat="43.0090770000" lon="0.3386430000"><ele>1006</ele><time>2026-03-24T11:41:47Z</time></trkpt>
<trkpt lat="43.0090670000" lon="0.3386720000"><ele>1006</ele><time>2026-03-24T11:41:50Z</time></trkpt>
<trkpt lat="43.0090550000" lon="0.3386950000"><ele>1007</ele><time>2026-03-24T11:41:54Z</time></trkpt>
<trkpt lat="43.0090420000" lon="0.3387220000"><ele>1007</ele><time>2026-03-24T11:41:57Z</time></trkpt>
<trkpt lat="43.0090320000" lon="0.3387520000"><ele>1008</ele><time>2026-03-24T11:42:00Z</time></trkpt>
<trkpt lat="43.0090170000" lon="0.3387750000"><ele>1008</ele><time>2026-03-24T11:42:03Z</time></trkpt>
<trkpt lat="43.0090020000" lon="0.3387970000"><ele>1008</ele><time>2026-03-24T11:42:06Z</time></trkpt>
<trkpt lat="43.0089850000" lon="0.3388200000"><ele>1008</ele><time>2026-03-24T11:42:09Z</time></trkpt>
<trkpt lat="43.0089670000" lon="0.3388370000"><ele>1008</ele><time>2026-03-24T11:42:12Z</time></trkpt>
<trkpt lat="43.0089570000" lon="0.3388620000"><ele>1009</ele><time>2026-03-24T11:42:15Z</time></trkpt>
<trkpt lat="43.0089470000" lon="0.3388900000"><ele>1009</ele><time>2026-03-24T11:42:19Z</time></trkpt>
<trkpt lat="43.0089370000" lon="0.3389150000"><ele>1009</ele><time>2026-03-24T11:42:22Z</time></trkpt>
<trkpt lat="43.0089220000" lon="0.3389370000"><ele>1009</ele><time>2026-03-24T11:42:25Z</time></trkpt>
<trkpt lat="43.0089100000" lon="0.3389670000"><ele>1010</ele><time>2026-03-24T11:42:28Z</time></trkpt>
<trkpt lat="43.0088900000" lon="0.3389750000"><ele>1010</ele><time>2026-03-24T11:42:34Z</time></trkpt>
<trkpt lat="43.0088650000" lon="0.3389900000"><ele>1011</ele><time>2026-03-24T11:43:09Z</time></trkpt>
<trkpt lat="43.0088450000" lon="0.3390070000"><ele>1011</ele><time>2026-03-24T11:43:11Z</time></trkpt>
<trkpt lat="43.0088250000" lon="0.3390270000"><ele>1012</ele><time>2026-03-24T11:43:39Z</time></trkpt>
<trkpt lat="43.0088120000" lon="0.3390520000"><ele>1012</ele><time>2026-03-24T11:43:41Z</time></trkpt>
<trkpt lat="43.0088000000" lon="0.3390770000"><ele>1012</ele><time>2026-03-24T11:43:43Z</time></trkpt>
<trkpt lat="43.0087900000" lon="0.3391100000"><ele>1012</ele><time>2026-03-24T11:43:46Z</time></trkpt>
<trkpt lat="43.0087770000" lon="0.3391270000"><ele>1012</ele><time>2026-03-24T11:43:48Z</time></trkpt>
<trkpt lat="43.0087630000" lon="0.3391570000"><ele>1012</ele><time>2026-03-24T11:43:51Z</time></trkpt>
<trkpt lat="43.0087520000" lon="0.3391820000"><ele>1013</ele><time>2026-03-24T11:43:54Z</time></trkpt>
<trkpt lat="43.0087370000" lon="0.3392100000"><ele>1013</ele><time>2026-03-24T11:43:57Z</time></trkpt>
<trkpt lat="43.0087200000" lon="0.3392350000"><ele>1014</ele><time>2026-03-24T11:44:00Z</time></trkpt>
<trkpt lat="43.0087070000" lon="0.3392620000"><ele>1014</ele><time>2026-03-24T11:44:03Z</time></trkpt>
<trkpt lat="43.0086950000" lon="0.3392820000"><ele>1014</ele><time>2026-03-24T11:44:05Z</time></trkpt>
<trkpt lat="43.0086750000" lon="0.3392980000"><ele>1015</ele><time>2026-03-24T11:44:09Z</time></trkpt>
<trkpt lat="43.0086650000" lon="0.3393270000"><ele>1015</ele><time>2026-03-24T11:44:12Z</time></trkpt>
<trkpt lat="43.0086520000" lon="0.3393480000"><ele>1015</ele><time>2026-03-24T11:44:15Z</time></trkpt>
<trkpt lat="43.0086270000" lon="0.3393600000"><ele>1016</ele><time>2026-03-24T11:44:18Z</time></trkpt>
<trkpt lat="43.0086170000" lon="0.3393800000"><ele>1016</ele><time>2026-03-24T11:44:21Z</time></trkpt>
<trkpt lat="43.0086080000" lon="0.3394120000"><ele>1016</ele><time>2026-03-24T11:44:24Z</time></trkpt>
<trkpt lat="43.0085970000" lon="0.3394400000"><ele>1016</ele><time>2026-03-24T11:44:26Z</time></trkpt>
<trkpt lat="43.0085850000" lon="0.3394720000"><ele>1017</ele><time>2026-03-24T11:44:28Z</time></trkpt>
<trkpt lat="43.0085720000" lon="0.3394970000"><ele>1017</ele><time>2026-03-24T11:44:31Z</time></trkpt>
<trkpt lat="43.0085620000" lon="0.3395180000"><ele>1017</ele><time>2026-03-24T11:44:33Z</time></trkpt>
<trkpt lat="43.0085470000" lon="0.3395420000"><ele>1018</ele><time>2026-03-24T11:44:37Z</time></trkpt>
<trkpt lat="43.0085320000" lon="0.3395750000"><ele>1018</ele><time>2026-03-24T11:44:41Z</time></trkpt>
<trkpt lat="43.0085170000" lon="0.3395920000"><ele>1018</ele><time>2026-03-24T11:44:43Z</time></trkpt>
<trkpt lat="43.0085020000" lon="0.3396070000"><ele>1019</ele><time>2026-03-24T11:44:46Z</time></trkpt>
<trkpt lat="43.0084870000" lon="0.3396300000"><ele>1019</ele><time>2026-03-24T11:44:49Z</time></trkpt>
<trkpt lat="43.0084720000" lon="0.3396520000"><ele>1019</ele><time>2026-03-24T11:44:52Z</time></trkpt>
<trkpt lat="43.0084620000" lon="0.3396820000"><ele>1020</ele><time>2026-03-24T11:44:55Z</time></trkpt>
<trkpt lat="43.0084450000" lon="0.3397020000"><ele>1020</ele><time>2026-03-24T11:44:58Z</time></trkpt>
<trkpt lat="43.0084300000" lon="0.3397200000"><ele>1020</ele><time>2026-03-24T11:45:00Z</time></trkpt>
<trkpt lat="43.0084120000" lon="0.3397370000"><ele>1021</ele><time>2026-03-24T11:45:02Z</time></trkpt>
<trkpt lat="43.0083950000" lon="0.3397570000"><ele>1021</ele><time>2026-03-24T11:45:05Z</time></trkpt>
<trkpt lat="43.0083870000" lon="0.3397820000"><ele>1021</ele><time>2026-03-24T11:45:08Z</time></trkpt>
<trkpt lat="43.0083720000" lon="0.3398020000"><ele>1021</ele><time>2026-03-24T11:45:11Z</time></trkpt>
<trkpt lat="43.0083520000" lon="0.3398220000"><ele>1022</ele><time>2026-03-24T11:45:14Z</time></trkpt>
<trkpt lat="43.0083420000" lon="0.3398450000"><ele>1022</ele><time>2026-03-24T11:45:17Z</time></trkpt>
<trkpt lat="43.0083250000" lon="0.3398620000"><ele>1023</ele><time>2026-03-24T11:45:21Z</time></trkpt>
<trkpt lat="43.0083100000" lon="0.3398850000"><ele>1023</ele><time>2026-03-24T11:45:24Z</time></trkpt>
<trkpt lat="43.0082900000" lon="0.3398980000"><ele>1024</ele><time>2026-03-24T11:45:28Z</time></trkpt>
<trkpt lat="43.0082670000" lon="0.3399070000"><ele>1024</ele><time>2026-03-24T11:45:31Z</time></trkpt>
<trkpt lat="43.0082500000" lon="0.3399170000"><ele>1024</ele><time>2026-03-24T11:45:33Z</time></trkpt>
<trkpt lat="43.0082420000" lon="0.3399420000"><ele>1024</ele><time>2026-03-24T11:45:36Z</time></trkpt>
<trkpt lat="43.0082320000" lon="0.3399700000"><ele>1025</ele><time>2026-03-24T11:45:40Z</time></trkpt>
<trkpt lat="43.0082200000" lon="0.3399920000"><ele>1025</ele><time>2026-03-24T11:45:43Z</time></trkpt>
<trkpt lat="43.0082120000" lon="0.3400170000"><ele>1026</ele><time>2026-03-24T11:45:45Z</time></trkpt>
<trkpt lat="43.0082070000" lon="0.3400450000"><ele>1026</ele><time>2026-03-24T11:45:49Z</time></trkpt>
<trkpt lat="43.0081970000" lon="0.3400670000"><ele>1026</ele><time>2026-03-24T11:45:53Z</time></trkpt>
<trkpt lat="43.0081820000" lon="0.3400850000"><ele>1027</ele><time>2026-03-24T11:45:57Z</time></trkpt>
<trkpt lat="43.0081670000" lon="0.3401120000"><ele>1027</ele><time>2026-03-24T11:46:02Z</time></trkpt>
<trkpt lat="43.0081580000" lon="0.3401370000"><ele>1028</ele><time>2026-03-24T11:46:07Z</time></trkpt>
<trkpt lat="43.0081420000" lon="0.3401500000"><ele>1028</ele><time>2026-03-24T11:46:09Z</time></trkpt>
<trkpt lat="43.0081250000" lon="0.3401620000"><ele>1028</ele><time>2026-03-24T11:46:12Z</time></trkpt>
<trkpt lat="43.0081120000" lon="0.3401820000"><ele>1029</ele><time>2026-03-24T11:46:15Z</time></trkpt>
<trkpt lat="43.0080970000" lon="0.3401950000"><ele>1030</ele><time>2026-03-24T11:46:55Z</time></trkpt>
<trkpt lat="43.0080770000" lon="0.3402000000"><ele>1030</ele><time>2026-03-24T11:46:57Z</time></trkpt>
<trkpt lat="43.0080520000" lon="0.3402120000"><ele>1030</ele><time>2026-03-24T11:46:59Z</time></trkpt>
<trkpt lat="43.0080370000" lon="0.3402370000"><ele>1030</ele><time>2026-03-24T11:47:01Z</time></trkpt>
<trkpt lat="43.0080220000" lon="0.3402670000"><ele>1030</ele><time>2026-03-24T11:47:04Z</time></trkpt>
<trkpt lat="43.0080170000" lon="0.3403020000"><ele>1031</ele><time>2026-03-24T11:47:07Z</time></trkpt>
<trkpt lat="43.0080120000" lon="0.3403320000"><ele>1031</ele><time>2026-03-24T11:47:09Z</time></trkpt>
<trkpt lat="43.0079920000" lon="0.3403620000"><ele>1031</ele><time>2026-03-24T11:47:11Z</time></trkpt>
<trkpt lat="43.0079850000" lon="0.3403900000"><ele>1031</ele><time>2026-03-24T11:47:14Z</time></trkpt>
<trkpt lat="43.0079700000" lon="0.3404120000"><ele>1032</ele><time>2026-03-24T11:47:17Z</time></trkpt>
<trkpt lat="43.0079550000" lon="0.3404270000"><ele>1032</ele><time>2026-03-24T11:47:20Z</time></trkpt>
<trkpt lat="43.0079370000" lon="0.3404470000"><ele>1032</ele><time>2026-03-24T11:47:23Z</time></trkpt>
<trkpt lat="43.0079220000" lon="0.3404670000"><ele>1033</ele><time>2026-03-24T11:47:26Z</time></trkpt>
<trkpt lat="43.0079020000" lon="0.3404900000"><ele>1033</ele><time>2026-03-24T11:47:29Z</time></trkpt>
<trkpt lat="43.0078820000" lon="0.3405170000"><ele>1034</ele><time>2026-03-24T11:47:32Z</time></trkpt>
<trkpt lat="43.0078620000" lon="0.3405330000"><ele>1034</ele><time>2026-03-24T11:47:35Z</time></trkpt>
<trkpt lat="43.0078470000" lon="0.3405470000"><ele>1035</ele><time>2026-03-24T11:47:37Z</time></trkpt>
<trkpt lat="43.0078320000" lon="0.3405750000"><ele>1035</ele><time>2026-03-24T11:47:40Z</time></trkpt>
<trkpt lat="43.0078320000" lon="0.3406000000"><ele>1035</ele><time>2026-03-24T11:47:43Z</time></trkpt>
<trkpt lat="43.0078170000" lon="0.3406220000"><ele>1035</ele><time>2026-03-24T11:47:46Z</time></trkpt>
<trkpt lat="43.0078120000" lon="0.3406470000"><ele>1036</ele><time>2026-03-24T11:47:49Z</time></trkpt>
<trkpt lat="43.0077970000" lon="0.3406620000"><ele>1036</ele><time>2026-03-24T11:47:51Z</time></trkpt>
<trkpt lat="43.0077850000" lon="0.3406820000"><ele>1036</ele><time>2026-03-24T11:47:53Z</time></trkpt>
<trkpt lat="43.0077750000" lon="0.3407070000"><ele>1037</ele><time>2026-03-24T11:47:55Z</time></trkpt>
<trkpt lat="43.0077620000" lon="0.3407320000"><ele>1037</ele><time>2026-03-24T11:47:58Z</time></trkpt>
<trkpt lat="43.0077470000" lon="0.3407570000"><ele>1037</ele><time>2026-03-24T11:48:01Z</time></trkpt>
<trkpt lat="43.0077320000" lon="0.3407800000"><ele>1037</ele><time>2026-03-24T11:48:04Z</time></trkpt>
<trkpt lat="43.0077120000" lon="0.3407920000"><ele>1038</ele><time>2026-03-24T11:48:07Z</time></trkpt>
<trkpt lat="43.0076920000" lon="0.3408020000"><ele>1038</ele><time>2026-03-24T11:48:10Z</time></trkpt>
<trkpt lat="43.0076770000" lon="0.3408170000"><ele>1038</ele><time>2026-03-24T11:48:13Z</time></trkpt>
<trkpt lat="43.0076670000" lon="0.3408620000"><ele>1040</ele><time>2026-03-24T11:48:53Z</time></trkpt>
<trkpt lat="43.0076520000" lon="0.3408900000"><ele>1040</ele><time>2026-03-24T11:48:54Z</time></trkpt>
<trkpt lat="43.0076350000" lon="0.3409180000"><ele>1041</ele><time>2026-03-24T11:48:55Z</time></trkpt>
<trkpt lat="43.0076170000" lon="0.3409470000"><ele>1041</ele><time>2026-03-24T11:48:56Z</time></trkpt>
<trkpt lat="43.0076070000" lon="0.3409670000"><ele>1041</ele><time>2026-03-24T11:48:57Z</time></trkpt>
<trkpt lat="43.0075870000" lon="0.3409820000"><ele>1041</ele><time>2026-03-24T11:48:59Z</time></trkpt>
<trkpt lat="43.0075670000" lon="0.3409970000"><ele>1041</ele><time>2026-03-24T11:49:02Z</time></trkpt>
<trkpt lat="43.0075470000" lon="0.3410150000"><ele>1042</ele><time>2026-03-24T11:49:05Z</time></trkpt>
<trkpt lat="43.0075270000" lon="0.3410220000"><ele>1042</ele><time>2026-03-24T11:49:09Z</time></trkpt>
<trkpt lat="43.0075050000" lon="0.3410320000"><ele>1043</ele><time>2026-03-24T11:49:12Z</time></trkpt>
<trkpt lat="43.0074900000" lon="0.3410470000"><ele>1043</ele><time>2026-03-24T11:49:14Z</time></trkpt>
<trkpt lat="43.0074750000" lon="0.3410670000"><ele>1043</ele><time>2026-03-24T11:49:17Z</time></trkpt>
<trkpt lat="43.0074620000" lon="0.3410920000"><ele>1043</ele><time>2026-03-24T11:49:20Z</time></trkpt>
<trkpt lat="43.0074520000" lon="0.3411270000"><ele>1043</ele><time>2026-03-24T11:49:22Z</time></trkpt>
<trkpt lat="43.0074320000" lon="0.3411270000"><ele>1044</ele><time>2026-03-24T11:49:25Z</time></trkpt>
<trkpt lat="43.0074200000" lon="0.3411100000"><ele>1044</ele><time>2026-03-24T11:49:29Z</time></trkpt>
<trkpt lat="43.0073980000" lon="0.3411150000"><ele>1044</ele><time>2026-03-24T11:49:32Z</time></trkpt>
<trkpt lat="43.0073870000" lon="0.3411420000"><ele>1045</ele><time>2026-03-24T11:49:35Z</time></trkpt>
<trkpt lat="43.0073870000" lon="0.3411720000"><ele>1045</ele><time>2026-03-24T11:49:37Z</time></trkpt>
<trkpt lat="43.0073770000" lon="0.3412120000"><ele>1045</ele><time>2026-03-24T11:49:40Z</time></trkpt>
<trkpt lat="43.0073720000" lon="0.3412370000"><ele>1045</ele><time>2026-03-24T11:49:42Z</time></trkpt>
<trkpt lat="43.0073600000" lon="0.3412650000"><ele>1046</ele><time>2026-03-24T11:49:45Z</time></trkpt>
<trkpt lat="43.0073320000" lon="0.3412820000"><ele>1046</ele><time>2026-03-24T11:49:48Z</time></trkpt>
<trkpt lat="43.0073100000" lon="0.3412850000"><ele>1046</ele><time>2026-03-24T11:49:50Z</time></trkpt>
<trkpt lat="43.0072920000" lon="0.3412950000"><ele>1046</ele><time>2026-03-24T11:49:52Z</time></trkpt>
<trkpt lat="43.0072870000" lon="0.3413220000"><ele>1047</ele><time>2026-03-24T11:49:55Z</time></trkpt>
<trkpt lat="43.0072770000" lon="0.3413470000"><ele>1047</ele><time>2026-03-24T11:49:58Z</time></trkpt>
<trkpt lat="43.0072700000" lon="0.3413730000"><ele>1048</ele><time>2026-03-24T11:50:01Z</time></trkpt>
<trkpt lat="43.0072550000" lon="0.3413900000"><ele>1048</ele><time>2026-03-24T11:50:03Z</time></trkpt>
<trkpt lat="43.0072320000" lon="0.3414070000"><ele>1048</ele><time>2026-03-24T11:50:06Z</time></trkpt>
<trkpt lat="43.0072120000" lon="0.3414300000"><ele>1048</ele><time>2026-03-24T11:50:09Z</time></trkpt>
<trkpt lat="43.0072000000" lon="0.3414520000"><ele>1049</ele><time>2026-03-24T11:50:11Z</time></trkpt>
<trkpt lat="43.0071870000" lon="0.3414770000"><ele>1049</ele><time>2026-03-24T11:50:14Z</time></trkpt>
<trkpt lat="43.0071700000" lon="0.3415020000"><ele>1049</ele><time>2026-03-24T11:50:17Z</time></trkpt>
<trkpt lat="43.0071520000" lon="0.3415170000"><ele>1050</ele><time>2026-03-24T11:50:20Z</time></trkpt>
<trkpt lat="43.0071370000" lon="0.3415520000"><ele>1050</ele><time>2026-03-24T11:50:23Z</time></trkpt>
<trkpt lat="43.0071220000" lon="0.3415720000"><ele>1050</ele><time>2026-03-24T11:50:26Z</time></trkpt>
<trkpt lat="43.0071070000" lon="0.3416000000"><ele>1051</ele><time>2026-03-24T11:50:29Z</time></trkpt>
<trkpt lat="43.0070920000" lon="0.3416220000"><ele>1051</ele><time>2026-03-24T11:50:33Z</time></trkpt>
<trkpt lat="43.0070720000" lon="0.3416320000"><ele>1052</ele><time>2026-03-24T11:50:38Z</time></trkpt>
<trkpt lat="43.0070520000" lon="0.3416400000"><ele>1052</ele><time>2026-03-24T11:50:41Z</time></trkpt>
<trkpt lat="43.0070370000" lon="0.3416530000"><ele>1052</ele><time>2026-03-24T11:50:44Z</time></trkpt>
<trkpt lat="43.0070270000" lon="0.3417000000"><ele>1052</ele><time>2026-03-24T11:50:46Z</time></trkpt>
<trkpt lat="43.0070250000" lon="0.3417270000"><ele>1052</ele><time>2026-03-24T11:50:47Z</time></trkpt>
<trkpt lat="43.0070150000" lon="0.3417480000"><ele>1053</ele><time>2026-03-24T11:50:50Z</time></trkpt>
<trkpt lat="43.0069920000" lon="0.3417620000"><ele>1053</ele><time>2026-03-24T11:50:54Z</time></trkpt>
<trkpt lat="43.0069770000" lon="0.3417820000"><ele>1053</ele><time>2026-03-24T11:50:58Z</time></trkpt>
<trkpt lat="43.0069600000" lon="0.3417720000"><ele>1054</ele><time>2026-03-24T11:51:05Z</time></trkpt>
<trkpt lat="43.0069320000" lon="0.3417870000"><ele>1054</ele><time>2026-03-24T11:51:07Z</time></trkpt>
<trkpt lat="43.0069100000" lon="0.3418170000"><ele>1054</ele><time>2026-03-24T11:51:14Z</time></trkpt>
<trkpt lat="43.0068820000" lon="0.3418500000"><ele>1054</ele><time>2026-03-24T11:51:16Z</time></trkpt>
<trkpt lat="43.0068600000" lon="0.3418820000"><ele>1055</ele><time>2026-03-24T11:51:18Z</time></trkpt>
<trkpt lat="43.0068400000" lon="0.3419100000"><ele>1055</ele><time>2026-03-24T11:51:20Z</time></trkpt>
<trkpt lat="43.0068250000" lon="0.3419230000"><ele>1055</ele><time>2026-03-24T11:51:22Z</time></trkpt>
<trkpt lat="43.0068050000" lon="0.3419420000"><ele>1056</ele><time>2026-03-24T11:51:25Z</time></trkpt>
<trkpt lat="43.0067920000" lon="0.3419620000"><ele>1056</ele><time>2026-03-24T11:51:27Z</time></trkpt>
<trkpt lat="43.0067770000" lon="0.3419830000"><ele>1056</ele><time>2026-03-24T11:51:29Z</time></trkpt>
<trkpt lat="43.0067670000" lon="0.3420150000"><ele>1056</ele><time>2026-03-24T11:51:32Z</time></trkpt>
<trkpt lat="43.0067550000" lon="0.3420370000"><ele>1056</ele><time>2026-03-24T11:51:34Z</time></trkpt>
<trkpt lat="43.0067370000" lon="0.3420520000"><ele>1057</ele><time>2026-03-24T11:51:36Z</time></trkpt>
<trkpt lat="43.0067220000" lon="0.3420720000"><ele>1057</ele><time>2026-03-24T11:51:39Z</time></trkpt>
<trkpt lat="43.0067070000" lon="0.3420920000"><ele>1057</ele><time>2026-03-24T11:51:41Z</time></trkpt>
<trkpt lat="43.0066970000" lon="0.3421120000"><ele>1057</ele><time>2026-03-24T11:51:43Z</time></trkpt>
<trkpt lat="43.0066820000" lon="0.3421430000"><ele>1057</ele><time>2026-03-24T11:51:46Z</time></trkpt>
<trkpt lat="43.0066770000" lon="0.3421680000"><ele>1058</ele><time>2026-03-24T11:51:49Z</time></trkpt>
<trkpt lat="43.0066570000" lon="0.3421870000"><ele>1058</ele><time>2026-03-24T11:51:53Z</time></trkpt>
<trkpt lat="43.0066350000" lon="0.3421820000"><ele>1058</ele><time>2026-03-24T11:51:55Z</time></trkpt>
<trkpt lat="43.0066070000" lon="0.3422020000"><ele>1059</ele><time>2026-03-24T11:51:58Z</time></trkpt>
<trkpt lat="43.0065900000" lon="0.3422300000"><ele>1059</ele><time>2026-03-24T11:52:01Z</time></trkpt>
<trkpt lat="43.0065670000" lon="0.3422420000"><ele>1059</ele><time>2026-03-24T11:52:04Z</time></trkpt>
<trkpt lat="43.0065470000" lon="0.3422620000"><ele>1060</ele><time>2026-03-24T11:52:07Z</time></trkpt>
<trkpt lat="43.0065350000" lon="0.3422820000"><ele>1060</ele><time>2026-03-24T11:52:09Z</time></trkpt>
<trkpt lat="43.0065250000" lon="0.3423070000"><ele>1060</ele><time>2026-03-24T11:52:11Z</time></trkpt>
<trkpt lat="43.0065120000" lon="0.3423350000"><ele>1060</ele><time>2026-03-24T11:52:13Z</time></trkpt>
<trkpt lat="43.0064950000" lon="0.3423570000"><ele>1060</ele><time>2026-03-24T11:52:15Z</time></trkpt>
<trkpt lat="43.0064770000" lon="0.3423800000"><ele>1061</ele><time>2026-03-24T11:52:17Z</time></trkpt>
<trkpt lat="43.0064600000" lon="0.3424020000"><ele>1061</ele><time>2026-03-24T11:52:19Z</time></trkpt>
<trkpt lat="43.0064470000" lon="0.3424230000"><ele>1061</ele><time>2026-03-24T11:52:21Z</time></trkpt>
<trkpt lat="43.0064320000" lon="0.3424420000"><ele>1061</ele><time>2026-03-24T11:52:23Z</time></trkpt>
<trkpt lat="43.0064170000" lon="0.3424520000"><ele>1061</ele><time>2026-03-24T11:52:26Z</time></trkpt>
<trkpt lat="43.0064020000" lon="0.3424670000"><ele>1062</ele><time>2026-03-24T11:52:29Z</time></trkpt>
<trkpt lat="43.0063850000" lon="0.3424770000"><ele>1062</ele><time>2026-03-24T11:52:32Z</time></trkpt>
<trkpt lat="43.0063650000" lon="0.3424820000"><ele>1062</ele><time>2026-03-24T11:52:35Z</time></trkpt>
<trkpt lat="43.0063450000" lon="0.3424970000"><ele>1063</ele><time>2026-03-24T11:52:39Z</time></trkpt>
<trkpt lat="43.0063200000" lon="0.3424830000"><ele>1062</ele><time>2026-03-24T11:52:43Z</time></trkpt>
<trkpt lat="43.0063070000" lon="0.3424650000"><ele>1062</ele><time>2026-03-24T11:52:44Z</time></trkpt>
<trkpt lat="43.0062920000" lon="0.3424900000"><ele>1063</ele><time>2026-03-24T11:53:23Z</time></trkpt>
<trkpt lat="43.0062720000" lon="0.3425220000"><ele>1063</ele><time>2026-03-24T11:53:25Z</time></trkpt>
<trkpt lat="43.0062470000" lon="0.3425520000"><ele>1063</ele><time>2026-03-24T11:53:27Z</time></trkpt>
<trkpt lat="43.0062270000" lon="0.3425680000"><ele>1063</ele><time>2026-03-24T11:53:29Z</time></trkpt>
<trkpt lat="43.0062070000" lon="0.3425870000"><ele>1063</ele><time>2026-03-24T11:53:31Z</time></trkpt>
<trkpt lat="43.0061920000" lon="0.3426100000"><ele>1063</ele><time>2026-03-24T11:53:33Z</time></trkpt>
<trkpt lat="43.0061700000" lon="0.3426270000"><ele>1063</ele><time>2026-03-24T11:53:36Z</time></trkpt>
<trkpt lat="43.0061470000" lon="0.3426450000"><ele>1063</ele><time>2026-03-24T11:53:38Z</time></trkpt>
<trkpt lat="43.0061350000" lon="0.3426670000"><ele>1063</ele><time>2026-03-24T11:53:40Z</time></trkpt>
<trkpt lat="43.0061250000" lon="0.3426950000"><ele>1063</ele><time>2026-03-24T11:53:43Z</time></trkpt>
<trkpt lat="43.0061070000" lon="0.3426770000"><ele>1064</ele><time>2026-03-24T11:53:57Z</time></trkpt>
<trkpt lat="43.0060850000" lon="0.3426670000"><ele>1063</ele><time>2026-03-24T11:53:59Z</time></trkpt>
<trkpt lat="43.0060650000" lon="0.3426680000"><ele>1063</ele><time>2026-03-24T11:54:01Z</time></trkpt>
<trkpt lat="43.0060470000" lon="0.3426720000"><ele>1064</ele><time>2026-03-24T11:54:04Z</time></trkpt>
<trkpt lat="43.0060600000" lon="0.3426520000"><ele>1064</ele><time>2026-03-24T11:54:07Z</time></trkpt>
<trkpt lat="43.0060800000" lon="0.3426280000"><ele>1064</ele><time>2026-03-24T11:54:10Z</time></trkpt>
<trkpt lat="43.0060920000" lon="0.3426050000"><ele>1064</ele><time>2026-03-24T11:54:17Z</time></trkpt>
<trkpt lat="43.0061070000" lon="0.3425780000"><ele>1065</ele><time>2026-03-24T11:54:19Z</time></trkpt>
<trkpt lat="43.0061220000" lon="0.3425550000"><ele>1065</ele><time>2026-03-24T11:54:21Z</time></trkpt>
<trkpt lat="43.0061350000" lon="0.3425370000"><ele>1065</ele><time>2026-03-24T11:54:24Z</time></trkpt>
<trkpt lat="43.0061420000" lon="0.3425120000"><ele>1065</ele><time>2026-03-24T11:54:28Z</time></trkpt>
<trkpt lat="43.0061470000" lon="0.3424870000"><ele>1066</ele><time>2026-03-24T11:54:32Z</time></trkpt>
<trkpt lat="43.0061470000" lon="0.3424620000"><ele>1066</ele><time>2026-03-24T11:54:35Z</time></trkpt>
<trkpt lat="43.0061470000" lon="0.3424330000"><ele>1066</ele><time>2026-03-24T11:54:39Z</time></trkpt>
<trkpt lat="43.0061570000" lon="0.3424100000"><ele>1067</ele><time>2026-03-24T11:54:43Z</time></trkpt>
<trkpt lat="43.0061670000" lon="0.3423820000"><ele>1068</ele><time>2026-03-24T11:54:49Z</time></trkpt>
<trkpt lat="43.0061800000" lon="0.3423600000"><ele>1068</ele><time>2026-03-24T11:54:52Z</time></trkpt>
<trkpt lat="43.0061920000" lon="0.3423420000"><ele>1069</ele><time>2026-03-24T11:54:57Z</time></trkpt>
<trkpt lat="43.0061970000" lon="0.3423080000"><ele>1075</ele><time>2026-03-24T11:56:00Z</time></trkpt>
<trkpt lat="43.0061870000" lon="0.3422670000"><ele>1075</ele><time>2026-03-24T11:56:01Z</time></trkpt>
<trkpt lat="43.0061770000" lon="0.3422170000"><ele>1075</ele><time>2026-03-24T11:56:02Z</time></trkpt>
<trkpt lat="43.0061700000" lon="0.3421670000"><ele>1075</ele><time>2026-03-24T11:56:03Z</time></trkpt>
<trkpt lat="43.0061620000" lon="0.3421250000"><ele>1076</ele><time>2026-03-24T11:56:04Z</time></trkpt>
<trkpt lat="43.0061520000" lon="0.3420950000"><ele>1076</ele><time>2026-03-24T11:56:05Z</time></trkpt>
<trkpt lat="43.0061420000" lon="0.3420670000"><ele>1076</ele><time>2026-03-24T11:56:07Z</time></trkpt>
<trkpt lat="43.0061320000" lon="0.3420450000"><ele>1077</ele><time>2026-03-24T11:56:12Z</time></trkpt>
<trkpt lat="43.0061420000" lon="0.3420220000"><ele>1077</ele><time>2026-03-24T11:56:15Z</time></trkpt>
<trkpt lat="43.0061520000" lon="0.3419870000"><ele>1077</ele><time>2026-03-24T11:56:18Z</time></trkpt>
<trkpt lat="43.0061570000" lon="0.3419600000"><ele>1078</ele><time>2026-03-24T11:56:21Z</time></trkpt>
<trkpt lat="43.0061420000" lon="0.3419420000"><ele>1078</ele><time>2026-03-24T11:56:25Z</time></trkpt>
<trkpt lat="43.0061420000" lon="0.3419170000"><ele>1079</ele><time>2026-03-24T11:56:28Z</time></trkpt>
<trkpt lat="43.0061470000" lon="0.3418870000"><ele>1079</ele><time>2026-03-24T11:56:32Z</time></trkpt>
<trkpt lat="43.0061370000" lon="0.3418570000"><ele>1080</ele><time>2026-03-24T11:56:35Z</time></trkpt>
<trkpt lat="43.0061300000" lon="0.3418250000"><ele>1082</ele><time>2026-03-24T11:57:14Z</time></trkpt>
<trkpt lat="43.0061320000" lon="0.3417870000"><ele>1082</ele><time>2026-03-24T11:57:16Z</time></trkpt>
<trkpt lat="43.0061300000" lon="0.3417620000"><ele>1082</ele><time>2026-03-24T11:57:17Z</time></trkpt>
<trkpt lat="43.0061270000" lon="0.3417370000"><ele>1082</ele><time>2026-03-24T11:57:18Z</time></trkpt>
<trkpt lat="43.0061200000" lon="0.3417150000"><ele>1083</ele><time>2026-03-24T11:57:19Z</time></trkpt>
<trkpt lat="43.0061120000" lon="0.3416870000"><ele>1083</ele><time>2026-03-24T11:57:21Z</time></trkpt>
<trkpt lat="43.0061150000" lon="0.3416570000"><ele>1083</ele><time>2026-03-24T11:57:25Z</time></trkpt>
<trkpt lat="43.0061320000" lon="0.3416470000"><ele>1084</ele><time>2026-03-24T11:57:29Z</time></trkpt>
<trkpt lat="43.0061420000" lon="0.3416170000"><ele>1085</ele><time>2026-03-24T11:57:34Z</time></trkpt>
<trkpt lat="43.0061320000" lon="0.3415770000"><ele>1087</ele><time>2026-03-24T11:57:54Z</time></trkpt>
<trkpt lat="43.0061200000" lon="0.3415550000"><ele>1087</ele><time>2026-03-24T11:57:55Z</time></trkpt>
<trkpt lat="43.0061070000" lon="0.3415250000"><ele>1087</ele><time>2026-03-24T11:57:56Z</time></trkpt>
<trkpt lat="43.0060970000" lon="0.3414970000"><ele>1087</ele><time>2026-03-24T11:57:57Z</time></trkpt>
<trkpt lat="43.0060900000" lon="0.3414730000"><ele>1087</ele><time>2026-03-24T11:57:58Z</time></trkpt>
<trkpt lat="43.0060800000" lon="0.3414470000"><ele>1088</ele><time>2026-03-24T11:58:00Z</time></trkpt>
<trkpt lat="43.0060870000" lon="0.3414170000"><ele>1088</ele><time>2026-03-24T11:58:04Z</time></trkpt>
<trkpt lat="43.0060970000" lon="0.3413820000"><ele>1089</ele><time>2026-03-24T11:58:08Z</time></trkpt>
<trkpt lat="43.0060970000" lon="0.3413570000"><ele>1090</ele><time>2026-03-24T11:58:13Z</time></trkpt>
<trkpt lat="43.0060870000" lon="0.3413870000"><ele>1090</ele><time>2026-03-24T11:58:17Z</time></trkpt>
<trkpt lat="43.0060820000" lon="0.3413570000"><ele>1090</ele><time>2026-03-24T11:58:53Z</time></trkpt>
<trkpt lat="43.0061020000" lon="0.3413420000"><ele>1090</ele><time>2026-03-24T11:58:56Z</time></trkpt>
<trkpt lat="43.0061270000" lon="0.3413470000"><ele>1090</ele><time>2026-03-24T11:58:59Z</time></trkpt>
<trkpt lat="43.0061470000" lon="0.3413450000"><ele>1090</ele><time>2026-03-24T11:59:02Z</time></trkpt>
<trkpt lat="43.0061670000" lon="0.3413370000"><ele>1090</ele><time>2026-03-24T11:59:05Z</time></trkpt>
<trkpt lat="43.0061420000" lon="0.3413320000"><ele>1090</ele><time>2026-03-24T11:59:11Z</time></trkpt>
<trkpt lat="43.0061400000" lon="0.3412850000"><ele>1094</ele><time>2026-03-24T11:59:33Z</time></trkpt>
<trkpt lat="43.0061350000" lon="0.3412500000"><ele>1094</ele><time>2026-03-24T11:59:34Z</time></trkpt>
<trkpt lat="43.0061270000" lon="0.3412170000"><ele>1094</ele><time>2026-03-24T11:59:35Z</time></trkpt>
<trkpt lat="43.0061270000" lon="0.3411870000"><ele>1094</ele><time>2026-03-24T11:59:36Z</time></trkpt>
<trkpt lat="43.0061320000" lon="0.3411520000"><ele>1095</ele><time>2026-03-24T11:59:38Z</time></trkpt>
<trkpt lat="43.0061470000" lon="0.3411250000"><ele>1095</ele><time>2026-03-24T11:59:41Z</time></trkpt>
<trkpt lat="43.0061420000" lon="0.3410920000"><ele>1096</ele><time>2026-03-24T11:59:46Z</time></trkpt>
<trkpt lat="43.0061320000" lon="0.3410650000"><ele>1097</ele><time>2026-03-24T11:59:51Z</time></trkpt>
<trkpt lat="43.0061220000" lon="0.3410400000"><ele>1097</ele><time>2026-03-24T11:59:54Z</time></trkpt>
<trkpt lat="43.0061220000" lon="0.3410150000"><ele>1098</ele><time>2026-03-24T11:59:57Z</time></trkpt>
<trkpt lat="43.0061270000" lon="0.3409870000"><ele>1098</ele><time>2026-03-24T12:00:02Z</time></trkpt>
<trkpt lat="43.0061220000" lon="0.3409620000"><ele>1099</ele><time>2026-03-24T12:00:06Z</time></trkpt>
<trkpt lat="43.0061020000" lon="0.3409420000"><ele>1100</ele><time>2026-03-24T12:00:09Z</time></trkpt>
<trkpt lat="43.0060920000" lon="0.3409180000"><ele>1100</ele><time>2026-03-24T12:00:14Z</time></trkpt>
<trkpt lat="43.0060820000" lon="0.3408900000"><ele>1101</ele><time>2026-03-24T12:00:17Z</time></trkpt>
<trkpt lat="43.0060800000" lon="0.3408600000"><ele>1101</ele><time>2026-03-24T12:00:20Z</time></trkpt>
<trkpt lat="43.0060750000" lon="0.3408350000"><ele>1101</ele><time>2026-03-24T12:00:23Z</time></trkpt>
<trkpt lat="43.0060920000" lon="0.3408170000"><ele>1102</ele><time>2026-03-24T12:00:29Z</time></trkpt>
<trkpt lat="43.0061070000" lon="0.3408020000"><ele>1102</ele><time>2026-03-24T12:00:31Z</time></trkpt>
<trkpt lat="43.0061150000" lon="0.3407770000"><ele>1102</ele><time>2026-03-24T12:00:34Z</time></trkpt>
<trkpt lat="43.0061070000" lon="0.3407500000"><ele>1103</ele><time>2026-03-24T12:00:38Z</time></trkpt>
<trkpt lat="43.0061020000" lon="0.3407220000"><ele>1103</ele><time>2026-03-24T12:00:42Z</time></trkpt>
<trkpt lat="43.0061070000" lon="0.3406950000"><ele>1104</ele><time>2026-03-24T12:00:46Z</time></trkpt>
<trkpt lat="43.0061150000" lon="0.3406650000"><ele>1105</ele><time>2026-03-24T12:01:04Z</time></trkpt>
<trkpt lat="43.0061120000" lon="0.3406370000"><ele>1105</ele><time>2026-03-24T12:01:07Z</time></trkpt>
<trkpt lat="43.0060970000" lon="0.3406170000"><ele>1105</ele><time>2026-03-24T12:01:10Z</time></trkpt>
<trkpt lat="43.0060970000" lon="0.3405850000"><ele>1106</ele><time>2026-03-24T12:01:17Z</time></trkpt>
<trkpt lat="43.0061150000" lon="0.3405670000"><ele>1106</ele><time>2026-03-24T12:01:20Z</time></trkpt>
<trkpt lat="43.0061320000" lon="0.3405550000"><ele>1107</ele><time>2026-03-24T12:01:22Z</time></trkpt>
<trkpt lat="43.0061550000" lon="0.3405220000"><ele>1113</ele><time>2026-03-24T12:02:23Z</time></trkpt>
<trkpt lat="43.0061720000" lon="0.3404920000"><ele>1113</ele><time>2026-03-24T12:02:24Z</time></trkpt>
<trkpt lat="43.0061950000" lon="0.3404570000"><ele>1113</ele><time>2026-03-24T12:02:25Z</time></trkpt>
<trkpt lat="43.0062170000" lon="0.3404170000"><ele>1113</ele><time>2026-03-24T12:02:26Z</time></trkpt>
<trkpt lat="43.0062370000" lon="0.3403850000"><ele>1113</ele><time>2026-03-24T12:02:27Z</time></trkpt>
<trkpt lat="43.0062500000" lon="0.3403580000"><ele>1114</ele><time>2026-03-24T12:02:28Z</time></trkpt>
<trkpt lat="43.0062620000" lon="0.3403370000"><ele>1114</ele><time>2026-03-24T12:02:30Z</time></trkpt>
<trkpt lat="43.0062870000" lon="0.3403130000"><ele>1118</ele><time>2026-03-24T12:02:59Z</time></trkpt>
<trkpt lat="43.0063020000" lon="0.3402900000"><ele>1118</ele><time>2026-03-24T12:03:00Z</time></trkpt>
<trkpt lat="43.0063270000" lon="0.3402570000"><ele>1118</ele><time>2026-03-24T12:03:01Z</time></trkpt>
<trkpt lat="43.0063470000" lon="0.3402270000"><ele>1119</ele><time>2026-03-24T12:03:02Z</time></trkpt>
<trkpt lat="43.0063700000" lon="0.3402030000"><ele>1119</ele><time>2026-03-24T12:03:03Z</time></trkpt>
<trkpt lat="43.0063850000" lon="0.3401870000"><ele>1119</ele><time>2026-03-24T12:03:04Z</time></trkpt>
<trkpt lat="43.0064070000" lon="0.3401600000"><ele>1119</ele><time>2026-03-24T12:03:06Z</time></trkpt>
<trkpt lat="43.0064200000" lon="0.3401370000"><ele>1119</ele><time>2026-03-24T12:03:09Z</time></trkpt>
<trkpt lat="43.0064270000" lon="0.3401120000"><ele>1119</ele><time>2026-03-24T12:03:11Z</time></trkpt>
<trkpt lat="43.0064350000" lon="0.3400820000"><ele>1120</ele><time>2026-03-24T12:03:14Z</time></trkpt>
<trkpt lat="43.0064520000" lon="0.3400650000"><ele>1120</ele><time>2026-03-24T12:03:17Z</time></trkpt>
<trkpt lat="43.0064520000" lon="0.3400370000"><ele>1120</ele><time>2026-03-24T12:03:20Z</time></trkpt>
<trkpt lat="43.0064600000" lon="0.3400150000"><ele>1121</ele><time>2026-03-24T12:03:23Z</time></trkpt>
<trkpt lat="43.0064770000" lon="0.3399970000"><ele>1122</ele><time>2026-03-24T12:03:29Z</time></trkpt>
<trkpt lat="43.0064950000" lon="0.3399750000"><ele>1122</ele><time>2026-03-24T12:03:31Z</time></trkpt>
<trkpt lat="43.0065070000" lon="0.3399480000"><ele>1122</ele><time>2026-03-24T12:03:33Z</time></trkpt>
<trkpt lat="43.0065170000" lon="0.3399220000"><ele>1122</ele><time>2026-03-24T12:03:35Z</time></trkpt>
<trkpt lat="43.0065250000" lon="0.3398950000"><ele>1123</ele><time>2026-03-24T12:03:37Z</time></trkpt>
<trkpt lat="43.0065270000" lon="0.3398650000"><ele>1123</ele><time>2026-03-24T12:03:39Z</time></trkpt>
<trkpt lat="43.0065270000" lon="0.3398380000"><ele>1123</ele><time>2026-03-24T12:03:41Z</time></trkpt>
<trkpt lat="43.0065470000" lon="0.3398220000"><ele>1123</ele><time>2026-03-24T12:03:44Z</time></trkpt>
<trkpt lat="43.0065670000" lon="0.3398070000"><ele>1124</ele><time>2026-03-24T12:03:47Z</time></trkpt>
<trkpt lat="43.0065770000" lon="0.3397870000"><ele>1124</ele><time>2026-03-24T12:03:50Z</time></trkpt>
<trkpt lat="43.0065920000" lon="0.3397670000"><ele>1124</ele><time>2026-03-24T12:03:53Z</time></trkpt>
<trkpt lat="43.0066050000" lon="0.3397420000"><ele>1125</ele><time>2026-03-24T12:03:56Z</time></trkpt>
<trkpt lat="43.0066200000" lon="0.3397220000"><ele>1125</ele><time>2026-03-24T12:03:59Z</time></trkpt>
<trkpt lat="43.0066270000" lon="0.3396900000"><ele>1125</ele><time>2026-03-24T12:04:02Z</time></trkpt>
<trkpt lat="43.0066370000" lon="0.3396670000"><ele>1126</ele><time>2026-03-24T12:04:06Z</time></trkpt>
<trkpt lat="43.0066520000" lon="0.3396520000"><ele>1126</ele><time>2026-03-24T12:04:08Z</time></trkpt>
<trkpt lat="43.0066670000" lon="0.3396370000"><ele>1126</ele><time>2026-03-24T12:04:10Z</time></trkpt>
<trkpt lat="43.0066870000" lon="0.3396170000"><ele>1127</ele><time>2026-03-24T12:04:13Z</time></trkpt>
<trkpt lat="43.0066970000" lon="0.3395970000"><ele>1127</ele><time>2026-03-24T12:04:17Z</time></trkpt>
<trkpt lat="43.0067070000" lon="0.3395750000"><ele>1127</ele><time>2026-03-24T12:04:19Z</time></trkpt>
<trkpt lat="43.0067200000" lon="0.3395500000"><ele>1127</ele><time>2026-03-24T12:04:22Z</time></trkpt>
<trkpt lat="43.0067450000" lon="0.3395330000"><ele>1128</ele><time>2026-03-24T12:04:25Z</time></trkpt>
<trkpt lat="43.0067600000" lon="0.3395180000"><ele>1128</ele><time>2026-03-24T12:04:28Z</time></trkpt>
<trkpt lat="43.0067550000" lon="0.3394900000"><ele>1128</ele><time>2026-03-24T12:04:32Z</time></trkpt>
<trkpt lat="43.0067670000" lon="0.3394570000"><ele>1129</ele><time>2026-03-24T12:04:36Z</time></trkpt>
<trkpt lat="43.0067770000" lon="0.3394230000"><ele>1129</ele><time>2026-03-24T12:04:39Z</time></trkpt>
<trkpt lat="43.0067920000" lon="0.3393970000"><ele>1129</ele><time>2026-03-24T12:04:42Z</time></trkpt>
<trkpt lat="43.0068070000" lon="0.3393770000"><ele>1129</ele><time>2026-03-24T12:04:44Z</time></trkpt>
<trkpt lat="43.0068170000" lon="0.3393520000"><ele>1129</ele><time>2026-03-24T12:04:47Z</time></trkpt>
<trkpt lat="43.0068120000" lon="0.3393220000"><ele>1129</ele><time>2026-03-24T12:04:49Z</time></trkpt>
<trkpt lat="43.0068020000" lon="0.3392920000"><ele>1129</ele><time>2026-03-24T12:04:51Z</time></trkpt>
<trkpt lat="43.0067870000" lon="0.3392670000"><ele>1129</ele><time>2026-03-24T12:04:53Z</time></trkpt>
<trkpt lat="43.0067720000" lon="0.3392420000"><ele>1129</ele><time>2026-03-24T12:04:55Z</time></trkpt>
<trkpt lat="43.0067720000" lon="0.3392170000"><ele>1129</ele><time>2026-03-24T12:04:57Z</time></trkpt>
<trkpt lat="43.0067670000" lon="0.3391820000"><ele>1130</ele><time>2026-03-24T12:05:00Z</time></trkpt>
<trkpt lat="43.0067750000" lon="0.3391520000"><ele>1130</ele><time>2026-03-24T12:05:03Z</time></trkpt>
<trkpt lat="43.0067820000" lon="0.3391300000"><ele>1130</ele><time>2026-03-24T12:05:05Z</time></trkpt>
<trkpt lat="43.0068000000" lon="0.3391020000"><ele>1130</ele><time>2026-03-24T12:05:08Z</time></trkpt>
<trkpt lat="43.0068170000" lon="0.3390800000"><ele>1131</ele><time>2026-03-24T12:05:11Z</time></trkpt>
<trkpt lat="43.0068370000" lon="0.3390570000"><ele>1131</ele><time>2026-03-24T12:05:13Z</time></trkpt>
<trkpt lat="43.0068550000" lon="0.3390350000"><ele>1131</ele><time>2026-03-24T12:05:16Z</time></trkpt>
<trkpt lat="43.0068720000" lon="0.3390070000"><ele>1131</ele><time>2026-03-24T12:05:18Z</time></trkpt>
<trkpt lat="43.0068800000" lon="0.3389800000"><ele>1131</ele><time>2026-03-24T12:05:20Z</time></trkpt>
<trkpt lat="43.0068820000" lon="0.3389520000"><ele>1131</ele><time>2026-03-24T12:05:22Z</time></trkpt>
<trkpt lat="43.0068870000" lon="0.3389220000"><ele>1131</ele><time>2026-03-24T12:05:24Z</time></trkpt>
<trkpt lat="43.0068870000" lon="0.3388950000"><ele>1131</ele><time>2026-03-24T12:05:26Z</time></trkpt>
<trkpt lat="43.0068920000" lon="0.3388570000"><ele>1132</ele><time>2026-03-24T12:05:29Z</time></trkpt>
<trkpt lat="43.0068920000" lon="0.3388220000"><ele>1132</ele><time>2026-03-24T12:05:31Z</time></trkpt>
<trkpt lat="43.0068970000" lon="0.3387870000"><ele>1132</ele><time>2026-03-24T12:05:33Z</time></trkpt>
<trkpt lat="43.0069020000" lon="0.3387570000"><ele>1132</ele><time>2026-03-24T12:05:36Z</time></trkpt>
<trkpt lat="43.0069020000" lon="0.3387250000"><ele>1132</ele><time>2026-03-24T12:05:39Z</time></trkpt>
<trkpt lat="43.0069120000" lon="0.3387050000"><ele>1132</ele><time>2026-03-24T12:05:41Z</time></trkpt>
<trkpt lat="43.0069100000" lon="0.3386750000"><ele>1132</ele><time>2026-03-24T12:05:43Z</time></trkpt>
<trkpt lat="43.0069120000" lon="0.3386400000"><ele>1132</ele><time>2026-03-24T12:05:46Z</time></trkpt>
<trkpt lat="43.0069120000" lon="0.3386070000"><ele>1132</ele><time>2026-03-24T12:05:48Z</time></trkpt>
<trkpt lat="43.0069120000" lon="0.3385820000"><ele>1132</ele><time>2026-03-24T12:05:51Z</time></trkpt>
<trkpt lat="43.0069150000" lon="0.3385520000"><ele>1132</ele><time>2026-03-24T12:05:54Z</time></trkpt>
<trkpt lat="43.0069170000" lon="0.3385250000"><ele>1132</ele><time>2026-03-24T12:05:56Z</time></trkpt>
<trkpt lat="43.0069220000" lon="0.3385000000"><ele>1132</ele><time>2026-03-24T12:05:58Z</time></trkpt>
<trkpt lat="43.0069420000" lon="0.3384870000"><ele>1132</ele><time>2026-03-24T12:06:00Z</time></trkpt>
<trkpt lat="43.0069500000" lon="0.3384520000"><ele>1132</ele><time>2026-03-24T12:06:03Z</time></trkpt>
<trkpt lat="43.0069520000" lon="0.3384220000"><ele>1132</ele><time>2026-03-24T12:06:05Z</time></trkpt>
<trkpt lat="43.0069570000" lon="0.3383920000"><ele>1132</ele><time>2026-03-24T12:06:07Z</time></trkpt>
<trkpt lat="43.0069670000" lon="0.3383650000"><ele>1132</ele><time>2026-03-24T12:06:09Z</time></trkpt>
<trkpt lat="43.0069770000" lon="0.3383320000"><ele>1132</ele><time>2026-03-24T12:06:12Z</time></trkpt>
<trkpt lat="43.0069850000" lon="0.3383050000"><ele>1133</ele><time>2026-03-24T12:06:16Z</time></trkpt>
<trkpt lat="43.0070070000" lon="0.3383050000"><ele>1132</ele><time>2026-03-24T12:07:15Z</time></trkpt>
<trkpt lat="43.0070170000" lon="0.3383300000"><ele>1132</ele><time>2026-03-24T12:07:18Z</time></trkpt>
<trkpt lat="43.0070120000" lon="0.3383570000"><ele>1131</ele><time>2026-03-24T12:09:45Z</time></trkpt>
<trkpt lat="43.0069950000" lon="0.3383600000"><ele>1131</ele><time>2026-03-24T12:09:51Z</time></trkpt>
<trkpt lat="43.0070050000" lon="0.3383870000"><ele>1131</ele><time>2026-03-24T12:12:34Z</time></trkpt>
<trkpt lat="43.0070120000" lon="0.3384120000"><ele>1131</ele><time>2026-03-24T12:12:38Z</time></trkpt>
<trkpt lat="43.0070050000" lon="0.3383870000"><ele>1131</ele><time>2026-03-24T12:13:49Z</time></trkpt>
<trkpt lat="43.0069870000" lon="0.3383770000"><ele>1131</ele><time>2026-03-24T12:15:04Z</time></trkpt>
<trkpt lat="43.0069800000" lon="0.3383320000"><ele>1132</ele><time>2026-03-24T12:16:14Z</time></trkpt>
<trkpt lat="43.0069770000" lon="0.3382900000"><ele>1132</ele><time>2026-03-24T12:16:16Z</time></trkpt>
<trkpt lat="43.0069600000" lon="0.3382600000"><ele>1131</ele><time>2026-03-24T12:16:21Z</time></trkpt>
<trkpt lat="43.0069620000" lon="0.3382350000"><ele>1131</ele><time>2026-03-24T12:16:22Z</time></trkpt>
<trkpt lat="43.0069620000" lon="0.3382020000"><ele>1131</ele><time>2026-03-24T12:16:24Z</time></trkpt>
<trkpt lat="43.0069570000" lon="0.3381750000"><ele>1131</ele><time>2026-03-24T12:16:26Z</time></trkpt>
<trkpt lat="43.0069470000" lon="0.3381420000"><ele>1130</ele><time>2026-03-24T12:16:28Z</time></trkpt>
<trkpt lat="43.0069450000" lon="0.3381070000"><ele>1130</ele><time>2026-03-24T12:16:31Z</time></trkpt>
<trkpt lat="43.0069420000" lon="0.3380820000"><ele>1130</ele><time>2026-03-24T12:16:33Z</time></trkpt>
<trkpt lat="43.0069470000" lon="0.3380570000"><ele>1130</ele><time>2026-03-24T12:16:35Z</time></trkpt>
<trkpt lat="43.0069450000" lon="0.3380300000"><ele>1130</ele><time>2026-03-24T12:16:38Z</time></trkpt>
<trkpt lat="43.0069450000" lon="0.3379970000"><ele>1130</ele><time>2026-03-24T12:16:42Z</time></trkpt>
<trkpt lat="43.0069420000" lon="0.3379650000"><ele>1130</ele><time>2026-03-24T12:16:45Z</time></trkpt>
<trkpt lat="43.0069470000" lon="0.3379370000"><ele>1130</ele><time>2026-03-24T12:16:47Z</time></trkpt>
<trkpt lat="43.0069520000" lon="0.3379070000"><ele>1130</ele><time>2026-03-24T12:16:49Z</time></trkpt>
<trkpt lat="43.0069570000" lon="0.3378770000"><ele>1130</ele><time>2026-03-24T12:16:51Z</time></trkpt>
<trkpt lat="43.0069620000" lon="0.3378420000"><ele>1129</ele><time>2026-03-24T12:16:54Z</time></trkpt>
<trkpt lat="43.0069720000" lon="0.3378130000"><ele>1129</ele><time>2026-03-24T12:16:56Z</time></trkpt>
<trkpt lat="43.0069870000" lon="0.3377850000"><ele>1129</ele><time>2026-03-24T12:16:59Z</time></trkpt>
<trkpt lat="43.0069900000" lon="0.3377470000"><ele>1129</ele><time>2026-03-24T12:17:02Z</time></trkpt>
<trkpt lat="43.0069870000" lon="0.3377200000"><ele>1129</ele><time>2026-03-24T12:17:05Z</time></trkpt>
<trkpt lat="43.0069820000" lon="0.3376820000"><ele>1128</ele><time>2026-03-24T12:17:08Z</time></trkpt>
<trkpt lat="43.0069900000" lon="0.3376570000"><ele>1128</ele><time>2026-03-24T12:17:10Z</time></trkpt>
<trkpt lat="43.0069920000" lon="0.3376280000"><ele>1128</ele><time>2026-03-24T12:17:13Z</time></trkpt>
<trkpt lat="43.0070050000" lon="0.3376000000"><ele>1127</ele><time>2026-03-24T12:17:17Z</time></trkpt>
<trkpt lat="43.0070170000" lon="0.3375780000"><ele>1127</ele><time>2026-03-24T12:17:19Z</time></trkpt>
<trkpt lat="43.0070350000" lon="0.3375600000"><ele>1127</ele><time>2026-03-24T12:17:21Z</time></trkpt>
<trkpt lat="43.0070520000" lon="0.3375300000"><ele>1127</ele><time>2026-03-24T12:17:23Z</time></trkpt>
<trkpt lat="43.0070620000" lon="0.3375070000"><ele>1126</ele><time>2026-03-24T12:17:25Z</time></trkpt>
<trkpt lat="43.0070800000" lon="0.3374900000"><ele>1126</ele><time>2026-03-24T12:17:28Z</time></trkpt>
<trkpt lat="43.0070650000" lon="0.3374720000"><ele>1125</ele><time>2026-03-24T12:17:36Z</time></trkpt>
<trkpt lat="43.0070450000" lon="0.3374670000"><ele>1124</ele><time>2026-03-24T12:17:40Z</time></trkpt>
<trkpt lat="43.0070170000" lon="0.3374620000"><ele>1123</ele><time>2026-03-24T12:17:54Z</time></trkpt>
<trkpt lat="43.0069970000" lon="0.3374570000"><ele>1123</ele><time>2026-03-24T12:17:55Z</time></trkpt>
<trkpt lat="43.0069770000" lon="0.3374570000"><ele>1123</ele><time>2026-03-24T12:17:56Z</time></trkpt>
<trkpt lat="43.0069550000" lon="0.3374650000"><ele>1122</ele><time>2026-03-24T12:17:58Z</time></trkpt>
<trkpt lat="43.0069320000" lon="0.3374670000"><ele>1122</ele><time>2026-03-24T12:18:00Z</time></trkpt>
<trkpt lat="43.0069120000" lon="0.3374550000"><ele>1121</ele><time>2026-03-24T12:18:04Z</time></trkpt>
<trkpt lat="43.0068920000" lon="0.3374420000"><ele>1120</ele><time>2026-03-24T12:18:07Z</time></trkpt>
<trkpt lat="43.0068770000" lon="0.3374170000"><ele>1120</ele><time>2026-03-24T12:18:10Z</time></trkpt>
<trkpt lat="43.0068600000" lon="0.3373980000"><ele>1119</ele><time>2026-03-24T12:18:13Z</time></trkpt>
<trkpt lat="43.0068450000" lon="0.3373850000"><ele>1118</ele><time>2026-03-24T12:18:16Z</time></trkpt>
<trkpt lat="43.0068220000" lon="0.3373800000"><ele>1117</ele><time>2026-03-24T12:18:19Z</time></trkpt>
<trkpt lat="43.0068070000" lon="0.3373620000"><ele>1116</ele><time>2026-03-24T12:18:21Z</time></trkpt>
<trkpt lat="43.0067820000" lon="0.3373370000"><ele>1116</ele><time>2026-03-24T12:18:23Z</time></trkpt>
<trkpt lat="43.0067570000" lon="0.3373220000"><ele>1115</ele><time>2026-03-24T12:18:25Z</time></trkpt>
<trkpt lat="43.0067420000" lon="0.3373070000"><ele>1115</ele><time>2026-03-24T12:18:28Z</time></trkpt>
<trkpt lat="43.0067200000" lon="0.3372980000"><ele>1113</ele><time>2026-03-24T12:18:46Z</time></trkpt>
<trkpt lat="43.0067020000" lon="0.3372970000"><ele>1113</ele><time>2026-03-24T12:18:48Z</time></trkpt>
<trkpt lat="43.0066720000" lon="0.3372920000"><ele>1112</ele><time>2026-03-24T12:18:51Z</time></trkpt>
<trkpt lat="43.0066420000" lon="0.3372750000"><ele>1112</ele><time>2026-03-24T12:18:53Z</time></trkpt>
<trkpt lat="43.0066220000" lon="0.3372630000"><ele>1111</ele><time>2026-03-24T12:18:55Z</time></trkpt>
<trkpt lat="43.0066100000" lon="0.3372470000"><ele>1111</ele><time>2026-03-24T12:18:57Z</time></trkpt>
<trkpt lat="43.0066070000" lon="0.3372220000"><ele>1111</ele><time>2026-03-24T12:19:00Z</time></trkpt>
<trkpt lat="43.0065870000" lon="0.3372070000"><ele>1110</ele><time>2026-03-24T12:19:03Z</time></trkpt>
<trkpt lat="43.0065720000" lon="0.3371950000"><ele>1109</ele><time>2026-03-24T12:19:06Z</time></trkpt>
<trkpt lat="43.0065520000" lon="0.3371850000"><ele>1109</ele><time>2026-03-24T12:19:08Z</time></trkpt>
<trkpt lat="43.0065320000" lon="0.3371620000"><ele>1108</ele><time>2026-03-24T12:19:11Z</time></trkpt>
<trkpt lat="43.0065200000" lon="0.3371470000"><ele>1108</ele><time>2026-03-24T12:19:13Z</time></trkpt>
<trkpt lat="43.0065070000" lon="0.3371270000"><ele>1108</ele><time>2026-03-24T12:19:15Z</time></trkpt>
<trkpt lat="43.0064950000" lon="0.3371050000"><ele>1107</ele><time>2026-03-24T12:19:18Z</time></trkpt>
<trkpt lat="43.0064750000" lon="0.3370900000"><ele>1107</ele><time>2026-03-24T12:19:21Z</time></trkpt>
<trkpt lat="43.0064620000" lon="0.3370670000"><ele>1106</ele><time>2026-03-24T12:19:24Z</time></trkpt>
<trkpt lat="43.0064470000" lon="0.3370520000"><ele>1106</ele><time>2026-03-24T12:19:26Z</time></trkpt>
<trkpt lat="43.0064300000" lon="0.3370320000"><ele>1105</ele><time>2026-03-24T12:19:29Z</time></trkpt>
<trkpt lat="43.0064120000" lon="0.3370180000"><ele>1104</ele><time>2026-03-24T12:19:31Z</time></trkpt>
<trkpt lat="43.0063920000" lon="0.3370050000"><ele>1104</ele><time>2026-03-24T12:19:34Z</time></trkpt>
<trkpt lat="43.0063750000" lon="0.3369920000"><ele>1103</ele><time>2026-03-24T12:19:37Z</time></trkpt>
<trkpt lat="43.0063550000" lon="0.3369720000"><ele>1102</ele><time>2026-03-24T12:19:40Z</time></trkpt>
<trkpt lat="43.0063370000" lon="0.3369500000"><ele>1102</ele><time>2026-03-24T12:19:43Z</time></trkpt>
<trkpt lat="43.0063270000" lon="0.3369220000"><ele>1101</ele><time>2026-03-24T12:19:46Z</time></trkpt>
<trkpt lat="43.0063270000" lon="0.3368900000"><ele>1100</ele><time>2026-03-24T12:19:49Z</time></trkpt>
<trkpt lat="43.0063220000" lon="0.3368600000"><ele>1100</ele><time>2026-03-24T12:19:52Z</time></trkpt>
<trkpt lat="43.0063270000" lon="0.3368320000"><ele>1099</ele><time>2026-03-24T12:19:55Z</time></trkpt>
<trkpt lat="43.0063200000" lon="0.3368070000"><ele>1098</ele><time>2026-03-24T12:19:59Z</time></trkpt>
<trkpt lat="43.0063020000" lon="0.3367870000"><ele>1097</ele><time>2026-03-24T12:20:02Z</time></trkpt>
<trkpt lat="43.0062900000" lon="0.3367620000"><ele>1097</ele><time>2026-03-24T12:20:05Z</time></trkpt>
<trkpt lat="43.0062720000" lon="0.3367470000"><ele>1096</ele><time>2026-03-24T12:20:08Z</time></trkpt>
<trkpt lat="43.0062520000" lon="0.3367450000"><ele>1095</ele><time>2026-03-24T12:20:13Z</time></trkpt>
<trkpt lat="43.0062320000" lon="0.3367570000"><ele>1095</ele><time>2026-03-24T12:20:17Z</time></trkpt>
<trkpt lat="43.0062120000" lon="0.3367670000"><ele>1094</ele><time>2026-03-24T12:20:21Z</time></trkpt>
<trkpt lat="43.0061920000" lon="0.3367770000"><ele>1094</ele><time>2026-03-24T12:20:25Z</time></trkpt>
<trkpt lat="43.0061750000" lon="0.3367670000"><ele>1094</ele><time>2026-03-24T12:20:28Z</time></trkpt>
<trkpt lat="43.0061500000" lon="0.3367550000"><ele>1093</ele><time>2026-03-24T12:20:31Z</time></trkpt>
<trkpt lat="43.0061320000" lon="0.3367550000"><ele>1093</ele><time>2026-03-24T12:20:33Z</time></trkpt>
<trkpt lat="43.0061150000" lon="0.3367720000"><ele>1091</ele><time>2026-03-24T12:21:20Z</time></trkpt>
<trkpt lat="43.0060950000" lon="0.3367880000"><ele>1091</ele><time>2026-03-24T12:21:22Z</time></trkpt>
<trkpt lat="43.0060700000" lon="0.3368020000"><ele>1092</ele><time>2026-03-24T12:21:24Z</time></trkpt>
<trkpt lat="43.0060500000" lon="0.3368020000"><ele>1091</ele><time>2026-03-24T12:21:26Z</time></trkpt>
<trkpt lat="43.0060270000" lon="0.3368100000"><ele>1091</ele><time>2026-03-24T12:21:29Z</time></trkpt>
<trkpt lat="43.0060070000" lon="0.3367970000"><ele>1090</ele><time>2026-03-24T12:21:32Z</time></trkpt>
<trkpt lat="43.0059870000" lon="0.3367870000"><ele>1090</ele><time>2026-03-24T12:21:35Z</time></trkpt>
<trkpt lat="43.0059670000" lon="0.3367820000"><ele>1089</ele><time>2026-03-24T12:21:38Z</time></trkpt>
<trkpt lat="43.0059470000" lon="0.3367920000"><ele>1088</ele><time>2026-03-24T12:21:42Z</time></trkpt>
<trkpt lat="43.0059270000" lon="0.3367970000"><ele>1087</ele><time>2026-03-24T12:21:45Z</time></trkpt>
<trkpt lat="43.0059200000" lon="0.3367720000"><ele>1087</ele><time>2026-03-24T12:21:49Z</time></trkpt>
<trkpt lat="43.0059070000" lon="0.3367470000"><ele>1086</ele><time>2026-03-24T12:21:52Z</time></trkpt>
<trkpt lat="43.0058820000" lon="0.3367480000"><ele>1085</ele><time>2026-03-24T12:21:57Z</time></trkpt>
<trkpt lat="43.0058700000" lon="0.3367720000"><ele>1085</ele><time>2026-03-24T12:21:59Z</time></trkpt>
<trkpt lat="43.0058620000" lon="0.3367970000"><ele>1084</ele><time>2026-03-24T12:22:01Z</time></trkpt>
<trkpt lat="43.0058570000" lon="0.3368220000"><ele>1084</ele><time>2026-03-24T12:22:03Z</time></trkpt>
<trkpt lat="43.0058470000" lon="0.3368470000"><ele>1084</ele><time>2026-03-24T12:22:05Z</time></trkpt>
<trkpt lat="43.0058320000" lon="0.3368670000"><ele>1084</ele><time>2026-03-24T12:22:07Z</time></trkpt>
<trkpt lat="43.0058220000" lon="0.3368930000"><ele>1085</ele><time>2026-03-24T12:22:10Z</time></trkpt>
<trkpt lat="43.0058020000" lon="0.3369170000"><ele>1084</ele><time>2026-03-24T12:22:13Z</time></trkpt>
<trkpt lat="43.0057920000" lon="0.3369400000"><ele>1084</ele><time>2026-03-24T12:22:15Z</time></trkpt>
<trkpt lat="43.0057800000" lon="0.3369600000"><ele>1084</ele><time>2026-03-24T12:22:17Z</time></trkpt>
<trkpt lat="43.0057700000" lon="0.3369830000"><ele>1084</ele><time>2026-03-24T12:22:20Z</time></trkpt>
<trkpt lat="43.0057550000" lon="0.3370080000"><ele>1084</ele><time>2026-03-24T12:22:23Z</time></trkpt>
<trkpt lat="43.0057350000" lon="0.3370320000"><ele>1084</ele><time>2026-03-24T12:22:26Z</time></trkpt>
<trkpt lat="43.0057150000" lon="0.3370470000"><ele>1084</ele><time>2026-03-24T12:22:29Z</time></trkpt>
<trkpt lat="43.0056920000" lon="0.3370500000"><ele>1083</ele><time>2026-03-24T12:22:32Z</time></trkpt>
<trkpt lat="43.0056700000" lon="0.3370680000"><ele>1083</ele><time>2026-03-24T12:22:34Z</time></trkpt>
<trkpt lat="43.0056520000" lon="0.3370870000"><ele>1082</ele><time>2026-03-24T12:22:36Z</time></trkpt>
<trkpt lat="43.0056370000" lon="0.3371050000"><ele>1082</ele><time>2026-03-24T12:22:38Z</time></trkpt>
<trkpt lat="43.0056220000" lon="0.3371300000"><ele>1082</ele><time>2026-03-24T12:22:41Z</time></trkpt>
<trkpt lat="43.0056050000" lon="0.3371520000"><ele>1082</ele><time>2026-03-24T12:22:43Z</time></trkpt>
<trkpt lat="43.0055920000" lon="0.3371770000"><ele>1081</ele><time>2026-03-24T12:22:45Z</time></trkpt>
<trkpt lat="43.0055800000" lon="0.3372070000"><ele>1081</ele><time>2026-03-24T12:22:47Z</time></trkpt>
<trkpt lat="43.0055670000" lon="0.3372320000"><ele>1081</ele><time>2026-03-24T12:22:51Z</time></trkpt>
<trkpt lat="43.0055620000" lon="0.3372620000"><ele>1081</ele><time>2026-03-24T12:22:54Z</time></trkpt>
<trkpt lat="43.0055520000" lon="0.3372820000"><ele>1081</ele><time>2026-03-24T12:22:56Z</time></trkpt>
<trkpt lat="43.0055420000" lon="0.3373070000"><ele>1081</ele><time>2026-03-24T12:22:59Z</time></trkpt>
<trkpt lat="43.0055300000" lon="0.3373370000"><ele>1081</ele><time>2026-03-24T12:23:03Z</time></trkpt>
<trkpt lat="43.0055120000" lon="0.3373470000"><ele>1081</ele><time>2026-03-24T12:23:06Z</time></trkpt>
<trkpt lat="43.0054920000" lon="0.3373670000"><ele>1081</ele><time>2026-03-24T12:23:10Z</time></trkpt>
<trkpt lat="43.0054800000" lon="0.3373950000"><ele>1080</ele><time>2026-03-24T12:23:13Z</time></trkpt>
<trkpt lat="43.0054720000" lon="0.3374230000"><ele>1080</ele><time>2026-03-24T12:23:17Z</time></trkpt>
<trkpt lat="43.0054720000" lon="0.3374570000"><ele>1080</ele><time>2026-03-24T12:23:20Z</time></trkpt>
<trkpt lat="43.0054650000" lon="0.3374820000"><ele>1080</ele><time>2026-03-24T12:23:23Z</time></trkpt>
<trkpt lat="43.0054520000" lon="0.3375100000"><ele>1080</ele><time>2026-03-24T12:23:27Z</time></trkpt>
<trkpt lat="43.0054370000" lon="0.3375250000"><ele>1080</ele><time>2026-03-24T12:23:31Z</time></trkpt>
<trkpt lat="43.0054270000" lon="0.3375470000"><ele>1080</ele><time>2026-03-24T12:23:34Z</time></trkpt>
<trkpt lat="43.0054150000" lon="0.3375750000"><ele>1080</ele><time>2026-03-24T12:23:36Z</time></trkpt>
<trkpt lat="43.0054020000" lon="0.3375950000"><ele>1080</ele><time>2026-03-24T12:23:39Z</time></trkpt>
<trkpt lat="43.0053920000" lon="0.3376180000"><ele>1080</ele><time>2026-03-24T12:23:42Z</time></trkpt>
<trkpt lat="43.0053800000" lon="0.3376400000"><ele>1079</ele><time>2026-03-24T12:23:47Z</time></trkpt>
<trkpt lat="43.0053650000" lon="0.3376550000"><ele>1079</ele><time>2026-03-24T12:23:50Z</time></trkpt>
<trkpt lat="43.0053520000" lon="0.3376770000"><ele>1078</ele><time>2026-03-24T12:23:55Z</time></trkpt>
<trkpt lat="43.0053470000" lon="0.3377020000"><ele>1078</ele><time>2026-03-24T12:23:59Z</time></trkpt>
<trkpt lat="43.0053350000" lon="0.3377170000"><ele>1078</ele><time>2026-03-24T12:24:01Z</time></trkpt>
<trkpt lat="43.0053200000" lon="0.3377370000"><ele>1077</ele><time>2026-03-24T12:24:06Z</time></trkpt>
<trkpt lat="43.0053020000" lon="0.3377370000"><ele>1077</ele><time>2026-03-24T12:24:09Z</time></trkpt>
<trkpt lat="43.0052850000" lon="0.3377470000"><ele>1076</ele><time>2026-03-24T12:24:14Z</time></trkpt>
<trkpt lat="43.0052620000" lon="0.3377700000"><ele>1074</ele><time>2026-03-24T12:24:34Z</time></trkpt>
<trkpt lat="43.0052400000" lon="0.3378070000"><ele>1073</ele><time>2026-03-24T12:24:36Z</time></trkpt>
<trkpt lat="43.0052220000" lon="0.3378380000"><ele>1073</ele><time>2026-03-24T12:24:38Z</time></trkpt>
<trkpt lat="43.0052170000" lon="0.3378650000"><ele>1073</ele><time>2026-03-24T12:24:40Z</time></trkpt>
<trkpt lat="43.0052070000" lon="0.3378950000"><ele>1073</ele><time>2026-03-24T12:24:44Z</time></trkpt>
<trkpt lat="43.0052020000" lon="0.3379200000"><ele>1072</ele><time>2026-03-24T12:24:47Z</time></trkpt>
<trkpt lat="43.0051820000" lon="0.3379070000"><ele>1071</ele><time>2026-03-24T12:25:05Z</time></trkpt>
<trkpt lat="43.0051870000" lon="0.3378770000"><ele>1071</ele><time>2026-03-24T12:25:08Z</time></trkpt>
<trkpt lat="43.0051670000" lon="0.3378820000"><ele>1070</ele><time>2026-03-24T12:25:14Z</time></trkpt>
<trkpt lat="43.0051520000" lon="0.3378970000"><ele>1068</ele><time>2026-03-24T12:25:26Z</time></trkpt>
<trkpt lat="43.0051320000" lon="0.3379170000"><ele>1067</ele><time>2026-03-24T12:25:28Z</time></trkpt>
<trkpt lat="43.0051170000" lon="0.3379320000"><ele>1067</ele><time>2026-03-24T12:25:29Z</time></trkpt>
<trkpt lat="43.0050950000" lon="0.3379550000"><ele>1067</ele><time>2026-03-24T12:25:31Z</time></trkpt>
<trkpt lat="43.0050820000" lon="0.3379770000"><ele>1066</ele><time>2026-03-24T12:25:34Z</time></trkpt>
<trkpt lat="43.0050620000" lon="0.3379870000"><ele>1064</ele><time>2026-03-24T12:25:48Z</time></trkpt>
<trkpt lat="43.0050450000" lon="0.3380020000"><ele>1063</ele><time>2026-03-24T12:25:55Z</time></trkpt>
<trkpt lat="43.0050220000" lon="0.3380270000"><ele>1063</ele><time>2026-03-24T12:25:57Z</time></trkpt>
<trkpt lat="43.0050070000" lon="0.3380470000"><ele>1062</ele><time>2026-03-24T12:25:59Z</time></trkpt>
<trkpt lat="43.0049900000" lon="0.3380620000"><ele>1061</ele><time>2026-03-24T12:26:02Z</time></trkpt>
<trkpt lat="43.0049820000" lon="0.3380870000"><ele>1061</ele><time>2026-03-24T12:26:04Z</time></trkpt>
<trkpt lat="43.0049670000" lon="0.3381150000"><ele>1061</ele><time>2026-03-24T12:26:07Z</time></trkpt>
<trkpt lat="43.0049500000" lon="0.3381320000"><ele>1060</ele><time>2026-03-24T12:26:10Z</time></trkpt>
<trkpt lat="43.0049320000" lon="0.3381500000"><ele>1060</ele><time>2026-03-24T12:26:13Z</time></trkpt>
<trkpt lat="43.0049220000" lon="0.3381770000"><ele>1059</ele><time>2026-03-24T12:26:17Z</time></trkpt>
<trkpt lat="43.0049070000" lon="0.3382050000"><ele>1059</ele><time>2026-03-24T12:26:21Z</time></trkpt>
<trkpt lat="43.0048970000" lon="0.3382250000"><ele>1059</ele><time>2026-03-24T12:26:24Z</time></trkpt>
<trkpt lat="43.0048930000" lon="0.3382520000"><ele>1058</ele><time>2026-03-24T12:26:26Z</time></trkpt>
<trkpt lat="43.0048870000" lon="0.3382870000"><ele>1058</ele><time>2026-03-24T12:26:28Z</time></trkpt>
<trkpt lat="43.0048820000" lon="0.3383270000"><ele>1058</ele><time>2026-03-24T12:26:30Z</time></trkpt>
<trkpt lat="43.0048750000" lon="0.3383520000"><ele>1058</ele><time>2026-03-24T12:26:32Z</time></trkpt>
<trkpt lat="43.0048520000" lon="0.3383730000"><ele>1058</ele><time>2026-03-24T12:26:34Z</time></trkpt>
<trkpt lat="43.0048320000" lon="0.3383770000"><ele>1058</ele><time>2026-03-24T12:26:36Z</time></trkpt>
<trkpt lat="43.0048120000" lon="0.3383720000"><ele>1057</ele><time>2026-03-24T12:26:39Z</time></trkpt>
<trkpt lat="43.0047950000" lon="0.3383920000"><ele>1057</ele><time>2026-03-24T12:26:42Z</time></trkpt>
<trkpt lat="43.0047770000" lon="0.3384070000"><ele>1056</ele><time>2026-03-24T12:26:44Z</time></trkpt>
<trkpt lat="43.0047650000" lon="0.3384270000"><ele>1056</ele><time>2026-03-24T12:26:46Z</time></trkpt>
<trkpt lat="43.0047450000" lon="0.3384420000"><ele>1055</ele><time>2026-03-24T12:26:49Z</time></trkpt>
<trkpt lat="43.0047270000" lon="0.3384420000"><ele>1055</ele><time>2026-03-24T12:26:51Z</time></trkpt>
<trkpt lat="43.0047000000" lon="0.3384300000"><ele>1054</ele><time>2026-03-24T12:26:54Z</time></trkpt>
<trkpt lat="43.0046770000" lon="0.3384250000"><ele>1053</ele><time>2026-03-24T12:26:57Z</time></trkpt>
<trkpt lat="43.0046650000" lon="0.3384420000"><ele>1052</ele><time>2026-03-24T12:26:59Z</time></trkpt>
<trkpt lat="43.0046470000" lon="0.3384750000"><ele>1052</ele><time>2026-03-24T12:27:02Z</time></trkpt>
<trkpt lat="43.0046370000" lon="0.3384970000"><ele>1051</ele><time>2026-03-24T12:27:04Z</time></trkpt>
<trkpt lat="43.0046250000" lon="0.3385170000"><ele>1051</ele><time>2026-03-24T12:27:06Z</time></trkpt>
<trkpt lat="43.0046120000" lon="0.3385520000"><ele>1051</ele><time>2026-03-24T12:27:09Z</time></trkpt>
<trkpt lat="43.0046020000" lon="0.3385770000"><ele>1051</ele><time>2026-03-24T12:27:11Z</time></trkpt>
<trkpt lat="43.0045920000" lon="0.3386020000"><ele>1050</ele><time>2026-03-24T12:27:13Z</time></trkpt>
<trkpt lat="43.0045820000" lon="0.3386250000"><ele>1050</ele><time>2026-03-24T12:27:15Z</time></trkpt>
<trkpt lat="43.0045670000" lon="0.3386570000"><ele>1050</ele><time>2026-03-24T12:27:18Z</time></trkpt>
<trkpt lat="43.0045570000" lon="0.3386820000"><ele>1049</ele><time>2026-03-24T12:27:20Z</time></trkpt>
<trkpt lat="43.0045450000" lon="0.3387020000"><ele>1049</ele><time>2026-03-24T12:27:22Z</time></trkpt>
<trkpt lat="43.0045320000" lon="0.3387220000"><ele>1049</ele><time>2026-03-24T12:27:24Z</time></trkpt>
<trkpt lat="43.0045120000" lon="0.3387380000"><ele>1048</ele><time>2026-03-24T12:27:26Z</time></trkpt>
<trkpt lat="43.0044970000" lon="0.3387570000"><ele>1048</ele><time>2026-03-24T12:27:28Z</time></trkpt>
<trkpt lat="43.0044850000" lon="0.3387870000"><ele>1047</ele><time>2026-03-24T12:27:45Z</time></trkpt>
<trkpt lat="43.0044670000" lon="0.3388100000"><ele>1046</ele><time>2026-03-24T12:27:47Z</time></trkpt>
<trkpt lat="43.0044430000" lon="0.3388270000"><ele>1046</ele><time>2026-03-24T12:27:51Z</time></trkpt>
<trkpt lat="43.0044100000" lon="0.3388420000"><ele>1046</ele><time>2026-03-24T12:27:53Z</time></trkpt>
<trkpt lat="43.0043770000" lon="0.3388470000"><ele>1046</ele><time>2026-03-24T12:27:55Z</time></trkpt>
<trkpt lat="43.0043500000" lon="0.3388500000"><ele>1045</ele><time>2026-03-24T12:27:57Z</time></trkpt>
<trkpt lat="43.0043320000" lon="0.3388520000"><ele>1045</ele><time>2026-03-24T12:27:59Z</time></trkpt>
<trkpt lat="43.0043120000" lon="0.3388620000"><ele>1045</ele><time>2026-03-24T12:28:01Z</time></trkpt>
<trkpt lat="43.0042920000" lon="0.3388870000"><ele>1044</ele><time>2026-03-24T12:28:04Z</time></trkpt>
<trkpt lat="43.0042750000" lon="0.3389000000"><ele>1044</ele><time>2026-03-24T12:28:06Z</time></trkpt>
<trkpt lat="43.0042520000" lon="0.3389070000"><ele>1044</ele><time>2026-03-24T12:28:08Z</time></trkpt>
<trkpt lat="43.0042300000" lon="0.3389120000"><ele>1044</ele><time>2026-03-24T12:28:10Z</time></trkpt>
<trkpt lat="43.0042070000" lon="0.3389270000"><ele>1043</ele><time>2026-03-24T12:28:12Z</time></trkpt>
<trkpt lat="43.0041920000" lon="0.3389450000"><ele>1043</ele><time>2026-03-24T12:28:14Z</time></trkpt>
<trkpt lat="43.0041670000" lon="0.3389670000"><ele>1043</ele><time>2026-03-24T12:28:17Z</time></trkpt>
<trkpt lat="43.0041550000" lon="0.3389850000"><ele>1043</ele><time>2026-03-24T12:28:19Z</time></trkpt>
<trkpt lat="43.0041400000" lon="0.3390070000"><ele>1043</ele><time>2026-03-24T12:28:23Z</time></trkpt>
<trkpt lat="43.0041250000" lon="0.3390350000"><ele>1043</ele><time>2026-03-24T12:28:26Z</time></trkpt>
<trkpt lat="43.0041170000" lon="0.3390570000"><ele>1043</ele><time>2026-03-24T12:28:28Z</time></trkpt>
<trkpt lat="43.0041020000" lon="0.3390800000"><ele>1043</ele><time>2026-03-24T12:28:30Z</time></trkpt>
<trkpt lat="43.0040900000" lon="0.3391020000"><ele>1043</ele><time>2026-03-24T12:28:32Z</time></trkpt>
<trkpt lat="43.0040770000" lon="0.3391250000"><ele>1043</ele><time>2026-03-24T12:28:34Z</time></trkpt>
<trkpt lat="43.0040620000" lon="0.3391420000"><ele>1043</ele><time>2026-03-24T12:28:36Z</time></trkpt>
<trkpt lat="43.0040520000" lon="0.3391670000"><ele>1043</ele><time>2026-03-24T12:28:38Z</time></trkpt>
<trkpt lat="43.0040420000" lon="0.3391920000"><ele>1043</ele><time>2026-03-24T12:28:40Z</time></trkpt>
<trkpt lat="43.0040320000" lon="0.3392170000"><ele>1043</ele><time>2026-03-24T12:28:42Z</time></trkpt>
<trkpt lat="43.0040200000" lon="0.3392420000"><ele>1043</ele><time>2026-03-24T12:28:44Z</time></trkpt>
<trkpt lat="43.0040070000" lon="0.3392650000"><ele>1043</ele><time>2026-03-24T12:28:46Z</time></trkpt>
<trkpt lat="43.0039970000" lon="0.3392870000"><ele>1043</ele><time>2026-03-24T12:28:48Z</time></trkpt>
<trkpt lat="43.0039870000" lon="0.3393170000"><ele>1043</ele><time>2026-03-24T12:28:50Z</time></trkpt>
<trkpt lat="43.0039720000" lon="0.3393420000"><ele>1043</ele><time>2026-03-24T12:28:52Z</time></trkpt>
<trkpt lat="43.0039600000" lon="0.3393620000"><ele>1043</ele><time>2026-03-24T12:28:54Z</time></trkpt>
<trkpt lat="43.0039500000" lon="0.3393830000"><ele>1043</ele><time>2026-03-24T12:28:56Z</time></trkpt>
<trkpt lat="43.0039370000" lon="0.3394070000"><ele>1043</ele><time>2026-03-24T12:28:58Z</time></trkpt>
<trkpt lat="43.0039300000" lon="0.3394330000"><ele>1043</ele><time>2026-03-24T12:29:00Z</time></trkpt>
<trkpt lat="43.0039220000" lon="0.3394670000"><ele>1043</ele><time>2026-03-24T12:29:02Z</time></trkpt>
<trkpt lat="43.0039270000" lon="0.3394970000"><ele>1043</ele><time>2026-03-24T12:29:04Z</time></trkpt>
<trkpt lat="43.0039080000" lon="0.3395150000"><ele>1043</ele><time>2026-03-24T12:29:18Z</time></trkpt>
<trkpt lat="43.0039050000" lon="0.3395470000"><ele>1043</ele><time>2026-03-24T12:29:20Z</time></trkpt>
<trkpt lat="43.0038950000" lon="0.3395850000"><ele>1043</ele><time>2026-03-24T12:29:22Z</time></trkpt>
<trkpt lat="43.0038820000" lon="0.3396180000"><ele>1042</ele><time>2026-03-24T12:29:24Z</time></trkpt>
<trkpt lat="43.0038720000" lon="0.3396520000"><ele>1042</ele><time>2026-03-24T12:29:26Z</time></trkpt>
<trkpt lat="43.0038650000" lon="0.3396800000"><ele>1042</ele><time>2026-03-24T12:29:28Z</time></trkpt>
<trkpt lat="43.0038570000" lon="0.3397070000"><ele>1042</ele><time>2026-03-24T12:29:30Z</time></trkpt>
<trkpt lat="43.0038520000" lon="0.3397320000"><ele>1042</ele><time>2026-03-24T12:29:32Z</time></trkpt>
<trkpt lat="43.0038470000" lon="0.3397570000"><ele>1042</ele><time>2026-03-24T12:29:34Z</time></trkpt>
<trkpt lat="43.0038380000" lon="0.3397850000"><ele>1042</ele><time>2026-03-24T12:29:36Z</time></trkpt>
<trkpt lat="43.0038370000" lon="0.3398120000"><ele>1042</ele><time>2026-03-24T12:29:38Z</time></trkpt>
<trkpt lat="43.0038300000" lon="0.3398420000"><ele>1042</ele><time>2026-03-24T12:29:40Z</time></trkpt>
<trkpt lat="43.0038220000" lon="0.3398770000"><ele>1042</ele><time>2026-03-24T12:29:43Z</time></trkpt>
<trkpt lat="43.0038170000" lon="0.3399070000"><ele>1042</ele><time>2026-03-24T12:29:45Z</time></trkpt>
<trkpt lat="43.0038120000" lon="0.3399330000"><ele>1041</ele><time>2026-03-24T12:29:47Z</time></trkpt>
<trkpt lat="43.0038070000" lon="0.3399620000"><ele>1041</ele><time>2026-03-24T12:29:49Z</time></trkpt>
<trkpt lat="43.0038020000" lon="0.3399900000"><ele>1041</ele><time>2026-03-24T12:29:51Z</time></trkpt>
<trkpt lat="43.0037970000" lon="0.3400170000"><ele>1041</ele><time>2026-03-24T12:29:53Z</time></trkpt>
<trkpt lat="43.0037870000" lon="0.3400420000"><ele>1041</ele><time>2026-03-24T12:29:55Z</time></trkpt>
<trkpt lat="43.0037770000" lon="0.3400680000"><ele>1040</ele><time>2026-03-24T12:29:57Z</time></trkpt>
<trkpt lat="43.0037670000" lon="0.3400950000"><ele>1040</ele><time>2026-03-24T12:29:59Z</time></trkpt>
<trkpt lat="43.0037620000" lon="0.3401220000"><ele>1040</ele><time>2026-03-24T12:30:01Z</time></trkpt>
<trkpt lat="43.0037530000" lon="0.3401470000"><ele>1040</ele><time>2026-03-24T12:30:03Z</time></trkpt>
<trkpt lat="43.0037470000" lon="0.3401720000"><ele>1040</ele><time>2026-03-24T12:30:05Z</time></trkpt>
<trkpt lat="43.0037370000" lon="0.3402000000"><ele>1040</ele><time>2026-03-24T12:30:07Z</time></trkpt>
<trkpt lat="43.0037270000" lon="0.3402220000"><ele>1039</ele><time>2026-03-24T12:30:09Z</time></trkpt>
<trkpt lat="43.0037120000" lon="0.3402530000"><ele>1039</ele><time>2026-03-24T12:30:12Z</time></trkpt>
<trkpt lat="43.0037020000" lon="0.3402770000"><ele>1039</ele><time>2026-03-24T12:30:14Z</time></trkpt>
<trkpt lat="43.0036920000" lon="0.3403120000"><ele>1039</ele><time>2026-03-24T12:30:16Z</time></trkpt>
<trkpt lat="43.0036820000" lon="0.3403450000"><ele>1039</ele><time>2026-03-24T12:30:18Z</time></trkpt>
<trkpt lat="43.0036670000" lon="0.3403720000"><ele>1039</ele><time>2026-03-24T12:30:20Z</time></trkpt>
<trkpt lat="43.0036570000" lon="0.3404020000"><ele>1038</ele><time>2026-03-24T12:30:22Z</time></trkpt>
<trkpt lat="43.0036520000" lon="0.3404270000"><ele>1038</ele><time>2026-03-24T12:30:24Z</time></trkpt>
<trkpt lat="43.0036470000" lon="0.3404520000"><ele>1038</ele><time>2026-03-24T12:30:26Z</time></trkpt>
<trkpt lat="43.0036350000" lon="0.3404770000"><ele>1038</ele><time>2026-03-24T12:30:28Z</time></trkpt>
<trkpt lat="43.0036220000" lon="0.3405030000"><ele>1037</ele><time>2026-03-24T12:30:30Z</time></trkpt>
<trkpt lat="43.0036170000" lon="0.3405270000"><ele>1037</ele><time>2026-03-24T12:30:32Z</time></trkpt>
<trkpt lat="43.0036000000" lon="0.3405500000"><ele>1037</ele><time>2026-03-24T12:30:34Z</time></trkpt>
<trkpt lat="43.0035870000" lon="0.3405720000"><ele>1037</ele><time>2026-03-24T12:30:36Z</time></trkpt>
<trkpt lat="43.0035770000" lon="0.3405920000"><ele>1037</ele><time>2026-03-24T12:30:38Z</time></trkpt>
<trkpt lat="43.0035700000" lon="0.3406220000"><ele>1037</ele><time>2026-03-24T12:30:40Z</time></trkpt>
<trkpt lat="43.0035550000" lon="0.3406420000"><ele>1036</ele><time>2026-03-24T12:30:42Z</time></trkpt>
<trkpt lat="43.0035320000" lon="0.3406650000"><ele>1036</ele><time>2026-03-24T12:30:45Z</time></trkpt>
<trkpt lat="43.0035200000" lon="0.3406880000"><ele>1036</ele><time>2026-03-24T12:30:47Z</time></trkpt>
<trkpt lat="43.0035070000" lon="0.3407100000"><ele>1036</ele><time>2026-03-24T12:30:49Z</time></trkpt>
<trkpt lat="43.0034900000" lon="0.3407220000"><ele>1035</ele><time>2026-03-24T12:30:51Z</time></trkpt>
<trkpt lat="43.0034770000" lon="0.3407420000"><ele>1035</ele><time>2026-03-24T12:30:53Z</time></trkpt>
<trkpt lat="43.0034570000" lon="0.3407600000"><ele>1035</ele><time>2026-03-24T12:30:55Z</time></trkpt>
<trkpt lat="43.0034420000" lon="0.3407870000"><ele>1035</ele><time>2026-03-24T12:30:57Z</time></trkpt>
<trkpt lat="43.0034320000" lon="0.3408120000"><ele>1035</ele><time>2026-03-24T12:30:59Z</time></trkpt>
<trkpt lat="43.0034270000" lon="0.3408370000"><ele>1034</ele><time>2026-03-24T12:31:01Z</time></trkpt>
<trkpt lat="43.0034220000" lon="0.3408700000"><ele>1034</ele><time>2026-03-24T12:31:04Z</time></trkpt>
<trkpt lat="43.0034270000" lon="0.3409070000"><ele>1034</ele><time>2026-03-24T12:31:07Z</time></trkpt>
<trkpt lat="43.0034320000" lon="0.3409420000"><ele>1033</ele><time>2026-03-24T12:31:10Z</time></trkpt>
<trkpt lat="43.0034470000" lon="0.3409670000"><ele>1033</ele><time>2026-03-24T12:31:12Z</time></trkpt>
<trkpt lat="43.0034420000" lon="0.3409920000"><ele>1033</ele><time>2026-03-24T12:31:17Z</time></trkpt>
<trkpt lat="43.0034420000" lon="0.3410220000"><ele>1033</ele><time>2026-03-24T12:31:20Z</time></trkpt>
<trkpt lat="43.0034420000" lon="0.3410470000"><ele>1033</ele><time>2026-03-24T12:31:22Z</time></trkpt>
<trkpt lat="43.0034350000" lon="0.3410770000"><ele>1032</ele><time>2026-03-24T12:31:24Z</time></trkpt>
<trkpt lat="43.0034220000" lon="0.3411120000"><ele>1032</ele><time>2026-03-24T12:31:26Z</time></trkpt>
<trkpt lat="43.0034250000" lon="0.3411430000"><ele>1032</ele><time>2026-03-24T12:31:28Z</time></trkpt>
<trkpt lat="43.0034300000" lon="0.3411870000"><ele>1032</ele><time>2026-03-24T12:31:30Z</time></trkpt>
<trkpt lat="43.0034350000" lon="0.3412220000"><ele>1032</ele><time>2026-03-24T12:31:32Z</time></trkpt>
<trkpt lat="43.0034400000" lon="0.3412600000"><ele>1032</ele><time>2026-03-24T12:31:34Z</time></trkpt>
<trkpt lat="43.0034550000" lon="0.3412770000"><ele>1031</ele><time>2026-03-24T12:31:37Z</time></trkpt>
<trkpt lat="43.0034520000" lon="0.3413120000"><ele>1031</ele><time>2026-03-24T12:31:59Z</time></trkpt>
<trkpt lat="43.0034570000" lon="0.3413520000"><ele>1030</ele><time>2026-03-24T12:32:01Z</time></trkpt>
<trkpt lat="43.0034670000" lon="0.3413820000"><ele>1030</ele><time>2026-03-24T12:32:03Z</time></trkpt>
<trkpt lat="43.0034670000" lon="0.3414200000"><ele>1030</ele><time>2026-03-24T12:32:05Z</time></trkpt>
<trkpt lat="43.0034770000" lon="0.3414550000"><ele>1030</ele><time>2026-03-24T12:32:07Z</time></trkpt>
<trkpt lat="43.0034720000" lon="0.3414900000"><ele>1030</ele><time>2026-03-24T12:32:09Z</time></trkpt>
<trkpt lat="43.0034670000" lon="0.3415180000"><ele>1030</ele><time>2026-03-24T12:32:11Z</time></trkpt>
<trkpt lat="43.0034570000" lon="0.3415470000"><ele>1029</ele><time>2026-03-24T12:32:13Z</time></trkpt>
<trkpt lat="43.0034520000" lon="0.3415720000"><ele>1029</ele><time>2026-03-24T12:32:15Z</time></trkpt>
<trkpt lat="43.0034420000" lon="0.3416000000"><ele>1029</ele><time>2026-03-24T12:32:17Z</time></trkpt>
<trkpt lat="43.0034320000" lon="0.3416270000"><ele>1029</ele><time>2026-03-24T12:32:19Z</time></trkpt>
<trkpt lat="43.0034250000" lon="0.3416570000"><ele>1028</ele><time>2026-03-24T12:32:21Z</time></trkpt>
<trkpt lat="43.0034100000" lon="0.3416770000"><ele>1027</ele><time>2026-03-24T12:32:47Z</time></trkpt>
<trkpt lat="43.0034070000" lon="0.3417200000"><ele>1027</ele><time>2026-03-24T12:32:49Z</time></trkpt>
<trkpt lat="43.0034000000" lon="0.3417570000"><ele>1027</ele><time>2026-03-24T12:32:51Z</time></trkpt>
<trkpt lat="43.0033950000" lon="0.3417950000"><ele>1027</ele><time>2026-03-24T12:32:53Z</time></trkpt>
<trkpt lat="43.0033950000" lon="0.3418270000"><ele>1026</ele><time>2026-03-24T12:32:55Z</time></trkpt>
<trkpt lat="43.0033970000" lon="0.3418520000"><ele>1026</ele><time>2026-03-24T12:32:57Z</time></trkpt>
<trkpt lat="43.0033900000" lon="0.3418820000"><ele>1025</ele><time>2026-03-24T12:33:00Z</time></trkpt>
<trkpt lat="43.0033820000" lon="0.3419170000"><ele>1025</ele><time>2026-03-24T12:33:03Z</time></trkpt>
<trkpt lat="43.0033770000" lon="0.3419550000"><ele>1025</ele><time>2026-03-24T12:33:06Z</time></trkpt>
<trkpt lat="43.0033720000" lon="0.3419870000"><ele>1025</ele><time>2026-03-24T12:33:08Z</time></trkpt>
<trkpt lat="43.0033650000" lon="0.3420150000"><ele>1024</ele><time>2026-03-24T12:33:10Z</time></trkpt>
<trkpt lat="43.0033620000" lon="0.3420450000"><ele>1024</ele><time>2026-03-24T12:33:12Z</time></trkpt>
<trkpt lat="43.0033570000" lon="0.3420770000"><ele>1024</ele><time>2026-03-24T12:33:14Z</time></trkpt>
<trkpt lat="43.0033500000" lon="0.3421050000"><ele>1023</ele><time>2026-03-24T12:33:16Z</time></trkpt>
<trkpt lat="43.0033450000" lon="0.3421350000"><ele>1023</ele><time>2026-03-24T12:33:18Z</time></trkpt>
<trkpt lat="43.0033420000" lon="0.3421720000"><ele>1022</ele><time>2026-03-24T12:33:21Z</time></trkpt>
<trkpt lat="43.0033400000" lon="0.3421970000"><ele>1022</ele><time>2026-03-24T12:33:23Z</time></trkpt>
<trkpt lat="43.0033420000" lon="0.3422270000"><ele>1022</ele><time>2026-03-24T12:33:25Z</time></trkpt>
<trkpt lat="43.0033420000" lon="0.3422530000"><ele>1021</ele><time>2026-03-24T12:33:27Z</time></trkpt>
<trkpt lat="43.0033420000" lon="0.3422820000"><ele>1021</ele><time>2026-03-24T12:33:29Z</time></trkpt>
<trkpt lat="43.0033420000" lon="0.3423120000"><ele>1021</ele><time>2026-03-24T12:33:31Z</time></trkpt>
<trkpt lat="43.0033470000" lon="0.3423380000"><ele>1021</ele><time>2026-03-24T12:33:33Z</time></trkpt>
<trkpt lat="43.0033500000" lon="0.3423720000"><ele>1020</ele><time>2026-03-24T12:33:35Z</time></trkpt>
<trkpt lat="43.0033470000" lon="0.3424100000"><ele>1020</ele><time>2026-03-24T12:33:37Z</time></trkpt>
<trkpt lat="43.0033420000" lon="0.3424400000"><ele>1020</ele><time>2026-03-24T12:33:39Z</time></trkpt>
<trkpt lat="43.0033420000" lon="0.3424670000"><ele>1019</ele><time>2026-03-24T12:33:41Z</time></trkpt>
<trkpt lat="43.0033420000" lon="0.3424920000"><ele>1019</ele><time>2026-03-24T12:33:43Z</time></trkpt>
<trkpt lat="43.0033400000" lon="0.3425270000"><ele>1019</ele><time>2026-03-24T12:33:45Z</time></trkpt>
<trkpt lat="43.0033420000" lon="0.3425620000"><ele>1019</ele><time>2026-03-24T12:33:47Z</time></trkpt>
<trkpt lat="43.0033420000" lon="0.3425920000"><ele>1018</ele><time>2026-03-24T12:33:49Z</time></trkpt>
<trkpt lat="43.0033370000" lon="0.3426180000"><ele>1018</ele><time>2026-03-24T12:33:51Z</time></trkpt>
<trkpt lat="43.0033320000" lon="0.3426500000"><ele>1018</ele><time>2026-03-24T12:33:53Z</time></trkpt>
<trkpt lat="43.0033300000" lon="0.3426780000"><ele>1017</ele><time>2026-03-24T12:33:55Z</time></trkpt>
<trkpt lat="43.0033250000" lon="0.3427100000"><ele>1017</ele><time>2026-03-24T12:33:57Z</time></trkpt>
<trkpt lat="43.0033120000" lon="0.3427370000"><ele>1017</ele><time>2026-03-24T12:33:59Z</time></trkpt>
<trkpt lat="43.0033030000" lon="0.3427670000"><ele>1017</ele><time>2026-03-24T12:34:01Z</time></trkpt>
<trkpt lat="43.0032970000" lon="0.3427950000"><ele>1016</ele><time>2026-03-24T12:34:03Z</time></trkpt>
<trkpt lat="43.0032870000" lon="0.3428220000"><ele>1016</ele><time>2026-03-24T12:34:05Z</time></trkpt>
<trkpt lat="43.0032770000" lon="0.3428470000"><ele>1016</ele><time>2026-03-24T12:34:07Z</time></trkpt>
<trkpt lat="43.0032620000" lon="0.3428720000"><ele>1016</ele><time>2026-03-24T12:34:09Z</time></trkpt>
<trkpt lat="43.0032520000" lon="0.3428950000"><ele>1015</ele><time>2026-03-24T12:34:11Z</time></trkpt>
<trkpt lat="43.0032470000" lon="0.3429220000"><ele>1015</ele><time>2026-03-24T12:34:13Z</time></trkpt>
<trkpt lat="43.0032370000" lon="0.3429520000"><ele>1015</ele><time>2026-03-24T12:34:15Z</time></trkpt>
<trkpt lat="43.0032300000" lon="0.3429800000"><ele>1014</ele><time>2026-03-24T12:34:17Z</time></trkpt>
<trkpt lat="43.0032170000" lon="0.3430070000"><ele>1014</ele><time>2026-03-24T12:34:19Z</time></trkpt>
<trkpt lat="43.0032050000" lon="0.3430320000"><ele>1014</ele><time>2026-03-24T12:34:21Z</time></trkpt>
<trkpt lat="43.0031920000" lon="0.3430570000"><ele>1014</ele><time>2026-03-24T12:34:23Z</time></trkpt>
<trkpt lat="43.0031850000" lon="0.3430830000"><ele>1013</ele><time>2026-03-24T12:34:25Z</time></trkpt>
<trkpt lat="43.0031720000" lon="0.3431100000"><ele>1013</ele><time>2026-03-24T12:34:27Z</time></trkpt>
<trkpt lat="43.0031620000" lon="0.3431320000"><ele>1013</ele><time>2026-03-24T12:34:29Z</time></trkpt>
<trkpt lat="43.0031470000" lon="0.3431570000"><ele>1012</ele><time>2026-03-24T12:34:31Z</time></trkpt>
<trkpt lat="43.0031370000" lon="0.3431850000"><ele>1012</ele><time>2026-03-24T12:34:33Z</time></trkpt>
<trkpt lat="43.0031220000" lon="0.3432070000"><ele>1011</ele><time>2026-03-24T12:34:35Z</time></trkpt>
<trkpt lat="43.0031120000" lon="0.3432270000"><ele>1011</ele><time>2026-03-24T12:34:37Z</time></trkpt>
<trkpt lat="43.0031020000" lon="0.3432520000"><ele>1011</ele><time>2026-03-24T12:34:39Z</time></trkpt>
<trkpt lat="43.0030920000" lon="0.3432780000"><ele>1011</ele><time>2026-03-24T12:34:41Z</time></trkpt>
<trkpt lat="43.0030780000" lon="0.3433120000"><ele>1010</ele><time>2026-03-24T12:34:44Z</time></trkpt>
<trkpt lat="43.0030700000" lon="0.3433370000"><ele>1010</ele><time>2026-03-24T12:34:46Z</time></trkpt>
<trkpt lat="43.0030570000" lon="0.3433620000"><ele>1010</ele><time>2026-03-24T12:34:48Z</time></trkpt>
<trkpt lat="43.0030470000" lon="0.3433880000"><ele>1009</ele><time>2026-03-24T12:34:50Z</time></trkpt>
<trkpt lat="43.0030370000" lon="0.3434170000"><ele>1009</ele><time>2026-03-24T12:34:52Z</time></trkpt>
<trkpt lat="43.0030220000" lon="0.3434420000"><ele>1009</ele><time>2026-03-24T12:34:54Z</time></trkpt>
<trkpt lat="43.0030120000" lon="0.3434720000"><ele>1008</ele><time>2026-03-24T12:34:56Z</time></trkpt>
<trkpt lat="43.0030020000" lon="0.3435020000"><ele>1008</ele><time>2026-03-24T12:34:58Z</time></trkpt>
<trkpt lat="43.0029900000" lon="0.3435220000"><ele>1008</ele><time>2026-03-24T12:35:00Z</time></trkpt>
<trkpt lat="43.0029770000" lon="0.3435470000"><ele>1007</ele><time>2026-03-24T12:35:02Z</time></trkpt>
<trkpt lat="43.0029670000" lon="0.3435720000"><ele>1007</ele><time>2026-03-24T12:35:04Z</time></trkpt>
<trkpt lat="43.0029520000" lon="0.3435920000"><ele>1007</ele><time>2026-03-24T12:35:06Z</time></trkpt>
<trkpt lat="43.0029400000" lon="0.3436120000"><ele>1006</ele><time>2026-03-24T12:35:08Z</time></trkpt>
<trkpt lat="43.0029270000" lon="0.3436370000"><ele>1006</ele><time>2026-03-24T12:35:10Z</time></trkpt>
<trkpt lat="43.0029150000" lon="0.3436620000"><ele>1006</ele><time>2026-03-24T12:35:12Z</time></trkpt>
<trkpt lat="43.0029000000" lon="0.3436870000"><ele>1006</ele><time>2026-03-24T12:35:14Z</time></trkpt>
<trkpt lat="43.0028850000" lon="0.3437120000"><ele>1005</ele><time>2026-03-24T12:35:16Z</time></trkpt>
<trkpt lat="43.0028720000" lon="0.3437350000"><ele>1005</ele><time>2026-03-24T12:35:18Z</time></trkpt>
<trkpt lat="43.0028530000" lon="0.3437570000"><ele>1005</ele><time>2026-03-24T12:35:20Z</time></trkpt>
<trkpt lat="43.0028400000" lon="0.3437750000"><ele>1005</ele><time>2026-03-24T12:35:22Z</time></trkpt>
<trkpt lat="43.0028220000" lon="0.3437920000"><ele>1004</ele><time>2026-03-24T12:35:24Z</time></trkpt>
<trkpt lat="43.0028070000" lon="0.3438130000"><ele>1004</ele><time>2026-03-24T12:35:26Z</time></trkpt>
<trkpt lat="43.0027950000" lon="0.3438400000"><ele>1004</ele><time>2026-03-24T12:35:28Z</time></trkpt>
<trkpt lat="43.0027800000" lon="0.3438630000"><ele>1004</ele><time>2026-03-24T12:35:30Z</time></trkpt>
<trkpt lat="43.0027620000" lon="0.3439020000"><ele>1003</ele><time>2026-03-24T12:35:32Z</time></trkpt>
<trkpt lat="43.0027470000" lon="0.3439300000"><ele>1003</ele><time>2026-03-24T12:35:34Z</time></trkpt>
<trkpt lat="43.0027370000" lon="0.3439550000"><ele>1003</ele><time>2026-03-24T12:35:36Z</time></trkpt>
<trkpt lat="43.0027250000" lon="0.3439770000"><ele>1002</ele><time>2026-03-24T12:35:38Z</time></trkpt>
<trkpt lat="43.0027100000" lon="0.3440020000"><ele>1002</ele><time>2026-03-24T12:35:40Z</time></trkpt>
<trkpt lat="43.0026980000" lon="0.3440270000"><ele>1002</ele><time>2026-03-24T12:35:42Z</time></trkpt>
<trkpt lat="43.0026920000" lon="0.3440550000"><ele>1002</ele><time>2026-03-24T12:35:44Z</time></trkpt>
<trkpt lat="43.0026800000" lon="0.3440820000"><ele>1001</ele><time>2026-03-24T12:35:46Z</time></trkpt>
<trkpt lat="43.0026700000" lon="0.3441070000"><ele>1001</ele><time>2026-03-24T12:35:48Z</time></trkpt>
<trkpt lat="43.0026570000" lon="0.3441320000"><ele>1001</ele><time>2026-03-24T12:35:50Z</time></trkpt>
<trkpt lat="43.0026470000" lon="0.3441620000"><ele>1000</ele><time>2026-03-24T12:35:52Z</time></trkpt>
<trkpt lat="43.0026400000" lon="0.3441920000"><ele>1000</ele><time>2026-03-24T12:35:54Z</time></trkpt>
<trkpt lat="43.0026320000" lon="0.3442170000"><ele>1000</ele><time>2026-03-24T12:35:56Z</time></trkpt>
<trkpt lat="43.0026220000" lon="0.3442450000"><ele>999</ele><time>2026-03-24T12:35:58Z</time></trkpt>
<trkpt lat="43.0026120000" lon="0.3442720000"><ele>999</ele><time>2026-03-24T12:36:00Z</time></trkpt>
<trkpt lat="43.0026020000" lon="0.3443020000"><ele>999</ele><time>2026-03-24T12:36:02Z</time></trkpt>
<trkpt lat="43.0025920000" lon="0.3443320000"><ele>999</ele><time>2026-03-24T12:36:04Z</time></trkpt>
<trkpt lat="43.0025850000" lon="0.3443600000"><ele>998</ele><time>2026-03-24T12:36:06Z</time></trkpt>
<trkpt lat="43.0025750000" lon="0.3443870000"><ele>998</ele><time>2026-03-24T12:36:08Z</time></trkpt>
<trkpt lat="43.0025700000" lon="0.3444220000"><ele>998</ele><time>2026-03-24T12:36:10Z</time></trkpt>
<trkpt lat="43.0025620000" lon="0.3444520000"><ele>997</ele><time>2026-03-24T12:36:12Z</time></trkpt>
<trkpt lat="43.0025550000" lon="0.3444820000"><ele>997</ele><time>2026-03-24T12:36:14Z</time></trkpt>
<trkpt lat="43.0025470000" lon="0.3445120000"><ele>997</ele><time>2026-03-24T12:36:16Z</time></trkpt>
<trkpt lat="43.0025350000" lon="0.3445370000"><ele>996</ele><time>2026-03-24T12:36:18Z</time></trkpt>
<trkpt lat="43.0025270000" lon="0.3445620000"><ele>996</ele><time>2026-03-24T12:36:20Z</time></trkpt>
<trkpt lat="43.0025200000" lon="0.3445900000"><ele>996</ele><time>2026-03-24T12:36:22Z</time></trkpt>
<trkpt lat="43.0025070000" lon="0.3446170000"><ele>996</ele><time>2026-03-24T12:36:24Z</time></trkpt>
<trkpt lat="43.0024950000" lon="0.3446430000"><ele>995</ele><time>2026-03-24T12:36:26Z</time></trkpt>
<trkpt lat="43.0024870000" lon="0.3446720000"><ele>995</ele><time>2026-03-24T12:36:28Z</time></trkpt>
<trkpt lat="43.0024720000" lon="0.3447000000"><ele>995</ele><time>2026-03-24T12:36:30Z</time></trkpt>
<trkpt lat="43.0024570000" lon="0.3447270000"><ele>994</ele><time>2026-03-24T12:36:32Z</time></trkpt>
<trkpt lat="43.0024450000" lon="0.3447530000"><ele>994</ele><time>2026-03-24T12:36:34Z</time></trkpt>
<trkpt lat="43.0024370000" lon="0.3447770000"><ele>994</ele><time>2026-03-24T12:36:36Z</time></trkpt>
<trkpt lat="43.0024250000" lon="0.3448020000"><ele>994</ele><time>2026-03-24T12:36:38Z</time></trkpt>
<trkpt lat="43.0024150000" lon="0.3448250000"><ele>993</ele><time>2026-03-24T12:36:40Z</time></trkpt>
<trkpt lat="43.0024000000" lon="0.3448470000"><ele>993</ele><time>2026-03-24T12:36:42Z</time></trkpt>
<trkpt lat="43.0023870000" lon="0.3448750000"><ele>993</ele><time>2026-03-24T12:36:44Z</time></trkpt>
<trkpt lat="43.0023720000" lon="0.3449020000"><ele>992</ele><time>2026-03-24T12:36:46Z</time></trkpt>
<trkpt lat="43.0023650000" lon="0.3449320000"><ele>992</ele><time>2026-03-24T12:36:48Z</time></trkpt>
<trkpt lat="43.0023570000" lon="0.3449600000"><ele>992</ele><time>2026-03-24T12:36:50Z</time></trkpt>
<trkpt lat="43.0023470000" lon="0.3449870000"><ele>991</ele><time>2026-03-24T12:36:52Z</time></trkpt>
<trkpt lat="43.0023420000" lon="0.3450170000"><ele>991</ele><time>2026-03-24T12:36:54Z</time></trkpt>
<trkpt lat="43.0023370000" lon="0.3450420000"><ele>991</ele><time>2026-03-24T12:36:56Z</time></trkpt>
<trkpt lat="43.0023270000" lon="0.3450720000"><ele>991</ele><time>2026-03-24T12:36:58Z</time></trkpt>
<trkpt lat="43.0023180000" lon="0.3450970000"><ele>991</ele><time>2026-03-24T12:37:00Z</time></trkpt>
<trkpt lat="43.0023120000" lon="0.3451220000"><ele>990</ele><time>2026-03-24T12:37:02Z</time></trkpt>
<trkpt lat="43.0023070000" lon="0.3451520000"><ele>990</ele><time>2026-03-24T12:37:04Z</time></trkpt>
<trkpt lat="43.0023020000" lon="0.3451770000"><ele>990</ele><time>2026-03-24T12:37:06Z</time></trkpt>
<trkpt lat="43.0022950000" lon="0.3452020000"><ele>989</ele><time>2026-03-24T12:37:08Z</time></trkpt>
<trkpt lat="43.0022820000" lon="0.3452300000"><ele>989</ele><time>2026-03-24T12:37:10Z</time></trkpt>
<trkpt lat="43.0022720000" lon="0.3452570000"><ele>989</ele><time>2026-03-24T12:37:12Z</time></trkpt>
<trkpt lat="43.0022620000" lon="0.3452820000"><ele>989</ele><time>2026-03-24T12:37:14Z</time></trkpt>
<trkpt lat="43.0022550000" lon="0.3453120000"><ele>988</ele><time>2026-03-24T12:37:16Z</time></trkpt>
<trkpt lat="43.0022470000" lon="0.3453380000"><ele>988</ele><time>2026-03-24T12:37:18Z</time></trkpt>
<trkpt lat="43.0022370000" lon="0.3453650000"><ele>988</ele><time>2026-03-24T12:37:20Z</time></trkpt>
<trkpt lat="43.0022320000" lon="0.3453950000"><ele>988</ele><time>2026-03-24T12:37:22Z</time></trkpt>
<trkpt lat="43.0022270000" lon="0.3454220000"><ele>988</ele><time>2026-03-24T12:37:24Z</time></trkpt>
<trkpt lat="43.0022220000" lon="0.3454470000"><ele>987</ele><time>2026-03-24T12:37:26Z</time></trkpt>
<trkpt lat="43.0022120000" lon="0.3454730000"><ele>987</ele><time>2026-03-24T12:37:28Z</time></trkpt>
<trkpt lat="43.0022020000" lon="0.3455020000"><ele>987</ele><time>2026-03-24T12:37:30Z</time></trkpt>
<trkpt lat="43.0021970000" lon="0.3455300000"><ele>986</ele><time>2026-03-24T12:37:32Z</time></trkpt>
<trkpt lat="43.0021870000" lon="0.3455570000"><ele>986</ele><time>2026-03-24T12:37:34Z</time></trkpt>
<trkpt lat="43.0021820000" lon="0.3455820000"><ele>986</ele><time>2026-03-24T12:37:36Z</time></trkpt>
<trkpt lat="43.0021720000" lon="0.3456080000"><ele>985</ele><time>2026-03-24T12:37:38Z</time></trkpt>
<trkpt lat="43.0021600000" lon="0.3456370000"><ele>985</ele><time>2026-03-24T12:37:40Z</time></trkpt>
<trkpt lat="43.0021500000" lon="0.3456650000"><ele>985</ele><time>2026-03-24T12:37:42Z</time></trkpt>
<trkpt lat="43.0021420000" lon="0.3456920000"><ele>985</ele><time>2026-03-24T12:37:44Z</time></trkpt>
<trkpt lat="43.0021320000" lon="0.3457170000"><ele>984</ele><time>2026-03-24T12:37:46Z</time></trkpt>
<trkpt lat="43.0021220000" lon="0.3457420000"><ele>984</ele><time>2026-03-24T12:37:48Z</time></trkpt>
<trkpt lat="43.0021170000" lon="0.3457670000"><ele>984</ele><time>2026-03-24T12:37:50Z</time></trkpt>
<trkpt lat="43.0021100000" lon="0.3457950000"><ele>984</ele><time>2026-03-24T12:37:52Z</time></trkpt>
<trkpt lat="43.0021020000" lon="0.3458230000"><ele>983</ele><time>2026-03-24T12:37:54Z</time></trkpt>
<trkpt lat="43.0020920000" lon="0.3458550000"><ele>983</ele><time>2026-03-24T12:37:56Z</time></trkpt>
<trkpt lat="43.0020800000" lon="0.3458870000"><ele>982</ele><time>2026-03-24T12:37:58Z</time></trkpt>
<trkpt lat="43.0020670000" lon="0.3459130000"><ele>982</ele><time>2026-03-24T12:38:00Z</time></trkpt>
<trkpt lat="43.0020620000" lon="0.3459420000"><ele>982</ele><time>2026-03-24T12:38:02Z</time></trkpt>
<trkpt lat="43.0020520000" lon="0.3459650000"><ele>981</ele><time>2026-03-24T12:38:04Z</time></trkpt>
<trkpt lat="43.0020420000" lon="0.3459920000"><ele>981</ele><time>2026-03-24T12:38:06Z</time></trkpt>
<trkpt lat="43.0020320000" lon="0.3460220000"><ele>980</ele><time>2026-03-24T12:38:08Z</time></trkpt>
<trkpt lat="43.0020270000" lon="0.3460620000"><ele>980</ele><time>2026-03-24T12:38:10Z</time></trkpt>
<trkpt lat="43.0020170000" lon="0.3460920000"><ele>980</ele><time>2026-03-24T12:38:12Z</time></trkpt>
<trkpt lat="43.0020070000" lon="0.3461170000"><ele>979</ele><time>2026-03-24T12:38:14Z</time></trkpt>
<trkpt lat="43.0020000000" lon="0.3461400000"><ele>979</ele><time>2026-03-24T12:38:16Z</time></trkpt>
<trkpt lat="43.0019920000" lon="0.3461670000"><ele>979</ele><time>2026-03-24T12:38:18Z</time></trkpt>
<trkpt lat="43.0019850000" lon="0.3461930000"><ele>978</ele><time>2026-03-24T12:38:20Z</time></trkpt>
<trkpt lat="43.0019720000" lon="0.3462200000"><ele>978</ele><time>2026-03-24T12:38:22Z</time></trkpt>
<trkpt lat="43.0019620000" lon="0.3462420000"><ele>978</ele><time>2026-03-24T12:38:24Z</time></trkpt>
<trkpt lat="43.0019500000" lon="0.3462650000"><ele>978</ele><time>2026-03-24T12:38:26Z</time></trkpt>
<trkpt lat="43.0019370000" lon="0.3462920000"><ele>977</ele><time>2026-03-24T12:38:28Z</time></trkpt>
<trkpt lat="43.0019250000" lon="0.3463170000"><ele>977</ele><time>2026-03-24T12:38:30Z</time></trkpt>
<trkpt lat="43.0019120000" lon="0.3463470000"><ele>977</ele><time>2026-03-24T12:38:32Z</time></trkpt>
<trkpt lat="43.0019020000" lon="0.3463720000"><ele>976</ele><time>2026-03-24T12:38:34Z</time></trkpt>
<trkpt lat="43.0018920000" lon="0.3464020000"><ele>976</ele><time>2026-03-24T12:38:36Z</time></trkpt>
<trkpt lat="43.0018820000" lon="0.3464300000"><ele>976</ele><time>2026-03-24T12:38:38Z</time></trkpt>
<trkpt lat="43.0018750000" lon="0.3464550000"><ele>976</ele><time>2026-03-24T12:38:40Z</time></trkpt>
<trkpt lat="43.0018670000" lon="0.3464820000"><ele>975</ele><time>2026-03-24T12:38:42Z</time></trkpt>
<trkpt lat="43.0018550000" lon="0.3465120000"><ele>975</ele><time>2026-03-24T12:38:44Z</time></trkpt>
<trkpt lat="43.0018470000" lon="0.3465420000"><ele>975</ele><time>2026-03-24T12:38:46Z</time></trkpt>
<trkpt lat="43.0018370000" lon="0.3465720000"><ele>975</ele><time>2026-03-24T12:38:48Z</time></trkpt>
<trkpt lat="43.0018270000" lon="0.3465970000"><ele>974</ele><time>2026-03-24T12:38:50Z</time></trkpt>
<trkpt lat="43.0018170000" lon="0.3466270000"><ele>974</ele><time>2026-03-24T12:38:52Z</time></trkpt>
<trkpt lat="43.0018100000" lon="0.3466570000"><ele>974</ele><time>2026-03-24T12:38:54Z</time></trkpt>
<trkpt lat="43.0017970000" lon="0.3466870000"><ele>974</ele><time>2026-03-24T12:38:56Z</time></trkpt>
<trkpt lat="43.0017870000" lon="0.3467180000"><ele>973</ele><time>2026-03-24T12:38:58Z</time></trkpt>
<trkpt lat="43.0017770000" lon="0.3467520000"><ele>973</ele><time>2026-03-24T12:39:00Z</time></trkpt>
<trkpt lat="43.0017670000" lon="0.3467770000"><ele>973</ele><time>2026-03-24T12:39:02Z</time></trkpt>
<trkpt lat="43.0017620000" lon="0.3468020000"><ele>973</ele><time>2026-03-24T12:39:04Z</time></trkpt>
<trkpt lat="43.0017500000" lon="0.3468370000"><ele>973</ele><time>2026-03-24T12:39:06Z</time></trkpt>
<trkpt lat="43.0017370000" lon="0.3468700000"><ele>973</ele><time>2026-03-24T12:39:08Z</time></trkpt>
<trkpt lat="43.0017300000" lon="0.3469020000"><ele>972</ele><time>2026-03-24T12:39:10Z</time></trkpt>
<trkpt lat="43.0017200000" lon="0.3469320000"><ele>972</ele><time>2026-03-24T12:39:12Z</time></trkpt>
<trkpt lat="43.0017020000" lon="0.3469550000"><ele>972</ele><time>2026-03-24T12:39:14Z</time></trkpt>
<trkpt lat="43.0016900000" lon="0.3469820000"><ele>972</ele><time>2026-03-24T12:39:17Z</time></trkpt>
<trkpt lat="43.0016820000" lon="0.3470070000"><ele>972</ele><time>2026-03-24T12:39:19Z</time></trkpt>
<trkpt lat="43.0016720000" lon="0.3470450000"><ele>971</ele><time>2026-03-24T12:39:21Z</time></trkpt>
<trkpt lat="43.0016620000" lon="0.3470820000"><ele>971</ele><time>2026-03-24T12:39:23Z</time></trkpt>
<trkpt lat="43.0016520000" lon="0.3471150000"><ele>971</ele><time>2026-03-24T12:39:25Z</time></trkpt>
<trkpt lat="43.0016370000" lon="0.3471430000"><ele>971</ele><time>2026-03-24T12:39:27Z</time></trkpt>
<trkpt lat="43.0016250000" lon="0.3471700000"><ele>971</ele><time>2026-03-24T12:39:29Z</time></trkpt>
<trkpt lat="43.0016120000" lon="0.3471920000"><ele>971</ele><time>2026-03-24T12:39:31Z</time></trkpt>
<trkpt lat="43.0016000000" lon="0.3472220000"><ele>971</ele><time>2026-03-24T12:39:33Z</time></trkpt>
<trkpt lat="43.0015870000" lon="0.3472500000"><ele>970</ele><time>2026-03-24T12:39:35Z</time></trkpt>
<trkpt lat="43.0015750000" lon="0.3472770000"><ele>970</ele><time>2026-03-24T12:39:37Z</time></trkpt>
<trkpt lat="43.0015620000" lon="0.3473070000"><ele>970</ele><time>2026-03-24T12:39:39Z</time></trkpt>
<trkpt lat="43.0015500000" lon="0.3473370000"><ele>970</ele><time>2026-03-24T12:39:41Z</time></trkpt>
<trkpt lat="43.0015370000" lon="0.3473670000"><ele>970</ele><time>2026-03-24T12:39:43Z</time></trkpt>
<trkpt lat="43.0015300000" lon="0.3473880000"><ele>970</ele><time>2026-03-24T12:39:45Z</time></trkpt>
<trkpt lat="43.0015170000" lon="0.3474170000"><ele>969</ele><time>2026-03-24T12:39:47Z</time></trkpt>
<trkpt lat="43.0015100000" lon="0.3474470000"><ele>969</ele><time>2026-03-24T12:39:49Z</time></trkpt>
<trkpt lat="43.0015050000" lon="0.3474820000"><ele>969</ele><time>2026-03-24T12:39:51Z</time></trkpt>
<trkpt lat="43.0014950000" lon="0.3475150000"><ele>969</ele><time>2026-03-24T12:39:53Z</time></trkpt>
<trkpt lat="43.0014850000" lon="0.3475500000"><ele>968</ele><time>2026-03-24T12:39:55Z</time></trkpt>
<trkpt lat="43.0014720000" lon="0.3475820000"><ele>968</ele><time>2026-03-24T12:39:57Z</time></trkpt>
<trkpt lat="43.0014570000" lon="0.3476120000"><ele>968</ele><time>2026-03-24T12:39:59Z</time></trkpt>
<trkpt lat="43.0014500000" lon="0.3476470000"><ele>968</ele><time>2026-03-24T12:40:01Z</time></trkpt>
<trkpt lat="43.0014400000" lon="0.3476750000"><ele>968</ele><time>2026-03-24T12:40:03Z</time></trkpt>
<trkpt lat="43.0014300000" lon="0.3477070000"><ele>968</ele><time>2026-03-24T12:40:05Z</time></trkpt>
<trkpt lat="43.0014170000" lon="0.3477350000"><ele>967</ele><time>2026-03-24T12:40:07Z</time></trkpt>
<trkpt lat="43.0014120000" lon="0.3477620000"><ele>967</ele><time>2026-03-24T12:40:10Z</time></trkpt>
<trkpt lat="43.0014220000" lon="0.3477870000"><ele>967</ele><time>2026-03-24T12:40:15Z</time></trkpt>
<trkpt lat="43.0014100000" lon="0.3478170000"><ele>966</ele><time>2026-03-24T12:40:41Z</time></trkpt>
<trkpt lat="43.0014000000" lon="0.3478550000"><ele>966</ele><time>2026-03-24T12:40:43Z</time></trkpt>
<trkpt lat="43.0013950000" lon="0.3478800000"><ele>966</ele><time>2026-03-24T12:40:44Z</time></trkpt>
<trkpt lat="43.0013850000" lon="0.3479200000"><ele>966</ele><time>2026-03-24T12:40:46Z</time></trkpt>
<trkpt lat="43.0013700000" lon="0.3479620000"><ele>966</ele><time>2026-03-24T12:40:48Z</time></trkpt>
<trkpt lat="43.0013570000" lon="0.3479830000"><ele>965</ele><time>2026-03-24T12:40:50Z</time></trkpt>
<trkpt lat="43.0013400000" lon="0.3480120000"><ele>966</ele><time>2026-03-24T12:40:52Z</time></trkpt>
<trkpt lat="43.0013220000" lon="0.3480370000"><ele>966</ele><time>2026-03-24T12:40:54Z</time></trkpt>
<trkpt lat="43.0013020000" lon="0.3480570000"><ele>966</ele><time>2026-03-24T12:40:56Z</time></trkpt>
<trkpt lat="43.0012870000" lon="0.3480870000"><ele>965</ele><time>2026-03-24T12:40:58Z</time></trkpt>
<trkpt lat="43.0012700000" lon="0.3481120000"><ele>965</ele><time>2026-03-24T12:41:00Z</time></trkpt>
<trkpt lat="43.0012600000" lon="0.3481420000"><ele>965</ele><time>2026-03-24T12:41:02Z</time></trkpt>
<trkpt lat="43.0012470000" lon="0.3481680000"><ele>965</ele><time>2026-03-24T12:41:04Z</time></trkpt>
<trkpt lat="43.0012370000" lon="0.3481950000"><ele>964</ele><time>2026-03-24T12:41:06Z</time></trkpt>
<trkpt lat="43.0012250000" lon="0.3482180000"><ele>964</ele><time>2026-03-24T12:41:08Z</time></trkpt>
<trkpt lat="43.0012120000" lon="0.3482420000"><ele>964</ele><time>2026-03-24T12:41:10Z</time></trkpt>
<trkpt lat="43.0011970000" lon="0.3482700000"><ele>964</ele><time>2026-03-24T12:41:12Z</time></trkpt>
<trkpt lat="43.0011850000" lon="0.3482970000"><ele>964</ele><time>2026-03-24T12:41:14Z</time></trkpt>
<trkpt lat="43.0011700000" lon="0.3483220000"><ele>964</ele><time>2026-03-24T12:41:16Z</time></trkpt>
<trkpt lat="43.0011570000" lon="0.3483500000"><ele>964</ele><time>2026-03-24T12:41:18Z</time></trkpt>
<trkpt lat="43.0011450000" lon="0.3483770000"><ele>963</ele><time>2026-03-24T12:41:20Z</time></trkpt>
<trkpt lat="43.0011320000" lon="0.3484020000"><ele>963</ele><time>2026-03-24T12:41:22Z</time></trkpt>
<trkpt lat="43.0011200000" lon="0.3484320000"><ele>963</ele><time>2026-03-24T12:41:24Z</time></trkpt>
<trkpt lat="43.0011080000" lon="0.3484650000"><ele>963</ele><time>2026-03-24T12:41:26Z</time></trkpt>
<trkpt lat="43.0011000000" lon="0.3484950000"><ele>963</ele><time>2026-03-24T12:41:28Z</time></trkpt>
<trkpt lat="43.0010920000" lon="0.3485220000"><ele>962</ele><time>2026-03-24T12:41:30Z</time></trkpt>
<trkpt lat="43.0010850000" lon="0.3485520000"><ele>962</ele><time>2026-03-24T12:41:32Z</time></trkpt>
<trkpt lat="43.0010820000" lon="0.3485820000"><ele>962</ele><time>2026-03-24T12:41:34Z</time></trkpt>
<trkpt lat="43.0010750000" lon="0.3486120000"><ele>962</ele><time>2026-03-24T12:41:36Z</time></trkpt>
<trkpt lat="43.0010670000" lon="0.3486330000"><ele>961</ele><time>2026-03-24T12:41:38Z</time></trkpt>
<trkpt lat="43.0010520000" lon="0.3486570000"><ele>961</ele><time>2026-03-24T12:41:41Z</time></trkpt>
<trkpt lat="43.0010370000" lon="0.3486770000"><ele>961</ele><time>2026-03-24T12:41:43Z</time></trkpt>
<trkpt lat="43.0010320000" lon="0.3487020000"><ele>960</ele><time>2026-03-24T12:41:45Z</time></trkpt>
<trkpt lat="43.0010220000" lon="0.3487370000"><ele>960</ele><time>2026-03-24T12:41:47Z</time></trkpt>
<trkpt lat="43.0010220000" lon="0.3487770000"><ele>959</ele><time>2026-03-24T12:41:49Z</time></trkpt>
<trkpt lat="43.0010270000" lon="0.3488230000"><ele>959</ele><time>2026-03-24T12:41:51Z</time></trkpt>
<trkpt lat="43.0010300000" lon="0.3488500000"><ele>959</ele><time>2026-03-24T12:41:52Z</time></trkpt>
<trkpt lat="43.0010270000" lon="0.3488900000"><ele>959</ele><time>2026-03-24T12:41:54Z</time></trkpt>
<trkpt lat="43.0010270000" lon="0.3489130000"><ele>958</ele><time>2026-03-24T12:41:56Z</time></trkpt>
<trkpt lat="43.0010270000" lon="0.3489380000"><ele>958</ele><time>2026-03-24T12:41:58Z</time></trkpt>
<trkpt lat="43.0010270000" lon="0.3489670000"><ele>958</ele><time>2026-03-24T12:42:00Z</time></trkpt>
<trkpt lat="43.0010270000" lon="0.3489970000"><ele>958</ele><time>2026-03-24T12:42:02Z</time></trkpt>
<trkpt lat="43.0010220000" lon="0.3490270000"><ele>958</ele><time>2026-03-24T12:42:04Z</time></trkpt>
<trkpt lat="43.0010170000" lon="0.3490570000"><ele>957</ele><time>2026-03-24T12:42:06Z</time></trkpt>
<trkpt lat="43.0010170000" lon="0.3490870000"><ele>957</ele><time>2026-03-24T12:42:08Z</time></trkpt>
<trkpt lat="43.0010100000" lon="0.3491150000"><ele>957</ele><time>2026-03-24T12:42:10Z</time></trkpt>
<trkpt lat="43.0010020000" lon="0.3491420000"><ele>957</ele><time>2026-03-24T12:42:12Z</time></trkpt>
<trkpt lat="43.0010000000" lon="0.3491700000"><ele>956</ele><time>2026-03-24T12:42:14Z</time></trkpt>
<trkpt lat="43.0009920000" lon="0.3491970000"><ele>956</ele><time>2026-03-24T12:42:16Z</time></trkpt>
<trkpt lat="43.0009900000" lon="0.3492270000"><ele>956</ele><time>2026-03-24T12:42:18Z</time></trkpt>
<trkpt lat="43.0009870000" lon="0.3492570000"><ele>955</ele><time>2026-03-24T12:42:20Z</time></trkpt>
<trkpt lat="43.0009820000" lon="0.3492880000"><ele>955</ele><time>2026-03-24T12:42:22Z</time></trkpt>
<trkpt lat="43.0009800000" lon="0.3493170000"><ele>955</ele><time>2026-03-24T12:42:24Z</time></trkpt>
<trkpt lat="43.0009770000" lon="0.3493470000"><ele>954</ele><time>2026-03-24T12:42:26Z</time></trkpt>
<trkpt lat="43.0009770000" lon="0.3493820000"><ele>954</ele><time>2026-03-24T12:42:28Z</time></trkpt>
<trkpt lat="43.0009770000" lon="0.3494120000"><ele>954</ele><time>2026-03-24T12:42:30Z</time></trkpt>
<trkpt lat="43.0009750000" lon="0.3494450000"><ele>953</ele><time>2026-03-24T12:42:32Z</time></trkpt>
<trkpt lat="43.0009700000" lon="0.3494770000"><ele>953</ele><time>2026-03-24T12:42:34Z</time></trkpt>
<trkpt lat="43.0009670000" lon="0.3495080000"><ele>953</ele><time>2026-03-24T12:42:36Z</time></trkpt>
<trkpt lat="43.0009620000" lon="0.3495420000"><ele>953</ele><time>2026-03-24T12:42:38Z</time></trkpt>
<trkpt lat="43.0009600000" lon="0.3495720000"><ele>952</ele><time>2026-03-24T12:42:40Z</time></trkpt>
<trkpt lat="43.0009570000" lon="0.3496020000"><ele>952</ele><time>2026-03-24T12:42:42Z</time></trkpt>
<trkpt lat="43.0009530000" lon="0.3496320000"><ele>952</ele><time>2026-03-24T12:42:44Z</time></trkpt>
<trkpt lat="43.0009520000" lon="0.3496620000"><ele>951</ele><time>2026-03-24T12:42:46Z</time></trkpt>
<trkpt lat="43.0009470000" lon="0.3496930000"><ele>951</ele><time>2026-03-24T12:42:48Z</time></trkpt>
<trkpt lat="43.0009400000" lon="0.3497220000"><ele>951</ele><time>2026-03-24T12:42:50Z</time></trkpt>
<trkpt lat="43.0009300000" lon="0.3497470000"><ele>951</ele><time>2026-03-24T12:42:52Z</time></trkpt>
<trkpt lat="43.0009250000" lon="0.3497770000"><ele>950</ele><time>2026-03-24T12:42:54Z</time></trkpt>
<trkpt lat="43.0009200000" lon="0.3498020000"><ele>950</ele><time>2026-03-24T12:42:56Z</time></trkpt>
<trkpt lat="43.0009150000" lon="0.3498320000"><ele>950</ele><time>2026-03-24T12:42:58Z</time></trkpt>
<trkpt lat="43.0009150000" lon="0.3498620000"><ele>949</ele><time>2026-03-24T12:43:00Z</time></trkpt>
<trkpt lat="43.0009170000" lon="0.3498970000"><ele>949</ele><time>2026-03-24T12:43:02Z</time></trkpt>
<trkpt lat="43.0009120000" lon="0.3499270000"><ele>949</ele><time>2026-03-24T12:43:04Z</time></trkpt>
<trkpt lat="43.0009120000" lon="0.3499620000"><ele>949</ele><time>2026-03-24T12:43:06Z</time></trkpt>
<trkpt lat="43.0009170000" lon="0.3500000000"><ele>948</ele><time>2026-03-24T12:43:08Z</time></trkpt>
<trkpt lat="43.0009150000" lon="0.3500320000"><ele>948</ele><time>2026-03-24T12:43:10Z</time></trkpt>
<trkpt lat="43.0009200000" lon="0.3500670000"><ele>948</ele><time>2026-03-24T12:43:12Z</time></trkpt>
<trkpt lat="43.0009250000" lon="0.3501050000"><ele>948</ele><time>2026-03-24T12:43:14Z</time></trkpt>
<trkpt lat="43.0009220000" lon="0.3501420000"><ele>947</ele><time>2026-03-24T12:43:16Z</time></trkpt>
<trkpt lat="43.0009220000" lon="0.3501770000"><ele>947</ele><time>2026-03-24T12:43:18Z</time></trkpt>
<trkpt lat="43.0009170000" lon="0.3502070000"><ele>947</ele><time>2026-03-24T12:43:20Z</time></trkpt>
<trkpt lat="43.0009100000" lon="0.3502350000"><ele>947</ele><time>2026-03-24T12:43:22Z</time></trkpt>
<trkpt lat="43.0009070000" lon="0.3502630000"><ele>946</ele><time>2026-03-24T12:43:24Z</time></trkpt>
<trkpt lat="43.0009020000" lon="0.3502970000"><ele>946</ele><time>2026-03-24T12:43:26Z</time></trkpt>
<trkpt lat="43.0008970000" lon="0.3503270000"><ele>946</ele><time>2026-03-24T12:43:28Z</time></trkpt>
<trkpt lat="43.0008920000" lon="0.3503650000"><ele>946</ele><time>2026-03-24T12:43:30Z</time></trkpt>
<trkpt lat="43.0008870000" lon="0.3503950000"><ele>945</ele><time>2026-03-24T12:43:32Z</time></trkpt>
<trkpt lat="43.0008820000" lon="0.3504270000"><ele>945</ele><time>2026-03-24T12:43:34Z</time></trkpt>
<trkpt lat="43.0008800000" lon="0.3504550000"><ele>945</ele><time>2026-03-24T12:43:36Z</time></trkpt>
<trkpt lat="43.0008770000" lon="0.3504820000"><ele>945</ele><time>2026-03-24T12:43:38Z</time></trkpt>
<trkpt lat="43.0008720000" lon="0.3505070000"><ele>944</ele><time>2026-03-24T12:43:40Z</time></trkpt>
<trkpt lat="43.0008720000" lon="0.3505370000"><ele>944</ele><time>2026-03-24T12:43:42Z</time></trkpt>
<trkpt lat="43.0008700000" lon="0.3505670000"><ele>944</ele><time>2026-03-24T12:43:44Z</time></trkpt>
<trkpt lat="43.0008670000" lon="0.3505970000"><ele>943</ele><time>2026-03-24T12:43:46Z</time></trkpt>
<trkpt lat="43.0008670000" lon="0.3506270000"><ele>943</ele><time>2026-03-24T12:43:48Z</time></trkpt>
<trkpt lat="43.0008670000" lon="0.3506550000"><ele>943</ele><time>2026-03-24T12:43:50Z</time></trkpt>
<trkpt lat="43.0008620000" lon="0.3506820000"><ele>942</ele><time>2026-03-24T12:43:52Z</time></trkpt>
<trkpt lat="43.0008670000" lon="0.3507100000"><ele>942</ele><time>2026-03-24T12:43:55Z</time></trkpt>
<trkpt lat="43.0008550000" lon="0.3507470000"><ele>941</ele><time>2026-03-24T12:44:17Z</time></trkpt>
<trkpt lat="43.0008470000" lon="0.3507850000"><ele>941</ele><time>2026-03-24T12:44:19Z</time></trkpt>
<trkpt lat="43.0008420000" lon="0.3508220000"><ele>941</ele><time>2026-03-24T12:44:21Z</time></trkpt>
<trkpt lat="43.0008420000" lon="0.3508570000"><ele>940</ele><time>2026-03-24T12:44:23Z</time></trkpt>
<trkpt lat="43.0008520000" lon="0.3508920000"><ele>940</ele><time>2026-03-24T12:44:25Z</time></trkpt>
<trkpt lat="43.0008570000" lon="0.3509270000"><ele>940</ele><time>2026-03-24T12:44:27Z</time></trkpt>
<trkpt lat="43.0008600000" lon="0.3509570000"><ele>940</ele><time>2026-03-24T12:44:29Z</time></trkpt>
<trkpt lat="43.0008600000" lon="0.3509900000"><ele>939</ele><time>2026-03-24T12:44:31Z</time></trkpt>
<trkpt lat="43.0008620000" lon="0.3510170000"><ele>939</ele><time>2026-03-24T12:44:33Z</time></trkpt>
<trkpt lat="43.0008700000" lon="0.3510420000"><ele>938</ele><time>2026-03-24T12:44:37Z</time></trkpt>
<trkpt lat="43.0008520000" lon="0.3510620000"><ele>938</ele><time>2026-03-24T12:45:13Z</time></trkpt>
<trkpt lat="43.0008470000" lon="0.3510930000"><ele>938</ele><time>2026-03-24T12:45:15Z</time></trkpt>
<trkpt lat="43.0008350000" lon="0.3511270000"><ele>937</ele><time>2026-03-24T12:45:17Z</time></trkpt>
<trkpt lat="43.0008250000" lon="0.3511570000"><ele>937</ele><time>2026-03-24T12:45:21Z</time></trkpt>
<trkpt lat="43.0008170000" lon="0.3512050000"><ele>937</ele><time>2026-03-24T12:45:23Z</time></trkpt>
<trkpt lat="43.0008170000" lon="0.3512470000"><ele>937</ele><time>2026-03-24T12:45:25Z</time></trkpt>
<trkpt lat="43.0008370000" lon="0.3512670000"><ele>937</ele><time>2026-03-24T12:45:27Z</time></trkpt>
<trkpt lat="43.0008550000" lon="0.3512720000"><ele>936</ele><time>2026-03-24T12:45:29Z</time></trkpt>
<trkpt lat="43.0008720000" lon="0.3512500000"><ele>936</ele><time>2026-03-24T12:45:32Z</time></trkpt>
<trkpt lat="43.0008920000" lon="0.3512250000"><ele>936</ele><time>2026-03-24T12:45:34Z</time></trkpt>
<trkpt lat="43.0009000000" lon="0.3511950000"><ele>936</ele><time>2026-03-24T12:45:36Z</time></trkpt>
<trkpt lat="43.0009070000" lon="0.3511520000"><ele>935</ele><time>2026-03-24T12:45:38Z</time></trkpt>
<trkpt lat="43.0009150000" lon="0.3511170000"><ele>935</ele><time>2026-03-24T12:45:40Z</time></trkpt>
<trkpt lat="43.0009250000" lon="0.3510770000"><ele>935</ele><time>2026-03-24T12:45:42Z</time></trkpt>
<trkpt lat="43.0009300000" lon="0.3510400000"><ele>935</ele><time>2026-03-24T12:45:44Z</time></trkpt>
<trkpt lat="43.0009350000" lon="0.3510100000"><ele>934</ele><time>2026-03-24T12:45:46Z</time></trkpt>
<trkpt lat="43.0009370000" lon="0.3509800000"><ele>934</ele><time>2026-03-24T12:45:48Z</time></trkpt>
<trkpt lat="43.0009470000" lon="0.3509520000"><ele>934</ele><time>2026-03-24T12:45:50Z</time></trkpt>
<trkpt lat="43.0009570000" lon="0.3509270000"><ele>934</ele><time>2026-03-24T12:45:52Z</time></trkpt>
<trkpt lat="43.0009720000" lon="0.3508970000"><ele>933</ele><time>2026-03-24T12:45:54Z</time></trkpt>
<trkpt lat="43.0009800000" lon="0.3508720000"><ele>933</ele><time>2026-03-24T12:45:56Z</time></trkpt>
<trkpt lat="43.0009850000" lon="0.3508420000"><ele>933</ele><time>2026-03-24T12:45:58Z</time></trkpt>
<trkpt lat="43.0009870000" lon="0.3508130000"><ele>932</ele><time>2026-03-24T12:46:00Z</time></trkpt>
<trkpt lat="43.0009920000" lon="0.3507870000"><ele>932</ele><time>2026-03-24T12:46:02Z</time></trkpt>
<trkpt lat="43.0009970000" lon="0.3507600000"><ele>932</ele><time>2026-03-24T12:46:04Z</time></trkpt>
<trkpt lat="43.0010050000" lon="0.3507220000"><ele>931</ele><time>2026-03-24T12:46:06Z</time></trkpt>
<trkpt lat="43.0010120000" lon="0.3507000000"><ele>931</ele><time>2026-03-24T12:46:08Z</time></trkpt>
<trkpt lat="43.0010220000" lon="0.3506770000"><ele>931</ele><time>2026-03-24T12:46:10Z</time></trkpt>
<trkpt lat="43.0010270000" lon="0.3506520000"><ele>931</ele><time>2026-03-24T12:46:12Z</time></trkpt>
<trkpt lat="43.0010400000" lon="0.3506220000"><ele>931</ele><time>2026-03-24T12:46:14Z</time></trkpt>
<trkpt lat="43.0010500000" lon="0.3505970000"><ele>930</ele><time>2026-03-24T12:46:16Z</time></trkpt>
<trkpt lat="43.0010570000" lon="0.3505750000"><ele>930</ele><time>2026-03-24T12:46:18Z</time></trkpt>
<trkpt lat="43.0010620000" lon="0.3505420000"><ele>930</ele><time>2026-03-24T12:46:20Z</time></trkpt>
<trkpt lat="43.0010720000" lon="0.3505070000"><ele>930</ele><time>2026-03-24T12:46:22Z</time></trkpt>
<trkpt lat="43.0010820000" lon="0.3504730000"><ele>929</ele><time>2026-03-24T12:46:24Z</time></trkpt>
<trkpt lat="43.0010920000" lon="0.3504480000"><ele>929</ele><time>2026-03-24T12:46:26Z</time></trkpt>
<trkpt lat="43.0011000000" lon="0.3504220000"><ele>929</ele><time>2026-03-24T12:46:28Z</time></trkpt>
<trkpt lat="43.0011080000" lon="0.3503920000"><ele>929</ele><time>2026-03-24T12:46:30Z</time></trkpt>
<trkpt lat="43.0011200000" lon="0.3503620000"><ele>928</ele><time>2026-03-24T12:46:32Z</time></trkpt>
<trkpt lat="43.0011270000" lon="0.3503270000"><ele>928</ele><time>2026-03-24T12:46:35Z</time></trkpt>
<trkpt lat="43.0011320000" lon="0.3503000000"><ele>928</ele><time>2026-03-24T12:46:37Z</time></trkpt>
<trkpt lat="43.0011400000" lon="0.3502750000"><ele>927</ele><time>2026-03-24T12:46:39Z</time></trkpt>
<trkpt lat="43.0011550000" lon="0.3502520000"><ele>927</ele><time>2026-03-24T12:46:41Z</time></trkpt>
<trkpt lat="43.0011600000" lon="0.3502270000"><ele>927</ele><time>2026-03-24T12:46:43Z</time></trkpt>
<trkpt lat="43.0011770000" lon="0.3502070000"><ele>926</ele><time>2026-03-24T12:46:50Z</time></trkpt>
<trkpt lat="43.0011920000" lon="0.3501820000"><ele>926</ele><time>2026-03-24T12:46:52Z</time></trkpt>
<trkpt lat="43.0012070000" lon="0.3501600000"><ele>926</ele><time>2026-03-24T12:46:54Z</time></trkpt>
<trkpt lat="43.0012120000" lon="0.3501270000"><ele>925</ele><time>2026-03-24T12:46:56Z</time></trkpt>
<trkpt lat="43.0012170000" lon="0.3500870000"><ele>925</ele><time>2026-03-24T12:46:58Z</time></trkpt>
<trkpt lat="43.0012250000" lon="0.3500520000"><ele>925</ele><time>2026-03-24T12:47:01Z</time></trkpt>
<trkpt lat="43.0012320000" lon="0.3500200000"><ele>925</ele><time>2026-03-24T12:47:04Z</time></trkpt>
<trkpt lat="43.0012400000" lon="0.3499920000"><ele>924</ele><time>2026-03-24T12:47:06Z</time></trkpt>
<trkpt lat="43.0012520000" lon="0.3499570000"><ele>924</ele><time>2026-03-24T12:47:08Z</time></trkpt>
<trkpt lat="43.0012630000" lon="0.3499230000"><ele>924</ele><time>2026-03-24T12:47:10Z</time></trkpt>
<trkpt lat="43.0012720000" lon="0.3498970000"><ele>924</ele><time>2026-03-24T12:47:12Z</time></trkpt>
<trkpt lat="43.0012770000" lon="0.3498670000"><ele>924</ele><time>2026-03-24T12:47:14Z</time></trkpt>
<trkpt lat="43.0012800000" lon="0.3498370000"><ele>923</ele><time>2026-03-24T12:47:16Z</time></trkpt>
<trkpt lat="43.0012850000" lon="0.3498100000"><ele>923</ele><time>2026-03-24T12:47:18Z</time></trkpt>
<trkpt lat="43.0012870000" lon="0.3497820000"><ele>923</ele><time>2026-03-24T12:47:20Z</time></trkpt>
<trkpt lat="43.0012970000" lon="0.3497500000"><ele>923</ele><time>2026-03-24T12:47:22Z</time></trkpt>
<trkpt lat="43.0013020000" lon="0.3497120000"><ele>922</ele><time>2026-03-24T12:47:24Z</time></trkpt>
<trkpt lat="43.0013070000" lon="0.3496820000"><ele>922</ele><time>2026-03-24T12:47:26Z</time></trkpt>
<trkpt lat="43.0013150000" lon="0.3496530000"><ele>922</ele><time>2026-03-24T12:47:28Z</time></trkpt>
<trkpt lat="43.0013270000" lon="0.3496270000"><ele>922</ele><time>2026-03-24T12:47:30Z</time></trkpt>
<trkpt lat="43.0013420000" lon="0.3495970000"><ele>922</ele><time>2026-03-24T12:47:32Z</time></trkpt>
<trkpt lat="43.0013470000" lon="0.3495680000"><ele>922</ele><time>2026-03-24T12:47:34Z</time></trkpt>
<trkpt lat="43.0013520000" lon="0.3495420000"><ele>921</ele><time>2026-03-24T12:47:36Z</time></trkpt>
<trkpt lat="43.0013570000" lon="0.3495170000"><ele>921</ele><time>2026-03-24T12:47:38Z</time></trkpt>
<trkpt lat="43.0013670000" lon="0.3494850000"><ele>921</ele><time>2026-03-24T12:47:40Z</time></trkpt>
<trkpt lat="43.0013750000" lon="0.3494620000"><ele>921</ele><time>2026-03-24T12:47:42Z</time></trkpt>
<trkpt lat="43.0013820000" lon="0.3494320000"><ele>921</ele><time>2026-03-24T12:47:44Z</time></trkpt>
<trkpt lat="43.0013900000" lon="0.3493970000"><ele>920</ele><time>2026-03-24T12:47:47Z</time></trkpt>
<trkpt lat="43.0014000000" lon="0.3493770000"><ele>920</ele><time>2026-03-24T12:47:49Z</time></trkpt>
<trkpt lat="43.0014120000" lon="0.3493500000"><ele>920</ele><time>2026-03-24T12:47:51Z</time></trkpt>
<trkpt lat="43.0014200000" lon="0.3493170000"><ele>920</ele><time>2026-03-24T12:47:53Z</time></trkpt>
<trkpt lat="43.0014200000" lon="0.3492850000"><ele>919</ele><time>2026-03-24T12:47:55Z</time></trkpt>
<trkpt lat="43.0014300000" lon="0.3492550000"><ele>919</ele><time>2026-03-24T12:47:57Z</time></trkpt>
<trkpt lat="43.0014420000" lon="0.3492280000"><ele>919</ele><time>2026-03-24T12:47:59Z</time></trkpt>
<trkpt lat="43.0014570000" lon="0.3492070000"><ele>919</ele><time>2026-03-24T12:48:01Z</time></trkpt>
<trkpt lat="43.0014670000" lon="0.3491820000"><ele>919</ele><time>2026-03-24T12:48:03Z</time></trkpt>
<trkpt lat="43.0014770000" lon="0.3491570000"><ele>918</ele><time>2026-03-24T12:48:05Z</time></trkpt>
<trkpt lat="43.0014870000" lon="0.3491320000"><ele>918</ele><time>2026-03-24T12:48:07Z</time></trkpt>
<trkpt lat="43.0015000000" lon="0.3490970000"><ele>918</ele><time>2026-03-24T12:48:09Z</time></trkpt>
<trkpt lat="43.0015120000" lon="0.3490650000"><ele>918</ele><time>2026-03-24T12:48:11Z</time></trkpt>
<trkpt lat="43.0015200000" lon="0.3490350000"><ele>917</ele><time>2026-03-24T12:48:13Z</time></trkpt>
<trkpt lat="43.0015320000" lon="0.3490120000"><ele>917</ele><time>2026-03-24T12:48:15Z</time></trkpt>
<trkpt lat="43.0015520000" lon="0.3489950000"><ele>917</ele><time>2026-03-24T12:48:17Z</time></trkpt>
<trkpt lat="43.0015750000" lon="0.3489680000"><ele>917</ele><time>2026-03-24T12:48:20Z</time></trkpt>
<trkpt lat="43.0015920000" lon="0.3489300000"><ele>916</ele><time>2026-03-24T12:48:22Z</time></trkpt>
<trkpt lat="43.0015870000" lon="0.3489000000"><ele>916</ele><time>2026-03-24T12:48:27Z</time></trkpt>
<trkpt lat="43.0016020000" lon="0.3488720000"><ele>916</ele><time>2026-03-24T12:48:30Z</time></trkpt>
<trkpt lat="43.0016150000" lon="0.3488470000"><ele>916</ele><time>2026-03-24T12:48:32Z</time></trkpt>
<trkpt lat="43.0016370000" lon="0.3488200000"><ele>915</ele><time>2026-03-24T12:48:34Z</time></trkpt>
<trkpt lat="43.0016420000" lon="0.3487870000"><ele>915</ele><time>2026-03-24T12:48:36Z</time></trkpt>
<trkpt lat="43.0016520000" lon="0.3487520000"><ele>915</ele><time>2026-03-24T12:48:38Z</time></trkpt>
<trkpt lat="43.0016700000" lon="0.3487220000"><ele>915</ele><time>2026-03-24T12:48:40Z</time></trkpt>
<trkpt lat="43.0016870000" lon="0.3487000000"><ele>915</ele><time>2026-03-24T12:48:42Z</time></trkpt>
<trkpt lat="43.0017020000" lon="0.3486720000"><ele>915</ele><time>2026-03-24T12:48:44Z</time></trkpt>
<trkpt lat="43.0017170000" lon="0.3486420000"><ele>914</ele><time>2026-03-24T12:48:46Z</time></trkpt>
<trkpt lat="43.0017350000" lon="0.3486120000"><ele>914</ele><time>2026-03-24T12:48:48Z</time></trkpt>
<trkpt lat="43.0017520000" lon="0.3485820000"><ele>914</ele><time>2026-03-24T12:48:50Z</time></trkpt>
<trkpt lat="43.0017650000" lon="0.3485500000"><ele>914</ele><time>2026-03-24T12:48:52Z</time></trkpt>
<trkpt lat="43.0017770000" lon="0.3485270000"><ele>914</ele><time>2026-03-24T12:48:54Z</time></trkpt>
<trkpt lat="43.0018000000" lon="0.3485050000"><ele>914</ele><time>2026-03-24T12:48:56Z</time></trkpt>
<trkpt lat="43.0018170000" lon="0.3484850000"><ele>913</ele><time>2026-03-24T12:48:58Z</time></trkpt>
<trkpt lat="43.0018370000" lon="0.3484570000"><ele>913</ele><time>2026-03-24T12:49:00Z</time></trkpt>
<trkpt lat="43.0018520000" lon="0.3484370000"><ele>913</ele><time>2026-03-24T12:49:02Z</time></trkpt>
<trkpt lat="43.0018720000" lon="0.3484350000"><ele>913</ele><time>2026-03-24T12:49:04Z</time></trkpt>
<trkpt lat="43.0018900000" lon="0.3484050000"><ele>912</ele><time>2026-03-24T12:49:06Z</time></trkpt>
<trkpt lat="43.0019020000" lon="0.3483820000"><ele>912</ele><time>2026-03-24T12:49:08Z</time></trkpt>
<trkpt lat="43.0019170000" lon="0.3483670000"><ele>912</ele><time>2026-03-24T12:49:10Z</time></trkpt>
<trkpt lat="43.0019420000" lon="0.3483550000"><ele>912</ele><time>2026-03-24T12:49:12Z</time></trkpt>
<trkpt lat="43.0019620000" lon="0.3483270000"><ele>911</ele><time>2026-03-24T12:49:14Z</time></trkpt>
<trkpt lat="43.0019770000" lon="0.3482950000"><ele>911</ele><time>2026-03-24T12:49:16Z</time></trkpt>
<trkpt lat="43.0019870000" lon="0.3482670000"><ele>911</ele><time>2026-03-24T12:49:18Z</time></trkpt>
<trkpt lat="43.0019870000" lon="0.3482400000"><ele>911</ele><time>2026-03-24T12:49:20Z</time></trkpt>
<trkpt lat="43.0020020000" lon="0.3482170000"><ele>911</ele><time>2026-03-24T12:49:23Z</time></trkpt>
<trkpt lat="43.0020120000" lon="0.3481870000"><ele>910</ele><time>2026-03-24T12:49:25Z</time></trkpt>
<trkpt lat="43.0020270000" lon="0.3481570000"><ele>910</ele><time>2026-03-24T12:49:27Z</time></trkpt>
<trkpt lat="43.0020320000" lon="0.3481180000"><ele>910</ele><time>2026-03-24T12:49:29Z</time></trkpt>
<trkpt lat="43.0020470000" lon="0.3481000000"><ele>910</ele><time>2026-03-24T12:49:31Z</time></trkpt>
<trkpt lat="43.0020670000" lon="0.3480800000"><ele>909</ele><time>2026-03-24T12:49:33Z</time></trkpt>
<trkpt lat="43.0021000000" lon="0.3480570000"><ele>909</ele><time>2026-03-24T12:49:35Z</time></trkpt>
<trkpt lat="43.0021320000" lon="0.3480370000"><ele>909</ele><time>2026-03-24T12:49:37Z</time></trkpt>
<trkpt lat="43.0021470000" lon="0.3480200000"><ele>908</ele><time>2026-03-24T12:49:39Z</time></trkpt>
<trkpt lat="43.0021630000" lon="0.3479970000"><ele>908</ele><time>2026-03-24T12:49:42Z</time></trkpt>
<trkpt lat="43.0021800000" lon="0.3479770000"><ele>908</ele><time>2026-03-24T12:49:44Z</time></trkpt>
<trkpt lat="43.0021970000" lon="0.3479570000"><ele>907</ele><time>2026-03-24T12:49:46Z</time></trkpt>
<trkpt lat="43.0022270000" lon="0.3479370000"><ele>907</ele><time>2026-03-24T12:49:48Z</time></trkpt>
<trkpt lat="43.0022470000" lon="0.3479150000"><ele>907</ele><time>2026-03-24T12:49:50Z</time></trkpt>
<trkpt lat="43.0022600000" lon="0.3478870000"><ele>907</ele><time>2026-03-24T12:49:52Z</time></trkpt>
<trkpt lat="43.0022770000" lon="0.3478700000"><ele>907</ele><time>2026-03-24T12:49:54Z</time></trkpt>
<trkpt lat="43.0022920000" lon="0.3478470000"><ele>906</ele><time>2026-03-24T12:49:56Z</time></trkpt>
<trkpt lat="43.0023170000" lon="0.3478170000"><ele>906</ele><time>2026-03-24T12:49:58Z</time></trkpt>
<trkpt lat="43.0023270000" lon="0.3477920000"><ele>906</ele><time>2026-03-24T12:50:00Z</time></trkpt>
<trkpt lat="43.0023420000" lon="0.3477620000"><ele>906</ele><time>2026-03-24T12:50:03Z</time></trkpt>
<trkpt lat="43.0023620000" lon="0.3477370000"><ele>905</ele><time>2026-03-24T12:50:05Z</time></trkpt>
<trkpt lat="43.0023820000" lon="0.3477220000"><ele>905</ele><time>2026-03-24T12:50:07Z</time></trkpt>
<trkpt lat="43.0023950000" lon="0.3477000000"><ele>905</ele><time>2026-03-24T12:50:09Z</time></trkpt>
<trkpt lat="43.0024200000" lon="0.3476870000"><ele>904</ele><time>2026-03-24T12:50:12Z</time></trkpt>
<trkpt lat="43.0024450000" lon="0.3476680000"><ele>904</ele><time>2026-03-24T12:50:14Z</time></trkpt>
<trkpt lat="43.0024620000" lon="0.3476450000"><ele>904</ele><time>2026-03-24T12:50:16Z</time></trkpt>
<trkpt lat="43.0024900000" lon="0.3476220000"><ele>904</ele><time>2026-03-24T12:50:18Z</time></trkpt>
<trkpt lat="43.0025100000" lon="0.3476020000"><ele>903</ele><time>2026-03-24T12:50:20Z</time></trkpt>
<trkpt lat="43.0025250000" lon="0.3475780000"><ele>903</ele><time>2026-03-24T12:50:22Z</time></trkpt>
<trkpt lat="43.0025420000" lon="0.3475670000"><ele>903</ele><time>2026-03-24T12:50:24Z</time></trkpt>
<trkpt lat="43.0025600000" lon="0.3475500000"><ele>903</ele><time>2026-03-24T12:50:26Z</time></trkpt>
<trkpt lat="43.0025720000" lon="0.3475200000"><ele>902</ele><time>2026-03-24T12:50:28Z</time></trkpt>
<trkpt lat="43.0025900000" lon="0.3474900000"><ele>902</ele><time>2026-03-24T12:50:30Z</time></trkpt>
<trkpt lat="43.0026050000" lon="0.3474570000"><ele>902</ele><time>2026-03-24T12:50:32Z</time></trkpt>
<trkpt lat="43.0026220000" lon="0.3474300000"><ele>902</ele><time>2026-03-24T12:50:34Z</time></trkpt>
<trkpt lat="43.0026470000" lon="0.3474120000"><ele>901</ele><time>2026-03-24T12:50:36Z</time></trkpt>
<trkpt lat="43.0026750000" lon="0.3474000000"><ele>901</ele><time>2026-03-24T12:50:38Z</time></trkpt>
<trkpt lat="43.0026950000" lon="0.3473820000"><ele>901</ele><time>2026-03-24T12:50:40Z</time></trkpt>
<trkpt lat="43.0027100000" lon="0.3473670000"><ele>901</ele><time>2026-03-24T12:50:42Z</time></trkpt>
<trkpt lat="43.0027270000" lon="0.3473450000"><ele>900</ele><time>2026-03-24T12:50:44Z</time></trkpt>
<trkpt lat="43.0027550000" lon="0.3473320000"><ele>900</ele><time>2026-03-24T12:50:46Z</time></trkpt>
<trkpt lat="43.0027820000" lon="0.3473220000"><ele>900</ele><time>2026-03-24T12:50:48Z</time></trkpt>
<trkpt lat="43.0028050000" lon="0.3473030000"><ele>900</ele><time>2026-03-24T12:50:50Z</time></trkpt>
<trkpt lat="43.0028250000" lon="0.3472820000"><ele>900</ele><time>2026-03-24T12:50:52Z</time></trkpt>
<trkpt lat="43.0028470000" lon="0.3472620000"><ele>899</ele><time>2026-03-24T12:50:54Z</time></trkpt>
<trkpt lat="43.0028670000" lon="0.3472470000"><ele>899</ele><time>2026-03-24T12:50:56Z</time></trkpt>
<trkpt lat="43.0028820000" lon="0.3472220000"><ele>899</ele><time>2026-03-24T12:50:58Z</time></trkpt>
<trkpt lat="43.0028950000" lon="0.3471870000"><ele>899</ele><time>2026-03-24T12:51:01Z</time></trkpt>
<trkpt lat="43.0029070000" lon="0.3471530000"><ele>898</ele><time>2026-03-24T12:51:03Z</time></trkpt>
<trkpt lat="43.0029230000" lon="0.3471430000"><ele>898</ele><time>2026-03-24T12:51:05Z</time></trkpt>
<trkpt lat="43.0029450000" lon="0.3471350000"><ele>898</ele><time>2026-03-24T12:51:07Z</time></trkpt>
<trkpt lat="43.0029720000" lon="0.3471370000"><ele>897</ele><time>2026-03-24T12:51:09Z</time></trkpt>
<trkpt lat="43.0030120000" lon="0.3471370000"><ele>897</ele><time>2026-03-24T12:51:11Z</time></trkpt>
<trkpt lat="43.0030320000" lon="0.3471370000"><ele>897</ele><time>2026-03-24T12:51:13Z</time></trkpt>
<trkpt lat="43.0030570000" lon="0.3471300000"><ele>896</ele><time>2026-03-24T12:51:15Z</time></trkpt>
<trkpt lat="43.0030770000" lon="0.3471220000"><ele>896</ele><time>2026-03-24T12:51:17Z</time></trkpt>
<trkpt lat="43.0030970000" lon="0.3471220000"><ele>896</ele><time>2026-03-24T12:51:20Z</time></trkpt>
<trkpt lat="43.0030780000" lon="0.3471430000"><ele>895</ele><time>2026-03-24T12:51:27Z</time></trkpt>
<trkpt lat="43.0030970000" lon="0.3471530000"><ele>896</ele><time>2026-03-24T12:53:04Z</time></trkpt>
<trkpt lat="43.0031170000" lon="0.3471630000"><ele>896</ele><time>2026-03-24T12:53:06Z</time></trkpt>
<trkpt lat="43.0031470000" lon="0.3471520000"><ele>896</ele><time>2026-03-24T12:56:59Z</time></trkpt>
<trkpt lat="43.0031770000" lon="0.3471420000"><ele>896</ele><time>2026-03-24T12:57:01Z</time></trkpt>
<trkpt lat="43.0032000000" lon="0.3471420000"><ele>896</ele><time>2026-03-24T12:57:03Z</time></trkpt>
<trkpt lat="43.0032170000" lon="0.3471370000"><ele>896</ele><time>2026-03-24T12:57:06Z</time></trkpt>
<trkpt lat="43.0032370000" lon="0.3471220000"><ele>895</ele><time>2026-03-24T12:57:08Z</time></trkpt>
<trkpt lat="43.0032620000" lon="0.3471170000"><ele>895</ele><time>2026-03-24T12:57:10Z</time></trkpt>
<trkpt lat="43.0032870000" lon="0.3471180000"><ele>895</ele><time>2026-03-24T12:57:12Z</time></trkpt>
<trkpt lat="43.0033070000" lon="0.3471250000"><ele>894</ele><time>2026-03-24T12:57:14Z</time></trkpt>
<trkpt lat="43.0033320000" lon="0.3471350000"><ele>894</ele><time>2026-03-24T12:57:16Z</time></trkpt>
<trkpt lat="43.0033520000" lon="0.3471420000"><ele>894</ele><time>2026-03-24T12:57:18Z</time></trkpt>
<trkpt lat="43.0033720000" lon="0.3471520000"><ele>893</ele><time>2026-03-24T12:57:20Z</time></trkpt>
<trkpt lat="43.0033950000" lon="0.3471570000"><ele>893</ele><time>2026-03-24T12:57:22Z</time></trkpt>
<trkpt lat="43.0034200000" lon="0.3471620000"><ele>893</ele><time>2026-03-24T12:57:24Z</time></trkpt>
<trkpt lat="43.0034420000" lon="0.3471720000"><ele>893</ele><time>2026-03-24T12:57:26Z</time></trkpt>
<trkpt lat="43.0034620000" lon="0.3471870000"><ele>892</ele><time>2026-03-24T12:57:28Z</time></trkpt>
<trkpt lat="43.0034870000" lon="0.3471850000"><ele>892</ele><time>2026-03-24T12:57:30Z</time></trkpt>
<trkpt lat="43.0035070000" lon="0.3471920000"><ele>892</ele><time>2026-03-24T12:57:32Z</time></trkpt>
<trkpt lat="43.0035320000" lon="0.3471930000"><ele>891</ele><time>2026-03-24T12:57:34Z</time></trkpt>
<trkpt lat="43.0035500000" lon="0.3471930000"><ele>891</ele><time>2026-03-24T12:57:36Z</time></trkpt>
<trkpt lat="43.0035750000" lon="0.3472000000"><ele>891</ele><time>2026-03-24T12:57:38Z</time></trkpt>
<trkpt lat="43.0035970000" lon="0.3471970000"><ele>891</ele><time>2026-03-24T12:57:40Z</time></trkpt>
<trkpt lat="43.0036200000" lon="0.3472020000"><ele>891</ele><time>2026-03-24T12:57:43Z</time></trkpt>
<trkpt lat="43.0036370000" lon="0.3472030000"><ele>891</ele><time>2026-03-24T12:57:45Z</time></trkpt>
<trkpt lat="43.0036570000" lon="0.3472070000"><ele>890</ele><time>2026-03-24T12:57:47Z</time></trkpt>
<trkpt lat="43.0036870000" lon="0.3472120000"><ele>890</ele><time>2026-03-24T12:57:50Z</time></trkpt>
<trkpt lat="43.0037120000" lon="0.3472250000"><ele>890</ele><time>2026-03-24T12:57:52Z</time></trkpt>
<trkpt lat="43.0037370000" lon="0.3472470000"><ele>889</ele><time>2026-03-24T12:57:54Z</time></trkpt>
<trkpt lat="43.0037570000" lon="0.3472700000"><ele>889</ele><time>2026-03-24T12:57:56Z</time></trkpt>
<trkpt lat="43.0037700000" lon="0.3472950000"><ele>889</ele><time>2026-03-24T12:57:58Z</time></trkpt>
<trkpt lat="43.0037770000" lon="0.3473270000"><ele>889</ele><time>2026-03-24T12:58:00Z</time></trkpt>
<trkpt lat="43.0037800000" lon="0.3473550000"><ele>888</ele><time>2026-03-24T12:58:02Z</time></trkpt>
<trkpt lat="43.0037820000" lon="0.3473870000"><ele>888</ele><time>2026-03-24T12:58:05Z</time></trkpt>
<trkpt lat="43.0038020000" lon="0.3474070000"><ele>888</ele><time>2026-03-24T12:58:08Z</time></trkpt>
<trkpt lat="43.0038220000" lon="0.3474170000"><ele>888</ele><time>2026-03-24T12:58:11Z</time></trkpt>
<trkpt lat="43.0038380000" lon="0.3474220000"><ele>888</ele><time>2026-03-24T12:58:14Z</time></trkpt>
<trkpt lat="43.0038500000" lon="0.3474550000"><ele>888</ele><time>2026-03-24T12:58:18Z</time></trkpt>
<trkpt lat="43.0038470000" lon="0.3474800000"><ele>888</ele><time>2026-03-24T12:58:23Z</time></trkpt>
<trkpt lat="43.0038270000" lon="0.3474730000"><ele>888</ele><time>2026-03-24T12:59:08Z</time></trkpt>
<trkpt lat="43.0037970000" lon="0.3474600000"><ele>888</ele><time>2026-03-24T12:59:10Z</time></trkpt>
<trkpt lat="43.0037720000" lon="0.3474470000"><ele>888</ele><time>2026-03-24T12:59:12Z</time></trkpt>
<trkpt lat="43.0037520000" lon="0.3474450000"><ele>888</ele><time>2026-03-24T12:59:15Z</time></trkpt>
<trkpt lat="43.0037420000" lon="0.3474670000"><ele>888</ele><time>2026-03-24T12:59:17Z</time></trkpt>
<trkpt lat="43.0037170000" lon="0.3474670000"><ele>888</ele><time>2026-03-24T12:59:23Z</time></trkpt>
<trkpt lat="43.0036950000" lon="0.3474720000"><ele>888</ele><time>2026-03-24T12:59:25Z</time></trkpt>
<trkpt lat="43.0036700000" lon="0.3474800000"><ele>888</ele><time>2026-03-24T12:59:27Z</time></trkpt>
<trkpt lat="43.0036470000" lon="0.3474830000"><ele>888</ele><time>2026-03-24T12:59:29Z</time></trkpt>
<trkpt lat="43.0036670000" lon="0.3474650000"><ele>887</ele><time>2026-03-24T13:01:04Z</time></trkpt>
<trkpt lat="43.0037000000" lon="0.3474500000"><ele>887</ele><time>2026-03-24T13:01:06Z</time></trkpt>
<trkpt lat="43.0037270000" lon="0.3474470000"><ele>887</ele><time>2026-03-24T13:01:08Z</time></trkpt>
<trkpt lat="43.0037500000" lon="0.3474320000"><ele>888</ele><time>2026-03-24T13:01:10Z</time></trkpt>
<trkpt lat="43.0037700000" lon="0.3474220000"><ele>888</ele><time>2026-03-24T13:01:12Z</time></trkpt>
<trkpt lat="43.0037920000" lon="0.3474170000"><ele>888</ele><time>2026-03-24T13:01:14Z</time></trkpt>
<trkpt lat="43.0038120000" lon="0.3474170000"><ele>888</ele><time>2026-03-24T13:01:16Z</time></trkpt>
<trkpt lat="43.0038320000" lon="0.3474320000"><ele>888</ele><time>2026-03-24T13:01:20Z</time></trkpt>
<trkpt lat="43.0038270000" lon="0.3474600000"><ele>888</ele><time>2026-03-24T13:01:23Z</time></trkpt>
<trkpt lat="43.0038120000" lon="0.3474770000"><ele>888</ele><time>2026-03-24T13:01:28Z</time></trkpt>
<trkpt lat="43.0038370000" lon="0.3474670000"><ele>887</ele><time>2026-03-24T13:02:06Z</time></trkpt>
<trkpt lat="43.0038570000" lon="0.3474670000"><ele>887</ele><time>2026-03-24T13:02:09Z</time></trkpt>
<trkpt lat="43.0038370000" lon="0.3474720000"><ele>887</ele><time>2026-03-24T13:03:14Z</time></trkpt>
<trkpt lat="43.0038100000" lon="0.3474670000"><ele>887</ele><time>2026-03-24T13:03:16Z</time></trkpt>
<trkpt lat="43.0037820000" lon="0.3474670000"><ele>887</ele><time>2026-03-24T13:03:18Z</time></trkpt>
<trkpt lat="43.0037620000" lon="0.3474670000"><ele>887</ele><time>2026-03-24T13:03:20Z</time></trkpt>
<trkpt lat="43.0037470000" lon="0.3474870000"><ele>887</ele><time>2026-03-24T13:03:22Z</time></trkpt>
<trkpt lat="43.0037170000" lon="0.3474970000"><ele>887</ele><time>2026-03-24T13:03:25Z</time></trkpt>
<trkpt lat="43.0036900000" lon="0.3474950000"><ele>887</ele><time>2026-03-24T13:03:27Z</time></trkpt>
<trkpt lat="43.0036670000" lon="0.3474820000"><ele>887</ele><time>2026-03-24T13:03:29Z</time></trkpt>
<trkpt lat="43.0036450000" lon="0.3474720000"><ele>887</ele><time>2026-03-24T13:03:31Z</time></trkpt>
<trkpt lat="43.0036220000" lon="0.3474670000"><ele>887</ele><time>2026-03-24T13:03:33Z</time></trkpt>
<trkpt lat="43.0036000000" lon="0.3474670000"><ele>887</ele><time>2026-03-24T13:03:35Z</time></trkpt>
<trkpt lat="43.0035770000" lon="0.3474720000"><ele>887</ele><time>2026-03-24T13:03:37Z</time></trkpt>
<trkpt lat="43.0035570000" lon="0.3474670000"><ele>886</ele><time>2026-03-24T13:03:40Z</time></trkpt>
<trkpt lat="43.0035270000" lon="0.3474700000"><ele>886</ele><time>2026-03-24T13:03:43Z</time></trkpt>
<trkpt lat="43.0035070000" lon="0.3474730000"><ele>886</ele><time>2026-03-24T13:03:45Z</time></trkpt>
<trkpt lat="43.0034820000" lon="0.3474770000"><ele>885</ele><time>2026-03-24T13:03:47Z</time></trkpt>
<trkpt lat="43.0034620000" lon="0.3474820000"><ele>885</ele><time>2026-03-24T13:03:49Z</time></trkpt>
<trkpt lat="43.0034420000" lon="0.3474920000"><ele>885</ele><time>2026-03-24T13:03:51Z</time></trkpt>
<trkpt lat="43.0034220000" lon="0.3474970000"><ele>885</ele><time>2026-03-24T13:03:53Z</time></trkpt>
<trkpt lat="43.0033950000" lon="0.3475120000"><ele>884</ele><time>2026-03-24T13:03:55Z</time></trkpt>
<trkpt lat="43.0033670000" lon="0.3475320000"><ele>884</ele><time>2026-03-24T13:03:57Z</time></trkpt>
<trkpt lat="43.0033520000" lon="0.3475550000"><ele>884</ele><time>2026-03-24T13:03:58Z</time></trkpt>
<trkpt lat="43.0033320000" lon="0.3475820000"><ele>884</ele><time>2026-03-24T13:04:00Z</time></trkpt>
<trkpt lat="43.0033120000" lon="0.3475970000"><ele>883</ele><time>2026-03-24T13:04:02Z</time></trkpt>
<trkpt lat="43.0032870000" lon="0.3476070000"><ele>883</ele><time>2026-03-24T13:04:04Z</time></trkpt>
<trkpt lat="43.0032670000" lon="0.3476320000"><ele>883</ele><time>2026-03-24T13:04:07Z</time></trkpt>
<trkpt lat="43.0032520000" lon="0.3476520000"><ele>883</ele><time>2026-03-24T13:04:09Z</time></trkpt>
<trkpt lat="43.0032320000" lon="0.3476720000"><ele>882</ele><time>2026-03-24T13:04:11Z</time></trkpt>
<trkpt lat="43.0032170000" lon="0.3476900000"><ele>882</ele><time>2026-03-24T13:04:13Z</time></trkpt>
<trkpt lat="43.0032000000" lon="0.3477070000"><ele>882</ele><time>2026-03-24T13:04:15Z</time></trkpt>
<trkpt lat="43.0031800000" lon="0.3477270000"><ele>882</ele><time>2026-03-24T13:04:17Z</time></trkpt>
<trkpt lat="43.0031650000" lon="0.3477450000"><ele>882</ele><time>2026-03-24T13:04:19Z</time></trkpt>
<trkpt lat="43.0031480000" lon="0.3477620000"><ele>881</ele><time>2026-03-24T13:04:21Z</time></trkpt>
<trkpt lat="43.0031320000" lon="0.3477900000"><ele>881</ele><time>2026-03-24T13:04:24Z</time></trkpt>
<trkpt lat="43.0031220000" lon="0.3478120000"><ele>881</ele><time>2026-03-24T13:04:26Z</time></trkpt>
<trkpt lat="43.0031100000" lon="0.3478420000"><ele>880</ele><time>2026-03-24T13:04:29Z</time></trkpt>
<trkpt lat="43.0030950000" lon="0.3478720000"><ele>880</ele><time>2026-03-24T13:04:31Z</time></trkpt>
<trkpt lat="43.0030820000" lon="0.3478970000"><ele>880</ele><time>2026-03-24T13:04:33Z</time></trkpt>
<trkpt lat="43.0030750000" lon="0.3479300000"><ele>880</ele><time>2026-03-24T13:04:35Z</time></trkpt>
<trkpt lat="43.0030570000" lon="0.3479600000"><ele>879</ele><time>2026-03-24T13:04:37Z</time></trkpt>
<trkpt lat="43.0030470000" lon="0.3479820000"><ele>879</ele><time>2026-03-24T13:04:39Z</time></trkpt>
<trkpt lat="43.0030250000" lon="0.3479930000"><ele>879</ele><time>2026-03-24T13:04:41Z</time></trkpt>
<trkpt lat="43.0030050000" lon="0.3480120000"><ele>879</ele><time>2026-03-24T13:04:43Z</time></trkpt>
<trkpt lat="43.0029870000" lon="0.3480220000"><ele>879</ele><time>2026-03-24T13:04:44Z</time></trkpt>
<trkpt lat="43.0029700000" lon="0.3480370000"><ele>879</ele><time>2026-03-24T13:04:46Z</time></trkpt>
<trkpt lat="43.0029520000" lon="0.3480430000"><ele>878</ele><time>2026-03-24T13:04:48Z</time></trkpt>
<trkpt lat="43.0029370000" lon="0.3480620000"><ele>878</ele><time>2026-03-24T13:04:50Z</time></trkpt>
<trkpt lat="43.0029170000" lon="0.3480820000"><ele>878</ele><time>2026-03-24T13:04:52Z</time></trkpt>
<trkpt lat="43.0028970000" lon="0.3481000000"><ele>878</ele><time>2026-03-24T13:04:54Z</time></trkpt>
<trkpt lat="43.0028770000" lon="0.3481250000"><ele>877</ele><time>2026-03-24T13:04:56Z</time></trkpt>
<trkpt lat="43.0028570000" lon="0.3481470000"><ele>877</ele><time>2026-03-24T13:04:58Z</time></trkpt>
<trkpt lat="43.0028370000" lon="0.3481600000"><ele>877</ele><time>2026-03-24T13:05:00Z</time></trkpt>
<trkpt lat="43.0028170000" lon="0.3481720000"><ele>877</ele><time>2026-03-24T13:05:02Z</time></trkpt>
<trkpt lat="43.0028050000" lon="0.3481970000"><ele>877</ele><time>2026-03-24T13:05:04Z</time></trkpt>
<trkpt lat="43.0027950000" lon="0.3482180000"><ele>876</ele><time>2026-03-24T13:05:06Z</time></trkpt>
<trkpt lat="43.0027820000" lon="0.3482400000"><ele>876</ele><time>2026-03-24T13:05:08Z</time></trkpt>
<trkpt lat="43.0027670000" lon="0.3482670000"><ele>876</ele><time>2026-03-24T13:05:10Z</time></trkpt>
<trkpt lat="43.0027570000" lon="0.3483000000"><ele>876</ele><time>2026-03-24T13:05:12Z</time></trkpt>
<trkpt lat="43.0027420000" lon="0.3483270000"><ele>876</ele><time>2026-03-24T13:05:14Z</time></trkpt>
<trkpt lat="43.0027300000" lon="0.3483520000"><ele>875</ele><time>2026-03-24T13:05:16Z</time></trkpt>
<trkpt lat="43.0027170000" lon="0.3483820000"><ele>875</ele><time>2026-03-24T13:05:18Z</time></trkpt>
<trkpt lat="43.0027050000" lon="0.3484130000"><ele>875</ele><time>2026-03-24T13:05:20Z</time></trkpt>
<trkpt lat="43.0026920000" lon="0.3484420000"><ele>875</ele><time>2026-03-24T13:05:22Z</time></trkpt>
<trkpt lat="43.0026770000" lon="0.3484670000"><ele>875</ele><time>2026-03-24T13:05:24Z</time></trkpt>
<trkpt lat="43.0026650000" lon="0.3484920000"><ele>874</ele><time>2026-03-24T13:05:26Z</time></trkpt>
<trkpt lat="43.0026520000" lon="0.3485220000"><ele>874</ele><time>2026-03-24T13:05:28Z</time></trkpt>
<trkpt lat="43.0026370000" lon="0.3485420000"><ele>874</ele><time>2026-03-24T13:05:30Z</time></trkpt>
<trkpt lat="43.0026270000" lon="0.3485650000"><ele>874</ele><time>2026-03-24T13:05:32Z</time></trkpt>
<trkpt lat="43.0026170000" lon="0.3485870000"><ele>874</ele><time>2026-03-24T13:05:34Z</time></trkpt>
<trkpt lat="43.0026020000" lon="0.3486070000"><ele>874</ele><time>2026-03-24T13:05:36Z</time></trkpt>
<trkpt lat="43.0025870000" lon="0.3486300000"><ele>873</ele><time>2026-03-24T13:05:38Z</time></trkpt>
<trkpt lat="43.0025720000" lon="0.3486470000"><ele>873</ele><time>2026-03-24T13:05:40Z</time></trkpt>
<trkpt lat="43.0025600000" lon="0.3486720000"><ele>873</ele><time>2026-03-24T13:05:42Z</time></trkpt>
<trkpt lat="43.0025470000" lon="0.3487120000"><ele>873</ele><time>2026-03-24T13:05:44Z</time></trkpt>
<trkpt lat="43.0025350000" lon="0.3487550000"><ele>872</ele><time>2026-03-24T13:05:46Z</time></trkpt>
<trkpt lat="43.0025270000" lon="0.3487920000"><ele>872</ele><time>2026-03-24T13:05:48Z</time></trkpt>
<trkpt lat="43.0025150000" lon="0.3488220000"><ele>872</ele><time>2026-03-24T13:05:50Z</time></trkpt>
<trkpt lat="43.0025020000" lon="0.3488520000"><ele>872</ele><time>2026-03-24T13:05:52Z</time></trkpt>
<trkpt lat="43.0024920000" lon="0.3488770000"><ele>871</ele><time>2026-03-24T13:05:54Z</time></trkpt>
<trkpt lat="43.0024820000" lon="0.3489070000"><ele>871</ele><time>2026-03-24T13:05:56Z</time></trkpt>
<trkpt lat="43.0024720000" lon="0.3489350000"><ele>871</ele><time>2026-03-24T13:05:58Z</time></trkpt>
<trkpt lat="43.0024570000" lon="0.3489620000"><ele>871</ele><time>2026-03-24T13:06:00Z</time></trkpt>
<trkpt lat="43.0024500000" lon="0.3489870000"><ele>870</ele><time>2026-03-24T13:06:02Z</time></trkpt>
<trkpt lat="43.0024400000" lon="0.3490120000"><ele>870</ele><time>2026-03-24T13:06:04Z</time></trkpt>
<trkpt lat="43.0024320000" lon="0.3490400000"><ele>870</ele><time>2026-03-24T13:06:06Z</time></trkpt>
<trkpt lat="43.0024200000" lon="0.3490670000"><ele>869</ele><time>2026-03-24T13:06:08Z</time></trkpt>
<trkpt lat="43.0024120000" lon="0.3490970000"><ele>869</ele><time>2026-03-24T13:06:10Z</time></trkpt>
<trkpt lat="43.0024020000" lon="0.3491220000"><ele>869</ele><time>2026-03-24T13:06:12Z</time></trkpt>
<trkpt lat="43.0023950000" lon="0.3491500000"><ele>869</ele><time>2026-03-24T13:06:14Z</time></trkpt>
<trkpt lat="43.0023820000" lon="0.3491770000"><ele>868</ele><time>2026-03-24T13:06:16Z</time></trkpt>
<trkpt lat="43.0023750000" lon="0.3492070000"><ele>868</ele><time>2026-03-24T13:06:18Z</time></trkpt>
<trkpt lat="43.0023670000" lon="0.3492320000"><ele>868</ele><time>2026-03-24T13:06:20Z</time></trkpt>
<trkpt lat="43.0023620000" lon="0.3492570000"><ele>868</ele><time>2026-03-24T13:06:22Z</time></trkpt>
<trkpt lat="43.0023570000" lon="0.3492850000"><ele>867</ele><time>2026-03-24T13:06:24Z</time></trkpt>
<trkpt lat="43.0023450000" lon="0.3493120000"><ele>867</ele><time>2026-03-24T13:06:26Z</time></trkpt>
<trkpt lat="43.0023370000" lon="0.3493370000"><ele>867</ele><time>2026-03-24T13:06:28Z</time></trkpt>
<trkpt lat="43.0023270000" lon="0.3493630000"><ele>867</ele><time>2026-03-24T13:06:30Z</time></trkpt>
<trkpt lat="43.0023220000" lon="0.3493900000"><ele>866</ele><time>2026-03-24T13:06:32Z</time></trkpt>
<trkpt lat="43.0023120000" lon="0.3494130000"><ele>866</ele><time>2026-03-24T13:06:34Z</time></trkpt>
<trkpt lat="43.0023020000" lon="0.3494420000"><ele>866</ele><time>2026-03-24T13:06:36Z</time></trkpt>
<trkpt lat="43.0022970000" lon="0.3494770000"><ele>865</ele><time>2026-03-24T13:06:38Z</time></trkpt>
<trkpt lat="43.0022900000" lon="0.3495070000"><ele>865</ele><time>2026-03-24T13:06:40Z</time></trkpt>
<trkpt lat="43.0022870000" lon="0.3495370000"><ele>865</ele><time>2026-03-24T13:06:42Z</time></trkpt>
<trkpt lat="43.0022820000" lon="0.3495670000"><ele>865</ele><time>2026-03-24T13:06:44Z</time></trkpt>
<trkpt lat="43.0022750000" lon="0.3496000000"><ele>865</ele><time>2026-03-24T13:06:46Z</time></trkpt>
<trkpt lat="43.0022620000" lon="0.3496300000"><ele>864</ele><time>2026-03-24T13:06:48Z</time></trkpt>
<trkpt lat="43.0022570000" lon="0.3496570000"><ele>864</ele><time>2026-03-24T13:06:50Z</time></trkpt>
<trkpt lat="43.0022520000" lon="0.3496870000"><ele>864</ele><time>2026-03-24T13:06:52Z</time></trkpt>
<trkpt lat="43.0022450000" lon="0.3497170000"><ele>864</ele><time>2026-03-24T13:06:54Z</time></trkpt>
<trkpt lat="43.0022370000" lon="0.3497520000"><ele>863</ele><time>2026-03-24T13:06:56Z</time></trkpt>
<trkpt lat="43.0022350000" lon="0.3497870000"><ele>863</ele><time>2026-03-24T13:06:58Z</time></trkpt>
<trkpt lat="43.0022270000" lon="0.3498220000"><ele>863</ele><time>2026-03-24T13:07:00Z</time></trkpt>
<trkpt lat="43.0022220000" lon="0.3498570000"><ele>862</ele><time>2026-03-24T13:07:02Z</time></trkpt>
<trkpt lat="43.0022120000" lon="0.3498850000"><ele>862</ele><time>2026-03-24T13:07:04Z</time></trkpt>
<trkpt lat="43.0022120000" lon="0.3499170000"><ele>862</ele><time>2026-03-24T13:07:06Z</time></trkpt>
<trkpt lat="43.0022120000" lon="0.3499470000"><ele>862</ele><time>2026-03-24T13:07:08Z</time></trkpt>
<trkpt lat="43.0022070000" lon="0.3499800000"><ele>861</ele><time>2026-03-24T13:07:10Z</time></trkpt>
<trkpt lat="43.0022100000" lon="0.3500100000"><ele>861</ele><time>2026-03-24T13:07:12Z</time></trkpt>
<trkpt lat="43.0022070000" lon="0.3500420000"><ele>861</ele><time>2026-03-24T13:07:14Z</time></trkpt>
<trkpt lat="43.0021970000" lon="0.3500720000"><ele>860</ele><time>2026-03-24T13:07:16Z</time></trkpt>
<trkpt lat="43.0021920000" lon="0.3501050000"><ele>860</ele><time>2026-03-24T13:07:18Z</time></trkpt>
<trkpt lat="43.0021870000" lon="0.3501370000"><ele>860</ele><time>2026-03-24T13:07:20Z</time></trkpt>
<trkpt lat="43.0021820000" lon="0.3501650000"><ele>859</ele><time>2026-03-24T13:07:22Z</time></trkpt>
<trkpt lat="43.0021850000" lon="0.3501930000"><ele>859</ele><time>2026-03-24T13:07:24Z</time></trkpt>
<trkpt lat="43.0021850000" lon="0.3502250000"><ele>859</ele><time>2026-03-24T13:07:26Z</time></trkpt>
<trkpt lat="43.0021770000" lon="0.3502530000"><ele>859</ele><time>2026-03-24T13:07:28Z</time></trkpt>
<trkpt lat="43.0021700000" lon="0.3502850000"><ele>858</ele><time>2026-03-24T13:07:30Z</time></trkpt>
<trkpt lat="43.0021620000" lon="0.3503100000"><ele>858</ele><time>2026-03-24T13:07:32Z</time></trkpt>
<trkpt lat="43.0021570000" lon="0.3503370000"><ele>858</ele><time>2026-03-24T13:07:34Z</time></trkpt>
<trkpt lat="43.0021520000" lon="0.3503720000"><ele>858</ele><time>2026-03-24T13:07:36Z</time></trkpt>
<trkpt lat="43.0021500000" lon="0.3504020000"><ele>858</ele><time>2026-03-24T13:07:38Z</time></trkpt>
<trkpt lat="43.0021400000" lon="0.3504320000"><ele>857</ele><time>2026-03-24T13:07:40Z</time></trkpt>
<trkpt lat="43.0021320000" lon="0.3504650000"><ele>857</ele><time>2026-03-24T13:07:42Z</time></trkpt>
<trkpt lat="43.0021270000" lon="0.3504970000"><ele>857</ele><time>2026-03-24T13:07:44Z</time></trkpt>
<trkpt lat="43.0021220000" lon="0.3505270000"><ele>856</ele><time>2026-03-24T13:07:46Z</time></trkpt>
<trkpt lat="43.0021170000" lon="0.3505600000"><ele>856</ele><time>2026-03-24T13:07:48Z</time></trkpt>
<trkpt lat="43.0021150000" lon="0.3505950000"><ele>856</ele><time>2026-03-24T13:07:50Z</time></trkpt>
<trkpt lat="43.0021120000" lon="0.3506270000"><ele>856</ele><time>2026-03-24T13:07:52Z</time></trkpt>
<trkpt lat="43.0021100000" lon="0.3506620000"><ele>855</ele><time>2026-03-24T13:07:54Z</time></trkpt>
<trkpt lat="43.0021070000" lon="0.3506920000"><ele>855</ele><time>2026-03-24T13:07:56Z</time></trkpt>
<trkpt lat="43.0021050000" lon="0.3507270000"><ele>855</ele><time>2026-03-24T13:07:58Z</time></trkpt>
<trkpt lat="43.0021050000" lon="0.3507570000"><ele>854</ele><time>2026-03-24T13:08:00Z</time></trkpt>
<trkpt lat="43.0021020000" lon="0.3507870000"><ele>854</ele><time>2026-03-24T13:08:02Z</time></trkpt>
<trkpt lat="43.0021020000" lon="0.3508170000"><ele>854</ele><time>2026-03-24T13:08:04Z</time></trkpt>
<trkpt lat="43.0021020000" lon="0.3508520000"><ele>854</ele><time>2026-03-24T13:08:06Z</time></trkpt>
<trkpt lat="43.0021020000" lon="0.3508820000"><ele>853</ele><time>2026-03-24T13:08:08Z</time></trkpt>
<trkpt lat="43.0020970000" lon="0.3509120000"><ele>853</ele><time>2026-03-24T13:08:10Z</time></trkpt>
<trkpt lat="43.0020930000" lon="0.3509380000"><ele>853</ele><time>2026-03-24T13:08:12Z</time></trkpt>
<trkpt lat="43.0020920000" lon="0.3509670000"><ele>852</ele><time>2026-03-24T13:08:14Z</time></trkpt>
<trkpt lat="43.0020870000" lon="0.3509950000"><ele>852</ele><time>2026-03-24T13:08:16Z</time></trkpt>
<trkpt lat="43.0020820000" lon="0.3510270000"><ele>852</ele><time>2026-03-24T13:08:18Z</time></trkpt>
<trkpt lat="43.0020820000" lon="0.3510650000"><ele>851</ele><time>2026-03-24T13:08:20Z</time></trkpt>
<trkpt lat="43.0020820000" lon="0.3511020000"><ele>851</ele><time>2026-03-24T13:08:22Z</time></trkpt>
<trkpt lat="43.0020770000" lon="0.3511370000"><ele>851</ele><time>2026-03-24T13:08:24Z</time></trkpt>
<trkpt lat="43.0020770000" lon="0.3511680000"><ele>851</ele><time>2026-03-24T13:08:26Z</time></trkpt>
<trkpt lat="43.0020770000" lon="0.3512020000"><ele>850</ele><time>2026-03-24T13:08:28Z</time></trkpt>
<trkpt lat="43.0020750000" lon="0.3512370000"><ele>850</ele><time>2026-03-24T13:08:30Z</time></trkpt>
<trkpt lat="43.0020750000" lon="0.3512720000"><ele>850</ele><time>2026-03-24T13:08:32Z</time></trkpt>
<trkpt lat="43.0020700000" lon="0.3513030000"><ele>850</ele><time>2026-03-24T13:08:34Z</time></trkpt>
<trkpt lat="43.0020720000" lon="0.3513370000"><ele>849</ele><time>2026-03-24T13:08:36Z</time></trkpt>
<trkpt lat="43.0020700000" lon="0.3513670000"><ele>849</ele><time>2026-03-24T13:08:38Z</time></trkpt>
<trkpt lat="43.0020700000" lon="0.3514000000"><ele>848</ele><time>2026-03-24T13:08:40Z</time></trkpt>
<trkpt lat="43.0020700000" lon="0.3514320000"><ele>848</ele><time>2026-03-24T13:08:42Z</time></trkpt>
<trkpt lat="43.0020720000" lon="0.3514620000"><ele>848</ele><time>2026-03-24T13:08:44Z</time></trkpt>
<trkpt lat="43.0020720000" lon="0.3514950000"><ele>848</ele><time>2026-03-24T13:08:46Z</time></trkpt>
<trkpt lat="43.0020700000" lon="0.3515270000"><ele>847</ele><time>2026-03-24T13:08:48Z</time></trkpt>
<trkpt lat="43.0020700000" lon="0.3515570000"><ele>847</ele><time>2026-03-24T13:08:50Z</time></trkpt>
<trkpt lat="43.0020750000" lon="0.3515870000"><ele>847</ele><time>2026-03-24T13:08:52Z</time></trkpt>
<trkpt lat="43.0020770000" lon="0.3516170000"><ele>847</ele><time>2026-03-24T13:08:54Z</time></trkpt>
<trkpt lat="43.0020800000" lon="0.3516500000"><ele>846</ele><time>2026-03-24T13:08:56Z</time></trkpt>
<trkpt lat="43.0020820000" lon="0.3516820000"><ele>846</ele><time>2026-03-24T13:08:58Z</time></trkpt>
<trkpt lat="43.0020820000" lon="0.3517170000"><ele>845</ele><time>2026-03-24T13:09:00Z</time></trkpt>
<trkpt lat="43.0020820000" lon="0.3517520000"><ele>845</ele><time>2026-03-24T13:09:02Z</time></trkpt>
<trkpt lat="43.0020850000" lon="0.3517820000"><ele>845</ele><time>2026-03-24T13:09:04Z</time></trkpt>
<trkpt lat="43.0020820000" lon="0.3518170000"><ele>845</ele><time>2026-03-24T13:09:06Z</time></trkpt>
<trkpt lat="43.0020820000" lon="0.3518500000"><ele>844</ele><time>2026-03-24T13:09:08Z</time></trkpt>
<trkpt lat="43.0020820000" lon="0.3518830000"><ele>844</ele><time>2026-03-24T13:09:10Z</time></trkpt>
<trkpt lat="43.0020770000" lon="0.3519170000"><ele>844</ele><time>2026-03-24T13:09:12Z</time></trkpt>
<trkpt lat="43.0020750000" lon="0.3519500000"><ele>844</ele><time>2026-03-24T13:09:14Z</time></trkpt>
<trkpt lat="43.0020720000" lon="0.3519770000"><ele>843</ele><time>2026-03-24T13:09:16Z</time></trkpt>
<trkpt lat="43.0020720000" lon="0.3520070000"><ele>843</ele><time>2026-03-24T13:09:18Z</time></trkpt>
<trkpt lat="43.0020700000" lon="0.3520370000"><ele>843</ele><time>2026-03-24T13:09:20Z</time></trkpt>
<trkpt lat="43.0020620000" lon="0.3520650000"><ele>843</ele><time>2026-03-24T13:09:22Z</time></trkpt>
<trkpt lat="43.0020570000" lon="0.3520950000"><ele>842</ele><time>2026-03-24T13:09:24Z</time></trkpt>
<trkpt lat="43.0020520000" lon="0.3521220000"><ele>842</ele><time>2026-03-24T13:09:26Z</time></trkpt>
<trkpt lat="43.0020500000" lon="0.3521520000"><ele>842</ele><time>2026-03-24T13:09:28Z</time></trkpt>
<trkpt lat="43.0020450000" lon="0.3521850000"><ele>842</ele><time>2026-03-24T13:09:30Z</time></trkpt>
<trkpt lat="43.0020420000" lon="0.3522120000"><ele>841</ele><time>2026-03-24T13:09:32Z</time></trkpt>
<trkpt lat="43.0020470000" lon="0.3522520000"><ele>841</ele><time>2026-03-24T13:09:34Z</time></trkpt>
<trkpt lat="43.0020470000" lon="0.3522850000"><ele>841</ele><time>2026-03-24T13:09:36Z</time></trkpt>
<trkpt lat="43.0020450000" lon="0.3523170000"><ele>840</ele><time>2026-03-24T13:09:38Z</time></trkpt>
<trkpt lat="43.0020400000" lon="0.3523450000"><ele>840</ele><time>2026-03-24T13:09:40Z</time></trkpt>
<trkpt lat="43.0020320000" lon="0.3523800000"><ele>840</ele><time>2026-03-24T13:09:42Z</time></trkpt>
<trkpt lat="43.0020300000" lon="0.3524120000"><ele>840</ele><time>2026-03-24T13:09:44Z</time></trkpt>
<trkpt lat="43.0020320000" lon="0.3524470000"><ele>839</ele><time>2026-03-24T13:09:46Z</time></trkpt>
<trkpt lat="43.0020300000" lon="0.3524820000"><ele>839</ele><time>2026-03-24T13:09:48Z</time></trkpt>
<trkpt lat="43.0020270000" lon="0.3525170000"><ele>839</ele><time>2026-03-24T13:09:50Z</time></trkpt>
<trkpt lat="43.0020250000" lon="0.3525480000"><ele>838</ele><time>2026-03-24T13:09:52Z</time></trkpt>
<trkpt lat="43.0020220000" lon="0.3525850000"><ele>838</ele><time>2026-03-24T13:09:54Z</time></trkpt>
<trkpt lat="43.0020170000" lon="0.3526170000"><ele>838</ele><time>2026-03-24T13:09:56Z</time></trkpt>
<trkpt lat="43.0020170000" lon="0.3526520000"><ele>838</ele><time>2026-03-24T13:09:58Z</time></trkpt>
<trkpt lat="43.0020120000" lon="0.3526850000"><ele>837</ele><time>2026-03-24T13:10:00Z</time></trkpt>
<trkpt lat="43.0020120000" lon="0.3527170000"><ele>837</ele><time>2026-03-24T13:10:02Z</time></trkpt>
<trkpt lat="43.0020120000" lon="0.3527500000"><ele>836</ele><time>2026-03-24T13:10:04Z</time></trkpt>
<trkpt lat="43.0020070000" lon="0.3527820000"><ele>836</ele><time>2026-03-24T13:10:06Z</time></trkpt>
<trkpt lat="43.0020070000" lon="0.3528150000"><ele>836</ele><time>2026-03-24T13:10:08Z</time></trkpt>
<trkpt lat="43.0020070000" lon="0.3528480000"><ele>836</ele><time>2026-03-24T13:10:10Z</time></trkpt>
<trkpt lat="43.0020020000" lon="0.3528820000"><ele>835</ele><time>2026-03-24T13:10:12Z</time></trkpt>
<trkpt lat="43.0020020000" lon="0.3529150000"><ele>835</ele><time>2026-03-24T13:10:14Z</time></trkpt>
<trkpt lat="43.0020020000" lon="0.3529500000"><ele>835</ele><time>2026-03-24T13:10:16Z</time></trkpt>
<trkpt lat="43.0020020000" lon="0.3529830000"><ele>834</ele><time>2026-03-24T13:10:18Z</time></trkpt>
<trkpt lat="43.0020020000" lon="0.3530150000"><ele>834</ele><time>2026-03-24T13:10:20Z</time></trkpt>
<trkpt lat="43.0019970000" lon="0.3530420000"><ele>834</ele><time>2026-03-24T13:10:22Z</time></trkpt>
<trkpt lat="43.0019950000" lon="0.3530750000"><ele>834</ele><time>2026-03-24T13:10:24Z</time></trkpt>
<trkpt lat="43.0019920000" lon="0.3531080000"><ele>833</ele><time>2026-03-24T13:10:26Z</time></trkpt>
<trkpt lat="43.0019970000" lon="0.3531420000"><ele>833</ele><time>2026-03-24T13:10:28Z</time></trkpt>
<trkpt lat="43.0020020000" lon="0.3531720000"><ele>833</ele><time>2026-03-24T13:10:30Z</time></trkpt>
<trkpt lat="43.0020050000" lon="0.3532070000"><ele>832</ele><time>2026-03-24T13:10:32Z</time></trkpt>
<trkpt lat="43.0019970000" lon="0.3532350000"><ele>832</ele><time>2026-03-24T13:10:34Z</time></trkpt>
<trkpt lat="43.0019920000" lon="0.3532670000"><ele>831</ele><time>2026-03-24T13:10:36Z</time></trkpt>
<trkpt lat="43.0019900000" lon="0.3533020000"><ele>831</ele><time>2026-03-24T13:10:38Z</time></trkpt>
<trkpt lat="43.0019870000" lon="0.3533320000"><ele>831</ele><time>2026-03-24T13:10:40Z</time></trkpt>
<trkpt lat="43.0019820000" lon="0.3533630000"><ele>830</ele><time>2026-03-24T13:10:42Z</time></trkpt>
<trkpt lat="43.0019770000" lon="0.3533920000"><ele>830</ele><time>2026-03-24T13:10:44Z</time></trkpt>
<trkpt lat="43.0019800000" lon="0.3534270000"><ele>830</ele><time>2026-03-24T13:10:46Z</time></trkpt>
<trkpt lat="43.0019770000" lon="0.3534620000"><ele>830</ele><time>2026-03-24T13:10:48Z</time></trkpt>
<trkpt lat="43.0019770000" lon="0.3534970000"><ele>830</ele><time>2026-03-24T13:10:50Z</time></trkpt>
<trkpt lat="43.0019770000" lon="0.3535270000"><ele>829</ele><time>2026-03-24T13:10:52Z</time></trkpt>
<trkpt lat="43.0019720000" lon="0.3535620000"><ele>829</ele><time>2026-03-24T13:10:54Z</time></trkpt>
<trkpt lat="43.0019670000" lon="0.3535970000"><ele>829</ele><time>2026-03-24T13:10:56Z</time></trkpt>
<trkpt lat="43.0019620000" lon="0.3536320000"><ele>829</ele><time>2026-03-24T13:10:58Z</time></trkpt>
<trkpt lat="43.0019570000" lon="0.3536670000"><ele>828</ele><time>2026-03-24T13:11:00Z</time></trkpt>
<trkpt lat="43.0019450000" lon="0.3536950000"><ele>828</ele><time>2026-03-24T13:11:02Z</time></trkpt>
<trkpt lat="43.0019370000" lon="0.3537270000"><ele>828</ele><time>2026-03-24T13:11:04Z</time></trkpt>
<trkpt lat="43.0019320000" lon="0.3537570000"><ele>828</ele><time>2026-03-24T13:11:06Z</time></trkpt>
<trkpt lat="43.0019270000" lon="0.3537920000"><ele>828</ele><time>2026-03-24T13:11:08Z</time></trkpt>
<trkpt lat="43.0019220000" lon="0.3538220000"><ele>827</ele><time>2026-03-24T13:11:10Z</time></trkpt>
<trkpt lat="43.0019170000" lon="0.3538530000"><ele>827</ele><time>2026-03-24T13:11:12Z</time></trkpt>
<trkpt lat="43.0019120000" lon="0.3538870000"><ele>827</ele><time>2026-03-24T13:11:14Z</time></trkpt>
<trkpt lat="43.0019050000" lon="0.3539220000"><ele>826</ele><time>2026-03-24T13:11:16Z</time></trkpt>
<trkpt lat="43.0019000000" lon="0.3539570000"><ele>826</ele><time>2026-03-24T13:11:18Z</time></trkpt>
<trkpt lat="43.0018920000" lon="0.3539850000"><ele>826</ele><time>2026-03-24T13:11:20Z</time></trkpt>
<trkpt lat="43.0018870000" lon="0.3540170000"><ele>825</ele><time>2026-03-24T13:11:22Z</time></trkpt>
<trkpt lat="43.0018870000" lon="0.3540420000"><ele>825</ele><time>2026-03-24T13:11:24Z</time></trkpt>
<trkpt lat="43.0018850000" lon="0.3540730000"><ele>825</ele><time>2026-03-24T13:11:26Z</time></trkpt>
<trkpt lat="43.0018800000" lon="0.3541030000"><ele>825</ele><time>2026-03-24T13:11:28Z</time></trkpt>
<trkpt lat="43.0018750000" lon="0.3541320000"><ele>824</ele><time>2026-03-24T13:11:30Z</time></trkpt>
<trkpt lat="43.0018670000" lon="0.3541620000"><ele>824</ele><time>2026-03-24T13:11:32Z</time></trkpt>
<trkpt lat="43.0018620000" lon="0.3541930000"><ele>824</ele><time>2026-03-24T13:11:34Z</time></trkpt>
<trkpt lat="43.0018570000" lon="0.3542270000"><ele>823</ele><time>2026-03-24T13:11:36Z</time></trkpt>
<trkpt lat="43.0018520000" lon="0.3542620000"><ele>823</ele><time>2026-03-24T13:11:38Z</time></trkpt>
<trkpt lat="43.0018470000" lon="0.3542950000"><ele>823</ele><time>2026-03-24T13:11:40Z</time></trkpt>
<trkpt lat="43.0018450000" lon="0.3543270000"><ele>822</ele><time>2026-03-24T13:11:42Z</time></trkpt>
<trkpt lat="43.0018420000" lon="0.3543530000"><ele>822</ele><time>2026-03-24T13:11:44Z</time></trkpt>
<trkpt lat="43.0018420000" lon="0.3543850000"><ele>822</ele><time>2026-03-24T13:11:46Z</time></trkpt>
<trkpt lat="43.0018400000" lon="0.3544120000"><ele>821</ele><time>2026-03-24T13:11:48Z</time></trkpt>
<trkpt lat="43.0018320000" lon="0.3544370000"><ele>821</ele><time>2026-03-24T13:11:50Z</time></trkpt>
<trkpt lat="43.0018250000" lon="0.3544670000"><ele>821</ele><time>2026-03-24T13:11:52Z</time></trkpt>
<trkpt lat="43.0018220000" lon="0.3544950000"><ele>820</ele><time>2026-03-24T13:11:54Z</time></trkpt>
<trkpt lat="43.0018200000" lon="0.3545220000"><ele>820</ele><time>2026-03-24T13:11:56Z</time></trkpt>
<trkpt lat="43.0018170000" lon="0.3545570000"><ele>819</ele><time>2026-03-24T13:11:58Z</time></trkpt>
<trkpt lat="43.0018170000" lon="0.3545870000"><ele>819</ele><time>2026-03-24T13:12:00Z</time></trkpt>
<trkpt lat="43.0018120000" lon="0.3546200000"><ele>819</ele><time>2026-03-24T13:12:02Z</time></trkpt>
<trkpt lat="43.0018120000" lon="0.3546470000"><ele>819</ele><time>2026-03-24T13:12:04Z</time></trkpt>
<trkpt lat="43.0018100000" lon="0.3546770000"><ele>818</ele><time>2026-03-24T13:12:06Z</time></trkpt>
<trkpt lat="43.0018070000" lon="0.3547070000"><ele>818</ele><time>2026-03-24T13:12:08Z</time></trkpt>
<trkpt lat="43.0018020000" lon="0.3547350000"><ele>817</ele><time>2026-03-24T13:12:10Z</time></trkpt>
<trkpt lat="43.0018050000" lon="0.3547650000"><ele>817</ele><time>2026-03-24T13:12:12Z</time></trkpt>
<trkpt lat="43.0018050000" lon="0.3547970000"><ele>817</ele><time>2026-03-24T13:12:14Z</time></trkpt>
<trkpt lat="43.0018000000" lon="0.3548270000"><ele>816</ele><time>2026-03-24T13:12:16Z</time></trkpt>
<trkpt lat="43.0017920000" lon="0.3548600000"><ele>816</ele><time>2026-03-24T13:12:18Z</time></trkpt>
<trkpt lat="43.0017900000" lon="0.3548920000"><ele>816</ele><time>2026-03-24T13:12:20Z</time></trkpt>
<trkpt lat="43.0017870000" lon="0.3549230000"><ele>815</ele><time>2026-03-24T13:12:22Z</time></trkpt>
<trkpt lat="43.0017870000" lon="0.3549600000"><ele>815</ele><time>2026-03-24T13:12:24Z</time></trkpt>
<trkpt lat="43.0017920000" lon="0.3549920000"><ele>815</ele><time>2026-03-24T13:12:26Z</time></trkpt>
<trkpt lat="43.0017950000" lon="0.3550220000"><ele>815</ele><time>2026-03-24T13:12:28Z</time></trkpt>
<trkpt lat="43.0017920000" lon="0.3550520000"><ele>814</ele><time>2026-03-24T13:12:30Z</time></trkpt>
<trkpt lat="43.0017870000" lon="0.3550820000"><ele>814</ele><time>2026-03-24T13:12:32Z</time></trkpt>
<trkpt lat="43.0017820000" lon="0.3551120000"><ele>814</ele><time>2026-03-24T13:12:34Z</time></trkpt>
<trkpt lat="43.0017820000" lon="0.3551400000"><ele>813</ele><time>2026-03-24T13:12:36Z</time></trkpt>
<trkpt lat="43.0017770000" lon="0.3551700000"><ele>813</ele><time>2026-03-24T13:12:38Z</time></trkpt>
<trkpt lat="43.0017720000" lon="0.3552000000"><ele>813</ele><time>2026-03-24T13:12:40Z</time></trkpt>
<trkpt lat="43.0017670000" lon="0.3552300000"><ele>812</ele><time>2026-03-24T13:12:42Z</time></trkpt>
<trkpt lat="43.0017650000" lon="0.3552620000"><ele>812</ele><time>2026-03-24T13:12:44Z</time></trkpt>
<trkpt lat="43.0017620000" lon="0.3552950000"><ele>812</ele><time>2026-03-24T13:12:46Z</time></trkpt>
<trkpt lat="43.0017600000" lon="0.3553280000"><ele>811</ele><time>2026-03-24T13:12:48Z</time></trkpt>
<trkpt lat="43.0017570000" lon="0.3553600000"><ele>811</ele><time>2026-03-24T13:12:50Z</time></trkpt>
<trkpt lat="43.0017550000" lon="0.3553970000"><ele>811</ele><time>2026-03-24T13:12:52Z</time></trkpt>
<trkpt lat="43.0017520000" lon="0.3554300000"><ele>810</ele><time>2026-03-24T13:12:54Z</time></trkpt>
<trkpt lat="43.0017500000" lon="0.3554620000"><ele>810</ele><time>2026-03-24T13:12:56Z</time></trkpt>
<trkpt lat="43.0017470000" lon="0.3554920000"><ele>810</ele><time>2026-03-24T13:12:58Z</time></trkpt>
<trkpt lat="43.0017450000" lon="0.3555220000"><ele>810</ele><time>2026-03-24T13:13:00Z</time></trkpt>
<trkpt lat="43.0017420000" lon="0.3555550000"><ele>809</ele><time>2026-03-24T13:13:02Z</time></trkpt>
<trkpt lat="43.0017400000" lon="0.3555870000"><ele>809</ele><time>2026-03-24T13:13:04Z</time></trkpt>
<trkpt lat="43.0017370000" lon="0.3556150000"><ele>809</ele><time>2026-03-24T13:13:06Z</time></trkpt>
<trkpt lat="43.0017300000" lon="0.3556450000"><ele>809</ele><time>2026-03-24T13:13:08Z</time></trkpt>
<trkpt lat="43.0017250000" lon="0.3556750000"><ele>808</ele><time>2026-03-24T13:13:10Z</time></trkpt>
<trkpt lat="43.0017270000" lon="0.3557050000"><ele>808</ele><time>2026-03-24T13:13:12Z</time></trkpt>
<trkpt lat="43.0017220000" lon="0.3557320000"><ele>808</ele><time>2026-03-24T13:13:14Z</time></trkpt>
<trkpt lat="43.0017120000" lon="0.3557570000"><ele>808</ele><time>2026-03-24T13:13:16Z</time></trkpt>
<trkpt lat="43.0017050000" lon="0.3557870000"><ele>807</ele><time>2026-03-24T13:13:18Z</time></trkpt>
<trkpt lat="43.0016970000" lon="0.3558170000"><ele>807</ele><time>2026-03-24T13:13:20Z</time></trkpt>
<trkpt lat="43.0016920000" lon="0.3558570000"><ele>807</ele><time>2026-03-24T13:13:22Z</time></trkpt>
<trkpt lat="43.0016900000" lon="0.3558970000"><ele>807</ele><time>2026-03-24T13:13:24Z</time></trkpt>
<trkpt lat="43.0016870000" lon="0.3559270000"><ele>807</ele><time>2026-03-24T13:13:26Z</time></trkpt>
<trkpt lat="43.0016820000" lon="0.3559570000"><ele>806</ele><time>2026-03-24T13:13:28Z</time></trkpt>
<trkpt lat="43.0016820000" lon="0.3559870000"><ele>806</ele><time>2026-03-24T13:13:30Z</time></trkpt>
<trkpt lat="43.0016770000" lon="0.3560220000"><ele>806</ele><time>2026-03-24T13:13:32Z</time></trkpt>
<trkpt lat="43.0016750000" lon="0.3560520000"><ele>805</ele><time>2026-03-24T13:13:34Z</time></trkpt>
<trkpt lat="43.0016720000" lon="0.3560870000"><ele>805</ele><time>2026-03-24T13:13:36Z</time></trkpt>
<trkpt lat="43.0016700000" lon="0.3561200000"><ele>805</ele><time>2026-03-24T13:13:38Z</time></trkpt>
<trkpt lat="43.0016670000" lon="0.3561520000"><ele>805</ele><time>2026-03-24T13:13:40Z</time></trkpt>
<trkpt lat="43.0016670000" lon="0.3561870000"><ele>805</ele><time>2026-03-24T13:13:42Z</time></trkpt>
<trkpt lat="43.0016670000" lon="0.3562270000"><ele>804</ele><time>2026-03-24T13:13:44Z</time></trkpt>
<trkpt lat="43.0016670000" lon="0.3562570000"><ele>804</ele><time>2026-03-24T13:13:46Z</time></trkpt>
<trkpt lat="43.0016670000" lon="0.3562920000"><ele>804</ele><time>2026-03-24T13:13:48Z</time></trkpt>
<trkpt lat="43.0016650000" lon="0.3563220000"><ele>804</ele><time>2026-03-24T13:13:50Z</time></trkpt>
<trkpt lat="43.0016620000" lon="0.3563570000"><ele>804</ele><time>2026-03-24T13:13:52Z</time></trkpt>
<trkpt lat="43.0016600000" lon="0.3563900000"><ele>803</ele><time>2026-03-24T13:13:54Z</time></trkpt>
<trkpt lat="43.0016570000" lon="0.3564250000"><ele>803</ele><time>2026-03-24T13:13:56Z</time></trkpt>
<trkpt lat="43.0016570000" lon="0.3564580000"><ele>803</ele><time>2026-03-24T13:13:58Z</time></trkpt>
<trkpt lat="43.0016520000" lon="0.3564920000"><ele>803</ele><time>2026-03-24T13:14:00Z</time></trkpt>
<trkpt lat="43.0016550000" lon="0.3565270000"><ele>802</ele><time>2026-03-24T13:14:02Z</time></trkpt>
<trkpt lat="43.0016520000" lon="0.3565570000"><ele>802</ele><time>2026-03-24T13:14:04Z</time></trkpt>
<trkpt lat="43.0016500000" lon="0.3565900000"><ele>802</ele><time>2026-03-24T13:14:06Z</time></trkpt>
<trkpt lat="43.0016470000" lon="0.3566220000"><ele>802</ele><time>2026-03-24T13:14:08Z</time></trkpt>
<trkpt lat="43.0016450000" lon="0.3566520000"><ele>801</ele><time>2026-03-24T13:14:10Z</time></trkpt>
<trkpt lat="43.0016400000" lon="0.3566800000"><ele>801</ele><time>2026-03-24T13:14:12Z</time></trkpt>
<trkpt lat="43.0016370000" lon="0.3567170000"><ele>801</ele><time>2026-03-24T13:14:22Z</time></trkpt>
<trkpt lat="43.0016300000" lon="0.3567470000"><ele>800</ele><time>2026-03-24T13:14:24Z</time></trkpt>
<trkpt lat="43.0016250000" lon="0.3567720000"><ele>800</ele><time>2026-03-24T13:14:28Z</time></trkpt>
<trkpt lat="43.0016170000" lon="0.3568100000"><ele>800</ele><time>2026-03-24T13:14:30Z</time></trkpt>
<trkpt lat="43.0016070000" lon="0.3568520000"><ele>800</ele><time>2026-03-24T13:14:32Z</time></trkpt>
<trkpt lat="43.0016020000" lon="0.3568870000"><ele>800</ele><time>2026-03-24T13:14:34Z</time></trkpt>
<trkpt lat="43.0016020000" lon="0.3569320000"><ele>799</ele><time>2026-03-24T13:14:36Z</time></trkpt>
<trkpt lat="43.0016050000" lon="0.3569770000"><ele>799</ele><time>2026-03-24T13:14:38Z</time></trkpt>
<trkpt lat="43.0016070000" lon="0.3570250000"><ele>799</ele><time>2026-03-24T13:14:40Z</time></trkpt>
<trkpt lat="43.0016070000" lon="0.3570670000"><ele>799</ele><time>2026-03-24T13:14:42Z</time></trkpt>
<trkpt lat="43.0016070000" lon="0.3571050000"><ele>798</ele><time>2026-03-24T13:14:44Z</time></trkpt>
<trkpt lat="43.0016020000" lon="0.3571320000"><ele>798</ele><time>2026-03-24T13:14:46Z</time></trkpt>
<trkpt lat="43.0016050000" lon="0.3571570000"><ele>798</ele><time>2026-03-24T13:14:48Z</time></trkpt>
<trkpt lat="43.0016050000" lon="0.3571870000"><ele>798</ele><time>2026-03-24T13:14:50Z</time></trkpt>
<trkpt lat="43.0015970000" lon="0.3572170000"><ele>797</ele><time>2026-03-24T13:14:52Z</time></trkpt>
<trkpt lat="43.0015970000" lon="0.3572470000"><ele>797</ele><time>2026-03-24T13:14:54Z</time></trkpt>
<trkpt lat="43.0015920000" lon="0.3572820000"><ele>797</ele><time>2026-03-24T13:14:57Z</time></trkpt>
<trkpt lat="43.0015920000" lon="0.3573070000"><ele>797</ele><time>2026-03-24T13:14:59Z</time></trkpt>
<trkpt lat="43.0015900000" lon="0.3573350000"><ele>797</ele><time>2026-03-24T13:15:01Z</time></trkpt>
<trkpt lat="43.0015870000" lon="0.3573620000"><ele>796</ele><time>2026-03-24T13:15:03Z</time></trkpt>
<trkpt lat="43.0015820000" lon="0.3573900000"><ele>796</ele><time>2026-03-24T13:15:05Z</time></trkpt>
<trkpt lat="43.0015800000" lon="0.3574200000"><ele>796</ele><time>2026-03-24T13:15:07Z</time></trkpt>
<trkpt lat="43.0015750000" lon="0.3574520000"><ele>795</ele><time>2026-03-24T13:15:09Z</time></trkpt>
<trkpt lat="43.0015700000" lon="0.3574800000"><ele>795</ele><time>2026-03-24T13:15:11Z</time></trkpt>
<trkpt lat="43.0015700000" lon="0.3575100000"><ele>795</ele><time>2026-03-24T13:15:13Z</time></trkpt>
<trkpt lat="43.0015670000" lon="0.3575400000"><ele>794</ele><time>2026-03-24T13:15:15Z</time></trkpt>
<trkpt lat="43.0015580000" lon="0.3575680000"><ele>794</ele><time>2026-03-24T13:15:17Z</time></trkpt>
<trkpt lat="43.0015580000" lon="0.3575970000"><ele>794</ele><time>2026-03-24T13:15:19Z</time></trkpt>
<trkpt lat="43.0015580000" lon="0.3576270000"><ele>794</ele><time>2026-03-24T13:15:21Z</time></trkpt>
<trkpt lat="43.0015570000" lon="0.3576550000"><ele>794</ele><time>2026-03-24T13:15:23Z</time></trkpt>
<trkpt lat="43.0015570000" lon="0.3576830000"><ele>793</ele><time>2026-03-24T13:15:25Z</time></trkpt>
<trkpt lat="43.0015570000" lon="0.3577120000"><ele>793</ele><time>2026-03-24T13:15:27Z</time></trkpt>
<trkpt lat="43.0015550000" lon="0.3577400000"><ele>793</ele><time>2026-03-24T13:15:29Z</time></trkpt>
<trkpt lat="43.0015500000" lon="0.3577670000"><ele>793</ele><time>2026-03-24T13:15:31Z</time></trkpt>
<trkpt lat="43.0015450000" lon="0.3577930000"><ele>793</ele><time>2026-03-24T13:15:33Z</time></trkpt>
<trkpt lat="43.0015420000" lon="0.3578270000"><ele>792</ele><time>2026-03-24T13:15:35Z</time></trkpt>
<trkpt lat="43.0015370000" lon="0.3578570000"><ele>792</ele><time>2026-03-24T13:15:37Z</time></trkpt>
<trkpt lat="43.0015400000" lon="0.3578880000"><ele>791</ele><time>2026-03-24T13:15:40Z</time></trkpt>
<trkpt lat="43.0015450000" lon="0.3579200000"><ele>791</ele><time>2026-03-24T13:15:42Z</time></trkpt>
<trkpt lat="43.0015450000" lon="0.3579450000"><ele>791</ele><time>2026-03-24T13:15:44Z</time></trkpt>
<trkpt lat="43.0015420000" lon="0.3579770000"><ele>790</ele><time>2026-03-24T13:15:46Z</time></trkpt>
<trkpt lat="43.0015400000" lon="0.3580120000"><ele>790</ele><time>2026-03-24T13:15:48Z</time></trkpt>
<trkpt lat="43.0015400000" lon="0.3580500000"><ele>790</ele><time>2026-03-24T13:15:50Z</time></trkpt>
<trkpt lat="43.0015370000" lon="0.3580820000"><ele>789</ele><time>2026-03-24T13:15:52Z</time></trkpt>
<trkpt lat="43.0015320000" lon="0.3581170000"><ele>789</ele><time>2026-03-24T13:15:54Z</time></trkpt>
<trkpt lat="43.0015270000" lon="0.3581520000"><ele>789</ele><time>2026-03-24T13:15:56Z</time></trkpt>
<trkpt lat="43.0015250000" lon="0.3581820000"><ele>789</ele><time>2026-03-24T13:15:58Z</time></trkpt>
<trkpt lat="43.0015220000" lon="0.3582080000"><ele>788</ele><time>2026-03-24T13:16:00Z</time></trkpt>
<trkpt lat="43.0015200000" lon="0.3582420000"><ele>788</ele><time>2026-03-24T13:16:02Z</time></trkpt>
<trkpt lat="43.0015150000" lon="0.3582720000"><ele>788</ele><time>2026-03-24T13:16:04Z</time></trkpt>
<trkpt lat="43.0015100000" lon="0.3583020000"><ele>788</ele><time>2026-03-24T13:16:06Z</time></trkpt>
<trkpt lat="43.0015020000" lon="0.3583400000"><ele>787</ele><time>2026-03-24T13:16:08Z</time></trkpt>
<trkpt lat="43.0014970000" lon="0.3583700000"><ele>787</ele><time>2026-03-24T13:16:10Z</time></trkpt>
<trkpt lat="43.0014920000" lon="0.3583980000"><ele>787</ele><time>2026-03-24T13:16:12Z</time></trkpt>
<trkpt lat="43.0014870000" lon="0.3584320000"><ele>787</ele><time>2026-03-24T13:16:14Z</time></trkpt>
<trkpt lat="43.0014820000" lon="0.3584620000"><ele>786</ele><time>2026-03-24T13:16:16Z</time></trkpt>
<trkpt lat="43.0014770000" lon="0.3584920000"><ele>786</ele><time>2026-03-24T13:16:18Z</time></trkpt>
<trkpt lat="43.0014720000" lon="0.3585230000"><ele>786</ele><time>2026-03-24T13:16:20Z</time></trkpt>
<trkpt lat="43.0014670000" lon="0.3585570000"><ele>785</ele><time>2026-03-24T13:16:22Z</time></trkpt>
<trkpt lat="43.0014600000" lon="0.3585820000"><ele>785</ele><time>2026-03-24T13:16:24Z</time></trkpt>
<trkpt lat="43.0014520000" lon="0.3586120000"><ele>785</ele><time>2026-03-24T13:16:26Z</time></trkpt>
<trkpt lat="43.0014500000" lon="0.3586370000"><ele>785</ele><time>2026-03-24T13:16:28Z</time></trkpt>
<trkpt lat="43.0014420000" lon="0.3586650000"><ele>784</ele><time>2026-03-24T13:16:30Z</time></trkpt>
<trkpt lat="43.0014370000" lon="0.3586920000"><ele>784</ele><time>2026-03-24T13:16:32Z</time></trkpt>
<trkpt lat="43.0014320000" lon="0.3587250000"><ele>784</ele><time>2026-03-24T13:16:34Z</time></trkpt>
<trkpt lat="43.0014300000" lon="0.3587570000"><ele>783</ele><time>2026-03-24T13:16:36Z</time></trkpt>
<trkpt lat="43.0014220000" lon="0.3587920000"><ele>783</ele><time>2026-03-24T13:16:38Z</time></trkpt>
<trkpt lat="43.0014150000" lon="0.3588220000"><ele>783</ele><time>2026-03-24T13:16:40Z</time></trkpt>
<trkpt lat="43.0014070000" lon="0.3588520000"><ele>783</ele><time>2026-03-24T13:16:42Z</time></trkpt>
<trkpt lat="43.0014030000" lon="0.3588820000"><ele>783</ele><time>2026-03-24T13:16:44Z</time></trkpt>
<trkpt lat="43.0014000000" lon="0.3589130000"><ele>782</ele><time>2026-03-24T13:16:46Z</time></trkpt>
<trkpt lat="43.0013920000" lon="0.3589450000"><ele>782</ele><time>2026-03-24T13:16:48Z</time></trkpt>
<trkpt lat="43.0013870000" lon="0.3589720000"><ele>782</ele><time>2026-03-24T13:16:50Z</time></trkpt>
<trkpt lat="43.0013820000" lon="0.3589970000"><ele>782</ele><time>2026-03-24T13:16:52Z</time></trkpt>
<trkpt lat="43.0013720000" lon="0.3590270000"><ele>781</ele><time>2026-03-24T13:16:54Z</time></trkpt>
<trkpt lat="43.0013620000" lon="0.3590520000"><ele>781</ele><time>2026-03-24T13:16:56Z</time></trkpt>
<trkpt lat="43.0013620000" lon="0.3590800000"><ele>781</ele><time>2026-03-24T13:16:58Z</time></trkpt>
<trkpt lat="43.0013600000" lon="0.3591070000"><ele>781</ele><time>2026-03-24T13:17:00Z</time></trkpt>
<trkpt lat="43.0013520000" lon="0.3591370000"><ele>780</ele><time>2026-03-24T13:17:02Z</time></trkpt>
<trkpt lat="43.0013450000" lon="0.3591700000"><ele>780</ele><time>2026-03-24T13:17:04Z</time></trkpt>
<trkpt lat="43.0013370000" lon="0.3591970000"><ele>780</ele><time>2026-03-24T13:17:06Z</time></trkpt>
<trkpt lat="43.0013320000" lon="0.3592250000"><ele>780</ele><time>2026-03-24T13:17:08Z</time></trkpt>
<trkpt lat="43.0013300000" lon="0.3592520000"><ele>779</ele><time>2026-03-24T13:17:10Z</time></trkpt>
<trkpt lat="43.0013220000" lon="0.3592870000"><ele>779</ele><time>2026-03-24T13:17:12Z</time></trkpt>
<trkpt lat="43.0013220000" lon="0.3593270000"><ele>779</ele><time>2026-03-24T13:17:14Z</time></trkpt>
<trkpt lat="43.0013200000" lon="0.3593620000"><ele>778</ele><time>2026-03-24T13:17:16Z</time></trkpt>
<trkpt lat="43.0013150000" lon="0.3593950000"><ele>778</ele><time>2026-03-24T13:17:18Z</time></trkpt>
<trkpt lat="43.0013120000" lon="0.3594270000"><ele>778</ele><time>2026-03-24T13:17:20Z</time></trkpt>
<trkpt lat="43.0013050000" lon="0.3594570000"><ele>778</ele><time>2026-03-24T13:17:22Z</time></trkpt>
<trkpt lat="43.0013020000" lon="0.3594920000"><ele>777</ele><time>2026-03-24T13:17:24Z</time></trkpt>
<trkpt lat="43.0012970000" lon="0.3595220000"><ele>777</ele><time>2026-03-24T13:17:26Z</time></trkpt>
<trkpt lat="43.0012920000" lon="0.3595520000"><ele>777</ele><time>2026-03-24T13:17:28Z</time></trkpt>
<trkpt lat="43.0012820000" lon="0.3595820000"><ele>777</ele><time>2026-03-24T13:17:30Z</time></trkpt>
<trkpt lat="43.0012750000" lon="0.3596120000"><ele>776</ele><time>2026-03-24T13:17:32Z</time></trkpt>
<trkpt lat="43.0012670000" lon="0.3596420000"><ele>776</ele><time>2026-03-24T13:17:34Z</time></trkpt>
<trkpt lat="43.0012670000" lon="0.3596720000"><ele>776</ele><time>2026-03-24T13:17:36Z</time></trkpt>
<trkpt lat="43.0012620000" lon="0.3597000000"><ele>776</ele><time>2026-03-24T13:17:38Z</time></trkpt>
<trkpt lat="43.0012600000" lon="0.3597270000"><ele>775</ele><time>2026-03-24T13:17:40Z</time></trkpt>
<trkpt lat="43.0012550000" lon="0.3597570000"><ele>775</ele><time>2026-03-24T13:17:42Z</time></trkpt>
<trkpt lat="43.0012470000" lon="0.3597870000"><ele>775</ele><time>2026-03-24T13:17:44Z</time></trkpt>
<trkpt lat="43.0012470000" lon="0.3598170000"><ele>774</ele><time>2026-03-24T13:17:46Z</time></trkpt>
<trkpt lat="43.0012470000" lon="0.3598500000"><ele>774</ele><time>2026-03-24T13:17:48Z</time></trkpt>
<trkpt lat="43.0012420000" lon="0.3598820000"><ele>774</ele><time>2026-03-24T13:17:50Z</time></trkpt>
<trkpt lat="43.0012320000" lon="0.3599070000"><ele>774</ele><time>2026-03-24T13:17:52Z</time></trkpt>
<trkpt lat="43.0012270000" lon="0.3599420000"><ele>774</ele><time>2026-03-24T13:17:54Z</time></trkpt>
<trkpt lat="43.0012220000" lon="0.3599770000"><ele>773</ele><time>2026-03-24T13:17:56Z</time></trkpt>
<trkpt lat="43.0012170000" lon="0.3600130000"><ele>773</ele><time>2026-03-24T13:17:58Z</time></trkpt>
<trkpt lat="43.0012150000" lon="0.3600470000"><ele>773</ele><time>2026-03-24T13:18:00Z</time></trkpt>
<trkpt lat="43.0012200000" lon="0.3600800000"><ele>773</ele><time>2026-03-24T13:18:02Z</time></trkpt>
<trkpt lat="43.0012170000" lon="0.3601120000"><ele>772</ele><time>2026-03-24T13:18:04Z</time></trkpt>
<trkpt lat="43.0012120000" lon="0.3601420000"><ele>772</ele><time>2026-03-24T13:18:06Z</time></trkpt>
<trkpt lat="43.0012120000" lon="0.3601750000"><ele>772</ele><time>2026-03-24T13:18:08Z</time></trkpt>
<trkpt lat="43.0012100000" lon="0.3602070000"><ele>771</ele><time>2026-03-24T13:18:10Z</time></trkpt>
<trkpt lat="43.0012070000" lon="0.3602370000"><ele>771</ele><time>2026-03-24T13:18:12Z</time></trkpt>
<trkpt lat="43.0012050000" lon="0.3602670000"><ele>771</ele><time>2026-03-24T13:18:14Z</time></trkpt>
<trkpt lat="43.0011970000" lon="0.3602970000"><ele>771</ele><time>2026-03-24T13:18:16Z</time></trkpt>
<trkpt lat="43.0011870000" lon="0.3603220000"><ele>770</ele><time>2026-03-24T13:18:18Z</time></trkpt>
<trkpt lat="43.0011780000" lon="0.3603470000"><ele>770</ele><time>2026-03-24T13:18:20Z</time></trkpt>
<trkpt lat="43.0011750000" lon="0.3603770000"><ele>770</ele><time>2026-03-24T13:18:22Z</time></trkpt>
<trkpt lat="43.0011700000" lon="0.3604050000"><ele>770</ele><time>2026-03-24T13:18:24Z</time></trkpt>
<trkpt lat="43.0011670000" lon="0.3604370000"><ele>770</ele><time>2026-03-24T13:18:26Z</time></trkpt>
<trkpt lat="43.0011670000" lon="0.3604720000"><ele>769</ele><time>2026-03-24T13:18:28Z</time></trkpt>
<trkpt lat="43.0011620000" lon="0.3605070000"><ele>769</ele><time>2026-03-24T13:18:30Z</time></trkpt>
<trkpt lat="43.0011550000" lon="0.3605450000"><ele>769</ele><time>2026-03-24T13:18:32Z</time></trkpt>
<trkpt lat="43.0011470000" lon="0.3605770000"><ele>769</ele><time>2026-03-24T13:18:34Z</time></trkpt>
<trkpt lat="43.0011420000" lon="0.3606080000"><ele>768</ele><time>2026-03-24T13:18:36Z</time></trkpt>
<trkpt lat="43.0011320000" lon="0.3606450000"><ele>768</ele><time>2026-03-24T13:18:38Z</time></trkpt>
<trkpt lat="43.0011250000" lon="0.3606770000"><ele>768</ele><time>2026-03-24T13:18:40Z</time></trkpt>
<trkpt lat="43.0011170000" lon="0.3607020000"><ele>767</ele><time>2026-03-24T13:18:42Z</time></trkpt>
<trkpt lat="43.0011050000" lon="0.3607320000"><ele>767</ele><time>2026-03-24T13:18:44Z</time></trkpt>
<trkpt lat="43.0010950000" lon="0.3607700000"><ele>767</ele><time>2026-03-24T13:18:46Z</time></trkpt>
<trkpt lat="43.0010870000" lon="0.3608020000"><ele>766</ele><time>2026-03-24T13:18:48Z</time></trkpt>
<trkpt lat="43.0010850000" lon="0.3608320000"><ele>766</ele><time>2026-03-24T13:18:50Z</time></trkpt>
<trkpt lat="43.0010820000" lon="0.3608570000"><ele>766</ele><time>2026-03-24T13:18:52Z</time></trkpt>
<trkpt lat="43.0010750000" lon="0.3608870000"><ele>766</ele><time>2026-03-24T13:18:54Z</time></trkpt>
<trkpt lat="43.0010670000" lon="0.3609200000"><ele>765</ele><time>2026-03-24T13:18:56Z</time></trkpt>
<trkpt lat="43.0010620000" lon="0.3609520000"><ele>765</ele><time>2026-03-24T13:18:58Z</time></trkpt>
<trkpt lat="43.0010570000" lon="0.3609820000"><ele>765</ele><time>2026-03-24T13:19:00Z</time></trkpt>
<trkpt lat="43.0010520000" lon="0.3610120000"><ele>765</ele><time>2026-03-24T13:19:02Z</time></trkpt>
<trkpt lat="43.0010470000" lon="0.3610420000"><ele>765</ele><time>2026-03-24T13:19:04Z</time></trkpt>
<trkpt lat="43.0010370000" lon="0.3610730000"><ele>765</ele><time>2026-03-24T13:19:06Z</time></trkpt>
<trkpt lat="43.0010230000" lon="0.3611020000"><ele>764</ele><time>2026-03-24T13:19:08Z</time></trkpt>
<trkpt lat="43.0010170000" lon="0.3611330000"><ele>764</ele><time>2026-03-24T13:19:10Z</time></trkpt>
<trkpt lat="43.0010100000" lon="0.3611650000"><ele>764</ele><time>2026-03-24T13:19:12Z</time></trkpt>
<trkpt lat="43.0010000000" lon="0.3611970000"><ele>764</ele><time>2026-03-24T13:19:14Z</time></trkpt>
<trkpt lat="43.0009920000" lon="0.3612250000"><ele>764</ele><time>2026-03-24T13:19:16Z</time></trkpt>
<trkpt lat="43.0009870000" lon="0.3612470000"><ele>763</ele><time>2026-03-24T13:19:18Z</time></trkpt>
<trkpt lat="43.0009770000" lon="0.3612800000"><ele>763</ele><time>2026-03-24T13:19:20Z</time></trkpt>
<trkpt lat="43.0009650000" lon="0.3613030000"><ele>763</ele><time>2026-03-24T13:19:22Z</time></trkpt>
<trkpt lat="43.0009570000" lon="0.3613320000"><ele>763</ele><time>2026-03-24T13:19:24Z</time></trkpt>
<trkpt lat="43.0009470000" lon="0.3613530000"><ele>762</ele><time>2026-03-24T13:19:26Z</time></trkpt>
<trkpt lat="43.0009420000" lon="0.3613850000"><ele>762</ele><time>2026-03-24T13:19:28Z</time></trkpt>
<trkpt lat="43.0009320000" lon="0.3614070000"><ele>762</ele><time>2026-03-24T13:19:30Z</time></trkpt>
<trkpt lat="43.0009170000" lon="0.3614270000"><ele>762</ele><time>2026-03-24T13:19:32Z</time></trkpt>
<trkpt lat="43.0008970000" lon="0.3614420000"><ele>762</ele><time>2026-03-24T13:19:34Z</time></trkpt>
<trkpt lat="43.0008820000" lon="0.3614620000"><ele>761</ele><time>2026-03-24T13:19:37Z</time></trkpt>
<trkpt lat="43.0008620000" lon="0.3614620000"><ele>761</ele><time>2026-03-24T13:19:39Z</time></trkpt>
<trkpt lat="43.0008350000" lon="0.3614700000"><ele>761</ele><time>2026-03-24T13:19:41Z</time></trkpt>
<trkpt lat="43.0008170000" lon="0.3614750000"><ele>761</ele><time>2026-03-24T13:19:42Z</time></trkpt>
<trkpt lat="43.0007870000" lon="0.3614820000"><ele>761</ele><time>2026-03-24T13:19:44Z</time></trkpt>
<trkpt lat="43.0007650000" lon="0.3614970000"><ele>760</ele><time>2026-03-24T13:19:46Z</time></trkpt>
<trkpt lat="43.0007420000" lon="0.3615120000"><ele>760</ele><time>2026-03-24T13:19:48Z</time></trkpt>
<trkpt lat="43.0007220000" lon="0.3615270000"><ele>760</ele><time>2026-03-24T13:19:50Z</time></trkpt>
<trkpt lat="43.0007050000" lon="0.3615420000"><ele>759</ele><time>2026-03-24T13:19:52Z</time></trkpt>
<trkpt lat="43.0006870000" lon="0.3615670000"><ele>759</ele><time>2026-03-24T13:19:54Z</time></trkpt>
<trkpt lat="43.0006620000" lon="0.3615900000"><ele>759</ele><time>2026-03-24T13:19:56Z</time></trkpt>
<trkpt lat="43.0006420000" lon="0.3615970000"><ele>758</ele><time>2026-03-24T13:20:37Z</time></trkpt>
<trkpt lat="43.0006220000" lon="0.3616200000"><ele>758</ele><time>2026-03-24T13:20:39Z</time></trkpt>
<trkpt lat="43.0005970000" lon="0.3616420000"><ele>758</ele><time>2026-03-24T13:20:41Z</time></trkpt>
<trkpt lat="43.0005820000" lon="0.3616650000"><ele>758</ele><time>2026-03-24T13:20:43Z</time></trkpt>
<trkpt lat="43.0005650000" lon="0.3616830000"><ele>757</ele><time>2026-03-24T13:20:45Z</time></trkpt>
<trkpt lat="43.0005470000" lon="0.3617020000"><ele>757</ele><time>2026-03-24T13:20:47Z</time></trkpt>
<trkpt lat="43.0005270000" lon="0.3617220000"><ele>757</ele><time>2026-03-24T13:20:49Z</time></trkpt>
<trkpt lat="43.0005120000" lon="0.3617400000"><ele>757</ele><time>2026-03-24T13:20:51Z</time></trkpt>
<trkpt lat="43.0004920000" lon="0.3617600000"><ele>757</ele><time>2026-03-24T13:20:53Z</time></trkpt>
<trkpt lat="43.0004750000" lon="0.3617750000"><ele>756</ele><time>2026-03-24T13:20:55Z</time></trkpt>
<trkpt lat="43.0004570000" lon="0.3617870000"><ele>756</ele><time>2026-03-24T13:20:57Z</time></trkpt>
<trkpt lat="43.0004370000" lon="0.3618000000"><ele>756</ele><time>2026-03-24T13:20:59Z</time></trkpt>
<trkpt lat="43.0004180000" lon="0.3618170000"><ele>755</ele><time>2026-03-24T13:21:01Z</time></trkpt>
<trkpt lat="43.0004050000" lon="0.3618370000"><ele>755</ele><time>2026-03-24T13:21:03Z</time></trkpt>
<trkpt lat="43.0003950000" lon="0.3618620000"><ele>755</ele><time>2026-03-24T13:21:05Z</time></trkpt>
<trkpt lat="43.0003970000" lon="0.3618920000"><ele>754</ele><time>2026-03-24T13:21:08Z</time></trkpt>
<trkpt lat="43.0004170000" lon="0.3619120000"><ele>754</ele><time>2026-03-24T13:21:11Z</time></trkpt>
<trkpt lat="43.0004450000" lon="0.3619220000"><ele>753</ele><time>2026-03-24T13:21:14Z</time></trkpt>
<trkpt lat="43.0004720000" lon="0.3619200000"><ele>753</ele><time>2026-03-24T13:21:16Z</time></trkpt>
<trkpt lat="43.0004920000" lon="0.3619130000"><ele>753</ele><time>2026-03-24T13:21:18Z</time></trkpt>
<trkpt lat="43.0005170000" lon="0.3619070000"><ele>753</ele><time>2026-03-24T13:21:20Z</time></trkpt>
<trkpt lat="43.0005420000" lon="0.3619120000"><ele>753</ele><time>2026-03-24T13:21:22Z</time></trkpt>
<trkpt lat="43.0005670000" lon="0.3619170000"><ele>752</ele><time>2026-03-24T13:21:24Z</time></trkpt>
<trkpt lat="43.0006000000" lon="0.3619270000"><ele>752</ele><time>2026-03-24T13:21:26Z</time></trkpt>
<trkpt lat="43.0006220000" lon="0.3619320000"><ele>752</ele><time>2026-03-24T13:21:28Z</time></trkpt>
<trkpt lat="43.0006470000" lon="0.3619370000"><ele>751</ele><time>2026-03-24T13:21:31Z</time></trkpt>
<trkpt lat="43.0006670000" lon="0.3619470000"><ele>751</ele><time>2026-03-24T13:21:33Z</time></trkpt>
<trkpt lat="43.0006850000" lon="0.3619620000"><ele>750</ele><time>2026-03-24T13:21:35Z</time></trkpt>
<trkpt lat="43.0007050000" lon="0.3619820000"><ele>750</ele><time>2026-03-24T13:21:37Z</time></trkpt>
<trkpt lat="43.0007220000" lon="0.3620050000"><ele>750</ele><time>2026-03-24T13:21:39Z</time></trkpt>
<trkpt lat="43.0007400000" lon="0.3620300000"><ele>749</ele><time>2026-03-24T13:21:41Z</time></trkpt>
<trkpt lat="43.0007570000" lon="0.3620480000"><ele>749</ele><time>2026-03-24T13:21:43Z</time></trkpt>
<trkpt lat="43.0007770000" lon="0.3620650000"><ele>749</ele><time>2026-03-24T13:21:45Z</time></trkpt>
<trkpt lat="43.0007950000" lon="0.3620870000"><ele>749</ele><time>2026-03-24T13:21:47Z</time></trkpt>
<trkpt lat="43.0008150000" lon="0.3621070000"><ele>748</ele><time>2026-03-24T13:21:49Z</time></trkpt>
<trkpt lat="43.0008400000" lon="0.3621270000"><ele>748</ele><time>2026-03-24T13:21:51Z</time></trkpt>
<trkpt lat="43.0008570000" lon="0.3621470000"><ele>747</ele><time>2026-03-24T13:21:53Z</time></trkpt>
<trkpt lat="43.0008770000" lon="0.3621650000"><ele>747</ele><time>2026-03-24T13:21:55Z</time></trkpt>
<trkpt lat="43.0008970000" lon="0.3621870000"><ele>747</ele><time>2026-03-24T13:21:57Z</time></trkpt>
<trkpt lat="43.0009170000" lon="0.3622070000"><ele>746</ele><time>2026-03-24T13:21:59Z</time></trkpt>
<trkpt lat="43.0009370000" lon="0.3622250000"><ele>746</ele><time>2026-03-24T13:22:01Z</time></trkpt>
<trkpt lat="43.0009570000" lon="0.3622470000"><ele>746</ele><time>2026-03-24T13:22:03Z</time></trkpt>
<trkpt lat="43.0009770000" lon="0.3622520000"><ele>745</ele><time>2026-03-24T13:22:05Z</time></trkpt>
<trkpt lat="43.0009970000" lon="0.3622470000"><ele>745</ele><time>2026-03-24T13:22:07Z</time></trkpt>
<trkpt lat="43.0010150000" lon="0.3622550000"><ele>744</ele><time>2026-03-24T13:22:12Z</time></trkpt>
<trkpt lat="43.0010300000" lon="0.3622720000"><ele>744</ele><time>2026-03-24T13:22:14Z</time></trkpt>
<trkpt lat="43.0010520000" lon="0.3622780000"><ele>744</ele><time>2026-03-24T13:22:16Z</time></trkpt>
<trkpt lat="43.0010700000" lon="0.3622770000"><ele>744</ele><time>2026-03-24T13:22:18Z</time></trkpt>
<trkpt lat="43.0010970000" lon="0.3622720000"><ele>743</ele><time>2026-03-24T13:22:20Z</time></trkpt>
<trkpt lat="43.0011170000" lon="0.3622650000"><ele>743</ele><time>2026-03-24T13:22:22Z</time></trkpt>
<trkpt lat="43.0011350000" lon="0.3622520000"><ele>743</ele><time>2026-03-24T13:22:25Z</time></trkpt>
<trkpt lat="43.0011570000" lon="0.3622330000"><ele>742</ele><time>2026-03-24T13:22:28Z</time></trkpt>
<trkpt lat="43.0011720000" lon="0.3622150000"><ele>742</ele><time>2026-03-24T13:22:30Z</time></trkpt>
<trkpt lat="43.0011920000" lon="0.3621970000"><ele>741</ele><time>2026-03-24T13:22:32Z</time></trkpt>
<trkpt lat="43.0012120000" lon="0.3621720000"><ele>741</ele><time>2026-03-24T13:22:34Z</time></trkpt>
<trkpt lat="43.0012320000" lon="0.3621570000"><ele>741</ele><time>2026-03-24T13:22:36Z</time></trkpt>
<trkpt lat="43.0012600000" lon="0.3621370000"><ele>740</ele><time>2026-03-24T13:22:38Z</time></trkpt>
<trkpt lat="43.0012770000" lon="0.3621230000"><ele>740</ele><time>2026-03-24T13:22:40Z</time></trkpt>
<trkpt lat="43.0012870000" lon="0.3620970000"><ele>740</ele><time>2026-03-24T13:22:42Z</time></trkpt>
<trkpt lat="43.0013050000" lon="0.3620750000"><ele>740</ele><time>2026-03-24T13:22:44Z</time></trkpt>
<trkpt lat="43.0013270000" lon="0.3620580000"><ele>739</ele><time>2026-03-24T13:22:46Z</time></trkpt>
<trkpt lat="43.0013570000" lon="0.3620550000"><ele>739</ele><time>2026-03-24T13:22:48Z</time></trkpt>
<trkpt lat="43.0013870000" lon="0.3620650000"><ele>739</ele><time>2026-03-24T13:22:50Z</time></trkpt>
<trkpt lat="43.0014100000" lon="0.3620920000"><ele>739</ele><time>2026-03-24T13:22:52Z</time></trkpt>
<trkpt lat="43.0014170000" lon="0.3621320000"><ele>739</ele><time>2026-03-24T13:22:54Z</time></trkpt>
<trkpt lat="43.0014150000" lon="0.3621720000"><ele>739</ele><time>2026-03-24T13:22:56Z</time></trkpt>
<trkpt lat="43.0014070000" lon="0.3622120000"><ele>738</ele><time>2026-03-24T13:22:58Z</time></trkpt>
<trkpt lat="43.0013970000" lon="0.3622500000"><ele>738</ele><time>2026-03-24T13:23:00Z</time></trkpt>
<trkpt lat="43.0013870000" lon="0.3622780000"><ele>738</ele><time>2026-03-24T13:23:02Z</time></trkpt>
<trkpt lat="43.0013800000" lon="0.3623100000"><ele>738</ele><time>2026-03-24T13:23:04Z</time></trkpt>
<trkpt lat="43.0013670000" lon="0.3623420000"><ele>738</ele><time>2026-03-24T13:23:06Z</time></trkpt>
<trkpt lat="43.0013570000" lon="0.3623720000"><ele>738</ele><time>2026-03-24T13:23:08Z</time></trkpt>
<trkpt lat="43.0013420000" lon="0.3623970000"><ele>737</ele><time>2026-03-24T13:23:10Z</time></trkpt>
<trkpt lat="43.0013270000" lon="0.3624220000"><ele>737</ele><time>2026-03-24T13:23:12Z</time></trkpt>
<trkpt lat="43.0013150000" lon="0.3624500000"><ele>737</ele><time>2026-03-24T13:23:14Z</time></trkpt>
<trkpt lat="43.0013020000" lon="0.3624720000"><ele>736</ele><time>2026-03-24T13:23:16Z</time></trkpt>
<trkpt lat="43.0012950000" lon="0.3625020000"><ele>736</ele><time>2026-03-24T13:23:18Z</time></trkpt>
<trkpt lat="43.0012850000" lon="0.3625300000"><ele>736</ele><time>2026-03-24T13:23:20Z</time></trkpt>
<trkpt lat="43.0012770000" lon="0.3625570000"><ele>735</ele><time>2026-03-24T13:23:22Z</time></trkpt>
<trkpt lat="43.0012630000" lon="0.3625920000"><ele>735</ele><time>2026-03-24T13:23:24Z</time></trkpt>
<trkpt lat="43.0012520000" lon="0.3626270000"><ele>735</ele><time>2026-03-24T13:23:26Z</time></trkpt>
<trkpt lat="43.0012420000" lon="0.3626580000"><ele>735</ele><time>2026-03-24T13:23:28Z</time></trkpt>
<trkpt lat="43.0012320000" lon="0.3626830000"><ele>734</ele><time>2026-03-24T13:23:30Z</time></trkpt>
<trkpt lat="43.0012220000" lon="0.3627150000"><ele>734</ele><time>2026-03-24T13:23:32Z</time></trkpt>
<trkpt lat="43.0012120000" lon="0.3627500000"><ele>734</ele><time>2026-03-24T13:23:34Z</time></trkpt>
<trkpt lat="43.0012020000" lon="0.3627770000"><ele>733</ele><time>2026-03-24T13:23:36Z</time></trkpt>
<trkpt lat="43.0011900000" lon="0.3627970000"><ele>733</ele><time>2026-03-24T13:23:38Z</time></trkpt>
<trkpt lat="43.0011770000" lon="0.3628220000"><ele>733</ele><time>2026-03-24T13:23:40Z</time></trkpt>
<trkpt lat="43.0011620000" lon="0.3628370000"><ele>733</ele><time>2026-03-24T13:23:42Z</time></trkpt>
<trkpt lat="43.0011420000" lon="0.3628500000"><ele>732</ele><time>2026-03-24T13:23:44Z</time></trkpt>
<trkpt lat="43.0011250000" lon="0.3628700000"><ele>732</ele><time>2026-03-24T13:23:46Z</time></trkpt>
<trkpt lat="43.0011050000" lon="0.3628850000"><ele>732</ele><time>2026-03-24T13:23:48Z</time></trkpt>
<trkpt lat="43.0010850000" lon="0.3628950000"><ele>732</ele><time>2026-03-24T13:23:50Z</time></trkpt>
<trkpt lat="43.0010600000" lon="0.3628920000"><ele>731</ele><time>2026-03-24T13:23:52Z</time></trkpt>
<trkpt lat="43.0010350000" lon="0.3628920000"><ele>731</ele><time>2026-03-24T13:23:54Z</time></trkpt>
<trkpt lat="43.0010150000" lon="0.3628970000"><ele>731</ele><time>2026-03-24T13:23:56Z</time></trkpt>
<trkpt lat="43.0009920000" lon="0.3629020000"><ele>730</ele><time>2026-03-24T13:23:58Z</time></trkpt>
<trkpt lat="43.0009570000" lon="0.3629070000"><ele>730</ele><time>2026-03-24T13:24:00Z</time></trkpt>
<trkpt lat="43.0009370000" lon="0.3629150000"><ele>730</ele><time>2026-03-24T13:24:02Z</time></trkpt>
<trkpt lat="43.0009120000" lon="0.3629170000"><ele>729</ele><time>2026-03-24T13:24:04Z</time></trkpt>
<trkpt lat="43.0008870000" lon="0.3629250000"><ele>729</ele><time>2026-03-24T13:24:06Z</time></trkpt>
<trkpt lat="43.0008570000" lon="0.3629270000"><ele>729</ele><time>2026-03-24T13:24:08Z</time></trkpt>
<trkpt lat="43.0008320000" lon="0.3629370000"><ele>729</ele><time>2026-03-24T13:24:10Z</time></trkpt>
<trkpt lat="43.0008120000" lon="0.3629380000"><ele>729</ele><time>2026-03-24T13:24:12Z</time></trkpt>
<trkpt lat="43.0007900000" lon="0.3629420000"><ele>728</ele><time>2026-03-24T13:24:14Z</time></trkpt>
<trkpt lat="43.0007670000" lon="0.3629470000"><ele>728</ele><time>2026-03-24T13:24:16Z</time></trkpt>
<trkpt lat="43.0007520000" lon="0.3629620000"><ele>728</ele><time>2026-03-24T13:24:18Z</time></trkpt>
<trkpt lat="43.0007270000" lon="0.3629820000"><ele>728</ele><time>2026-03-24T13:24:20Z</time></trkpt>
<trkpt lat="43.0007070000" lon="0.3629870000"><ele>727</ele><time>2026-03-24T13:24:22Z</time></trkpt>
<trkpt lat="43.0006850000" lon="0.3629970000"><ele>727</ele><time>2026-03-24T13:24:24Z</time></trkpt>
<trkpt lat="43.0006670000" lon="0.3630220000"><ele>727</ele><time>2026-03-24T13:24:26Z</time></trkpt>
<trkpt lat="43.0006500000" lon="0.3630470000"><ele>727</ele><time>2026-03-24T13:24:28Z</time></trkpt>
<trkpt lat="43.0006320000" lon="0.3630730000"><ele>727</ele><time>2026-03-24T13:24:30Z</time></trkpt>
<trkpt lat="43.0006170000" lon="0.3630950000"><ele>726</ele><time>2026-03-24T13:24:32Z</time></trkpt>
<trkpt lat="43.0006020000" lon="0.3631180000"><ele>726</ele><time>2026-03-24T13:24:34Z</time></trkpt>
<trkpt lat="43.0005870000" lon="0.3631420000"><ele>726</ele><time>2026-03-24T13:24:36Z</time></trkpt>
<trkpt lat="43.0005730000" lon="0.3631670000"><ele>726</ele><time>2026-03-24T13:24:38Z</time></trkpt>
<trkpt lat="43.0005650000" lon="0.3631950000"><ele>726</ele><time>2026-03-24T13:24:40Z</time></trkpt>
<trkpt lat="43.0005520000" lon="0.3632220000"><ele>726</ele><time>2026-03-24T13:24:42Z</time></trkpt>
<trkpt lat="43.0005470000" lon="0.3632500000"><ele>726</ele><time>2026-03-24T13:24:44Z</time></trkpt>
<trkpt lat="43.0005420000" lon="0.3632850000"><ele>725</ele><time>2026-03-24T13:24:46Z</time></trkpt>
<trkpt lat="43.0005420000" lon="0.3633170000"><ele>725</ele><time>2026-03-24T13:24:48Z</time></trkpt>
<trkpt lat="43.0005400000" lon="0.3633500000"><ele>725</ele><time>2026-03-24T13:24:50Z</time></trkpt>
<trkpt lat="43.0005350000" lon="0.3633820000"><ele>725</ele><time>2026-03-24T13:24:52Z</time></trkpt>
<trkpt lat="43.0005320000" lon="0.3634120000"><ele>725</ele><time>2026-03-24T13:24:54Z</time></trkpt>
<trkpt lat="43.0005370000" lon="0.3634420000"><ele>724</ele><time>2026-03-24T13:24:56Z</time></trkpt>
<trkpt lat="43.0005450000" lon="0.3634700000"><ele>724</ele><time>2026-03-24T13:24:58Z</time></trkpt>
<trkpt lat="43.0005500000" lon="0.3635020000"><ele>724</ele><time>2026-03-24T13:25:00Z</time></trkpt>
<trkpt lat="43.0005500000" lon="0.3635320000"><ele>723</ele><time>2026-03-24T13:25:02Z</time></trkpt>
<trkpt lat="43.0005570000" lon="0.3635650000"><ele>722</ele><time>2026-03-24T13:25:18Z</time></trkpt>
<trkpt lat="43.0005570000" lon="0.3636020000"><ele>722</ele><time>2026-03-24T13:25:20Z</time></trkpt>
<trkpt lat="43.0005620000" lon="0.3636400000"><ele>722</ele><time>2026-03-24T13:25:22Z</time></trkpt>
<trkpt lat="43.0005670000" lon="0.3636720000"><ele>722</ele><time>2026-03-24T13:25:24Z</time></trkpt>
<trkpt lat="43.0005820000" lon="0.3636970000"><ele>722</ele><time>2026-03-24T13:25:27Z</time></trkpt>
<trkpt lat="43.0005950000" lon="0.3637120000"><ele>721</ele><time>2026-03-24T13:25:30Z</time></trkpt>
<trkpt lat="43.0006070000" lon="0.3637320000"><ele>721</ele><time>2026-03-24T13:25:32Z</time></trkpt>
<trkpt lat="43.0006300000" lon="0.3637500000"><ele>722</ele><time>2026-03-24T13:25:35Z</time></trkpt>
<trkpt lat="43.0006470000" lon="0.3637620000"><ele>722</ele><time>2026-03-24T13:25:37Z</time></trkpt>
<trkpt lat="43.0006720000" lon="0.3637670000"><ele>721</ele><time>2026-03-24T13:25:39Z</time></trkpt>
<trkpt lat="43.0006950000" lon="0.3637750000"><ele>721</ele><time>2026-03-24T13:25:41Z</time></trkpt>
<trkpt lat="43.0007170000" lon="0.3637900000"><ele>721</ele><time>2026-03-24T13:25:43Z</time></trkpt>
<trkpt lat="43.0007420000" lon="0.3638020000"><ele>721</ele><time>2026-03-24T13:25:45Z</time></trkpt>
<trkpt lat="43.0007620000" lon="0.3638120000"><ele>721</ele><time>2026-03-24T13:25:47Z</time></trkpt>
<trkpt lat="43.0007870000" lon="0.3638220000"><ele>721</ele><time>2026-03-24T13:25:49Z</time></trkpt>
<trkpt lat="43.0008070000" lon="0.3638350000"><ele>721</ele><time>2026-03-24T13:25:51Z</time></trkpt>
<trkpt lat="43.0008270000" lon="0.3638520000"><ele>721</ele><time>2026-03-24T13:25:53Z</time></trkpt>
<trkpt lat="43.0008500000" lon="0.3638670000"><ele>721</ele><time>2026-03-24T13:25:55Z</time></trkpt>
<trkpt lat="43.0008720000" lon="0.3638770000"><ele>721</ele><time>2026-03-24T13:25:57Z</time></trkpt>
<trkpt lat="43.0008950000" lon="0.3639000000"><ele>721</ele><time>2026-03-24T13:25:59Z</time></trkpt>
<trkpt lat="43.0009200000" lon="0.3639170000"><ele>721</ele><time>2026-03-24T13:26:01Z</time></trkpt>
<trkpt lat="43.0009450000" lon="0.3639370000"><ele>721</ele><time>2026-03-24T13:26:03Z</time></trkpt>
<trkpt lat="43.0009670000" lon="0.3639520000"><ele>721</ele><time>2026-03-24T13:26:05Z</time></trkpt>
<trkpt lat="43.0009520000" lon="0.3639720000"><ele>721</ele><time>2026-03-24T13:26:26Z</time></trkpt>
<trkpt lat="43.0009700000" lon="0.3639870000"><ele>721</ele><time>2026-03-24T13:26:30Z</time></trkpt>
<trkpt lat="43.0009920000" lon="0.3639920000"><ele>721</ele><time>2026-03-24T13:26:32Z</time></trkpt>
<trkpt lat="43.0010120000" lon="0.3640020000"><ele>721</ele><time>2026-03-24T13:26:34Z</time></trkpt>
<trkpt lat="43.0010220000" lon="0.3640270000"><ele>721</ele><time>2026-03-24T13:26:36Z</time></trkpt>
<trkpt lat="43.0010370000" lon="0.3640480000"><ele>721</ele><time>2026-03-24T13:26:38Z</time></trkpt>
<trkpt lat="43.0010500000" lon="0.3640770000"><ele>720</ele><time>2026-03-24T13:26:41Z</time></trkpt>
<trkpt lat="43.0010270000" lon="0.3640730000"><ele>720</ele><time>2026-03-24T13:26:49Z</time></trkpt>
<trkpt lat="43.0010520000" lon="0.3640730000"><ele>720</ele><time>2026-03-24T13:27:15Z</time></trkpt>
<trkpt lat="43.0010720000" lon="0.3640930000"><ele>720</ele><time>2026-03-24T13:27:23Z</time></trkpt>
<trkpt lat="43.0010870000" lon="0.3641220000"><ele>720</ele><time>2026-03-24T13:27:25Z</time></trkpt>
<trkpt lat="43.0011070000" lon="0.3641500000"><ele>720</ele><time>2026-03-24T13:27:27Z</time></trkpt>
<trkpt lat="43.0011320000" lon="0.3641670000"><ele>719</ele><time>2026-03-24T13:27:29Z</time></trkpt>
<trkpt lat="43.0011570000" lon="0.3641800000"><ele>719</ele><time>2026-03-24T13:27:31Z</time></trkpt>
<trkpt lat="43.0011820000" lon="0.3641870000"><ele>719</ele><time>2026-03-24T13:27:34Z</time></trkpt>
<trkpt lat="43.0012000000" lon="0.3641830000"><ele>719</ele><time>2026-03-24T13:27:36Z</time></trkpt>
<trkpt lat="43.0012220000" lon="0.3641720000"><ele>718</ele><time>2026-03-24T13:27:39Z</time></trkpt>
<trkpt lat="43.0012420000" lon="0.3641650000"><ele>718</ele><time>2026-03-24T13:27:43Z</time></trkpt>
<trkpt lat="43.0012270000" lon="0.3641330000"><ele>718</ele><time>2026-03-24T13:28:12Z</time></trkpt>
<trkpt lat="43.0012100000" lon="0.3641200000"><ele>718</ele><time>2026-03-24T13:28:14Z</time></trkpt>
<trkpt lat="43.0012070000" lon="0.3641520000"><ele>718</ele><time>2026-03-24T13:28:18Z</time></trkpt>
<trkpt lat="43.0012170000" lon="0.3641230000"><ele>718</ele><time>2026-03-24T13:28:39Z</time></trkpt>
<trkpt lat="43.0012150000" lon="0.3640920000"><ele>718</ele><time>2026-03-24T13:28:42Z</time></trkpt>
<trkpt lat="43.0012270000" lon="0.3640600000"><ele>718</ele><time>2026-03-24T13:28:45Z</time></trkpt>
<trkpt lat="43.0012220000" lon="0.3640300000"><ele>719</ele><time>2026-03-24T13:29:51Z</time></trkpt>
<trkpt lat="43.0012220000" lon="0.3639970000"><ele>719</ele><time>2026-03-24T13:29:53Z</time></trkpt>
<trkpt lat="43.0012220000" lon="0.3639600000"><ele>719</ele><time>2026-03-24T13:29:55Z</time></trkpt>
<trkpt lat="43.0012220000" lon="0.3639320000"><ele>719</ele><time>2026-03-24T13:29:57Z</time></trkpt>
<trkpt lat="43.0012250000" lon="0.3639020000"><ele>720</ele><time>2026-03-24T13:30:00Z</time></trkpt>
<trkpt lat="43.0012220000" lon="0.3638720000"><ele>720</ele><time>2026-03-24T13:30:03Z</time></trkpt>
<trkpt lat="43.0012120000" lon="0.3638500000"><ele>720</ele><time>2026-03-24T13:30:05Z</time></trkpt>
<trkpt lat="43.0012170000" lon="0.3638170000"><ele>721</ele><time>2026-03-24T13:30:08Z</time></trkpt>
<trkpt lat="43.0012220000" lon="0.3637820000"><ele>721</ele><time>2026-03-24T13:30:11Z</time></trkpt>
<trkpt lat="43.0012320000" lon="0.3637470000"><ele>721</ele><time>2026-03-24T13:30:14Z</time></trkpt>
<trkpt lat="43.0012320000" lon="0.3637120000"><ele>721</ele><time>2026-03-24T13:30:17Z</time></trkpt>
<trkpt lat="43.0012200000" lon="0.3636850000"><ele>722</ele><time>2026-03-24T13:30:20Z</time></trkpt>
<trkpt lat="43.0012120000" lon="0.3636480000"><ele>722</ele><time>2026-03-24T13:30:23Z</time></trkpt>
<trkpt lat="43.0012070000" lon="0.3636170000"><ele>722</ele><time>2026-03-24T13:30:26Z</time></trkpt>
<trkpt lat="43.0012070000" lon="0.3635820000"><ele>723</ele><time>2026-03-24T13:30:29Z</time></trkpt>
<trkpt lat="43.0012120000" lon="0.3635550000"><ele>723</ele><time>2026-03-24T13:30:31Z</time></trkpt>
<trkpt lat="43.0012120000" lon="0.3635230000"><ele>723</ele><time>2026-03-24T13:30:33Z</time></trkpt>
<trkpt lat="43.0012070000" lon="0.3634970000"><ele>723</ele><time>2026-03-24T13:30:35Z</time></trkpt>
<trkpt lat="43.0012220000" lon="0.3634750000"><ele>724</ele><time>2026-03-24T13:30:37Z</time></trkpt>
<trkpt lat="43.0012220000" lon="0.3634380000"><ele>724</ele><time>2026-03-24T13:30:40Z</time></trkpt>
<trkpt lat="43.0012320000" lon="0.3634100000"><ele>724</ele><time>2026-03-24T13:30:42Z</time></trkpt>
<trkpt lat="43.0012470000" lon="0.3633920000"><ele>724</ele><time>2026-03-24T13:30:44Z</time></trkpt>
<trkpt lat="43.0012670000" lon="0.3633720000"><ele>724</ele><time>2026-03-24T13:30:46Z</time></trkpt>
<trkpt lat="43.0012870000" lon="0.3633470000"><ele>724</ele><time>2026-03-24T13:30:48Z</time></trkpt>
<trkpt lat="43.0012950000" lon="0.3633220000"><ele>724</ele><time>2026-03-24T13:30:50Z</time></trkpt>
<trkpt lat="43.0013050000" lon="0.3632920000"><ele>724</ele><time>2026-03-24T13:30:53Z</time></trkpt>
<trkpt lat="43.0013170000" lon="0.3632720000"><ele>725</ele><time>2026-03-24T13:30:55Z</time></trkpt>
<trkpt lat="43.0013330000" lon="0.3632400000"><ele>725</ele><time>2026-03-24T13:30:58Z</time></trkpt>
<trkpt lat="43.0013370000" lon="0.3632120000"><ele>725</ele><time>2026-03-24T13:31:00Z</time></trkpt>
<trkpt lat="43.0013470000" lon="0.3631800000"><ele>725</ele><time>2026-03-24T13:31:02Z</time></trkpt>
<trkpt lat="43.0013620000" lon="0.3631470000"><ele>725</ele><time>2026-03-24T13:31:04Z</time></trkpt>
<trkpt lat="43.0013770000" lon="0.3631050000"><ele>725</ele><time>2026-03-24T13:31:06Z</time></trkpt>
<trkpt lat="43.0013670000" lon="0.3630770000"><ele>725</ele><time>2026-03-24T13:31:08Z</time></trkpt>
<trkpt lat="43.0013720000" lon="0.3630370000"><ele>725</ele><time>2026-03-24T13:31:11Z</time></trkpt>
<trkpt lat="43.0013850000" lon="0.3630100000"><ele>725</ele><time>2026-03-24T13:31:13Z</time></trkpt>
<trkpt lat="43.0013950000" lon="0.3629870000"><ele>725</ele><time>2026-03-24T13:31:15Z</time></trkpt>
<trkpt lat="43.0014100000" lon="0.3629620000"><ele>726</ele><time>2026-03-24T13:31:18Z</time></trkpt>
<trkpt lat="43.0014170000" lon="0.3629280000"><ele>726</ele><time>2026-03-24T13:31:23Z</time></trkpt>
<trkpt lat="43.0014450000" lon="0.3628970000"><ele>726</ele><time>2026-03-24T13:31:25Z</time></trkpt>
<trkpt lat="43.0014570000" lon="0.3628720000"><ele>726</ele><time>2026-03-24T13:31:27Z</time></trkpt>
<trkpt lat="43.0014620000" lon="0.3628430000"><ele>726</ele><time>2026-03-24T13:31:29Z</time></trkpt>
<trkpt lat="43.0014700000" lon="0.3628150000"><ele>726</ele><time>2026-03-24T13:31:32Z</time></trkpt>
<trkpt lat="43.0014870000" lon="0.3628020000"><ele>726</ele><time>2026-03-24T13:31:33Z</time></trkpt>
<trkpt lat="43.0014970000" lon="0.3627800000"><ele>726</ele><time>2026-03-24T13:31:37Z</time></trkpt>
<trkpt lat="43.0015170000" lon="0.3627530000"><ele>726</ele><time>2026-03-24T13:31:40Z</time></trkpt>
<trkpt lat="43.0015320000" lon="0.3627370000"><ele>725</ele><time>2026-03-24T13:31:41Z</time></trkpt>
<trkpt lat="43.0015550000" lon="0.3627250000"><ele>725</ele><time>2026-03-24T13:31:42Z</time></trkpt>
<trkpt lat="43.0015770000" lon="0.3627070000"><ele>725</ele><time>2026-03-24T13:31:44Z</time></trkpt>
<trkpt lat="43.0015820000" lon="0.3626820000"><ele>725</ele><time>2026-03-24T13:31:46Z</time></trkpt>
<trkpt lat="43.0015870000" lon="0.3626470000"><ele>725</ele><time>2026-03-24T13:31:49Z</time></trkpt>
<trkpt lat="43.0015970000" lon="0.3626170000"><ele>724</ele><time>2026-03-24T13:31:51Z</time></trkpt>
<trkpt lat="43.0016020000" lon="0.3625870000"><ele>724</ele><time>2026-03-24T13:31:54Z</time></trkpt>
<trkpt lat="43.0016170000" lon="0.3625680000"><ele>724</ele><time>2026-03-24T13:31:57Z</time></trkpt>
<trkpt lat="43.0016350000" lon="0.3625470000"><ele>723</ele><time>2026-03-24T13:32:00Z</time></trkpt>
<trkpt lat="43.0016420000" lon="0.3625170000"><ele>723</ele><time>2026-03-24T13:32:02Z</time></trkpt>
<trkpt lat="43.0016350000" lon="0.3624820000"><ele>722</ele><time>2026-03-24T13:32:05Z</time></trkpt>
<trkpt lat="43.0016370000" lon="0.3624470000"><ele>722</ele><time>2026-03-24T13:32:09Z</time></trkpt>
<trkpt lat="43.0016470000" lon="0.3624170000"><ele>721</ele><time>2026-03-24T13:32:12Z</time></trkpt>
<trkpt lat="43.0016670000" lon="0.3623970000"><ele>721</ele><time>2026-03-24T13:32:14Z</time></trkpt>
<trkpt lat="43.0016870000" lon="0.3623670000"><ele>721</ele><time>2026-03-24T13:32:16Z</time></trkpt>
<trkpt lat="43.0017120000" lon="0.3623370000"><ele>720</ele><time>2026-03-24T13:32:18Z</time></trkpt>
<trkpt lat="43.0017170000" lon="0.3623020000"><ele>720</ele><time>2026-03-24T13:32:20Z</time></trkpt>
<trkpt lat="43.0017270000" lon="0.3622680000"><ele>720</ele><time>2026-03-24T13:32:22Z</time></trkpt>
<trkpt lat="43.0017270000" lon="0.3622430000"><ele>719</ele><time>2026-03-24T13:32:25Z</time></trkpt>
<trkpt lat="43.0017470000" lon="0.3622270000"><ele>719</ele><time>2026-03-24T13:32:28Z</time></trkpt>
<trkpt lat="43.0017570000" lon="0.3622020000"><ele>718</ele><time>2026-03-24T13:32:31Z</time></trkpt>
<trkpt lat="43.0017250000" lon="0.3622020000"><ele>718</ele><time>2026-03-24T13:32:35Z</time></trkpt>
<trkpt lat="43.0017050000" lon="0.3622020000"><ele>717</ele><time>2026-03-24T13:32:36Z</time></trkpt>
<trkpt lat="43.0016850000" lon="0.3622000000"><ele>717</ele><time>2026-03-24T13:32:54Z</time></trkpt>
<trkpt lat="43.0017070000" lon="0.3622300000"><ele>718</ele><time>2026-03-24T13:33:22Z</time></trkpt>
<trkpt lat="43.0017270000" lon="0.3622370000"><ele>718</ele><time>2026-03-24T13:33:25Z</time></trkpt>
<trkpt lat="43.0017620000" lon="0.3622620000"><ele>718</ele><time>2026-03-24T13:33:29Z</time></trkpt>
<trkpt lat="43.0017420000" lon="0.3622520000"><ele>718</ele><time>2026-03-24T13:34:48Z</time></trkpt>
<trkpt lat="43.0017170000" lon="0.3622320000"><ele>718</ele><time>2026-03-24T13:34:50Z</time></trkpt>
<trkpt lat="43.0016920000" lon="0.3622270000"><ele>718</ele><time>2026-03-24T13:34:53Z</time></trkpt>
<trkpt lat="43.0017200000" lon="0.3622220000"><ele>718</ele><time>2026-03-24T13:35:21Z</time></trkpt>
<trkpt lat="43.0017400000" lon="0.3622120000"><ele>718</ele><time>2026-03-24T13:35:22Z</time></trkpt>
<trkpt lat="43.0017570000" lon="0.3621970000"><ele>718</ele><time>2026-03-24T13:35:23Z</time></trkpt>
<trkpt lat="43.0017770000" lon="0.3621820000"><ele>718</ele><time>2026-03-24T13:35:24Z</time></trkpt>
<trkpt lat="43.0017920000" lon="0.3621670000"><ele>717</ele><time>2026-03-24T13:35:25Z</time></trkpt>
<trkpt lat="43.0018100000" lon="0.3621470000"><ele>717</ele><time>2026-03-24T13:35:27Z</time></trkpt>
<trkpt lat="43.0018370000" lon="0.3621320000"><ele>717</ele><time>2026-03-24T13:35:30Z</time></trkpt>
<trkpt lat="43.0018570000" lon="0.3621220000"><ele>716</ele><time>2026-03-24T13:35:32Z</time></trkpt>
<trkpt lat="43.0018800000" lon="0.3621170000"><ele>715</ele><time>2026-03-24T13:35:34Z</time></trkpt>
<trkpt lat="43.0018900000" lon="0.3620950000"><ele>715</ele><time>2026-03-24T13:35:37Z</time></trkpt>
<trkpt lat="43.0018900000" lon="0.3620700000"><ele>714</ele><time>2026-03-24T13:35:42Z</time></trkpt>
<trkpt lat="43.0018770000" lon="0.3620900000"><ele>713</ele><time>2026-03-24T13:35:56Z</time></trkpt>
<trkpt lat="43.0018520000" lon="0.3620820000"><ele>712</ele><time>2026-03-24T13:36:02Z</time></trkpt>
<trkpt lat="43.0018570000" lon="0.3620570000"><ele>712</ele><time>2026-03-24T13:36:06Z</time></trkpt>
<trkpt lat="43.0018720000" lon="0.3620320000"><ele>711</ele><time>2026-03-24T13:36:12Z</time></trkpt>
<trkpt lat="43.0019000000" lon="0.3619970000"><ele>711</ele><time>2026-03-24T13:36:14Z</time></trkpt>
<trkpt lat="43.0019170000" lon="0.3619770000"><ele>711</ele><time>2026-03-24T13:36:15Z</time></trkpt>
<trkpt lat="43.0019320000" lon="0.3619600000"><ele>711</ele><time>2026-03-24T13:36:16Z</time></trkpt>
<trkpt lat="43.0019570000" lon="0.3619320000"><ele>710</ele><time>2026-03-24T13:36:18Z</time></trkpt>
<trkpt lat="43.0019720000" lon="0.3619030000"><ele>710</ele><time>2026-03-24T13:36:20Z</time></trkpt>
<trkpt lat="43.0019870000" lon="0.3618870000"><ele>710</ele><time>2026-03-24T13:36:22Z</time></trkpt>
<trkpt lat="43.0020070000" lon="0.3618670000"><ele>709</ele><time>2026-03-24T13:36:24Z</time></trkpt>
<trkpt lat="43.0020020000" lon="0.3618420000"><ele>708</ele><time>2026-03-24T13:36:31Z</time></trkpt>
<trkpt lat="43.0020270000" lon="0.3618350000"><ele>708</ele><time>2026-03-24T13:36:44Z</time></trkpt>
<trkpt lat="43.0020570000" lon="0.3618150000"><ele>708</ele><time>2026-03-24T13:36:46Z</time></trkpt>
<trkpt lat="43.0020670000" lon="0.3617870000"><ele>708</ele><time>2026-03-24T13:36:48Z</time></trkpt>
<trkpt lat="43.0020620000" lon="0.3617620000"><ele>707</ele><time>2026-03-24T13:36:51Z</time></trkpt>
<trkpt lat="43.0020770000" lon="0.3617400000"><ele>707</ele><time>2026-03-24T13:36:55Z</time></trkpt>
<trkpt lat="43.0020930000" lon="0.3617170000"><ele>706</ele><time>2026-03-24T13:36:57Z</time></trkpt>
<trkpt lat="43.0021120000" lon="0.3616870000"><ele>706</ele><time>2026-03-24T13:37:00Z</time></trkpt>
<trkpt lat="43.0021320000" lon="0.3616650000"><ele>705</ele><time>2026-03-24T13:37:03Z</time></trkpt>
<trkpt lat="43.0021620000" lon="0.3616500000"><ele>705</ele><time>2026-03-24T13:37:05Z</time></trkpt>
<trkpt lat="43.0021820000" lon="0.3616320000"><ele>705</ele><time>2026-03-24T13:37:07Z</time></trkpt>
<trkpt lat="43.0021970000" lon="0.3616150000"><ele>704</ele><time>2026-03-24T13:37:10Z</time></trkpt>
<trkpt lat="43.0022120000" lon="0.3615870000"><ele>703</ele><time>2026-03-24T13:37:12Z</time></trkpt>
<trkpt lat="43.0022220000" lon="0.3615650000"><ele>703</ele><time>2026-03-24T13:37:14Z</time></trkpt>
<trkpt lat="43.0022450000" lon="0.3615570000"><ele>702</ele><time>2026-03-24T13:37:16Z</time></trkpt>
<trkpt lat="43.0022650000" lon="0.3615670000"><ele>702</ele><time>2026-03-24T13:37:17Z</time></trkpt>
<trkpt lat="43.0022920000" lon="0.3615920000"><ele>701</ele><time>2026-03-24T13:37:19Z</time></trkpt>
<trkpt lat="43.0023000000" lon="0.3616270000"><ele>701</ele><time>2026-03-24T13:37:21Z</time></trkpt>
<trkpt lat="43.0022920000" lon="0.3616570000"><ele>700</ele><time>2026-03-24T13:37:23Z</time></trkpt>
<trkpt lat="43.0022970000" lon="0.3616870000"><ele>700</ele><time>2026-03-24T13:37:25Z</time></trkpt>
<trkpt lat="43.0022970000" lon="0.3617220000"><ele>700</ele><time>2026-03-24T13:37:27Z</time></trkpt>
<trkpt lat="43.0022920000" lon="0.3617500000"><ele>699</ele><time>2026-03-24T13:37:29Z</time></trkpt>
<trkpt lat="43.0022870000" lon="0.3617820000"><ele>699</ele><time>2026-03-24T13:37:32Z</time></trkpt>
<trkpt lat="43.0022900000" lon="0.3618180000"><ele>697</ele><time>2026-03-24T13:37:42Z</time></trkpt>
<trkpt lat="43.0022970000" lon="0.3618470000"><ele>696</ele><time>2026-03-24T13:37:57Z</time></trkpt>
<trkpt lat="43.0023070000" lon="0.3618870000"><ele>696</ele><time>2026-03-24T13:37:59Z</time></trkpt>
<trkpt lat="43.0023150000" lon="0.3619270000"><ele>695</ele><time>2026-03-24T13:38:01Z</time></trkpt>
<trkpt lat="43.0023170000" lon="0.3619570000"><ele>695</ele><time>2026-03-24T13:38:03Z</time></trkpt>
<trkpt lat="43.0023170000" lon="0.3619870000"><ele>694</ele><time>2026-03-24T13:38:05Z</time></trkpt>
<trkpt lat="43.0023220000" lon="0.3620130000"><ele>694</ele><time>2026-03-24T13:38:08Z</time></trkpt>
<trkpt lat="43.0023400000" lon="0.3620300000"><ele>693</ele><time>2026-03-24T13:38:11Z</time></trkpt>
<trkpt lat="43.0023600000" lon="0.3620320000"><ele>691</ele><time>2026-03-24T13:38:35Z</time></trkpt>
<trkpt lat="43.0023750000" lon="0.3619970000"><ele>691</ele><time>2026-03-24T13:38:37Z</time></trkpt>
<trkpt lat="43.0023870000" lon="0.3619720000"><ele>690</ele><time>2026-03-24T13:38:39Z</time></trkpt>
<trkpt lat="43.0024070000" lon="0.3619370000"><ele>690</ele><time>2026-03-24T13:38:41Z</time></trkpt>
<trkpt lat="43.0024170000" lon="0.3619070000"><ele>689</ele><time>2026-03-24T13:38:44Z</time></trkpt>
<trkpt lat="43.0024020000" lon="0.3618670000"><ele>689</ele><time>2026-03-24T13:38:47Z</time></trkpt>
<trkpt lat="43.0023970000" lon="0.3618420000"><ele>688</ele><time>2026-03-24T13:38:50Z</time></trkpt>
<trkpt lat="43.0024150000" lon="0.3618220000"><ele>688</ele><time>2026-03-24T13:38:52Z</time></trkpt>
<trkpt lat="43.0024320000" lon="0.3618100000"><ele>687</ele><time>2026-03-24T13:38:54Z</time></trkpt>
<trkpt lat="43.0024500000" lon="0.3617870000"><ele>687</ele><time>2026-03-24T13:38:56Z</time></trkpt>
<trkpt lat="43.0024620000" lon="0.3617650000"><ele>687</ele><time>2026-03-24T13:38:58Z</time></trkpt>
<trkpt lat="43.0024800000" lon="0.3617470000"><ele>686</ele><time>2026-03-24T13:39:00Z</time></trkpt>
<trkpt lat="43.0024920000" lon="0.3617270000"><ele>686</ele><time>2026-03-24T13:39:02Z</time></trkpt>
<trkpt lat="43.0025020000" lon="0.3617070000"><ele>685</ele><time>2026-03-24T13:39:04Z</time></trkpt>
<trkpt lat="43.0025070000" lon="0.3616800000"><ele>685</ele><time>2026-03-24T13:39:06Z</time></trkpt>
<trkpt lat="43.0025270000" lon="0.3616670000"><ele>684</ele><time>2026-03-24T13:39:10Z</time></trkpt>
<trkpt lat="43.0025500000" lon="0.3616550000"><ele>683</ele><time>2026-03-24T13:39:12Z</time></trkpt>
<trkpt lat="43.0025700000" lon="0.3616550000"><ele>683</ele><time>2026-03-24T13:39:14Z</time></trkpt>
<trkpt lat="43.0025870000" lon="0.3616430000"><ele>682</ele><time>2026-03-24T13:39:16Z</time></trkpt>
<trkpt lat="43.0026120000" lon="0.3616270000"><ele>681</ele><time>2026-03-24T13:39:18Z</time></trkpt>
<trkpt lat="43.0026270000" lon="0.3616100000"><ele>681</ele><time>2026-03-24T13:39:19Z</time></trkpt>
<trkpt lat="43.0026520000" lon="0.3615900000"><ele>681</ele><time>2026-03-24T13:39:21Z</time></trkpt>
<trkpt lat="43.0026720000" lon="0.3615730000"><ele>680</ele><time>2026-03-24T13:39:23Z</time></trkpt>
<trkpt lat="43.0026900000" lon="0.3615470000"><ele>680</ele><time>2026-03-24T13:39:25Z</time></trkpt>
<trkpt lat="43.0026970000" lon="0.3615170000"><ele>679</ele><time>2026-03-24T13:39:28Z</time></trkpt>
<trkpt lat="43.0026970000" lon="0.3614920000"><ele>679</ele><time>2026-03-24T13:39:30Z</time></trkpt>
<trkpt lat="43.0027120000" lon="0.3614670000"><ele>679</ele><time>2026-03-24T13:39:33Z</time></trkpt>
<trkpt lat="43.0027250000" lon="0.3614450000"><ele>678</ele><time>2026-03-24T13:39:36Z</time></trkpt>
<trkpt lat="43.0027420000" lon="0.3614200000"><ele>678</ele><time>2026-03-24T13:39:38Z</time></trkpt>
<trkpt lat="43.0027820000" lon="0.3614120000"><ele>678</ele><time>2026-03-24T13:39:40Z</time></trkpt>
<trkpt lat="43.0028100000" lon="0.3614150000"><ele>678</ele><time>2026-03-24T13:39:41Z</time></trkpt>
<trkpt lat="43.0028420000" lon="0.3614220000"><ele>677</ele><time>2026-03-24T13:39:43Z</time></trkpt>
<trkpt lat="43.0028620000" lon="0.3614250000"><ele>677</ele><time>2026-03-24T13:39:45Z</time></trkpt>
<trkpt lat="43.0028820000" lon="0.3614280000"><ele>676</ele><time>2026-03-24T13:39:48Z</time></trkpt>
<trkpt lat="43.0029070000" lon="0.3614280000"><ele>676</ele><time>2026-03-24T13:39:51Z</time></trkpt>
<trkpt lat="43.0029270000" lon="0.3614320000"><ele>675</ele><time>2026-03-24T13:39:53Z</time></trkpt>
<trkpt lat="43.0029470000" lon="0.3614020000"><ele>675</ele><time>2026-03-24T13:39:58Z</time></trkpt>
<trkpt lat="43.0029670000" lon="0.3613970000"><ele>674</ele><time>2026-03-24T13:40:00Z</time></trkpt>
<trkpt lat="43.0029720000" lon="0.3613700000"><ele>674</ele><time>2026-03-24T13:40:04Z</time></trkpt>
<trkpt lat="43.0029970000" lon="0.3613520000"><ele>673</ele><time>2026-03-24T13:40:07Z</time></trkpt>
<trkpt lat="43.0030170000" lon="0.3613370000"><ele>673</ele><time>2026-03-24T13:40:10Z</time></trkpt>
<trkpt lat="43.0030470000" lon="0.3613520000"><ele>672</ele><time>2026-03-24T13:40:12Z</time></trkpt>
<trkpt lat="43.0030650000" lon="0.3613520000"><ele>672</ele><time>2026-03-24T13:40:17Z</time></trkpt>
<trkpt lat="43.0030820000" lon="0.3613900000"><ele>671</ele><time>2026-03-24T13:40:23Z</time></trkpt>
<trkpt lat="43.0030700000" lon="0.3614270000"><ele>671</ele><time>2026-03-24T13:40:25Z</time></trkpt>
<trkpt lat="43.0030520000" lon="0.3614120000"><ele>671</ele><time>2026-03-24T13:40:31Z</time></trkpt>
<trkpt lat="43.0030470000" lon="0.3614520000"><ele>672</ele><time>2026-03-24T13:40:53Z</time></trkpt>
<trkpt lat="43.0030470000" lon="0.3614800000"><ele>672</ele><time>2026-03-24T13:40:54Z</time></trkpt>
<trkpt lat="43.0030470000" lon="0.3615070000"><ele>672</ele><time>2026-03-24T13:40:55Z</time></trkpt>
<trkpt lat="43.0030550000" lon="0.3615370000"><ele>672</ele><time>2026-03-24T13:40:56Z</time></trkpt>
<trkpt lat="43.0030670000" lon="0.3615670000"><ele>672</ele><time>2026-03-24T13:40:58Z</time></trkpt>
<trkpt lat="43.0030870000" lon="0.3615770000"><ele>672</ele><time>2026-03-24T13:41:00Z</time></trkpt>
<trkpt lat="43.0031120000" lon="0.3615820000"><ele>672</ele><time>2026-03-24T13:41:02Z</time></trkpt>
<trkpt lat="43.0031350000" lon="0.3615970000"><ele>671</ele><time>2026-03-24T13:41:04Z</time></trkpt>
<trkpt lat="43.0031570000" lon="0.3616020000"><ele>671</ele><time>2026-03-24T13:41:06Z</time></trkpt>
<trkpt lat="43.0031770000" lon="0.3616020000"><ele>671</ele><time>2026-03-24T13:41:08Z</time></trkpt>
<trkpt lat="43.0031970000" lon="0.3616220000"><ele>671</ele><time>2026-03-24T13:41:11Z</time></trkpt>
<trkpt lat="43.0032200000" lon="0.3616420000"><ele>671</ele><time>2026-03-24T13:41:13Z</time></trkpt>
<trkpt lat="43.0032320000" lon="0.3616720000"><ele>671</ele><time>2026-03-24T13:41:15Z</time></trkpt>
<trkpt lat="43.0032270000" lon="0.3617070000"><ele>670</ele><time>2026-03-24T13:41:17Z</time></trkpt>
<trkpt lat="43.0032270000" lon="0.3617320000"><ele>670</ele><time>2026-03-24T13:41:19Z</time></trkpt>
<trkpt lat="43.0032270000" lon="0.3617720000"><ele>670</ele><time>2026-03-24T13:41:22Z</time></trkpt>
<trkpt lat="43.0032370000" lon="0.3618000000"><ele>670</ele><time>2026-03-24T13:41:24Z</time></trkpt>
<trkpt lat="43.0032200000" lon="0.3617850000"><ele>669</ele><time>2026-03-24T13:41:32Z</time></trkpt>
<trkpt lat="43.0031970000" lon="0.3617970000"><ele>669</ele><time>2026-03-24T13:43:39Z</time></trkpt>
<trkpt lat="43.0031720000" lon="0.3618070000"><ele>669</ele><time>2026-03-24T13:43:41Z</time></trkpt>
<trkpt lat="43.0032000000" lon="0.3618220000"><ele>669</ele><time>2026-03-24T13:43:45Z</time></trkpt>
<trkpt lat="43.0032200000" lon="0.3618220000"><ele>669</ele><time>2026-03-24T13:43:46Z</time></trkpt>
<trkpt lat="43.0032120000" lon="0.3618470000"><ele>670</ele><time>2026-03-24T13:44:09Z</time></trkpt>
<trkpt lat="43.0032070000" lon="0.3618770000"><ele>670</ele><time>2026-03-24T13:44:11Z</time></trkpt>
<trkpt lat="43.0031970000" lon="0.3619070000"><ele>670</ele><time>2026-03-24T13:44:17Z</time></trkpt>
<trkpt lat="43.0032000000" lon="0.3619350000"><ele>670</ele><time>2026-03-24T13:44:21Z</time></trkpt>
<trkpt lat="43.0032120000" lon="0.3619620000"><ele>670</ele><time>2026-03-24T13:44:24Z</time></trkpt>
<trkpt lat="43.0032270000" lon="0.3619950000"><ele>670</ele><time>2026-03-24T13:44:26Z</time></trkpt>
<trkpt lat="43.0032150000" lon="0.3619700000"><ele>670</ele><time>2026-03-24T13:44:32Z</time></trkpt>
<trkpt lat="43.0031970000" lon="0.3619570000"><ele>670</ele><time>2026-03-24T13:44:34Z</time></trkpt>
<trkpt lat="43.0031800000" lon="0.3619620000"><ele>670</ele><time>2026-03-24T13:44:45Z</time></trkpt>
<trkpt lat="43.0031600000" lon="0.3619620000"><ele>670</ele><time>2026-03-24T13:44:50Z</time></trkpt>
<trkpt lat="43.0031820000" lon="0.3619800000"><ele>670</ele><time>2026-03-24T13:45:44Z</time></trkpt>
<trkpt lat="43.0032020000" lon="0.3619970000"><ele>670</ele><time>2026-03-24T13:45:45Z</time></trkpt>
<trkpt lat="43.0032220000" lon="0.3620170000"><ele>671</ele><time>2026-03-24T13:45:46Z</time></trkpt>
<trkpt lat="43.0032400000" lon="0.3620380000"><ele>671</ele><time>2026-03-24T13:45:47Z</time></trkpt>
<trkpt lat="43.0032520000" lon="0.3620620000"><ele>671</ele><time>2026-03-24T13:45:48Z</time></trkpt>
<trkpt lat="43.0032620000" lon="0.3620850000"><ele>671</ele><time>2026-03-24T13:45:49Z</time></trkpt>
<trkpt lat="43.0032820000" lon="0.3621170000"><ele>671</ele><time>2026-03-24T13:45:51Z</time></trkpt>
<trkpt lat="43.0033030000" lon="0.3621420000"><ele>670</ele><time>2026-03-24T13:45:53Z</time></trkpt>
<trkpt lat="43.0033220000" lon="0.3621670000"><ele>670</ele><time>2026-03-24T13:45:55Z</time></trkpt>
<trkpt lat="43.0033350000" lon="0.3622050000"><ele>670</ele><time>2026-03-24T13:45:57Z</time></trkpt>
<trkpt lat="43.0033320000" lon="0.3622370000"><ele>670</ele><time>2026-03-24T13:45:59Z</time></trkpt>
<trkpt lat="43.0033270000" lon="0.3622620000"><ele>670</ele><time>2026-03-24T13:46:01Z</time></trkpt>
<trkpt lat="43.0033220000" lon="0.3622880000"><ele>670</ele><time>2026-03-24T13:46:03Z</time></trkpt>
<trkpt lat="43.0033170000" lon="0.3623180000"><ele>671</ele><time>2026-03-24T13:46:06Z</time></trkpt>
<trkpt lat="43.0033070000" lon="0.3623420000"><ele>670</ele><time>2026-03-24T13:46:08Z</time></trkpt>
<trkpt lat="43.0032970000" lon="0.3623670000"><ele>671</ele><time>2026-03-24T13:46:10Z</time></trkpt>
<trkpt lat="43.0032820000" lon="0.3623970000"><ele>670</ele><time>2026-03-24T13:46:13Z</time></trkpt>
<trkpt lat="43.0032720000" lon="0.3624270000"><ele>670</ele><time>2026-03-24T13:46:15Z</time></trkpt>
<trkpt lat="43.0032650000" lon="0.3624600000"><ele>670</ele><time>2026-03-24T13:46:17Z</time></trkpt>
<trkpt lat="43.0032570000" lon="0.3624920000"><ele>670</ele><time>2026-03-24T13:46:19Z</time></trkpt>
<trkpt lat="43.0032420000" lon="0.3625270000"><ele>670</ele><time>2026-03-24T13:46:21Z</time></trkpt>
<trkpt lat="43.0032370000" lon="0.3625570000"><ele>670</ele><time>2026-03-24T13:46:23Z</time></trkpt>
<trkpt lat="43.0032400000" lon="0.3625900000"><ele>670</ele><time>2026-03-24T13:46:25Z</time></trkpt>
<trkpt lat="43.0032470000" lon="0.3626150000"><ele>670</ele><time>2026-03-24T13:46:27Z</time></trkpt>
<trkpt lat="43.0032550000" lon="0.3626400000"><ele>670</ele><time>2026-03-24T13:46:29Z</time></trkpt>
<trkpt lat="43.0032570000" lon="0.3626700000"><ele>670</ele><time>2026-03-24T13:46:31Z</time></trkpt>
<trkpt lat="43.0032420000" lon="0.3627000000"><ele>669</ele><time>2026-03-24T13:46:34Z</time></trkpt>
<trkpt lat="43.0032450000" lon="0.3627320000"><ele>669</ele><time>2026-03-24T13:46:36Z</time></trkpt>
<trkpt lat="43.0032450000" lon="0.3627700000"><ele>669</ele><time>2026-03-24T13:46:39Z</time></trkpt>
<trkpt lat="43.0032420000" lon="0.3628050000"><ele>669</ele><time>2026-03-24T13:46:41Z</time></trkpt>
<trkpt lat="43.0032300000" lon="0.3628420000"><ele>668</ele><time>2026-03-24T13:46:43Z</time></trkpt>
<trkpt lat="43.0032120000" lon="0.3628620000"><ele>668</ele><time>2026-03-24T13:46:45Z</time></trkpt>
<trkpt lat="43.0032070000" lon="0.3628950000"><ele>668</ele><time>2026-03-24T13:46:47Z</time></trkpt>
<trkpt lat="43.0032100000" lon="0.3629200000"><ele>668</ele><time>2026-03-24T13:46:49Z</time></trkpt>
<trkpt lat="43.0032120000" lon="0.3629470000"><ele>668</ele><time>2026-03-24T13:46:51Z</time></trkpt>
<trkpt lat="43.0032170000" lon="0.3629770000"><ele>668</ele><time>2026-03-24T13:46:53Z</time></trkpt>
<trkpt lat="43.0032200000" lon="0.3630020000"><ele>667</ele><time>2026-03-24T13:46:55Z</time></trkpt>
<trkpt lat="43.0032220000" lon="0.3630270000"><ele>667</ele><time>2026-03-24T13:46:57Z</time></trkpt>
<trkpt lat="43.0032320000" lon="0.3630620000"><ele>667</ele><time>2026-03-24T13:46:59Z</time></trkpt>
<trkpt lat="43.0032420000" lon="0.3630870000"><ele>667</ele><time>2026-03-24T13:47:01Z</time></trkpt>
<trkpt lat="43.0032330000" lon="0.3631120000"><ele>667</ele><time>2026-03-24T13:47:03Z</time></trkpt>
<trkpt lat="43.0032320000" lon="0.3631420000"><ele>667</ele><time>2026-03-24T13:47:05Z</time></trkpt>
<trkpt lat="43.0032300000" lon="0.3631850000"><ele>667</ele><time>2026-03-24T13:47:08Z</time></trkpt>
<trkpt lat="43.0032250000" lon="0.3632220000"><ele>667</ele><time>2026-03-24T13:47:11Z</time></trkpt>
<trkpt lat="43.0032320000" lon="0.3632570000"><ele>666</ele><time>2026-03-24T13:47:14Z</time></trkpt>
<trkpt lat="43.0032320000" lon="0.3632920000"><ele>666</ele><time>2026-03-24T13:47:17Z</time></trkpt>
<trkpt lat="43.0032370000" lon="0.3633170000"><ele>666</ele><time>2026-03-24T13:47:19Z</time></trkpt>
<trkpt lat="43.0032520000" lon="0.3633400000"><ele>666</ele><time>2026-03-24T13:47:21Z</time></trkpt>
<trkpt lat="43.0032600000" lon="0.3633650000"><ele>665</ele><time>2026-03-24T13:47:24Z</time></trkpt>
<trkpt lat="43.0032700000" lon="0.3633870000"><ele>665</ele><time>2026-03-24T13:47:27Z</time></trkpt>
<trkpt lat="43.0032820000" lon="0.3634100000"><ele>665</ele><time>2026-03-24T13:47:30Z</time></trkpt>
<trkpt lat="43.0032970000" lon="0.3634320000"><ele>664</ele><time>2026-03-24T13:47:33Z</time></trkpt>
<trkpt lat="43.0033000000" lon="0.3634570000"><ele>664</ele><time>2026-03-24T13:47:35Z</time></trkpt>
<trkpt lat="43.0033170000" lon="0.3634880000"><ele>664</ele><time>2026-03-24T13:47:37Z</time></trkpt>
<trkpt lat="43.0033200000" lon="0.3635220000"><ele>664</ele><time>2026-03-24T13:47:39Z</time></trkpt>
<trkpt lat="43.0033220000" lon="0.3635500000"><ele>664</ele><time>2026-03-24T13:47:41Z</time></trkpt>
<trkpt lat="43.0033370000" lon="0.3635800000"><ele>663</ele><time>2026-03-24T13:47:44Z</time></trkpt>
<trkpt lat="43.0033350000" lon="0.3636120000"><ele>663</ele><time>2026-03-24T13:47:47Z</time></trkpt>
<trkpt lat="43.0033320000" lon="0.3636470000"><ele>662</ele><time>2026-03-24T13:47:50Z</time></trkpt>
<trkpt lat="43.0033270000" lon="0.3636820000"><ele>662</ele><time>2026-03-24T13:47:53Z</time></trkpt>
<trkpt lat="43.0033250000" lon="0.3637080000"><ele>662</ele><time>2026-03-24T13:47:55Z</time></trkpt>
<trkpt lat="43.0033320000" lon="0.3637370000"><ele>661</ele><time>2026-03-24T13:47:57Z</time></trkpt>
<trkpt lat="43.0033370000" lon="0.3637770000"><ele>661</ele><time>2026-03-24T13:48:00Z</time></trkpt>
<trkpt lat="43.0033400000" lon="0.3638030000"><ele>660</ele><time>2026-03-24T13:48:02Z</time></trkpt>
<trkpt lat="43.0033420000" lon="0.3638420000"><ele>660</ele><time>2026-03-24T13:48:05Z</time></trkpt>
<trkpt lat="43.0033400000" lon="0.3638700000"><ele>660</ele><time>2026-03-24T13:48:07Z</time></trkpt>
<trkpt lat="43.0033370000" lon="0.3639020000"><ele>660</ele><time>2026-03-24T13:48:10Z</time></trkpt>
<trkpt lat="43.0033270000" lon="0.3639320000"><ele>658</ele><time>2026-03-24T13:48:36Z</time></trkpt>
<trkpt lat="43.0033320000" lon="0.3639850000"><ele>658</ele><time>2026-03-24T13:48:38Z</time></trkpt>
<trkpt lat="43.0033350000" lon="0.3640100000"><ele>658</ele><time>2026-03-24T13:48:39Z</time></trkpt>
<trkpt lat="43.0033350000" lon="0.3640470000"><ele>658</ele><time>2026-03-24T13:48:41Z</time></trkpt>
<trkpt lat="43.0033350000" lon="0.3640770000"><ele>658</ele><time>2026-03-24T13:48:43Z</time></trkpt>
<trkpt lat="43.0033300000" lon="0.3641050000"><ele>658</ele><time>2026-03-24T13:48:45Z</time></trkpt>
<trkpt lat="43.0033270000" lon="0.3641330000"><ele>658</ele><time>2026-03-24T13:48:48Z</time></trkpt>
<trkpt lat="43.0033300000" lon="0.3641670000"><ele>658</ele><time>2026-03-24T13:48:51Z</time></trkpt>
<trkpt lat="43.0033320000" lon="0.3641920000"><ele>657</ele><time>2026-03-24T13:48:55Z</time></trkpt>
<trkpt lat="43.0033250000" lon="0.3642220000"><ele>657</ele><time>2026-03-24T13:50:02Z</time></trkpt>
<trkpt lat="43.0033520000" lon="0.3642150000"><ele>656</ele><time>2026-03-24T13:51:11Z</time></trkpt>
<trkpt lat="43.0033700000" lon="0.3642070000"><ele>656</ele><time>2026-03-24T13:51:15Z</time></trkpt>
<trkpt lat="43.0033600000" lon="0.3642420000"><ele>656</ele><time>2026-03-24T13:52:25Z</time></trkpt>
<trkpt lat="43.0033520000" lon="0.3642670000"><ele>656</ele><time>2026-03-24T13:52:27Z</time></trkpt>
<trkpt lat="43.0033550000" lon="0.3642950000"><ele>656</ele><time>2026-03-24T13:52:33Z</time></trkpt>
<trkpt lat="43.0033450000" lon="0.3642550000"><ele>656</ele><time>2026-03-24T13:53:27Z</time></trkpt>
<trkpt lat="43.0033500000" lon="0.3642120000"><ele>656</ele><time>2026-03-24T13:53:29Z</time></trkpt>
<trkpt lat="43.0033620000" lon="0.3641820000"><ele>656</ele><time>2026-03-24T13:53:31Z</time></trkpt>
<trkpt lat="43.0033770000" lon="0.3642120000"><ele>656</ele><time>2026-03-24T13:53:46Z</time></trkpt>
<trkpt lat="43.0033820000" lon="0.3642470000"><ele>655</ele><time>2026-03-24T13:53:49Z</time></trkpt>
<trkpt lat="43.0033730000" lon="0.3642780000"><ele>655</ele><time>2026-03-24T13:53:51Z</time></trkpt>
<trkpt lat="43.0033620000" lon="0.3642420000"><ele>655</ele><time>2026-03-24T13:55:01Z</time></trkpt>
<trkpt lat="43.0033570000" lon="0.3642170000"><ele>655</ele><time>2026-03-24T13:55:03Z</time></trkpt>
<trkpt lat="43.0033520000" lon="0.3642470000"><ele>655</ele><time>2026-03-24T13:55:07Z</time></trkpt>
<trkpt lat="43.0033370000" lon="0.3642320000"><ele>656</ele><time>2026-03-24T13:56:15Z</time></trkpt>
<trkpt lat="43.0033170000" lon="0.3642220000"><ele>656</ele><time>2026-03-24T13:56:17Z</time></trkpt>
<trkpt lat="43.0033400000" lon="0.3642320000"><ele>656</ele><time>2026-03-24T13:59:28Z</time></trkpt>
<trkpt lat="43.0033200000" lon="0.3642370000"><ele>656</ele><time>2026-03-24T13:59:33Z</time></trkpt>
<trkpt lat="43.0033320000" lon="0.3642170000"><ele>655</ele><time>2026-03-24T14:00:39Z</time></trkpt>
<trkpt lat="43.0033470000" lon="0.3642320000"><ele>655</ele><time>2026-03-24T14:01:42Z</time></trkpt>
<trkpt lat="43.0033700000" lon="0.3642220000"><ele>655</ele><time>2026-03-24T14:01:45Z</time></trkpt>
<trkpt lat="43.0033870000" lon="0.3642320000"><ele>655</ele><time>2026-03-24T14:02:07Z</time></trkpt>
<trkpt lat="43.0033730000" lon="0.3642570000"><ele>655</ele><time>2026-03-24T14:03:16Z</time></trkpt>
<trkpt lat="43.0033620000" lon="0.3642870000"><ele>655</ele><time>2026-03-24T14:03:18Z</time></trkpt>
<trkpt lat="43.0033600000" lon="0.3643120000"><ele>655</ele><time>2026-03-24T14:03:21Z</time></trkpt>
<trkpt lat="43.0033520000" lon="0.3642870000"><ele>655</ele><time>2026-03-24T14:04:15Z</time></trkpt>
<trkpt lat="43.0033600000" lon="0.3642320000"><ele>655</ele><time>2026-03-24T14:04:17Z</time></trkpt>
<trkpt lat="43.0033600000" lon="0.3642020000"><ele>655</ele><time>2026-03-24T14:04:18Z</time></trkpt>
<trkpt lat="43.0033550000" lon="0.3641720000"><ele>655</ele><time>2026-03-24T14:04:19Z</time></trkpt>
<trkpt lat="43.0033450000" lon="0.3641500000"><ele>655</ele><time>2026-03-24T14:04:20Z</time></trkpt>
<trkpt lat="43.0033300000" lon="0.3641330000"><ele>655</ele><time>2026-03-24T14:04:21Z</time></trkpt>
<trkpt lat="43.0033030000" lon="0.3641170000"><ele>655</ele><time>2026-03-24T14:04:23Z</time></trkpt>
<trkpt lat="43.0032770000" lon="0.3641230000"><ele>655</ele><time>2026-03-24T14:04:26Z</time></trkpt>
<trkpt lat="43.0032950000" lon="0.3641470000"><ele>655</ele><time>2026-03-24T14:04:32Z</time></trkpt>
<trkpt lat="43.0033170000" lon="0.3641670000"><ele>655</ele><time>2026-03-24T14:05:29Z</time></trkpt>
<trkpt lat="43.0033520000" lon="0.3642050000"><ele>655</ele><time>2026-03-24T14:05:32Z</time></trkpt>
<trkpt lat="43.0033570000" lon="0.3642070000"><ele>655</ele><time>2026-03-24T14:05:33Z</time></trkpt>
<trkpt lat="43.0033420000" lon="0.3642370000"><ele>655</ele><time>2026-03-24T14:06:40Z</time></trkpt>
<trkpt lat="43.0033620000" lon="0.3642170000"><ele>655</ele><time>2026-03-24T14:06:44Z</time></trkpt>
<trkpt lat="43.0033820000" lon="0.3641950000"><ele>655</ele><time>2026-03-24T14:06:46Z</time></trkpt>
<trkpt lat="43.0033970000" lon="0.3641820000"><ele>655</ele><time>2026-03-24T14:06:48Z</time></trkpt>
<trkpt lat="43.0034170000" lon="0.3641970000"><ele>655</ele><time>2026-03-24T14:06:52Z</time></trkpt>
<trkpt lat="43.0034200000" lon="0.3641670000"><ele>655</ele><time>2026-03-24T14:06:59Z</time></trkpt>
<trkpt lat="43.0034100000" lon="0.3641970000"><ele>655</ele><time>2026-03-24T14:08:05Z</time></trkpt>
<trkpt lat="43.0034020000" lon="0.3642270000"><ele>655</ele><time>2026-03-24T14:08:06Z</time></trkpt>
<trkpt lat="43.0033900000" lon="0.3642620000"><ele>655</ele><time>2026-03-24T14:08:07Z</time></trkpt>
<trkpt lat="43.0033800000" lon="0.3642920000"><ele>655</ele><time>2026-03-24T14:08:08Z</time></trkpt>
<trkpt lat="43.0033670000" lon="0.3643120000"><ele>655</ele><time>2026-03-24T14:08:09Z</time></trkpt>
<trkpt lat="43.0033520000" lon="0.3643250000"><ele>655</ele><time>2026-03-24T14:08:11Z</time></trkpt>
<trkpt lat="43.0033320000" lon="0.3643170000"><ele>655</ele><time>2026-03-24T14:08:13Z</time></trkpt>
<trkpt lat="43.0033120000" lon="0.3643120000"><ele>655</ele><time>2026-03-24T14:08:15Z</time></trkpt>
<trkpt lat="43.0033370000" lon="0.3643300000"><ele>654</ele><time>2026-03-24T14:10:18Z</time></trkpt>
<trkpt lat="43.0033550000" lon="0.3643500000"><ele>654</ele><time>2026-03-24T14:10:19Z</time></trkpt>
<trkpt lat="43.0033730000" lon="0.3643720000"><ele>653</ele><time>2026-03-24T14:10:20Z</time></trkpt>
<trkpt lat="43.0033920000" lon="0.3643920000"><ele>653</ele><time>2026-03-24T14:10:21Z</time></trkpt>
<trkpt lat="43.0034050000" lon="0.3644100000"><ele>653</ele><time>2026-03-24T14:10:22Z</time></trkpt>
<trkpt lat="43.0034170000" lon="0.3644370000"><ele>653</ele><time>2026-03-24T14:10:24Z</time></trkpt>
<trkpt lat="43.0034170000" lon="0.3644670000"><ele>653</ele><time>2026-03-24T14:10:27Z</time></trkpt>
<trkpt lat="43.0034250000" lon="0.3644970000"><ele>652</ele><time>2026-03-24T14:10:29Z</time></trkpt>
<trkpt lat="43.0034370000" lon="0.3645300000"><ele>652</ele><time>2026-03-24T14:10:31Z</time></trkpt>
<trkpt lat="43.0034620000" lon="0.3645470000"><ele>652</ele><time>2026-03-24T14:10:33Z</time></trkpt>
<trkpt lat="43.0034850000" lon="0.3645620000"><ele>651</ele><time>2026-03-24T14:10:36Z</time></trkpt>
<trkpt lat="43.0035020000" lon="0.3645870000"><ele>651</ele><time>2026-03-24T14:10:39Z</time></trkpt>
<trkpt lat="43.0035270000" lon="0.3646170000"><ele>651</ele><time>2026-03-24T14:10:41Z</time></trkpt>
<trkpt lat="43.0035420000" lon="0.3646320000"><ele>651</ele><time>2026-03-24T14:10:42Z</time></trkpt>
<trkpt lat="43.0035550000" lon="0.3646520000"><ele>651</ele><time>2026-03-24T14:10:43Z</time></trkpt>
<trkpt lat="43.0035670000" lon="0.3646720000"><ele>650</ele><time>2026-03-24T14:10:45Z</time></trkpt>
<trkpt lat="43.0035950000" lon="0.3647020000"><ele>650</ele><time>2026-03-24T14:10:47Z</time></trkpt>
<trkpt lat="43.0036150000" lon="0.3647220000"><ele>650</ele><time>2026-03-24T14:10:49Z</time></trkpt>
<trkpt lat="43.0036220000" lon="0.3647470000"><ele>650</ele><time>2026-03-24T14:10:51Z</time></trkpt>
<trkpt lat="43.0036400000" lon="0.3647720000"><ele>649</ele><time>2026-03-24T14:10:54Z</time></trkpt>
<trkpt lat="43.0036550000" lon="0.3647920000"><ele>649</ele><time>2026-03-24T14:10:56Z</time></trkpt>
<trkpt lat="43.0036720000" lon="0.3648220000"><ele>649</ele><time>2026-03-24T14:10:58Z</time></trkpt>
<trkpt lat="43.0036870000" lon="0.3648400000"><ele>648</ele><time>2026-03-24T14:11:00Z</time></trkpt>
<trkpt lat="43.0037120000" lon="0.3648570000"><ele>648</ele><time>2026-03-24T14:11:02Z</time></trkpt>
<trkpt lat="43.0037270000" lon="0.3648670000"><ele>648</ele><time>2026-03-24T14:11:04Z</time></trkpt>
<trkpt lat="43.0037400000" lon="0.3648920000"><ele>647</ele><time>2026-03-24T14:11:07Z</time></trkpt>
<trkpt lat="43.0037530000" lon="0.3649130000"><ele>647</ele><time>2026-03-24T14:11:09Z</time></trkpt>
<trkpt lat="43.0037800000" lon="0.3649220000"><ele>646</ele><time>2026-03-24T14:11:12Z</time></trkpt>
<trkpt lat="43.0037970000" lon="0.3649320000"><ele>646</ele><time>2026-03-24T14:11:14Z</time></trkpt>
<trkpt lat="43.0038220000" lon="0.3649420000"><ele>646</ele><time>2026-03-24T14:11:17Z</time></trkpt>
<trkpt lat="43.0038420000" lon="0.3649530000"><ele>645</ele><time>2026-03-24T14:11:20Z</time></trkpt>
<trkpt lat="43.0038620000" lon="0.3649720000"><ele>645</ele><time>2026-03-24T14:11:22Z</time></trkpt>
<trkpt lat="43.0038870000" lon="0.3649720000"><ele>645</ele><time>2026-03-24T14:11:23Z</time></trkpt>
<trkpt lat="43.0039120000" lon="0.3649820000"><ele>644</ele><time>2026-03-24T14:11:25Z</time></trkpt>
<trkpt lat="43.0039320000" lon="0.3649950000"><ele>644</ele><time>2026-03-24T14:11:27Z</time></trkpt>
<trkpt lat="43.0039620000" lon="0.3650220000"><ele>644</ele><time>2026-03-24T14:11:29Z</time></trkpt>
<trkpt lat="43.0039770000" lon="0.3650320000"><ele>644</ele><time>2026-03-24T14:11:30Z</time></trkpt>
<trkpt lat="43.0039970000" lon="0.3650580000"><ele>643</ele><time>2026-03-24T14:11:32Z</time></trkpt>
<trkpt lat="43.0040100000" lon="0.3650800000"><ele>643</ele><time>2026-03-24T14:11:33Z</time></trkpt>
<trkpt lat="43.0040370000" lon="0.3651050000"><ele>643</ele><time>2026-03-24T14:11:35Z</time></trkpt>
<trkpt lat="43.0040470000" lon="0.3651270000"><ele>643</ele><time>2026-03-24T14:11:37Z</time></trkpt>
<trkpt lat="43.0040620000" lon="0.3651450000"><ele>643</ele><time>2026-03-24T14:11:39Z</time></trkpt>
<trkpt lat="43.0040870000" lon="0.3651670000"><ele>643</ele><time>2026-03-24T14:11:41Z</time></trkpt>
<trkpt lat="43.0041020000" lon="0.3651970000"><ele>643</ele><time>2026-03-24T14:11:43Z</time></trkpt>
<trkpt lat="43.0041150000" lon="0.3652170000"><ele>643</ele><time>2026-03-24T14:11:45Z</time></trkpt>
<trkpt lat="43.0041170000" lon="0.3652620000"><ele>643</ele><time>2026-03-24T14:11:48Z</time></trkpt>
<trkpt lat="43.0041220000" lon="0.3652900000"><ele>643</ele><time>2026-03-24T14:11:50Z</time></trkpt>
<trkpt lat="43.0041300000" lon="0.3653220000"><ele>643</ele><time>2026-03-24T14:11:52Z</time></trkpt>
<trkpt lat="43.0041370000" lon="0.3653470000"><ele>643</ele><time>2026-03-24T14:11:53Z</time></trkpt>
<trkpt lat="43.0041470000" lon="0.3653750000"><ele>643</ele><time>2026-03-24T14:11:55Z</time></trkpt>
<trkpt lat="43.0041620000" lon="0.3654020000"><ele>643</ele><time>2026-03-24T14:11:57Z</time></trkpt>
<trkpt lat="43.0041800000" lon="0.3654250000"><ele>643</ele><time>2026-03-24T14:12:00Z</time></trkpt>
<trkpt lat="43.0041520000" lon="0.3654370000"><ele>643</ele><time>2026-03-24T14:12:03Z</time></trkpt>
<trkpt lat="43.0041420000" lon="0.3654570000"><ele>643</ele><time>2026-03-24T14:12:05Z</time></trkpt>
<trkpt lat="43.0041470000" lon="0.3654950000"><ele>643</ele><time>2026-03-24T14:12:07Z</time></trkpt>
<trkpt lat="43.0041520000" lon="0.3655220000"><ele>643</ele><time>2026-03-24T14:12:09Z</time></trkpt>
<trkpt lat="43.0041670000" lon="0.3655370000"><ele>644</ele><time>2026-03-24T14:12:15Z</time></trkpt>
<trkpt lat="43.0041870000" lon="0.3655370000"><ele>644</ele><time>2026-03-24T14:12:18Z</time></trkpt>
<trkpt lat="43.0042070000" lon="0.3655320000"><ele>643</ele><time>2026-03-24T14:12:20Z</time></trkpt>
<trkpt lat="43.0042250000" lon="0.3655370000"><ele>643</ele><time>2026-03-24T14:12:24Z</time></trkpt>
<trkpt lat="43.0042470000" lon="0.3655370000"><ele>643</ele><time>2026-03-24T14:12:26Z</time></trkpt>
<trkpt lat="43.0042670000" lon="0.3655320000"><ele>644</ele><time>2026-03-24T14:12:27Z</time></trkpt>
<trkpt lat="43.0042870000" lon="0.3655300000"><ele>643</ele><time>2026-03-24T14:12:28Z</time></trkpt>
<trkpt lat="43.0043170000" lon="0.3655320000"><ele>644</ele><time>2026-03-24T14:12:30Z</time></trkpt>
<trkpt lat="43.0043420000" lon="0.3655370000"><ele>644</ele><time>2026-03-24T14:12:32Z</time></trkpt>
<trkpt lat="43.0043720000" lon="0.3655470000"><ele>644</ele><time>2026-03-24T14:12:34Z</time></trkpt>
<trkpt lat="43.0043970000" lon="0.3655600000"><ele>644</ele><time>2026-03-24T14:12:38Z</time></trkpt>
<trkpt lat="43.0044270000" lon="0.3655630000"><ele>644</ele><time>2026-03-24T14:12:40Z</time></trkpt>
<trkpt lat="43.0044500000" lon="0.3655630000"><ele>644</ele><time>2026-03-24T14:12:43Z</time></trkpt>
<trkpt lat="43.0044700000" lon="0.3655730000"><ele>645</ele><time>2026-03-24T14:12:45Z</time></trkpt>
<trkpt lat="43.0044970000" lon="0.3655770000"><ele>645</ele><time>2026-03-24T14:12:47Z</time></trkpt>
<trkpt lat="43.0045250000" lon="0.3655800000"><ele>645</ele><time>2026-03-24T14:12:49Z</time></trkpt>
<trkpt lat="43.0045470000" lon="0.3655770000"><ele>645</ele><time>2026-03-24T14:12:51Z</time></trkpt>
<trkpt lat="43.0045700000" lon="0.3655870000"><ele>645</ele><time>2026-03-24T14:12:54Z</time></trkpt>
<trkpt lat="43.0045920000" lon="0.3656020000"><ele>645</ele><time>2026-03-24T14:12:57Z</time></trkpt>
<trkpt lat="43.0046120000" lon="0.3656170000"><ele>646</ele><time>2026-03-24T14:13:31Z</time></trkpt>
<trkpt lat="43.0046350000" lon="0.3656250000"><ele>646</ele><time>2026-03-24T14:13:33Z</time></trkpt>
<trkpt lat="43.0046620000" lon="0.3656320000"><ele>646</ele><time>2026-03-24T14:13:35Z</time></trkpt>
<trkpt lat="43.0046850000" lon="0.3656370000"><ele>646</ele><time>2026-03-24T14:13:37Z</time></trkpt>
<trkpt lat="43.0047100000" lon="0.3656370000"><ele>646</ele><time>2026-03-24T14:13:39Z</time></trkpt>
<trkpt lat="43.0047320000" lon="0.3656370000"><ele>646</ele><time>2026-03-24T14:13:41Z</time></trkpt>
<trkpt lat="43.0047570000" lon="0.3656370000"><ele>647</ele><time>2026-03-24T14:13:43Z</time></trkpt>
<trkpt lat="43.0047770000" lon="0.3656320000"><ele>647</ele><time>2026-03-24T14:13:45Z</time></trkpt>
<trkpt lat="43.0047920000" lon="0.3656220000"><ele>647</ele><time>2026-03-24T14:13:47Z</time></trkpt>
<trkpt lat="43.0048170000" lon="0.3656050000"><ele>647</ele><time>2026-03-24T14:13:50Z</time></trkpt>
<trkpt lat="43.0048370000" lon="0.3655900000"><ele>648</ele><time>2026-03-24T14:13:55Z</time></trkpt>
<trkpt lat="43.0048550000" lon="0.3655670000"><ele>648</ele><time>2026-03-24T14:13:57Z</time></trkpt>
<trkpt lat="43.0048770000" lon="0.3655470000"><ele>648</ele><time>2026-03-24T14:13:59Z</time></trkpt>
<trkpt lat="43.0049000000" lon="0.3655320000"><ele>648</ele><time>2026-03-24T14:14:01Z</time></trkpt>
<trkpt lat="43.0049170000" lon="0.3655170000"><ele>648</ele><time>2026-03-24T14:14:03Z</time></trkpt>
<trkpt lat="43.0049320000" lon="0.3655020000"><ele>649</ele><time>2026-03-24T14:14:05Z</time></trkpt>
<trkpt lat="43.0049500000" lon="0.3654900000"><ele>649</ele><time>2026-03-24T14:14:07Z</time></trkpt>
<trkpt lat="43.0049620000" lon="0.3654720000"><ele>649</ele><time>2026-03-24T14:14:09Z</time></trkpt>
<trkpt lat="43.0049770000" lon="0.3654520000"><ele>649</ele><time>2026-03-24T14:14:12Z</time></trkpt>
<trkpt lat="43.0049970000" lon="0.3654320000"><ele>650</ele><time>2026-03-24T14:14:14Z</time></trkpt>
<trkpt lat="43.0050170000" lon="0.3654170000"><ele>650</ele><time>2026-03-24T14:14:16Z</time></trkpt>
<trkpt lat="43.0050370000" lon="0.3653950000"><ele>650</ele><time>2026-03-24T14:14:19Z</time></trkpt>
<trkpt lat="43.0050550000" lon="0.3653820000"><ele>650</ele><time>2026-03-24T14:14:22Z</time></trkpt>
<trkpt lat="43.0050750000" lon="0.3653750000"><ele>651</ele><time>2026-03-24T14:14:25Z</time></trkpt>
<trkpt lat="43.0050850000" lon="0.3653520000"><ele>651</ele><time>2026-03-24T14:14:28Z</time></trkpt>
<trkpt lat="43.0051000000" lon="0.3653320000"><ele>652</ele><time>2026-03-24T14:14:30Z</time></trkpt>
<trkpt lat="43.0051020000" lon="0.3653070000"><ele>652</ele><time>2026-03-24T14:14:31Z</time></trkpt>
<trkpt lat="43.0050950000" lon="0.3652720000"><ele>652</ele><time>2026-03-24T14:14:34Z</time></trkpt>
<trkpt lat="43.0051070000" lon="0.3652550000"><ele>653</ele><time>2026-03-24T14:14:39Z</time></trkpt>
<trkpt lat="43.0051320000" lon="0.3652420000"><ele>653</ele><time>2026-03-24T14:14:42Z</time></trkpt>
<trkpt lat="43.0051420000" lon="0.3652170000"><ele>653</ele><time>2026-03-24T14:14:44Z</time></trkpt>
<trkpt lat="43.0051620000" lon="0.3652020000"><ele>654</ele><time>2026-03-24T14:14:46Z</time></trkpt>
<trkpt lat="43.0051900000" lon="0.3651750000"><ele>654</ele><time>2026-03-24T14:14:48Z</time></trkpt>
<trkpt lat="43.0052070000" lon="0.3651570000"><ele>654</ele><time>2026-03-24T14:14:49Z</time></trkpt>
<trkpt lat="43.0052320000" lon="0.3651370000"><ele>654</ele><time>2026-03-24T14:14:51Z</time></trkpt>
<trkpt lat="43.0052520000" lon="0.3651320000"><ele>654</ele><time>2026-03-24T14:14:53Z</time></trkpt>
<trkpt lat="43.0052720000" lon="0.3651220000"><ele>654</ele><time>2026-03-24T14:14:55Z</time></trkpt>
<trkpt lat="43.0052950000" lon="0.3651120000"><ele>654</ele><time>2026-03-24T14:14:57Z</time></trkpt>
<trkpt lat="43.0053170000" lon="0.3651120000"><ele>654</ele><time>2026-03-24T14:14:59Z</time></trkpt>
<trkpt lat="43.0053370000" lon="0.3651120000"><ele>654</ele><time>2026-03-24T14:15:03Z</time></trkpt>
<trkpt lat="43.0053120000" lon="0.3651320000"><ele>653</ele><time>2026-03-24T14:15:26Z</time></trkpt>
<trkpt lat="43.0053400000" lon="0.3651320000"><ele>654</ele><time>2026-03-24T14:15:30Z</time></trkpt>
<trkpt lat="43.0053620000" lon="0.3651200000"><ele>653</ele><time>2026-03-24T14:15:33Z</time></trkpt>
<trkpt lat="43.0053850000" lon="0.3651120000"><ele>653</ele><time>2026-03-24T14:15:35Z</time></trkpt>
<trkpt lat="43.0054100000" lon="0.3651020000"><ele>653</ele><time>2026-03-24T14:15:40Z</time></trkpt>
<trkpt lat="43.0054350000" lon="0.3650820000"><ele>652</ele><time>2026-03-24T14:15:43Z</time></trkpt>
<trkpt lat="43.0054620000" lon="0.3650620000"><ele>652</ele><time>2026-03-24T14:15:45Z</time></trkpt>
<trkpt lat="43.0054800000" lon="0.3650450000"><ele>652</ele><time>2026-03-24T14:15:47Z</time></trkpt>
<trkpt lat="43.0054920000" lon="0.3650270000"><ele>652</ele><time>2026-03-24T14:15:49Z</time></trkpt>
<trkpt lat="43.0055150000" lon="0.3650120000"><ele>651</ele><time>2026-03-24T14:15:52Z</time></trkpt>
<trkpt lat="43.0055350000" lon="0.3649950000"><ele>651</ele><time>2026-03-24T14:15:54Z</time></trkpt>
<trkpt lat="43.0055520000" lon="0.3649730000"><ele>650</ele><time>2026-03-24T14:15:56Z</time></trkpt>
<trkpt lat="43.0055670000" lon="0.3649420000"><ele>650</ele><time>2026-03-24T14:15:59Z</time></trkpt>
<trkpt lat="43.0055770000" lon="0.3649320000"><ele>650</ele><time>2026-03-24T14:16:00Z</time></trkpt>
<trkpt lat="43.0055870000" lon="0.3649120000"><ele>649</ele><time>2026-03-24T14:16:02Z</time></trkpt>
<trkpt lat="43.0056000000" lon="0.3648870000"><ele>649</ele><time>2026-03-24T14:16:04Z</time></trkpt>
<trkpt lat="43.0056100000" lon="0.3648570000"><ele>648</ele><time>2026-03-24T14:16:06Z</time></trkpt>
<trkpt lat="43.0056170000" lon="0.3648350000"><ele>648</ele><time>2026-03-24T14:16:08Z</time></trkpt>
<trkpt lat="43.0056320000" lon="0.3648170000"><ele>648</ele><time>2026-03-24T14:16:10Z</time></trkpt>
<trkpt lat="43.0056470000" lon="0.3648020000"><ele>647</ele><time>2026-03-24T14:16:12Z</time></trkpt>
<trkpt lat="43.0056650000" lon="0.3647820000"><ele>647</ele><time>2026-03-24T14:16:14Z</time></trkpt>
<trkpt lat="43.0056900000" lon="0.3647670000"><ele>646</ele><time>2026-03-24T14:16:17Z</time></trkpt>
<trkpt lat="43.0057070000" lon="0.3647470000"><ele>646</ele><time>2026-03-24T14:16:19Z</time></trkpt>
<trkpt lat="43.0057170000" lon="0.3647020000"><ele>645</ele><time>2026-03-24T14:16:22Z</time></trkpt>
<trkpt lat="43.0057220000" lon="0.3646900000"><ele>645</ele><time>2026-03-24T14:16:23Z</time></trkpt>
<trkpt lat="43.0057370000" lon="0.3646750000"><ele>644</ele><time>2026-03-24T14:16:25Z</time></trkpt>
<trkpt lat="43.0057550000" lon="0.3646520000"><ele>644</ele><time>2026-03-24T14:16:27Z</time></trkpt>
<trkpt lat="43.0057750000" lon="0.3646320000"><ele>643</ele><time>2026-03-24T14:16:29Z</time></trkpt>
<trkpt lat="43.0057920000" lon="0.3646120000"><ele>643</ele><time>2026-03-24T14:16:31Z</time></trkpt>
<trkpt lat="43.0058070000" lon="0.3645820000"><ele>643</ele><time>2026-03-24T14:16:34Z</time></trkpt>
<trkpt lat="43.0058300000" lon="0.3645620000"><ele>642</ele><time>2026-03-24T14:16:36Z</time></trkpt>
<trkpt lat="43.0058550000" lon="0.3645450000"><ele>642</ele><time>2026-03-24T14:16:38Z</time></trkpt>
<trkpt lat="43.0058670000" lon="0.3645270000"><ele>641</ele><time>2026-03-24T14:16:41Z</time></trkpt>
<trkpt lat="43.0058850000" lon="0.3645050000"><ele>641</ele><time>2026-03-24T14:16:43Z</time></trkpt>
<trkpt lat="43.0059070000" lon="0.3644820000"><ele>641</ele><time>2026-03-24T14:16:46Z</time></trkpt>
<trkpt lat="43.0059220000" lon="0.3644630000"><ele>640</ele><time>2026-03-24T14:16:48Z</time></trkpt>
<trkpt lat="43.0059370000" lon="0.3644420000"><ele>640</ele><time>2026-03-24T14:16:50Z</time></trkpt>
<trkpt lat="43.0059620000" lon="0.3644320000"><ele>639</ele><time>2026-03-24T14:16:54Z</time></trkpt>
<trkpt lat="43.0059900000" lon="0.3644170000"><ele>639</ele><time>2026-03-24T14:16:56Z</time></trkpt>
<trkpt lat="43.0060270000" lon="0.3644120000"><ele>639</ele><time>2026-03-24T14:16:59Z</time></trkpt>
<trkpt lat="43.0060400000" lon="0.3644120000"><ele>639</ele><time>2026-03-24T14:17:00Z</time></trkpt>
<trkpt lat="43.0060570000" lon="0.3644120000"><ele>639</ele><time>2026-03-24T14:17:02Z</time></trkpt>
<trkpt lat="43.0060770000" lon="0.3644120000"><ele>638</ele><time>2026-03-24T14:17:04Z</time></trkpt>
<trkpt lat="43.0061070000" lon="0.3644170000"><ele>638</ele><time>2026-03-24T14:17:06Z</time></trkpt>
<trkpt lat="43.0061400000" lon="0.3644320000"><ele>638</ele><time>2026-03-24T14:17:08Z</time></trkpt>
<trkpt lat="43.0061620000" lon="0.3644570000"><ele>638</ele><time>2026-03-24T14:17:10Z</time></trkpt>
<trkpt lat="43.0061820000" lon="0.3644880000"><ele>638</ele><time>2026-03-24T14:17:12Z</time></trkpt>
<trkpt lat="43.0061970000" lon="0.3645200000"><ele>638</ele><time>2026-03-24T14:17:14Z</time></trkpt>
<trkpt lat="43.0062020000" lon="0.3645470000"><ele>637</ele><time>2026-03-24T14:17:15Z</time></trkpt>
<trkpt lat="43.0062020000" lon="0.3645870000"><ele>637</ele><time>2026-03-24T14:17:17Z</time></trkpt>
<trkpt lat="43.0061970000" lon="0.3646120000"><ele>637</ele><time>2026-03-24T14:17:19Z</time></trkpt>
<trkpt lat="43.0061920000" lon="0.3646420000"><ele>637</ele><time>2026-03-24T14:17:21Z</time></trkpt>
<trkpt lat="43.0061800000" lon="0.3646720000"><ele>637</ele><time>2026-03-24T14:17:23Z</time></trkpt>
<trkpt lat="43.0061770000" lon="0.3647000000"><ele>637</ele><time>2026-03-24T14:17:25Z</time></trkpt>
<trkpt lat="43.0061800000" lon="0.3647300000"><ele>637</ele><time>2026-03-24T14:17:27Z</time></trkpt>
<trkpt lat="43.0061720000" lon="0.3647680000"><ele>636</ele><time>2026-03-24T14:17:29Z</time></trkpt>
<trkpt lat="43.0061700000" lon="0.3647970000"><ele>636</ele><time>2026-03-24T14:17:31Z</time></trkpt>
<trkpt lat="43.0061620000" lon="0.3648270000"><ele>636</ele><time>2026-03-24T14:17:33Z</time></trkpt>
<trkpt lat="43.0061600000" lon="0.3648650000"><ele>636</ele><time>2026-03-24T14:17:35Z</time></trkpt>
<trkpt lat="43.0061470000" lon="0.3649000000"><ele>636</ele><time>2026-03-24T14:17:37Z</time></trkpt>
<trkpt lat="43.0061450000" lon="0.3649300000"><ele>635</ele><time>2026-03-24T14:17:39Z</time></trkpt>
<trkpt lat="43.0061370000" lon="0.3649620000"><ele>635</ele><time>2026-03-24T14:17:41Z</time></trkpt>
<trkpt lat="43.0061270000" lon="0.3649870000"><ele>635</ele><time>2026-03-24T14:17:43Z</time></trkpt>
<trkpt lat="43.0061400000" lon="0.3650170000"><ele>635</ele><time>2026-03-24T14:17:45Z</time></trkpt>
<trkpt lat="43.0061470000" lon="0.3650380000"><ele>635</ele><time>2026-03-24T14:17:47Z</time></trkpt>
<trkpt lat="43.0061570000" lon="0.3650670000"><ele>634</ele><time>2026-03-24T14:17:49Z</time></trkpt>
<trkpt lat="43.0061720000" lon="0.3650870000"><ele>634</ele><time>2026-03-24T14:17:51Z</time></trkpt>
<trkpt lat="43.0061920000" lon="0.3650980000"><ele>634</ele><time>2026-03-24T14:17:53Z</time></trkpt>
<trkpt lat="43.0062170000" lon="0.3651170000"><ele>634</ele><time>2026-03-24T14:17:55Z</time></trkpt>
<trkpt lat="43.0062370000" lon="0.3651400000"><ele>634</ele><time>2026-03-24T14:17:57Z</time></trkpt>
<trkpt lat="43.0062470000" lon="0.3651580000"><ele>633</ele><time>2026-03-24T14:17:59Z</time></trkpt>
<trkpt lat="43.0062570000" lon="0.3651830000"><ele>633</ele><time>2026-03-24T14:18:02Z</time></trkpt>
<trkpt lat="43.0062650000" lon="0.3652170000"><ele>633</ele><time>2026-03-24T14:18:05Z</time></trkpt>
<trkpt lat="43.0062750000" lon="0.3652370000"><ele>632</ele><time>2026-03-24T14:18:07Z</time></trkpt>
<trkpt lat="43.0062920000" lon="0.3652520000"><ele>632</ele><time>2026-03-24T14:18:10Z</time></trkpt>
<trkpt lat="43.0063120000" lon="0.3652750000"><ele>632</ele><time>2026-03-24T14:18:13Z</time></trkpt>
<trkpt lat="43.0063280000" lon="0.3652920000"><ele>631</ele><time>2026-03-24T14:18:15Z</time></trkpt>
<trkpt lat="43.0063500000" lon="0.3653000000"><ele>631</ele><time>2026-03-24T14:18:17Z</time></trkpt>
<trkpt lat="43.0063720000" lon="0.3653070000"><ele>631</ele><time>2026-03-24T14:18:19Z</time></trkpt>
<trkpt lat="43.0063920000" lon="0.3653170000"><ele>631</ele><time>2026-03-24T14:18:21Z</time></trkpt>
<trkpt lat="43.0064130000" lon="0.3653220000"><ele>631</ele><time>2026-03-24T14:18:23Z</time></trkpt>
<trkpt lat="43.0064370000" lon="0.3653550000"><ele>630</ele><time>2026-03-24T14:18:25Z</time></trkpt>
<trkpt lat="43.0064570000" lon="0.3653750000"><ele>630</ele><time>2026-03-24T14:18:27Z</time></trkpt>
<trkpt lat="43.0064770000" lon="0.3653920000"><ele>630</ele><time>2026-03-24T14:18:30Z</time></trkpt>
<trkpt lat="43.0064950000" lon="0.3654070000"><ele>630</ele><time>2026-03-24T14:18:32Z</time></trkpt>
<trkpt lat="43.0065220000" lon="0.3654270000"><ele>629</ele><time>2026-03-24T14:18:34Z</time></trkpt>
<trkpt lat="43.0065500000" lon="0.3654450000"><ele>629</ele><time>2026-03-24T14:18:36Z</time></trkpt>
<trkpt lat="43.0065670000" lon="0.3654620000"><ele>629</ele><time>2026-03-24T14:18:38Z</time></trkpt>
<trkpt lat="43.0065850000" lon="0.3654770000"><ele>629</ele><time>2026-03-24T14:18:40Z</time></trkpt>
<trkpt lat="43.0066020000" lon="0.3654870000"><ele>629</ele><time>2026-03-24T14:18:41Z</time></trkpt>
<trkpt lat="43.0066300000" lon="0.3655020000"><ele>629</ele><time>2026-03-24T14:18:43Z</time></trkpt>
<trkpt lat="43.0066550000" lon="0.3655170000"><ele>629</ele><time>2026-03-24T14:18:45Z</time></trkpt>
<trkpt lat="43.0066770000" lon="0.3655350000"><ele>629</ele><time>2026-03-24T14:18:47Z</time></trkpt>
<trkpt lat="43.0066970000" lon="0.3655470000"><ele>629</ele><time>2026-03-24T14:18:49Z</time></trkpt>
<trkpt lat="43.0067170000" lon="0.3655600000"><ele>629</ele><time>2026-03-24T14:18:51Z</time></trkpt>
<trkpt lat="43.0067400000" lon="0.3655700000"><ele>628</ele><time>2026-03-24T14:18:54Z</time></trkpt>
<trkpt lat="43.0067670000" lon="0.3655800000"><ele>628</ele><time>2026-03-24T14:18:57Z</time></trkpt>
<trkpt lat="43.0067970000" lon="0.3655870000"><ele>628</ele><time>2026-03-24T14:18:59Z</time></trkpt>
<trkpt lat="43.0068250000" lon="0.3655970000"><ele>628</ele><time>2026-03-24T14:19:01Z</time></trkpt>
<trkpt lat="43.0068470000" lon="0.3656050000"><ele>628</ele><time>2026-03-24T14:19:03Z</time></trkpt>
<trkpt lat="43.0068720000" lon="0.3656150000"><ele>629</ele><time>2026-03-24T14:19:05Z</time></trkpt>
<trkpt lat="43.0068950000" lon="0.3656250000"><ele>629</ele><time>2026-03-24T14:19:07Z</time></trkpt>
<trkpt lat="43.0069220000" lon="0.3656320000"><ele>629</ele><time>2026-03-24T14:19:10Z</time></trkpt>
<trkpt lat="43.0069420000" lon="0.3656370000"><ele>629</ele><time>2026-03-24T14:19:12Z</time></trkpt>
<trkpt lat="43.0069670000" lon="0.3656520000"><ele>629</ele><time>2026-03-24T14:19:14Z</time></trkpt>
<trkpt lat="43.0069870000" lon="0.3656620000"><ele>629</ele><time>2026-03-24T14:19:16Z</time></trkpt>
<trkpt lat="43.0070050000" lon="0.3656750000"><ele>628</ele><time>2026-03-24T14:19:18Z</time></trkpt>
<trkpt lat="43.0070150000" lon="0.3656970000"><ele>629</ele><time>2026-03-24T14:19:28Z</time></trkpt>
<trkpt lat="43.0070320000" lon="0.3656800000"><ele>629</ele><time>2026-03-24T14:19:31Z</time></trkpt>
<trkpt lat="43.0070320000" lon="0.3656480000"><ele>629</ele><time>2026-03-24T14:19:41Z</time></trkpt>
<trkpt lat="43.0070520000" lon="0.3656620000"><ele>628</ele><time>2026-03-24T14:19:44Z</time></trkpt>
<trkpt lat="43.0070850000" lon="0.3656720000"><ele>628</ele><time>2026-03-24T14:19:46Z</time></trkpt>
<trkpt lat="43.0071020000" lon="0.3656750000"><ele>628</ele><time>2026-03-24T14:19:47Z</time></trkpt>
<trkpt lat="43.0071370000" lon="0.3656900000"><ele>628</ele><time>2026-03-24T14:19:49Z</time></trkpt>
<trkpt lat="43.0071620000" lon="0.3657020000"><ele>628</ele><time>2026-03-24T14:19:51Z</time></trkpt>
<trkpt lat="43.0071870000" lon="0.3657080000"><ele>628</ele><time>2026-03-24T14:19:53Z</time></trkpt>
<trkpt lat="43.0072100000" lon="0.3657200000"><ele>629</ele><time>2026-03-24T14:19:55Z</time></trkpt>
<trkpt lat="43.0072370000" lon="0.3657330000"><ele>629</ele><time>2026-03-24T14:19:58Z</time></trkpt>
<trkpt lat="43.0072570000" lon="0.3657500000"><ele>629</ele><time>2026-03-24T14:20:01Z</time></trkpt>
<trkpt lat="43.0072720000" lon="0.3657650000"><ele>629</ele><time>2026-03-24T14:20:03Z</time></trkpt>
<trkpt lat="43.0072920000" lon="0.3657850000"><ele>629</ele><time>2026-03-24T14:20:05Z</time></trkpt>
<trkpt lat="43.0073070000" lon="0.3658100000"><ele>628</ele><time>2026-03-24T14:20:07Z</time></trkpt>
<trkpt lat="43.0073250000" lon="0.3658250000"><ele>628</ele><time>2026-03-24T14:20:09Z</time></trkpt>
<trkpt lat="43.0073450000" lon="0.3658370000"><ele>628</ele><time>2026-03-24T14:20:11Z</time></trkpt>
<trkpt lat="43.0073700000" lon="0.3658470000"><ele>628</ele><time>2026-03-24T14:20:13Z</time></trkpt>
<trkpt lat="43.0073970000" lon="0.3658620000"><ele>628</ele><time>2026-03-24T14:20:15Z</time></trkpt>
<trkpt lat="43.0074220000" lon="0.3658720000"><ele>627</ele><time>2026-03-24T14:20:17Z</time></trkpt>
<trkpt lat="43.0074470000" lon="0.3658850000"><ele>627</ele><time>2026-03-24T14:20:19Z</time></trkpt>
<trkpt lat="43.0074720000" lon="0.3658980000"><ele>627</ele><time>2026-03-24T14:20:21Z</time></trkpt>
<trkpt lat="43.0074970000" lon="0.3659120000"><ele>627</ele><time>2026-03-24T14:20:23Z</time></trkpt>
<trkpt lat="43.0075200000" lon="0.3659220000"><ele>627</ele><time>2026-03-24T14:20:25Z</time></trkpt>
<trkpt lat="43.0075450000" lon="0.3659320000"><ele>627</ele><time>2026-03-24T14:20:27Z</time></trkpt>
<trkpt lat="43.0075620000" lon="0.3659420000"><ele>627</ele><time>2026-03-24T14:20:29Z</time></trkpt>
<trkpt lat="43.0075820000" lon="0.3659570000"><ele>627</ele><time>2026-03-24T14:20:31Z</time></trkpt>
<trkpt lat="43.0076020000" lon="0.3659650000"><ele>627</ele><time>2026-03-24T14:20:35Z</time></trkpt>
<trkpt lat="43.0076220000" lon="0.3659770000"><ele>627</ele><time>2026-03-24T14:20:37Z</time></trkpt>
<trkpt lat="43.0076520000" lon="0.3659920000"><ele>627</ele><time>2026-03-24T14:20:39Z</time></trkpt>
<trkpt lat="43.0076870000" lon="0.3660070000"><ele>626</ele><time>2026-03-24T14:20:41Z</time></trkpt>
<trkpt lat="43.0077150000" lon="0.3660170000"><ele>627</ele><time>2026-03-24T14:20:43Z</time></trkpt>
<trkpt lat="43.0077420000" lon="0.3660270000"><ele>627</ele><time>2026-03-24T14:20:45Z</time></trkpt>
<trkpt lat="43.0077700000" lon="0.3660370000"><ele>627</ele><time>2026-03-24T14:20:47Z</time></trkpt>
<trkpt lat="43.0077920000" lon="0.3660520000"><ele>627</ele><time>2026-03-24T14:20:49Z</time></trkpt>
<trkpt lat="43.0078170000" lon="0.3660630000"><ele>626</ele><time>2026-03-24T14:20:51Z</time></trkpt>
<trkpt lat="43.0078400000" lon="0.3660770000"><ele>626</ele><time>2026-03-24T14:20:53Z</time></trkpt>
<trkpt lat="43.0078620000" lon="0.3661000000"><ele>626</ele><time>2026-03-24T14:20:55Z</time></trkpt>
<trkpt lat="43.0078800000" lon="0.3661200000"><ele>626</ele><time>2026-03-24T14:20:57Z</time></trkpt>
<trkpt lat="43.0079070000" lon="0.3661300000"><ele>626</ele><time>2026-03-24T14:20:59Z</time></trkpt>
<trkpt lat="43.0079350000" lon="0.3661420000"><ele>626</ele><time>2026-03-24T14:21:01Z</time></trkpt>
<trkpt lat="43.0079620000" lon="0.3661550000"><ele>626</ele><time>2026-03-24T14:21:03Z</time></trkpt>
<trkpt lat="43.0079770000" lon="0.3661730000"><ele>626</ele><time>2026-03-24T14:21:05Z</time></trkpt>
<trkpt lat="43.0079970000" lon="0.3661800000"><ele>626</ele><time>2026-03-24T14:21:07Z</time></trkpt>
<trkpt lat="43.0080150000" lon="0.3661900000"><ele>626</ele><time>2026-03-24T14:21:09Z</time></trkpt>
<trkpt lat="43.0080300000" lon="0.3662120000"><ele>626</ele><time>2026-03-24T14:21:11Z</time></trkpt>
<trkpt lat="43.0080520000" lon="0.3662320000"><ele>626</ele><time>2026-03-24T14:21:13Z</time></trkpt>
<trkpt lat="43.0080770000" lon="0.3662470000"><ele>626</ele><time>2026-03-24T14:21:15Z</time></trkpt>
<trkpt lat="43.0080950000" lon="0.3662620000"><ele>626</ele><time>2026-03-24T14:21:17Z</time></trkpt>
<trkpt lat="43.0081170000" lon="0.3662820000"><ele>626</ele><time>2026-03-24T14:21:20Z</time></trkpt>
<trkpt lat="43.0081420000" lon="0.3662930000"><ele>626</ele><time>2026-03-24T14:21:23Z</time></trkpt>
<trkpt lat="43.0081670000" lon="0.3663020000"><ele>626</ele><time>2026-03-24T14:21:25Z</time></trkpt>
<trkpt lat="43.0081900000" lon="0.3663070000"><ele>625</ele><time>2026-03-24T14:21:27Z</time></trkpt>
<trkpt lat="43.0082120000" lon="0.3663200000"><ele>625</ele><time>2026-03-24T14:21:29Z</time></trkpt>
<trkpt lat="43.0082400000" lon="0.3663370000"><ele>625</ele><time>2026-03-24T14:21:31Z</time></trkpt>
<trkpt lat="43.0082620000" lon="0.3663500000"><ele>625</ele><time>2026-03-24T14:21:33Z</time></trkpt>
<trkpt lat="43.0082820000" lon="0.3663600000"><ele>625</ele><time>2026-03-24T14:21:35Z</time></trkpt>
<trkpt lat="43.0083050000" lon="0.3663750000"><ele>625</ele><time>2026-03-24T14:21:38Z</time></trkpt>
<trkpt lat="43.0083250000" lon="0.3663850000"><ele>625</ele><time>2026-03-24T14:21:40Z</time></trkpt>
<trkpt lat="43.0083520000" lon="0.3664020000"><ele>625</ele><time>2026-03-24T14:21:43Z</time></trkpt>
<trkpt lat="43.0083750000" lon="0.3664070000"><ele>625</ele><time>2026-03-24T14:21:45Z</time></trkpt>
<trkpt lat="43.0084020000" lon="0.3664100000"><ele>625</ele><time>2026-03-24T14:21:47Z</time></trkpt>
<trkpt lat="43.0084200000" lon="0.3664220000"><ele>625</ele><time>2026-03-24T14:21:49Z</time></trkpt>
<trkpt lat="43.0084400000" lon="0.3664380000"><ele>625</ele><time>2026-03-24T14:21:51Z</time></trkpt>
<trkpt lat="43.0084620000" lon="0.3664530000"><ele>625</ele><time>2026-03-24T14:21:53Z</time></trkpt>
<trkpt lat="43.0084770000" lon="0.3664670000"><ele>625</ele><time>2026-03-24T14:21:55Z</time></trkpt>
<trkpt lat="43.0084970000" lon="0.3664650000"><ele>625</ele><time>2026-03-24T14:22:03Z</time></trkpt>
<trkpt lat="43.0085170000" lon="0.3664520000"><ele>625</ele><time>2026-03-24T14:22:05Z</time></trkpt>
<trkpt lat="43.0085520000" lon="0.3664420000"><ele>624</ele><time>2026-03-24T14:22:07Z</time></trkpt>
<trkpt lat="43.0085820000" lon="0.3664480000"><ele>624</ele><time>2026-03-24T14:22:09Z</time></trkpt>
<trkpt lat="43.0086020000" lon="0.3664480000"><ele>624</ele><time>2026-03-24T14:22:11Z</time></trkpt>
<trkpt lat="43.0086220000" lon="0.3664480000"><ele>624</ele><time>2026-03-24T14:22:13Z</time></trkpt>
<trkpt lat="43.0086420000" lon="0.3664520000"><ele>624</ele><time>2026-03-24T14:22:15Z</time></trkpt>
<trkpt lat="43.0086650000" lon="0.3664480000"><ele>625</ele><time>2026-03-24T14:22:17Z</time></trkpt>
<trkpt lat="43.0086870000" lon="0.3664470000"><ele>625</ele><time>2026-03-24T14:22:19Z</time></trkpt>
<trkpt lat="43.0087070000" lon="0.3664530000"><ele>625</ele><time>2026-03-24T14:22:21Z</time></trkpt>
<trkpt lat="43.0087320000" lon="0.3664620000"><ele>625</ele><time>2026-03-24T14:22:23Z</time></trkpt>
<trkpt lat="43.0087570000" lon="0.3664770000"><ele>625</ele><time>2026-03-24T14:22:25Z</time></trkpt>
<trkpt lat="43.0087770000" lon="0.3664870000"><ele>625</ele><time>2026-03-24T14:22:27Z</time></trkpt>
<trkpt lat="43.0087970000" lon="0.3665020000"><ele>625</ele><time>2026-03-24T14:22:29Z</time></trkpt>
<trkpt lat="43.0088200000" lon="0.3665120000"><ele>624</ele><time>2026-03-24T14:22:31Z</time></trkpt>
<trkpt lat="43.0088420000" lon="0.3665270000"><ele>624</ele><time>2026-03-24T14:22:33Z</time></trkpt>
<trkpt lat="43.0088670000" lon="0.3665370000"><ele>625</ele><time>2026-03-24T14:22:35Z</time></trkpt>
<trkpt lat="43.0088900000" lon="0.3665470000"><ele>624</ele><time>2026-03-24T14:22:37Z</time></trkpt>
<trkpt lat="43.0089150000" lon="0.3665570000"><ele>624</ele><time>2026-03-24T14:22:39Z</time></trkpt>
<trkpt lat="43.0089400000" lon="0.3665670000"><ele>624</ele><time>2026-03-24T14:22:41Z</time></trkpt>
<trkpt lat="43.0089620000" lon="0.3665770000"><ele>624</ele><time>2026-03-24T14:22:43Z</time></trkpt>
<trkpt lat="43.0089870000" lon="0.3665870000"><ele>624</ele><time>2026-03-24T14:22:45Z</time></trkpt>
<trkpt lat="43.0090120000" lon="0.3665920000"><ele>624</ele><time>2026-03-24T14:22:47Z</time></trkpt>
<trkpt lat="43.0090320000" lon="0.3666020000"><ele>624</ele><time>2026-03-24T14:22:49Z</time></trkpt>
<trkpt lat="43.0090570000" lon="0.3666120000"><ele>624</ele><time>2026-03-24T14:22:51Z</time></trkpt>
<trkpt lat="43.0090800000" lon="0.3666220000"><ele>624</ele><time>2026-03-24T14:22:53Z</time></trkpt>
<trkpt lat="43.0091020000" lon="0.3666320000"><ele>624</ele><time>2026-03-24T14:22:55Z</time></trkpt>
<trkpt lat="43.0091250000" lon="0.3666420000"><ele>624</ele><time>2026-03-24T14:22:57Z</time></trkpt>
<trkpt lat="43.0091470000" lon="0.3666500000"><ele>624</ele><time>2026-03-24T14:22:59Z</time></trkpt>
<trkpt lat="43.0091670000" lon="0.3666550000"><ele>623</ele><time>2026-03-24T14:23:01Z</time></trkpt>
<trkpt lat="43.0091870000" lon="0.3666650000"><ele>623</ele><time>2026-03-24T14:23:03Z</time></trkpt>
<trkpt lat="43.0092070000" lon="0.3666730000"><ele>623</ele><time>2026-03-24T14:23:05Z</time></trkpt>
<trkpt lat="43.0092270000" lon="0.3666870000"><ele>623</ele><time>2026-03-24T14:23:07Z</time></trkpt>
<trkpt lat="43.0092420000" lon="0.3667020000"><ele>623</ele><time>2026-03-24T14:23:09Z</time></trkpt>
<trkpt lat="43.0092670000" lon="0.3667170000"><ele>623</ele><time>2026-03-24T14:23:11Z</time></trkpt>
<trkpt lat="43.0092900000" lon="0.3667350000"><ele>623</ele><time>2026-03-24T14:23:14Z</time></trkpt>
<trkpt lat="43.0093070000" lon="0.3667400000"><ele>623</ele><time>2026-03-24T14:23:15Z</time></trkpt>
<trkpt lat="43.0093270000" lon="0.3667420000"><ele>623</ele><time>2026-03-24T14:23:16Z</time></trkpt>
<trkpt lat="43.0093570000" lon="0.3667500000"><ele>623</ele><time>2026-03-24T14:23:18Z</time></trkpt>
<trkpt lat="43.0093850000" lon="0.3667620000"><ele>623</ele><time>2026-03-24T14:23:20Z</time></trkpt>
<trkpt lat="43.0094050000" lon="0.3667770000"><ele>623</ele><time>2026-03-24T14:23:22Z</time></trkpt>
<trkpt lat="43.0094270000" lon="0.3667970000"><ele>623</ele><time>2026-03-24T14:23:24Z</time></trkpt>
<trkpt lat="43.0094470000" lon="0.3668170000"><ele>623</ele><time>2026-03-24T14:23:26Z</time></trkpt>
<trkpt lat="43.0094700000" lon="0.3668350000"><ele>623</ele><time>2026-03-24T14:23:28Z</time></trkpt>
<trkpt lat="43.0094870000" lon="0.3668520000"><ele>623</ele><time>2026-03-24T14:23:30Z</time></trkpt>
<trkpt lat="43.0095020000" lon="0.3668720000"><ele>623</ele><time>2026-03-24T14:23:32Z</time></trkpt>
<trkpt lat="43.0095220000" lon="0.3668920000"><ele>623</ele><time>2026-03-24T14:23:34Z</time></trkpt>
<trkpt lat="43.0095370000" lon="0.3669100000"><ele>623</ele><time>2026-03-24T14:23:36Z</time></trkpt>
<trkpt lat="43.0095570000" lon="0.3669300000"><ele>623</ele><time>2026-03-24T14:23:38Z</time></trkpt>
<trkpt lat="43.0095820000" lon="0.3669470000"><ele>623</ele><time>2026-03-24T14:23:41Z</time></trkpt>
<trkpt lat="43.0096020000" lon="0.3669570000"><ele>623</ele><time>2026-03-24T14:23:43Z</time></trkpt>
<trkpt lat="43.0096250000" lon="0.3669720000"><ele>623</ele><time>2026-03-24T14:23:46Z</time></trkpt>
<trkpt lat="43.0096470000" lon="0.3669820000"><ele>623</ele><time>2026-03-24T14:23:48Z</time></trkpt>
<trkpt lat="43.0096720000" lon="0.3669820000"><ele>623</ele><time>2026-03-24T14:23:50Z</time></trkpt>
<trkpt lat="43.0096920000" lon="0.3669850000"><ele>623</ele><time>2026-03-24T14:23:52Z</time></trkpt>
<trkpt lat="43.0097150000" lon="0.3669870000"><ele>623</ele><time>2026-03-24T14:23:54Z</time></trkpt>
<trkpt lat="43.0097400000" lon="0.3669880000"><ele>623</ele><time>2026-03-24T14:23:56Z</time></trkpt>
<trkpt lat="43.0097670000" lon="0.3669920000"><ele>623</ele><time>2026-03-24T14:23:58Z</time></trkpt>
<trkpt lat="43.0097950000" lon="0.3669920000"><ele>623</ele><time>2026-03-24T14:24:00Z</time></trkpt>
<trkpt lat="43.0098180000" lon="0.3669970000"><ele>623</ele><time>2026-03-24T14:24:02Z</time></trkpt>
<trkpt lat="43.0098450000" lon="0.3669970000"><ele>623</ele><time>2026-03-24T14:24:04Z</time></trkpt>
<trkpt lat="43.0098670000" lon="0.3669970000"><ele>623</ele><time>2026-03-24T14:24:06Z</time></trkpt>
<trkpt lat="43.0098920000" lon="0.3669970000"><ele>623</ele><time>2026-03-24T14:24:08Z</time></trkpt>
<trkpt lat="43.0099200000" lon="0.3669970000"><ele>623</ele><time>2026-03-24T14:24:10Z</time></trkpt>
<trkpt lat="43.0099420000" lon="0.3669950000"><ele>623</ele><time>2026-03-24T14:24:12Z</time></trkpt>
<trkpt lat="43.0099670000" lon="0.3669950000"><ele>623</ele><time>2026-03-24T14:24:14Z</time></trkpt>
<trkpt lat="43.0099900000" lon="0.3669970000"><ele>622</ele><time>2026-03-24T14:24:16Z</time></trkpt>
<trkpt lat="43.0100070000" lon="0.3669970000"><ele>622</ele><time>2026-03-24T14:24:18Z</time></trkpt>
<trkpt lat="43.0100270000" lon="0.3670070000"><ele>622</ele><time>2026-03-24T14:24:20Z</time></trkpt>
<trkpt lat="43.0100470000" lon="0.3670120000"><ele>622</ele><time>2026-03-24T14:24:22Z</time></trkpt>
<trkpt lat="43.0100720000" lon="0.3670170000"><ele>622</ele><time>2026-03-24T14:24:24Z</time></trkpt>
<trkpt lat="43.0100920000" lon="0.3670120000"><ele>622</ele><time>2026-03-24T14:24:26Z</time></trkpt>
<trkpt lat="43.0101220000" lon="0.3670050000"><ele>622</ele><time>2026-03-24T14:24:28Z</time></trkpt>
<trkpt lat="43.0101500000" lon="0.3669920000"><ele>622</ele><time>2026-03-24T14:24:30Z</time></trkpt>
<trkpt lat="43.0101770000" lon="0.3669820000"><ele>622</ele><time>2026-03-24T14:24:32Z</time></trkpt>
<trkpt lat="43.0101950000" lon="0.3669780000"><ele>622</ele><time>2026-03-24T14:24:33Z</time></trkpt>
<trkpt lat="43.0102120000" lon="0.3669750000"><ele>622</ele><time>2026-03-24T14:24:34Z</time></trkpt>
<trkpt lat="43.0102370000" lon="0.3669720000"><ele>622</ele><time>2026-03-24T14:24:36Z</time></trkpt>
<trkpt lat="43.0102550000" lon="0.3669670000"><ele>622</ele><time>2026-03-24T14:24:38Z</time></trkpt>
<trkpt lat="43.0102820000" lon="0.3669670000"><ele>622</ele><time>2026-03-24T14:24:40Z</time></trkpt>
<trkpt lat="43.0103050000" lon="0.3669650000"><ele>622</ele><time>2026-03-24T14:24:42Z</time></trkpt>
<trkpt lat="43.0103300000" lon="0.3669620000"><ele>622</ele><time>2026-03-24T14:24:44Z</time></trkpt>
<trkpt lat="43.0103520000" lon="0.3669570000"><ele>622</ele><time>2026-03-24T14:24:46Z</time></trkpt>
<trkpt lat="43.0103770000" lon="0.3669520000"><ele>622</ele><time>2026-03-24T14:24:48Z</time></trkpt>
<trkpt lat="43.0104000000" lon="0.3669520000"><ele>622</ele><time>2026-03-24T14:24:50Z</time></trkpt>
<trkpt lat="43.0104230000" lon="0.3669470000"><ele>622</ele><time>2026-03-24T14:24:52Z</time></trkpt>
<trkpt lat="43.0104470000" lon="0.3669420000"><ele>622</ele><time>2026-03-24T14:24:54Z</time></trkpt>
<trkpt lat="43.0104670000" lon="0.3669420000"><ele>622</ele><time>2026-03-24T14:24:56Z</time></trkpt>
<trkpt lat="43.0104900000" lon="0.3669370000"><ele>622</ele><time>2026-03-24T14:24:58Z</time></trkpt>
<trkpt lat="43.0105080000" lon="0.3669270000"><ele>622</ele><time>2026-03-24T14:25:00Z</time></trkpt>
<trkpt lat="43.0105320000" lon="0.3669170000"><ele>622</ele><time>2026-03-24T14:25:02Z</time></trkpt>
<trkpt lat="43.0105550000" lon="0.3668970000"><ele>622</ele><time>2026-03-24T14:25:04Z</time></trkpt>
<trkpt lat="43.0105750000" lon="0.3668850000"><ele>622</ele><time>2026-03-24T14:25:07Z</time></trkpt>
<trkpt lat="43.0106000000" lon="0.3668820000"><ele>622</ele><time>2026-03-24T14:25:09Z</time></trkpt>
<trkpt lat="43.0106250000" lon="0.3668870000"><ele>622</ele><time>2026-03-24T14:25:11Z</time></trkpt>
<trkpt lat="43.0106520000" lon="0.3668970000"><ele>622</ele><time>2026-03-24T14:25:13Z</time></trkpt>
<trkpt lat="43.0106770000" lon="0.3669200000"><ele>622</ele><time>2026-03-24T14:25:15Z</time></trkpt>
<trkpt lat="43.0107020000" lon="0.3669450000"><ele>622</ele><time>2026-03-24T14:25:17Z</time></trkpt>
<trkpt lat="43.0107220000" lon="0.3669650000"><ele>622</ele><time>2026-03-24T14:25:19Z</time></trkpt>
<trkpt lat="43.0107370000" lon="0.3669820000"><ele>622</ele><time>2026-03-24T14:25:21Z</time></trkpt>
<trkpt lat="43.0107550000" lon="0.3670050000"><ele>622</ele><time>2026-03-24T14:25:23Z</time></trkpt>
<trkpt lat="43.0107670000" lon="0.3670320000"><ele>621</ele><time>2026-03-24T14:25:25Z</time></trkpt>
<trkpt lat="43.0107800000" lon="0.3670520000"><ele>621</ele><time>2026-03-24T14:25:27Z</time></trkpt>
<trkpt lat="43.0107920000" lon="0.3670720000"><ele>621</ele><time>2026-03-24T14:25:29Z</time></trkpt>
<trkpt lat="43.0108070000" lon="0.3670970000"><ele>621</ele><time>2026-03-24T14:25:32Z</time></trkpt>
<trkpt lat="43.0108220000" lon="0.3671120000"><ele>621</ele><time>2026-03-24T14:25:38Z</time></trkpt>
<trkpt lat="43.0108470000" lon="0.3671300000"><ele>621</ele><time>2026-03-24T14:25:41Z</time></trkpt>
<trkpt lat="43.0108600000" lon="0.3671570000"><ele>621</ele><time>2026-03-24T14:25:44Z</time></trkpt>
<trkpt lat="43.0108820000" lon="0.3671820000"><ele>621</ele><time>2026-03-24T14:25:46Z</time></trkpt>
<trkpt lat="43.0109000000" lon="0.3672050000"><ele>620</ele><time>2026-03-24T14:25:48Z</time></trkpt>
<trkpt lat="43.0109270000" lon="0.3672250000"><ele>620</ele><time>2026-03-24T14:25:50Z</time></trkpt>
<trkpt lat="43.0109470000" lon="0.3672470000"><ele>620</ele><time>2026-03-24T14:25:52Z</time></trkpt>
<trkpt lat="43.0109550000" lon="0.3672770000"><ele>620</ele><time>2026-03-24T14:25:54Z</time></trkpt>
<trkpt lat="43.0109770000" lon="0.3672970000"><ele>620</ele><time>2026-03-24T14:25:56Z</time></trkpt>
<trkpt lat="43.0109970000" lon="0.3673180000"><ele>620</ele><time>2026-03-24T14:25:58Z</time></trkpt>
<trkpt lat="43.0110150000" lon="0.3673370000"><ele>620</ele><time>2026-03-24T14:26:00Z</time></trkpt>
<trkpt lat="43.0110350000" lon="0.3673570000"><ele>619</ele><time>2026-03-24T14:26:02Z</time></trkpt>
<trkpt lat="43.0110570000" lon="0.3673750000"><ele>619</ele><time>2026-03-24T14:26:04Z</time></trkpt>
<trkpt lat="43.0110770000" lon="0.3673920000"><ele>619</ele><time>2026-03-24T14:26:06Z</time></trkpt>
<trkpt lat="43.0111000000" lon="0.3674100000"><ele>619</ele><time>2026-03-24T14:26:08Z</time></trkpt>
<trkpt lat="43.0111220000" lon="0.3674230000"><ele>619</ele><time>2026-03-24T14:26:10Z</time></trkpt>
<trkpt lat="43.0111420000" lon="0.3674320000"><ele>619</ele><time>2026-03-24T14:26:12Z</time></trkpt>
<trkpt lat="43.0111570000" lon="0.3674470000"><ele>619</ele><time>2026-03-24T14:26:14Z</time></trkpt>
<trkpt lat="43.0111770000" lon="0.3674670000"><ele>619</ele><time>2026-03-24T14:26:16Z</time></trkpt>
<trkpt lat="43.0111950000" lon="0.3674800000"><ele>619</ele><time>2026-03-24T14:26:18Z</time></trkpt>
<trkpt lat="43.0112120000" lon="0.3675000000"><ele>619</ele><time>2026-03-24T14:26:20Z</time></trkpt>
<trkpt lat="43.0112320000" lon="0.3675200000"><ele>619</ele><time>2026-03-24T14:26:22Z</time></trkpt>
<trkpt lat="43.0112520000" lon="0.3675380000"><ele>619</ele><time>2026-03-24T14:26:24Z</time></trkpt>
<trkpt lat="43.0112670000" lon="0.3675570000"><ele>619</ele><time>2026-03-24T14:26:26Z</time></trkpt>
<trkpt lat="43.0112920000" lon="0.3675720000"><ele>619</ele><time>2026-03-24T14:26:28Z</time></trkpt>
<trkpt lat="43.0113100000" lon="0.3675950000"><ele>619</ele><time>2026-03-24T14:26:31Z</time></trkpt>
<trkpt lat="43.0113270000" lon="0.3676120000"><ele>619</ele><time>2026-03-24T14:26:33Z</time></trkpt>
<trkpt lat="43.0113520000" lon="0.3676270000"><ele>619</ele><time>2026-03-24T14:26:35Z</time></trkpt>
<trkpt lat="43.0113720000" lon="0.3676420000"><ele>619</ele><time>2026-03-24T14:26:37Z</time></trkpt>
<trkpt lat="43.0113920000" lon="0.3676570000"><ele>619</ele><time>2026-03-24T14:26:39Z</time></trkpt>
<trkpt lat="43.0114170000" lon="0.3676770000"><ele>619</ele><time>2026-03-24T14:26:42Z</time></trkpt>
<trkpt lat="43.0114300000" lon="0.3676930000"><ele>619</ele><time>2026-03-24T14:26:44Z</time></trkpt>
<trkpt lat="43.0114400000" lon="0.3677200000"><ele>619</ele><time>2026-03-24T14:26:46Z</time></trkpt>
<trkpt lat="43.0114550000" lon="0.3677330000"><ele>618</ele><time>2026-03-24T14:26:49Z</time></trkpt>
<trkpt lat="43.0114770000" lon="0.3677520000"><ele>618</ele><time>2026-03-24T14:26:52Z</time></trkpt>
<trkpt lat="43.0115000000" lon="0.3677670000"><ele>618</ele><time>2026-03-24T14:26:54Z</time></trkpt>
<trkpt lat="43.0115220000" lon="0.3677800000"><ele>618</ele><time>2026-03-24T14:26:56Z</time></trkpt>
<trkpt lat="43.0115420000" lon="0.3677930000"><ele>618</ele><time>2026-03-24T14:26:58Z</time></trkpt>
<trkpt lat="43.0115600000" lon="0.3678020000"><ele>618</ele><time>2026-03-24T14:27:00Z</time></trkpt>
<trkpt lat="43.0115820000" lon="0.3678170000"><ele>618</ele><time>2026-03-24T14:27:02Z</time></trkpt>
<trkpt lat="43.0116050000" lon="0.3678470000"><ele>618</ele><time>2026-03-24T14:27:04Z</time></trkpt>
<trkpt lat="43.0116220000" lon="0.3678600000"><ele>618</ele><time>2026-03-24T14:27:05Z</time></trkpt>
<trkpt lat="43.0116470000" lon="0.3678750000"><ele>618</ele><time>2026-03-24T14:27:07Z</time></trkpt>
<trkpt lat="43.0116720000" lon="0.3678920000"><ele>618</ele><time>2026-03-24T14:27:09Z</time></trkpt>
<trkpt lat="43.0116950000" lon="0.3679150000"><ele>618</ele><time>2026-03-24T14:27:11Z</time></trkpt>
<trkpt lat="43.0117120000" lon="0.3679280000"><ele>618</ele><time>2026-03-24T14:27:13Z</time></trkpt>
<trkpt lat="43.0117320000" lon="0.3679530000"><ele>618</ele><time>2026-03-24T14:27:16Z</time></trkpt>
<trkpt lat="43.0117500000" lon="0.3679820000"><ele>618</ele><time>2026-03-24T14:27:19Z</time></trkpt>
<trkpt lat="43.0117670000" lon="0.3679920000"><ele>618</ele><time>2026-03-24T14:27:21Z</time></trkpt>
<trkpt lat="43.0117850000" lon="0.3680070000"><ele>618</ele><time>2026-03-24T14:27:23Z</time></trkpt>
<trkpt lat="43.0118000000" lon="0.3680300000"><ele>618</ele><time>2026-03-24T14:27:25Z</time></trkpt>
<trkpt lat="43.0118170000" lon="0.3680370000"><ele>618</ele><time>2026-03-24T14:27:28Z</time></trkpt>
<trkpt lat="43.0118320000" lon="0.3680700000"><ele>618</ele><time>2026-03-24T14:27:38Z</time></trkpt>
<trkpt lat="43.0118520000" lon="0.3681020000"><ele>618</ele><time>2026-03-24T14:27:40Z</time></trkpt>
<trkpt lat="43.0118470000" lon="0.3681270000"><ele>618</ele><time>2026-03-24T14:27:45Z</time></trkpt>
<trkpt lat="43.0118570000" lon="0.3681570000"><ele>618</ele><time>2026-03-24T14:28:05Z</time></trkpt>
<trkpt lat="43.0118720000" lon="0.3681920000"><ele>618</ele><time>2026-03-24T14:28:07Z</time></trkpt>
<trkpt lat="43.0118870000" lon="0.3682250000"><ele>618</ele><time>2026-03-24T14:28:09Z</time></trkpt>
<trkpt lat="43.0118970000" lon="0.3682570000"><ele>618</ele><time>2026-03-24T14:28:12Z</time></trkpt>
<trkpt lat="43.0119150000" lon="0.3682770000"><ele>618</ele><time>2026-03-24T14:28:14Z</time></trkpt>
<trkpt lat="43.0119430000" lon="0.3682970000"><ele>618</ele><time>2026-03-24T14:28:16Z</time></trkpt>
<trkpt lat="43.0119620000" lon="0.3683070000"><ele>618</ele><time>2026-03-24T14:28:17Z</time></trkpt>
<trkpt lat="43.0119820000" lon="0.3683150000"><ele>618</ele><time>2026-03-24T14:28:18Z</time></trkpt>
<trkpt lat="43.0120170000" lon="0.3683270000"><ele>618</ele><time>2026-03-24T14:28:20Z</time></trkpt>
<trkpt lat="43.0120370000" lon="0.3683470000"><ele>618</ele><time>2026-03-24T14:28:22Z</time></trkpt>
<trkpt lat="43.0120570000" lon="0.3683680000"><ele>618</ele><time>2026-03-24T14:28:24Z</time></trkpt>
<trkpt lat="43.0120820000" lon="0.3683870000"><ele>618</ele><time>2026-03-24T14:28:26Z</time></trkpt>
<trkpt lat="43.0121070000" lon="0.3684050000"><ele>618</ele><time>2026-03-24T14:28:28Z</time></trkpt>
<trkpt lat="43.0121320000" lon="0.3684250000"><ele>618</ele><time>2026-03-24T14:28:30Z</time></trkpt>
<trkpt lat="43.0121520000" lon="0.3684450000"><ele>618</ele><time>2026-03-24T14:28:32Z</time></trkpt>
<trkpt lat="43.0121720000" lon="0.3684670000"><ele>618</ele><time>2026-03-24T14:28:34Z</time></trkpt>
<trkpt lat="43.0121850000" lon="0.3684870000"><ele>618</ele><time>2026-03-24T14:28:36Z</time></trkpt>
<trkpt lat="43.0122020000" lon="0.3685070000"><ele>618</ele><time>2026-03-24T14:28:38Z</time></trkpt>
<trkpt lat="43.0122220000" lon="0.3685270000"><ele>618</ele><time>2026-03-24T14:28:40Z</time></trkpt>
<trkpt lat="43.0122350000" lon="0.3685470000"><ele>618</ele><time>2026-03-24T14:28:42Z</time></trkpt>
<trkpt lat="43.0122500000" lon="0.3685700000"><ele>618</ele><time>2026-03-24T14:28:44Z</time></trkpt>
<trkpt lat="43.0122620000" lon="0.3685920000"><ele>618</ele><time>2026-03-24T14:28:46Z</time></trkpt>
<trkpt lat="43.0122770000" lon="0.3686120000"><ele>618</ele><time>2026-03-24T14:28:48Z</time></trkpt>
<trkpt lat="43.0123020000" lon="0.3686320000"><ele>618</ele><time>2026-03-24T14:28:50Z</time></trkpt>
<trkpt lat="43.0123200000" lon="0.3686520000"><ele>618</ele><time>2026-03-24T14:28:52Z</time></trkpt>
<trkpt lat="43.0123400000" lon="0.3686680000"><ele>618</ele><time>2026-03-24T14:28:54Z</time></trkpt>
<trkpt lat="43.0123600000" lon="0.3686920000"><ele>618</ele><time>2026-03-24T14:28:56Z</time></trkpt>
<trkpt lat="43.0123820000" lon="0.3687020000"><ele>618</ele><time>2026-03-24T14:28:58Z</time></trkpt>
<trkpt lat="43.0124070000" lon="0.3687020000"><ele>618</ele><time>2026-03-24T14:29:00Z</time></trkpt>
<trkpt lat="43.0124270000" lon="0.3686900000"><ele>618</ele><time>2026-03-24T14:29:02Z</time></trkpt>
<trkpt lat="43.0124500000" lon="0.3686670000"><ele>618</ele><time>2026-03-24T14:29:04Z</time></trkpt>
<trkpt lat="43.0124620000" lon="0.3686420000"><ele>618</ele><time>2026-03-24T14:29:06Z</time></trkpt>
<trkpt lat="43.0124720000" lon="0.3686220000"><ele>618</ele><time>2026-03-24T14:29:08Z</time></trkpt>
<trkpt lat="43.0124850000" lon="0.3685900000"><ele>618</ele><time>2026-03-24T14:29:10Z</time></trkpt>
<trkpt lat="43.0124950000" lon="0.3685570000"><ele>618</ele><time>2026-03-24T14:29:12Z</time></trkpt>
<trkpt lat="43.0125070000" lon="0.3685300000"><ele>618</ele><time>2026-03-24T14:29:14Z</time></trkpt>
<trkpt lat="43.0125200000" lon="0.3685100000"><ele>618</ele><time>2026-03-24T14:29:16Z</time></trkpt>
<trkpt lat="43.0125300000" lon="0.3684820000"><ele>618</ele><time>2026-03-24T14:29:18Z</time></trkpt>
<trkpt lat="43.0125420000" lon="0.3684620000"><ele>618</ele><time>2026-03-24T14:29:20Z</time></trkpt>
<trkpt lat="43.0125550000" lon="0.3684470000"><ele>618</ele><time>2026-03-24T14:29:22Z</time></trkpt>
<trkpt lat="43.0125700000" lon="0.3684200000"><ele>618</ele><time>2026-03-24T14:29:25Z</time></trkpt>
<trkpt lat="43.0125820000" lon="0.3683870000"><ele>618</ele><time>2026-03-24T14:29:27Z</time></trkpt>
<trkpt lat="43.0125950000" lon="0.3683520000"><ele>618</ele><time>2026-03-24T14:29:29Z</time></trkpt>
<trkpt lat="43.0126070000" lon="0.3683220000"><ele>618</ele><time>2026-03-24T14:29:31Z</time></trkpt>
<trkpt lat="43.0126170000" lon="0.3682920000"><ele>619</ele><time>2026-03-24T14:29:33Z</time></trkpt>
<trkpt lat="43.0126320000" lon="0.3682620000"><ele>619</ele><time>2026-03-24T14:29:35Z</time></trkpt>
<trkpt lat="43.0126470000" lon="0.3682300000"><ele>619</ele><time>2026-03-24T14:29:37Z</time></trkpt>
<trkpt lat="43.0126600000" lon="0.3682020000"><ele>619</ele><time>2026-03-24T14:29:39Z</time></trkpt>
<trkpt lat="43.0126670000" lon="0.3681720000"><ele>619</ele><time>2026-03-24T14:29:41Z</time></trkpt>
<trkpt lat="43.0126820000" lon="0.3681520000"><ele>619</ele><time>2026-03-24T14:29:43Z</time></trkpt>
<trkpt lat="43.0126970000" lon="0.3681320000"><ele>619</ele><time>2026-03-24T14:29:45Z</time></trkpt>
<trkpt lat="43.0127120000" lon="0.3681070000"><ele>619</ele><time>2026-03-24T14:29:47Z</time></trkpt>
<trkpt lat="43.0127270000" lon="0.3680870000"><ele>619</ele><time>2026-03-24T14:29:49Z</time></trkpt>
<trkpt lat="43.0127420000" lon="0.3680620000"><ele>619</ele><time>2026-03-24T14:29:51Z</time></trkpt>
<trkpt lat="43.0127570000" lon="0.3680370000"><ele>619</ele><time>2026-03-24T14:29:53Z</time></trkpt>
<trkpt lat="43.0127670000" lon="0.3680120000"><ele>619</ele><time>2026-03-24T14:29:55Z</time></trkpt>
<trkpt lat="43.0127720000" lon="0.3679820000"><ele>619</ele><time>2026-03-24T14:29:57Z</time></trkpt>
<trkpt lat="43.0127820000" lon="0.3679570000"><ele>619</ele><time>2026-03-24T14:29:59Z</time></trkpt>
<trkpt lat="43.0127970000" lon="0.3679320000"><ele>619</ele><time>2026-03-24T14:30:01Z</time></trkpt>
<trkpt lat="43.0128150000" lon="0.3679100000"><ele>619</ele><time>2026-03-24T14:30:04Z</time></trkpt>
<trkpt lat="43.0128270000" lon="0.3678920000"><ele>619</ele><time>2026-03-24T14:30:06Z</time></trkpt>
<trkpt lat="43.0128420000" lon="0.3678680000"><ele>619</ele><time>2026-03-24T14:30:08Z</time></trkpt>
<trkpt lat="43.0128600000" lon="0.3678450000"><ele>619</ele><time>2026-03-24T14:30:10Z</time></trkpt>
<trkpt lat="43.0128670000" lon="0.3678120000"><ele>619</ele><time>2026-03-24T14:30:12Z</time></trkpt>
<trkpt lat="43.0128620000" lon="0.3677820000"><ele>620</ele><time>2026-03-24T14:30:14Z</time></trkpt>
<trkpt lat="43.0128520000" lon="0.3677520000"><ele>620</ele><time>2026-03-24T14:30:17Z</time></trkpt>
<trkpt lat="43.0128550000" lon="0.3677150000"><ele>620</ele><time>2026-03-24T14:30:20Z</time></trkpt>
<trkpt lat="43.0128520000" lon="0.3676900000"><ele>620</ele><time>2026-03-24T14:30:22Z</time></trkpt>
<trkpt lat="43.0128520000" lon="0.3676570000"><ele>620</ele><time>2026-03-24T14:30:25Z</time></trkpt>
<trkpt lat="43.0128470000" lon="0.3676270000"><ele>621</ele><time>2026-03-24T14:30:28Z</time></trkpt>
<trkpt lat="43.0128350000" lon="0.3675970000"><ele>621</ele><time>2026-03-24T14:30:31Z</time></trkpt>
<trkpt lat="43.0128220000" lon="0.3675750000"><ele>621</ele><time>2026-03-24T14:30:33Z</time></trkpt>
<trkpt lat="43.0128070000" lon="0.3675550000"><ele>621</ele><time>2026-03-24T14:30:35Z</time></trkpt>
<trkpt lat="43.0128050000" lon="0.3675270000"><ele>621</ele><time>2026-03-24T14:30:37Z</time></trkpt>
<trkpt lat="43.0127920000" lon="0.3674950000"><ele>621</ele><time>2026-03-24T14:30:39Z</time></trkpt>
<trkpt lat="43.0127770000" lon="0.3674630000"><ele>621</ele><time>2026-03-24T14:30:42Z</time></trkpt>
<trkpt lat="43.0127670000" lon="0.3674370000"><ele>622</ele><time>2026-03-24T14:30:45Z</time></trkpt>
<trkpt lat="43.0127620000" lon="0.3674100000"><ele>622</ele><time>2026-03-24T14:30:48Z</time></trkpt>
<trkpt lat="43.0127520000" lon="0.3673900000"><ele>622</ele><time>2026-03-24T14:30:52Z</time></trkpt>
<trkpt lat="43.0127600000" lon="0.3674130000"><ele>622</ele><time>2026-03-24T14:31:19Z</time></trkpt>
</trkseg>
</trk>
</gpx>